<?xml version='1.0' encoding='UTF-8'?><gpx version="1.1" creator="JPX - https://github.com/jenetics/jpx" xmlns="http://www.topografix.com/GPX/1/1"><trk><trkseg><trkpt lat="43.89539491368762" lon="10.470686402751417"><ele>75.0</ele><time>2026-05-04T07:57:11.999Z</time></trkpt><trkpt lat="43.89545776778546" lon="10.470663744865377"><ele>75.0</ele><time>2026-05-04T07:57:14.999Z</time></trkpt><trkpt lat="43.89553911958774" lon="10.470715387790843"><ele>75.0</ele><time>2026-05-04T07:57:18.999Z</time></trkpt><trkpt lat="43.89555513633167" lon="10.470843589537663"><ele>75.0</ele><time>2026-05-04T07:57:20.999Z</time></trkpt><trkpt lat="43.89554051066796" lon="10.470978794246367"><ele>75.0</ele><time>2026-05-04T07:57:22.999Z</time></trkpt><trkpt lat="43.89553102597481" lon="10.471109109918377"><ele>75.0</ele><time>2026-05-04T07:57:24.999Z</time></trkpt><trkpt lat="43.89547670550029" lon="10.47121623289474"><ele>75.0</ele><time>2026-05-04T07:57:26.999Z</time></trkpt><trkpt lat="43.89539420770767" lon="10.47122647624579"><ele>75.0</ele><time>2026-05-04T07:57:28.999Z</time></trkpt><trkpt lat="43.89531216252152" lon="10.471172906069164"><ele>75.0</ele><time>2026-05-04T07:57:30.999Z</time></trkpt><trkpt lat="43.89519143028502" lon="10.471106213546541"><ele>75.0</ele><time>2026-05-04T07:57:32.999Z</time></trkpt><trkpt lat="43.89513854769561" lon="10.471033305999956"><ele>75.0</ele><time>2026-05-04T07:57:33.999Z</time></trkpt><trkpt lat="43.89507757118602" lon="10.470995711185543"><ele>75.0</ele><time>2026-05-04T07:57:34.999Z</time></trkpt><trkpt lat="43.89501714517213" lon="10.470940255390335"><ele>76.2</ele><time>2026-05-04T07:57:35.999Z</time></trkpt><trkpt lat="43.8949345152261" lon="10.470839622462071"><ele>77.4</ele><time>2026-05-04T07:57:37.999Z</time></trkpt><trkpt lat="43.894836331514554" lon="10.470763950315284"><ele>78.6</ele><time>2026-05-04T07:57:39.999Z</time></trkpt><trkpt lat="43.89475261404049" lon="10.47068430850654"><ele>79.8</ele><time>2026-05-04T07:57:41.999Z</time></trkpt><trkpt lat="43.89466393025085" lon="10.470647188909776"><ele>81.0</ele><time>2026-05-04T07:57:43.999Z</time></trkpt><trkpt lat="43.89457830446392" lon="10.47065158251011"><ele>81.0</ele><time>2026-05-04T07:57:45.999Z</time></trkpt><trkpt lat="43.89448407853237" lon="10.470654043535223"><ele>81.0</ele><time>2026-05-04T07:57:48.999Z</time></trkpt><trkpt lat="43.894449002692916" lon="10.470778096285123"><ele>81.0</ele><time>2026-05-04T07:57:50.999Z</time></trkpt><trkpt lat="43.89446855618497" lon="10.470861510324347"><ele>81.0</ele><time>2026-05-04T07:57:51.999Z</time></trkpt><trkpt lat="43.89450458531395" lon="10.470939714772408"><ele>81.0</ele><time>2026-05-04T07:57:52.999Z</time></trkpt><trkpt lat="43.894509935173964" lon="10.471031787388704"><ele>81.0</ele><time>2026-05-04T07:57:53.999Z</time></trkpt><trkpt lat="43.89453381166004" lon="10.471119214807718"><ele>78.66666666666667</ele><time>2026-05-04T07:57:54.999Z</time></trkpt><trkpt lat="43.8945672214521" lon="10.47128101946561"><ele>76.33333333333333</ele><time>2026-05-04T07:57:56.999Z</time></trkpt><trkpt lat="43.89455715249527" lon="10.471381097118474"><ele>74.0</ele><time>2026-05-04T07:57:57.999Z</time></trkpt><trkpt lat="43.89456643559942" lon="10.47148600658935"><ele>71.66666666666666</ele><time>2026-05-04T07:57:58.999Z</time></trkpt><trkpt lat="43.894589488403994" lon="10.47157934686954"><ele>69.33333333333333</ele><time>2026-05-04T07:57:59.999Z</time></trkpt><trkpt lat="43.89464926608966" lon="10.471671786746647"><ele>67.0</ele><time>2026-05-04T07:58:00.999Z</time></trkpt><trkpt lat="43.89467671920732" lon="10.471782954747262"><ele>67.0</ele><time>2026-05-04T07:58:01.999Z</time></trkpt><trkpt lat="43.89471841336802" lon="10.471895343738241"><ele>67.0</ele><time>2026-05-04T07:58:02.999Z</time></trkpt><trkpt lat="43.894773204462204" lon="10.47199276842241"><ele>67.0</ele><time>2026-05-04T07:58:03.999Z</time></trkpt><trkpt lat="43.89480689760573" lon="10.472083651676432"><ele>67.0</ele><time>2026-05-04T07:58:04.999Z</time></trkpt><trkpt lat="43.8948323133112" lon="10.472163818277325"><ele>67.0</ele><time>2026-05-04T07:58:05.999Z</time></trkpt><trkpt lat="43.89488631279229" lon="10.472281941177219"><ele>67.0</ele><time>2026-05-04T07:58:07.999Z</time></trkpt><trkpt lat="43.89497425560563" lon="10.472384163649288"><ele>65.4</ele><time>2026-05-04T07:58:09.999Z</time></trkpt><trkpt lat="43.89504619643244" lon="10.472450971455805"><ele>63.800000000000004</ele><time>2026-05-04T07:58:10.999Z</time></trkpt><trkpt lat="43.89510115868031" lon="10.472520237752299"><ele>62.2</ele><time>2026-05-04T07:58:11.999Z</time></trkpt><trkpt lat="43.89515269216543" lon="10.472582671056012"><ele>60.6</ele><time>2026-05-04T07:58:12.999Z</time></trkpt><trkpt lat="43.8952440332102" lon="10.47269359355359"><ele>59.0</ele><time>2026-05-04T07:58:14.999Z</time></trkpt><trkpt lat="43.89530470671419" lon="10.472841989143623"><ele>58.0</ele><time>2026-05-04T07:58:16.999Z</time></trkpt><trkpt lat="43.895324569682025" lon="10.47293452914195"><ele>57.00000000000001</ele><time>2026-05-04T07:58:17.999Z</time></trkpt><trkpt lat="43.89530533251838" lon="10.473029872775717"><ele>56.00000000000001</ele><time>2026-05-04T07:58:18.999Z</time></trkpt><trkpt lat="43.8953107688316" lon="10.47319862386287"><ele>55.0</ele><time>2026-05-04T07:58:20.999Z</time></trkpt><trkpt lat="43.89533165101869" lon="10.473355857976392"><ele>54.0</ele><time>2026-05-04T07:58:22.999Z</time></trkpt><trkpt lat="43.89539529762207" lon="10.473412790634926"><ele>53.0</ele><time>2026-05-04T07:58:24.999Z</time></trkpt><trkpt lat="43.89538795316623" lon="10.473525861614068"><ele>52.00000000000001</ele><time>2026-05-04T07:58:28.999Z</time></trkpt><trkpt lat="43.89533357081163" lon="10.473615893976111"><ele>51.0</ele><time>2026-05-04T07:58:29.999Z</time></trkpt><trkpt lat="43.895273054702876" lon="10.473733912705981"><ele>50.0</ele><time>2026-05-04T07:58:30.999Z</time></trkpt><trkpt lat="43.895196947412124" lon="10.473846284233991"><ele>49.0</ele><time>2026-05-04T07:58:31.999Z</time></trkpt><trkpt lat="43.89511491925014" lon="10.473964410475697"><ele>48.75</ele><time>2026-05-04T07:58:32.999Z</time></trkpt><trkpt lat="43.89502223308437" lon="10.474087434300005"><ele>48.5</ele><time>2026-05-04T07:58:33.999Z</time></trkpt><trkpt lat="43.894925049689654" lon="10.474210352733124"><ele>48.25</ele><time>2026-05-04T07:58:34.999Z</time></trkpt><trkpt lat="43.89482679745642" lon="10.474340433559354"><ele>48.0</ele><time>2026-05-04T07:58:35.999Z</time></trkpt><trkpt lat="43.89472741160521" lon="10.474474985669165"><ele>47.333333333333336</ele><time>2026-05-04T07:58:36.999Z</time></trkpt><trkpt lat="43.89462265320687" lon="10.474615445367103"><ele>46.66666666666667</ele><time>2026-05-04T07:58:37.999Z</time></trkpt><trkpt lat="43.89451276170897" lon="10.474761201619081"><ele>46.0</ele><time>2026-05-04T07:58:38.999Z</time></trkpt><trkpt lat="43.8943998650465" lon="10.474915119178991"><ele>46.0</ele><time>2026-05-04T07:58:39.999Z</time></trkpt><trkpt lat="43.894281705457054" lon="10.475069631977732"><ele>46.0</ele><time>2026-05-04T07:58:40.999Z</time></trkpt><trkpt lat="43.894164233571594" lon="10.475221797473305"><ele>46.0</ele><time>2026-05-04T07:58:41.999Z</time></trkpt><trkpt lat="43.894040917480254" lon="10.475380223770207"><ele>47.0</ele><time>2026-05-04T07:58:42.999Z</time></trkpt><trkpt lat="43.893918747140226" lon="10.47553707150002"><ele>48.0</ele><time>2026-05-04T07:58:43.999Z</time></trkpt><trkpt lat="43.89379094618438" lon="10.475690736364765"><ele>49.0</ele><time>2026-05-04T07:58:44.999Z</time></trkpt><trkpt lat="43.89364531209086" lon="10.475789004547172"><ele>49.0</ele><time>2026-05-04T07:58:45.999Z</time></trkpt><trkpt lat="43.893505485420405" lon="10.47587020268438"><ele>49.0</ele><time>2026-05-04T07:58:46.999Z</time></trkpt><trkpt lat="43.89336322340524" lon="10.475930841806463"><ele>49.0</ele><time>2026-05-04T07:58:47.999Z</time></trkpt><trkpt lat="43.893208981791254" lon="10.475909444494002"><ele>49.0</ele><time>2026-05-04T07:58:48.999Z</time></trkpt><trkpt lat="43.89304888551486" lon="10.47585381572694"><ele>49.0</ele><time>2026-05-04T07:58:49.999Z</time></trkpt><trkpt lat="43.89288765638501" lon="10.475780005139187"><ele>49.0</ele><time>2026-05-04T07:58:50.999Z</time></trkpt><trkpt lat="43.892726715733104" lon="10.475697756381596"><ele>49.33333333333333</ele><time>2026-05-04T07:58:51.999Z</time></trkpt><trkpt lat="43.89256757432744" lon="10.47559929112917"><ele>49.66666666666667</ele><time>2026-05-04T07:58:52.999Z</time></trkpt><trkpt lat="43.892403989924134" lon="10.475490083338935"><ele>50.0</ele><time>2026-05-04T07:58:53.999Z</time></trkpt><trkpt lat="43.892252278915215" lon="10.475394036834885"><ele>50.333333333333336</ele><time>2026-05-04T07:58:54.999Z</time></trkpt><trkpt lat="43.89209111619779" lon="10.47533457115772"><ele>50.66666666666667</ele><time>2026-05-04T07:58:55.999Z</time></trkpt><trkpt lat="43.89192421526243" lon="10.475328973014912"><ele>51.0</ele><time>2026-05-04T07:58:56.999Z</time></trkpt><trkpt lat="43.891752212929404" lon="10.475357363825065"><ele>51.66666666666667</ele><time>2026-05-04T07:58:57.999Z</time></trkpt><trkpt lat="43.89159175165992" lon="10.475409164870785"><ele>52.333333333333336</ele><time>2026-05-04T07:58:58.999Z</time></trkpt><trkpt lat="43.89143638023836" lon="10.475501476441481"><ele>53.0</ele><time>2026-05-04T07:58:59.999Z</time></trkpt><trkpt lat="43.89128859204962" lon="10.47562282410084"><ele>50.66666666666667</ele><time>2026-05-04T07:59:00.999Z</time></trkpt><trkpt lat="43.89114616158502" lon="10.475768580847605"><ele>48.333333333333336</ele><time>2026-05-04T07:59:01.999Z</time></trkpt><trkpt lat="43.89100451441781" lon="10.475919804385597"><ele>46.0</ele><time>2026-05-04T07:59:02.999Z</time></trkpt><trkpt lat="43.890856784317016" lon="10.476080445171862"><ele>45.66666666666667</ele><time>2026-05-04T07:59:03.999Z</time></trkpt><trkpt lat="43.89070394774632" lon="10.476241318246634"><ele>45.333333333333336</ele><time>2026-05-04T07:59:04.999Z</time></trkpt><trkpt lat="43.890552870541306" lon="10.476407417815249"><ele>45.0</ele><time>2026-05-04T07:59:05.999Z</time></trkpt><trkpt lat="43.89039860421021" lon="10.476578339333773"><ele>44.0</ele><time>2026-05-04T07:59:06.999Z</time></trkpt><trkpt lat="43.89024458630223" lon="10.476755793066882"><ele>43.0</ele><time>2026-05-04T07:59:07.999Z</time></trkpt><trkpt lat="43.89008866174114" lon="10.476932703535535"><ele>42.0</ele><time>2026-05-04T07:59:08.999Z</time></trkpt><trkpt lat="43.8899311192594" lon="10.477109989574515"><ele>41.666666666666664</ele><time>2026-05-04T07:59:09.999Z</time></trkpt><trkpt lat="43.889768517191555" lon="10.477283068691815"><ele>41.33333333333333</ele><time>2026-05-04T07:59:10.999Z</time></trkpt><trkpt lat="43.88961179269906" lon="10.477466616527217"><ele>41.0</ele><time>2026-05-04T07:59:11.999Z</time></trkpt><trkpt lat="43.889452538600366" lon="10.47764613146482"><ele>41.0</ele><time>2026-05-04T07:59:12.999Z</time></trkpt><trkpt lat="43.88929231155129" lon="10.477830887096697"><ele>41.0</ele><time>2026-05-04T07:59:13.999Z</time></trkpt><trkpt lat="43.889123572895166" lon="10.477992962894971"><ele>41.0</ele><time>2026-05-04T07:59:14.999Z</time></trkpt><trkpt lat="43.88895862734765" lon="10.478177256304441"><ele>41.0</ele><time>2026-05-04T07:59:15.999Z</time></trkpt><trkpt lat="43.88880276362013" lon="10.478375715652012"><ele>41.0</ele><time>2026-05-04T07:59:16.999Z</time></trkpt><trkpt lat="43.888638132110486" lon="10.478549862455116"><ele>41.0</ele><time>2026-05-04T07:59:17.999Z</time></trkpt><trkpt lat="43.88847136316034" lon="10.478732464860862"><ele>41.0</ele><time>2026-05-04T07:59:18.999Z</time></trkpt><trkpt lat="43.88830581148986" lon="10.478919065215488"><ele>41.0</ele><time>2026-05-04T07:59:19.999Z</time></trkpt><trkpt lat="43.88814544328534" lon="10.479114082264006"><ele>41.0</ele><time>2026-05-04T07:59:20.999Z</time></trkpt><trkpt lat="43.888000430778995" lon="10.479324726916499"><ele>41.0</ele><time>2026-05-04T07:59:21.999Z</time></trkpt><trkpt lat="43.88787038529837" lon="10.479565369589254"><ele>41.0</ele><time>2026-05-04T07:59:22.999Z</time></trkpt><trkpt lat="43.88773373877072" lon="10.479788541662161"><ele>41.0</ele><time>2026-05-04T07:59:23.999Z</time></trkpt><trkpt lat="43.8876006404522" lon="10.480023144584136"><ele>41.0</ele><time>2026-05-04T07:59:24.999Z</time></trkpt><trkpt lat="43.88746153849825" lon="10.480247936251493"><ele>41.0</ele><time>2026-05-04T07:59:25.999Z</time></trkpt><trkpt lat="43.887313570640416" lon="10.480461451169106"><ele>41.0</ele><time>2026-05-04T07:59:26.999Z</time></trkpt><trkpt lat="43.887155005154305" lon="10.480646445638476"><ele>40.75</ele><time>2026-05-04T07:59:27.999Z</time></trkpt><trkpt lat="43.88702525300363" lon="10.480797441555142"><ele>40.5</ele><time>2026-05-04T07:59:28.999Z</time></trkpt><trkpt lat="43.8869315966622" lon="10.480931501980242"><ele>40.25</ele><time>2026-05-04T07:59:29.999Z</time></trkpt><trkpt lat="43.886864686922884" lon="10.481004250939225"><ele>40.0</ele><time>2026-05-04T07:59:30.999Z</time></trkpt><trkpt lat="43.88680521369467" lon="10.481070566422446"><ele>39.8</ele><time>2026-05-04T07:59:32.999Z</time></trkpt><trkpt lat="43.886744556715385" lon="10.481121136419171"><ele>39.6</ele><time>2026-05-04T07:59:34.999Z</time></trkpt><trkpt lat="43.88669256167908" lon="10.481181900540722"><ele>39.4</ele><time>2026-05-04T07:59:35.999Z</time></trkpt><trkpt lat="43.88663007250273" lon="10.481268984525148"><ele>39.2</ele><time>2026-05-04T07:59:36.999Z</time></trkpt><trkpt lat="43.886536843656856" lon="10.481363129827605"><ele>39.0</ele><time>2026-05-04T07:59:37.999Z</time></trkpt><trkpt lat="43.88644301463619" lon="10.481480534471023"><ele>38.666666666666664</ele><time>2026-05-04T07:59:38.999Z</time></trkpt><trkpt lat="43.886329579663766" lon="10.481618748378645"><ele>38.33333333333333</ele><time>2026-05-04T07:59:39.999Z</time></trkpt><trkpt lat="43.886211654452836" lon="10.48175084881606"><ele>38.0</ele><time>2026-05-04T07:59:40.999Z</time></trkpt><trkpt lat="43.886077172769376" lon="10.481854979349146"><ele>37.666666666666664</ele><time>2026-05-04T07:59:41.999Z</time></trkpt><trkpt lat="43.8859229912482" lon="10.481964925774548"><ele>37.333333333333336</ele><time>2026-05-04T07:59:42.999Z</time></trkpt><trkpt lat="43.885765286987535" lon="10.482079710705722"><ele>37.0</ele><time>2026-05-04T07:59:43.999Z</time></trkpt><trkpt lat="43.88560016778526" lon="10.482179613759227"><ele>37.0</ele><time>2026-05-04T07:59:44.999Z</time></trkpt><trkpt lat="43.88542252416895" lon="10.482299679117224"><ele>37.0</ele><time>2026-05-04T07:59:45.999Z</time></trkpt><trkpt lat="43.885256348601956" lon="10.482416750708477"><ele>37.0</ele><time>2026-05-04T07:59:46.999Z</time></trkpt><trkpt lat="43.885081500945" lon="10.482541796483957"><ele>36.66666666666667</ele><time>2026-05-04T07:59:47.999Z</time></trkpt><trkpt lat="43.884894350111175" lon="10.482669204767507"><ele>36.333333333333336</ele><time>2026-05-04T07:59:48.999Z</time></trkpt><trkpt lat="43.88470963657836" lon="10.482796994538349"><ele>36.0</ele><time>2026-05-04T07:59:49.999Z</time></trkpt><trkpt lat="43.88452478766833" lon="10.482923239284313"><ele>36.333333333333336</ele><time>2026-05-04T07:59:50.999Z</time></trkpt><trkpt lat="43.88433435613683" lon="10.483052024417171"><ele>36.66666666666667</ele><time>2026-05-04T07:59:51.999Z</time></trkpt><trkpt lat="43.88414810120856" lon="10.483176168033262"><ele>37.0</ele><time>2026-05-04T07:59:52.999Z</time></trkpt><trkpt lat="43.88396462679585" lon="10.483299770794519"><ele>37.0</ele><time>2026-05-04T07:59:53.999Z</time></trkpt><trkpt lat="43.8837837894053" lon="10.48341593366004"><ele>37.0</ele><time>2026-05-04T07:59:54.999Z</time></trkpt><trkpt lat="43.883602406711475" lon="10.483534412742888"><ele>37.0</ele><time>2026-05-04T07:59:55.999Z</time></trkpt><trkpt lat="43.883422344294026" lon="10.48365399023065"><ele>36.66666666666667</ele><time>2026-05-04T07:59:56.999Z</time></trkpt><trkpt lat="43.88323927230725" lon="10.48377722549604"><ele>36.333333333333336</ele><time>2026-05-04T07:59:57.999Z</time></trkpt><trkpt lat="43.8830548800089" lon="10.483900599782654"><ele>36.0</ele><time>2026-05-04T07:59:58.999Z</time></trkpt><trkpt lat="43.882873848198834" lon="10.48401871971466"><ele>36.0</ele><time>2026-05-04T07:59:59.999Z</time></trkpt><trkpt lat="43.88268669477419" lon="10.484125713624799"><ele>36.0</ele><time>2026-05-04T08:00:00.999Z</time></trkpt><trkpt lat="43.88249332161748" lon="10.48422572776654"><ele>36.0</ele><time>2026-05-04T08:00:01.999Z</time></trkpt><trkpt lat="43.88229789176717" lon="10.484304971545233"><ele>36.0</ele><time>2026-05-04T08:00:02.999Z</time></trkpt><trkpt lat="43.88210095594726" lon="10.484364880505757"><ele>36.0</ele><time>2026-05-04T08:00:03.999Z</time></trkpt><trkpt lat="43.88190366024517" lon="10.48441057799931"><ele>36.0</ele><time>2026-05-04T08:00:04.999Z</time></trkpt><trkpt lat="43.88170788701154" lon="10.484465683386842"><ele>36.0</ele><time>2026-05-04T08:00:05.999Z</time></trkpt><trkpt lat="43.88148892301555" lon="10.484539143626336"><ele>36.0</ele><time>2026-05-04T08:00:06.999Z</time></trkpt><trkpt lat="43.88129023584627" lon="10.484620498081423"><ele>36.0</ele><time>2026-05-04T08:00:07.999Z</time></trkpt><trkpt lat="43.88110265393582" lon="10.484720272737423"><ele>35.666666666666664</ele><time>2026-05-04T08:00:08.998Z</time></trkpt><trkpt lat="43.88088382808735" lon="10.484844472167852"><ele>35.33333333333333</ele><time>2026-05-04T08:00:09.998Z</time></trkpt><trkpt lat="43.88069312975404" lon="10.48497562541808"><ele>35.0</ele><time>2026-05-04T08:00:10.998Z</time></trkpt><trkpt lat="43.88050156850119" lon="10.485114327760941"><ele>35.0</ele><time>2026-05-04T08:00:11.998Z</time></trkpt><trkpt lat="43.88031721593982" lon="10.4852652114304"><ele>35.0</ele><time>2026-05-04T08:00:12.998Z</time></trkpt><trkpt lat="43.880144531481534" lon="10.485415904544386"><ele>35.0</ele><time>2026-05-04T08:00:13.998Z</time></trkpt><trkpt lat="43.87997539585056" lon="10.485559975366135"><ele>33.666666666666664</ele><time>2026-05-04T08:00:14.998Z</time></trkpt><trkpt lat="43.87980661392717" lon="10.485675878232376"><ele>32.333333333333336</ele><time>2026-05-04T08:00:15.998Z</time></trkpt><trkpt lat="43.87964497297962" lon="10.485812633377668"><ele>31.0</ele><time>2026-05-04T08:00:16.998Z</time></trkpt><trkpt lat="43.879485448797986" lon="10.485958697865623"><ele>31.0</ele><time>2026-05-04T08:00:17.998Z</time></trkpt><trkpt lat="43.879327492970546" lon="10.486122393622834"><ele>31.0</ele><time>2026-05-04T08:00:18.998Z</time></trkpt><trkpt lat="43.87918737349884" lon="10.486323778648742"><ele>31.0</ele><time>2026-05-04T08:00:19.998Z</time></trkpt><trkpt lat="43.879057579932365" lon="10.486544687394407"><ele>31.333333333333336</ele><time>2026-05-04T08:00:20.998Z</time></trkpt><trkpt lat="43.878930863291586" lon="10.486765152150836"><ele>31.666666666666664</ele><time>2026-05-04T08:00:21.998Z</time></trkpt><trkpt lat="43.87880546495783" lon="10.486983321029156"><ele>32.0</ele><time>2026-05-04T08:00:22.998Z</time></trkpt><trkpt lat="43.878685184361316" lon="10.487170793147055"><ele>32.0</ele><time>2026-05-04T08:00:23.998Z</time></trkpt><trkpt lat="43.87852420063247" lon="10.487334461012216"><ele>32.0</ele><time>2026-05-04T08:00:24.998Z</time></trkpt><trkpt lat="43.878369831511705" lon="10.487429833755202"><ele>32.0</ele><time>2026-05-04T08:00:25.998Z</time></trkpt><trkpt lat="43.8781964836372" lon="10.487497504177439"><ele>31.666666666666664</ele><time>2026-05-04T08:00:26.998Z</time></trkpt><trkpt lat="43.878009773551696" lon="10.487535868208987"><ele>31.333333333333336</ele><time>2026-05-04T08:00:27.998Z</time></trkpt><trkpt lat="43.877814504844814" lon="10.487581012438755"><ele>31.0</ele><time>2026-05-04T08:00:28.998Z</time></trkpt><trkpt lat="43.87761733209965" lon="10.487594697676677"><ele>31.0</ele><time>2026-05-04T08:00:29.999Z</time></trkpt><trkpt lat="43.87743251936726" lon="10.487657097836815"><ele>31.0</ele><time>2026-05-04T08:00:30.999Z</time></trkpt><trkpt lat="43.8772639448934" lon="10.48778775933192"><ele>31.0</ele><time>2026-05-04T08:00:31.999Z</time></trkpt><trkpt lat="43.87712044054383" lon="10.487973094006348"><ele>31.0</ele><time>2026-05-04T08:00:32.999Z</time></trkpt><trkpt lat="43.876989980401255" lon="10.48819574819047"><ele>31.0</ele><time>2026-05-04T08:00:33.999Z</time></trkpt><trkpt lat="43.87686435349698" lon="10.488420758281304"><ele>31.0</ele><time>2026-05-04T08:00:34.999Z</time></trkpt><trkpt lat="43.87674481558223" lon="10.488639801518156"><ele>31.666666666666668</ele><time>2026-05-04T08:00:35.999Z</time></trkpt><trkpt lat="43.87665116842893" lon="10.488872208455366"><ele>32.333333333333336</ele><time>2026-05-04T08:00:36.999Z</time></trkpt><trkpt lat="43.87659550704872" lon="10.489135569819334"><ele>33.0</ele><time>2026-05-04T08:00:37.999Z</time></trkpt><trkpt lat="43.87655270516645" lon="10.489411923776077"><ele>32.666666666666664</ele><time>2026-05-04T08:00:38.999Z</time></trkpt><trkpt lat="43.87646130281541" lon="10.489663718181324"><ele>32.33333333333333</ele><time>2026-05-04T08:00:39.999Z</time></trkpt><trkpt lat="43.876358094283816" lon="10.489878444119027"><ele>32.0</ele><time>2026-05-04T08:00:40.999Z</time></trkpt><trkpt lat="43.8762390379164" lon="10.490090412274293"><ele>32.0</ele><time>2026-05-04T08:00:41.999Z</time></trkpt><trkpt lat="43.87607303184856" lon="10.490260895347054"><ele>32.0</ele><time>2026-05-04T08:00:42.999Z</time></trkpt><trkpt lat="43.87588853860111" lon="10.49037528031743"><ele>32.0</ele><time>2026-05-04T08:00:43.999Z</time></trkpt><trkpt lat="43.87569731261743" lon="10.490487656784651"><ele>32.666666666666664</ele><time>2026-05-04T08:00:44.999Z</time></trkpt><trkpt lat="43.87552521438195" lon="10.49064194396828"><ele>33.333333333333336</ele><time>2026-05-04T08:00:45.999Z</time></trkpt><trkpt lat="43.875374502866784" lon="10.490821281722951"><ele>34.0</ele><time>2026-05-04T08:00:46.999Z</time></trkpt><trkpt lat="43.87525522226836" lon="10.491059911507564"><ele>33.66666666666667</ele><time>2026-05-04T08:00:47.999Z</time></trkpt><trkpt lat="43.87517168968417" lon="10.491328416923867"><ele>33.333333333333336</ele><time>2026-05-04T08:00:48.999Z</time></trkpt><trkpt lat="43.87507631700446" lon="10.491595979952356"><ele>33.0</ele><time>2026-05-04T08:00:49.999Z</time></trkpt><trkpt lat="43.87493871799262" lon="10.491837217016084"><ele>33.0</ele><time>2026-05-04T08:00:50.999Z</time></trkpt><trkpt lat="43.87475216063269" lon="10.492019943872432"><ele>33.0</ele><time>2026-05-04T08:00:51.999Z</time></trkpt><trkpt lat="43.874587687827606" lon="10.492234170483446"><ele>33.0</ele><time>2026-05-04T08:00:52.999Z</time></trkpt><trkpt lat="43.874403098924965" lon="10.4924403918129"><ele>33.0</ele><time>2026-05-04T08:00:53.999Z</time></trkpt><trkpt lat="43.87423527395219" lon="10.492661444610292"><ele>30.5</ele><time>2026-05-04T08:00:54.999Z</time></trkpt><trkpt lat="43.87407437921675" lon="10.492890688304003"><ele>28.0</ele><time>2026-05-04T08:00:55.999Z</time></trkpt><trkpt lat="43.87391907247702" lon="10.493117970103867"><ele>28.0</ele><time>2026-05-04T08:00:56.999Z</time></trkpt><trkpt lat="43.87377687036551" lon="10.493333270714167"><ele>28.0</ele><time>2026-05-04T08:00:57.999Z</time></trkpt><trkpt lat="43.873648798759575" lon="10.493563008960832"><ele>28.0</ele><time>2026-05-04T08:00:58.999Z</time></trkpt><trkpt lat="43.87354396986688" lon="10.49382663202128"><ele>28.0</ele><time>2026-05-04T08:00:59.999Z</time></trkpt><trkpt lat="43.873459578455716" lon="10.494095316650794"><ele>28.0</ele><time>2026-05-04T08:01:00.999Z</time></trkpt><trkpt lat="43.87338348839443" lon="10.494371967337717"><ele>28.0</ele><time>2026-05-04T08:01:01.999Z</time></trkpt><trkpt lat="43.87328382519113" lon="10.494624639832658"><ele>28.0</ele><time>2026-05-04T08:01:02.999Z</time></trkpt><trkpt lat="43.873167670381065" lon="10.49487085359195"><ele>28.0</ele><time>2026-05-04T08:01:03.999Z</time></trkpt><trkpt lat="43.873063377546856" lon="10.495119094214688"><ele>28.0</ele><time>2026-05-04T08:01:04.999Z</time></trkpt><trkpt lat="43.872931109977166" lon="10.495361665539498"><ele>28.0</ele><time>2026-05-04T08:01:05.999Z</time></trkpt><trkpt lat="43.872802672033174" lon="10.49560923967966"><ele>28.0</ele><time>2026-05-04T08:01:06.999Z</time></trkpt><trkpt lat="43.87267481575049" lon="10.495855032210669"><ele>28.0</ele><time>2026-05-04T08:01:07.999Z</time></trkpt><trkpt lat="43.87255021859421" lon="10.496109604399859"><ele>28.0</ele><time>2026-05-04T08:01:08.999Z</time></trkpt><trkpt lat="43.872436135390856" lon="10.496371503964687"><ele>28.0</ele><time>2026-05-04T08:01:09.999Z</time></trkpt><trkpt lat="43.87233797852235" lon="10.496645776289192"><ele>28.0</ele><time>2026-05-04T08:01:10.999Z</time></trkpt><trkpt lat="43.87222704198543" lon="10.496906618173762"><ele>27.666666666666668</ele><time>2026-05-04T08:01:11.999Z</time></trkpt><trkpt lat="43.8721262382808" lon="10.497172901064797"><ele>27.333333333333336</ele><time>2026-05-04T08:01:12.999Z</time></trkpt><trkpt lat="43.87201668960848" lon="10.497430209430547"><ele>27.0</ele><time>2026-05-04T08:01:13.999Z</time></trkpt><trkpt lat="43.87191018791306" lon="10.497691076171678"><ele>26.333333333333336</ele><time>2026-05-04T08:01:14.999Z</time></trkpt><trkpt lat="43.87178323451634" lon="10.49793330762572"><ele>25.666666666666668</ele><time>2026-05-04T08:01:15.999Z</time></trkpt><trkpt lat="43.87165789437437" lon="10.49817429789983"><ele>25.0</ele><time>2026-05-04T08:01:16.999Z</time></trkpt><trkpt lat="43.87153302582245" lon="10.498418711261932"><ele>25.0</ele><time>2026-05-04T08:01:17.999Z</time></trkpt><trkpt lat="43.87140934235538" lon="10.498673307102198"><ele>25.0</ele><time>2026-05-04T08:01:18.999Z</time></trkpt><trkpt lat="43.87128914441768" lon="10.49892154958956"><ele>25.0</ele><time>2026-05-04T08:01:19.999Z</time></trkpt><trkpt lat="43.87117391823232" lon="10.49915026925128"><ele>26.333333333333336</ele><time>2026-05-04T08:01:20.999Z</time></trkpt><trkpt lat="43.871071070762056" lon="10.499373078997712"><ele>27.666666666666664</ele><time>2026-05-04T08:01:21.999Z</time></trkpt><trkpt lat="43.87098853741149" lon="10.499585908032351"><ele>29.0</ele><time>2026-05-04T08:01:22.999Z</time></trkpt><trkpt lat="43.87091756750628" lon="10.499797019175572"><ele>29.0</ele><time>2026-05-04T08:01:23.999Z</time></trkpt><trkpt lat="43.87085415312577" lon="10.499995527131242"><ele>29.0</ele><time>2026-05-04T08:01:24.999Z</time></trkpt><trkpt lat="43.870779217072396" lon="10.500165439597184"><ele>29.0</ele><time>2026-05-04T08:01:25.999Z</time></trkpt><trkpt lat="43.8707180505162" lon="10.500328903443938"><ele>29.0</ele><time>2026-05-04T08:01:26.999Z</time></trkpt><trkpt lat="43.87066749557985" lon="10.500499071726"><ele>29.0</ele><time>2026-05-04T08:01:27.999Z</time></trkpt><trkpt lat="43.870596969182586" lon="10.50064445938623"><ele>29.0</ele><time>2026-05-04T08:01:28.999Z</time></trkpt><trkpt lat="43.87052719945038" lon="10.500808563257733"><ele>29.0</ele><time>2026-05-04T08:01:29.999Z</time></trkpt><trkpt lat="43.870454099928345" lon="10.50098586449672"><ele>29.0</ele><time>2026-05-04T08:01:30.999Z</time></trkpt><trkpt lat="43.8703813698683" lon="10.50115653284137"><ele>28.25</ele><time>2026-05-04T08:01:31.999Z</time></trkpt><trkpt lat="43.870319137692036" lon="10.501333852428408"><ele>27.5</ele><time>2026-05-04T08:01:32.999Z</time></trkpt><trkpt lat="43.87027908044714" lon="10.501523583597015"><ele>26.75</ele><time>2026-05-04T08:01:33.999Z</time></trkpt><trkpt lat="43.870265014595944" lon="10.501723080498358"><ele>26.0</ele><time>2026-05-04T08:01:34.999Z</time></trkpt><trkpt lat="43.87026732200261" lon="10.501923507887433"><ele>25.75</ele><time>2026-05-04T08:01:35.999Z</time></trkpt><trkpt lat="43.87027122954394" lon="10.502114033506045"><ele>25.5</ele><time>2026-05-04T08:01:36.999Z</time></trkpt><trkpt lat="43.870266764459494" lon="10.502288977717734"><ele>25.25</ele><time>2026-05-04T08:01:37.999Z</time></trkpt><trkpt lat="43.870257732355874" lon="10.502452602664544"><ele>25.0</ele><time>2026-05-04T08:01:38.999Z</time></trkpt><trkpt lat="43.87025770990307" lon="10.502601708466415"><ele>25.0</ele><time>2026-05-04T08:01:39.999Z</time></trkpt><trkpt lat="43.87025456297997" lon="10.502754549411753"><ele>25.0</ele><time>2026-05-04T08:01:40.999Z</time></trkpt><trkpt lat="43.87024957765624" lon="10.502934840998371"><ele>25.0</ele><time>2026-05-04T08:01:41.999Z</time></trkpt><trkpt lat="43.870241417852995" lon="10.503120333063116"><ele>25.0</ele><time>2026-05-04T08:01:42.999Z</time></trkpt><trkpt lat="43.87022537628126" lon="10.503316713886969"><ele>25.666666666666668</ele><time>2026-05-04T08:01:43.999Z</time></trkpt><trkpt lat="43.870198476192776" lon="10.503524738726407"><ele>26.333333333333336</ele><time>2026-05-04T08:01:44.999Z</time></trkpt><trkpt lat="43.870166977412644" lon="10.503741066940169"><ele>27.0</ele><time>2026-05-04T08:01:45.999Z</time></trkpt><trkpt lat="43.87014322383911" lon="10.503971898721513"><ele>27.0</ele><time>2026-05-04T08:01:46.999Z</time></trkpt><trkpt lat="43.87014340541754" lon="10.50419098988082"><ele>27.0</ele><time>2026-05-04T08:01:47.999Z</time></trkpt><trkpt lat="43.87016386848451" lon="10.50439097170664"><ele>27.0</ele><time>2026-05-04T08:01:48.999Z</time></trkpt><trkpt lat="43.870203316150814" lon="10.50457026275752"><ele>27.0</ele><time>2026-05-04T08:01:49.999Z</time></trkpt><trkpt lat="43.870251963865215" lon="10.504730442571564"><ele>26.75</ele><time>2026-05-04T08:01:50.999Z</time></trkpt><trkpt lat="43.870305084059574" lon="10.504883886436938"><ele>26.5</ele><time>2026-05-04T08:01:51.999Z</time></trkpt><trkpt lat="43.87035791172892" lon="10.505034658984407"><ele>26.25</ele><time>2026-05-04T08:01:52.999Z</time></trkpt><trkpt lat="43.87040459535519" lon="10.505191671977352"><ele>26.0</ele><time>2026-05-04T08:01:53.999Z</time></trkpt><trkpt lat="43.87044054370603" lon="10.505346981568955"><ele>25.6</ele><time>2026-05-04T08:01:54.999Z</time></trkpt><trkpt lat="43.87046549556917" lon="10.5055029985886"><ele>25.200000000000003</ele><time>2026-05-04T08:01:55.999Z</time></trkpt><trkpt lat="43.870468786600085" lon="10.505663459032064"><ele>24.799999999999997</ele><time>2026-05-04T08:01:56.999Z</time></trkpt><trkpt lat="43.870476202634414" lon="10.505818425919115"><ele>24.4</ele><time>2026-05-04T08:01:57.999Z</time></trkpt><trkpt lat="43.87048772761189" lon="10.505963750080676"><ele>24.0</ele><time>2026-05-04T08:01:58.999Z</time></trkpt><trkpt lat="43.870464141880085" lon="10.506113719959599"><ele>24.25</ele><time>2026-05-04T08:01:59.999Z</time></trkpt><trkpt lat="43.87040473540143" lon="10.5062629417709"><ele>24.5</ele><time>2026-05-04T08:02:00.999Z</time></trkpt><trkpt lat="43.87035521721493" lon="10.506402303681499"><ele>24.75</ele><time>2026-05-04T08:02:01.999Z</time></trkpt><trkpt lat="43.87028069815139" lon="10.50655796691776"><ele>25.0</ele><time>2026-05-04T08:02:02.999Z</time></trkpt><trkpt lat="43.870189342330924" lon="10.506700812814115"><ele>24.75</ele><time>2026-05-04T08:02:03.999Z</time></trkpt><trkpt lat="43.87008163957223" lon="10.506823099088253"><ele>24.5</ele><time>2026-05-04T08:02:04.999Z</time></trkpt><trkpt lat="43.86996336832841" lon="10.506925920374966"><ele>24.25</ele><time>2026-05-04T08:02:05.999Z</time></trkpt><trkpt lat="43.86983638004625" lon="10.507021874951617"><ele>24.0</ele><time>2026-05-04T08:02:06.999Z</time></trkpt><trkpt lat="43.869698360336564" lon="10.507068463725716"><ele>24.0</ele><time>2026-05-04T08:02:07.999Z</time></trkpt><trkpt lat="43.86955721701175" lon="10.507089200633864"><ele>24.0</ele><time>2026-05-04T08:02:08.999Z</time></trkpt><trkpt lat="43.86941046151108" lon="10.507094011589338"><ele>24.0</ele><time>2026-05-04T08:02:09.999Z</time></trkpt><trkpt lat="43.86926753839474" lon="10.507102233572564"><ele>24.0</ele><time>2026-05-04T08:02:10.999Z</time></trkpt><trkpt lat="43.869121493658184" lon="10.507120987138974"><ele>24.0</ele><time>2026-05-04T08:02:11.999Z</time></trkpt><trkpt lat="43.86897836360482" lon="10.507137229375424"><ele>24.0</ele><time>2026-05-04T08:02:12.999Z</time></trkpt><trkpt lat="43.86884039963052" lon="10.507170154237198"><ele>24.0</ele><time>2026-05-04T08:02:13.999Z</time></trkpt><trkpt lat="43.86870822228286" lon="10.507208148673318"><ele>24.0</ele><time>2026-05-04T08:02:14.997Z</time></trkpt><trkpt lat="43.86858188777584" lon="10.507266547044448"><ele>24.0</ele><time>2026-05-04T08:02:15.997Z</time></trkpt><trkpt lat="43.86846839568502" lon="10.507334238078158"><ele>24.0</ele><time>2026-05-04T08:02:16.997Z</time></trkpt><trkpt lat="43.8683645227782" lon="10.507413660497072"><ele>24.0</ele><time>2026-05-04T08:02:17.997Z</time></trkpt><trkpt lat="43.86827218885277" lon="10.507495674957145"><ele>24.0</ele><time>2026-05-04T08:02:18.997Z</time></trkpt><trkpt lat="43.86817910556812" lon="10.507580908808912"><ele>24.0</ele><time>2026-05-04T08:02:19.997Z</time></trkpt><trkpt lat="43.86808668736829" lon="10.507669483746682"><ele>24.0</ele><time>2026-05-04T08:02:20.998Z</time></trkpt><trkpt lat="43.86799728354858" lon="10.507752700775171"><ele>24.0</ele><time>2026-05-04T08:02:21.998Z</time></trkpt><trkpt lat="43.867907008067675" lon="10.507843189985715"><ele>24.0</ele><time>2026-05-04T08:02:22.998Z</time></trkpt><trkpt lat="43.867813114954075" lon="10.507934021432513"><ele>24.0</ele><time>2026-05-04T08:02:23.998Z</time></trkpt><trkpt lat="43.86771048228665" lon="10.508013653985195"><ele>24.0</ele><time>2026-05-04T08:02:24.998Z</time></trkpt><trkpt lat="43.86759318155104" lon="10.508089216616543"><ele>24.0</ele><time>2026-05-04T08:02:25.998Z</time></trkpt><trkpt lat="43.86747031402846" lon="10.50815587610725"><ele>24.0</ele><time>2026-05-04T08:02:26.998Z</time></trkpt><trkpt lat="43.86734467853468" lon="10.508221728031721"><ele>24.0</ele><time>2026-05-04T08:02:27.998Z</time></trkpt><trkpt lat="43.86721747351763" lon="10.508285726776592"><ele>24.0</ele><time>2026-05-04T08:02:28.998Z</time></trkpt><trkpt lat="43.86709921810379" lon="10.508345178001669"><ele>24.0</ele><time>2026-05-04T08:02:29.998Z</time></trkpt><trkpt lat="43.86698386201848" lon="10.508393481895693"><ele>24.0</ele><time>2026-05-04T08:02:30.998Z</time></trkpt><trkpt lat="43.86686983380365" lon="10.508438750770202"><ele>24.0</ele><time>2026-05-04T08:02:31.998Z</time></trkpt><trkpt lat="43.8667526945653" lon="10.508478685444894"><ele>23.75</ele><time>2026-05-04T08:02:32.998Z</time></trkpt><trkpt lat="43.86663660380833" lon="10.508512289845926"><ele>23.5</ele><time>2026-05-04T08:02:33.998Z</time></trkpt><trkpt lat="43.866514555073735" lon="10.50852788078574"><ele>23.25</ele><time>2026-05-04T08:02:34.998Z</time></trkpt><trkpt lat="43.866393907675274" lon="10.508553161175437"><ele>23.0</ele><time>2026-05-04T08:02:35.998Z</time></trkpt><trkpt lat="43.86627124216374" lon="10.508573095362461"><ele>23.0</ele><time>2026-05-04T08:02:36.998Z</time></trkpt><trkpt lat="43.866146304735565" lon="10.508593009815863"><ele>23.0</ele><time>2026-05-04T08:02:37.998Z</time></trkpt><trkpt lat="43.86602477086584" lon="10.508609239835955"><ele>23.0</ele><time>2026-05-04T08:02:38.998Z</time></trkpt><trkpt lat="43.86590091217504" lon="10.508628526923612"><ele>23.0</ele><time>2026-05-04T08:02:39.998Z</time></trkpt><trkpt lat="43.86577779929447" lon="10.508645900068268"><ele>23.5</ele><time>2026-05-04T08:02:40.998Z</time></trkpt><trkpt lat="43.86565361362575" lon="10.508667130028218"><ele>24.0</ele><time>2026-05-04T08:02:41.998Z</time></trkpt><trkpt lat="43.865527774766335" lon="10.508692635416413"><ele>24.5</ele><time>2026-05-04T08:02:42.998Z</time></trkpt><trkpt lat="43.865399971587564" lon="10.508716286151508"><ele>25.0</ele><time>2026-05-04T08:02:43.998Z</time></trkpt><trkpt lat="43.86527926506571" lon="10.508738373028113"><ele>25.0</ele><time>2026-05-04T08:02:44.998Z</time></trkpt><trkpt lat="43.86516339866095" lon="10.508761726850407"><ele>25.0</ele><time>2026-05-04T08:02:45.998Z</time></trkpt><trkpt lat="43.86507097272781" lon="10.508783510409799"><ele>25.0</ele><time>2026-05-04T08:02:46.998Z</time></trkpt><trkpt lat="43.864957165671925" lon="10.508800286350855"><ele>25.0</ele><time>2026-05-04T08:02:48.998Z</time></trkpt><trkpt lat="43.86486555979471" lon="10.508840897839322"><ele>25.0</ele><time>2026-05-04T08:02:50.999Z</time></trkpt><trkpt lat="43.86474809258804" lon="10.508876068194896"><ele>25.0</ele><time>2026-05-04T08:02:52.999Z</time></trkpt><trkpt lat="43.864673101142884" lon="10.508877044309866"><ele>25.0</ele><time>2026-05-04T08:02:54.999Z</time></trkpt><trkpt lat="43.8645641130978" lon="10.508899496109038"><ele>25.0</ele><time>2026-05-04T08:02:56.999Z</time></trkpt><trkpt lat="43.86448106842701" lon="10.508935990520701"><ele>25.0</ele><time>2026-05-04T08:02:57.999Z</time></trkpt><trkpt lat="43.86438760956813" lon="10.508968116374186"><ele>25.0</ele><time>2026-05-04T08:02:58.999Z</time></trkpt><trkpt lat="43.86428148826676" lon="10.509000256763622"><ele>25.25</ele><time>2026-05-04T08:02:59.999Z</time></trkpt><trkpt lat="43.86416526604475" lon="10.509029809438179"><ele>25.5</ele><time>2026-05-04T08:03:00.999Z</time></trkpt><trkpt lat="43.86404539703347" lon="10.509061205795113"><ele>25.75</ele><time>2026-05-04T08:03:01.999Z</time></trkpt><trkpt lat="43.86392791168533" lon="10.509094352760945"><ele>26.0</ele><time>2026-05-04T08:03:02.999Z</time></trkpt><trkpt lat="43.86381094124263" lon="10.50912870544224"><ele>26.0</ele><time>2026-05-04T08:03:03.999Z</time></trkpt><trkpt lat="43.86369374182485" lon="10.50916536659574"><ele>26.0</ele><time>2026-05-04T08:03:04.999Z</time></trkpt><trkpt lat="43.863579463271364" lon="10.509203389896019"><ele>26.0</ele><time>2026-05-04T08:03:05.999Z</time></trkpt><trkpt lat="43.8634793806918" lon="10.509239842815507"><ele>26.0</ele><time>2026-05-04T08:03:06.999Z</time></trkpt><trkpt lat="43.86339879099168" lon="10.50927532210501"><ele>26.0</ele><time>2026-05-04T08:03:07.999Z</time></trkpt><trkpt lat="43.86333331380002" lon="10.509314449813306"><ele>25.666666666666664</ele><time>2026-05-04T08:03:08.999Z</time></trkpt><trkpt lat="43.863214369395" lon="10.509371153641363"><ele>25.333333333333332</ele><time>2026-05-04T08:03:10.999Z</time></trkpt><trkpt lat="43.863146621878" lon="10.509373912095826"><ele>25.0</ele><time>2026-05-04T08:03:11.999Z</time></trkpt><trkpt lat="43.863067229547504" lon="10.509365800639383"><ele>24.666666666666664</ele><time>2026-05-04T08:03:12.999Z</time></trkpt><trkpt lat="43.862984222073884" lon="10.509355415862693"><ele>24.333333333333332</ele><time>2026-05-04T08:03:13.999Z</time></trkpt><trkpt lat="43.86290072344331" lon="10.50940981896337"><ele>24.0</ele><time>2026-05-04T08:03:14.999Z</time></trkpt><trkpt lat="43.8627786765248" lon="10.509304084970273"><ele>24.0</ele><time>2026-05-04T08:03:15.999Z</time></trkpt><trkpt lat="43.862658851782676" lon="10.50925340843761"><ele>24.0</ele><time>2026-05-04T08:03:16.999Z</time></trkpt><trkpt lat="43.862538859197635" lon="10.509197015939144"><ele>24.0</ele><time>2026-05-04T08:03:17.999Z</time></trkpt><trkpt lat="43.86241747144622" lon="10.509131725776001"><ele>24.0</ele><time>2026-05-04T08:03:18.999Z</time></trkpt><trkpt lat="43.86228643124186" lon="10.50905626714476"><ele>24.333333333333336</ele><time>2026-05-04T08:03:19.999Z</time></trkpt><trkpt lat="43.86215382012495" lon="10.508979537927825"><ele>24.666666666666668</ele><time>2026-05-04T08:03:20.999Z</time></trkpt><trkpt lat="43.862013568377215" lon="10.508893213574863"><ele>25.0</ele><time>2026-05-04T08:03:21.999Z</time></trkpt><trkpt lat="43.86187348415086" lon="10.50880342636057"><ele>26.333333333333336</ele><time>2026-05-04T08:03:22.999Z</time></trkpt><trkpt lat="43.8617310481511" lon="10.50871345589045"><ele>27.666666666666664</ele><time>2026-05-04T08:03:23.999Z</time></trkpt><trkpt lat="43.86159569531847" lon="10.508624344000546"><ele>29.0</ele><time>2026-05-04T08:03:24.999Z</time></trkpt><trkpt lat="43.86146645274588" lon="10.508529872730485"><ele>29.0</ele><time>2026-05-04T08:03:25.999Z</time></trkpt><trkpt lat="43.861335456072815" lon="10.508440912783211"><ele>29.0</ele><time>2026-05-04T08:03:26.999Z</time></trkpt><trkpt lat="43.861211109878475" lon="10.508354380488933"><ele>29.0</ele><time>2026-05-04T08:03:27.999Z</time></trkpt><trkpt lat="43.86109450059485" lon="10.508244914715718"><ele>29.0</ele><time>2026-05-04T08:03:28.999Z</time></trkpt><trkpt lat="43.86096683421426" lon="10.508172628973682"><ele>29.0</ele><time>2026-05-04T08:03:29.999Z</time></trkpt><trkpt lat="43.86085133391143" lon="10.508074342635686"><ele>29.0</ele><time>2026-05-04T08:03:30.999Z</time></trkpt><trkpt lat="43.86074462264893" lon="10.50797676524913"><ele>29.0</ele><time>2026-05-04T08:03:31.999Z</time></trkpt><trkpt lat="43.86064251309419" lon="10.507875495397126"><ele>29.0</ele><time>2026-05-04T08:03:32.999Z</time></trkpt><trkpt lat="43.86055001023565" lon="10.507748555816343"><ele>29.0</ele><time>2026-05-04T08:03:33.999Z</time></trkpt><trkpt lat="43.86043741094632" lon="10.507624568967419"><ele>29.0</ele><time>2026-05-04T08:03:34.999Z</time></trkpt><trkpt lat="43.86031089768856" lon="10.507488156037793"><ele>29.0</ele><time>2026-05-04T08:03:35.999Z</time></trkpt><trkpt lat="43.86019253843285" lon="10.50736303588479"><ele>28.0</ele><time>2026-05-04T08:03:36.999Z</time></trkpt><trkpt lat="43.86007962770056" lon="10.50724284591448"><ele>27.0</ele><time>2026-05-04T08:03:37.999Z</time></trkpt><trkpt lat="43.85997730144273" lon="10.507130515444315"><ele>26.0</ele><time>2026-05-04T08:03:38.999Z</time></trkpt><trkpt lat="43.85988286145088" lon="10.507026842298469"><ele>25.0</ele><time>2026-05-04T08:03:39.999Z</time></trkpt><trkpt lat="43.85978790962213" lon="10.506922607236536"><ele>26.6</ele><time>2026-05-04T08:03:40.999Z</time></trkpt><trkpt lat="43.85970177992542" lon="10.506828284170615"><ele>28.2</ele><time>2026-05-04T08:03:41.999Z</time></trkpt><trkpt lat="43.8596056901821" lon="10.506752941322766"><ele>29.799999999999997</ele><time>2026-05-04T08:03:42.999Z</time></trkpt><trkpt lat="43.85952903168561" lon="10.506644819581698"><ele>31.4</ele><time>2026-05-04T08:03:43.999Z</time></trkpt><trkpt lat="43.85943122157588" lon="10.506549400780962"><ele>33.0</ele><time>2026-05-04T08:03:44.999Z</time></trkpt><trkpt lat="43.85932978627488" lon="10.506458554174957"><ele>33.0</ele><time>2026-05-04T08:03:45.999Z</time></trkpt><trkpt lat="43.859228908317206" lon="10.50637511452959"><ele>33.0</ele><time>2026-05-04T08:03:46.999Z</time></trkpt><trkpt lat="43.859140430685876" lon="10.506303373610864"><ele>33.0</ele><time>2026-05-04T08:03:47.999Z</time></trkpt><trkpt lat="43.85904966639946" lon="10.50623212058319"><ele>33.0</ele><time>2026-05-04T08:03:48.999Z</time></trkpt><trkpt lat="43.85896733335597" lon="10.506167487055869"><ele>33.0</ele><time>2026-05-04T08:03:49.999Z</time></trkpt><trkpt lat="43.85888468465315" lon="10.506104153100317"><ele>33.0</ele><time>2026-05-04T08:03:50.999Z</time></trkpt><trkpt lat="43.85880356771262" lon="10.506044410142126"><ele>33.0</ele><time>2026-05-04T08:03:51.999Z</time></trkpt><trkpt lat="43.8587171145055" lon="10.50598640388307"><ele>33.0</ele><time>2026-05-04T08:03:52.999Z</time></trkpt><trkpt lat="43.85863758749371" lon="10.505941138068136"><ele>33.0</ele><time>2026-05-04T08:03:53.999Z</time></trkpt><trkpt lat="43.85855094623199" lon="10.505908046638883"><ele>33.0</ele><time>2026-05-04T08:03:54.999Z</time></trkpt><trkpt lat="43.85847372933299" lon="10.505888894833841"><ele>33.0</ele><time>2026-05-04T08:03:55.999Z</time></trkpt><trkpt lat="43.85840434600038" lon="10.505875562019323"><ele>31.599999999999998</ele><time>2026-05-04T08:03:56.999Z</time></trkpt><trkpt lat="43.85827856090326" lon="10.505867958016541"><ele>30.199999999999996</ele><time>2026-05-04T08:03:58.999Z</time></trkpt><trkpt lat="43.85817110854482" lon="10.505846273873544"><ele>28.8</ele><time>2026-05-04T08:04:00.999Z</time></trkpt><trkpt lat="43.85809738656698" lon="10.505814564042"><ele>27.4</ele><time>2026-05-04T08:04:05.999Z</time></trkpt><trkpt lat="43.85801050552168" lon="10.505774432926819"><ele>26.0</ele><time>2026-05-04T08:04:09.999Z</time></trkpt><trkpt lat="43.85790124618337" lon="10.505957134714095"><ele>26.0</ele><time>2026-05-04T08:04:11.999Z</time></trkpt><trkpt lat="43.85784171262915" lon="10.50606096509429"><ele>26.0</ele><time>2026-05-04T08:04:12.999Z</time></trkpt><trkpt lat="43.857773176855446" lon="10.506171136983408"><ele>26.0</ele><time>2026-05-04T08:04:13.999Z</time></trkpt><trkpt lat="43.85770159329962" lon="10.506275679396651"><ele>26.0</ele><time>2026-05-04T08:04:14.999Z</time></trkpt><trkpt lat="43.857631196113516" lon="10.506376643177083"><ele>26.0</ele><time>2026-05-04T08:04:15.999Z</time></trkpt><trkpt lat="43.85756392077199" lon="10.50647105550246"><ele>24.400000000000002</ele><time>2026-05-04T08:04:16.999Z</time></trkpt><trkpt lat="43.85749843376403" lon="10.506559861264163"><ele>22.8</ele><time>2026-05-04T08:04:17.999Z</time></trkpt><trkpt lat="43.857433676544126" lon="10.506647471370455"><ele>21.200000000000003</ele><time>2026-05-04T08:04:18.999Z</time></trkpt><trkpt lat="43.85737006135846" lon="10.50673429096656"><ele>19.6</ele><time>2026-05-04T08:04:19.999Z</time></trkpt><trkpt lat="43.85730721204901" lon="10.50682410720392"><ele>18.0</ele><time>2026-05-04T08:04:20.997Z</time></trkpt><trkpt lat="43.85724056151114" lon="10.506920446514485"><ele>18.0</ele><time>2026-05-04T08:04:21.997Z</time></trkpt><trkpt lat="43.85717617827771" lon="10.507015496598346"><ele>18.0</ele><time>2026-05-04T08:04:22.997Z</time></trkpt><trkpt lat="43.85710742866759" lon="10.50711532492123"><ele>18.0</ele><time>2026-05-04T08:04:23.997Z</time></trkpt><trkpt lat="43.85703503257791" lon="10.507217011093005"><ele>18.0</ele><time>2026-05-04T08:04:24.997Z</time></trkpt><trkpt lat="43.85695573178059" lon="10.507318541197652"><ele>18.0</ele><time>2026-05-04T08:04:25.997Z</time></trkpt><trkpt lat="43.85687462120213" lon="10.50743530518178"><ele>19.5</ele><time>2026-05-04T08:04:26.997Z</time></trkpt><trkpt lat="43.85678564716125" lon="10.507544151178784"><ele>21.0</ele><time>2026-05-04T08:04:27.997Z</time></trkpt><trkpt lat="43.85668567634978" lon="10.507630753700841"><ele>22.5</ele><time>2026-05-04T08:04:28.997Z</time></trkpt><trkpt lat="43.85657090902471" lon="10.507680829251044"><ele>24.0</ele><time>2026-05-04T08:04:29.997Z</time></trkpt><trkpt lat="43.85645409589192" lon="10.507671906130168"><ele>24.0</ele><time>2026-05-04T08:04:30.997Z</time></trkpt><trkpt lat="43.856353167949386" lon="10.507687904828902"><ele>24.0</ele><time>2026-05-04T08:04:31.998Z</time></trkpt><trkpt lat="43.85626523962028" lon="10.507701843249714"><ele>24.0</ele><time>2026-05-04T08:04:32.998Z</time></trkpt><trkpt lat="43.856195198320634" lon="10.507693932391234"><ele>24.0</ele><time>2026-05-04T08:04:33.998Z</time></trkpt><trkpt lat="43.856132267295344" lon="10.507615592741484"><ele>24.0</ele><time>2026-05-04T08:04:34.998Z</time></trkpt><trkpt lat="43.85607402803738" lon="10.507536701840401"><ele>24.0</ele><time>2026-05-04T08:04:35.998Z</time></trkpt><trkpt lat="43.85600422318879" lon="10.507514788792811"><ele>24.142857142857142</ele><time>2026-05-04T08:04:36.998Z</time></trkpt><trkpt lat="43.855934365366274" lon="10.507525777995498"><ele>24.285714285714285</ele><time>2026-05-04T08:04:37.998Z</time></trkpt><trkpt lat="43.855866936618995" lon="10.507558570170044"><ele>24.42857142857143</ele><time>2026-05-04T08:04:38.998Z</time></trkpt><trkpt lat="43.855804216847545" lon="10.507600931204324"><ele>24.57142857142857</ele><time>2026-05-04T08:04:39.998Z</time></trkpt><trkpt lat="43.855736817510184" lon="10.507654944720354"><ele>24.714285714285715</ele><time>2026-05-04T08:04:40.998Z</time></trkpt><trkpt lat="43.855669051189835" lon="10.507704687238153"><ele>24.857142857142858</ele><time>2026-05-04T08:04:41.998Z</time></trkpt><trkpt lat="43.85560398287213" lon="10.50774854236832"><ele>25.0</ele><time>2026-05-04T08:04:42.998Z</time></trkpt><trkpt lat="43.85554060622849" lon="10.507778909825836"><ele>25.000000000000004</ele><time>2026-05-04T08:04:43.998Z</time></trkpt><trkpt lat="43.8554184664224" lon="10.507810420775979"><ele>25.0</ele><time>2026-05-04T08:04:45.998Z</time></trkpt><trkpt lat="43.85535150839626" lon="10.507798206762086"><ele>25.0</ele><time>2026-05-04T08:04:46.998Z</time></trkpt><trkpt lat="43.85528815371229" lon="10.507777355488985"><ele>25.0</ele><time>2026-05-04T08:04:47.998Z</time></trkpt><trkpt lat="43.85518353935066" lon="10.50772972079524"><ele>25.000000000000004</ele><time>2026-05-04T08:04:49.998Z</time></trkpt><trkpt lat="43.85510250753722" lon="10.507717522753264"><ele>25.0</ele><time>2026-05-04T08:04:51.998Z</time></trkpt><trkpt lat="43.85500779651848" lon="10.507788791780277"><ele>24.333333333333336</ele><time>2026-05-04T08:04:53.998Z</time></trkpt><trkpt lat="43.85494967217524" lon="10.507822347988224"><ele>23.666666666666668</ele><time>2026-05-04T08:04:54.998Z</time></trkpt><trkpt lat="43.85482393977662" lon="10.507822164565802"><ele>23.0</ele><time>2026-05-04T08:04:56.998Z</time></trkpt><trkpt lat="43.85476141336303" lon="10.507796839563964"><ele>22.333333333333336</ele><time>2026-05-04T08:04:57.999Z</time></trkpt><trkpt lat="43.85463852348672" lon="10.507758489987602"><ele>21.666666666666668</ele><time>2026-05-04T08:04:59.999Z</time></trkpt><trkpt lat="43.85457086629474" lon="10.50773933108817"><ele>21.0</ele><time>2026-05-04T08:05:00.999Z</time></trkpt><trkpt lat="43.8545048552701" lon="10.507718906968918"><ele>21.0</ele><time>2026-05-04T08:05:01.999Z</time></trkpt><trkpt lat="43.85443862940515" lon="10.507701277442425"><ele>21.0</ele><time>2026-05-04T08:05:02.999Z</time></trkpt><trkpt lat="43.854360301059735" lon="10.507678574873154"><ele>21.0</ele><time>2026-05-04T08:05:03.999Z</time></trkpt><trkpt lat="43.85427724965636" lon="10.50765039677006"><ele>21.0</ele><time>2026-05-04T08:05:04.999Z</time></trkpt><trkpt lat="43.854191054539825" lon="10.507621869303689"><ele>21.0</ele><time>2026-05-04T08:05:05.999Z</time></trkpt><trkpt lat="43.85409370089122" lon="10.507589704489579"><ele>21.0</ele><time>2026-05-04T08:05:06.999Z</time></trkpt><trkpt lat="43.85399393280297" lon="10.507564552175923"><ele>20.8</ele><time>2026-05-04T08:05:07.999Z</time></trkpt><trkpt lat="43.853900268254364" lon="10.5075422197151"><ele>20.6</ele><time>2026-05-04T08:05:08.999Z</time></trkpt><trkpt lat="43.85379835725716" lon="10.507521275632278"><ele>20.4</ele><time>2026-05-04T08:05:09.999Z</time></trkpt><trkpt lat="43.853703572438214" lon="10.507510020622348"><ele>20.2</ele><time>2026-05-04T08:05:10.999Z</time></trkpt><trkpt lat="43.8536228110857" lon="10.507491225077588"><ele>20.0</ele><time>2026-05-04T08:05:11.999Z</time></trkpt><trkpt lat="43.853546730268285" lon="10.507485831591852"><ele>20.0</ele><time>2026-05-04T08:05:12.999Z</time></trkpt><trkpt lat="43.85347836734782" lon="10.507481805767881"><ele>20.0</ele><time>2026-05-04T08:05:13.999Z</time></trkpt><trkpt lat="43.853415158671865" lon="10.507470867856632"><ele>20.0</ele><time>2026-05-04T08:05:14.999Z</time></trkpt><trkpt lat="43.853286425817494" lon="10.507448725072015"><ele>20.0</ele><time>2026-05-04T08:05:16.999Z</time></trkpt><trkpt lat="43.8531645158772" lon="10.507429091203639"><ele>20.0</ele><time>2026-05-04T08:05:18.999Z</time></trkpt><trkpt lat="43.85308805324547" lon="10.507425331490637"><ele>20.166666666666668</ele><time>2026-05-04T08:05:20.999Z</time></trkpt><trkpt lat="43.85301439439259" lon="10.50742023420123"><ele>20.333333333333336</ele><time>2026-05-04T08:05:23.999Z</time></trkpt><trkpt lat="43.853033404896806" lon="10.507575319489714"><ele>20.5</ele><time>2026-05-04T08:05:26.999Z</time></trkpt><trkpt lat="43.85309881915076" lon="10.50766951740323"><ele>20.666666666666668</ele><time>2026-05-04T08:05:28.999Z</time></trkpt><trkpt lat="43.853157961368694" lon="10.507708974450829"><ele>20.833333333333332</ele><time>2026-05-04T08:05:29.999Z</time></trkpt><trkpt lat="43.85318622590645" lon="10.50779567920786"><ele>21.0</ele><time>2026-05-04T08:05:30.999Z</time></trkpt><trkpt lat="43.85319099111738" lon="10.507973090654742"><ele>21.0</ele><time>2026-05-04T08:05:32.999Z</time></trkpt><trkpt lat="43.853189235110726" lon="10.508065071811076"><ele>21.0</ele><time>2026-05-04T08:05:33.999Z</time></trkpt><trkpt lat="43.85318548167031" lon="10.508160394059145"><ele>21.0</ele><time>2026-05-04T08:05:34.999Z</time></trkpt><trkpt lat="43.85318568792614" lon="10.508250644042327"><ele>21.0</ele><time>2026-05-04T08:05:35.999Z</time></trkpt><trkpt lat="43.853193355284525" lon="10.50840335700407"><ele>21.0</ele><time>2026-05-04T08:05:37.999Z</time></trkpt><trkpt lat="43.85320172566753" lon="10.508545509783653"><ele>21.0</ele><time>2026-05-04T08:05:39.999Z</time></trkpt><trkpt lat="43.853202346645276" lon="10.508686363386397"><ele>21.0</ele><time>2026-05-04T08:05:41.999Z</time></trkpt><trkpt lat="43.85319756704132" lon="10.508804374859485"><ele>21.0</ele><time>2026-05-04T08:05:43.999Z</time></trkpt><trkpt lat="43.85319131041524" lon="10.50890053409635"><ele>21.0</ele><time>2026-05-04T08:05:46.999Z</time></trkpt><trkpt lat="43.853202567738975" lon="10.509057414288424"><ele>21.0</ele><time>2026-05-04T08:06:26.996Z</time></trkpt><trkpt lat="43.853194855255076" lon="10.50918378909498"><ele>21.0</ele><time>2026-05-04T08:06:27.996Z</time></trkpt><trkpt lat="43.853156658916866" lon="10.509319084243312"><ele>21.0</ele><time>2026-05-04T08:06:28.996Z</time></trkpt><trkpt lat="43.8531513229336" lon="10.509481698654623"><ele>21.0</ele><time>2026-05-04T08:06:29.997Z</time></trkpt><trkpt lat="43.85314712294509" lon="10.509652481084556"><ele>21.0</ele><time>2026-05-04T08:06:30.997Z</time></trkpt><trkpt lat="43.853144484551045" lon="10.509830618200414"><ele>21.0</ele><time>2026-05-04T08:06:31.997Z</time></trkpt><trkpt lat="43.85314631949299" lon="10.5100160468865"><ele>20.75</ele><time>2026-05-04T08:06:32.997Z</time></trkpt><trkpt lat="43.85315505088879" lon="10.510214198646551"><ele>20.5</ele><time>2026-05-04T08:06:33.997Z</time></trkpt><trkpt lat="43.85322061327265" lon="10.510409340775555"><ele>20.25</ele><time>2026-05-04T08:06:34.997Z</time></trkpt><trkpt lat="43.85324228958537" lon="10.510611675338739"><ele>20.0</ele><time>2026-05-04T08:06:35.997Z</time></trkpt><trkpt lat="43.85326645636244" lon="10.510809231426835"><ele>20.0</ele><time>2026-05-04T08:06:36.997Z</time></trkpt><trkpt lat="43.85327880784018" lon="10.511007632428903"><ele>20.0</ele><time>2026-05-04T08:06:37.997Z</time></trkpt><trkpt lat="43.85325564980086" lon="10.511225692765173"><ele>20.0</ele><time>2026-05-04T08:06:38.997Z</time></trkpt><trkpt lat="43.85324647485024" lon="10.51145416606074"><ele>20.0</ele><time>2026-05-04T08:06:39.997Z</time></trkpt><trkpt lat="43.85323550099972" lon="10.511680895946656"><ele>20.0</ele><time>2026-05-04T08:06:40.997Z</time></trkpt><trkpt lat="43.853224424111495" lon="10.511910700374356"><ele>20.0</ele><time>2026-05-04T08:06:41.997Z</time></trkpt><trkpt lat="43.85323743583025" lon="10.512133001693275"><ele>20.0</ele><time>2026-05-04T08:06:42.997Z</time></trkpt><trkpt lat="43.85322565357394" lon="10.512361170696623"><ele>20.0</ele><time>2026-05-04T08:06:43.997Z</time></trkpt><trkpt lat="43.85321062955794" lon="10.512584326371785"><ele>20.0</ele><time>2026-05-04T08:06:44.998Z</time></trkpt><trkpt lat="43.8531884807353" lon="10.512811816081093"><ele>19.666666666666668</ele><time>2026-05-04T08:06:45.998Z</time></trkpt><trkpt lat="43.853131117004686" lon="10.513032947738147"><ele>19.333333333333332</ele><time>2026-05-04T08:06:46.998Z</time></trkpt><trkpt lat="43.85309033606362" lon="10.513246305149401"><ele>19.0</ele><time>2026-05-04T08:06:47.998Z</time></trkpt><trkpt lat="43.85304706845474" lon="10.513440821058424"><ele>19.0</ele><time>2026-05-04T08:06:48.998Z</time></trkpt><trkpt lat="43.85302165187792" lon="10.513622723336706"><ele>19.0</ele><time>2026-05-04T08:06:49.998Z</time></trkpt><trkpt lat="43.8529908087498" lon="10.51376972336925"><ele>19.0</ele><time>2026-05-04T08:06:50.998Z</time></trkpt><trkpt lat="43.85297991935974" lon="10.513899374407256"><ele>19.0</ele><time>2026-05-04T08:06:51.998Z</time></trkpt><trkpt lat="43.85298334490378" lon="10.514009044369237"><ele>19.0</ele><time>2026-05-04T08:06:52.998Z</time></trkpt><trkpt lat="43.85302491311857" lon="10.51409693310503"><ele>19.0</ele><time>2026-05-04T08:06:53.998Z</time></trkpt><trkpt lat="43.853150713036726" lon="10.514154724333151"><ele>19.0</ele><time>2026-05-04T08:06:54.998Z</time></trkpt><trkpt lat="43.853246688553725" lon="10.514247746109278"><ele>19.0</ele><time>2026-05-04T08:06:55.998Z</time></trkpt><trkpt lat="43.85334284748605" lon="10.514375573451954"><ele>19.0</ele><time>2026-05-04T08:06:56.998Z</time></trkpt><trkpt lat="43.853472521790586" lon="10.514457428381746"><ele>18.75</ele><time>2026-05-04T08:06:57.998Z</time></trkpt><trkpt lat="43.85360340691625" lon="10.514550615203417"><ele>18.5</ele><time>2026-05-04T08:06:58.998Z</time></trkpt><trkpt lat="43.85374108871759" lon="10.51463021480319"><ele>18.25</ele><time>2026-05-04T08:06:59.998Z</time></trkpt><trkpt lat="43.8538695161823" lon="10.514708827099664"><ele>18.0</ele><time>2026-05-04T08:07:00.998Z</time></trkpt><trkpt lat="43.853968561651826" lon="10.514834494580871"><ele>18.5</ele><time>2026-05-04T08:07:01.998Z</time></trkpt><trkpt lat="43.85407569886074" lon="10.514961414320398"><ele>19.0</ele><time>2026-05-04T08:07:02.998Z</time></trkpt><trkpt lat="43.85409317750297" lon="10.515163555150528"><ele>19.5</ele><time>2026-05-04T08:07:03.998Z</time></trkpt><trkpt lat="43.85412763477728" lon="10.515349800156807"><ele>20.0</ele><time>2026-05-04T08:07:04.998Z</time></trkpt><trkpt lat="43.85415665882982" lon="10.51555134216129"><ele>20.0</ele><time>2026-05-04T08:07:05.998Z</time></trkpt><trkpt lat="43.85418628200497" lon="10.51575523543458"><ele>20.0</ele><time>2026-05-04T08:07:06.998Z</time></trkpt><trkpt lat="43.854226916255556" lon="10.515943928318695"><ele>20.0</ele><time>2026-05-04T08:07:07.999Z</time></trkpt><trkpt lat="43.85427691132551" lon="10.51612742853614"><ele>20.0</ele><time>2026-05-04T08:07:08.999Z</time></trkpt><trkpt lat="43.85435214932071" lon="10.516294466701959"><ele>20.0</ele><time>2026-05-04T08:07:09.999Z</time></trkpt><trkpt lat="43.8544452256271" lon="10.516452237970633"><ele>20.0</ele><time>2026-05-04T08:07:10.999Z</time></trkpt><trkpt lat="43.85455171110819" lon="10.51659809938426"><ele>20.0</ele><time>2026-05-04T08:07:11.999Z</time></trkpt><trkpt lat="43.85465895470317" lon="10.516742282462817"><ele>20.0</ele><time>2026-05-04T08:07:12.999Z</time></trkpt><trkpt lat="43.85476317974436" lon="10.516876842762464"><ele>20.0</ele><time>2026-05-04T08:07:13.999Z</time></trkpt><trkpt lat="43.85485813831566" lon="10.516988699452202"><ele>20.0</ele><time>2026-05-04T08:07:14.999Z</time></trkpt><trkpt lat="43.85494982229293" lon="10.517095104714086"><ele>20.0</ele><time>2026-05-04T08:07:15.999Z</time></trkpt><trkpt lat="43.85503680446855" lon="10.517188484634021"><ele>20.0</ele><time>2026-05-04T08:07:16.999Z</time></trkpt><trkpt lat="43.855121619309365" lon="10.517282445799509"><ele>20.4</ele><time>2026-05-04T08:07:17.999Z</time></trkpt><trkpt lat="43.8552172880975" lon="10.517349850481425"><ele>20.8</ele><time>2026-05-04T08:07:18.999Z</time></trkpt><trkpt lat="43.85530641049515" lon="10.517420885648813"><ele>21.200000000000003</ele><time>2026-05-04T08:07:19.999Z</time></trkpt><trkpt lat="43.85538799490315" lon="10.517491756629983"><ele>21.6</ele><time>2026-05-04T08:07:20.999Z</time></trkpt><trkpt lat="43.855465428192986" lon="10.517554242493425"><ele>22.0</ele><time>2026-05-04T08:07:21.999Z</time></trkpt><trkpt lat="43.855541132980804" lon="10.517621581354735"><ele>22.0</ele><time>2026-05-04T08:07:22.999Z</time></trkpt><trkpt lat="43.855602476309244" lon="10.517703106318454"><ele>22.0</ele><time>2026-05-04T08:07:23.999Z</time></trkpt><trkpt lat="43.855637300999064" lon="10.517797675876407"><ele>22.0</ele><time>2026-05-04T08:07:24.999Z</time></trkpt><trkpt lat="43.85563384082148" lon="10.51791416507685"><ele>22.0</ele><time>2026-05-04T08:07:25.999Z</time></trkpt><trkpt lat="43.85564025256881" lon="10.518028773885861"><ele>22.0</ele><time>2026-05-04T08:07:26.999Z</time></trkpt><trkpt lat="43.85566163537528" lon="10.518142460454618"><ele>22.0</ele><time>2026-05-04T08:07:27.999Z</time></trkpt><trkpt lat="43.85566454608005" lon="10.518262544068483"><ele>21.8</ele><time>2026-05-04T08:07:28.999Z</time></trkpt><trkpt lat="43.85567034290162" lon="10.518383241325996"><ele>21.6</ele><time>2026-05-04T08:07:29.999Z</time></trkpt><trkpt lat="43.85568382117644" lon="10.518506913336601"><ele>21.400000000000002</ele><time>2026-05-04T08:07:30.999Z</time></trkpt><trkpt lat="43.85571193036758" lon="10.518638646562618"><ele>21.200000000000003</ele><time>2026-05-04T08:07:31.999Z</time></trkpt><trkpt lat="43.85574030642418" lon="10.518781411299516"><ele>21.0</ele><time>2026-05-04T08:07:32.999Z</time></trkpt><trkpt lat="43.85581847358163" lon="10.518883284729869"><ele>21.0</ele><time>2026-05-04T08:07:33.999Z</time></trkpt><trkpt lat="43.855882734135434" lon="10.518980060428055"><ele>21.0</ele><time>2026-05-04T08:07:34.999Z</time></trkpt><trkpt lat="43.85593781823103" lon="10.519059586058615"><ele>21.0</ele><time>2026-05-04T08:07:35.999Z</time></trkpt><trkpt lat="43.85598578459863" lon="10.51912514311591"><ele>21.0</ele><time>2026-05-04T08:07:36.999Z</time></trkpt><trkpt lat="43.85605533280191" lon="10.519210027134221"><ele>21.0</ele><time>2026-05-04T08:07:38.999Z</time></trkpt><trkpt lat="43.85609685571807" lon="10.519293320854825"><ele>21.0</ele><time>2026-05-04T08:07:41.999Z</time></trkpt><trkpt lat="43.85617025812978" lon="10.519356243609998"><ele>21.0</ele><time>2026-05-04T08:07:44.999Z</time></trkpt><trkpt lat="43.85626965193825" lon="10.519458287820884"><ele>21.0</ele><time>2026-05-04T08:07:46.999Z</time></trkpt><trkpt lat="43.85635418845477" lon="10.51950816218666"><ele>21.0</ele><time>2026-05-04T08:07:47.999Z</time></trkpt><trkpt lat="43.856437189934084" lon="10.51958783800388"><ele>21.0</ele><time>2026-05-04T08:07:48.999Z</time></trkpt><trkpt lat="43.85653403470562" lon="10.519654633419911"><ele>21.0</ele><time>2026-05-04T08:07:49.999Z</time></trkpt><trkpt lat="43.85663836884408" lon="10.519726980097824"><ele>21.0</ele><time>2026-05-04T08:07:50.999Z</time></trkpt><trkpt lat="43.85675536264552" lon="10.519786532413951"><ele>21.0</ele><time>2026-05-04T08:07:51.999Z</time></trkpt><trkpt lat="43.85687113301045" lon="10.51987170812175"><ele>21.0</ele><time>2026-05-04T08:07:52.999Z</time></trkpt><trkpt lat="43.856989247771565" lon="10.519955094350916"><ele>21.0</ele><time>2026-05-04T08:07:53.999Z</time></trkpt><trkpt lat="43.857108714147856" lon="10.52003507217693"><ele>21.0</ele><time>2026-05-04T08:07:54.999Z</time></trkpt><trkpt lat="43.85723002491547" lon="10.520126326370077"><ele>21.0</ele><time>2026-05-04T08:07:55.999Z</time></trkpt><trkpt lat="43.857346491007156" lon="10.520224075589407"><ele>21.0</ele><time>2026-05-04T08:07:56.999Z</time></trkpt><trkpt lat="43.857456103718484" lon="10.520338507298137"><ele>21.0</ele><time>2026-05-04T08:07:57.999Z</time></trkpt><trkpt lat="43.8575572788929" lon="10.520469854789559"><ele>21.0</ele><time>2026-05-04T08:07:58.999Z</time></trkpt><trkpt lat="43.85763334606957" lon="10.520634332002436"><ele>21.0</ele><time>2026-05-04T08:07:59.999Z</time></trkpt><trkpt lat="43.85771361971523" lon="10.520803615259382"><ele>21.0</ele><time>2026-05-04T08:08:00.999Z</time></trkpt><trkpt lat="43.85779862531017" lon="10.520970427144828"><ele>21.0</ele><time>2026-05-04T08:08:01.999Z</time></trkpt><trkpt lat="43.85789190071443" lon="10.521115617145073"><ele>21.5</ele><time>2026-05-04T08:08:02.999Z</time></trkpt><trkpt lat="43.85796872813741" lon="10.521263944096356"><ele>22.0</ele><time>2026-05-04T08:08:03.999Z</time></trkpt><trkpt lat="43.85803880493092" lon="10.521398409751503"><ele>22.5</ele><time>2026-05-04T08:08:04.999Z</time></trkpt><trkpt lat="43.85809220066237" lon="10.521530071083106"><ele>23.0</ele><time>2026-05-04T08:08:05.999Z</time></trkpt><trkpt lat="43.85809511768603" lon="10.521665092830778"><ele>23.0</ele><time>2026-05-04T08:08:06.999Z</time></trkpt><trkpt lat="43.85809432296051" lon="10.52180790451371"><ele>23.0</ele><time>2026-05-04T08:08:07.999Z</time></trkpt><trkpt lat="43.858106878545954" lon="10.521963341992416"><ele>23.0</ele><time>2026-05-04T08:08:08.999Z</time></trkpt><trkpt lat="43.85808772855544" lon="10.522133427887015"><ele>23.0</ele><time>2026-05-04T08:08:09.999Z</time></trkpt><trkpt lat="43.85808744671416" lon="10.522317232214933"><ele>22.75</ele><time>2026-05-04T08:08:10.999Z</time></trkpt><trkpt lat="43.85809072445112" lon="10.5225094094442"><ele>22.5</ele><time>2026-05-04T08:08:11.999Z</time></trkpt><trkpt lat="43.858108418269666" lon="10.52271739040492"><ele>22.25</ele><time>2026-05-04T08:08:12.999Z</time></trkpt><trkpt lat="43.858154312304606" lon="10.522926872487467"><ele>22.0</ele><time>2026-05-04T08:08:13.999Z</time></trkpt><trkpt lat="43.85818117255199" lon="10.523145180445619"><ele>21.666666666666664</ele><time>2026-05-04T08:08:14.999Z</time></trkpt><trkpt lat="43.85821030570422" lon="10.523368837275939"><ele>21.333333333333332</ele><time>2026-05-04T08:08:16Z</time></trkpt><trkpt lat="43.8582477443704" lon="10.523594606564842"><ele>21.0</ele><time>2026-05-04T08:08:17Z</time></trkpt><trkpt lat="43.858271860204276" lon="10.523848878175233"><ele>20.666666666666668</ele><time>2026-05-04T08:08:18Z</time></trkpt><trkpt lat="43.85827639211424" lon="10.524097366726112"><ele>20.333333333333336</ele><time>2026-05-04T08:08:19Z</time></trkpt><trkpt lat="43.858308835421056" lon="10.524339132697218"><ele>20.0</ele><time>2026-05-04T08:08:20Z</time></trkpt><trkpt lat="43.85833378510947" lon="10.524576334035695"><ele>20.0</ele><time>2026-05-04T08:08:21Z</time></trkpt><trkpt lat="43.858354722641145" lon="10.524832028478349"><ele>20.0</ele><time>2026-05-04T08:08:22Z</time></trkpt><trkpt lat="43.85839241657792" lon="10.525130924450272"><ele>20.0</ele><time>2026-05-04T08:08:23Z</time></trkpt><trkpt lat="43.85841556787196" lon="10.525431071864489"><ele>19.666666666666668</ele><time>2026-05-04T08:08:24Z</time></trkpt><trkpt lat="43.85844678217913" lon="10.52572082863386"><ele>19.333333333333332</ele><time>2026-05-04T08:08:25Z</time></trkpt><trkpt lat="43.85849045532655" lon="10.52596560222416"><ele>19.0</ele><time>2026-05-04T08:08:26Z</time></trkpt><trkpt lat="43.85853811463995" lon="10.526160041110998"><ele>19.2</ele><time>2026-05-04T08:08:27Z</time></trkpt><trkpt lat="43.85855815812515" lon="10.526312501084105"><ele>19.4</ele><time>2026-05-04T08:08:28Z</time></trkpt><trkpt lat="43.858581601100624" lon="10.526420918814654"><ele>19.6</ele><time>2026-05-04T08:08:29Z</time></trkpt><trkpt lat="43.858601141096564" lon="10.526511286307391"><ele>19.8</ele><time>2026-05-04T08:08:30Z</time></trkpt><trkpt lat="43.85864239281957" lon="10.526666488654682"><ele>20.0</ele><time>2026-05-04T08:08:32Z</time></trkpt><trkpt lat="43.85868293614091" lon="10.526797827563644"><ele>20.0</ele><time>2026-05-04T08:08:33.998Z</time></trkpt><trkpt lat="43.85871545124449" lon="10.526903228861906"><ele>20.0</ele><time>2026-05-04T08:08:34.998Z</time></trkpt><trkpt lat="43.85877219413324" lon="10.527029089390615"><ele>20.0</ele><time>2026-05-04T08:08:35.998Z</time></trkpt><trkpt lat="43.85882109792093" lon="10.52718299897775"><ele>20.0</ele><time>2026-05-04T08:08:36.998Z</time></trkpt><trkpt lat="43.85887816590655" lon="10.527355759988453"><ele>20.0</ele><time>2026-05-04T08:08:37.998Z</time></trkpt><trkpt lat="43.85893648570639" lon="10.527543380529064"><ele>20.0</ele><time>2026-05-04T08:08:38.998Z</time></trkpt><trkpt lat="43.8589965762028" lon="10.527743922106891"><ele>20.0</ele><time>2026-05-04T08:08:39.998Z</time></trkpt><trkpt lat="43.85905667032218" lon="10.527961624650716"><ele>20.0</ele><time>2026-05-04T08:08:40.998Z</time></trkpt><trkpt lat="43.85910343675444" lon="10.528182314308289"><ele>20.0</ele><time>2026-05-04T08:08:41.998Z</time></trkpt><trkpt lat="43.85913363688264" lon="10.528406422465972"><ele>20.0</ele><time>2026-05-04T08:08:42.998Z</time></trkpt><trkpt lat="43.85914753023448" lon="10.528639243054965"><ele>20.0</ele><time>2026-05-04T08:08:43.998Z</time></trkpt><trkpt lat="43.859140827282545" lon="10.528881256520856"><ele>20.0</ele><time>2026-05-04T08:08:44.998Z</time></trkpt><trkpt lat="43.85916229215086" lon="10.529111814704294"><ele>20.0</ele><time>2026-05-04T08:08:45.998Z</time></trkpt><trkpt lat="43.85916773632553" lon="10.52938979294181"><ele>20.0</ele><time>2026-05-04T08:08:46.998Z</time></trkpt><trkpt lat="43.85917149718131" lon="10.52968398012755"><ele>20.0</ele><time>2026-05-04T08:08:47.998Z</time></trkpt><trkpt lat="43.85916334515392" lon="10.529965786868386"><ele>20.0</ele><time>2026-05-04T08:08:48.998Z</time></trkpt><trkpt lat="43.85916483655477" lon="10.5302431902299"><ele>20.0</ele><time>2026-05-04T08:08:49.999Z</time></trkpt><trkpt lat="43.85915989993018" lon="10.530507684072738"><ele>20.0</ele><time>2026-05-04T08:08:50.999Z</time></trkpt><trkpt lat="43.85914909080246" lon="10.530756055394358"><ele>20.0</ele><time>2026-05-04T08:08:51.999Z</time></trkpt><trkpt lat="43.85913465801174" lon="10.531004714642867"><ele>20.0</ele><time>2026-05-04T08:08:52.999Z</time></trkpt><trkpt lat="43.85912048420052" lon="10.531228171281418"><ele>20.0</ele><time>2026-05-04T08:08:53.999Z</time></trkpt><trkpt lat="43.85910858945301" lon="10.53141345356948"><ele>20.0</ele><time>2026-05-04T08:08:54.999Z</time></trkpt><trkpt lat="43.85909601023627" lon="10.53160939784437"><ele>20.0</ele><time>2026-05-04T08:08:55.999Z</time></trkpt><trkpt lat="43.85908400347454" lon="10.531823439397973"><ele>20.0</ele><time>2026-05-04T08:08:56.999Z</time></trkpt><trkpt lat="43.859079229504815" lon="10.532049937807466"><ele>20.333333333333336</ele><time>2026-05-04T08:08:57.999Z</time></trkpt><trkpt lat="43.85907465885898" lon="10.532278090903427"><ele>20.666666666666668</ele><time>2026-05-04T08:08:58.999Z</time></trkpt><trkpt lat="43.8590476373446" lon="10.532518440341883"><ele>21.0</ele><time>2026-05-04T08:08:59.999Z</time></trkpt><trkpt lat="43.85904704980227" lon="10.532774663481382"><ele>20.666666666666668</ele><time>2026-05-04T08:09:00.999Z</time></trkpt><trkpt lat="43.85906828776414" lon="10.533033818825519"><ele>20.333333333333336</ele><time>2026-05-04T08:09:01.999Z</time></trkpt><trkpt lat="43.859066591297456" lon="10.53330044529889"><ele>20.0</ele><time>2026-05-04T08:09:02.999Z</time></trkpt><trkpt lat="43.859033766190244" lon="10.533566188745159"><ele>19.75</ele><time>2026-05-04T08:09:03.999Z</time></trkpt><trkpt lat="43.859018364032664" lon="10.533803650098697"><ele>19.5</ele><time>2026-05-04T08:09:04.999Z</time></trkpt><trkpt lat="43.85900322239229" lon="10.534006234379591"><ele>19.25</ele><time>2026-05-04T08:09:05.999Z</time></trkpt><trkpt lat="43.858990762958186" lon="10.534178639118306"><ele>19.0</ele><time>2026-05-04T08:09:06.999Z</time></trkpt><trkpt lat="43.85897906361259" lon="10.534339807009152"><ele>19.0</ele><time>2026-05-04T08:09:07.999Z</time></trkpt><trkpt lat="43.858966386046696" lon="10.534510560802142"><ele>19.0</ele><time>2026-05-04T08:09:08.999Z</time></trkpt><trkpt lat="43.85895283092271" lon="10.534688839190387"><ele>19.0</ele><time>2026-05-04T08:09:09.999Z</time></trkpt><trkpt lat="43.8589379643106" lon="10.534877590029645"><ele>19.0</ele><time>2026-05-04T08:09:10.999Z</time></trkpt><trkpt lat="43.858919894006014" lon="10.535082950340088"><ele>19.333333333333332</ele><time>2026-05-04T08:09:11.999Z</time></trkpt><trkpt lat="43.858899805683514" lon="10.535295848050998"><ele>19.666666666666668</ele><time>2026-05-04T08:09:12.999Z</time></trkpt><trkpt lat="43.858876986305326" lon="10.53552694174462"><ele>20.0</ele><time>2026-05-04T08:09:13.999Z</time></trkpt><trkpt lat="43.858858325808036" lon="10.535759085363475"><ele>20.333333333333336</ele><time>2026-05-04T08:09:14.999Z</time></trkpt><trkpt lat="43.85883528000095" lon="10.53599594054437"><ele>20.666666666666668</ele><time>2026-05-04T08:09:15.999Z</time></trkpt><trkpt lat="43.85880016809739" lon="10.536234142534582"><ele>21.0</ele><time>2026-05-04T08:09:16.999Z</time></trkpt><trkpt lat="43.85876190879362" lon="10.536480212652462"><ele>20.666666666666668</ele><time>2026-05-04T08:09:17.999Z</time></trkpt><trkpt lat="43.858738298813115" lon="10.536731490564769"><ele>20.333333333333336</ele><time>2026-05-04T08:09:18.999Z</time></trkpt><trkpt lat="43.85868796569697" lon="10.536963999665394"><ele>20.0</ele><time>2026-05-04T08:09:19.999Z</time></trkpt><trkpt lat="43.85866884226275" lon="10.53720301125683"><ele>20.0</ele><time>2026-05-04T08:09:20.999Z</time></trkpt><trkpt lat="43.85865583311892" lon="10.53741851507022"><ele>20.0</ele><time>2026-05-04T08:09:22Z</time></trkpt><trkpt lat="43.858646527097726" lon="10.537625793032452"><ele>20.0</ele><time>2026-05-04T08:09:23Z</time></trkpt><trkpt lat="43.85863843509473" lon="10.537819936288297"><ele>20.0</ele><time>2026-05-04T08:09:24Z</time></trkpt><trkpt lat="43.85862923392402" lon="10.538011284485114"><ele>20.0</ele><time>2026-05-04T08:09:25Z</time></trkpt><trkpt lat="43.858620615861895" lon="10.538190506355583"><ele>20.0</ele><time>2026-05-04T08:09:26Z</time></trkpt><trkpt lat="43.85861270371474" lon="10.538355047818916"><ele>20.0</ele><time>2026-05-04T08:09:27Z</time></trkpt><trkpt lat="43.85860497518657" lon="10.538515770847914"><ele>20.0</ele><time>2026-05-04T08:09:28Z</time></trkpt><trkpt lat="43.85859679862026" lon="10.538681312803075"><ele>20.25</ele><time>2026-05-04T08:09:29Z</time></trkpt><trkpt lat="43.8585870606104" lon="10.538866241367728"><ele>20.5</ele><time>2026-05-04T08:09:30Z</time></trkpt><trkpt lat="43.858577296733195" lon="10.539051661092621"><ele>20.75</ele><time>2026-05-04T08:09:31Z</time></trkpt><trkpt lat="43.85856885352986" lon="10.539212000817693"><ele>21.0</ele><time>2026-05-04T08:09:32Z</time></trkpt><trkpt lat="43.85856185720431" lon="10.53934486369565"><ele>21.0</ele><time>2026-05-04T08:09:33Z</time></trkpt><trkpt lat="43.85855344044872" lon="10.539505938065844"><ele>21.0</ele><time>2026-05-04T08:09:34Z</time></trkpt><trkpt lat="43.858544352100694" lon="10.5396690010056"><ele>21.0</ele><time>2026-05-04T08:09:35Z</time></trkpt><trkpt lat="43.85854622189896" lon="10.539847207877632"><ele>21.0</ele><time>2026-05-04T08:09:36Z</time></trkpt><trkpt lat="43.858506243533434" lon="10.540023117664463"><ele>21.25</ele><time>2026-05-04T08:09:37Z</time></trkpt><trkpt lat="43.858473678243584" lon="10.54020653049902"><ele>21.5</ele><time>2026-05-04T08:09:38Z</time></trkpt><trkpt lat="43.858435870237464" lon="10.540388384330049"><ele>21.75</ele><time>2026-05-04T08:09:39Z</time></trkpt><trkpt lat="43.85839231807581" lon="10.540574158921373"><ele>22.0</ele><time>2026-05-04T08:09:40Z</time></trkpt><trkpt lat="43.85835991540673" lon="10.540761334142013"><ele>22.0</ele><time>2026-05-04T08:09:41Z</time></trkpt><trkpt lat="43.8583252356938" lon="10.540946074330515"><ele>22.0</ele><time>2026-05-04T08:09:42Z</time></trkpt><trkpt lat="43.858300657759976" lon="10.541139808996824"><ele>22.0</ele><time>2026-05-04T08:09:43Z</time></trkpt><trkpt lat="43.85828431691908" lon="10.541340084717897"><ele>22.0</ele><time>2026-05-04T08:09:44Z</time></trkpt><trkpt lat="43.85826581570321" lon="10.541542780129074"><ele>21.75</ele><time>2026-05-04T08:09:45Z</time></trkpt><trkpt lat="43.85824680740739" lon="10.541747181135154"><ele>21.5</ele><time>2026-05-04T08:09:46Z</time></trkpt><trkpt lat="43.858224954596785" lon="10.54195054589003"><ele>21.25</ele><time>2026-05-04T08:09:47Z</time></trkpt><trkpt lat="43.85820149930001" lon="10.542156081995264"><ele>21.0</ele><time>2026-05-04T08:09:48Z</time></trkpt><trkpt lat="43.85817764510043" lon="10.542368670646855"><ele>21.0</ele><time>2026-05-04T08:09:49Z</time></trkpt><trkpt lat="43.858153453737756" lon="10.542592319965685"><ele>21.0</ele><time>2026-05-04T08:09:50Z</time></trkpt><trkpt lat="43.85813059125041" lon="10.542824783136755"><ele>21.0</ele><time>2026-05-04T08:09:51Z</time></trkpt><trkpt lat="43.85810923013837" lon="10.54306385234761"><ele>20.666666666666668</ele><time>2026-05-04T08:09:52Z</time></trkpt><trkpt lat="43.858088539140965" lon="10.543313436656065"><ele>20.333333333333336</ele><time>2026-05-04T08:09:53Z</time></trkpt><trkpt lat="43.85806070598513" lon="10.543558284908935"><ele>20.0</ele><time>2026-05-04T08:09:54Z</time></trkpt><trkpt lat="43.858021616644415" lon="10.543805207580338"><ele>20.0</ele><time>2026-05-04T08:09:55Z</time></trkpt><trkpt lat="43.85795923301931" lon="10.544046360761541"><ele>20.0</ele><time>2026-05-04T08:09:56Z</time></trkpt><trkpt lat="43.857929142438536" lon="10.544290887678965"><ele>20.0</ele><time>2026-05-04T08:09:57Z</time></trkpt><trkpt lat="43.8578790058326" lon="10.544530353969439"><ele>20.0</ele><time>2026-05-04T08:09:58Z</time></trkpt><trkpt lat="43.85782583284507" lon="10.544769412714285"><ele>20.0</ele><time>2026-05-04T08:09:59Z</time></trkpt><trkpt lat="43.85777192135877" lon="10.545009339398895"><ele>20.0</ele><time>2026-05-04T08:10:00Z</time></trkpt><trkpt lat="43.85777692051695" lon="10.545183268764124"><ele>19.666666666666668</ele><time>2026-05-04T08:10:01Z</time></trkpt><trkpt lat="43.85775408682501" lon="10.545399072027392"><ele>19.333333333333332</ele><time>2026-05-04T08:10:02Z</time></trkpt><trkpt lat="43.85773283935839" lon="10.545622372670794"><ele>19.0</ele><time>2026-05-04T08:10:03Z</time></trkpt><trkpt lat="43.85769058612673" lon="10.54585014232598"><ele>19.0</ele><time>2026-05-04T08:10:04Z</time></trkpt><trkpt lat="43.857659384986164" lon="10.54608145213615"><ele>19.0</ele><time>2026-05-04T08:10:05Z</time></trkpt><trkpt lat="43.857627277109025" lon="10.546317301090758"><ele>19.0</ele><time>2026-05-04T08:10:06Z</time></trkpt><trkpt lat="43.85759067606379" lon="10.546546880718019"><ele>19.0</ele><time>2026-05-04T08:10:07Z</time></trkpt><trkpt lat="43.85755417675331" lon="10.546754765517411"><ele>19.0</ele><time>2026-05-04T08:10:08Z</time></trkpt><trkpt lat="43.8575362447672" lon="10.546949210568389"><ele>19.0</ele><time>2026-05-04T08:10:09Z</time></trkpt><trkpt lat="43.85749817136973" lon="10.547148113694835"><ele>19.0</ele><time>2026-05-04T08:10:10Z</time></trkpt><trkpt lat="43.85745879479235" lon="10.547357437570268"><ele>19.333333333333332</ele><time>2026-05-04T08:10:11Z</time></trkpt><trkpt lat="43.85740023795903" lon="10.547560511735668"><ele>19.666666666666668</ele><time>2026-05-04T08:10:12Z</time></trkpt><trkpt lat="43.857346459751724" lon="10.547769008880419"><ele>20.0</ele><time>2026-05-04T08:10:13Z</time></trkpt><trkpt lat="43.857274851362" lon="10.547964642802455"><ele>20.0</ele><time>2026-05-04T08:10:14Z</time></trkpt><trkpt lat="43.8571984144363" lon="10.548161049005158"><ele>20.0</ele><time>2026-05-04T08:10:15Z</time></trkpt><trkpt lat="43.85714291226993" lon="10.548370505753496"><ele>20.0</ele><time>2026-05-04T08:10:16Z</time></trkpt><trkpt lat="43.85708938465139" lon="10.548547265542593"><ele>20.2</ele><time>2026-05-04T08:10:17Z</time></trkpt><trkpt lat="43.85705388293405" lon="10.548710578352273"><ele>20.4</ele><time>2026-05-04T08:10:18Z</time></trkpt><trkpt lat="43.857039479620575" lon="10.548852752667939"><ele>20.6</ele><time>2026-05-04T08:10:19Z</time></trkpt><trkpt lat="43.857029974720376" lon="10.54894747902466"><ele>20.8</ele><time>2026-05-04T08:10:20Z</time></trkpt><trkpt lat="43.856961733136416" lon="10.549043684610881"><ele>21.0</ele><time>2026-05-04T08:10:22Z</time></trkpt><trkpt lat="43.856836862136255" lon="10.548961183784096"><ele>21.0</ele><time>2026-05-04T08:10:23Z</time></trkpt><trkpt lat="43.85672438716474" lon="10.548951216905735"><ele>21.0</ele><time>2026-05-04T08:10:24.001Z</time></trkpt><trkpt lat="43.85659655144199" lon="10.548940415668616"><ele>21.0</ele><time>2026-05-04T08:10:25.001Z</time></trkpt><trkpt lat="43.85645686095738" lon="10.548943580131873"><ele>21.0</ele><time>2026-05-04T08:10:26.001Z</time></trkpt><trkpt lat="43.856307444241125" lon="10.548927055315655"><ele>21.0</ele><time>2026-05-04T08:10:27.001Z</time></trkpt><trkpt lat="43.85614928939882" lon="10.54890942429073"><ele>21.0</ele><time>2026-05-04T08:10:28.001Z</time></trkpt><trkpt lat="43.855981228210624" lon="10.548890009974754"><ele>21.0</ele><time>2026-05-04T08:10:29.001Z</time></trkpt><trkpt lat="43.85581198900165" lon="10.548873579004221"><ele>20.666666666666668</ele><time>2026-05-04T08:10:30.001Z</time></trkpt><trkpt lat="43.85565153281634" lon="10.54885375769236"><ele>20.333333333333336</ele><time>2026-05-04T08:10:31.001Z</time></trkpt><trkpt lat="43.85549652788833" lon="10.548845266418795"><ele>20.0</ele><time>2026-05-04T08:10:32.001Z</time></trkpt><trkpt lat="43.85535266744274" lon="10.548808415976612"><ele>20.0</ele><time>2026-05-04T08:10:33.001Z</time></trkpt><trkpt lat="43.85522340355127" lon="10.548812813135006"><ele>20.0</ele><time>2026-05-04T08:10:34.001Z</time></trkpt><trkpt lat="43.855097355974664" lon="10.548799811883699"><ele>20.0</ele><time>2026-05-04T08:10:35.001Z</time></trkpt><trkpt lat="43.854980431817616" lon="10.548789853620361"><ele>20.0</ele><time>2026-05-04T08:10:36.001Z</time></trkpt><trkpt lat="43.854870048523324" lon="10.548781003451673"><ele>20.4</ele><time>2026-05-04T08:10:37.001Z</time></trkpt><trkpt lat="43.85477164593329" lon="10.548768482654872"><ele>20.8</ele><time>2026-05-04T08:10:38.001Z</time></trkpt><trkpt lat="43.85467258300721" lon="10.548767576284732"><ele>21.200000000000003</ele><time>2026-05-04T08:10:39Z</time></trkpt><trkpt lat="43.85458004988761" lon="10.548736129061949"><ele>21.6</ele><time>2026-05-04T08:10:40Z</time></trkpt><trkpt lat="43.85449166543158" lon="10.548728080753653"><ele>22.0</ele><time>2026-05-04T08:10:41Z</time></trkpt><trkpt lat="43.85440237245755" lon="10.54871994970344"><ele>22.0</ele><time>2026-05-04T08:10:42Z</time></trkpt><trkpt lat="43.85431736680545" lon="10.548712209069416"><ele>22.0</ele><time>2026-05-04T08:10:43Z</time></trkpt><trkpt lat="43.854246166614125" lon="10.54870572555927"><ele>22.0</ele><time>2026-05-04T08:10:44Z</time></trkpt><trkpt lat="43.85416793655013" lon="10.548698601907658"><ele>22.0</ele><time>2026-05-04T08:10:45Z</time></trkpt><trkpt lat="43.85409440108542" lon="10.548691905742096"><ele>22.0</ele><time>2026-05-04T08:10:46Z</time></trkpt><trkpt lat="43.85401508143312" lon="10.548684682876303"><ele>22.0</ele><time>2026-05-04T08:10:47Z</time></trkpt><trkpt lat="43.85393703838969" lon="10.54867757625458"><ele>21.833333333333332</ele><time>2026-05-04T08:10:48Z</time></trkpt><trkpt lat="43.85386744547399" lon="10.548670472255186"><ele>21.666666666666664</ele><time>2026-05-04T08:10:49Z</time></trkpt><trkpt lat="43.85380218569148" lon="10.548663268001018"><ele>21.5</ele><time>2026-05-04T08:10:50Z</time></trkpt><trkpt lat="43.85370512193178" lon="10.54865331853673"><ele>21.333333333333332</ele><time>2026-05-04T08:10:52Z</time></trkpt><trkpt lat="43.853628622510584" lon="10.548674923824565"><ele>21.166666666666668</ele><time>2026-05-04T08:11:07Z</time></trkpt><trkpt lat="43.85356392906277" lon="10.548699304616575"><ele>21.0</ele><time>2026-05-04T08:11:11Z</time></trkpt><trkpt lat="43.85356134089247" lon="10.548847558073549"><ele>21.0</ele><time>2026-05-04T08:11:13Z</time></trkpt><trkpt lat="43.853587800121126" lon="10.548971216233625"><ele>21.0</ele><time>2026-05-04T08:11:14Z</time></trkpt><trkpt lat="43.85361347768007" lon="10.5491046499228"><ele>21.0</ele><time>2026-05-04T08:11:15Z</time></trkpt><trkpt lat="43.8536297873034" lon="10.549245877985067"><ele>21.0</ele><time>2026-05-04T08:11:16Z</time></trkpt><trkpt lat="43.85364740477801" lon="10.549399331174289"><ele>21.0</ele><time>2026-05-04T08:11:17Z</time></trkpt><trkpt lat="43.85366842404625" lon="10.549566896789369"><ele>20.5</ele><time>2026-05-04T08:11:18Z</time></trkpt><trkpt lat="43.85369066699939" lon="10.549742627475663"><ele>20.0</ele><time>2026-05-04T08:11:19Z</time></trkpt><trkpt lat="43.85371778079639" lon="10.549924525332028"><ele>19.5</ele><time>2026-05-04T08:11:20Z</time></trkpt><trkpt lat="43.8537409181791" lon="10.550115099325641"><ele>19.0</ele><time>2026-05-04T08:11:21Z</time></trkpt><trkpt lat="43.853761903884745" lon="10.55031002420436"><ele>19.0</ele><time>2026-05-04T08:11:22Z</time></trkpt><trkpt lat="43.85378457712291" lon="10.550512494954212"><ele>19.0</ele><time>2026-05-04T08:11:23Z</time></trkpt><trkpt lat="43.853811379282796" lon="10.550725933941468"><ele>19.0</ele><time>2026-05-04T08:11:24Z</time></trkpt><trkpt lat="43.853837961205066" lon="10.550941255322602"><ele>19.0</ele><time>2026-05-04T08:11:25Z</time></trkpt><trkpt lat="43.853865491016315" lon="10.5511684578198"><ele>19.0</ele><time>2026-05-04T08:11:26Z</time></trkpt><trkpt lat="43.85389445728615" lon="10.551400507647697"><ele>19.0</ele><time>2026-05-04T08:11:27Z</time></trkpt><trkpt lat="43.853924579132936" lon="10.551636153076572"><ele>19.0</ele><time>2026-05-04T08:11:28Z</time></trkpt><trkpt lat="43.85393930214302" lon="10.551872411977916"><ele>19.0</ele><time>2026-05-04T08:11:29Z</time></trkpt><trkpt lat="43.85396756235429" lon="10.552106940437422"><ele>19.0</ele><time>2026-05-04T08:11:30Z</time></trkpt><trkpt lat="43.85399327252761" lon="10.552320305430852"><ele>19.0</ele><time>2026-05-04T08:11:31Z</time></trkpt><trkpt lat="43.854034081633365" lon="10.552498135058142"><ele>19.0</ele><time>2026-05-04T08:11:32Z</time></trkpt><trkpt lat="43.85405065003113" lon="10.55265373792414"><ele>19.0</ele><time>2026-05-04T08:11:33Z</time></trkpt><trkpt lat="43.85406802001292" lon="10.552806567952574"><ele>19.0</ele><time>2026-05-04T08:11:34Z</time></trkpt><trkpt lat="43.85408620550967" lon="10.552959647396877"><ele>19.0</ele><time>2026-05-04T08:11:35Z</time></trkpt><trkpt lat="43.85410465834769" lon="10.553112556956837"><ele>19.0</ele><time>2026-05-04T08:11:36.001Z</time></trkpt><trkpt lat="43.85412385111342" lon="10.553268049902888"><ele>19.0</ele><time>2026-05-04T08:11:37.001Z</time></trkpt><trkpt lat="43.854143474713005" lon="10.553426168248137"><ele>19.0</ele><time>2026-05-04T08:11:38.001Z</time></trkpt><trkpt lat="43.85416345139136" lon="10.55358672340494"><ele>18.75</ele><time>2026-05-04T08:11:39.001Z</time></trkpt><trkpt lat="43.85418544162503" lon="10.553749969140414"><ele>18.5</ele><time>2026-05-04T08:11:40.001Z</time></trkpt><trkpt lat="43.85419066010266" lon="10.553919991928954"><ele>18.25</ele><time>2026-05-04T08:11:41.001Z</time></trkpt><trkpt lat="43.85421101843809" lon="10.55408506414581"><ele>18.0</ele><time>2026-05-04T08:11:42.001Z</time></trkpt><trkpt lat="43.85423190521625" lon="10.554254421073795"><ele>18.0</ele><time>2026-05-04T08:11:43.001Z</time></trkpt><trkpt lat="43.854252802751425" lon="10.554423865279544"><ele>18.0</ele><time>2026-05-04T08:11:44.001Z</time></trkpt><trkpt lat="43.85427356135705" lon="10.554594005154394"><ele>18.0</ele><time>2026-05-04T08:11:45.001Z</time></trkpt><trkpt lat="43.8542943921086" lon="10.554764761483094"><ele>18.0</ele><time>2026-05-04T08:11:46.001Z</time></trkpt><trkpt lat="43.85431550445583" lon="10.554937823867391"><ele>18.25</ele><time>2026-05-04T08:11:47.001Z</time></trkpt><trkpt lat="43.8543388251773" lon="10.55512288376701"><ele>18.5</ele><time>2026-05-04T08:11:48.001Z</time></trkpt><trkpt lat="43.854363041271355" lon="10.555316979452375"><ele>18.75</ele><time>2026-05-04T08:11:49.001Z</time></trkpt><trkpt lat="43.854402770543246" lon="10.555513629447463"><ele>19.0</ele><time>2026-05-04T08:11:50.001Z</time></trkpt><trkpt lat="43.85442871361141" lon="10.555726217290804"><ele>19.0</ele><time>2026-05-04T08:11:51.001Z</time></trkpt><trkpt lat="43.85445524102302" lon="10.55593349573072"><ele>19.0</ele><time>2026-05-04T08:11:52.001Z</time></trkpt><trkpt lat="43.85447927223345" lon="10.55613188676617"><ele>19.0</ele><time>2026-05-04T08:11:53.001Z</time></trkpt><trkpt lat="43.854503016918564" lon="10.55630879705608"><ele>19.0</ele><time>2026-05-04T08:11:54.001Z</time></trkpt><trkpt lat="43.85450529515461" lon="10.556457165942897"><ele>19.0</ele><time>2026-05-04T08:11:55.001Z</time></trkpt><trkpt lat="43.854530885505156" lon="10.55655468680012"><ele>19.0</ele><time>2026-05-04T08:11:56.001Z</time></trkpt><trkpt lat="43.854499337513374" lon="10.556680679596914"><ele>19.0</ele><time>2026-05-04T08:11:58.001Z</time></trkpt><trkpt lat="43.85437247900002" lon="10.556660894306392"><ele>19.0</ele><time>2026-05-04T08:12:00.001Z</time></trkpt><trkpt lat="43.85428720057448" lon="10.556663390675649"><ele>19.0</ele><time>2026-05-04T08:12:01.001Z</time></trkpt><trkpt lat="43.854187173847826" lon="10.556657840184302"><ele>18.75</ele><time>2026-05-04T08:12:02.001Z</time></trkpt><trkpt lat="43.85408109175424" lon="10.55664628924393"><ele>18.5</ele><time>2026-05-04T08:12:03.001Z</time></trkpt><trkpt lat="43.85397050070009" lon="10.556642791251026"><ele>18.25</ele><time>2026-05-04T08:12:04.001Z</time></trkpt><trkpt lat="43.853854939820046" lon="10.556645743595196"><ele>18.0</ele><time>2026-05-04T08:12:05.001Z</time></trkpt><trkpt lat="43.85373075639814" lon="10.556646826485666"><ele>18.0</ele><time>2026-05-04T08:12:06.001Z</time></trkpt><trkpt lat="43.85360782631291" lon="10.556644717114581"><ele>18.0</ele><time>2026-05-04T08:12:07.001Z</time></trkpt><trkpt lat="43.85347688613369" lon="10.556640772422982"><ele>18.0</ele><time>2026-05-04T08:12:08.001Z</time></trkpt><trkpt lat="43.85334718291076" lon="10.556635152400304"><ele>18.0</ele><time>2026-05-04T08:12:09.001Z</time></trkpt><trkpt lat="43.85320935358952" lon="10.556647839785851"><ele>17.75</ele><time>2026-05-04T08:12:10.001Z</time></trkpt><trkpt lat="43.85307307287116" lon="10.556638335036979"><ele>17.5</ele><time>2026-05-04T08:12:11.001Z</time></trkpt><trkpt lat="43.85294231106512" lon="10.556639875114872"><ele>17.25</ele><time>2026-05-04T08:12:12.001Z</time></trkpt><trkpt lat="43.85281332152645" lon="10.556611165590796"><ele>17.0</ele><time>2026-05-04T08:12:13.001Z</time></trkpt><trkpt lat="43.85269087696811" lon="10.556607670099364"><ele>17.2</ele><time>2026-05-04T08:12:14.001Z</time></trkpt><trkpt lat="43.85258078314447" lon="10.556606285595137"><ele>17.4</ele><time>2026-05-04T08:12:15.001Z</time></trkpt><trkpt lat="43.85248854382022" lon="10.556625688902548"><ele>17.6</ele><time>2026-05-04T08:12:16.001Z</time></trkpt><trkpt lat="43.85241874345885" lon="10.55662709014232"><ele>17.8</ele><time>2026-05-04T08:12:17.001Z</time></trkpt><trkpt lat="43.852320118229564" lon="10.556611327515782"><ele>18.0</ele><time>2026-05-04T08:12:19.001Z</time></trkpt><trkpt lat="43.85228449158097" lon="10.556453704393101"><ele>18.0</ele><time>2026-05-04T08:12:21.001Z</time></trkpt><trkpt lat="43.85226112467878" lon="10.55634560448347"><ele>18.0</ele><time>2026-05-04T08:12:22.001Z</time></trkpt><trkpt lat="43.852223860163086" lon="10.556223351533388"><ele>18.0</ele><time>2026-05-04T08:12:23.001Z</time></trkpt><trkpt lat="43.85220550709177" lon="10.55607248033809"><ele>18.0</ele><time>2026-05-04T08:12:24.001Z</time></trkpt><trkpt lat="43.85215984150386" lon="10.55592020031975"><ele>18.0</ele><time>2026-05-04T08:12:25.001Z</time></trkpt><trkpt lat="43.85209951156994" lon="10.555763047120182"><ele>18.0</ele><time>2026-05-04T08:12:26.001Z</time></trkpt><trkpt lat="43.852035231463525" lon="10.555595751881617"><ele>18.0</ele><time>2026-05-04T08:12:27.001Z</time></trkpt><trkpt lat="43.85197166168221" lon="10.555416733611834"><ele>18.0</ele><time>2026-05-04T08:12:28.001Z</time></trkpt><trkpt lat="43.85190680729817" lon="10.555238771025595"><ele>18.0</ele><time>2026-05-04T08:12:29.001Z</time></trkpt><trkpt lat="43.85184297576677" lon="10.55505797116854"><ele>17.75</ele><time>2026-05-04T08:12:30.001Z</time></trkpt><trkpt lat="43.85177754651078" lon="10.554871608316025"><ele>17.5</ele><time>2026-05-04T08:12:31.001Z</time></trkpt><trkpt lat="43.85171354272747" lon="10.554684477306932"><ele>17.25</ele><time>2026-05-04T08:12:32.001Z</time></trkpt><trkpt lat="43.85164740677801" lon="10.554499177430916"><ele>17.0</ele><time>2026-05-04T08:12:33.001Z</time></trkpt><trkpt lat="43.8515873027864" lon="10.554307551274308"><ele>17.0</ele><time>2026-05-04T08:12:34.001Z</time></trkpt><trkpt lat="43.85152622696532" lon="10.554132780188374"><ele>17.0</ele><time>2026-05-04T08:12:35.001Z</time></trkpt><trkpt lat="43.85146796323237" lon="10.55396932998952"><ele>17.0</ele><time>2026-05-04T08:12:36.001Z</time></trkpt><trkpt lat="43.85142211956887" lon="10.553815524914436"><ele>17.0</ele><time>2026-05-04T08:12:37.001Z</time></trkpt><trkpt lat="43.851383885137786" lon="10.553685821722791"><ele>17.0</ele><time>2026-05-04T08:12:38.001Z</time></trkpt><trkpt lat="43.851354225151134" lon="10.55358843403087"><ele>17.0</ele><time>2026-05-04T08:12:39.002Z</time></trkpt><trkpt lat="43.8513265867069" lon="10.553505606804316"><ele>17.0</ele><time>2026-05-04T08:12:41.002Z</time></trkpt><trkpt lat="43.85129366561514" lon="10.553424648918828"><ele>17.0</ele><time>2026-05-04T08:12:43.002Z</time></trkpt><trkpt lat="43.85126023919979" lon="10.553273916614554"><ele>17.0</ele><time>2026-05-04T08:12:45Z</time></trkpt><trkpt lat="43.85120662348838" lon="10.553112319378476"><ele>16.999999999999996</ele><time>2026-05-04T08:12:47Z</time></trkpt><trkpt lat="43.851209957796875" lon="10.553015193361524"><ele>17.0</ele><time>2026-05-04T08:12:48Z</time></trkpt><trkpt lat="43.8511854368247" lon="10.552913612743623"><ele>17.0</ele><time>2026-05-04T08:12:49Z</time></trkpt><trkpt lat="43.85117330074003" lon="10.552804561606433"><ele>17.0</ele><time>2026-05-04T08:12:50Z</time></trkpt><trkpt lat="43.851165496913914" lon="10.552698501910188"><ele>17.0</ele><time>2026-05-04T08:12:51Z</time></trkpt><trkpt lat="43.85115409143097" lon="10.552605481522436"><ele>16.999999999999996</ele><time>2026-05-04T08:12:52Z</time></trkpt><trkpt lat="43.85115572597151" lon="10.55250118090027"><ele>17.0</ele><time>2026-05-04T08:12:54Z</time></trkpt><trkpt lat="43.85101010954588" lon="10.55254227146106"><ele>17.2</ele><time>2026-05-04T08:12:57Z</time></trkpt><trkpt lat="43.850938899807794" lon="10.552568463997574"><ele>17.4</ele><time>2026-05-04T08:12:58Z</time></trkpt><trkpt lat="43.85085922509102" lon="10.552613013208948"><ele>17.6</ele><time>2026-05-04T08:12:59Z</time></trkpt><trkpt lat="43.85077203648403" lon="10.552659486357133"><ele>17.8</ele><time>2026-05-04T08:13:00Z</time></trkpt><trkpt lat="43.85067402224351" lon="10.552711729553675"><ele>18.0</ele><time>2026-05-04T08:13:01Z</time></trkpt><trkpt lat="43.85057656264123" lon="10.55276367727883"><ele>18.0</ele><time>2026-05-04T08:13:02Z</time></trkpt><trkpt lat="43.85047372032967" lon="10.552817950804627"><ele>18.0</ele><time>2026-05-04T08:13:03Z</time></trkpt><trkpt lat="43.85036777539703" lon="10.552870541015823"><ele>18.0</ele><time>2026-05-04T08:13:04Z</time></trkpt><trkpt lat="43.85026021248897" lon="10.552950786135186"><ele>18.0</ele><time>2026-05-04T08:13:05Z</time></trkpt><trkpt lat="43.850141164623196" lon="10.552998767018641"><ele>18.0</ele><time>2026-05-04T08:13:06Z</time></trkpt><trkpt lat="43.85004716373982" lon="10.553077457187614"><ele>18.0</ele><time>2026-05-04T08:13:07Z</time></trkpt><trkpt lat="43.8499534871855" lon="10.553153894647842"><ele>18.0</ele><time>2026-05-04T08:13:08Z</time></trkpt><trkpt lat="43.84986568858143" lon="10.553238064404816"><ele>18.0</ele><time>2026-05-04T08:13:09Z</time></trkpt><trkpt lat="43.84977987933154" lon="10.55331855927588"><ele>18.0</ele><time>2026-05-04T08:13:10Z</time></trkpt><trkpt lat="43.849691707771356" lon="10.553394500845576"><ele>18.0</ele><time>2026-05-04T08:13:11.001Z</time></trkpt><trkpt lat="43.84960155865511" lon="10.553468856091294"><ele>18.0</ele><time>2026-05-04T08:13:12.001Z</time></trkpt><trkpt lat="43.849536727388355" lon="10.553540541615204"><ele>18.0</ele><time>2026-05-04T08:13:13.001Z</time></trkpt><trkpt lat="43.84948425160183" lon="10.553597769547274"><ele>18.0</ele><time>2026-05-04T08:13:14.001Z</time></trkpt><trkpt lat="43.84939797234901" lon="10.553695395416433"><ele>18.0</ele><time>2026-05-04T08:13:16.001Z</time></trkpt><trkpt lat="43.84931649147325" lon="10.553808594164352"><ele>17.833333333333332</ele><time>2026-05-04T08:13:18.001Z</time></trkpt><trkpt lat="43.84925618663641" lon="10.553853589251586"><ele>17.666666666666668</ele><time>2026-05-04T08:13:19.001Z</time></trkpt><trkpt lat="43.84920406671679" lon="10.55397188084827"><ele>17.5</ele><time>2026-05-04T08:13:21.001Z</time></trkpt><trkpt lat="43.84914310260496" lon="10.55404203127239"><ele>17.333333333333336</ele><time>2026-05-04T08:13:23.001Z</time></trkpt><trkpt lat="43.84905613126125" lon="10.554045336426578"><ele>17.166666666666668</ele><time>2026-05-04T08:13:26.001Z</time></trkpt><trkpt lat="43.84898968276842" lon="10.554054962410754"><ele>17.0</ele><time>2026-05-04T08:13:28.001Z</time></trkpt><trkpt lat="43.84891935054298" lon="10.554061917304136"><ele>16.999999999999996</ele><time>2026-05-04T08:13:30.001Z</time></trkpt><trkpt lat="43.848854841572894" lon="10.55406500686923"><ele>17.0</ele><time>2026-05-04T08:13:32.001Z</time></trkpt><trkpt lat="43.84878514535849" lon="10.554061460867828"><ele>17.0</ele><time>2026-05-04T08:13:34.001Z</time></trkpt><trkpt lat="43.84872109144364" lon="10.554057268960355"><ele>17.0</ele><time>2026-05-04T08:13:36.001Z</time></trkpt><trkpt lat="43.84862664942" lon="10.554058593451453"><ele>17.0</ele><time>2026-05-04T08:13:39.001Z</time></trkpt><trkpt lat="43.84855858099403" lon="10.554085490195414"><ele>16.999999999999996</ele><time>2026-05-04T08:13:41.001Z</time></trkpt><trkpt lat="43.84847584874597" lon="10.554070043475553"><ele>17.0</ele><time>2026-05-04T08:13:43.001Z</time></trkpt><trkpt lat="43.84844383904417" lon="10.554273779002582"><ele>16.999999999999996</ele><time>2026-05-04T08:13:46.001Z</time></trkpt><trkpt lat="43.84843304951607" lon="10.554371924631022"><ele>17.0</ele><time>2026-05-04T08:13:47.001Z</time></trkpt><trkpt lat="43.84842307051291" lon="10.554478679205456"><ele>17.0</ele><time>2026-05-04T08:13:48.001Z</time></trkpt><trkpt lat="43.848413565783154" lon="10.554570829006103"><ele>17.0</ele><time>2026-05-04T08:13:49.001Z</time></trkpt><trkpt lat="43.848403503254076" lon="10.554660862936277"><ele>17.0</ele><time>2026-05-04T08:13:50.001Z</time></trkpt><trkpt lat="43.848388592913885" lon="10.554751430499868"><ele>16.999999999999996</ele><time>2026-05-04T08:13:51.001Z</time></trkpt><trkpt lat="43.84837313350422" lon="10.554840407734696"><ele>17.0</ele><time>2026-05-04T08:13:52.001Z</time></trkpt><trkpt lat="43.84834200177946" lon="10.554982108351982"><ele>17.2</ele><time>2026-05-04T08:13:54.001Z</time></trkpt><trkpt lat="43.848299685199734" lon="10.555135600810482"><ele>17.4</ele><time>2026-05-04T08:13:56.001Z</time></trkpt><trkpt lat="43.848271455179955" lon="10.555215628958821"><ele>17.6</ele><time>2026-05-04T08:13:57.001Z</time></trkpt><trkpt lat="43.84820712072058" lon="10.555371005214099"><ele>17.8</ele><time>2026-05-04T08:13:59.001Z</time></trkpt><trkpt lat="43.84815663254323" lon="10.55548091924535"><ele>18.0</ele><time>2026-05-04T08:14:01.001Z</time></trkpt><trkpt lat="43.84806177239577" lon="10.555497319351522"><ele>18.0</ele><time>2026-05-04T08:14:04.001Z</time></trkpt><trkpt lat="43.84799535713242" lon="10.555473330029734"><ele>18.0</ele><time>2026-05-04T08:14:05.001Z</time></trkpt><trkpt lat="43.847917252451495" lon="10.555452356839055"><ele>18.0</ele><time>2026-05-04T08:14:06.001Z</time></trkpt><trkpt lat="43.84783314710556" lon="10.555430097012529"><ele>18.0</ele><time>2026-05-04T08:14:07.001Z</time></trkpt><trkpt lat="43.847748803169914" lon="10.555407734449975"><ele>18.0</ele><time>2026-05-04T08:14:08.001Z</time></trkpt><trkpt lat="43.847671003496416" lon="10.555389589651677"><ele>18.0</ele><time>2026-05-04T08:14:09.001Z</time></trkpt><trkpt lat="43.84759098512032" lon="10.555368763922226"><ele>17.833333333333332</ele><time>2026-05-04T08:14:10.001Z</time></trkpt><trkpt lat="43.847518976225366" lon="10.555352875468836"><ele>17.666666666666668</ele><time>2026-05-04T08:14:11.001Z</time></trkpt><trkpt lat="43.84741302676992" lon="10.555325033563783"><ele>17.5</ele><time>2026-05-04T08:14:13.001Z</time></trkpt><trkpt lat="43.84735959723466" lon="10.555374548542629"><ele>17.333333333333336</ele><time>2026-05-04T08:14:16.001Z</time></trkpt><trkpt lat="43.84738296676155" lon="10.555493035870809"><ele>17.166666666666668</ele><time>2026-05-04T08:14:18.001Z</time></trkpt><trkpt lat="43.847433387877096" lon="10.555602877818417"><ele>17.0</ele><time>2026-05-04T08:14:19.001Z</time></trkpt><trkpt lat="43.84749004891015" lon="10.5557504212224"><ele>17.0</ele><time>2026-05-04T08:14:20.001Z</time></trkpt><trkpt lat="43.84753192942432" lon="10.555868263237635"><ele>17.0</ele><time>2026-05-04T08:14:21.001Z</time></trkpt><trkpt lat="43.84756057780935" lon="10.555961536449203"><ele>17.0</ele><time>2026-05-04T08:14:22.001Z</time></trkpt><trkpt lat="43.847577177285864" lon="10.556118468591087"><ele>17.0</ele><time>2026-05-04T08:14:24.002Z</time></trkpt><trkpt lat="43.84756511998368" lon="10.556210839294797"><ele>17.0</ele><time>2026-05-04T08:14:25.002Z</time></trkpt><trkpt lat="43.84752129479578" lon="10.55628448989154"><ele>17.0</ele><time>2026-05-04T08:14:26.002Z</time></trkpt><trkpt lat="43.847470778048105" lon="10.556454813347514"><ele>17.2</ele><time>2026-05-04T08:14:28.002Z</time></trkpt><trkpt lat="43.84742528986628" lon="10.556575618255435"><ele>17.4</ele><time>2026-05-04T08:14:29.002Z</time></trkpt><trkpt lat="43.84738489808922" lon="10.556696603363557"><ele>17.6</ele><time>2026-05-04T08:14:30.002Z</time></trkpt><trkpt lat="43.847358611161546" lon="10.55681901180097"><ele>17.8</ele><time>2026-05-04T08:14:31.002Z</time></trkpt><trkpt lat="43.847343151447575" lon="10.556961098567992"><ele>18.0</ele><time>2026-05-04T08:14:32.002Z</time></trkpt><trkpt lat="43.847336377307585" lon="10.557115095189676"><ele>17.5</ele><time>2026-05-04T08:14:33.002Z</time></trkpt><trkpt lat="43.84732036750452" lon="10.557278180670233"><ele>17.0</ele><time>2026-05-04T08:14:34.002Z</time></trkpt><trkpt lat="43.84729971626847" lon="10.557440912588653"><ele>16.5</ele><time>2026-05-04T08:14:35.002Z</time></trkpt><trkpt lat="43.8472642306988" lon="10.557581415831887"><ele>16.0</ele><time>2026-05-04T08:14:36.002Z</time></trkpt><trkpt lat="43.847231424852374" lon="10.557736231577762"><ele>16.0</ele><time>2026-05-04T08:14:37.002Z</time></trkpt><trkpt lat="43.84721433935987" lon="10.557865574361356"><ele>16.0</ele><time>2026-05-04T08:14:38.002Z</time></trkpt><trkpt lat="43.847177951684166" lon="10.55798570976157"><ele>16.0</ele><time>2026-05-04T08:14:39.002Z</time></trkpt><trkpt lat="43.84713799022046" lon="10.55808873397672"><ele>16.0</ele><time>2026-05-04T08:14:40.002Z</time></trkpt><trkpt lat="43.84708789327596" lon="10.558193534643733"><ele>16.0</ele><time>2026-05-04T08:14:41.002Z</time></trkpt><trkpt lat="43.84701067469437" lon="10.558312271900704"><ele>16.0</ele><time>2026-05-04T08:14:42.002Z</time></trkpt><trkpt lat="43.84698381264497" lon="10.558451913866843"><ele>16.0</ele><time>2026-05-04T08:14:43.002Z</time></trkpt><trkpt lat="43.84694785406115" lon="10.558579555776237"><ele>16.0</ele><time>2026-05-04T08:14:44.002Z</time></trkpt><trkpt lat="43.846913442676495" lon="10.558701341869348"><ele>16.0</ele><time>2026-05-04T08:14:45.002Z</time></trkpt><trkpt lat="43.846880677412216" lon="10.558804513492333"><ele>16.0</ele><time>2026-05-04T08:14:46.002Z</time></trkpt><trkpt lat="43.84684249517883" lon="10.55889603110752"><ele>15.833333333333332</ele><time>2026-05-04T08:14:47.002Z</time></trkpt><trkpt lat="43.846779981043994" lon="10.558950460119158"><ele>15.666666666666666</ele><time>2026-05-04T08:14:48.002Z</time></trkpt><trkpt lat="43.84672395860136" lon="10.559022466979359"><ele>15.5</ele><time>2026-05-04T08:14:49.002Z</time></trkpt><trkpt lat="43.84667102046058" lon="10.559095308827922"><ele>15.333333333333332</ele><time>2026-05-04T08:14:50.002Z</time></trkpt><trkpt lat="43.84662453975118" lon="10.55915781739303"><ele>15.166666666666666</ele><time>2026-05-04T08:14:51.001Z</time></trkpt><trkpt lat="43.846588607498326" lon="10.559246481612622"><ele>15.0</ele><time>2026-05-04T08:14:53.001Z</time></trkpt><trkpt lat="43.846464166744994" lon="10.559231318769475"><ele>15.0</ele><time>2026-05-04T08:14:55.001Z</time></trkpt><trkpt lat="43.84636706600027" lon="10.559218067499142"><ele>15.0</ele><time>2026-05-04T08:14:56.001Z</time></trkpt><trkpt lat="43.846252668113216" lon="10.559224361734003"><ele>15.0</ele><time>2026-05-04T08:14:57.001Z</time></trkpt><trkpt lat="43.84612765129071" lon="10.559206762006964"><ele>15.0</ele><time>2026-05-04T08:14:58.001Z</time></trkpt><trkpt lat="43.84599078831149" lon="10.559190642272803"><ele>15.666666666666668</ele><time>2026-05-04T08:14:59.001Z</time></trkpt><trkpt lat="43.8458431766322" lon="10.559172867790833"><ele>16.333333333333336</ele><time>2026-05-04T08:15:00.001Z</time></trkpt><trkpt lat="43.84568750466805" lon="10.559146313894624"><ele>17.0</ele><time>2026-05-04T08:15:01.001Z</time></trkpt><trkpt lat="43.845525112650975" lon="10.55912967101324"><ele>17.0</ele><time>2026-05-04T08:15:02.001Z</time></trkpt><trkpt lat="43.8453535528855" lon="10.559105805540142"><ele>17.0</ele><time>2026-05-04T08:15:03.001Z</time></trkpt><trkpt lat="43.845177571116274" lon="10.55907994096033"><ele>17.0</ele><time>2026-05-04T08:15:04.001Z</time></trkpt><trkpt lat="43.844993418642225" lon="10.55905405225217"><ele>17.0</ele><time>2026-05-04T08:15:05.001Z</time></trkpt><trkpt lat="43.84480538681351" lon="10.559026330919936"><ele>17.0</ele><time>2026-05-04T08:15:06.001Z</time></trkpt><trkpt lat="43.84462407022959" lon="10.558997631688142"><ele>17.0</ele><time>2026-05-04T08:15:07.001Z</time></trkpt><trkpt lat="43.84444304873761" lon="10.55896223123928"><ele>16.666666666666668</ele><time>2026-05-04T08:15:08.001Z</time></trkpt><trkpt lat="43.84427082865834" lon="10.55892031882809"><ele>16.333333333333332</ele><time>2026-05-04T08:15:09.001Z</time></trkpt><trkpt lat="43.84411214339834" lon="10.558869898188057"><ele>16.0</ele><time>2026-05-04T08:15:10.001Z</time></trkpt><trkpt lat="43.8439604550833" lon="10.558812615507764"><ele>16.0</ele><time>2026-05-04T08:15:11.001Z</time></trkpt><trkpt lat="43.84381751567446" lon="10.558756825716781"><ele>16.0</ele><time>2026-05-04T08:15:12.001Z</time></trkpt><trkpt lat="43.843682935599055" lon="10.55870274659681"><ele>16.0</ele><time>2026-05-04T08:15:13.001Z</time></trkpt><trkpt lat="43.84355487218575" lon="10.55865277354003"><ele>16.0</ele><time>2026-05-04T08:15:14.001Z</time></trkpt><trkpt lat="43.8434338025765" lon="10.55860669385338"><ele>16.25</ele><time>2026-05-04T08:15:15.001Z</time></trkpt><trkpt lat="43.84331957127397" lon="10.558562026818576"><ele>16.5</ele><time>2026-05-04T08:15:16.001Z</time></trkpt><trkpt lat="43.84321254550896" lon="10.558520475318227"><ele>16.75</ele><time>2026-05-04T08:15:17.001Z</time></trkpt><trkpt lat="43.843108929727705" lon="10.558486829468828"><ele>17.0</ele><time>2026-05-04T08:15:18.001Z</time></trkpt><trkpt lat="43.842992101494225" lon="10.55843629660671"><ele>17.0</ele><time>2026-05-04T08:15:19.001Z</time></trkpt><trkpt lat="43.84286471051444" lon="10.558389307282944"><ele>17.0</ele><time>2026-05-04T08:15:20.001Z</time></trkpt><trkpt lat="43.84273035779358" lon="10.558336975379545"><ele>17.0</ele><time>2026-05-04T08:15:21.001Z</time></trkpt><trkpt lat="43.84260376251922" lon="10.558287697891895"><ele>17.0</ele><time>2026-05-04T08:15:22.001Z</time></trkpt><trkpt lat="43.84247746010957" lon="10.55825333383022"><ele>17.0</ele><time>2026-05-04T08:15:23.001Z</time></trkpt><trkpt lat="43.842353304854015" lon="10.55825566276454"><ele>17.0</ele><time>2026-05-04T08:15:24.001Z</time></trkpt><trkpt lat="43.84223669042955" lon="10.558292945166096"><ele>17.0</ele><time>2026-05-04T08:15:25.001Z</time></trkpt><trkpt lat="43.842126480090705" lon="10.558350429974665"><ele>17.0</ele><time>2026-05-04T08:15:26.001Z</time></trkpt><trkpt lat="43.842030915414554" lon="10.558421422619753"><ele>17.0</ele><time>2026-05-04T08:15:27.001Z</time></trkpt><trkpt lat="43.84194556830149" lon="10.558492076049733"><ele>17.0</ele><time>2026-05-04T08:15:28.001Z</time></trkpt><trkpt lat="43.84186948678207" lon="10.558540396828471"><ele>17.0</ele><time>2026-05-04T08:15:29.001Z</time></trkpt><trkpt lat="43.84179161458143" lon="10.558551177879353"><ele>17.0</ele><time>2026-05-04T08:15:30.001Z</time></trkpt><trkpt lat="43.84172106893504" lon="10.558520572074254"><ele>17.0</ele><time>2026-05-04T08:15:31.001Z</time></trkpt><trkpt lat="43.84165930462012" lon="10.55846398304748"><ele>17.0</ele><time>2026-05-04T08:15:32.001Z</time></trkpt><trkpt lat="43.841606235053" lon="10.558384148830172"><ele>16.666666666666668</ele><time>2026-05-04T08:15:33.001Z</time></trkpt><trkpt lat="43.84156672653547" lon="10.55828235288023"><ele>16.333333333333336</ele><time>2026-05-04T08:15:34.001Z</time></trkpt><trkpt lat="43.84153480036705" lon="10.558168440194589"><ele>16.0</ele><time>2026-05-04T08:15:35.001Z</time></trkpt><trkpt lat="43.841503297826854" lon="10.558058916828594"><ele>15.666666666666668</ele><time>2026-05-04T08:15:36.001Z</time></trkpt><trkpt lat="43.84146710119658" lon="10.557969168696184"><ele>15.333333333333334</ele><time>2026-05-04T08:15:37.001Z</time></trkpt><trkpt lat="43.84135842619677" lon="10.55791840132244"><ele>15.0</ele><time>2026-05-04T08:15:39.001Z</time></trkpt><trkpt lat="43.84124524303442" lon="10.55798301324754"><ele>15.0</ele><time>2026-05-04T08:15:41.001Z</time></trkpt><trkpt lat="43.84124143823245" lon="10.558089648261031"><ele>15.0</ele><time>2026-05-04T08:15:42.001Z</time></trkpt><trkpt lat="43.841228965935734" lon="10.55818397925262"><ele>15.0</ele><time>2026-05-04T08:15:43.001Z</time></trkpt><trkpt lat="43.84122112393414" lon="10.558292968728734"><ele>15.0</ele><time>2026-05-04T08:15:44.001Z</time></trkpt><trkpt lat="43.84121745439527" lon="10.558426929735967"><ele>15.0</ele><time>2026-05-04T08:15:45.001Z</time></trkpt><trkpt lat="43.84121118518508" lon="10.55856947996663"><ele>15.0</ele><time>2026-05-04T08:15:46.001Z</time></trkpt><trkpt lat="43.84120814660275" lon="10.55870209334817"><ele>14.8</ele><time>2026-05-04T08:15:47.001Z</time></trkpt><trkpt lat="43.84120398006997" lon="10.55884259673233"><ele>14.6</ele><time>2026-05-04T08:15:48.001Z</time></trkpt><trkpt lat="43.841192637870726" lon="10.558990882366517"><ele>14.399999999999999</ele><time>2026-05-04T08:15:49.001Z</time></trkpt><trkpt lat="43.841179719220996" lon="10.559140717774012"><ele>14.2</ele><time>2026-05-04T08:15:50.001Z</time></trkpt><trkpt lat="43.84117081539894" lon="10.559257321997409"><ele>14.0</ele><time>2026-05-04T08:15:51.001Z</time></trkpt><trkpt lat="43.84116296652545" lon="10.559402118423021"><ele>14.0</ele><time>2026-05-04T08:15:53.001Z</time></trkpt><trkpt lat="43.841162529441576" lon="10.559496174650304"><ele>13.999999999999998</ele><time>2026-05-04T08:15:55.001Z</time></trkpt><trkpt lat="43.84121437574399" lon="10.559670132142353"><ele>13.999999999999998</ele><time>2026-05-04T08:15:57.001Z</time></trkpt><trkpt lat="43.84125187518828" lon="10.559786330832763"><ele>14.0</ele><time>2026-05-04T08:15:58.001Z</time></trkpt><trkpt lat="43.84125471737723" lon="10.559931088192728"><ele>14.0</ele><time>2026-05-04T08:15:59.001Z</time></trkpt><trkpt lat="43.841290420954955" lon="10.560085785870497"><ele>14.0</ele><time>2026-05-04T08:16:00.001Z</time></trkpt><trkpt lat="43.84132508655359" lon="10.56025633400711"><ele>14.0</ele><time>2026-05-04T08:16:01.001Z</time></trkpt><trkpt lat="43.84135604622144" lon="10.560438599268887"><ele>14.0</ele><time>2026-05-04T08:16:02.001Z</time></trkpt><trkpt lat="43.84138974727906" lon="10.560628895000615"><ele>14.0</ele><time>2026-05-04T08:16:03.001Z</time></trkpt><trkpt lat="43.84142741655743" lon="10.56082860881745"><ele>14.0</ele><time>2026-05-04T08:16:04.001Z</time></trkpt><trkpt lat="43.84146604321315" lon="10.561038710184153"><ele>14.0</ele><time>2026-05-04T08:16:05.001Z</time></trkpt><trkpt lat="43.841504075858886" lon="10.561253846851974"><ele>14.0</ele><time>2026-05-04T08:16:06.001Z</time></trkpt><trkpt lat="43.84154342377757" lon="10.561479074140415"><ele>14.666666666666668</ele><time>2026-05-04T08:16:07.001Z</time></trkpt><trkpt lat="43.841583418998056" lon="10.561710959171565"><ele>15.333333333333332</ele><time>2026-05-04T08:16:08.001Z</time></trkpt><trkpt lat="43.841622761309324" lon="10.561947938033693"><ele>16.0</ele><time>2026-05-04T08:16:09.001Z</time></trkpt><trkpt lat="43.84166122269029" lon="10.562183507454378"><ele>16.333333333333332</ele><time>2026-05-04T08:16:10.001Z</time></trkpt><trkpt lat="43.841700559794496" lon="10.562425359630154"><ele>16.666666666666668</ele><time>2026-05-04T08:16:11.001Z</time></trkpt><trkpt lat="43.84174074010762" lon="10.562674581136989"><ele>17.0</ele><time>2026-05-04T08:16:12.001Z</time></trkpt><trkpt lat="43.841778765254666" lon="10.562922861571405"><ele>16.666666666666668</ele><time>2026-05-04T08:16:13.001Z</time></trkpt><trkpt lat="43.841820329874245" lon="10.563175338558489"><ele>16.333333333333332</ele><time>2026-05-04T08:16:14.001Z</time></trkpt><trkpt lat="43.841863371084884" lon="10.563427632244295"><ele>16.0</ele><time>2026-05-04T08:16:15.001Z</time></trkpt><trkpt lat="43.84190647933563" lon="10.56368265716399"><ele>15.666666666666666</ele><time>2026-05-04T08:16:16.001Z</time></trkpt><trkpt lat="43.84194956171398" lon="10.563939553875525"><ele>15.333333333333332</ele><time>2026-05-04T08:16:17.001Z</time></trkpt><trkpt lat="43.841990809919565" lon="10.564188369717623"><ele>15.0</ele><time>2026-05-04T08:16:18.001Z</time></trkpt><trkpt lat="43.842030161643606" lon="10.564397192383643"><ele>15.0</ele><time>2026-05-04T08:16:19.001Z</time></trkpt><trkpt lat="43.842062674337576" lon="10.564588362112564"><ele>15.0</ele><time>2026-05-04T08:16:20.001Z</time></trkpt><trkpt lat="43.84208949713105" lon="10.564747637976307"><ele>15.0</ele><time>2026-05-04T08:16:21.001Z</time></trkpt><trkpt lat="43.84211455775933" lon="10.56488776758121"><ele>15.0</ele><time>2026-05-04T08:16:22.001Z</time></trkpt><trkpt lat="43.8421364337015" lon="10.56503039741466"><ele>15.0</ele><time>2026-05-04T08:16:23.001Z</time></trkpt><trkpt lat="43.84215714271784" lon="10.565174582692665"><ele>15.0</ele><time>2026-05-04T08:16:24.002Z</time></trkpt><trkpt lat="43.84217954285303" lon="10.565314987930954"><ele>15.0</ele><time>2026-05-04T08:16:25.002Z</time></trkpt><trkpt lat="43.842204208491" lon="10.565455752066278"><ele>15.0</ele><time>2026-05-04T08:16:26.002Z</time></trkpt><trkpt lat="43.84222567797546" lon="10.565588072031645"><ele>15.0</ele><time>2026-05-04T08:16:27.002Z</time></trkpt><trkpt lat="43.84224400600672" lon="10.565714649325614"><ele>15.4</ele><time>2026-05-04T08:16:28.002Z</time></trkpt><trkpt lat="43.842263610393275" lon="10.56584359781331"><ele>15.8</ele><time>2026-05-04T08:16:29.002Z</time></trkpt><trkpt lat="43.84228849167075" lon="10.565975022437208"><ele>16.2</ele><time>2026-05-04T08:16:30.002Z</time></trkpt><trkpt lat="43.842312139018134" lon="10.566112036498032"><ele>16.6</ele><time>2026-05-04T08:16:31.002Z</time></trkpt><trkpt lat="43.842336497214504" lon="10.566241539967125"><ele>17.0</ele><time>2026-05-04T08:16:32.002Z</time></trkpt><trkpt lat="43.84235514871765" lon="10.56635136070764"><ele>17.0</ele><time>2026-05-04T08:16:33.002Z</time></trkpt><trkpt lat="43.84237795981495" lon="10.566475099894253"><ele>17.0</ele><time>2026-05-04T08:16:35.002Z</time></trkpt><trkpt lat="43.84239889070331" lon="10.566563869301664"><ele>17.0</ele><time>2026-05-04T08:16:37.002Z</time></trkpt><trkpt lat="43.84240182808622" lon="10.566672931703684"><ele>17.0</ele><time>2026-05-04T08:16:39.002Z</time></trkpt><trkpt lat="43.84241820814014" lon="10.566773165979798"><ele>17.0</ele><time>2026-05-04T08:16:41.002Z</time></trkpt><trkpt lat="43.842433695646996" lon="10.566867938499762"><ele>17.0</ele><time>2026-05-04T08:16:43.002Z</time></trkpt><trkpt lat="43.84245204291545" lon="10.56697763666242"><ele>16.833333333333336</ele><time>2026-05-04T08:16:46.002Z</time></trkpt><trkpt lat="43.84246634165051" lon="10.567062979354164"><ele>16.666666666666668</ele><time>2026-05-04T08:16:50.002Z</time></trkpt><trkpt lat="43.84247281950359" lon="10.567155748557388"><ele>16.5</ele><time>2026-05-04T08:16:52.002Z</time></trkpt><trkpt lat="43.84250769300348" lon="10.567308851307963"><ele>16.333333333333332</ele><time>2026-05-04T08:16:54.002Z</time></trkpt><trkpt lat="43.8425389415443" lon="10.56742174417438"><ele>16.166666666666664</ele><time>2026-05-04T08:16:55.002Z</time></trkpt><trkpt lat="43.84256102026115" lon="10.567544154059867"><ele>16.0</ele><time>2026-05-04T08:16:56.002Z</time></trkpt><trkpt lat="43.84258169245978" lon="10.567675804679705"><ele>16.0</ele><time>2026-05-04T08:16:57.001Z</time></trkpt><trkpt lat="43.84260012414201" lon="10.567809999044895"><ele>16.0</ele><time>2026-05-04T08:16:58.001Z</time></trkpt><trkpt lat="43.842621199226386" lon="10.567936717140247"><ele>16.0</ele><time>2026-05-04T08:16:59.001Z</time></trkpt><trkpt lat="43.84264794543701" lon="10.568068699909134"><ele>16.0</ele><time>2026-05-04T08:17:00.001Z</time></trkpt><trkpt lat="43.84265745629481" lon="10.5682214007663"><ele>16.0</ele><time>2026-05-04T08:17:01.001Z</time></trkpt><trkpt lat="43.84268652814541" lon="10.568397668559614"><ele>16.25</ele><time>2026-05-04T08:17:02.001Z</time></trkpt><trkpt lat="43.84273195141824" lon="10.568583124977906"><ele>16.5</ele><time>2026-05-04T08:17:03.001Z</time></trkpt><trkpt lat="43.84275933222123" lon="10.568781780963278"><ele>16.75</ele><time>2026-05-04T08:17:04.001Z</time></trkpt><trkpt lat="43.84278702737378" lon="10.56896228315111"><ele>17.0</ele><time>2026-05-04T08:17:05.001Z</time></trkpt><trkpt lat="43.842800877270314" lon="10.569137807467714"><ele>17.0</ele><time>2026-05-04T08:17:06.001Z</time></trkpt><trkpt lat="43.842775385360795" lon="10.569308903154797"><ele>17.0</ele><time>2026-05-04T08:17:07.001Z</time></trkpt><trkpt lat="43.842757668431425" lon="10.569498319575299"><ele>17.0</ele><time>2026-05-04T08:17:08.001Z</time></trkpt><trkpt lat="43.84270539378939" lon="10.56968839378772"><ele>17.0</ele><time>2026-05-04T08:17:09.001Z</time></trkpt><trkpt lat="43.84262252051872" lon="10.569858162192965"><ele>17.0</ele><time>2026-05-04T08:17:10.001Z</time></trkpt><trkpt lat="43.84255001001066" lon="10.570022015297946"><ele>17.0</ele><time>2026-05-04T08:17:11.001Z</time></trkpt><trkpt lat="43.84248201438811" lon="10.570175727129726"><ele>17.0</ele><time>2026-05-04T08:17:12.001Z</time></trkpt><trkpt lat="43.84241598878276" lon="10.570326675424678"><ele>17.0</ele><time>2026-05-04T08:17:13.001Z</time></trkpt><trkpt lat="43.842344341552256" lon="10.570483726017645"><ele>16.75</ele><time>2026-05-04T08:17:14.001Z</time></trkpt><trkpt lat="43.842261366484145" lon="10.570674473424447"><ele>16.5</ele><time>2026-05-04T08:17:15.001Z</time></trkpt><trkpt lat="43.84219007123518" lon="10.570862642899167"><ele>16.25</ele><time>2026-05-04T08:17:16.001Z</time></trkpt><trkpt lat="43.842153242608816" lon="10.571034172926138"><ele>16.0</ele><time>2026-05-04T08:17:17.001Z</time></trkpt><trkpt lat="43.842125745013966" lon="10.571203236690037"><ele>16.0</ele><time>2026-05-04T08:17:18.001Z</time></trkpt><trkpt lat="43.84212297799174" lon="10.571368820230186"><ele>16.0</ele><time>2026-05-04T08:17:19.001Z</time></trkpt><trkpt lat="43.842137327469466" lon="10.571526879784496"><ele>16.0</ele><time>2026-05-04T08:17:20.001Z</time></trkpt><trkpt lat="43.842162650447456" lon="10.57169611271474"><ele>16.0</ele><time>2026-05-04T08:17:21.001Z</time></trkpt><trkpt lat="43.84218843736642" lon="10.571909410036723"><ele>16.0</ele><time>2026-05-04T08:17:22.001Z</time></trkpt><trkpt lat="43.84219751524852" lon="10.57210420310561"><ele>16.0</ele><time>2026-05-04T08:17:23.001Z</time></trkpt><trkpt lat="43.84217511622605" lon="10.572270483950032"><ele>16.0</ele><time>2026-05-04T08:17:24.001Z</time></trkpt><trkpt lat="43.84216388797819" lon="10.572436724400303"><ele>16.0</ele><time>2026-05-04T08:17:25.001Z</time></trkpt><trkpt lat="43.84216267660404" lon="10.572610636362782"><ele>16.0</ele><time>2026-05-04T08:17:26.001Z</time></trkpt><trkpt lat="43.8421401284849" lon="10.572795523043112"><ele>16.0</ele><time>2026-05-04T08:17:27.001Z</time></trkpt><trkpt lat="43.84212494247694" lon="10.57297766444759"><ele>16.0</ele><time>2026-05-04T08:17:28.001Z</time></trkpt><trkpt lat="43.842108602371894" lon="10.573072613520164"><ele>16.0</ele><time>2026-05-04T08:17:29.001Z</time></trkpt><trkpt lat="43.84211322413609" lon="10.57316952341156"><ele>16.0</ele><time>2026-05-04T08:17:31.001Z</time></trkpt><trkpt lat="43.84210378072862" lon="10.57329235132189"><ele>15.999999999999998</ele><time>2026-05-04T08:17:34.001Z</time></trkpt><trkpt lat="43.84211516722417" lon="10.573387604722695"><ele>16.0</ele><time>2026-05-04T08:17:36.001Z</time></trkpt><trkpt lat="43.842082349760105" lon="10.57349998575356"><ele>16.0</ele><time>2026-05-04T08:17:39.001Z</time></trkpt><trkpt lat="43.84208234976023" lon="10.573601553791121"><ele>16.0</ele><time>2026-05-04T08:17:40.001Z</time></trkpt><trkpt lat="43.84208256664417" lon="10.573721534307206"><ele>15.999999999999998</ele><time>2026-05-04T08:17:41.001Z</time></trkpt><trkpt lat="43.84208303282407" lon="10.5738534634055"><ele>16.0</ele><time>2026-05-04T08:17:42.001Z</time></trkpt><trkpt lat="43.84208270531891" lon="10.573989756242346"><ele>15.999999999999998</ele><time>2026-05-04T08:17:43.001Z</time></trkpt><trkpt lat="43.84208089174217" lon="10.574121672796279"><ele>16.0</ele><time>2026-05-04T08:17:44.001Z</time></trkpt><trkpt lat="43.84207650288157" lon="10.57424472239091"><ele>16.0</ele><time>2026-05-04T08:17:45.001Z</time></trkpt><trkpt lat="43.84207284046857" lon="10.574366070930148"><ele>16.0</ele><time>2026-05-04T08:17:46.001Z</time></trkpt><trkpt lat="43.84206703078792" lon="10.574482727227785"><ele>15.999999999999998</ele><time>2026-05-04T08:17:47.001Z</time></trkpt><trkpt lat="43.84205855812381" lon="10.574609694544366"><ele>16.0</ele><time>2026-05-04T08:17:48.001Z</time></trkpt><trkpt lat="43.842049774086625" lon="10.574742904351451"><ele>16.0</ele><time>2026-05-04T08:17:49.001Z</time></trkpt><trkpt lat="43.842049728902666" lon="10.574886347742371"><ele>16.0</ele><time>2026-05-04T08:17:50.001Z</time></trkpt><trkpt lat="43.84205817591805" lon="10.575031690766881"><ele>16.0</ele><time>2026-05-04T08:17:51.001Z</time></trkpt><trkpt lat="43.842082924201215" lon="10.57517512089661"><ele>16.0</ele><time>2026-05-04T08:17:52.001Z</time></trkpt><trkpt lat="43.842124959686345" lon="10.57531899027091"><ele>16.0</ele><time>2026-05-04T08:17:53.001Z</time></trkpt><trkpt lat="43.84218170559246" lon="10.575454330976232"><ele>15.75</ele><time>2026-05-04T08:17:54.001Z</time></trkpt><trkpt lat="43.842201698362324" lon="10.575617696294572"><ele>15.5</ele><time>2026-05-04T08:17:55.001Z</time></trkpt><trkpt lat="43.842183033982685" lon="10.575795868143212"><ele>15.25</ele><time>2026-05-04T08:17:56.001Z</time></trkpt><trkpt lat="43.84215225336666" lon="10.57597915216224"><ele>15.0</ele><time>2026-05-04T08:17:57.001Z</time></trkpt><trkpt lat="43.842120769615335" lon="10.576149463474794"><ele>15.0</ele><time>2026-05-04T08:17:58.001Z</time></trkpt><trkpt lat="43.84209144254949" lon="10.576306859520312"><ele>15.0</ele><time>2026-05-04T08:17:59.001Z</time></trkpt><trkpt lat="43.84206275059807" lon="10.576461289588314"><ele>15.0</ele><time>2026-05-04T08:18:00.001Z</time></trkpt><trkpt lat="43.84203000027709" lon="10.576637563835883"><ele>15.0</ele><time>2026-05-04T08:18:01.001Z</time></trkpt><trkpt lat="43.84199336035282" lon="10.576826678820586"><ele>15.0</ele><time>2026-05-04T08:18:02.001Z</time></trkpt><trkpt lat="43.841950350691384" lon="10.57702680582596"><ele>15.0</ele><time>2026-05-04T08:18:03.001Z</time></trkpt><trkpt lat="43.84191333234681" lon="10.577240200789522"><ele>15.0</ele><time>2026-05-04T08:18:04.001Z</time></trkpt><trkpt lat="43.841859688620424" lon="10.577452885534832"><ele>15.0</ele><time>2026-05-04T08:18:05.001Z</time></trkpt><trkpt lat="43.841809167970794" lon="10.577676516778197"><ele>15.0</ele><time>2026-05-04T08:18:06.001Z</time></trkpt><trkpt lat="43.84176356539734" lon="10.57790964351113"><ele>15.0</ele><time>2026-05-04T08:18:07.001Z</time></trkpt><trkpt lat="43.84172712078433" lon="10.578153883226785"><ele>14.666666666666668</ele><time>2026-05-04T08:18:08.001Z</time></trkpt><trkpt lat="43.8416960777241" lon="10.578399598550162"><ele>14.333333333333334</ele><time>2026-05-04T08:18:09.001Z</time></trkpt><trkpt lat="43.84167722647297" lon="10.578662849209442"><ele>14.0</ele><time>2026-05-04T08:18:10.001Z</time></trkpt><trkpt lat="43.841650623864055" lon="10.578900420333696"><ele>14.0</ele><time>2026-05-04T08:18:11.001Z</time></trkpt><trkpt lat="43.841627425284884" lon="10.579135075502105"><ele>14.0</ele><time>2026-05-04T08:18:12.001Z</time></trkpt><trkpt lat="43.84161157053843" lon="10.57937681762"><ele>14.0</ele><time>2026-05-04T08:18:13.001Z</time></trkpt><trkpt lat="43.841594663947895" lon="10.579607226964246"><ele>14.0</ele><time>2026-05-04T08:18:14.001Z</time></trkpt><trkpt lat="43.84158207835223" lon="10.579839515595802"><ele>14.0</ele><time>2026-05-04T08:18:15.001Z</time></trkpt><trkpt lat="43.84157499501956" lon="10.580067364989313"><ele>14.0</ele><time>2026-05-04T08:18:16.001Z</time></trkpt><trkpt lat="43.84157760776597" lon="10.580274696703599"><ele>13.75</ele><time>2026-05-04T08:18:17.001Z</time></trkpt><trkpt lat="43.84157732627308" lon="10.580471888876385"><ele>13.5</ele><time>2026-05-04T08:18:18.001Z</time></trkpt><trkpt lat="43.84155455416102" lon="10.580630336156931"><ele>13.25</ele><time>2026-05-04T08:18:19.001Z</time></trkpt><trkpt lat="43.84154327445361" lon="10.580779066279865"><ele>13.0</ele><time>2026-05-04T08:18:20.001Z</time></trkpt><trkpt lat="43.841521335172274" lon="10.580926578316381"><ele>13.0</ele><time>2026-05-04T08:18:21.001Z</time></trkpt><trkpt lat="43.84150178517098" lon="10.581079393102879"><ele>13.0</ele><time>2026-05-04T08:18:22.001Z</time></trkpt><trkpt lat="43.84146319970072" lon="10.581230872187055"><ele>13.0</ele><time>2026-05-04T08:18:23.001Z</time></trkpt><trkpt lat="43.841436648688145" lon="10.581382181115288"><ele>13.0</ele><time>2026-05-04T08:18:24.001Z</time></trkpt><trkpt lat="43.8413958620794" lon="10.58154023437138"><ele>13.0</ele><time>2026-05-04T08:18:25.001Z</time></trkpt><trkpt lat="43.841377663284376" lon="10.58172180025175"><ele>13.0</ele><time>2026-05-04T08:18:26.001Z</time></trkpt><trkpt lat="43.84136649505717" lon="10.581923367969647"><ele>13.0</ele><time>2026-05-04T08:18:27.001Z</time></trkpt><trkpt lat="43.841355280811435" lon="10.582134722084211"><ele>13.0</ele><time>2026-05-04T08:18:28.001Z</time></trkpt><trkpt lat="43.841340695803424" lon="10.582356509580604"><ele>13.0</ele><time>2026-05-04T08:18:29.001Z</time></trkpt><trkpt lat="43.84132497652502" lon="10.582595546515776"><ele>13.0</ele><time>2026-05-04T08:18:30.001Z</time></trkpt><trkpt lat="43.84131045143559" lon="10.582836434709533"><ele>13.0</ele><time>2026-05-04T08:18:31.001Z</time></trkpt><trkpt lat="43.841297994420856" lon="10.583077244673595"><ele>13.0</ele><time>2026-05-04T08:18:32.001Z</time></trkpt><trkpt lat="43.841287345991695" lon="10.583326081595693"><ele>13.0</ele><time>2026-05-04T08:18:33.001Z</time></trkpt><trkpt lat="43.8412960422813" lon="10.583596354720243"><ele>13.0</ele><time>2026-05-04T08:18:34.001Z</time></trkpt><trkpt lat="43.8412799616339" lon="10.583850269628172"><ele>13.0</ele><time>2026-05-04T08:18:35.001Z</time></trkpt><trkpt lat="43.84125790082482" lon="10.584121859526839"><ele>13.0</ele><time>2026-05-04T08:18:36.001Z</time></trkpt><trkpt lat="43.84122948879953" lon="10.584365837934131"><ele>13.0</ele><time>2026-05-04T08:18:37.001Z</time></trkpt><trkpt lat="43.841176111964565" lon="10.584618086382182"><ele>12.333333333333332</ele><time>2026-05-04T08:18:38.002Z</time></trkpt><trkpt lat="43.84115265863179" lon="10.584857868156286"><ele>11.666666666666666</ele><time>2026-05-04T08:18:39.002Z</time></trkpt><trkpt lat="43.841093212208065" lon="10.585107330073992"><ele>11.0</ele><time>2026-05-04T08:18:40.002Z</time></trkpt><trkpt lat="43.84105343751186" lon="10.585338214902922"><ele>11.333333333333332</ele><time>2026-05-04T08:18:41.002Z</time></trkpt><trkpt lat="43.841016785432934" lon="10.585595393704212"><ele>11.666666666666666</ele><time>2026-05-04T08:18:42.002Z</time></trkpt><trkpt lat="43.84100161750775" lon="10.585848385104347"><ele>12.0</ele><time>2026-05-04T08:18:43.002Z</time></trkpt><trkpt lat="43.840983318644504" lon="10.586105119300125"><ele>11.666666666666666</ele><time>2026-05-04T08:18:44.002Z</time></trkpt><trkpt lat="43.8409764106676" lon="10.586370036436737"><ele>11.333333333333332</ele><time>2026-05-04T08:18:45.002Z</time></trkpt><trkpt lat="43.84097661305292" lon="10.586634407014415"><ele>11.0</ele><time>2026-05-04T08:18:46.002Z</time></trkpt><trkpt lat="43.84097595693157" lon="10.586904423819467"><ele>11.333333333333332</ele><time>2026-05-04T08:18:47.002Z</time></trkpt><trkpt lat="43.840983043510356" lon="10.587175065456039"><ele>11.666666666666666</ele><time>2026-05-04T08:18:48.002Z</time></trkpt><trkpt lat="43.840971820152355" lon="10.587442060414656"><ele>12.0</ele><time>2026-05-04T08:18:49.002Z</time></trkpt><trkpt lat="43.84099323746043" lon="10.587692896602448"><ele>11.666666666666666</ele><time>2026-05-04T08:18:50.002Z</time></trkpt><trkpt lat="43.84099498899849" lon="10.587934444488663"><ele>11.333333333333332</ele><time>2026-05-04T08:18:51.002Z</time></trkpt><trkpt lat="43.84100041244023" lon="10.588165668743487"><ele>11.0</ele><time>2026-05-04T08:18:52.002Z</time></trkpt><trkpt lat="43.841005232151" lon="10.58836751803248"><ele>11.0</ele><time>2026-05-04T08:18:53.002Z</time></trkpt><trkpt lat="43.841006696933306" lon="10.588545888472414"><ele>11.0</ele><time>2026-05-04T08:18:54.002Z</time></trkpt><trkpt lat="43.84100415303483" lon="10.588702372633072"><ele>11.0</ele><time>2026-05-04T08:18:55.002Z</time></trkpt><trkpt lat="43.84098244232955" lon="10.588819408666579"><ele>11.0</ele><time>2026-05-04T08:18:56.002Z</time></trkpt><trkpt lat="43.84094151717987" lon="10.588913984203687"><ele>11.0</ele><time>2026-05-04T08:18:57.002Z</time></trkpt><trkpt lat="43.840847972581095" lon="10.588968148399372"><ele>11.0</ele><time>2026-05-04T08:18:59.002Z</time></trkpt><trkpt lat="43.84078106041728" lon="10.589008073288532"><ele>11.0</ele><time>2026-05-04T08:19:04Z</time></trkpt><trkpt lat="43.840727183829586" lon="10.589201186349586"><ele>11.0</ele><time>2026-05-04T08:19:07Z</time></trkpt><trkpt lat="43.84075942237451" lon="10.589302372538333"><ele>11.0</ele><time>2026-05-04T08:19:08Z</time></trkpt><trkpt lat="43.84079284011756" lon="10.589411013793235"><ele>11.0</ele><time>2026-05-04T08:19:09Z</time></trkpt><trkpt lat="43.840822119899194" lon="10.589536435445803"><ele>11.25</ele><time>2026-05-04T08:19:10Z</time></trkpt><trkpt lat="43.84084956025769" lon="10.589679526025101"><ele>11.5</ele><time>2026-05-04T08:19:11Z</time></trkpt><trkpt lat="43.84088187591292" lon="10.589838143689619"><ele>11.75</ele><time>2026-05-04T08:19:12Z</time></trkpt><trkpt lat="43.84091369575786" lon="10.590017027245247"><ele>12.0</ele><time>2026-05-04T08:19:13Z</time></trkpt><trkpt lat="43.84094459661089" lon="10.590213349025614"><ele>11.75</ele><time>2026-05-04T08:19:14Z</time></trkpt><trkpt lat="43.840967999938144" lon="10.590410870040241"><ele>11.5</ele><time>2026-05-04T08:19:15Z</time></trkpt><trkpt lat="43.84098355111105" lon="10.590607010365147"><ele>11.25</ele><time>2026-05-04T08:19:16Z</time></trkpt><trkpt lat="43.840993973658875" lon="10.590803547138139"><ele>11.0</ele><time>2026-05-04T08:19:17Z</time></trkpt><trkpt lat="43.84100177977313" lon="10.59099977864306"><ele>10.75</ele><time>2026-05-04T08:19:18Z</time></trkpt><trkpt lat="43.841008887955105" lon="10.59119391982241"><ele>10.5</ele><time>2026-05-04T08:19:19Z</time></trkpt><trkpt lat="43.84101558852469" lon="10.59138579516325"><ele>10.25</ele><time>2026-05-04T08:19:20Z</time></trkpt><trkpt lat="43.84102051187262" lon="10.59157960875337"><ele>10.0</ele><time>2026-05-04T08:19:21Z</time></trkpt><trkpt lat="43.84102425944012" lon="10.591777698615674"><ele>10.0</ele><time>2026-05-04T08:19:22Z</time></trkpt><trkpt lat="43.84102909775432" lon="10.591971984765467"><ele>10.0</ele><time>2026-05-04T08:19:23Z</time></trkpt><trkpt lat="43.841035541236195" lon="10.592161357284594"><ele>10.0</ele><time>2026-05-04T08:19:24Z</time></trkpt><trkpt lat="43.841043453979104" lon="10.592354374594493"><ele>10.0</ele><time>2026-05-04T08:19:25Z</time></trkpt><trkpt lat="43.84105301505509" lon="10.592549340290336"><ele>10.0</ele><time>2026-05-04T08:19:26Z</time></trkpt><trkpt lat="43.84106418645436" lon="10.592740743955904"><ele>10.0</ele><time>2026-05-04T08:19:27Z</time></trkpt><trkpt lat="43.84107443346841" lon="10.592930914675135"><ele>10.0</ele><time>2026-05-04T08:19:28Z</time></trkpt><trkpt lat="43.84108306974316" lon="10.593133620828182"><ele>10.0</ele><time>2026-05-04T08:19:29Z</time></trkpt><trkpt lat="43.841076809514" lon="10.593338833020006"><ele>10.0</ele><time>2026-05-04T08:19:30Z</time></trkpt><trkpt lat="43.841083479606745" lon="10.593545350198868"><ele>10.0</ele><time>2026-05-04T08:19:31Z</time></trkpt><trkpt lat="43.84109004414848" lon="10.593748599350148"><ele>10.0</ele><time>2026-05-04T08:19:32.001Z</time></trkpt><trkpt lat="43.84109608608309" lon="10.593935667699677"><ele>10.0</ele><time>2026-05-04T08:19:33.001Z</time></trkpt><trkpt lat="43.841101945238535" lon="10.594117076934632"><ele>10.2</ele><time>2026-05-04T08:19:34.001Z</time></trkpt><trkpt lat="43.84112342242886" lon="10.59427866805346"><ele>10.4</ele><time>2026-05-04T08:19:35.001Z</time></trkpt><trkpt lat="43.84112653217928" lon="10.594431991879825"><ele>10.600000000000001</ele><time>2026-05-04T08:19:36.001Z</time></trkpt><trkpt lat="43.841129578358135" lon="10.59456906134769"><ele>10.8</ele><time>2026-05-04T08:19:37.001Z</time></trkpt><trkpt lat="43.841130257254015" lon="10.594695097736672"><ele>11.0</ele><time>2026-05-04T08:19:38.001Z</time></trkpt><trkpt lat="43.841119865271125" lon="10.594806527900163"><ele>11.0</ele><time>2026-05-04T08:19:39.001Z</time></trkpt><trkpt lat="43.84109680923262" lon="10.59490648338598"><ele>11.0</ele><time>2026-05-04T08:19:40.001Z</time></trkpt><trkpt lat="43.841069631025476" lon="10.594999148625591"><ele>11.0</ele><time>2026-05-04T08:19:41.001Z</time></trkpt><trkpt lat="43.8410417136181" lon="10.595085972828626"><ele>11.0</ele><time>2026-05-04T08:19:42.001Z</time></trkpt><trkpt lat="43.8410207859132" lon="10.595209394704959"><ele>11.0</ele><time>2026-05-04T08:19:44.001Z</time></trkpt><trkpt lat="43.8409933668041" lon="10.595346491930417"><ele>11.0</ele><time>2026-05-04T08:19:46.001Z</time></trkpt><trkpt lat="43.841039909810426" lon="10.59544004471261"><ele>11.0</ele><time>2026-05-04T08:19:47.001Z</time></trkpt><trkpt lat="43.84110664417381" lon="10.595524963733787"><ele>11.0</ele><time>2026-05-04T08:19:48.001Z</time></trkpt><trkpt lat="43.841141818886435" lon="10.595626924982787"><ele>11.0</ele><time>2026-05-04T08:19:49.001Z</time></trkpt><trkpt lat="43.84115981067507" lon="10.595720062946363"><ele>11.0</ele><time>2026-05-04T08:19:50.001Z</time></trkpt><trkpt lat="43.841153143692765" lon="10.595877949490397"><ele>11.0</ele><time>2026-05-04T08:19:52.001Z</time></trkpt><trkpt lat="43.841156060923495" lon="10.595977811421568"><ele>11.0</ele><time>2026-05-04T08:19:53.001Z</time></trkpt><trkpt lat="43.84115984898228" lon="10.596104019907692"><ele>11.4</ele><time>2026-05-04T08:19:54.001Z</time></trkpt><trkpt lat="43.841164324333114" lon="10.596253127259182"><ele>11.8</ele><time>2026-05-04T08:19:55.001Z</time></trkpt><trkpt lat="43.84116894356183" lon="10.59639704236242"><ele>12.200000000000001</ele><time>2026-05-04T08:19:56.001Z</time></trkpt><trkpt lat="43.84117400997907" lon="10.596548279933566"><ele>12.600000000000001</ele><time>2026-05-04T08:19:57.001Z</time></trkpt><trkpt lat="43.841179117690544" lon="10.596706460228205"><ele>13.0</ele><time>2026-05-04T08:19:58.001Z</time></trkpt><trkpt lat="43.841184545560274" lon="10.596871292783058"><ele>12.8</ele><time>2026-05-04T08:19:59.001Z</time></trkpt><trkpt lat="43.8411894926088" lon="10.597025096644023"><ele>12.600000000000001</ele><time>2026-05-04T08:20:00.001Z</time></trkpt><trkpt lat="43.841194145625856" lon="10.597175027191055"><ele>12.399999999999999</ele><time>2026-05-04T08:20:01.001Z</time></trkpt><trkpt lat="43.841198670515276" lon="10.597320829201879"><ele>12.2</ele><time>2026-05-04T08:20:02.001Z</time></trkpt><trkpt lat="43.841203088418716" lon="10.597463183863514"><ele>12.0</ele><time>2026-05-04T08:20:03.001Z</time></trkpt><trkpt lat="43.841207342611156" lon="10.597600263413902"><ele>12.0</ele><time>2026-05-04T08:20:04.001Z</time></trkpt><trkpt lat="43.84121096672117" lon="10.59771704027947"><ele>12.0</ele><time>2026-05-04T08:20:05.001Z</time></trkpt><trkpt lat="43.841214678361254" lon="10.597836637349468"><ele>12.0</ele><time>2026-05-04T08:20:06.001Z</time></trkpt><trkpt lat="43.841245394474136" lon="10.597968070402379"><ele>12.0</ele><time>2026-05-04T08:20:07.001Z</time></trkpt><trkpt lat="43.841255252573404" lon="10.598112719819905"><ele>12.0</ele><time>2026-05-04T08:20:08.001Z</time></trkpt><trkpt lat="43.841264938316144" lon="10.598264300603995"><ele>12.2</ele><time>2026-05-04T08:20:09.001Z</time></trkpt><trkpt lat="43.84127350339011" lon="10.598401749490789"><ele>12.399999999999999</ele><time>2026-05-04T08:20:10.001Z</time></trkpt><trkpt lat="43.841236981697904" lon="10.598522541966496"><ele>12.600000000000001</ele><time>2026-05-04T08:20:11.001Z</time></trkpt><trkpt lat="43.84123977424227" lon="10.598620619114254"><ele>12.8</ele><time>2026-05-04T08:20:12.001Z</time></trkpt><trkpt lat="43.84124391848044" lon="10.598765535880034"><ele>13.0</ele><time>2026-05-04T08:20:14.001Z</time></trkpt><trkpt lat="43.8412477138544" lon="10.598898253450091"><ele>13.2</ele><time>2026-05-04T08:20:16.001Z</time></trkpt><trkpt lat="43.841252123310845" lon="10.599052444488093"><ele>13.4</ele><time>2026-05-04T08:20:18.001Z</time></trkpt><trkpt lat="43.84125697281603" lon="10.599222023181008"><ele>13.599999999999998</ele><time>2026-05-04T08:20:20.001Z</time></trkpt><trkpt lat="43.84125950737867" lon="10.599310652417552"><ele>13.799999999999999</ele><time>2026-05-04T08:20:21.001Z</time></trkpt><trkpt lat="43.841264325572155" lon="10.599479135694832"><ele>14.0</ele><time>2026-05-04T08:20:23.001Z</time></trkpt><trkpt lat="43.84126693608003" lon="10.599566603227187"><ele>13.666666666666668</ele><time>2026-05-04T08:20:24.001Z</time></trkpt><trkpt lat="43.84126957650074" lon="10.599656865423505"><ele>13.333333333333334</ele><time>2026-05-04T08:20:25.001Z</time></trkpt><trkpt lat="43.84128531902937" lon="10.599761997312648"><ele>13.0</ele><time>2026-05-04T08:20:26.001Z</time></trkpt><trkpt lat="43.841286440001" lon="10.599880164119284"><ele>12.666666666666668</ele><time>2026-05-04T08:20:27.001Z</time></trkpt><trkpt lat="43.84129026028853" lon="10.600007630045505"><ele>12.333333333333334</ele><time>2026-05-04T08:20:28.001Z</time></trkpt><trkpt lat="43.841293794792406" lon="10.6001351946603"><ele>12.0</ele><time>2026-05-04T08:20:29.001Z</time></trkpt><trkpt lat="43.841299007409255" lon="10.600262163182306"><ele>11.666666666666666</ele><time>2026-05-04T08:20:30.001Z</time></trkpt><trkpt lat="43.841304528925036" lon="10.600387502455673"><ele>11.333333333333334</ele><time>2026-05-04T08:20:31.001Z</time></trkpt><trkpt lat="43.84130866668788" lon="10.600512753138688"><ele>11.0</ele><time>2026-05-04T08:20:32.001Z</time></trkpt><trkpt lat="43.84131063463069" lon="10.600625906298195"><ele>10.666666666666668</ele><time>2026-05-04T08:20:33.001Z</time></trkpt><trkpt lat="43.841314628643524" lon="10.600725445230232"><ele>10.333333333333334</ele><time>2026-05-04T08:20:34.001Z</time></trkpt><trkpt lat="43.84131703953325" lon="10.600819309531182"><ele>10.0</ele><time>2026-05-04T08:20:35.001Z</time></trkpt><trkpt lat="43.841318391033724" lon="10.600908979932305"><ele>10.0</ele><time>2026-05-04T08:20:36.001Z</time></trkpt><trkpt lat="43.84131865798494" lon="10.601004322014008"><ele>10.0</ele><time>2026-05-04T08:20:37.001Z</time></trkpt><trkpt lat="43.84131871258065" lon="10.601105275254847"><ele>10.0</ele><time>2026-05-04T08:20:38.001Z</time></trkpt><trkpt lat="43.8413192476103" lon="10.601207255481967"><ele>10.0</ele><time>2026-05-04T08:20:39.001Z</time></trkpt><trkpt lat="43.84132166471181" lon="10.60130508179669"><ele>10.0</ele><time>2026-05-04T08:20:40.001Z</time></trkpt><trkpt lat="43.84132275868254" lon="10.601412079564724"><ele>10.0</ele><time>2026-05-04T08:20:41.001Z</time></trkpt><trkpt lat="43.84132051539065" lon="10.601536052186741"><ele>10.5</ele><time>2026-05-04T08:20:42.001Z</time></trkpt><trkpt lat="43.84131855411151" lon="10.601677893879167"><ele>11.0</ele><time>2026-05-04T08:20:43.001Z</time></trkpt><trkpt lat="43.84132023245122" lon="10.60183457352018"><ele>11.5</ele><time>2026-05-04T08:20:44.001Z</time></trkpt><trkpt lat="43.84132589072265" lon="10.60199893965921"><ele>12.0</ele><time>2026-05-04T08:20:45.001Z</time></trkpt><trkpt lat="43.841333139514965" lon="10.602162353835919"><ele>12.0</ele><time>2026-05-04T08:20:46.001Z</time></trkpt><trkpt lat="43.84134082518238" lon="10.602319409866682"><ele>12.0</ele><time>2026-05-04T08:20:47.001Z</time></trkpt><trkpt lat="43.84134676355283" lon="10.602463688888093"><ele>12.0</ele><time>2026-05-04T08:20:48.001Z</time></trkpt><trkpt lat="43.84135136098048" lon="10.602592851401285"><ele>12.0</ele><time>2026-05-04T08:20:49.001Z</time></trkpt><trkpt lat="43.84135502554655" lon="10.602709875023615"><ele>12.0</ele><time>2026-05-04T08:20:50.001Z</time></trkpt><trkpt lat="43.84135755296179" lon="10.602819171381036"><ele>12.399999999999999</ele><time>2026-05-04T08:20:51.001Z</time></trkpt><trkpt lat="43.84135955640646" lon="10.602911568924137"><ele>12.799999999999999</ele><time>2026-05-04T08:20:52.001Z</time></trkpt><trkpt lat="43.841357512688035" lon="10.603074437464832"><ele>13.2</ele><time>2026-05-04T08:20:54.001Z</time></trkpt><trkpt lat="43.841327962317976" lon="10.60326580717229"><ele>13.6</ele><time>2026-05-04T08:20:56.001Z</time></trkpt><trkpt lat="43.8412691369326" lon="10.603357586100788"><ele>14.0</ele><time>2026-05-04T08:20:57.002Z</time></trkpt><trkpt lat="43.84121565837668" lon="10.603475256450569"><ele>14.0</ele><time>2026-05-04T08:20:58.002Z</time></trkpt><trkpt lat="43.84115649997695" lon="10.603609643351684"><ele>14.0</ele><time>2026-05-04T08:20:59.002Z</time></trkpt><trkpt lat="43.84109612792225" lon="10.603764114896743"><ele>14.0</ele><time>2026-05-04T08:21:00.002Z</time></trkpt><trkpt lat="43.84103911882395" lon="10.603932592234237"><ele>14.0</ele><time>2026-05-04T08:21:01.002Z</time></trkpt><trkpt lat="43.84097110692715" lon="10.604100922319109"><ele>13.666666666666668</ele><time>2026-05-04T08:21:02.002Z</time></trkpt><trkpt lat="43.84088348628197" lon="10.604281294278223"><ele>13.333333333333332</ele><time>2026-05-04T08:21:03.002Z</time></trkpt><trkpt lat="43.84081540096348" lon="10.604459822391052"><ele>13.0</ele><time>2026-05-04T08:21:04.002Z</time></trkpt><trkpt lat="43.84066947430396" lon="10.604585526310533"><ele>13.0</ele><time>2026-05-04T08:21:05.002Z</time></trkpt><trkpt lat="43.8405510905938" lon="10.604738239082717"><ele>13.0</ele><time>2026-05-04T08:21:06.002Z</time></trkpt><trkpt lat="43.84043652641512" lon="10.604902210615712"><ele>13.0</ele><time>2026-05-04T08:21:07.002Z</time></trkpt><trkpt lat="43.840321130975646" lon="10.605072779361157"><ele>13.0</ele><time>2026-05-04T08:21:08.002Z</time></trkpt><trkpt lat="43.84019781557068" lon="10.60524746308233"><ele>13.0</ele><time>2026-05-04T08:21:09.001Z</time></trkpt><trkpt lat="43.840067659531684" lon="10.605425237415332"><ele>13.0</ele><time>2026-05-04T08:21:10.001Z</time></trkpt><trkpt lat="43.83993225401592" lon="10.60560627618378"><ele>12.666666666666666</ele><time>2026-05-04T08:21:11.001Z</time></trkpt><trkpt lat="43.8397965702343" lon="10.605790116173564"><ele>12.333333333333332</ele><time>2026-05-04T08:21:12.001Z</time></trkpt><trkpt lat="43.839661093834955" lon="10.605981028211868"><ele>12.0</ele><time>2026-05-04T08:21:13.001Z</time></trkpt><trkpt lat="43.83951929072968" lon="10.60617313676538"><ele>12.0</ele><time>2026-05-04T08:21:14.001Z</time></trkpt><trkpt lat="43.839372250384294" lon="10.60636432224035"><ele>12.0</ele><time>2026-05-04T08:21:15.001Z</time></trkpt><trkpt lat="43.839211431253005" lon="10.606540222682847"><ele>12.0</ele><time>2026-05-04T08:21:16.001Z</time></trkpt><trkpt lat="43.83906812440742" lon="10.606757961429148"><ele>11.666666666666666</ele><time>2026-05-04T08:21:17.001Z</time></trkpt><trkpt lat="43.83891475448466" lon="10.606959633907818"><ele>11.333333333333332</ele><time>2026-05-04T08:21:18.001Z</time></trkpt><trkpt lat="43.83875783321334" lon="10.607162628008247"><ele>11.0</ele><time>2026-05-04T08:21:19.001Z</time></trkpt><trkpt lat="43.838604648385015" lon="10.607364750892431"><ele>11.333333333333332</ele><time>2026-05-04T08:21:20.001Z</time></trkpt><trkpt lat="43.838440366338084" lon="10.607557450973118"><ele>11.666666666666666</ele><time>2026-05-04T08:21:21Z</time></trkpt><trkpt lat="43.838290172835606" lon="10.607761719716246"><ele>12.0</ele><time>2026-05-04T08:21:22Z</time></trkpt><trkpt lat="43.8381441645544" lon="10.60796472370798"><ele>12.0</ele><time>2026-05-04T08:21:23Z</time></trkpt><trkpt lat="43.838012229803795" lon="10.608176625128916"><ele>12.0</ele><time>2026-05-04T08:21:24Z</time></trkpt><trkpt lat="43.83789028764246" lon="10.608341931828464"><ele>12.0</ele><time>2026-05-04T08:21:25Z</time></trkpt><trkpt lat="43.83778112401084" lon="10.60848063063704"><ele>12.0</ele><time>2026-05-04T08:21:26Z</time></trkpt><trkpt lat="43.83768170890884" lon="10.608611667692916"><ele>12.0</ele><time>2026-05-04T08:21:27Z</time></trkpt><trkpt lat="43.83758277354739" lon="10.60875289623218"><ele>12.0</ele><time>2026-05-04T08:21:28Z</time></trkpt><trkpt lat="43.83747477921934" lon="10.608908036991863"><ele>12.0</ele><time>2026-05-04T08:21:29Z</time></trkpt><trkpt lat="43.8373370143715" lon="10.609048941061127"><ele>12.0</ele><time>2026-05-04T08:21:30.001Z</time></trkpt><trkpt lat="43.83722355563003" lon="10.60924503548265"><ele>12.0</ele><time>2026-05-04T08:21:31.001Z</time></trkpt><trkpt lat="43.83708889465405" lon="10.609421121337805"><ele>12.0</ele><time>2026-05-04T08:21:32.001Z</time></trkpt><trkpt lat="43.83694964454667" lon="10.609606568365452"><ele>12.0</ele><time>2026-05-04T08:21:33.001Z</time></trkpt><trkpt lat="43.836808406351835" lon="10.609799402392595"><ele>12.0</ele><time>2026-05-04T08:21:34.001Z</time></trkpt><trkpt lat="43.83664678638504" lon="10.609976005995282"><ele>12.0</ele><time>2026-05-04T08:21:35.001Z</time></trkpt><trkpt lat="43.836494541970765" lon="10.61017977970322"><ele>12.0</ele><time>2026-05-04T08:21:36.001Z</time></trkpt><trkpt lat="43.836340792504494" lon="10.610386285080319"><ele>12.0</ele><time>2026-05-04T08:21:37.001Z</time></trkpt><trkpt lat="43.8361859215089" lon="10.610594437388917"><ele>12.0</ele><time>2026-05-04T08:21:38.001Z</time></trkpt><trkpt lat="43.83603749142183" lon="10.61081765944019"><ele>12.0</ele><time>2026-05-04T08:21:39.001Z</time></trkpt><trkpt lat="43.835884445659886" lon="10.611032631376604"><ele>12.0</ele><time>2026-05-04T08:21:40.001Z</time></trkpt><trkpt lat="43.83573296297482" lon="10.611274545987348"><ele>12.0</ele><time>2026-05-04T08:21:41.001Z</time></trkpt><trkpt lat="43.83560360934102" lon="10.611525376019827"><ele>11.5</ele><time>2026-05-04T08:21:42.001Z</time></trkpt><trkpt lat="43.835476545562365" lon="10.611792913294341"><ele>11.0</ele><time>2026-05-04T08:21:43.001Z</time></trkpt><trkpt lat="43.8353627102949" lon="10.61206673872313"><ele>11.0</ele><time>2026-05-04T08:21:44.001Z</time></trkpt><trkpt lat="43.83526021365176" lon="10.61234721852875"><ele>11.0</ele><time>2026-05-04T08:21:45.001Z</time></trkpt><trkpt lat="43.83516814351265" lon="10.61262983718537"><ele>11.666666666666666</ele><time>2026-05-04T08:21:46.001Z</time></trkpt><trkpt lat="43.83508496011543" lon="10.612918364668033"><ele>12.333333333333332</ele><time>2026-05-04T08:21:47.001Z</time></trkpt><trkpt lat="43.83500878997414" lon="10.613210041374119"><ele>13.0</ele><time>2026-05-04T08:21:48.001Z</time></trkpt><trkpt lat="43.83493603505545" lon="10.613498139462603"><ele>12.333333333333332</ele><time>2026-05-04T08:21:49.001Z</time></trkpt><trkpt lat="43.83487524101656" lon="10.613757797732537"><ele>11.666666666666666</ele><time>2026-05-04T08:21:50.001Z</time></trkpt><trkpt lat="43.834815275718256" lon="10.614009101179144"><ele>11.0</ele><time>2026-05-04T08:21:51.001Z</time></trkpt><trkpt lat="43.834757231956964" lon="10.614240809396396"><ele>11.0</ele><time>2026-05-04T08:21:52.001Z</time></trkpt><trkpt lat="43.83470542064148" lon="10.614455305456456"><ele>11.0</ele><time>2026-05-04T08:21:53.001Z</time></trkpt><trkpt lat="43.834644754591565" lon="10.614673711327677"><ele>11.0</ele><time>2026-05-04T08:21:54.001Z</time></trkpt><trkpt lat="43.83459365549089" lon="10.614867421537461"><ele>11.0</ele><time>2026-05-04T08:21:55.001Z</time></trkpt><trkpt lat="43.83454493233081" lon="10.61504505295969"><ele>11.0</ele><time>2026-05-04T08:21:56.001Z</time></trkpt><trkpt lat="43.834498418933244" lon="10.615196360426992"><ele>11.0</ele><time>2026-05-04T08:21:57.001Z</time></trkpt><trkpt lat="43.83444134090954" lon="10.615326456182505"><ele>11.0</ele><time>2026-05-04T08:21:58.001Z</time></trkpt><trkpt lat="43.83436190761168" lon="10.615442896538813"><ele>10.75</ele><time>2026-05-04T08:21:59.001Z</time></trkpt><trkpt lat="43.83428296919554" lon="10.615570018953173"><ele>10.5</ele><time>2026-05-04T08:22:00.001Z</time></trkpt><trkpt lat="43.8342205120226" lon="10.61572606040548"><ele>10.25</ele><time>2026-05-04T08:22:01.001Z</time></trkpt><trkpt lat="43.83418060117827" lon="10.615901416859177"><ele>10.0</ele><time>2026-05-04T08:22:02.001Z</time></trkpt><trkpt lat="43.83416990315386" lon="10.616092055979328"><ele>9.75</ele><time>2026-05-04T08:22:03.001Z</time></trkpt><trkpt lat="43.834172538893036" lon="10.616293532861924"><ele>9.5</ele><time>2026-05-04T08:22:04.001Z</time></trkpt><trkpt lat="43.83415973954826" lon="10.616497303605977"><ele>9.25</ele><time>2026-05-04T08:22:05.001Z</time></trkpt><trkpt lat="43.8341200237946" lon="10.61670493391929"><ele>9.0</ele><time>2026-05-04T08:22:06.001Z</time></trkpt><trkpt lat="43.83406865110983" lon="10.616915872615085"><ele>9.666666666666666</ele><time>2026-05-04T08:22:07.001Z</time></trkpt><trkpt lat="43.83401338917726" lon="10.617132534369937"><ele>10.333333333333332</ele><time>2026-05-04T08:22:08.001Z</time></trkpt><trkpt lat="43.833960393392225" lon="10.617355849679873"><ele>11.0</ele><time>2026-05-04T08:22:09.001Z</time></trkpt><trkpt lat="43.833906258182694" lon="10.617583162385145"><ele>11.0</ele><time>2026-05-04T08:22:10.001Z</time></trkpt><trkpt lat="43.833850215288386" lon="10.617812966117649"><ele>11.0</ele><time>2026-05-04T08:22:11.001Z</time></trkpt><trkpt lat="43.83379630005874" lon="10.618031276559993"><ele>11.0</ele><time>2026-05-04T08:22:12.001Z</time></trkpt><trkpt lat="43.83374388261831" lon="10.618240843714183"><ele>11.25</ele><time>2026-05-04T08:22:13.001Z</time></trkpt><trkpt lat="43.833695548110164" lon="10.618440104579484"><ele>11.5</ele><time>2026-05-04T08:22:14.001Z</time></trkpt><trkpt lat="43.83364678951708" lon="10.618634264486497"><ele>11.75</ele><time>2026-05-04T08:22:15.001Z</time></trkpt><trkpt lat="43.833598237842835" lon="10.618821192838869"><ele>12.0</ele><time>2026-05-04T08:22:16.001Z</time></trkpt><trkpt lat="43.833551391656805" lon="10.619003929534701"><ele>12.0</ele><time>2026-05-04T08:22:17.001Z</time></trkpt><trkpt lat="43.83350791145385" lon="10.619178139689293"><ele>12.0</ele><time>2026-05-04T08:22:18.001Z</time></trkpt><trkpt lat="43.83346713972918" lon="10.619347828321745"><ele>12.0</ele><time>2026-05-04T08:22:19.001Z</time></trkpt><trkpt lat="43.833427935928434" lon="10.619507648047238"><ele>12.0</ele><time>2026-05-04T08:22:20.001Z</time></trkpt><trkpt lat="43.8333898134759" lon="10.619644017533107"><ele>11.666666666666666</ele><time>2026-05-04T08:22:21.001Z</time></trkpt><trkpt lat="43.83334961549065" lon="10.619759222664461"><ele>11.333333333333334</ele><time>2026-05-04T08:22:22.001Z</time></trkpt><trkpt lat="43.83330526725284" lon="10.619857409593424"><ele>11.0</ele><time>2026-05-04T08:22:23.001Z</time></trkpt><trkpt lat="43.83325289244798" lon="10.619945872473926"><ele>10.666666666666668</ele><time>2026-05-04T08:22:24.001Z</time></trkpt><trkpt lat="43.833211321848154" lon="10.620031338467319"><ele>10.333333333333334</ele><time>2026-05-04T08:22:25.001Z</time></trkpt><trkpt lat="43.83318917423889" lon="10.620146914229206"><ele>10.0</ele><time>2026-05-04T08:22:26.001Z</time></trkpt><trkpt lat="43.8331875921363" lon="10.62026328553014"><ele>10.4</ele><time>2026-05-04T08:22:27.001Z</time></trkpt><trkpt lat="43.83318262883219" lon="10.620382365964764"><ele>10.8</ele><time>2026-05-04T08:22:28.001Z</time></trkpt><trkpt lat="43.83316014145152" lon="10.620504512511275"><ele>11.2</ele><time>2026-05-04T08:22:29.001Z</time></trkpt><trkpt lat="43.83312599466278" lon="10.620630209270594"><ele>11.6</ele><time>2026-05-04T08:22:30.001Z</time></trkpt><trkpt lat="43.83309108220815" lon="10.620765074918298"><ele>12.0</ele><time>2026-05-04T08:22:31.001Z</time></trkpt><trkpt lat="43.83305612045435" lon="10.620912000546124"><ele>12.0</ele><time>2026-05-04T08:22:32.001Z</time></trkpt><trkpt lat="43.833020788035654" lon="10.621066391769407"><ele>12.0</ele><time>2026-05-04T08:22:33.001Z</time></trkpt><trkpt lat="43.832982780727576" lon="10.621228580838556"><ele>12.0</ele><time>2026-05-04T08:22:34.001Z</time></trkpt><trkpt lat="43.832942452431645" lon="10.621402976980177"><ele>12.0</ele><time>2026-05-04T08:22:35.001Z</time></trkpt><trkpt lat="43.83290042206611" lon="10.621586027556727"><ele>11.666666666666666</ele><time>2026-05-04T08:22:36.001Z</time></trkpt><trkpt lat="43.83285609266418" lon="10.621774721299051"><ele>11.333333333333332</ele><time>2026-05-04T08:22:37.001Z</time></trkpt><trkpt lat="43.83280735572184" lon="10.621972092436085"><ele>11.0</ele><time>2026-05-04T08:22:38.001Z</time></trkpt><trkpt lat="43.832756095342916" lon="10.62217621645777"><ele>11.0</ele><time>2026-05-04T08:22:39.001Z</time></trkpt><trkpt lat="43.83270369516306" lon="10.622390721681594"><ele>11.0</ele><time>2026-05-04T08:22:40.001Z</time></trkpt><trkpt lat="43.832649554324405" lon="10.622608671488422"><ele>11.0</ele><time>2026-05-04T08:22:41.001Z</time></trkpt><trkpt lat="43.83259239454613" lon="10.622838802979032"><ele>11.333333333333332</ele><time>2026-05-04T08:22:42.001Z</time></trkpt><trkpt lat="43.83253573463234" lon="10.623069537690006"><ele>11.666666666666666</ele><time>2026-05-04T08:22:43.001Z</time></trkpt><trkpt lat="43.83247771943648" lon="10.623306596485294"><ele>12.0</ele><time>2026-05-04T08:22:44.001Z</time></trkpt><trkpt lat="43.83241978443359" lon="10.623533243206538"><ele>12.333333333333332</ele><time>2026-05-04T08:22:45.001Z</time></trkpt><trkpt lat="43.83236059753691" lon="10.623762962866438"><ele>12.666666666666666</ele><time>2026-05-04T08:22:46.001Z</time></trkpt><trkpt lat="43.832302233286555" lon="10.62398975548773"><ele>13.0</ele><time>2026-05-04T08:22:47.001Z</time></trkpt><trkpt lat="43.83223834762608" lon="10.62426327049862"><ele>12.666666666666666</ele><time>2026-05-04T08:22:48.001Z</time></trkpt><trkpt lat="43.832180161502606" lon="10.624516317526597"><ele>12.333333333333332</ele><time>2026-05-04T08:22:49.001Z</time></trkpt><trkpt lat="43.83211833426105" lon="10.624767120025512"><ele>12.0</ele><time>2026-05-04T08:22:50.001Z</time></trkpt><trkpt lat="43.83204196035465" lon="10.625012409818117"><ele>12.0</ele><time>2026-05-04T08:22:51.001Z</time></trkpt><trkpt lat="43.8319782046321" lon="10.62526722001927"><ele>12.0</ele><time>2026-05-04T08:22:52.001Z</time></trkpt><trkpt lat="43.83192952503942" lon="10.625527529850054"><ele>12.0</ele><time>2026-05-04T08:22:53.001Z</time></trkpt><trkpt lat="43.83186630692003" lon="10.625780331213928"><ele>12.0</ele><time>2026-05-04T08:22:54.001Z</time></trkpt><trkpt lat="43.83178922065943" lon="10.626025302712943"><ele>12.0</ele><time>2026-05-04T08:22:55.001Z</time></trkpt><trkpt lat="43.83174336341442" lon="10.626262532433442"><ele>12.0</ele><time>2026-05-04T08:22:56.001Z</time></trkpt><trkpt lat="43.83168822478639" lon="10.62647477287334"><ele>11.75</ele><time>2026-05-04T08:22:57.001Z</time></trkpt><trkpt lat="43.83163927319241" lon="10.626672823705624"><ele>11.5</ele><time>2026-05-04T08:22:58.001Z</time></trkpt><trkpt lat="43.831592771051724" lon="10.626858635996442"><ele>11.25</ele><time>2026-05-04T08:22:59.001Z</time></trkpt><trkpt lat="43.83154987804119" lon="10.627030862553553"><ele>11.0</ele><time>2026-05-04T08:23:00.001Z</time></trkpt><trkpt lat="43.831507666449916" lon="10.627199268483146"><ele>11.25</ele><time>2026-05-04T08:23:01.001Z</time></trkpt><trkpt lat="43.83146722298405" lon="10.627358506637135"><ele>11.5</ele><time>2026-05-04T08:23:02.001Z</time></trkpt><trkpt lat="43.83142894520426" lon="10.62751222922866"><ele>11.75</ele><time>2026-05-04T08:23:03.001Z</time></trkpt><trkpt lat="43.83138496781432" lon="10.627683854993085"><ele>12.0</ele><time>2026-05-04T08:23:04.001Z</time></trkpt><trkpt lat="43.83133603419764" lon="10.62786411751609"><ele>12.0</ele><time>2026-05-04T08:23:05.001Z</time></trkpt><trkpt lat="43.83127868004122" lon="10.628052687871612"><ele>12.0</ele><time>2026-05-04T08:23:06.002Z</time></trkpt><trkpt lat="43.83122386411633" lon="10.628253635801999"><ele>12.0</ele><time>2026-05-04T08:23:07.002Z</time></trkpt><trkpt lat="43.83116839868093" lon="10.628466380254405"><ele>12.666666666666668</ele><time>2026-05-04T08:23:08.002Z</time></trkpt><trkpt lat="43.83111522996825" lon="10.628689971658105"><ele>13.333333333333334</ele><time>2026-05-04T08:23:09.002Z</time></trkpt><trkpt lat="43.831059046691266" lon="10.628925452088948"><ele>14.0</ele><time>2026-05-04T08:23:10.002Z</time></trkpt><trkpt lat="43.830994820722694" lon="10.62916300213637"><ele>13.333333333333334</ele><time>2026-05-04T08:23:11.002Z</time></trkpt><trkpt lat="43.83093478473495" lon="10.629409649869274"><ele>12.666666666666668</ele><time>2026-05-04T08:23:12.002Z</time></trkpt><trkpt lat="43.830874345186615" lon="10.629648431257031"><ele>12.0</ele><time>2026-05-04T08:23:13.002Z</time></trkpt><trkpt lat="43.830816310393416" lon="10.629907823441092"><ele>12.0</ele><time>2026-05-04T08:23:14.002Z</time></trkpt><trkpt lat="43.83076325297264" lon="10.630163189397349"><ele>12.0</ele><time>2026-05-04T08:23:15Z</time></trkpt><trkpt lat="43.8307183033715" lon="10.630430049893507"><ele>12.0</ele><time>2026-05-04T08:23:16Z</time></trkpt><trkpt lat="43.830678617895856" lon="10.630706833895688"><ele>12.0</ele><time>2026-05-04T08:23:17Z</time></trkpt><trkpt lat="43.83063793386646" lon="10.630990006334189"><ele>12.0</ele><time>2026-05-04T08:23:18Z</time></trkpt><trkpt lat="43.83059674215105" lon="10.631263981866843"><ele>12.0</ele><time>2026-05-04T08:23:19Z</time></trkpt><trkpt lat="43.83055734779091" lon="10.631545896172963"><ele>12.0</ele><time>2026-05-04T08:23:20Z</time></trkpt><trkpt lat="43.83051742696079" lon="10.63183498292778"><ele>12.0</ele><time>2026-05-04T08:23:21Z</time></trkpt><trkpt lat="43.83047537112019" lon="10.632116680436258"><ele>12.0</ele><time>2026-05-04T08:23:22Z</time></trkpt><trkpt lat="43.830431930836156" lon="10.632397477276518"><ele>12.666666666666668</ele><time>2026-05-04T08:23:23Z</time></trkpt><trkpt lat="43.83038832376966" lon="10.632685280373279"><ele>13.333333333333334</ele><time>2026-05-04T08:23:24Z</time></trkpt><trkpt lat="43.83034745273485" lon="10.63296354101841"><ele>14.0</ele><time>2026-05-04T08:23:25Z</time></trkpt><trkpt lat="43.830311307766344" lon="10.633215368475037"><ele>14.0</ele><time>2026-05-04T08:23:26Z</time></trkpt><trkpt lat="43.830276704371656" lon="10.633448861707661"><ele>14.0</ele><time>2026-05-04T08:23:27Z</time></trkpt><trkpt lat="43.830239738948094" lon="10.633662336665475"><ele>14.0</ele><time>2026-05-04T08:23:28Z</time></trkpt><trkpt lat="43.830205326384906" lon="10.633871895156002"><ele>14.0</ele><time>2026-05-04T08:23:29Z</time></trkpt><trkpt lat="43.830174773926" lon="10.634102448019311"><ele>14.0</ele><time>2026-05-04T08:23:30Z</time></trkpt><trkpt lat="43.830138172974706" lon="10.634337587093988"><ele>14.0</ele><time>2026-05-04T08:23:31Z</time></trkpt><trkpt lat="43.83010002285459" lon="10.634570275274244"><ele>12.333333333333334</ele><time>2026-05-04T08:23:32Z</time></trkpt><trkpt lat="43.8300655209307" lon="10.63480475781646"><ele>10.666666666666668</ele><time>2026-05-04T08:23:33Z</time></trkpt><trkpt lat="43.83003106039597" lon="10.635039418024014"><ele>9.0</ele><time>2026-05-04T08:23:34Z</time></trkpt><trkpt lat="43.82999760565201" lon="10.635278748352889"><ele>9.666666666666666</ele><time>2026-05-04T08:23:35Z</time></trkpt><trkpt lat="43.82996715210075" lon="10.63551390167556"><ele>10.333333333333332</ele><time>2026-05-04T08:23:36Z</time></trkpt><trkpt lat="43.82993632743041" lon="10.635759672597453"><ele>11.0</ele><time>2026-05-04T08:23:37Z</time></trkpt><trkpt lat="43.82989225315393" lon="10.635981709906268"><ele>11.666666666666666</ele><time>2026-05-04T08:23:38Z</time></trkpt><trkpt lat="43.82984946394436" lon="10.636214326201555"><ele>12.333333333333332</ele><time>2026-05-04T08:23:39Z</time></trkpt><trkpt lat="43.82981554388173" lon="10.636438026142349"><ele>13.0</ele><time>2026-05-04T08:23:40Z</time></trkpt><trkpt lat="43.82978723898856" lon="10.636658809621483"><ele>13.0</ele><time>2026-05-04T08:23:41Z</time></trkpt><trkpt lat="43.829756010454005" lon="10.636893655311662"><ele>13.0</ele><time>2026-05-04T08:23:42Z</time></trkpt><trkpt lat="43.8297184857971" lon="10.637136991755074"><ele>13.0</ele><time>2026-05-04T08:23:43Z</time></trkpt><trkpt lat="43.82967960751794" lon="10.63737422075413"><ele>13.333333333333332</ele><time>2026-05-04T08:23:44Z</time></trkpt><trkpt lat="43.82964175036483" lon="10.637603272607862"><ele>13.666666666666668</ele><time>2026-05-04T08:23:45Z</time></trkpt><trkpt lat="43.82960321862082" lon="10.63782757787166"><ele>14.0</ele><time>2026-05-04T08:23:46Z</time></trkpt><trkpt lat="43.8295769121247" lon="10.638053775910267"><ele>14.333333333333334</ele><time>2026-05-04T08:23:47Z</time></trkpt><trkpt lat="43.829545792425336" lon="10.638279047065605"><ele>14.666666666666668</ele><time>2026-05-04T08:23:48Z</time></trkpt><trkpt lat="43.82950933109507" lon="10.63850050824798"><ele>15.0</ele><time>2026-05-04T08:23:49Z</time></trkpt><trkpt lat="43.82947206247769" lon="10.638708102882301"><ele>15.75</ele><time>2026-05-04T08:23:50Z</time></trkpt><trkpt lat="43.82944554163128" lon="10.63892836274445"><ele>16.5</ele><time>2026-05-04T08:23:51Z</time></trkpt><trkpt lat="43.82942368299796" lon="10.63914054991751"><ele>17.25</ele><time>2026-05-04T08:23:52Z</time></trkpt><trkpt lat="43.82939637791206" lon="10.639307051061653"><ele>18.0</ele><time>2026-05-04T08:23:53.001Z</time></trkpt><trkpt lat="43.82936948146467" lon="10.639461615981066"><ele>17.5</ele><time>2026-05-04T08:23:54.001Z</time></trkpt><trkpt lat="43.82933905764327" lon="10.63962846314378"><ele>17.0</ele><time>2026-05-04T08:23:55.001Z</time></trkpt><trkpt lat="43.829316540676444" lon="10.639805106244212"><ele>16.5</ele><time>2026-05-04T08:23:56.001Z</time></trkpt><trkpt lat="43.829296479559154" lon="10.639965883311632"><ele>16.0</ele><time>2026-05-04T08:23:57.001Z</time></trkpt><trkpt lat="43.82926851925923" lon="10.640109378322773"><ele>16.0</ele><time>2026-05-04T08:23:58.001Z</time></trkpt><trkpt lat="43.82923950547943" lon="10.64025074518047"><ele>16.0</ele><time>2026-05-04T08:23:59.001Z</time></trkpt><trkpt lat="43.82921772710813" lon="10.640388942134317"><ele>16.0</ele><time>2026-05-04T08:24:00.001Z</time></trkpt><trkpt lat="43.829188240635695" lon="10.640515124204061"><ele>16.0</ele><time>2026-05-04T08:24:01.001Z</time></trkpt><trkpt lat="43.82917153716999" lon="10.640650140680794"><ele>16.0</ele><time>2026-05-04T08:24:02.001Z</time></trkpt><trkpt lat="43.829166284379106" lon="10.640784495974572"><ele>16.400000000000002</ele><time>2026-05-04T08:24:03.001Z</time></trkpt><trkpt lat="43.82914975069709" lon="10.64092929137004"><ele>16.8</ele><time>2026-05-04T08:24:04.001Z</time></trkpt><trkpt lat="43.829130450590526" lon="10.6410653918742"><ele>17.200000000000003</ele><time>2026-05-04T08:24:05.001Z</time></trkpt><trkpt lat="43.82910792363751" lon="10.6412049852886"><ele>17.6</ele><time>2026-05-04T08:24:06.001Z</time></trkpt><trkpt lat="43.829086888357836" lon="10.641332573247807"><ele>18.0</ele><time>2026-05-04T08:24:07.001Z</time></trkpt><trkpt lat="43.82906802838654" lon="10.641465517894341"><ele>18.25</ele><time>2026-05-04T08:24:08.001Z</time></trkpt><trkpt lat="43.82905323735971" lon="10.641605137905337"><ele>18.5</ele><time>2026-05-04T08:24:09.001Z</time></trkpt><trkpt lat="43.82901605150546" lon="10.641758356728293"><ele>18.75</ele><time>2026-05-04T08:24:10.001Z</time></trkpt><trkpt lat="43.828989522130634" lon="10.641933768011054"><ele>19.0</ele><time>2026-05-04T08:24:11.001Z</time></trkpt><trkpt lat="43.82896127243672" lon="10.642120553992054"><ele>19.0</ele><time>2026-05-04T08:24:12.001Z</time></trkpt><trkpt lat="43.828946899122265" lon="10.64232372888339"><ele>19.0</ele><time>2026-05-04T08:24:13.001Z</time></trkpt><trkpt lat="43.828913876913894" lon="10.642539256701438"><ele>19.0</ele><time>2026-05-04T08:24:14.001Z</time></trkpt><trkpt lat="43.828879574167054" lon="10.64276265307497"><ele>20.0</ele><time>2026-05-04T08:24:15.001Z</time></trkpt><trkpt lat="43.82884442811704" lon="10.642988039233932"><ele>21.0</ele><time>2026-05-04T08:24:16.001Z</time></trkpt><trkpt lat="43.82880739243748" lon="10.643212126910543"><ele>22.0</ele><time>2026-05-04T08:24:17.001Z</time></trkpt><trkpt lat="43.82876896606041" lon="10.64343958129764"><ele>22.0</ele><time>2026-05-04T08:24:18.001Z</time></trkpt><trkpt lat="43.828732621856304" lon="10.643677822718836"><ele>22.0</ele><time>2026-05-04T08:24:19.001Z</time></trkpt><trkpt lat="43.82869898211867" lon="10.643886700659188"><ele>22.0</ele><time>2026-05-04T08:24:20.001Z</time></trkpt><trkpt lat="43.82866674441046" lon="10.64409161885532"><ele>22.0</ele><time>2026-05-04T08:24:21.001Z</time></trkpt><trkpt lat="43.82863876318914" lon="10.64429663854688"><ele>22.0</ele><time>2026-05-04T08:24:22.001Z</time></trkpt><trkpt lat="43.82860861495114" lon="10.644495245025139"><ele>22.0</ele><time>2026-05-04T08:24:23.001Z</time></trkpt><trkpt lat="43.8285798961263" lon="10.644693677654262"><ele>22.0</ele><time>2026-05-04T08:24:24.001Z</time></trkpt><trkpt lat="43.828554331498275" lon="10.644899110622848"><ele>22.400000000000002</ele><time>2026-05-04T08:24:25.001Z</time></trkpt><trkpt lat="43.82852775870599" lon="10.645099710878275"><ele>22.8</ele><time>2026-05-04T08:24:26.001Z</time></trkpt><trkpt lat="43.828507354271366" lon="10.645255733398567"><ele>23.2</ele><time>2026-05-04T08:24:27.001Z</time></trkpt><trkpt lat="43.82849374360805" lon="10.645356871752176"><ele>23.6</ele><time>2026-05-04T08:24:28.001Z</time></trkpt><trkpt lat="43.828472655503205" lon="10.645468896671712"><ele>24.0</ele><time>2026-05-04T08:24:29.001Z</time></trkpt><trkpt lat="43.828454314139606" lon="10.645619681567766"><ele>25.0</ele><time>2026-05-04T08:24:30.001Z</time></trkpt><trkpt lat="43.82843088441466" lon="10.645784023852926"><ele>26.0</ele><time>2026-05-04T08:24:31.001Z</time></trkpt><trkpt lat="43.82840694369029" lon="10.645966721009795"><ele>27.0</ele><time>2026-05-04T08:24:32.001Z</time></trkpt><trkpt lat="43.82836144418869" lon="10.646173427767744"><ele>28.0</ele><time>2026-05-04T08:24:33.001Z</time></trkpt><trkpt lat="43.828328614302315" lon="10.646411191424466"><ele>28.0</ele><time>2026-05-04T08:24:34.001Z</time></trkpt><trkpt lat="43.828294215607826" lon="10.646664751509025"><ele>28.0</ele><time>2026-05-04T08:24:35.001Z</time></trkpt><trkpt lat="43.82827378945428" lon="10.646934130877408"><ele>28.0</ele><time>2026-05-04T08:24:36.001Z</time></trkpt><trkpt lat="43.82823000928315" lon="10.647206540389082"><ele>28.333333333333336</ele><time>2026-05-04T08:24:37.001Z</time></trkpt><trkpt lat="43.82818660929016" lon="10.647482177960908"><ele>28.666666666666664</ele><time>2026-05-04T08:24:38.001Z</time></trkpt><trkpt lat="43.828146285112865" lon="10.647757420323154"><ele>29.0</ele><time>2026-05-04T08:24:39.001Z</time></trkpt><trkpt lat="43.82810556961199" lon="10.648035995343367"><ele>29.0</ele><time>2026-05-04T08:24:40.001Z</time></trkpt><trkpt lat="43.82806369245884" lon="10.648315164430262"><ele>29.0</ele><time>2026-05-04T08:24:41.001Z</time></trkpt><trkpt lat="43.82802378887552" lon="10.648590477321841"><ele>29.0</ele><time>2026-05-04T08:24:42.001Z</time></trkpt><trkpt lat="43.827977397696586" lon="10.648872406950277"><ele>29.333333333333332</ele><time>2026-05-04T08:24:43.001Z</time></trkpt><trkpt lat="43.82793633464295" lon="10.649133382536954"><ele>29.666666666666664</ele><time>2026-05-04T08:24:44.001Z</time></trkpt><trkpt lat="43.827893855533745" lon="10.649382060242928"><ele>30.0</ele><time>2026-05-04T08:24:45.001Z</time></trkpt><trkpt lat="43.827840333746586" lon="10.64960914887056"><ele>30.0</ele><time>2026-05-04T08:24:46.001Z</time></trkpt><trkpt lat="43.8277721128402" lon="10.649810857343844"><ele>30.0</ele><time>2026-05-04T08:24:47.001Z</time></trkpt><trkpt lat="43.82769353861137" lon="10.649988628895995"><ele>30.0</ele><time>2026-05-04T08:24:48.001Z</time></trkpt><trkpt lat="43.82759843885613" lon="10.650132198330988"><ele>30.0</ele><time>2026-05-04T08:24:49.001Z</time></trkpt><trkpt lat="43.82749924083987" lon="10.650251934296538"><ele>30.0</ele><time>2026-05-04T08:24:50.001Z</time></trkpt><trkpt lat="43.827389960774326" lon="10.650339377012441"><ele>30.0</ele><time>2026-05-04T08:24:51.001Z</time></trkpt><trkpt lat="43.82726853473705" lon="10.65037837304619"><ele>30.0</ele><time>2026-05-04T08:24:52.001Z</time></trkpt><trkpt lat="43.82720712893323" lon="10.650472312983812"><ele>30.25</ele><time>2026-05-04T08:24:53.001Z</time></trkpt><trkpt lat="43.82721258761098" lon="10.650606716882473"><ele>30.5</ele><time>2026-05-04T08:24:54.001Z</time></trkpt><trkpt lat="43.82723192081545" lon="10.650775640177018"><ele>30.75</ele><time>2026-05-04T08:24:55.001Z</time></trkpt><trkpt lat="43.82720695975411" lon="10.65098449183963"><ele>31.0</ele><time>2026-05-04T08:24:56.001Z</time></trkpt><trkpt lat="43.82713829280648" lon="10.651203731955926"><ele>31.333333333333336</ele><time>2026-05-04T08:24:57.001Z</time></trkpt><trkpt lat="43.82704150714562" lon="10.651423678522862"><ele>31.666666666666664</ele><time>2026-05-04T08:24:58.001Z</time></trkpt><trkpt lat="43.8269398200734" lon="10.651641767977194"><ele>32.0</ele><time>2026-05-04T08:24:59.001Z</time></trkpt><trkpt lat="43.82683345251728" lon="10.651860803111722"><ele>31.0</ele><time>2026-05-04T08:25:00.001Z</time></trkpt><trkpt lat="43.82671164114944" lon="10.652063356923845"><ele>30.0</ele><time>2026-05-04T08:25:01.001Z</time></trkpt><trkpt lat="43.826604852064634" lon="10.652276692311194"><ele>29.0</ele><time>2026-05-04T08:25:02.001Z</time></trkpt><trkpt lat="43.82650115960572" lon="10.652484110992926"><ele>29.0</ele><time>2026-05-04T08:25:03.001Z</time></trkpt><trkpt lat="43.8263937614342" lon="10.652698220838351"><ele>29.0</ele><time>2026-05-04T08:25:04.001Z</time></trkpt><trkpt lat="43.82628317346645" lon="10.65292261064765"><ele>29.0</ele><time>2026-05-04T08:25:05.001Z</time></trkpt><trkpt lat="43.82616674998864" lon="10.653158219667684"><ele>29.0</ele><time>2026-05-04T08:25:06.001Z</time></trkpt><trkpt lat="43.826051775118835" lon="10.653391614113223"><ele>29.0</ele><time>2026-05-04T08:25:07.001Z</time></trkpt><trkpt lat="43.82593243569284" lon="10.653633799335102"><ele>29.0</ele><time>2026-05-04T08:25:08.001Z</time></trkpt><trkpt lat="43.82581220362289" lon="10.653877796063387"><ele>28.666666666666664</ele><time>2026-05-04T08:25:09.001Z</time></trkpt><trkpt lat="43.82570798129727" lon="10.65413642888881"><ele>28.333333333333336</ele><time>2026-05-04T08:25:10.001Z</time></trkpt><trkpt lat="43.825583611747724" lon="10.654382133786578"><ele>28.0</ele><time>2026-05-04T08:25:11.001Z</time></trkpt><trkpt lat="43.825468218160566" lon="10.654608401676823"><ele>28.333333333333336</ele><time>2026-05-04T08:25:12.001Z</time></trkpt><trkpt lat="43.82533116141162" lon="10.654833655952737"><ele>28.666666666666664</ele><time>2026-05-04T08:25:13.001Z</time></trkpt><trkpt lat="43.825160618651054" lon="10.655026202833703"><ele>29.0</ele><time>2026-05-04T08:25:14.001Z</time></trkpt><trkpt lat="43.82501429921021" lon="10.655258027863168"><ele>28.5</ele><time>2026-05-04T08:25:15.001Z</time></trkpt><trkpt lat="43.82486616926135" lon="10.655492721425077"><ele>28.0</ele><time>2026-05-04T08:25:16.001Z</time></trkpt><trkpt lat="43.8247181908142" lon="10.655727174947147"><ele>28.0</ele><time>2026-05-04T08:25:17.001Z</time></trkpt><trkpt lat="43.82457784018129" lon="10.655978549502874"><ele>28.0</ele><time>2026-05-04T08:25:18.001Z</time></trkpt><trkpt lat="43.82442684341988" lon="10.656212063588496"><ele>28.0</ele><time>2026-05-04T08:25:19.001Z</time></trkpt><trkpt lat="43.824269542991125" lon="10.656457853318013"><ele>28.0</ele><time>2026-05-04T08:25:20.001Z</time></trkpt><trkpt lat="43.8241206576422" lon="10.656699790205822"><ele>28.0</ele><time>2026-05-04T08:25:21.001Z</time></trkpt><trkpt lat="43.823984038780395" lon="10.656939670636127"><ele>28.0</ele><time>2026-05-04T08:25:22.001Z</time></trkpt><trkpt lat="43.8238589999438" lon="10.65719795234654"><ele>28.0</ele><time>2026-05-04T08:25:23.001Z</time></trkpt><trkpt lat="43.82374656015145" lon="10.657467302347259"><ele>28.333333333333336</ele><time>2026-05-04T08:25:24.001Z</time></trkpt><trkpt lat="43.82364158181361" lon="10.65774529637001"><ele>28.666666666666664</ele><time>2026-05-04T08:25:25.001Z</time></trkpt><trkpt lat="43.82353442426676" lon="10.658011362712722"><ele>29.0</ele><time>2026-05-04T08:25:26.001Z</time></trkpt><trkpt lat="43.8234230801325" lon="10.658284264474766"><ele>28.0</ele><time>2026-05-04T08:25:27.001Z</time></trkpt><trkpt lat="43.823313398497255" lon="10.65855254130797"><ele>27.0</ele><time>2026-05-04T08:25:28.001Z</time></trkpt><trkpt lat="43.82320236433298" lon="10.658828943072981"><ele>26.5</ele><time>2026-05-04T08:25:29.001Z</time></trkpt><trkpt lat="43.82309403146138" lon="10.659110396812096"><ele>26.0</ele><time>2026-05-04T08:25:30.001Z</time></trkpt><trkpt lat="43.822984222495364" lon="10.659393274857628"><ele>26.333333333333332</ele><time>2026-05-04T08:25:31.001Z</time></trkpt><trkpt lat="43.82288375409499" lon="10.659648885832588"><ele>26.666666666666664</ele><time>2026-05-04T08:25:32.001Z</time></trkpt><trkpt lat="43.82277716276416" lon="10.659910385303403"><ele>27.0</ele><time>2026-05-04T08:25:33.001Z</time></trkpt><trkpt lat="43.8226816781197" lon="10.660147963058167"><ele>26.333333333333336</ele><time>2026-05-04T08:25:34.001Z</time></trkpt><trkpt lat="43.82258259957877" lon="10.660400301785419"><ele>25.666666666666668</ele><time>2026-05-04T08:25:35.001Z</time></trkpt><trkpt lat="43.8224869827808" lon="10.660648931012846"><ele>25.0</ele><time>2026-05-04T08:25:36.001Z</time></trkpt><trkpt lat="43.82238847339309" lon="10.660902233770221"><ele>27.0</ele><time>2026-05-04T08:25:37.001Z</time></trkpt><trkpt lat="43.82228711939403" lon="10.661159766434304"><ele>29.0</ele><time>2026-05-04T08:25:38.001Z</time></trkpt><trkpt lat="43.82218726621935" lon="10.661411589083073"><ele>31.0</ele><time>2026-05-04T08:25:39.001Z</time></trkpt><trkpt lat="43.82208632334821" lon="10.661668523664144"><ele>31.0</ele><time>2026-05-04T08:25:40.001Z</time></trkpt><trkpt lat="43.821987191555856" lon="10.661927108350977"><ele>31.0</ele><time>2026-05-04T08:25:41.001Z</time></trkpt><trkpt lat="43.8218875434221" lon="10.662184630275984"><ele>31.0</ele><time>2026-05-04T08:25:42.001Z</time></trkpt><trkpt lat="43.821786650491866" lon="10.662439333677717"><ele>28.666666666666668</ele><time>2026-05-04T08:25:43.001Z</time></trkpt><trkpt lat="43.821681537645034" lon="10.662701249228432"><ele>26.333333333333336</ele><time>2026-05-04T08:25:44.001Z</time></trkpt><trkpt lat="43.82157859233058" lon="10.662965330032838"><ele>24.0</ele><time>2026-05-04T08:25:45.001Z</time></trkpt><trkpt lat="43.8214752704048" lon="10.663230273448692"><ele>23.333333333333332</ele><time>2026-05-04T08:25:46.001Z</time></trkpt><trkpt lat="43.821368063423996" lon="10.663501921559968"><ele>22.666666666666664</ele><time>2026-05-04T08:25:47.001Z</time></trkpt><trkpt lat="43.821261052574535" lon="10.663761429115665"><ele>22.0</ele><time>2026-05-04T08:25:48.001Z</time></trkpt><trkpt lat="43.82114289520794" lon="10.664026816523732"><ele>22.0</ele><time>2026-05-04T08:25:49.001Z</time></trkpt><trkpt lat="43.82100432758728" lon="10.664249143569062"><ele>22.0</ele><time>2026-05-04T08:25:50.001Z</time></trkpt><trkpt lat="43.82086974011453" lon="10.664475760413666"><ele>22.0</ele><time>2026-05-04T08:25:51.001Z</time></trkpt><trkpt lat="43.82071068462545" lon="10.66466910262161"><ele>22.333333333333332</ele><time>2026-05-04T08:25:52.001Z</time></trkpt><trkpt lat="43.820566812219475" lon="10.664844823782742"><ele>22.666666666666668</ele><time>2026-05-04T08:25:53.001Z</time></trkpt><trkpt lat="43.82043927056632" lon="10.665012259175908"><ele>23.0</ele><time>2026-05-04T08:25:54.001Z</time></trkpt><trkpt lat="43.82033681870402" lon="10.66516186444616"><ele>23.0</ele><time>2026-05-04T08:25:55.001Z</time></trkpt><trkpt lat="43.820258316525695" lon="10.665297485963045"><ele>23.0</ele><time>2026-05-04T08:25:56.001Z</time></trkpt><trkpt lat="43.82019160155349" lon="10.665433919005423"><ele>23.0</ele><time>2026-05-04T08:25:57.001Z</time></trkpt><trkpt lat="43.82010674452207" lon="10.665552750042863"><ele>23.0</ele><time>2026-05-04T08:25:58.001Z</time></trkpt><trkpt lat="43.82002610954606" lon="10.665698497571045"><ele>23.25</ele><time>2026-05-04T08:25:59.001Z</time></trkpt><trkpt lat="43.81994306873244" lon="10.665847691634097"><ele>23.5</ele><time>2026-05-04T08:26:00.001Z</time></trkpt><trkpt lat="43.819869335970075" lon="10.666011791972487"><ele>23.75</ele><time>2026-05-04T08:26:01.001Z</time></trkpt><trkpt lat="43.81978445715214" lon="10.66615436943553"><ele>24.0</ele><time>2026-05-04T08:26:02.001Z</time></trkpt><trkpt lat="43.81969404809711" lon="10.666300835582748"><ele>24.0</ele><time>2026-05-04T08:26:03.001Z</time></trkpt><trkpt lat="43.81959476318609" lon="10.666450461282626"><ele>24.0</ele><time>2026-05-04T08:26:04.001Z</time></trkpt><trkpt lat="43.819482572979126" lon="10.666590093935348"><ele>24.0</ele><time>2026-05-04T08:26:05.001Z</time></trkpt><trkpt lat="43.81937555373838" lon="10.66673450262939"><ele>24.0</ele><time>2026-05-04T08:26:06.001Z</time></trkpt><trkpt lat="43.81926567987311" lon="10.666880504450953"><ele>23.666666666666668</ele><time>2026-05-04T08:26:07.001Z</time></trkpt><trkpt lat="43.819151495753474" lon="10.66703214905075"><ele>23.333333333333336</ele><time>2026-05-04T08:26:08.001Z</time></trkpt><trkpt lat="43.81903355408649" lon="10.667185953497915"><ele>23.0</ele><time>2026-05-04T08:26:09.001Z</time></trkpt><trkpt lat="43.818921514870624" lon="10.667353084889903"><ele>23.0</ele><time>2026-05-04T08:26:10.001Z</time></trkpt><trkpt lat="43.818803018075094" lon="10.667499621471858"><ele>23.0</ele><time>2026-05-04T08:26:11.001Z</time></trkpt><trkpt lat="43.81868684404951" lon="10.6676520485431"><ele>23.0</ele><time>2026-05-04T08:26:12.001Z</time></trkpt><trkpt lat="43.818555900902176" lon="10.667794516854984"><ele>22.666666666666668</ele><time>2026-05-04T08:26:13.001Z</time></trkpt><trkpt lat="43.81843239185102" lon="10.667949127936394"><ele>22.333333333333332</ele><time>2026-05-04T08:26:14.001Z</time></trkpt><trkpt lat="43.81831092164489" lon="10.668103270391425"><ele>22.0</ele><time>2026-05-04T08:26:15.001Z</time></trkpt><trkpt lat="43.818188168217624" lon="10.66826229951656"><ele>22.0</ele><time>2026-05-04T08:26:16.001Z</time></trkpt><trkpt lat="43.818062261754044" lon="10.668421334132443"><ele>22.0</ele><time>2026-05-04T08:26:17.001Z</time></trkpt><trkpt lat="43.81795246774208" lon="10.668604516927635"><ele>22.0</ele><time>2026-05-04T08:26:18.001Z</time></trkpt><trkpt lat="43.81782638719732" lon="10.668777728371023"><ele>22.0</ele><time>2026-05-04T08:26:19.001Z</time></trkpt><trkpt lat="43.81770909174864" lon="10.66896510436673"><ele>22.0</ele><time>2026-05-04T08:26:20.001Z</time></trkpt><trkpt lat="43.817598623875185" lon="10.669167270901452"><ele>22.0</ele><time>2026-05-04T08:26:21.001Z</time></trkpt><trkpt lat="43.81749212575842" lon="10.669370388530517"><ele>21.666666666666664</ele><time>2026-05-04T08:26:22.001Z</time></trkpt><trkpt lat="43.817386565674454" lon="10.669575201384967"><ele>21.333333333333332</ele><time>2026-05-04T08:26:23.001Z</time></trkpt><trkpt lat="43.817285155731994" lon="10.669768937234327"><ele>21.0</ele><time>2026-05-04T08:26:24.001Z</time></trkpt><trkpt lat="43.81719096589615" lon="10.66994928205454"><ele>21.0</ele><time>2026-05-04T08:26:25.001Z</time></trkpt><trkpt lat="43.8171063424176" lon="10.670106705826134"><ele>21.0</ele><time>2026-05-04T08:26:26.001Z</time></trkpt><trkpt lat="43.817026840842836" lon="10.670255764127077"><ele>21.0</ele><time>2026-05-04T08:26:27.001Z</time></trkpt><trkpt lat="43.816959958382455" lon="10.670389515704205"><ele>21.0</ele><time>2026-05-04T08:26:28.001Z</time></trkpt><trkpt lat="43.81690248861274" lon="10.670514111252343"><ele>20.8</ele><time>2026-05-04T08:26:29.001Z</time></trkpt><trkpt lat="43.81684186396552" lon="10.670597158802819"><ele>20.6</ele><time>2026-05-04T08:26:30.001Z</time></trkpt><trkpt lat="43.8167952155277" lon="10.67068949535305"><ele>20.4</ele><time>2026-05-04T08:26:32.001Z</time></trkpt><trkpt lat="43.81675883292922" lon="10.670764281800093"><ele>20.2</ele><time>2026-05-04T08:26:37.001Z</time></trkpt><trkpt lat="43.816698529618336" lon="10.670890549121083"><ele>20.0</ele><time>2026-05-04T08:26:40.001Z</time></trkpt><trkpt lat="43.81662685515211" lon="10.67105035218602"><ele>19.0</ele><time>2026-05-04T08:26:42.001Z</time></trkpt><trkpt lat="43.81656869156487" lon="10.671184841731614"><ele>18.0</ele><time>2026-05-04T08:26:44.001Z</time></trkpt><trkpt lat="43.81651424159437" lon="10.671302468291698"><ele>17.0</ele><time>2026-05-04T08:26:46.001Z</time></trkpt><trkpt lat="43.816448394711514" lon="10.671439149889713"><ele>16.0</ele><time>2026-05-04T08:26:48.001Z</time></trkpt><trkpt lat="43.81640458808371" lon="10.671529693490466"><ele>15.0</ele><time>2026-05-04T08:26:49.001Z</time></trkpt><trkpt lat="43.81635882608725" lon="10.671624278874834"><ele>15.0</ele><time>2026-05-04T08:26:50.001Z</time></trkpt><trkpt lat="43.81630978658158" lon="10.671719606677842"><ele>15.0</ele><time>2026-05-04T08:26:51.001Z</time></trkpt><trkpt lat="43.81626167363996" lon="10.671813034327105"><ele>15.0</ele><time>2026-05-04T08:26:52.001Z</time></trkpt><trkpt lat="43.81620965015355" lon="10.671911504016714"><ele>15.0</ele><time>2026-05-04T08:26:53.001Z</time></trkpt><trkpt lat="43.816156624204524" lon="10.672004581395477"><ele>15.0</ele><time>2026-05-04T08:26:54.001Z</time></trkpt><trkpt lat="43.81610706284124" lon="10.672083996370883"><ele>15.0</ele><time>2026-05-04T08:26:55.001Z</time></trkpt><trkpt lat="43.81604453627977" lon="10.672184541935671"><ele>14.5</ele><time>2026-05-04T08:26:57.001Z</time></trkpt><trkpt lat="43.815959242796886" lon="10.672203705528961"><ele>14.0</ele><time>2026-05-04T08:26:59.001Z</time></trkpt><trkpt lat="43.81589123700648" lon="10.67226922662135"><ele>13.5</ele><time>2026-05-04T08:27:01.001Z</time></trkpt><trkpt lat="43.815832010402566" lon="10.672349710632146"><ele>13.0</ele><time>2026-05-04T08:27:04.001Z</time></trkpt><trkpt lat="43.815768580846715" lon="10.672438524209127"><ele>12.5</ele><time>2026-05-04T08:27:06.001Z</time></trkpt><trkpt lat="43.81574064750526" lon="10.672523728760792"><ele>12.0</ele><time>2026-05-04T08:27:07.001Z</time></trkpt><trkpt lat="43.81571316055798" lon="10.672619060252899"><ele>12.0</ele><time>2026-05-04T08:27:08.001Z</time></trkpt><trkpt lat="43.81567327964804" lon="10.672704003863382"><ele>12.0</ele><time>2026-05-04T08:27:09.001Z</time></trkpt><trkpt lat="43.815621504401896" lon="10.672796576366174"><ele>12.0</ele><time>2026-05-04T08:27:10.001Z</time></trkpt><trkpt lat="43.81556330066779" lon="10.672879552813418"><ele>12.0</ele><time>2026-05-04T08:27:11.001Z</time></trkpt><trkpt lat="43.815501011122315" lon="10.672966998062742"><ele>12.0</ele><time>2026-05-04T08:27:12.001Z</time></trkpt><trkpt lat="43.81544053302176" lon="10.673061070538155"><ele>12.0</ele><time>2026-05-04T08:27:13.001Z</time></trkpt><trkpt lat="43.81538289638006" lon="10.673162181730522"><ele>12.0</ele><time>2026-05-04T08:27:14.001Z</time></trkpt><trkpt lat="43.81533225590001" lon="10.673272247742103"><ele>12.0</ele><time>2026-05-04T08:27:15.001Z</time></trkpt><trkpt lat="43.81528320358374" lon="10.673369060351552"><ele>12.0</ele><time>2026-05-04T08:27:16.001Z</time></trkpt><trkpt lat="43.81523890217649" lon="10.673460934107743"><ele>12.0</ele><time>2026-05-04T08:27:17.001Z</time></trkpt><trkpt lat="43.81520251558553" lon="10.673547488957693"><ele>12.0</ele><time>2026-05-04T08:27:18.001Z</time></trkpt><trkpt lat="43.81513842559992" lon="10.673674815986248"><ele>12.0</ele><time>2026-05-04T08:27:20.001Z</time></trkpt><trkpt lat="43.8150689986955" lon="10.673807104665183"><ele>13.0</ele><time>2026-05-04T08:27:22.001Z</time></trkpt><trkpt lat="43.81498945863818" lon="10.673939309606775"><ele>14.0</ele><time>2026-05-04T08:27:24.002Z</time></trkpt><trkpt lat="43.814954619662096" lon="10.67401408500905"><ele>15.0</ele><time>2026-05-04T08:27:25.002Z</time></trkpt><trkpt lat="43.81492060994053" lon="10.674097506283843"><ele>16.0</ele><time>2026-05-04T08:27:26.002Z</time></trkpt><trkpt lat="43.81488781750996" lon="10.674186712814477"><ele>17.0</ele><time>2026-05-04T08:27:27Z</time></trkpt><trkpt lat="43.81485784505853" lon="10.674271778942"><ele>18.0</ele><time>2026-05-04T08:27:28Z</time></trkpt><trkpt lat="43.81483471878753" lon="10.674368420724788"><ele>18.5</ele><time>2026-05-04T08:27:29Z</time></trkpt><trkpt lat="43.81479676148116" lon="10.67452711792001"><ele>19.0</ele><time>2026-05-04T08:27:31Z</time></trkpt><trkpt lat="43.814749578119034" lon="10.674682576009484"><ele>19.5</ele><time>2026-05-04T08:27:33Z</time></trkpt><trkpt lat="43.81469177090832" lon="10.674833773935877"><ele>20.0</ele><time>2026-05-04T08:27:35Z</time></trkpt><trkpt lat="43.81463040121196" lon="10.674985845439993"><ele>20.0</ele><time>2026-05-04T08:27:37Z</time></trkpt><trkpt lat="43.8145900196901" lon="10.675063713723342"><ele>20.0</ele><time>2026-05-04T08:27:38Z</time></trkpt><trkpt lat="43.81454191116653" lon="10.675141914440722"><ele>20.0</ele><time>2026-05-04T08:27:39Z</time></trkpt><trkpt lat="43.81448319517207" lon="10.675226249467523"><ele>20.0</ele><time>2026-05-04T08:27:40Z</time></trkpt><trkpt lat="43.81441985701301" lon="10.675317301953601"><ele>20.0</ele><time>2026-05-04T08:27:41Z</time></trkpt><trkpt lat="43.81435474733381" lon="10.675418062523917"><ele>20.0</ele><time>2026-05-04T08:27:42Z</time></trkpt><trkpt lat="43.81428389194911" lon="10.67551367968049"><ele>20.0</ele><time>2026-05-04T08:27:43Z</time></trkpt><trkpt lat="43.81421331841395" lon="10.675611909669959"><ele>20.0</ele><time>2026-05-04T08:27:44Z</time></trkpt><trkpt lat="43.814150225540395" lon="10.675700193107069"><ele>20.0</ele><time>2026-05-04T08:27:45Z</time></trkpt><trkpt lat="43.81409174056667" lon="10.67578228091942"><ele>20.0</ele><time>2026-05-04T08:27:46Z</time></trkpt><trkpt lat="43.8140374645209" lon="10.675860997381939"><ele>20.0</ele><time>2026-05-04T08:27:47Z</time></trkpt><trkpt lat="43.813988958317175" lon="10.675933827354672"><ele>20.0</ele><time>2026-05-04T08:27:48Z</time></trkpt><trkpt lat="43.81394615967802" lon="10.67599999456476"><ele>19.833333333333336</ele><time>2026-05-04T08:27:49Z</time></trkpt><trkpt lat="43.81386714067556" lon="10.676120509538086"><ele>19.666666666666668</ele><time>2026-05-04T08:27:51Z</time></trkpt><trkpt lat="43.813827477717176" lon="10.676190801563296"><ele>19.5</ele><time>2026-05-04T08:27:52Z</time></trkpt><trkpt lat="43.81376046329375" lon="10.67621778269046"><ele>19.333333333333332</ele><time>2026-05-04T08:27:53Z</time></trkpt><trkpt lat="43.81367263862282" lon="10.676283685829441"><ele>19.166666666666664</ele><time>2026-05-04T08:27:55Z</time></trkpt><trkpt lat="43.81359112856268" lon="10.676337913854912"><ele>19.0</ele><time>2026-05-04T08:27:57Z</time></trkpt><trkpt lat="43.8135388733555" lon="10.676433081154544"><ele>19.166666666666664</ele><time>2026-05-04T08:27:59Z</time></trkpt><trkpt lat="43.81347510141393" lon="10.676477626952208"><ele>19.333333333333332</ele><time>2026-05-04T08:28:01Z</time></trkpt><trkpt lat="43.81340181839937" lon="10.676527768473024"><ele>19.5</ele><time>2026-05-04T08:28:03Z</time></trkpt><trkpt lat="43.81328669702507" lon="10.676605102591624"><ele>19.666666666666668</ele><time>2026-05-04T08:28:05Z</time></trkpt><trkpt lat="43.81320701810721" lon="10.676640107276922"><ele>19.833333333333336</ele><time>2026-05-04T08:28:06Z</time></trkpt><trkpt lat="43.813134357087236" lon="10.676678879577878"><ele>20.0</ele><time>2026-05-04T08:28:07Z</time></trkpt><trkpt lat="43.813067627909696" lon="10.676716027554662"><ele>20.0</ele><time>2026-05-04T08:28:08.001Z</time></trkpt><trkpt lat="43.81295979181406" lon="10.67678098678784"><ele>20.0</ele><time>2026-05-04T08:28:10.001Z</time></trkpt><trkpt lat="43.81287341504339" lon="10.676831939541348"><ele>20.0</ele><time>2026-05-04T08:28:12.001Z</time></trkpt><trkpt lat="43.81278704977364" lon="10.67687947159663"><ele>20.0</ele><time>2026-05-04T08:28:14.001Z</time></trkpt><trkpt lat="43.81268641167878" lon="10.676935854179716"><ele>20.0</ele><time>2026-05-04T08:28:16.001Z</time></trkpt><trkpt lat="43.81256753535224" lon="10.676953382292949"><ele>20.166666666666668</ele><time>2026-05-04T08:28:18.001Z</time></trkpt><trkpt lat="43.812506897987106" lon="10.67698625391221"><ele>20.333333333333336</ele><time>2026-05-04T08:28:19.001Z</time></trkpt><trkpt lat="43.81244329470732" lon="10.6770342390364"><ele>20.5</ele><time>2026-05-04T08:28:20.001Z</time></trkpt><trkpt lat="43.812372864926544" lon="10.677087758532762"><ele>20.666666666666668</ele><time>2026-05-04T08:28:21.001Z</time></trkpt><trkpt lat="43.81229285493469" lon="10.677141861431787"><ele>20.833333333333332</ele><time>2026-05-04T08:28:22.001Z</time></trkpt><trkpt lat="43.8122051200924" lon="10.677186226332495"><ele>21.0</ele><time>2026-05-04T08:28:23.001Z</time></trkpt><trkpt lat="43.812115204400826" lon="10.677234976687192"><ele>21.0</ele><time>2026-05-04T08:28:24.001Z</time></trkpt><trkpt lat="43.81202416072364" lon="10.677290887822792"><ele>21.0</ele><time>2026-05-04T08:28:25.001Z</time></trkpt><trkpt lat="43.8119279353992" lon="10.677345775589416"><ele>21.0</ele><time>2026-05-04T08:28:26.001Z</time></trkpt><trkpt lat="43.811831030764196" lon="10.677404316079654"><ele>21.0</ele><time>2026-05-04T08:28:27.001Z</time></trkpt><trkpt lat="43.81173397238582" lon="10.677467411346749"><ele>21.0</ele><time>2026-05-04T08:28:28.001Z</time></trkpt><trkpt lat="43.81164553371454" lon="10.677532481696533"><ele>21.0</ele><time>2026-05-04T08:28:29.001Z</time></trkpt><trkpt lat="43.81156609293109" lon="10.67759558179247"><ele>21.0</ele><time>2026-05-04T08:28:30.001Z</time></trkpt><trkpt lat="43.81150185849194" lon="10.677663276359853"><ele>21.0</ele><time>2026-05-04T08:28:31.001Z</time></trkpt><trkpt lat="43.81144711731097" lon="10.677730915617694"><ele>21.0</ele><time>2026-05-04T08:28:32.001Z</time></trkpt><trkpt lat="43.8113957704568" lon="10.677801524215978"><ele>21.0</ele><time>2026-05-04T08:28:33.001Z</time></trkpt><trkpt lat="43.811341591265375" lon="10.677884329108412"><ele>21.0</ele><time>2026-05-04T08:28:34.001Z</time></trkpt><trkpt lat="43.811287193792026" lon="10.677976540057719"><ele>20.75</ele><time>2026-05-04T08:28:35.001Z</time></trkpt><trkpt lat="43.811224935714904" lon="10.67809458345283"><ele>20.5</ele><time>2026-05-04T08:28:36.001Z</time></trkpt><trkpt lat="43.81115534853572" lon="10.678218773910734"><ele>20.25</ele><time>2026-05-04T08:28:37.001Z</time></trkpt><trkpt lat="43.81107974243598" lon="10.678352962471424"><ele>20.0</ele><time>2026-05-04T08:28:38.001Z</time></trkpt><trkpt lat="43.810997994622596" lon="10.678496787081256"><ele>20.75</ele><time>2026-05-04T08:28:39.001Z</time></trkpt><trkpt lat="43.810913865179444" lon="10.67865158940935"><ele>21.5</ele><time>2026-05-04T08:28:40.001Z</time></trkpt><trkpt lat="43.81082832415304" lon="10.678815932781182"><ele>22.25</ele><time>2026-05-04T08:28:41.001Z</time></trkpt><trkpt lat="43.81074073735083" lon="10.678980901906833"><ele>23.0</ele><time>2026-05-04T08:28:42.001Z</time></trkpt><trkpt lat="43.810651696312846" lon="10.679148853033052"><ele>23.0</ele><time>2026-05-04T08:28:43.001Z</time></trkpt><trkpt lat="43.81055876009551" lon="10.679324121684688"><ele>23.0</ele><time>2026-05-04T08:28:44.001Z</time></trkpt><trkpt lat="43.8104685379271" lon="10.679497176892863"><ele>23.0</ele><time>2026-05-04T08:28:45.001Z</time></trkpt><trkpt lat="43.810379447111245" lon="10.67966392247193"><ele>22.75</ele><time>2026-05-04T08:28:46.001Z</time></trkpt><trkpt lat="43.810292110131336" lon="10.679819419023898"><ele>22.5</ele><time>2026-05-04T08:28:47.001Z</time></trkpt><trkpt lat="43.81020736631874" lon="10.679977895214453"><ele>22.25</ele><time>2026-05-04T08:28:48.001Z</time></trkpt><trkpt lat="43.81012406198778" lon="10.680151654832164"><ele>22.0</ele><time>2026-05-04T08:28:49.001Z</time></trkpt><trkpt lat="43.810043984007315" lon="10.68032396295297"><ele>21.333333333333332</ele><time>2026-05-04T08:28:50.001Z</time></trkpt><trkpt lat="43.809949302617994" lon="10.68050899642455"><ele>20.666666666666668</ele><time>2026-05-04T08:28:51.001Z</time></trkpt><trkpt lat="43.80985926531518" lon="10.680692321402644"><ele>20.0</ele><time>2026-05-04T08:28:52.001Z</time></trkpt><trkpt lat="43.80976804108362" lon="10.68087717534802"><ele>20.0</ele><time>2026-05-04T08:28:53.001Z</time></trkpt><trkpt lat="43.80967783969611" lon="10.681060871224389"><ele>20.0</ele><time>2026-05-04T08:28:54.001Z</time></trkpt><trkpt lat="43.809573120374885" lon="10.6812311466722"><ele>20.0</ele><time>2026-05-04T08:28:55.001Z</time></trkpt><trkpt lat="43.809481800581146" lon="10.681411169343948"><ele>19.666666666666668</ele><time>2026-05-04T08:28:56.001Z</time></trkpt><trkpt lat="43.80937844891061" lon="10.681610508735849"><ele>19.333333333333332</ele><time>2026-05-04T08:28:57.001Z</time></trkpt><trkpt lat="43.809284489073264" lon="10.681825045319052"><ele>19.0</ele><time>2026-05-04T08:28:58.001Z</time></trkpt><trkpt lat="43.80917347291025" lon="10.68202855943847"><ele>19.666666666666664</ele><time>2026-05-04T08:28:59.001Z</time></trkpt><trkpt lat="43.80905517533499" lon="10.68223839467982"><ele>20.333333333333332</ele><time>2026-05-04T08:29:00.001Z</time></trkpt><trkpt lat="43.808935076206694" lon="10.682452936416416"><ele>21.0</ele><time>2026-05-04T08:29:01.001Z</time></trkpt><trkpt lat="43.80881095947817" lon="10.682669815992488"><ele>21.333333333333332</ele><time>2026-05-04T08:29:02.001Z</time></trkpt><trkpt lat="43.808684003199204" lon="10.682889191133393"><ele>21.666666666666664</ele><time>2026-05-04T08:29:03.001Z</time></trkpt><trkpt lat="43.80855789201313" lon="10.683102896477354"><ele>22.0</ele><time>2026-05-04T08:29:04.001Z</time></trkpt><trkpt lat="43.80843136185127" lon="10.683309881535376"><ele>22.0</ele><time>2026-05-04T08:29:05.001Z</time></trkpt><trkpt lat="43.808305455673214" lon="10.683520741962786"><ele>22.0</ele><time>2026-05-04T08:29:06.001Z</time></trkpt><trkpt lat="43.80818572906743" lon="10.683732435752038"><ele>22.0</ele><time>2026-05-04T08:29:07.001Z</time></trkpt><trkpt lat="43.80806660180684" lon="10.683943027870313"><ele>22.0</ele><time>2026-05-04T08:29:08.001Z</time></trkpt><trkpt lat="43.807947934256184" lon="10.684150237047941"><ele>22.0</ele><time>2026-05-04T08:29:09.001Z</time></trkpt><trkpt lat="43.80782826359463" lon="10.684350267557948"><ele>22.0</ele><time>2026-05-04T08:29:10.001Z</time></trkpt><trkpt lat="43.80771119626421" lon="10.684547660999549"><ele>22.0</ele><time>2026-05-04T08:29:11.001Z</time></trkpt><trkpt lat="43.807588198062305" lon="10.684750211344713"><ele>22.0</ele><time>2026-05-04T08:29:12.001Z</time></trkpt><trkpt lat="43.807471363762275" lon="10.684945178053544"><ele>22.0</ele><time>2026-05-04T08:29:13.001Z</time></trkpt><trkpt lat="43.807352007880425" lon="10.68514354551834"><ele>22.333333333333332</ele><time>2026-05-04T08:29:14.001Z</time></trkpt><trkpt lat="43.807236311940706" lon="10.68533638590565"><ele>22.666666666666668</ele><time>2026-05-04T08:29:15.001Z</time></trkpt><trkpt lat="43.80712197475271" lon="10.685530147027835"><ele>23.0</ele><time>2026-05-04T08:29:16.001Z</time></trkpt><trkpt lat="43.807004256070286" lon="10.685727945021979"><ele>23.0</ele><time>2026-05-04T08:29:17.001Z</time></trkpt><trkpt lat="43.80688703115012" lon="10.68592385912475"><ele>23.0</ele><time>2026-05-04T08:29:18.001Z</time></trkpt><trkpt lat="43.80677140414395" lon="10.686118216629165"><ele>23.0</ele><time>2026-05-04T08:29:19.001Z</time></trkpt><trkpt lat="43.80665376474964" lon="10.686314628865906"><ele>22.75</ele><time>2026-05-04T08:29:20.001Z</time></trkpt><trkpt lat="43.806554158669535" lon="10.686482497965224"><ele>22.5</ele><time>2026-05-04T08:29:21.001Z</time></trkpt><trkpt lat="43.80645646152029" lon="10.686643924694165"><ele>22.25</ele><time>2026-05-04T08:29:22.001Z</time></trkpt><trkpt lat="43.80636732862688" lon="10.686792329293851"><ele>22.0</ele><time>2026-05-04T08:29:23.001Z</time></trkpt><trkpt lat="43.80628571404083" lon="10.686927620277523"><ele>22.0</ele><time>2026-05-04T08:29:24.001Z</time></trkpt><trkpt lat="43.806205237795375" lon="10.687063751663649"><ele>22.0</ele><time>2026-05-04T08:29:25.001Z</time></trkpt><trkpt lat="43.806129219267675" lon="10.687188366778182"><ele>22.0</ele><time>2026-05-04T08:29:26.001Z</time></trkpt><trkpt lat="43.80605908844249" lon="10.68730539019489"><ele>22.0</ele><time>2026-05-04T08:29:27.001Z</time></trkpt><trkpt lat="43.80599169858961" lon="10.687412081838644"><ele>22.0</ele><time>2026-05-04T08:29:28.001Z</time></trkpt><trkpt lat="43.805926377339944" lon="10.687517390161686"><ele>22.0</ele><time>2026-05-04T08:29:29.001Z</time></trkpt><trkpt lat="43.80586596279201" lon="10.687616504850839"><ele>22.0</ele><time>2026-05-04T08:29:30.001Z</time></trkpt><trkpt lat="43.805809278044414" lon="10.687713482416434"><ele>22.0</ele><time>2026-05-04T08:29:31.001Z</time></trkpt><trkpt lat="43.80575470861305" lon="10.687799090879718"><ele>22.0</ele><time>2026-05-04T08:29:32.001Z</time></trkpt><trkpt lat="43.80569326497427" lon="10.687874906266444"><ele>22.0</ele><time>2026-05-04T08:29:33Z</time></trkpt><trkpt lat="43.80562100330808" lon="10.687932213829148"><ele>22.0</ele><time>2026-05-04T08:29:34Z</time></trkpt><trkpt lat="43.80553863508973" lon="10.687961561895762"><ele>22.0</ele><time>2026-05-04T08:29:35Z</time></trkpt><trkpt lat="43.80545701765154" lon="10.687973761888777"><ele>22.0</ele><time>2026-05-04T08:29:36Z</time></trkpt><trkpt lat="43.80536520339854" lon="10.687994632208843"><ele>22.0</ele><time>2026-05-04T08:29:37Z</time></trkpt><trkpt lat="43.80528722201664" lon="10.688056008868223"><ele>22.0</ele><time>2026-05-04T08:29:38Z</time></trkpt><trkpt lat="43.805214273251586" lon="10.688150546146284"><ele>22.0</ele><time>2026-05-04T08:29:39Z</time></trkpt><trkpt lat="43.80516263879245" lon="10.688283848445714"><ele>22.0</ele><time>2026-05-04T08:29:40Z</time></trkpt><trkpt lat="43.80512379361458" lon="10.68842353105806"><ele>22.0</ele><time>2026-05-04T08:29:41Z</time></trkpt><trkpt lat="43.80506121228473" lon="10.688552717794355"><ele>22.0</ele><time>2026-05-04T08:29:42Z</time></trkpt><trkpt lat="43.80496848468206" lon="10.688661744375317"><ele>22.0</ele><time>2026-05-04T08:29:43Z</time></trkpt><trkpt lat="43.80486010661369" lon="10.688755305245584"><ele>22.0</ele><time>2026-05-04T08:29:44Z</time></trkpt><trkpt lat="43.80475117435623" lon="10.688855946312868"><ele>22.0</ele><time>2026-05-04T08:29:45Z</time></trkpt><trkpt lat="43.80463664353496" lon="10.688966633601899"><ele>22.0</ele><time>2026-05-04T08:29:46Z</time></trkpt><trkpt lat="43.804514473228515" lon="10.689082335607628"><ele>22.0</ele><time>2026-05-04T08:29:47Z</time></trkpt><trkpt lat="43.80439208091979" lon="10.6891971613312"><ele>22.0</ele><time>2026-05-04T08:29:48Z</time></trkpt><trkpt lat="43.804265226512506" lon="10.68931713773911"><ele>22.0</ele><time>2026-05-04T08:29:49Z</time></trkpt><trkpt lat="43.80413751977596" lon="10.68943911887899"><ele>22.666666666666664</ele><time>2026-05-04T08:29:50Z</time></trkpt><trkpt lat="43.80400620423623" lon="10.689563009327678"><ele>23.333333333333332</ele><time>2026-05-04T08:29:51Z</time></trkpt><trkpt lat="43.803875274176484" lon="10.689684173201202"><ele>24.0</ele><time>2026-05-04T08:29:52Z</time></trkpt><trkpt lat="43.80374018280451" lon="10.68981122742167"><ele>24.0</ele><time>2026-05-04T08:29:53Z</time></trkpt><trkpt lat="43.80360415385855" lon="10.689939627937855"><ele>24.0</ele><time>2026-05-04T08:29:54Z</time></trkpt><trkpt lat="43.80346465682713" lon="10.690072377759547"><ele>24.0</ele><time>2026-05-04T08:29:55Z</time></trkpt><trkpt lat="43.80333014673414" lon="10.690201618993866"><ele>24.333333333333336</ele><time>2026-05-04T08:29:56Z</time></trkpt><trkpt lat="43.80319365047238" lon="10.690329472205605"><ele>24.666666666666668</ele><time>2026-05-04T08:29:57Z</time></trkpt><trkpt lat="43.80305305995047" lon="10.690459715269663"><ele>25.0</ele><time>2026-05-04T08:29:58Z</time></trkpt><trkpt lat="43.802911721277624" lon="10.690591105648204"><ele>25.0</ele><time>2026-05-04T08:29:59Z</time></trkpt><trkpt lat="43.80276769492533" lon="10.690724255400154"><ele>25.0</ele><time>2026-05-04T08:30:00Z</time></trkpt><trkpt lat="43.80262150639967" lon="10.690861926178417"><ele>25.0</ele><time>2026-05-04T08:30:01Z</time></trkpt><trkpt lat="43.802477945559666" lon="10.69100060761703"><ele>25.0</ele><time>2026-05-04T08:30:02Z</time></trkpt><trkpt lat="43.80233277361346" lon="10.691140641011522"><ele>25.0</ele><time>2026-05-04T08:30:03Z</time></trkpt><trkpt lat="43.802184434495125" lon="10.691282510008293"><ele>25.0</ele><time>2026-05-04T08:30:04Z</time></trkpt><trkpt lat="43.80203967861085" lon="10.691423473664592"><ele>25.0</ele><time>2026-05-04T08:30:05Z</time></trkpt><trkpt lat="43.801884803765674" lon="10.69156843344138"><ele>25.0</ele><time>2026-05-04T08:30:06Z</time></trkpt><trkpt lat="43.80173598237948" lon="10.691704985540888"><ele>25.0</ele><time>2026-05-04T08:30:07Z</time></trkpt><trkpt lat="43.801569634816076" lon="10.69185561954566"><ele>26.333333333333336</ele><time>2026-05-04T08:30:08Z</time></trkpt><trkpt lat="43.801415230198515" lon="10.692000229022938"><ele>27.666666666666664</ele><time>2026-05-04T08:30:09Z</time></trkpt><trkpt lat="43.80125758007118" lon="10.692150973443875"><ele>29.0</ele><time>2026-05-04T08:30:10Z</time></trkpt><trkpt lat="43.8010952010869" lon="10.692309669352193"><ele>28.333333333333332</ele><time>2026-05-04T08:30:11Z</time></trkpt><trkpt lat="43.80093264648854" lon="10.692463654313194"><ele>27.666666666666664</ele><time>2026-05-04T08:30:12Z</time></trkpt><trkpt lat="43.80076244157126" lon="10.692621382750138"><ele>27.0</ele><time>2026-05-04T08:30:13.001Z</time></trkpt><trkpt lat="43.800589151349406" lon="10.692782678205397"><ele>27.0</ele><time>2026-05-04T08:30:14.001Z</time></trkpt><trkpt lat="43.800416649115554" lon="10.692946682636169"><ele>27.0</ele><time>2026-05-04T08:30:15.001Z</time></trkpt><trkpt lat="43.800283294069004" lon="10.69309264798752"><ele>27.0</ele><time>2026-05-04T08:30:16.001Z</time></trkpt><trkpt lat="43.80013306915388" lon="10.69326173148497"><ele>26.333333333333336</ele><time>2026-05-04T08:30:17.001Z</time></trkpt><trkpt lat="43.7999731895769" lon="10.693446388230372"><ele>25.666666666666668</ele><time>2026-05-04T08:30:18.001Z</time></trkpt><trkpt lat="43.79983277083057" lon="10.693632848153294"><ele>25.0</ele><time>2026-05-04T08:30:19.001Z</time></trkpt><trkpt lat="43.799683480592904" lon="10.693801212565605"><ele>25.0</ele><time>2026-05-04T08:30:20.001Z</time></trkpt><trkpt lat="43.79954415680191" lon="10.694014493297724"><ele>25.0</ele><time>2026-05-04T08:30:21.001Z</time></trkpt><trkpt lat="43.799410963871516" lon="10.694208160515645"><ele>25.0</ele><time>2026-05-04T08:30:22.001Z</time></trkpt><trkpt lat="43.79928122031609" lon="10.694409163839719"><ele>25.666666666666668</ele><time>2026-05-04T08:30:23.001Z</time></trkpt><trkpt lat="43.79915496578133" lon="10.694618754219377"><ele>26.333333333333336</ele><time>2026-05-04T08:30:24.001Z</time></trkpt><trkpt lat="43.799039296199766" lon="10.694831282269044"><ele>27.0</ele><time>2026-05-04T08:30:25.001Z</time></trkpt><trkpt lat="43.798926252482744" lon="10.695048263636169"><ele>27.333333333333336</ele><time>2026-05-04T08:30:26.001Z</time></trkpt><trkpt lat="43.798816604351025" lon="10.695263966514334"><ele>27.666666666666668</ele><time>2026-05-04T08:30:27.001Z</time></trkpt><trkpt lat="43.79870313221429" lon="10.69548435422595"><ele>28.0</ele><time>2026-05-04T08:30:28.001Z</time></trkpt><trkpt lat="43.79859631739007" lon="10.695693462253807"><ele>28.333333333333336</ele><time>2026-05-04T08:30:29.001Z</time></trkpt><trkpt lat="43.798481063920754" lon="10.695911602689378"><ele>28.666666666666664</ele><time>2026-05-04T08:30:30.001Z</time></trkpt><trkpt lat="43.79836653929675" lon="10.696124705469717"><ele>29.0</ele><time>2026-05-04T08:30:31.001Z</time></trkpt><trkpt lat="43.79825137465919" lon="10.69633670268971"><ele>29.333333333333332</ele><time>2026-05-04T08:30:32.001Z</time></trkpt><trkpt lat="43.79813187504489" lon="10.696553234677507"><ele>29.666666666666664</ele><time>2026-05-04T08:30:33.001Z</time></trkpt><trkpt lat="43.79801504943526" lon="10.696769483025662"><ele>30.0</ele><time>2026-05-04T08:30:34.001Z</time></trkpt><trkpt lat="43.797899720230184" lon="10.696991081839439"><ele>29.666666666666664</ele><time>2026-05-04T08:30:35.001Z</time></trkpt><trkpt lat="43.797785929265885" lon="10.69721254519269"><ele>29.333333333333332</ele><time>2026-05-04T08:30:36.001Z</time></trkpt><trkpt lat="43.79767234829727" lon="10.697435841800987"><ele>29.0</ele><time>2026-05-04T08:30:37.001Z</time></trkpt><trkpt lat="43.79755430402404" lon="10.697660537539205"><ele>29.0</ele><time>2026-05-04T08:30:38.001Z</time></trkpt><trkpt lat="43.79743507645479" lon="10.697886075637834"><ele>29.0</ele><time>2026-05-04T08:30:39.001Z</time></trkpt><trkpt lat="43.79731475469015" lon="10.69810677641416"><ele>29.0</ele><time>2026-05-04T08:30:40.001Z</time></trkpt><trkpt lat="43.797190093940195" lon="10.69832360907707"><ele>29.0</ele><time>2026-05-04T08:30:41.001Z</time></trkpt><trkpt lat="43.79706118918159" lon="10.698537631727012"><ele>29.0</ele><time>2026-05-04T08:30:42.001Z</time></trkpt><trkpt lat="43.79692858262781" lon="10.698748210120577"><ele>29.0</ele><time>2026-05-04T08:30:43.001Z</time></trkpt><trkpt lat="43.79679180210996" lon="10.69895369344311"><ele>29.0</ele><time>2026-05-04T08:30:44.001Z</time></trkpt><trkpt lat="43.79665085745001" lon="10.69915580788063"><ele>29.0</ele><time>2026-05-04T08:30:45.001Z</time></trkpt><trkpt lat="43.796508834823385" lon="10.699350994124094"><ele>29.0</ele><time>2026-05-04T08:30:46.001Z</time></trkpt><trkpt lat="43.796364511649905" lon="10.699545458101518"><ele>29.0</ele><time>2026-05-04T08:30:47.001Z</time></trkpt><trkpt lat="43.79621460978939" lon="10.69974108266736"><ele>29.0</ele><time>2026-05-04T08:30:48.001Z</time></trkpt><trkpt lat="43.79607212394994" lon="10.699924227248546"><ele>29.0</ele><time>2026-05-04T08:30:49.001Z</time></trkpt><trkpt lat="43.79591900639993" lon="10.700115841048255"><ele>29.666666666666664</ele><time>2026-05-04T08:30:50.001Z</time></trkpt><trkpt lat="43.795763894883045" lon="10.70029445801419"><ele>30.333333333333336</ele><time>2026-05-04T08:30:51.001Z</time></trkpt><trkpt lat="43.79560892243009" lon="10.700472367319604"><ele>31.0</ele><time>2026-05-04T08:30:52.001Z</time></trkpt><trkpt lat="43.79545447392331" lon="10.70064955967564"><ele>31.0</ele><time>2026-05-04T08:30:53.001Z</time></trkpt><trkpt lat="43.79530202435248" lon="10.700827724077069"><ele>31.0</ele><time>2026-05-04T08:30:54.001Z</time></trkpt><trkpt lat="43.795150132689756" lon="10.701010222889"><ele>31.0</ele><time>2026-05-04T08:30:55.001Z</time></trkpt><trkpt lat="43.79499043688481" lon="10.701169450097275"><ele>30.666666666666668</ele><time>2026-05-04T08:30:56.001Z</time></trkpt><trkpt lat="43.79483861408256" lon="10.701344883202419"><ele>30.333333333333336</ele><time>2026-05-04T08:30:57.001Z</time></trkpt><trkpt lat="43.79468108908835" lon="10.701524822965164"><ele>30.0</ele><time>2026-05-04T08:30:58.001Z</time></trkpt><trkpt lat="43.794538380730984" lon="10.701717344700501"><ele>30.0</ele><time>2026-05-04T08:30:59.001Z</time></trkpt><trkpt lat="43.79438013675006" lon="10.70189458579779"><ele>30.0</ele><time>2026-05-04T08:31:00.001Z</time></trkpt><trkpt lat="43.79421958151393" lon="10.70207675516137"><ele>30.0</ele><time>2026-05-04T08:31:01.001Z</time></trkpt><trkpt lat="43.7940641603545" lon="10.702255490828389"><ele>30.333333333333336</ele><time>2026-05-04T08:31:02.001Z</time></trkpt><trkpt lat="43.7939049642994" lon="10.702442682570886"><ele>30.666666666666668</ele><time>2026-05-04T08:31:03.001Z</time></trkpt><trkpt lat="43.79374880768178" lon="10.702621785589347"><ele>31.0</ele><time>2026-05-04T08:31:04.001Z</time></trkpt><trkpt lat="43.79358998757948" lon="10.702805122211702"><ele>31.0</ele><time>2026-05-04T08:31:05.001Z</time></trkpt><trkpt lat="43.79343024885059" lon="10.702989353224499"><ele>31.0</ele><time>2026-05-04T08:31:06.001Z</time></trkpt><trkpt lat="43.793272469775616" lon="10.703171719392143"><ele>31.0</ele><time>2026-05-04T08:31:07.001Z</time></trkpt><trkpt lat="43.79313149239941" lon="10.703337324642353"><ele>31.0</ele><time>2026-05-04T08:31:08.001Z</time></trkpt><trkpt lat="43.7929995272192" lon="10.703494158258433"><ele>31.0</ele><time>2026-05-04T08:31:09.001Z</time></trkpt><trkpt lat="43.792878691787514" lon="10.703630127764463"><ele>31.0</ele><time>2026-05-04T08:31:10.001Z</time></trkpt><trkpt lat="43.79275757302341" lon="10.703757978823585"><ele>31.666666666666668</ele><time>2026-05-04T08:31:11.001Z</time></trkpt><trkpt lat="43.792630383597036" lon="10.703880202146616"><ele>32.333333333333336</ele><time>2026-05-04T08:31:12.001Z</time></trkpt><trkpt lat="43.792499063395645" lon="10.704001360442742"><ele>33.0</ele><time>2026-05-04T08:31:13.001Z</time></trkpt><trkpt lat="43.79237025555195" lon="10.704122689510644"><ele>33.0</ele><time>2026-05-04T08:31:14.001Z</time></trkpt><trkpt lat="43.79223990293499" lon="10.704255083095175"><ele>33.0</ele><time>2026-05-04T08:31:15.001Z</time></trkpt><trkpt lat="43.792116395419576" lon="10.704390704909756"><ele>33.0</ele><time>2026-05-04T08:31:16.001Z</time></trkpt><trkpt lat="43.79199197720826" lon="10.704534572950015"><ele>32.666666666666664</ele><time>2026-05-04T08:31:17.001Z</time></trkpt><trkpt lat="43.79186734432938" lon="10.704674419503824"><ele>32.33333333333333</ele><time>2026-05-04T08:31:18.001Z</time></trkpt><trkpt lat="43.79174728547842" lon="10.704821567135765"><ele>32.0</ele><time>2026-05-04T08:31:19.001Z</time></trkpt><trkpt lat="43.79163049185675" lon="10.704973283228206"><ele>32.0</ele><time>2026-05-04T08:31:20.001Z</time></trkpt><trkpt lat="43.79150952850195" lon="10.705130586006733"><ele>32.0</ele><time>2026-05-04T08:31:21.001Z</time></trkpt><trkpt lat="43.791393640741006" lon="10.705298012692998"><ele>32.0</ele><time>2026-05-04T08:31:22.001Z</time></trkpt><trkpt lat="43.79128266564389" lon="10.705459334573307"><ele>32.0</ele><time>2026-05-04T08:31:23.001Z</time></trkpt><trkpt lat="43.79119312026879" lon="10.705591074949002"><ele>32.0</ele><time>2026-05-04T08:31:24.001Z</time></trkpt><trkpt lat="43.791114315346945" lon="10.705704697179353"><ele>32.0</ele><time>2026-05-04T08:31:25.001Z</time></trkpt><trkpt lat="43.791047122116986" lon="10.705806632216996"><ele>32.0</ele><time>2026-05-04T08:31:26.001Z</time></trkpt><trkpt lat="43.79097969468907" lon="10.705914639135985"><ele>32.0</ele><time>2026-05-04T08:31:27.001Z</time></trkpt><trkpt lat="43.790907096398016" lon="10.706029585134917"><ele>32.25</ele><time>2026-05-04T08:31:28.001Z</time></trkpt><trkpt lat="43.79082539383446" lon="10.706151403904446"><ele>32.5</ele><time>2026-05-04T08:31:29.001Z</time></trkpt><trkpt lat="43.79073556147719" lon="10.706277471275305"><ele>32.75</ele><time>2026-05-04T08:31:30.001Z</time></trkpt><trkpt lat="43.79062763970883" lon="10.706412191060359"><ele>33.0</ele><time>2026-05-04T08:31:31.001Z</time></trkpt><trkpt lat="43.79052225773308" lon="10.70655166207755"><ele>33.0</ele><time>2026-05-04T08:31:32.001Z</time></trkpt><trkpt lat="43.7904135653205" lon="10.706682189645159"><ele>33.0</ele><time>2026-05-04T08:31:33.001Z</time></trkpt><trkpt lat="43.79028449749283" lon="10.706825631866016"><ele>33.0</ele><time>2026-05-04T08:31:34.001Z</time></trkpt><trkpt lat="43.79016005320388" lon="10.706966181298228"><ele>33.0</ele><time>2026-05-04T08:31:35.001Z</time></trkpt><trkpt lat="43.790028517827366" lon="10.707109270159785"><ele>33.0</ele><time>2026-05-04T08:31:36.001Z</time></trkpt><trkpt lat="43.78988710599585" lon="10.707259050454484"><ele>33.0</ele><time>2026-05-04T08:31:37.001Z</time></trkpt><trkpt lat="43.78975105115906" lon="10.707411577245553"><ele>33.0</ele><time>2026-05-04T08:31:38.001Z</time></trkpt><trkpt lat="43.789606135341735" lon="10.707576909407111"><ele>33.0</ele><time>2026-05-04T08:31:39.001Z</time></trkpt><trkpt lat="43.78947496733529" lon="10.707722106689808"><ele>33.0</ele><time>2026-05-04T08:31:40.001Z</time></trkpt><trkpt lat="43.78933395877735" lon="10.707888751973686"><ele>33.0</ele><time>2026-05-04T08:31:41.001Z</time></trkpt><trkpt lat="43.789193702117466" lon="10.708054418157014"><ele>33.0</ele><time>2026-05-04T08:31:42.001Z</time></trkpt><trkpt lat="43.78905543372986" lon="10.708223042453941"><ele>33.0</ele><time>2026-05-04T08:31:43.001Z</time></trkpt><trkpt lat="43.7889172901512" lon="10.708398247483748"><ele>33.0</ele><time>2026-05-04T08:31:44.001Z</time></trkpt><trkpt lat="43.788781620048745" lon="10.708573841258339"><ele>33.0</ele><time>2026-05-04T08:31:45.001Z</time></trkpt><trkpt lat="43.788648453056695" lon="10.7087431086996"><ele>33.0</ele><time>2026-05-04T08:31:46.001Z</time></trkpt><trkpt lat="43.78852341765341" lon="10.708910528128428"><ele>33.333333333333336</ele><time>2026-05-04T08:31:47.001Z</time></trkpt><trkpt lat="43.78839071357353" lon="10.709041138288027"><ele>33.66666666666667</ele><time>2026-05-04T08:31:48.001Z</time></trkpt><trkpt lat="43.78828474911488" lon="10.709193482889868"><ele>34.0</ele><time>2026-05-04T08:31:49.001Z</time></trkpt><trkpt lat="43.78816274640046" lon="10.709330724046401"><ele>34.66666666666667</ele><time>2026-05-04T08:31:50.001Z</time></trkpt><trkpt lat="43.78803285735778" lon="10.709482134951159"><ele>35.333333333333336</ele><time>2026-05-04T08:31:51.001Z</time></trkpt><trkpt lat="43.78790474216886" lon="10.709628247909498"><ele>36.0</ele><time>2026-05-04T08:31:52.001Z</time></trkpt><trkpt lat="43.78776103769584" lon="10.709763634225409"><ele>35.666666666666664</ele><time>2026-05-04T08:31:53.001Z</time></trkpt><trkpt lat="43.78762939604599" lon="10.709907792552038"><ele>35.33333333333333</ele><time>2026-05-04T08:31:54.001Z</time></trkpt><trkpt lat="43.787494609388986" lon="10.71005161968945"><ele>35.0</ele><time>2026-05-04T08:31:55.001Z</time></trkpt><trkpt lat="43.78735678694873" lon="10.710198640993548"><ele>35.666666666666664</ele><time>2026-05-04T08:31:56.001Z</time></trkpt><trkpt lat="43.78721562538446" lon="10.710349224271454"><ele>36.333333333333336</ele><time>2026-05-04T08:31:57.001Z</time></trkpt><trkpt lat="43.78707075729768" lon="10.710503761415781"><ele>37.0</ele><time>2026-05-04T08:31:58.001Z</time></trkpt><trkpt lat="43.78692525990173" lon="10.710663158654492"><ele>36.333333333333336</ele><time>2026-05-04T08:31:59.001Z</time></trkpt><trkpt lat="43.786774397935865" lon="10.710828991134079"><ele>35.666666666666664</ele><time>2026-05-04T08:32:00.001Z</time></trkpt><trkpt lat="43.786620298436254" lon="10.710992185728266"><ele>35.0</ele><time>2026-05-04T08:32:01.001Z</time></trkpt><trkpt lat="43.78646111247393" lon="10.711141421253789"><ele>35.0</ele><time>2026-05-04T08:32:02.001Z</time></trkpt><trkpt lat="43.78629742850439" lon="10.7112923441822"><ele>35.0</ele><time>2026-05-04T08:32:03.001Z</time></trkpt><trkpt lat="43.7861318970056" lon="10.711445240819415"><ele>35.0</ele><time>2026-05-04T08:32:04.001Z</time></trkpt><trkpt lat="43.78597035156128" lon="10.71162016922662"><ele>35.0</ele><time>2026-05-04T08:32:05.001Z</time></trkpt><trkpt lat="43.78579930145075" lon="10.711775613052907"><ele>35.0</ele><time>2026-05-04T08:32:06.001Z</time></trkpt><trkpt lat="43.78563140680137" lon="10.711932624968501"><ele>35.0</ele><time>2026-05-04T08:32:07.001Z</time></trkpt><trkpt lat="43.78545839466785" lon="10.712094482630325"><ele>35.0</ele><time>2026-05-04T08:32:08.001Z</time></trkpt><trkpt lat="43.7852912785546" lon="10.712252548500532"><ele>35.0</ele><time>2026-05-04T08:32:09.001Z</time></trkpt><trkpt lat="43.785121121532036" lon="10.712381655744304"><ele>35.0</ele><time>2026-05-04T08:32:10.001Z</time></trkpt><trkpt lat="43.784968871773565" lon="10.712519342180737"><ele>35.0</ele><time>2026-05-04T08:32:11.001Z</time></trkpt><trkpt lat="43.784821327408146" lon="10.712655931556906"><ele>35.0</ele><time>2026-05-04T08:32:12.001Z</time></trkpt><trkpt lat="43.784689033693105" lon="10.712817994338952"><ele>35.0</ele><time>2026-05-04T08:32:13.001Z</time></trkpt><trkpt lat="43.784551520206634" lon="10.7129632135844"><ele>35.0</ele><time>2026-05-04T08:32:14.001Z</time></trkpt><trkpt lat="43.784428641316715" lon="10.713126430466762"><ele>35.0</ele><time>2026-05-04T08:32:15.001Z</time></trkpt><trkpt lat="43.78431930887507" lon="10.713325965436345"><ele>35.0</ele><time>2026-05-04T08:32:16.001Z</time></trkpt><trkpt lat="43.78423202076199" lon="10.71354270045558"><ele>33.0</ele><time>2026-05-04T08:32:17.001Z</time></trkpt><trkpt lat="43.784155459569355" lon="10.713772726989163"><ele>31.0</ele><time>2026-05-04T08:32:18.001Z</time></trkpt><trkpt lat="43.784089607739226" lon="10.714002757668988"><ele>29.0</ele><time>2026-05-04T08:32:19.001Z</time></trkpt><trkpt lat="43.784023502661434" lon="10.714249883425259"><ele>27.0</ele><time>2026-05-04T08:32:20.001Z</time></trkpt><trkpt lat="43.78395731705712" lon="10.714500537972098"><ele>25.0</ele><time>2026-05-04T08:32:21.001Z</time></trkpt><trkpt lat="43.78386711417429" lon="10.714726360401846"><ele>23.0</ele><time>2026-05-04T08:32:22.001Z</time></trkpt><trkpt lat="43.78379187367475" lon="10.714966618207978"><ele>23.0</ele><time>2026-05-04T08:32:23.001Z</time></trkpt><trkpt lat="43.78366645519779" lon="10.715175412188225"><ele>23.0</ele><time>2026-05-04T08:32:24.001Z</time></trkpt><trkpt lat="43.78352412556619" lon="10.715367311139186"><ele>23.0</ele><time>2026-05-04T08:32:25.001Z</time></trkpt><trkpt lat="43.783366125475055" lon="10.715532092884285"><ele>22.0</ele><time>2026-05-04T08:32:26.001Z</time></trkpt><trkpt lat="43.78321263602096" lon="10.715710015797548"><ele>21.0</ele><time>2026-05-04T08:32:27.001Z</time></trkpt><trkpt lat="43.7830300790146" lon="10.715813282243856"><ele>20.0</ele><time>2026-05-04T08:32:28.001Z</time></trkpt><trkpt lat="43.78284063873909" lon="10.715919919678614"><ele>19.0</ele><time>2026-05-04T08:32:29.001Z</time></trkpt><trkpt lat="43.782646036314695" lon="10.716021535231883"><ele>18.0</ele><time>2026-05-04T08:32:30.001Z</time></trkpt><trkpt lat="43.7824421113386" lon="10.716082919046938"><ele>17.0</ele><time>2026-05-04T08:32:31.001Z</time></trkpt><trkpt lat="43.78223513574607" lon="10.716143240097765"><ele>16.333333333333336</ele><time>2026-05-04T08:32:32.001Z</time></trkpt><trkpt lat="43.78203301763844" lon="10.716214227528258"><ele>15.666666666666668</ele><time>2026-05-04T08:32:33.001Z</time></trkpt><trkpt lat="43.78182740719807" lon="10.716285528940164"><ele>15.0</ele><time>2026-05-04T08:32:34.001Z</time></trkpt><trkpt lat="43.78162045195631" lon="10.716357131241127"><ele>15.0</ele><time>2026-05-04T08:32:35.001Z</time></trkpt><trkpt lat="43.781415802869866" lon="10.716427240386526"><ele>15.0</ele><time>2026-05-04T08:32:36.001Z</time></trkpt><trkpt lat="43.78121418133704" lon="10.716495600016053"><ele>15.0</ele><time>2026-05-04T08:32:37.001Z</time></trkpt><trkpt lat="43.781020655096754" lon="10.716562032075627"><ele>15.666666666666668</ele><time>2026-05-04T08:32:38.001Z</time></trkpt><trkpt lat="43.780832704558144" lon="10.716617835188956"><ele>16.333333333333336</ele><time>2026-05-04T08:32:39.001Z</time></trkpt><trkpt lat="43.780647057212136" lon="10.71666834349489"><ele>17.0</ele><time>2026-05-04T08:32:40.001Z</time></trkpt><trkpt lat="43.78046464497211" lon="10.71672056012507"><ele>17.0</ele><time>2026-05-04T08:32:41.001Z</time></trkpt><trkpt lat="43.78029678239931" lon="10.71675895055061"><ele>17.0</ele><time>2026-05-04T08:32:42.001Z</time></trkpt><trkpt lat="43.78012266882983" lon="10.716776854552927"><ele>17.0</ele><time>2026-05-04T08:32:43.001Z</time></trkpt><trkpt lat="43.77996242846684" lon="10.716753815739194"><ele>17.0</ele><time>2026-05-04T08:32:44.001Z</time></trkpt><trkpt lat="43.779796337414666" lon="10.716708106972332"><ele>17.0</ele><time>2026-05-04T08:32:45.001Z</time></trkpt><trkpt lat="43.7796413444391" lon="10.716730933450819"><ele>17.0</ele><time>2026-05-04T08:32:46.001Z</time></trkpt><trkpt lat="43.77947281341337" lon="10.716537676231507"><ele>20.333333333333336</ele><time>2026-05-04T08:32:47.001Z</time></trkpt><trkpt lat="43.77931698897525" lon="10.716427385952821"><ele>23.666666666666668</ele><time>2026-05-04T08:32:48.001Z</time></trkpt><trkpt lat="43.77915390526996" lon="10.716337007121858"><ele>27.0</ele><time>2026-05-04T08:32:49.001Z</time></trkpt><trkpt lat="43.778992322492364" lon="10.716292710057472"><ele>27.0</ele><time>2026-05-04T08:32:50.001Z</time></trkpt><trkpt lat="43.77881558201574" lon="10.716276227630486"><ele>27.0</ele><time>2026-05-04T08:32:51.001Z</time></trkpt><trkpt lat="43.77865703728238" lon="10.716358405356063"><ele>27.0</ele><time>2026-05-04T08:32:52.001Z</time></trkpt><trkpt lat="43.778502078000834" lon="10.71646024095082"><ele>28.0</ele><time>2026-05-04T08:32:53.001Z</time></trkpt><trkpt lat="43.77834968286732" lon="10.716579445416457"><ele>29.0</ele><time>2026-05-04T08:32:54.001Z</time></trkpt><trkpt lat="43.778185121702336" lon="10.716687253563618"><ele>30.0</ele><time>2026-05-04T08:32:55.001Z</time></trkpt><trkpt lat="43.77802060003542" lon="10.716770145090107"><ele>30.0</ele><time>2026-05-04T08:32:56.001Z</time></trkpt><trkpt lat="43.777858889140326" lon="10.716806476963756"><ele>30.0</ele><time>2026-05-04T08:32:57.001Z</time></trkpt><trkpt lat="43.77769346513421" lon="10.716768279820194"><ele>30.0</ele><time>2026-05-04T08:32:58.001Z</time></trkpt><trkpt lat="43.777523419826295" lon="10.71673383548081"><ele>30.333333333333336</ele><time>2026-05-04T08:32:59.001Z</time></trkpt><trkpt lat="43.77735597760471" lon="10.716699307362875"><ele>30.666666666666668</ele><time>2026-05-04T08:33:00.001Z</time></trkpt><trkpt lat="43.77717955427048" lon="10.716666499055817"><ele>31.0</ele><time>2026-05-04T08:33:01.001Z</time></trkpt><trkpt lat="43.77700252488167" lon="10.716668790819742"><ele>31.333333333333336</ele><time>2026-05-04T08:33:02.001Z</time></trkpt><trkpt lat="43.7768193919299" lon="10.71664575294899"><ele>31.666666666666664</ele><time>2026-05-04T08:33:03.001Z</time></trkpt><trkpt lat="43.77663040514762" lon="10.716621820427733"><ele>32.0</ele><time>2026-05-04T08:33:04.001Z</time></trkpt><trkpt lat="43.77644390164487" lon="10.71659760675958"><ele>32.0</ele><time>2026-05-04T08:33:05.001Z</time></trkpt><trkpt lat="43.776274399612426" lon="10.716570645489924"><ele>32.0</ele><time>2026-05-04T08:33:06.001Z</time></trkpt><trkpt lat="43.776120768762894" lon="10.716536218264235"><ele>32.0</ele><time>2026-05-04T08:33:07.001Z</time></trkpt><trkpt lat="43.77597608078945" lon="10.716497983080531"><ele>32.800000000000004</ele><time>2026-05-04T08:33:08.001Z</time></trkpt><trkpt lat="43.77588790004278" lon="10.71661632512318"><ele>33.6</ele><time>2026-05-04T08:33:09.001Z</time></trkpt><trkpt lat="43.77579019858729" lon="10.71664501724736"><ele>34.400000000000006</ele><time>2026-05-04T08:33:10.001Z</time></trkpt><trkpt lat="43.77569913695322" lon="10.71670935478422"><ele>35.2</ele><time>2026-05-04T08:33:11.001Z</time></trkpt><trkpt lat="43.77562255797504" lon="10.716825984524263"><ele>36.0</ele><time>2026-05-04T08:33:12.001Z</time></trkpt><trkpt lat="43.77554079924577" lon="10.716968511693912"><ele>36.0</ele><time>2026-05-04T08:33:13.001Z</time></trkpt><trkpt lat="43.77543410938578" lon="10.717103295449062"><ele>36.0</ele><time>2026-05-04T08:33:14.001Z</time></trkpt><trkpt lat="43.77532948211591" lon="10.71725172354858"><ele>36.0</ele><time>2026-05-04T08:33:15.001Z</time></trkpt><trkpt lat="43.77521321425467" lon="10.717401025062046"><ele>36.0</ele><time>2026-05-04T08:33:16.001Z</time></trkpt><trkpt lat="43.77507845782157" lon="10.717537645335598"><ele>36.0</ele><time>2026-05-04T08:33:17.001Z</time></trkpt><trkpt lat="43.77494782383161" lon="10.717697418899354"><ele>36.0</ele><time>2026-05-04T08:33:18.001Z</time></trkpt><trkpt lat="43.77481247331365" lon="10.717861545519549"><ele>36.666666666666664</ele><time>2026-05-04T08:33:19.001Z</time></trkpt><trkpt lat="43.774669499304025" lon="10.718033953427323"><ele>37.33333333333333</ele><time>2026-05-04T08:33:20.001Z</time></trkpt><trkpt lat="43.774540211117774" lon="10.71822021106184"><ele>38.0</ele><time>2026-05-04T08:33:21.001Z</time></trkpt><trkpt lat="43.77439777902147" lon="10.718388397667578"><ele>38.0</ele><time>2026-05-04T08:33:22.001Z</time></trkpt><trkpt lat="43.77424599754808" lon="10.718544529720576"><ele>38.0</ele><time>2026-05-04T08:33:23.001Z</time></trkpt><trkpt lat="43.774113289700026" lon="10.71870329458096"><ele>38.0</ele><time>2026-05-04T08:33:24.001Z</time></trkpt><trkpt lat="43.774004279477744" lon="10.718833708757964"><ele>37.666666666666664</ele><time>2026-05-04T08:33:25.001Z</time></trkpt><trkpt lat="43.77389500754725" lon="10.71896443574775"><ele>37.333333333333336</ele><time>2026-05-04T08:33:26.001Z</time></trkpt><trkpt lat="43.773785513967965" lon="10.719119136328905"><ele>37.0</ele><time>2026-05-04T08:33:27.001Z</time></trkpt><trkpt lat="43.77366123400947" lon="10.719271962570463"><ele>37.0</ele><time>2026-05-04T08:33:28.001Z</time></trkpt><trkpt lat="43.7735391367899" lon="10.719394071177417"><ele>37.0</ele><time>2026-05-04T08:33:29.001Z</time></trkpt><trkpt lat="43.77346095757898" lon="10.719508862923592"><ele>37.0</ele><time>2026-05-04T08:33:30.001Z</time></trkpt><trkpt lat="43.77339594233107" lon="10.719567564202789"><ele>37.0</ele><time>2026-05-04T08:33:31.001Z</time></trkpt><trkpt lat="43.773321287578554" lon="10.719658197446094"><ele>37.0</ele><time>2026-05-04T08:33:32.001Z</time></trkpt><trkpt lat="43.77323904359791" lon="10.719760105445879"><ele>37.25</ele><time>2026-05-04T08:33:33.001Z</time></trkpt><trkpt lat="43.77314861363816" lon="10.719872656547375"><ele>37.5</ele><time>2026-05-04T08:33:34.001Z</time></trkpt><trkpt lat="43.77305087656241" lon="10.71999446095866"><ele>37.75</ele><time>2026-05-04T08:33:35.001Z</time></trkpt><trkpt lat="43.772945320874975" lon="10.720125418854021"><ele>38.0</ele><time>2026-05-04T08:33:36.001Z</time></trkpt><trkpt lat="43.77284634943974" lon="10.720273652873324"><ele>38.33333333333333</ele><time>2026-05-04T08:33:37.001Z</time></trkpt><trkpt lat="43.772727397551705" lon="10.720419616189682"><ele>38.666666666666664</ele><time>2026-05-04T08:33:38.001Z</time></trkpt><trkpt lat="43.772597659378114" lon="10.720550589951483"><ele>39.0</ele><time>2026-05-04T08:33:39.001Z</time></trkpt><trkpt lat="43.77247191994725" lon="10.720701834479696"><ele>38.666666666666664</ele><time>2026-05-04T08:33:40.001Z</time></trkpt><trkpt lat="43.77233863743651" lon="10.720853499670342"><ele>38.33333333333333</ele><time>2026-05-04T08:33:41.001Z</time></trkpt><trkpt lat="43.77221184439687" lon="10.720993087273126"><ele>38.0</ele><time>2026-05-04T08:33:42.001Z</time></trkpt><trkpt lat="43.7720967789472" lon="10.721106321180368"><ele>38.0</ele><time>2026-05-04T08:33:43.001Z</time></trkpt><trkpt lat="43.771985439216635" lon="10.72120733775091"><ele>38.0</ele><time>2026-05-04T08:33:44.001Z</time></trkpt><trkpt lat="43.771883330438094" lon="10.72128279389009"><ele>38.0</ele><time>2026-05-04T08:33:45.001Z</time></trkpt><trkpt lat="43.77176414352631" lon="10.721291485375547"><ele>38.0</ele><time>2026-05-04T08:33:46.001Z</time></trkpt><trkpt lat="43.77164903676335" lon="10.721266481496087"><ele>38.5</ele><time>2026-05-04T08:33:47.001Z</time></trkpt><trkpt lat="43.771527002769275" lon="10.721218599828447"><ele>39.0</ele><time>2026-05-04T08:33:48.001Z</time></trkpt><trkpt lat="43.77139931095994" lon="10.721163102484761"><ele>39.5</ele><time>2026-05-04T08:33:49.001Z</time></trkpt><trkpt lat="43.77126833376724" lon="10.72110734758509"><ele>40.0</ele><time>2026-05-04T08:33:50.001Z</time></trkpt><trkpt lat="43.77112413151415" lon="10.72105183450445"><ele>39.66666666666667</ele><time>2026-05-04T08:33:51.001Z</time></trkpt><trkpt lat="43.77097741274978" lon="10.72099211164839"><ele>39.333333333333336</ele><time>2026-05-04T08:33:52.001Z</time></trkpt><trkpt lat="43.77082852372413" lon="10.720906305676742"><ele>39.0</ele><time>2026-05-04T08:33:53.001Z</time></trkpt><trkpt lat="43.770669366370946" lon="10.720838894499407"><ele>39.0</ele><time>2026-05-04T08:33:54.001Z</time></trkpt><trkpt lat="43.7705071058404" lon="10.720788938356215"><ele>39.0</ele><time>2026-05-04T08:33:55.001Z</time></trkpt><trkpt lat="43.770348484082874" lon="10.720716366358717"><ele>39.0</ele><time>2026-05-04T08:33:56.001Z</time></trkpt><trkpt lat="43.77018844701097" lon="10.720638550225841"><ele>39.333333333333336</ele><time>2026-05-04T08:33:57.001Z</time></trkpt><trkpt lat="43.77002363292313" lon="10.720550560366704"><ele>39.66666666666667</ele><time>2026-05-04T08:33:58.001Z</time></trkpt><trkpt lat="43.7698650564844" lon="10.720432997698836"><ele>40.0</ele><time>2026-05-04T08:33:59.001Z</time></trkpt><trkpt lat="43.76971266306072" lon="10.720299213036439"><ele>39.66666666666667</ele><time>2026-05-04T08:34:00.001Z</time></trkpt><trkpt lat="43.76956334050751" lon="10.720160053074194"><ele>39.333333333333336</ele><time>2026-05-04T08:34:01.001Z</time></trkpt><trkpt lat="43.76941125060161" lon="10.720018090575918"><ele>39.0</ele><time>2026-05-04T08:34:02.001Z</time></trkpt><trkpt lat="43.769260205595174" lon="10.7198773709552"><ele>39.666666666666664</ele><time>2026-05-04T08:34:03.001Z</time></trkpt><trkpt lat="43.76910407933461" lon="10.719733969061085"><ele>40.33333333333333</ele><time>2026-05-04T08:34:04.001Z</time></trkpt><trkpt lat="43.76894441957116" lon="10.719592064834368"><ele>41.0</ele><time>2026-05-04T08:34:05.001Z</time></trkpt><trkpt lat="43.76878674741032" lon="10.719452877464771"><ele>41.0</ele><time>2026-05-04T08:34:06.001Z</time></trkpt><trkpt lat="43.76863179510549" lon="10.719313924573436"><ele>41.0</ele><time>2026-05-04T08:34:07.001Z</time></trkpt><trkpt lat="43.768478568565044" lon="10.719168568871865"><ele>41.0</ele><time>2026-05-04T08:34:08.001Z</time></trkpt><trkpt lat="43.76833846469818" lon="10.719038730315882"><ele>40.75</ele><time>2026-05-04T08:34:09.001Z</time></trkpt><trkpt lat="43.76821065015871" lon="10.718917957220883"><ele>40.5</ele><time>2026-05-04T08:34:10.001Z</time></trkpt><trkpt lat="43.76810601491705" lon="10.718788687654504"><ele>40.25</ele><time>2026-05-04T08:34:11.001Z</time></trkpt><trkpt lat="43.76802171620683" lon="10.718634280514024"><ele>40.0</ele><time>2026-05-04T08:34:12.001Z</time></trkpt><trkpt lat="43.76795599033336" lon="10.718453438177272"><ele>39.66666666666667</ele><time>2026-05-04T08:34:13.001Z</time></trkpt><trkpt lat="43.767906172729994" lon="10.718265801137582"><ele>39.333333333333336</ele><time>2026-05-04T08:34:14.001Z</time></trkpt><trkpt lat="43.767858927218676" lon="10.718063690727433"><ele>39.0</ele><time>2026-05-04T08:34:15.001Z</time></trkpt><trkpt lat="43.76780743461287" lon="10.717847628862314"><ele>39.0</ele><time>2026-05-04T08:34:16.001Z</time></trkpt><trkpt lat="43.76774832210506" lon="10.717632246119363"><ele>39.0</ele><time>2026-05-04T08:34:17.001Z</time></trkpt><trkpt lat="43.7676864948443" lon="10.717402160331421"><ele>39.0</ele><time>2026-05-04T08:34:18.001Z</time></trkpt><trkpt lat="43.76762601700578" lon="10.717173778134782"><ele>39.0</ele><time>2026-05-04T08:34:19.001Z</time></trkpt><trkpt lat="43.767564839437405" lon="10.716935146955018"><ele>39.0</ele><time>2026-05-04T08:34:20.001Z</time></trkpt><trkpt lat="43.76751240491019" lon="10.716702515746308"><ele>39.0</ele><time>2026-05-04T08:34:21.001Z</time></trkpt><trkpt lat="43.76747187741489" lon="10.71644756775605"><ele>40.0</ele><time>2026-05-04T08:34:22.001Z</time></trkpt><trkpt lat="43.767458540059664" lon="10.716185599500978"><ele>41.0</ele><time>2026-05-04T08:34:23.001Z</time></trkpt><trkpt lat="43.767455470149066" lon="10.715903451881374"><ele>42.0</ele><time>2026-05-04T08:34:24.001Z</time></trkpt><trkpt lat="43.767449532088065" lon="10.715623513847733"><ele>42.0</ele><time>2026-05-04T08:34:25.001Z</time></trkpt><trkpt lat="43.767441955425056" lon="10.715335734395072"><ele>42.0</ele><time>2026-05-04T08:34:26.001Z</time></trkpt><trkpt lat="43.767430593129426" lon="10.71505057195846"><ele>42.0</ele><time>2026-05-04T08:34:27.001Z</time></trkpt><trkpt lat="43.7674201331655" lon="10.714758081542637"><ele>41.0</ele><time>2026-05-04T08:34:28.001Z</time></trkpt><trkpt lat="43.76740787062702" lon="10.71446201494057"><ele>40.0</ele><time>2026-05-04T08:34:29.001Z</time></trkpt><trkpt lat="43.76739493136942" lon="10.714173798213139"><ele>39.0</ele><time>2026-05-04T08:34:30.001Z</time></trkpt><trkpt lat="43.76738029467205" lon="10.713877185590544"><ele>37.333333333333336</ele><time>2026-05-04T08:34:31.001Z</time></trkpt><trkpt lat="43.76736678359685" lon="10.713601238086339"><ele>35.66666666666667</ele><time>2026-05-04T08:34:32.001Z</time></trkpt><trkpt lat="43.76735345221604" lon="10.713358544479869"><ele>34.0</ele><time>2026-05-04T08:34:33.001Z</time></trkpt><trkpt lat="43.76733501484308" lon="10.713130030185228"><ele>33.5</ele><time>2026-05-04T08:34:34.001Z</time></trkpt><trkpt lat="43.767310067507985" lon="10.71293156467475"><ele>33.0</ele><time>2026-05-04T08:34:35.001Z</time></trkpt><trkpt lat="43.76727680338578" lon="10.712745343181613"><ele>32.5</ele><time>2026-05-04T08:34:36.001Z</time></trkpt><trkpt lat="43.76723998384845" lon="10.712579411537618"><ele>32.0</ele><time>2026-05-04T08:34:37.001Z</time></trkpt><trkpt lat="43.767204835020536" lon="10.71242709890281"><ele>31.75</ele><time>2026-05-04T08:34:38.001Z</time></trkpt><trkpt lat="43.767171269795035" lon="10.7122952882773"><ele>31.5</ele><time>2026-05-04T08:34:39.001Z</time></trkpt><trkpt lat="43.76714356182885" lon="10.712144837819677"><ele>31.25</ele><time>2026-05-04T08:34:40.001Z</time></trkpt><trkpt lat="43.76709883320456" lon="10.71197388845984"><ele>31.0</ele><time>2026-05-04T08:34:41.001Z</time></trkpt><trkpt lat="43.767026602965274" lon="10.71181072856375"><ele>31.0</ele><time>2026-05-04T08:34:42.001Z</time></trkpt><trkpt lat="43.76694476163638" lon="10.711654999266862"><ele>31.0</ele><time>2026-05-04T08:34:43.001Z</time></trkpt><trkpt lat="43.76682304366334" lon="10.711521432510942"><ele>31.0</ele><time>2026-05-04T08:34:44.001Z</time></trkpt><trkpt lat="43.766677690603004" lon="10.711405865340902"><ele>31.0</ele><time>2026-05-04T08:34:45.001Z</time></trkpt><trkpt lat="43.766529169243015" lon="10.711279443379695"><ele>31.0</ele><time>2026-05-04T08:34:46.001Z</time></trkpt><trkpt lat="43.76636854902376" lon="10.71115741267124"><ele>31.0</ele><time>2026-05-04T08:34:47.001Z</time></trkpt><trkpt lat="43.76620682388743" lon="10.711034262606677"><ele>31.333333333333336</ele><time>2026-05-04T08:34:48.001Z</time></trkpt><trkpt lat="43.76603952221345" lon="10.71090671758376"><ele>31.666666666666664</ele><time>2026-05-04T08:34:49.001Z</time></trkpt><trkpt lat="43.76587929161837" lon="10.71078090098241"><ele>32.0</ele><time>2026-05-04T08:34:50.001Z</time></trkpt><trkpt lat="43.76574319265788" lon="10.710643835215373"><ele>32.0</ele><time>2026-05-04T08:34:51.001Z</time></trkpt><trkpt lat="43.7656377561573" lon="10.71046712816696"><ele>32.0</ele><time>2026-05-04T08:34:52.001Z</time></trkpt><trkpt lat="43.76553644475853" lon="10.71027362017468"><ele>32.0</ele><time>2026-05-04T08:34:53.001Z</time></trkpt><trkpt lat="43.76541956741506" lon="10.710083318044424"><ele>31.666666666666664</ele><time>2026-05-04T08:34:54.001Z</time></trkpt><trkpt lat="43.76531779867731" lon="10.709875775238697"><ele>31.333333333333336</ele><time>2026-05-04T08:34:55.001Z</time></trkpt><trkpt lat="43.76521055813733" lon="10.70965987984827"><ele>31.0</ele><time>2026-05-04T08:34:56.001Z</time></trkpt><trkpt lat="43.765098188270755" lon="10.709447991033011"><ele>30.0</ele><time>2026-05-04T08:34:57.001Z</time></trkpt><trkpt lat="43.76498555637429" lon="10.709228395459261"><ele>29.0</ele><time>2026-05-04T08:34:58.001Z</time></trkpt><trkpt lat="43.76486979790557" lon="10.709008338040197"><ele>28.0</ele><time>2026-05-04T08:34:59.001Z</time></trkpt><trkpt lat="43.76475264844038" lon="10.708790607146824"><ele>28.0</ele><time>2026-05-04T08:35:00.001Z</time></trkpt><trkpt lat="43.76463197179363" lon="10.708578036654608"><ele>28.0</ele><time>2026-05-04T08:35:01.001Z</time></trkpt><trkpt lat="43.764513545055415" lon="10.708390290207673"><ele>28.0</ele><time>2026-05-04T08:35:02.001Z</time></trkpt><trkpt lat="43.76438686420229" lon="10.708225264317766"><ele>26.0</ele><time>2026-05-04T08:35:03.001Z</time></trkpt><trkpt lat="43.76424034962183" lon="10.708090961641608"><ele>24.0</ele><time>2026-05-04T08:35:04.001Z</time></trkpt><trkpt lat="43.76407606224597" lon="10.707982167925913"><ele>22.0</ele><time>2026-05-04T08:35:05.001Z</time></trkpt><trkpt lat="43.76389987018849" lon="10.707907424290841"><ele>22.0</ele><time>2026-05-04T08:35:06.001Z</time></trkpt><trkpt lat="43.76371487809676" lon="10.707834822845818"><ele>22.0</ele><time>2026-05-04T08:35:07.001Z</time></trkpt><trkpt lat="43.76353227175457" lon="10.707738575081105"><ele>22.0</ele><time>2026-05-04T08:35:08.001Z</time></trkpt><trkpt lat="43.76334046399047" lon="10.707659961879358"><ele>21.333333333333332</ele><time>2026-05-04T08:35:09.001Z</time></trkpt><trkpt lat="43.763139152564655" lon="10.707601301798173"><ele>20.666666666666668</ele><time>2026-05-04T08:35:10.001Z</time></trkpt><trkpt lat="43.762944405663454" lon="10.707497032382097"><ele>20.0</ele><time>2026-05-04T08:35:11.001Z</time></trkpt><trkpt lat="43.76274401748673" lon="10.707415198156145"><ele>19.333333333333336</ele><time>2026-05-04T08:35:12.001Z</time></trkpt><trkpt lat="43.76254651435641" lon="10.70733542466442"><ele>18.666666666666668</ele><time>2026-05-04T08:35:13.001Z</time></trkpt><trkpt lat="43.76234786421404" lon="10.70725627822834"><ele>18.0</ele><time>2026-05-04T08:35:14.001Z</time></trkpt><trkpt lat="43.76215139822309" lon="10.707191920410457"><ele>18.0</ele><time>2026-05-04T08:35:15.001Z</time></trkpt><trkpt lat="43.7619847471493" lon="10.707079199314897"><ele>18.0</ele><time>2026-05-04T08:35:16.001Z</time></trkpt><trkpt lat="43.76185509835645" lon="10.706895669982485"><ele>18.0</ele><time>2026-05-04T08:35:17.001Z</time></trkpt><trkpt lat="43.76173182987381" lon="10.70670149424265"><ele>19.333333333333332</ele><time>2026-05-04T08:35:18.001Z</time></trkpt><trkpt lat="43.76161844589142" lon="10.706497638921672"><ele>20.666666666666664</ele><time>2026-05-04T08:35:19.001Z</time></trkpt><trkpt lat="43.76150390439963" lon="10.706290968661172"><ele>22.0</ele><time>2026-05-04T08:35:20.001Z</time></trkpt><trkpt lat="43.76142681624036" lon="10.706048042174546"><ele>22.0</ele><time>2026-05-04T08:35:21.001Z</time></trkpt><trkpt lat="43.76135298413313" lon="10.705792972918136"><ele>22.0</ele><time>2026-05-04T08:35:22.001Z</time></trkpt><trkpt lat="43.76129099722119" lon="10.705549842503666"><ele>22.0</ele><time>2026-05-04T08:35:23.001Z</time></trkpt><trkpt lat="43.76121557437502" lon="10.705290355780432"><ele>21.0</ele><time>2026-05-04T08:35:24.001Z</time></trkpt><trkpt lat="43.76114388647906" lon="10.705043338565376"><ele>20.0</ele><time>2026-05-04T08:35:25.001Z</time></trkpt><trkpt lat="43.76107086968239" lon="10.704813519069122"><ele>19.0</ele><time>2026-05-04T08:35:26.001Z</time></trkpt><trkpt lat="43.7609922444672" lon="10.704605420529825"><ele>20.25</ele><time>2026-05-04T08:35:27.001Z</time></trkpt><trkpt lat="43.76089780406053" lon="10.70444542753496"><ele>21.5</ele><time>2026-05-04T08:35:28.001Z</time></trkpt><trkpt lat="43.760778908000745" lon="10.704340131489232"><ele>22.75</ele><time>2026-05-04T08:35:29.001Z</time></trkpt><trkpt lat="43.76064386702579" lon="10.704306942086829"><ele>24.0</ele><time>2026-05-04T08:35:30.001Z</time></trkpt><trkpt lat="43.760509406333824" lon="10.704358918962152"><ele>24.0</ele><time>2026-05-04T08:35:31.001Z</time></trkpt><trkpt lat="43.76037120028573" lon="10.704458836325966"><ele>24.0</ele><time>2026-05-04T08:35:32.001Z</time></trkpt><trkpt lat="43.76022071589494" lon="10.704561037742186"><ele>24.0</ele><time>2026-05-04T08:35:33.001Z</time></trkpt><trkpt lat="43.76005545768095" lon="10.70463686729267"><ele>24.0</ele><time>2026-05-04T08:35:34.001Z</time></trkpt><trkpt lat="43.75990695919929" lon="10.704716824553499"><ele>24.0</ele><time>2026-05-04T08:35:35.001Z</time></trkpt><trkpt lat="43.75977011430698" lon="10.704788909210427"><ele>24.0</ele><time>2026-05-04T08:35:36.001Z</time></trkpt><trkpt lat="43.75964467768051" lon="10.704835624004756"><ele>24.0</ele><time>2026-05-04T08:35:37.001Z</time></trkpt><trkpt lat="43.75952876593298" lon="10.704838626574107"><ele>24.0</ele><time>2026-05-04T08:35:38.001Z</time></trkpt><trkpt lat="43.75942753126741" lon="10.704757160754786"><ele>24.0</ele><time>2026-05-04T08:35:39.001Z</time></trkpt><trkpt lat="43.75935192979479" lon="10.704627199056235"><ele>24.0</ele><time>2026-05-04T08:35:40.001Z</time></trkpt><trkpt lat="43.75926138462352" lon="10.704456249495697"><ele>24.0</ele><time>2026-05-04T08:35:41.001Z</time></trkpt><trkpt lat="43.759182720360194" lon="10.704276819322184"><ele>22.666666666666668</ele><time>2026-05-04T08:35:42.001Z</time></trkpt><trkpt lat="43.75909518975941" lon="10.704126373757562"><ele>21.333333333333336</ele><time>2026-05-04T08:35:43.001Z</time></trkpt><trkpt lat="43.758957943416675" lon="10.704003164007684"><ele>20.0</ele><time>2026-05-04T08:35:44.001Z</time></trkpt><trkpt lat="43.7587947099653" lon="10.703946484829109"><ele>20.0</ele><time>2026-05-04T08:35:45.001Z</time></trkpt><trkpt lat="43.75862957012759" lon="10.703909267393117"><ele>20.0</ele><time>2026-05-04T08:35:46.001Z</time></trkpt><trkpt lat="43.758450625818185" lon="10.703894147015367"><ele>20.0</ele><time>2026-05-04T08:35:47.001Z</time></trkpt><trkpt lat="43.75826683834768" lon="10.703862014631676"><ele>18.0</ele><time>2026-05-04T08:35:48.001Z</time></trkpt><trkpt lat="43.75808931581773" lon="10.703845865477332"><ele>16.0</ele><time>2026-05-04T08:35:49.001Z</time></trkpt><trkpt lat="43.75789745571878" lon="10.703851916887691"><ele>14.0</ele><time>2026-05-04T08:35:50.002Z</time></trkpt><trkpt lat="43.75769856704477" lon="10.703832978340616"><ele>13.666666666666668</ele><time>2026-05-04T08:35:51.001Z</time></trkpt><trkpt lat="43.75751381772892" lon="10.703796354848384"><ele>13.333333333333332</ele><time>2026-05-04T08:35:52.001Z</time></trkpt><trkpt lat="43.757345008602215" lon="10.703778199653323"><ele>13.0</ele><time>2026-05-04T08:35:53.001Z</time></trkpt><trkpt lat="43.75719515164653" lon="10.703766639359156"><ele>13.0</ele><time>2026-05-04T08:35:54.001Z</time></trkpt><trkpt lat="43.757055495123055" lon="10.703689294522343"><ele>13.0</ele><time>2026-05-04T08:35:55.001Z</time></trkpt><trkpt lat="43.756936217331706" lon="10.703560502298354"><ele>13.0</ele><time>2026-05-04T08:35:56.001Z</time></trkpt><trkpt lat="43.756830875688216" lon="10.703399426096507"><ele>14.333333333333332</ele><time>2026-05-04T08:35:57.001Z</time></trkpt><trkpt lat="43.7567438836886" lon="10.703210656555619"><ele>15.666666666666668</ele><time>2026-05-04T08:35:58.001Z</time></trkpt><trkpt lat="43.756658164764204" lon="10.703010623851696"><ele>17.0</ele><time>2026-05-04T08:35:59.001Z</time></trkpt><trkpt lat="43.756577177816624" lon="10.702833150248662"><ele>17.0</ele><time>2026-05-04T08:36:00.001Z</time></trkpt><trkpt lat="43.75649639599597" lon="10.702687140373417"><ele>17.0</ele><time>2026-05-04T08:36:01.001Z</time></trkpt><trkpt lat="43.75639531804853" lon="10.702553696833444"><ele>17.0</ele><time>2026-05-04T08:36:02.001Z</time></trkpt><trkpt lat="43.75628333394001" lon="10.702463452512331"><ele>17.0</ele><time>2026-05-04T08:36:03.001Z</time></trkpt><trkpt lat="43.756141588193266" lon="10.70240825089997"><ele>19.333333333333336</ele><time>2026-05-04T08:36:04.001Z</time></trkpt><trkpt lat="43.75598700709417" lon="10.70237699878376"><ele>21.666666666666668</ele><time>2026-05-04T08:36:05.001Z</time></trkpt><trkpt lat="43.75582342301171" lon="10.702366895346156"><ele>24.0</ele><time>2026-05-04T08:36:06.001Z</time></trkpt><trkpt lat="43.755653578848786" lon="10.702360321668566"><ele>24.0</ele><time>2026-05-04T08:36:07.001Z</time></trkpt><trkpt lat="43.75548075825733" lon="10.702341002284985"><ele>24.0</ele><time>2026-05-04T08:36:08.001Z</time></trkpt><trkpt lat="43.755297569744876" lon="10.702317537036267"><ele>24.0</ele><time>2026-05-04T08:36:09.001Z</time></trkpt><trkpt lat="43.75510859072014" lon="10.702294616065378"><ele>25.0</ele><time>2026-05-04T08:36:10.001Z</time></trkpt><trkpt lat="43.75491654466984" lon="10.702244238228168"><ele>26.0</ele><time>2026-05-04T08:36:11.001Z</time></trkpt><trkpt lat="43.75473922009417" lon="10.702219476617758"><ele>27.0</ele><time>2026-05-04T08:36:12.001Z</time></trkpt><trkpt lat="43.75457919964045" lon="10.702197568638024"><ele>27.0</ele><time>2026-05-04T08:36:13.001Z</time></trkpt><trkpt lat="43.75444022913419" lon="10.702176344472672"><ele>27.0</ele><time>2026-05-04T08:36:14.001Z</time></trkpt><trkpt lat="43.754311306377765" lon="10.702155905960836"><ele>27.0</ele><time>2026-05-04T08:36:15.001Z</time></trkpt><trkpt lat="43.75420376789425" lon="10.70213885754303"><ele>27.0</ele><time>2026-05-04T08:36:16.001Z</time></trkpt><trkpt lat="43.754110912345084" lon="10.702119988427969"><ele>27.400000000000002</ele><time>2026-05-04T08:36:17.001Z</time></trkpt><trkpt lat="43.75401529547956" lon="10.702089084887861"><ele>27.800000000000004</ele><time>2026-05-04T08:36:18.001Z</time></trkpt><trkpt lat="43.75391569922589" lon="10.70203087135763"><ele>28.2</ele><time>2026-05-04T08:36:19.001Z</time></trkpt><trkpt lat="43.753815265276366" lon="10.701966204393786"><ele>28.6</ele><time>2026-05-04T08:36:20.001Z</time></trkpt><trkpt lat="43.75370795615879" lon="10.701902848955198"><ele>29.0</ele><time>2026-05-04T08:36:21.001Z</time></trkpt><trkpt lat="43.75359170130279" lon="10.701849423624832"><ele>29.75</ele><time>2026-05-04T08:36:22.001Z</time></trkpt><trkpt lat="43.75347328081669" lon="10.701774059008365"><ele>30.5</ele><time>2026-05-04T08:36:23.001Z</time></trkpt><trkpt lat="43.75334684239433" lon="10.701702259648014"><ele>31.25</ele><time>2026-05-04T08:36:24.001Z</time></trkpt><trkpt lat="43.75321904203937" lon="10.701620663006254"><ele>32.0</ele><time>2026-05-04T08:36:25.001Z</time></trkpt><trkpt lat="43.753097138960946" lon="10.701541131023882"><ele>32.0</ele><time>2026-05-04T08:36:26.001Z</time></trkpt><trkpt lat="43.75297981306535" lon="10.701471438072536"><ele>32.0</ele><time>2026-05-04T08:36:27.001Z</time></trkpt><trkpt lat="43.752876291884576" lon="10.701407761822749"><ele>32.0</ele><time>2026-05-04T08:36:28.001Z</time></trkpt><trkpt lat="43.752777513811346" lon="10.701344567927388"><ele>32.0</ele><time>2026-05-04T08:36:29.001Z</time></trkpt><trkpt lat="43.75268478518163" lon="10.70128863606044"><ele>32.33333333333333</ele><time>2026-05-04T08:36:30.001Z</time></trkpt><trkpt lat="43.752596270903524" lon="10.701235579887511"><ele>32.666666666666664</ele><time>2026-05-04T08:36:31.001Z</time></trkpt><trkpt lat="43.752516504152396" lon="10.701190016371172"><ele>33.0</ele><time>2026-05-04T08:36:32.001Z</time></trkpt><trkpt lat="43.752440719157484" lon="10.701143783125666"><ele>33.333333333333336</ele><time>2026-05-04T08:36:33.001Z</time></trkpt><trkpt lat="43.75237525909108" lon="10.701105207571667"><ele>33.66666666666667</ele><time>2026-05-04T08:36:34.001Z</time></trkpt><trkpt lat="43.75231457037854" lon="10.701066497785282"><ele>34.0</ele><time>2026-05-04T08:36:35.001Z</time></trkpt><trkpt lat="43.752195966495115" lon="10.700998726514287"><ele>34.0</ele><time>2026-05-04T08:36:37.001Z</time></trkpt><trkpt lat="43.75213624256548" lon="10.700970023825397"><ele>34.0</ele><time>2026-05-04T08:36:38.001Z</time></trkpt><trkpt lat="43.75201923718809" lon="10.700949258978035"><ele>34.0</ele><time>2026-05-04T08:36:40.001Z</time></trkpt><trkpt lat="43.75194811252905" lon="10.700983952248704"><ele>34.0</ele><time>2026-05-04T08:36:41.001Z</time></trkpt><trkpt lat="43.75186995731958" lon="10.70104414425727"><ele>34.0</ele><time>2026-05-04T08:36:42.001Z</time></trkpt><trkpt lat="43.751785871337184" lon="10.701114840266968"><ele>34.0</ele><time>2026-05-04T08:36:43.001Z</time></trkpt><trkpt lat="43.751687318416685" lon="10.701183600838066"><ele>34.25</ele><time>2026-05-04T08:36:44.001Z</time></trkpt><trkpt lat="43.751576052549716" lon="10.701256511989575"><ele>34.5</ele><time>2026-05-04T08:36:45.001Z</time></trkpt><trkpt lat="43.751460547705804" lon="10.701334161443336"><ele>34.75</ele><time>2026-05-04T08:36:46.001Z</time></trkpt><trkpt lat="43.75136014482832" lon="10.701403672002842"><ele>35.0</ele><time>2026-05-04T08:36:47.001Z</time></trkpt><trkpt lat="43.751265777109026" lon="10.701472673383039"><ele>35.0</ele><time>2026-05-04T08:36:48.001Z</time></trkpt><trkpt lat="43.75117484237988" lon="10.701534899379807"><ele>35.0</ele><time>2026-05-04T08:36:49.001Z</time></trkpt><trkpt lat="43.751073420273485" lon="10.701548790955938"><ele>35.0</ele><time>2026-05-04T08:36:50.001Z</time></trkpt><trkpt lat="43.75099044318026" lon="10.7015615755351"><ele>35.0</ele><time>2026-05-04T08:36:51.001Z</time></trkpt><trkpt lat="43.750915169513576" lon="10.701503338341974"><ele>35.0</ele><time>2026-05-04T08:36:52.001Z</time></trkpt><trkpt lat="43.75085206038095" lon="10.701401212514455"><ele>34.8</ele><time>2026-05-04T08:36:53.001Z</time></trkpt><trkpt lat="43.75079988039138" lon="10.701303481269553"><ele>34.6</ele><time>2026-05-04T08:36:54.001Z</time></trkpt><trkpt lat="43.750739957571035" lon="10.701203878615141"><ele>34.4</ele><time>2026-05-04T08:36:55.001Z</time></trkpt><trkpt lat="43.750670990315996" lon="10.701098350521137"><ele>34.2</ele><time>2026-05-04T08:36:56.001Z</time></trkpt><trkpt lat="43.75060268761673" lon="10.700985247946967"><ele>34.0</ele><time>2026-05-04T08:36:57.001Z</time></trkpt><trkpt lat="43.75052966100167" lon="10.700867958810264"><ele>34.0</ele><time>2026-05-04T08:36:58.001Z</time></trkpt><trkpt lat="43.75045990501851" lon="10.700751620002217"><ele>34.0</ele><time>2026-05-04T08:36:59.001Z</time></trkpt><trkpt lat="43.7503948515866" lon="10.700631006874374"><ele>34.0</ele><time>2026-05-04T08:37:00.001Z</time></trkpt><trkpt lat="43.750333124062024" lon="10.700502879850955"><ele>34.0</ele><time>2026-05-04T08:37:01.001Z</time></trkpt><trkpt lat="43.75027322798806" lon="10.700372023848908"><ele>34.0</ele><time>2026-05-04T08:37:02.001Z</time></trkpt><trkpt lat="43.75021371545098" lon="10.700231544526455"><ele>32.0</ele><time>2026-05-04T08:37:03.001Z</time></trkpt><trkpt lat="43.7501589863981" lon="10.700082563457677"><ele>30.0</ele><time>2026-05-04T08:37:04.001Z</time></trkpt><trkpt lat="43.75009503313289" lon="10.69993402500139"><ele>28.0</ele><time>2026-05-04T08:37:05.001Z</time></trkpt><trkpt lat="43.750038181248534" lon="10.69977796508644"><ele>26.0</ele><time>2026-05-04T08:37:06.001Z</time></trkpt><trkpt lat="43.749985846228334" lon="10.699612661990134"><ele>26.0</ele><time>2026-05-04T08:37:07.001Z</time></trkpt><trkpt lat="43.74990223186021" lon="10.699475904480597"><ele>26.0</ele><time>2026-05-04T08:37:08.001Z</time></trkpt><trkpt lat="43.74981556603919" lon="10.699334908853299"><ele>26.0</ele><time>2026-05-04T08:37:09.001Z</time></trkpt><trkpt lat="43.74972170119589" lon="10.699209546290529"><ele>26.0</ele><time>2026-05-04T08:37:10.001Z</time></trkpt><trkpt lat="43.74961862714552" lon="10.699080386594487"><ele>26.0</ele><time>2026-05-04T08:37:11.001Z</time></trkpt><trkpt lat="43.74951770130949" lon="10.69895276946296"><ele>26.0</ele><time>2026-05-04T08:37:12.001Z</time></trkpt><trkpt lat="43.74942232401002" lon="10.698822113595948"><ele>26.0</ele><time>2026-05-04T08:37:13.001Z</time></trkpt><trkpt lat="43.74934253886901" lon="10.698709595497158"><ele>26.0</ele><time>2026-05-04T08:37:14.001Z</time></trkpt><trkpt lat="43.74926637410091" lon="10.69862039306106"><ele>24.75</ele><time>2026-05-04T08:37:15.001Z</time></trkpt><trkpt lat="43.74921252815337" lon="10.698537949078407"><ele>23.5</ele><time>2026-05-04T08:37:16.001Z</time></trkpt><trkpt lat="43.74914397764134" lon="10.698472857581004"><ele>22.25</ele><time>2026-05-04T08:37:18.001Z</time></trkpt><trkpt lat="43.74901556074397" lon="10.698679678543883"><ele>21.0</ele><time>2026-05-04T08:37:19.001Z</time></trkpt><trkpt lat="43.74896833019027" lon="10.698801169559623"><ele>21.0</ele><time>2026-05-04T08:37:20.001Z</time></trkpt><trkpt lat="43.74890884738341" lon="10.698929367813662"><ele>21.0</ele><time>2026-05-04T08:37:21.001Z</time></trkpt><trkpt lat="43.74884017191634" lon="10.699062059784268"><ele>21.0</ele><time>2026-05-04T08:37:22.001Z</time></trkpt><trkpt lat="43.748768183699866" lon="10.699203557946403"><ele>21.0</ele><time>2026-05-04T08:37:23.001Z</time></trkpt><trkpt lat="43.74869132205218" lon="10.699353443194482"><ele>21.0</ele><time>2026-05-04T08:37:24.001Z</time></trkpt><trkpt lat="43.74861037125378" lon="10.699507153321669"><ele>21.0</ele><time>2026-05-04T08:37:25.001Z</time></trkpt><trkpt lat="43.7485255400724" lon="10.69966309128146"><ele>21.0</ele><time>2026-05-04T08:37:26.001Z</time></trkpt><trkpt lat="43.74844293950947" lon="10.699821657320916"><ele>21.0</ele><time>2026-05-04T08:37:27.001Z</time></trkpt><trkpt lat="43.74834552859411" lon="10.699969726159617"><ele>21.0</ele><time>2026-05-04T08:37:28.001Z</time></trkpt><trkpt lat="43.74825751608428" lon="10.70013164657115"><ele>21.0</ele><time>2026-05-04T08:37:29.001Z</time></trkpt><trkpt lat="43.748168570725106" lon="10.700296798536932"><ele>21.0</ele><time>2026-05-04T08:37:30.001Z</time></trkpt><trkpt lat="43.74808072795723" lon="10.700460640831043"><ele>21.0</ele><time>2026-05-04T08:37:31.001Z</time></trkpt><trkpt lat="43.74800357659306" lon="10.70064128518885"><ele>20.666666666666668</ele><time>2026-05-04T08:37:32.001Z</time></trkpt><trkpt lat="43.747911795177885" lon="10.70080570665698"><ele>20.333333333333336</ele><time>2026-05-04T08:37:33.001Z</time></trkpt><trkpt lat="43.74781971919543" lon="10.700975189758163"><ele>20.0</ele><time>2026-05-04T08:37:34.001Z</time></trkpt><trkpt lat="43.74773100201638" lon="10.70113928797356"><ele>23.5</ele><time>2026-05-04T08:37:35.001Z</time></trkpt><trkpt lat="43.74763760901855" lon="10.701292054369487"><ele>27.0</ele><time>2026-05-04T08:37:36.001Z</time></trkpt><trkpt lat="43.747533518956764" lon="10.70144858015043"><ele>30.5</ele><time>2026-05-04T08:37:37.001Z</time></trkpt><trkpt lat="43.74742723607195" lon="10.701592851297653"><ele>34.0</ele><time>2026-05-04T08:37:38.001Z</time></trkpt><trkpt lat="43.74731561574654" lon="10.701736887843499"><ele>34.0</ele><time>2026-05-04T08:37:39.001Z</time></trkpt><trkpt lat="43.747205647680886" lon="10.701880808297327"><ele>34.0</ele><time>2026-05-04T08:37:40.001Z</time></trkpt><trkpt lat="43.747091571933986" lon="10.702026115143136"><ele>34.0</ele><time>2026-05-04T08:37:41.001Z</time></trkpt><trkpt lat="43.746962742400505" lon="10.702148531212712"><ele>37.333333333333336</ele><time>2026-05-04T08:37:42.001Z</time></trkpt><trkpt lat="43.74684790300417" lon="10.70231116398876"><ele>40.666666666666664</ele><time>2026-05-04T08:37:43.001Z</time></trkpt><trkpt lat="43.74671987129689" lon="10.702452277778036"><ele>44.0</ele><time>2026-05-04T08:37:44.001Z</time></trkpt><trkpt lat="43.746594216328916" lon="10.702600104682766"><ele>44.33333333333333</ele><time>2026-05-04T08:37:45.001Z</time></trkpt><trkpt lat="43.74646375710223" lon="10.702754563831807"><ele>44.666666666666664</ele><time>2026-05-04T08:37:46.001Z</time></trkpt><trkpt lat="43.74633173483421" lon="10.702904804708862"><ele>45.0</ele><time>2026-05-04T08:37:47.001Z</time></trkpt><trkpt lat="43.74619455507832" lon="10.703063174373417"><ele>45.0</ele><time>2026-05-04T08:37:48.001Z</time></trkpt><trkpt lat="43.746060028112105" lon="10.70322236881763"><ele>45.0</ele><time>2026-05-04T08:37:49.001Z</time></trkpt><trkpt lat="43.745927109753644" lon="10.703391339291082"><ele>45.0</ele><time>2026-05-04T08:37:50.001Z</time></trkpt><trkpt lat="43.745800048021756" lon="10.703565765077954"><ele>45.666666666666664</ele><time>2026-05-04T08:37:51.001Z</time></trkpt><trkpt lat="43.745681470387325" lon="10.70375354293477"><ele>46.33333333333333</ele><time>2026-05-04T08:37:52.001Z</time></trkpt><trkpt lat="43.74556554114151" lon="10.703953868033931"><ele>47.0</ele><time>2026-05-04T08:37:53.001Z</time></trkpt><trkpt lat="43.74544191051035" lon="10.704152614813038"><ele>47.0</ele><time>2026-05-04T08:37:54.001Z</time></trkpt><trkpt lat="43.74535379304315" lon="10.704384194548117"><ele>47.0</ele><time>2026-05-04T08:37:55.001Z</time></trkpt><trkpt lat="43.74525649956466" lon="10.704609816235461"><ele>47.0</ele><time>2026-05-04T08:37:56.001Z</time></trkpt><trkpt lat="43.74516781207302" lon="10.704839600378527"><ele>48.666666666666664</ele><time>2026-05-04T08:37:57.001Z</time></trkpt><trkpt lat="43.74508192347819" lon="10.705075616932875"><ele>50.33333333333333</ele><time>2026-05-04T08:37:58.001Z</time></trkpt><trkpt lat="43.74499949817125" lon="10.705313981571607"><ele>52.0</ele><time>2026-05-04T08:37:59.001Z</time></trkpt><trkpt lat="43.74492295446098" lon="10.705555019085477"><ele>53.33333333333333</ele><time>2026-05-04T08:38:00.001Z</time></trkpt><trkpt lat="43.74484724653829" lon="10.705795777446314"><ele>54.66666666666667</ele><time>2026-05-04T08:38:01.001Z</time></trkpt><trkpt lat="43.744772693852106" lon="10.706024841003309"><ele>56.0</ele><time>2026-05-04T08:38:02.001Z</time></trkpt><trkpt lat="43.74469130661156" lon="10.706235961733562"><ele>56.66666666666667</ele><time>2026-05-04T08:38:03.001Z</time></trkpt><trkpt lat="43.744604165374554" lon="10.7064459732466"><ele>57.33333333333333</ele><time>2026-05-04T08:38:04.001Z</time></trkpt><trkpt lat="43.7445138509862" lon="10.706640412321569"><ele>58.0</ele><time>2026-05-04T08:38:05.001Z</time></trkpt><trkpt lat="43.74441641036053" lon="10.706844896817328"><ele>58.0</ele><time>2026-05-04T08:38:06.001Z</time></trkpt><trkpt lat="43.744312309366805" lon="10.707052187075995"><ele>58.0</ele><time>2026-05-04T08:38:07.001Z</time></trkpt><trkpt lat="43.744205965398514" lon="10.707256633179213"><ele>58.0</ele><time>2026-05-04T08:38:08.001Z</time></trkpt><trkpt lat="43.74409794819465" lon="10.707466161626531"><ele>58.0</ele><time>2026-05-04T08:38:09.001Z</time></trkpt><trkpt lat="43.7439850324065" lon="10.70768414193504"><ele>58.0</ele><time>2026-05-04T08:38:10.001Z</time></trkpt><trkpt lat="43.74386787482537" lon="10.70790936819074"><ele>58.0</ele><time>2026-05-04T08:38:11.001Z</time></trkpt><trkpt lat="43.74375337887399" lon="10.708131237685159"><ele>58.33333333333333</ele><time>2026-05-04T08:38:12.001Z</time></trkpt><trkpt lat="43.74361528120186" lon="10.708356887215324"><ele>58.66666666666667</ele><time>2026-05-04T08:38:13.001Z</time></trkpt><trkpt lat="43.743495417186196" lon="10.70858643633327"><ele>59.0</ele><time>2026-05-04T08:38:14.001Z</time></trkpt><trkpt lat="43.74337051267561" lon="10.708825638553591"><ele>60.333333333333336</ele><time>2026-05-04T08:38:15.001Z</time></trkpt><trkpt lat="43.74324224275647" lon="10.709068242736176"><ele>61.66666666666667</ele><time>2026-05-04T08:38:16.001Z</time></trkpt><trkpt lat="43.743114099677214" lon="10.709314011924835"><ele>63.0</ele><time>2026-05-04T08:38:17.001Z</time></trkpt><trkpt lat="43.74298604383392" lon="10.709559464197136"><ele>63.66666666666667</ele><time>2026-05-04T08:38:18.001Z</time></trkpt><trkpt lat="43.7428522064392" lon="10.709813190382944"><ele>64.33333333333334</ele><time>2026-05-04T08:38:19.001Z</time></trkpt><trkpt lat="43.7427223005037" lon="10.710051625544743"><ele>65.0</ele><time>2026-05-04T08:38:20.001Z</time></trkpt><trkpt lat="43.74257748547872" lon="10.710301038792993"><ele>66.0</ele><time>2026-05-04T08:38:21.001Z</time></trkpt><trkpt lat="43.74243277035709" lon="10.71053306040939"><ele>67.0</ele><time>2026-05-04T08:38:22.001Z</time></trkpt><trkpt lat="43.742282151762716" lon="10.710757268548498"><ele>68.0</ele><time>2026-05-04T08:38:23.001Z</time></trkpt><trkpt lat="43.7421237735686" lon="10.710973906039763"><ele>67.0</ele><time>2026-05-04T08:38:24.001Z</time></trkpt><trkpt lat="43.741962348880854" lon="10.71119514243346"><ele>66.0</ele><time>2026-05-04T08:38:25.001Z</time></trkpt><trkpt lat="43.7418142460101" lon="10.71142473094521"><ele>66.0</ele><time>2026-05-04T08:38:26.001Z</time></trkpt><trkpt lat="43.74165257340472" lon="10.711641958762598"><ele>66.0</ele><time>2026-05-04T08:38:27.001Z</time></trkpt><trkpt lat="43.74149339625253" lon="10.711862222215045"><ele>67.0</ele><time>2026-05-04T08:38:28.001Z</time></trkpt><trkpt lat="43.74132269563177" lon="10.712063163093006"><ele>68.0</ele><time>2026-05-04T08:38:29.001Z</time></trkpt><trkpt lat="43.74116424049603" lon="10.712269143970516"><ele>69.0</ele><time>2026-05-04T08:38:30.001Z</time></trkpt><trkpt lat="43.74099991299568" lon="10.712460295478985"><ele>69.0</ele><time>2026-05-04T08:38:31.001Z</time></trkpt><trkpt lat="43.740827184216535" lon="10.712638234968628"><ele>69.0</ele><time>2026-05-04T08:38:32.001Z</time></trkpt><trkpt lat="43.74064982216617" lon="10.712801474655556"><ele>69.0</ele><time>2026-05-04T08:38:33.001Z</time></trkpt><trkpt lat="43.74046625950097" lon="10.712951824028654"><ele>68.33333333333333</ele><time>2026-05-04T08:38:34.001Z</time></trkpt><trkpt lat="43.74028302166123" lon="10.713099416926982"><ele>67.66666666666666</ele><time>2026-05-04T08:38:35.001Z</time></trkpt><trkpt lat="43.74010013561865" lon="10.713250252168526"><ele>67.0</ele><time>2026-05-04T08:38:36.001Z</time></trkpt><trkpt lat="43.739936364021574" lon="10.713429382011354"><ele>67.0</ele><time>2026-05-04T08:38:37.001Z</time></trkpt><trkpt lat="43.73976012963202" lon="10.713592114024147"><ele>67.0</ele><time>2026-05-04T08:38:38.001Z</time></trkpt><trkpt lat="43.739600443682356" lon="10.71377695660094"><ele>67.0</ele><time>2026-05-04T08:38:39.001Z</time></trkpt><trkpt lat="43.739448668448226" lon="10.713975626310829"><ele>66.66666666666666</ele><time>2026-05-04T08:38:40.001Z</time></trkpt><trkpt lat="43.739321217078405" lon="10.714199331292098"><ele>66.33333333333333</ele><time>2026-05-04T08:38:41.001Z</time></trkpt><trkpt lat="43.739189555208526" lon="10.714419715124855"><ele>66.0</ele><time>2026-05-04T08:38:42.001Z</time></trkpt><trkpt lat="43.73907346475736" lon="10.714647157774271"><ele>68.0</ele><time>2026-05-04T08:38:43.001Z</time></trkpt><trkpt lat="43.73896276217183" lon="10.714883697556955"><ele>70.0</ele><time>2026-05-04T08:38:44.001Z</time></trkpt><trkpt lat="43.73885651474136" lon="10.715124599132361"><ele>72.0</ele><time>2026-05-04T08:38:45.001Z</time></trkpt><trkpt lat="43.73873690422429" lon="10.715357649049333"><ele>71.66666666666667</ele><time>2026-05-04T08:38:46.001Z</time></trkpt><trkpt lat="43.738628057698925" lon="10.715601380887357"><ele>71.33333333333334</ele><time>2026-05-04T08:38:47.001Z</time></trkpt><trkpt lat="43.73851750254017" lon="10.715835134980253"><ele>71.0</ele><time>2026-05-04T08:38:48.001Z</time></trkpt><trkpt lat="43.73839813999386" lon="10.716075238425299"><ele>73.66666666666667</ele><time>2026-05-04T08:38:49.001Z</time></trkpt><trkpt lat="43.73827941946855" lon="10.716297410461687"><ele>76.33333333333333</ele><time>2026-05-04T08:38:50.001Z</time></trkpt><trkpt lat="43.73815626472387" lon="10.716527667203536"><ele>79.0</ele><time>2026-05-04T08:38:51.001Z</time></trkpt><trkpt lat="43.73804046142133" lon="10.71676885989829"><ele>80.33333333333333</ele><time>2026-05-04T08:38:52.001Z</time></trkpt><trkpt lat="43.737915668886636" lon="10.716992236274264"><ele>81.66666666666667</ele><time>2026-05-04T08:38:53.001Z</time></trkpt><trkpt lat="43.73779374932571" lon="10.717217822223382"><ele>83.0</ele><time>2026-05-04T08:38:54.001Z</time></trkpt><trkpt lat="43.737668621804396" lon="10.717449517340587"><ele>83.0</ele><time>2026-05-04T08:38:55.001Z</time></trkpt><trkpt lat="43.73754192094334" lon="10.717676192517148"><ele>83.0</ele><time>2026-05-04T08:38:56.001Z</time></trkpt><trkpt lat="43.73741357965815" lon="10.717902106949838"><ele>83.0</ele><time>2026-05-04T08:38:57.001Z</time></trkpt><trkpt lat="43.73728518709283" lon="10.718129078018256"><ele>83.66666666666667</ele><time>2026-05-04T08:38:58.001Z</time></trkpt><trkpt lat="43.7371628470431" lon="10.7183515484814"><ele>84.33333333333333</ele><time>2026-05-04T08:38:59.001Z</time></trkpt><trkpt lat="43.737037399184786" lon="10.718581345354881"><ele>85.0</ele><time>2026-05-04T08:39:00.001Z</time></trkpt><trkpt lat="43.73691116703358" lon="10.718810466553403"><ele>85.33333333333333</ele><time>2026-05-04T08:39:01.001Z</time></trkpt><trkpt lat="43.73678413926093" lon="10.719040504713508"><ele>85.66666666666667</ele><time>2026-05-04T08:39:02.001Z</time></trkpt><trkpt lat="43.73665669539639" lon="10.719271890927969"><ele>86.0</ele><time>2026-05-04T08:39:03.001Z</time></trkpt><trkpt lat="43.73652913615701" lon="10.719510509776288"><ele>86.0</ele><time>2026-05-04T08:39:04.001Z</time></trkpt><trkpt lat="43.736409150920124" lon="10.719752467373109"><ele>86.0</ele><time>2026-05-04T08:39:05.001Z</time></trkpt><trkpt lat="43.73629850745987" lon="10.720005946171016"><ele>86.0</ele><time>2026-05-04T08:39:06.001Z</time></trkpt><trkpt lat="43.73620189547019" lon="10.720276950019123"><ele>86.0</ele><time>2026-05-04T08:39:07.001Z</time></trkpt><trkpt lat="43.736119090112346" lon="10.72055342917421"><ele>86.0</ele><time>2026-05-04T08:39:08.001Z</time></trkpt><trkpt lat="43.7360358387548" lon="10.720828088516772"><ele>86.0</ele><time>2026-05-04T08:39:09.001Z</time></trkpt><trkpt lat="43.73597133361217" lon="10.721115697202192"><ele>86.0</ele><time>2026-05-04T08:39:10.001Z</time></trkpt><trkpt lat="43.73591478960435" lon="10.721402490660367"><ele>86.0</ele><time>2026-05-04T08:39:11.001Z</time></trkpt><trkpt lat="43.73586019747744" lon="10.721688613884734"><ele>86.0</ele><time>2026-05-04T08:39:12.001Z</time></trkpt><trkpt lat="43.73580467244708" lon="10.72197962706172"><ele>86.66666666666667</ele><time>2026-05-04T08:39:13.001Z</time></trkpt><trkpt lat="43.73574841662691" lon="10.722274469906363"><ele>87.33333333333333</ele><time>2026-05-04T08:39:14.001Z</time></trkpt><trkpt lat="43.73569413451533" lon="10.722558968227354"><ele>88.0</ele><time>2026-05-04T08:39:15.001Z</time></trkpt><trkpt lat="43.73565262137547" lon="10.722862423037379"><ele>88.66666666666666</ele><time>2026-05-04T08:39:16.001Z</time></trkpt><trkpt lat="43.73559161067646" lon="10.723142974119284"><ele>89.33333333333333</ele><time>2026-05-04T08:39:17.001Z</time></trkpt><trkpt lat="43.7355383970074" lon="10.7234339251788"><ele>90.0</ele><time>2026-05-04T08:39:18.001Z</time></trkpt><trkpt lat="43.73548384250968" lon="10.723722363935194"><ele>91.33333333333333</ele><time>2026-05-04T08:39:19.001Z</time></trkpt><trkpt lat="43.735429441030824" lon="10.724013047570004"><ele>92.66666666666666</ele><time>2026-05-04T08:39:20.001Z</time></trkpt><trkpt lat="43.735378020718535" lon="10.724305102700868"><ele>94.0</ele><time>2026-05-04T08:39:21.001Z</time></trkpt><trkpt lat="43.73532593161698" lon="10.724590203369894"><ele>94.33333333333333</ele><time>2026-05-04T08:39:22.001Z</time></trkpt><trkpt lat="43.73526890492316" lon="10.724877138351083"><ele>94.66666666666667</ele><time>2026-05-04T08:39:23.001Z</time></trkpt><trkpt lat="43.73520051837487" lon="10.725162893684129"><ele>95.0</ele><time>2026-05-04T08:39:24.001Z</time></trkpt><trkpt lat="43.735114042910986" lon="10.725432737494238"><ele>95.0</ele><time>2026-05-04T08:39:25.001Z</time></trkpt><trkpt lat="43.73501244569537" lon="10.725693542683393"><ele>95.0</ele><time>2026-05-04T08:39:26.001Z</time></trkpt><trkpt lat="43.73490177262173" lon="10.725954896962936"><ele>95.0</ele><time>2026-05-04T08:39:27.001Z</time></trkpt><trkpt lat="43.73478305463996" lon="10.726201489815368"><ele>96.0</ele><time>2026-05-04T08:39:28.001Z</time></trkpt><trkpt lat="43.734657474333716" lon="10.72643429032316"><ele>97.0</ele><time>2026-05-04T08:39:29.001Z</time></trkpt><trkpt lat="43.73451861806599" lon="10.726651821052434"><ele>98.0</ele><time>2026-05-04T08:39:30.001Z</time></trkpt><trkpt lat="43.73437573848334" lon="10.726862253943763"><ele>98.66666666666666</ele><time>2026-05-04T08:39:31.001Z</time></trkpt><trkpt lat="43.734221771233834" lon="10.727066853633202"><ele>99.33333333333334</ele><time>2026-05-04T08:39:32.001Z</time></trkpt><trkpt lat="43.7340597704926" lon="10.727252911357638"><ele>100.0</ele><time>2026-05-04T08:39:33.001Z</time></trkpt><trkpt lat="43.733890548885526" lon="10.727430859908889"><ele>100.0</ele><time>2026-05-04T08:39:34.001Z</time></trkpt><trkpt lat="43.733714021913535" lon="10.727593987883552"><ele>100.0</ele><time>2026-05-04T08:39:35.001Z</time></trkpt><trkpt lat="43.73353085658782" lon="10.72774285229586"><ele>100.0</ele><time>2026-05-04T08:39:36.001Z</time></trkpt><trkpt lat="43.73334348522026" lon="10.727876862774306"><ele>101.33333333333334</ele><time>2026-05-04T08:39:37.001Z</time></trkpt><trkpt lat="43.733154511109" lon="10.728004743378316"><ele>102.66666666666666</ele><time>2026-05-04T08:39:38.001Z</time></trkpt><trkpt lat="43.732967329868" lon="10.728132437743687"><ele>104.0</ele><time>2026-05-04T08:39:39.001Z</time></trkpt><trkpt lat="43.732782311140596" lon="10.72826247449572"><ele>103.66666666666666</ele><time>2026-05-04T08:39:40.001Z</time></trkpt><trkpt lat="43.73260425999609" lon="10.72839213321606"><ele>103.33333333333334</ele><time>2026-05-04T08:39:41.001Z</time></trkpt><trkpt lat="43.73241440639732" lon="10.728523464734899"><ele>103.0</ele><time>2026-05-04T08:39:42.001Z</time></trkpt><trkpt lat="43.73223255645524" lon="10.728656804812061"><ele>103.0</ele><time>2026-05-04T08:39:43.001Z</time></trkpt><trkpt lat="43.73204630667544" lon="10.728792628693363"><ele>103.0</ele><time>2026-05-04T08:39:44.001Z</time></trkpt><trkpt lat="43.731860530090835" lon="10.728923817550601"><ele>103.0</ele><time>2026-05-04T08:39:45.001Z</time></trkpt><trkpt lat="43.73167210879413" lon="10.729054092845413"><ele>103.0</ele><time>2026-05-04T08:39:46.001Z</time></trkpt><trkpt lat="43.731487382710775" lon="10.729182243568543"><ele>103.0</ele><time>2026-05-04T08:39:47.001Z</time></trkpt><trkpt lat="43.73129461727114" lon="10.729317506669496"><ele>103.0</ele><time>2026-05-04T08:39:48.001Z</time></trkpt><trkpt lat="43.731108808753774" lon="10.72944484169115"><ele>102.66666666666667</ele><time>2026-05-04T08:39:49.001Z</time></trkpt><trkpt lat="43.73094058928537" lon="10.729565743815723"><ele>102.33333333333334</ele><time>2026-05-04T08:39:50.001Z</time></trkpt><trkpt lat="43.73078453115976" lon="10.729681508563836"><ele>102.0</ele><time>2026-05-04T08:39:51.001Z</time></trkpt><trkpt lat="43.730652002823575" lon="10.729783242665855"><ele>102.0</ele><time>2026-05-04T08:39:52.001Z</time></trkpt><trkpt lat="43.730532085706564" lon="10.729871891157499"><ele>102.0</ele><time>2026-05-04T08:39:53.001Z</time></trkpt><trkpt lat="43.73040734279577" lon="10.729938888155157"><ele>102.0</ele><time>2026-05-04T08:39:54.001Z</time></trkpt><trkpt lat="43.730271655939326" lon="10.729955468242286"><ele>102.0</ele><time>2026-05-04T08:39:55.001Z</time></trkpt><trkpt lat="43.7301202241531" lon="10.729928466847735"><ele>103.0</ele><time>2026-05-04T08:39:56.001Z</time></trkpt><trkpt lat="43.729968769897006" lon="10.729848842363017"><ele>104.0</ele><time>2026-05-04T08:39:57.001Z</time></trkpt><trkpt lat="43.72983685596827" lon="10.729734818614576"><ele>105.0</ele><time>2026-05-04T08:39:58.001Z</time></trkpt><trkpt lat="43.72972713230095" lon="10.729565691540747"><ele>103.66666666666666</ele><time>2026-05-04T08:39:59.001Z</time></trkpt><trkpt lat="43.72966086480788" lon="10.729368775921477"><ele>102.33333333333333</ele><time>2026-05-04T08:40:00.001Z</time></trkpt><trkpt lat="43.72960394262209" lon="10.729150841387419"><ele>101.0</ele><time>2026-05-04T08:40:01.001Z</time></trkpt><trkpt lat="43.729574285986295" lon="10.72891831514007"><ele>101.0</ele><time>2026-05-04T08:40:02.001Z</time></trkpt><trkpt lat="43.729567068639625" lon="10.728669945498723"><ele>101.0</ele><time>2026-05-04T08:40:03.001Z</time></trkpt><trkpt lat="43.729580202426376" lon="10.728421862609466"><ele>101.0</ele><time>2026-05-04T08:40:04.001Z</time></trkpt><trkpt lat="43.729602841972564" lon="10.728164446458331"><ele>99.66666666666666</ele><time>2026-05-04T08:40:05.001Z</time></trkpt><trkpt lat="43.72962171242006" lon="10.727911435649235"><ele>98.33333333333334</ele><time>2026-05-04T08:40:06.001Z</time></trkpt><trkpt lat="43.72962863994784" lon="10.727659133383755"><ele>97.0</ele><time>2026-05-04T08:40:07.001Z</time></trkpt><trkpt lat="43.729611132222985" lon="10.727407370558836"><ele>95.0</ele><time>2026-05-04T08:40:08.001Z</time></trkpt><trkpt lat="43.72956915387659" lon="10.727167205771485"><ele>93.0</ele><time>2026-05-04T08:40:09.001Z</time></trkpt><trkpt lat="43.72948943542045" lon="10.726927177616128"><ele>91.0</ele><time>2026-05-04T08:40:10.001Z</time></trkpt><trkpt lat="43.72937296754629" lon="10.726712494148657"><ele>89.33333333333333</ele><time>2026-05-04T08:40:11.001Z</time></trkpt><trkpt lat="43.72922379244498" lon="10.726556540262457"><ele>87.66666666666667</ele><time>2026-05-04T08:40:12.001Z</time></trkpt><trkpt lat="43.72905119156981" lon="10.726454692396274"><ele>86.0</ele><time>2026-05-04T08:40:13.001Z</time></trkpt><trkpt lat="43.72886532054088" lon="10.72643945498032"><ele>86.0</ele><time>2026-05-04T08:40:14.001Z</time></trkpt><trkpt lat="43.72868047621183" lon="10.72643746744755"><ele>86.0</ele><time>2026-05-04T08:40:15Z</time></trkpt><trkpt lat="43.728480526691335" lon="10.726436035151368"><ele>86.0</ele><time>2026-05-04T08:40:16Z</time></trkpt><trkpt lat="43.72827674797212" lon="10.726427762965441"><ele>85.66666666666667</ele><time>2026-05-04T08:40:17Z</time></trkpt><trkpt lat="43.72807512604171" lon="10.726429105595681"><ele>85.33333333333333</ele><time>2026-05-04T08:40:18Z</time></trkpt><trkpt lat="43.72786977604327" lon="10.726445486686794"><ele>85.0</ele><time>2026-05-04T08:40:19Z</time></trkpt><trkpt lat="43.72766055156164" lon="10.726496004164366"><ele>85.0</ele><time>2026-05-04T08:40:20Z</time></trkpt><trkpt lat="43.72744962195796" lon="10.726565198530006"><ele>85.0</ele><time>2026-05-04T08:40:21Z</time></trkpt><trkpt lat="43.72723784033322" lon="10.726628404887068"><ele>85.0</ele><time>2026-05-04T08:40:22Z</time></trkpt><trkpt lat="43.727023252814234" lon="10.726687494542555"><ele>83.33333333333333</ele><time>2026-05-04T08:40:23Z</time></trkpt><trkpt lat="43.726803705741304" lon="10.726750269432113"><ele>81.66666666666667</ele><time>2026-05-04T08:40:24Z</time></trkpt><trkpt lat="43.72658566390059" lon="10.72680829278571"><ele>80.0</ele><time>2026-05-04T08:40:25Z</time></trkpt><trkpt lat="43.72636909001252" lon="10.726868772513262"><ele>82.0</ele><time>2026-05-04T08:40:26Z</time></trkpt><trkpt lat="43.72616559661793" lon="10.72692442526516"><ele>84.0</ele><time>2026-05-04T08:40:27.001Z</time></trkpt><trkpt lat="43.72598697539359" lon="10.726969196950744"><ele>86.0</ele><time>2026-05-04T08:40:28.001Z</time></trkpt><trkpt lat="43.72582521270218" lon="10.727011098597263"><ele>86.5</ele><time>2026-05-04T08:40:29.001Z</time></trkpt><trkpt lat="43.72568734603624" lon="10.727047439729022"><ele>87.0</ele><time>2026-05-04T08:40:30.001Z</time></trkpt><trkpt lat="43.725555155633906" lon="10.727076917324222"><ele>87.5</ele><time>2026-05-04T08:40:31.001Z</time></trkpt><trkpt lat="43.72541150464462" lon="10.727114840001374"><ele>88.0</ele><time>2026-05-04T08:40:32.001Z</time></trkpt><trkpt lat="43.72526802115679" lon="10.72717810833338"><ele>84.0</ele><time>2026-05-04T08:40:33.001Z</time></trkpt><trkpt lat="43.72512513141134" lon="10.727294848694925"><ele>80.0</ele><time>2026-05-04T08:40:34.001Z</time></trkpt><trkpt lat="43.72500304020857" lon="10.727454072650756"><ele>76.0</ele><time>2026-05-04T08:40:35.001Z</time></trkpt><trkpt lat="43.72490616723625" lon="10.727659115675424"><ele>75.66666666666666</ele><time>2026-05-04T08:40:36.001Z</time></trkpt><trkpt lat="43.724832207487886" lon="10.727898257054807"><ele>75.33333333333333</ele><time>2026-05-04T08:40:37.001Z</time></trkpt><trkpt lat="43.724771979054516" lon="10.728158421761423"><ele>75.0</ele><time>2026-05-04T08:40:38.001Z</time></trkpt><trkpt lat="43.7247347289697" lon="10.72842011285258"><ele>74.33333333333333</ele><time>2026-05-04T08:40:39.001Z</time></trkpt><trkpt lat="43.72470593882587" lon="10.728652850557129"><ele>73.66666666666666</ele><time>2026-05-04T08:40:40.001Z</time></trkpt><trkpt lat="43.7246829717565" lon="10.728870196061754"><ele>73.0</ele><time>2026-05-04T08:40:41.001Z</time></trkpt><trkpt lat="43.72467688287018" lon="10.729078745315928"><ele>73.0</ele><time>2026-05-04T08:40:42.001Z</time></trkpt><trkpt lat="43.72470504136076" lon="10.729286187166057"><ele>73.0</ele><time>2026-05-04T08:40:43.001Z</time></trkpt><trkpt lat="43.724773620088754" lon="10.729473536689115"><ele>73.0</ele><time>2026-05-04T08:40:44.001Z</time></trkpt><trkpt lat="43.724894254402486" lon="10.729641801192223"><ele>74.33333333333333</ele><time>2026-05-04T08:40:45.001Z</time></trkpt><trkpt lat="43.72504627077216" lon="10.72978718975826"><ele>75.66666666666667</ele><time>2026-05-04T08:40:46.001Z</time></trkpt><trkpt lat="43.72519954093177" lon="10.72995266084923"><ele>77.0</ele><time>2026-05-04T08:40:47.001Z</time></trkpt><trkpt lat="43.725363131924176" lon="10.730129938884037"><ele>69.0</ele><time>2026-05-04T08:40:48.001Z</time></trkpt><trkpt lat="43.725528770411984" lon="10.73030757205138"><ele>61.0</ele><time>2026-05-04T08:40:49.001Z</time></trkpt><trkpt lat="43.72569792566057" lon="10.730492208212768"><ele>53.0</ele><time>2026-05-04T08:40:50.001Z</time></trkpt><trkpt lat="43.72585658430929" lon="10.730644748209775"><ele>53.0</ele><time>2026-05-04T08:40:51.001Z</time></trkpt><trkpt lat="43.72597312722032" lon="10.730813220942448"><ele>53.0</ele><time>2026-05-04T08:40:52.001Z</time></trkpt><trkpt lat="43.72606853027813" lon="10.730984345439332"><ele>53.0</ele><time>2026-05-04T08:40:53.001Z</time></trkpt><trkpt lat="43.726148174599416" lon="10.731162963589997"><ele>52.2</ele><time>2026-05-04T08:40:54.001Z</time></trkpt><trkpt lat="43.72618968902309" lon="10.731324170391556"><ele>51.4</ele><time>2026-05-04T08:40:55.001Z</time></trkpt><trkpt lat="43.726194282420806" lon="10.731461770074198"><ele>50.6</ele><time>2026-05-04T08:40:56.001Z</time></trkpt><trkpt lat="43.72616528905213" lon="10.731574377656445"><ele>49.800000000000004</ele><time>2026-05-04T08:40:57.001Z</time></trkpt><trkpt lat="43.72608242713847" lon="10.731669516309726"><ele>49.0</ele><time>2026-05-04T08:40:58.001Z</time></trkpt><trkpt lat="43.72596185674715" lon="10.73168877995458"><ele>49.0</ele><time>2026-05-04T08:40:59.001Z</time></trkpt><trkpt lat="43.7258301331317" lon="10.73163866677126"><ele>49.0</ele><time>2026-05-04T08:41:00.001Z</time></trkpt><trkpt lat="43.72568059000359" lon="10.73152255275607"><ele>49.0</ele><time>2026-05-04T08:41:01.001Z</time></trkpt><trkpt lat="43.725562228316626" lon="10.731462474689145"><ele>49.0</ele><time>2026-05-04T08:41:02.001Z</time></trkpt><trkpt lat="43.725421954574756" lon="10.731431209026953"><ele>49.0</ele><time>2026-05-04T08:41:03.001Z</time></trkpt><trkpt lat="43.72525069264854" lon="10.73140833827374"><ele>49.0</ele><time>2026-05-04T08:41:04.001Z</time></trkpt><trkpt lat="43.72507230520919" lon="10.731405649863214"><ele>49.0</ele><time>2026-05-04T08:41:05.001Z</time></trkpt><trkpt lat="43.72487378728955" lon="10.73141746486686"><ele>46.0</ele><time>2026-05-04T08:41:06.001Z</time></trkpt><trkpt lat="43.72467048186484" lon="10.731447412620469"><ele>43.0</ele><time>2026-05-04T08:41:07.001Z</time></trkpt><trkpt lat="43.72445732720516" lon="10.731473903663243"><ele>40.0</ele><time>2026-05-04T08:41:08.001Z</time></trkpt><trkpt lat="43.72424176730236" lon="10.731488242483131"><ele>33.0</ele><time>2026-05-04T08:41:09.001Z</time></trkpt><trkpt lat="43.72402069284582" lon="10.731507897586726"><ele>26.0</ele><time>2026-05-04T08:41:10.001Z</time></trkpt><trkpt lat="43.72379259520685" lon="10.731533517371489"><ele>26.0</ele><time>2026-05-04T08:41:11.001Z</time></trkpt><trkpt lat="43.72357736859796" lon="10.731574846545188"><ele>26.0</ele><time>2026-05-04T08:41:12.001Z</time></trkpt><trkpt lat="43.723356253314805" lon="10.73164282121091"><ele>26.0</ele><time>2026-05-04T08:41:13.001Z</time></trkpt><trkpt lat="43.723133711051" lon="10.73173930854578"><ele>21.5</ele><time>2026-05-04T08:41:14.001Z</time></trkpt><trkpt lat="43.72291498431086" lon="10.731861461092555"><ele>17.0</ele><time>2026-05-04T08:41:15.001Z</time></trkpt><trkpt lat="43.72269938927162" lon="10.732007805577403"><ele>15.5</ele><time>2026-05-04T08:41:16.001Z</time></trkpt><trkpt lat="43.722490804292754" lon="10.732167776516043"><ele>14.0</ele><time>2026-05-04T08:41:17.001Z</time></trkpt><trkpt lat="43.72227531144602" lon="10.73233920628994"><ele>14.0</ele><time>2026-05-04T08:41:18.001Z</time></trkpt><trkpt lat="43.72206877873113" lon="10.732508741154938"><ele>14.0</ele><time>2026-05-04T08:41:19.001Z</time></trkpt><trkpt lat="43.7218620511815" lon="10.732684833404816"><ele>13.0</ele><time>2026-05-04T08:41:20.001Z</time></trkpt><trkpt lat="43.721658408071384" lon="10.732858996722403"><ele>12.0</ele><time>2026-05-04T08:41:21.001Z</time></trkpt><trkpt lat="43.72145973123976" lon="10.733055937641156"><ele>12.0</ele><time>2026-05-04T08:41:22.001Z</time></trkpt><trkpt lat="43.7212677372576" lon="10.733244264064682"><ele>12.0</ele><time>2026-05-04T08:41:23.001Z</time></trkpt><trkpt lat="43.721079088048235" lon="10.733428016047688"><ele>12.333333333333332</ele><time>2026-05-04T08:41:24.001Z</time></trkpt><trkpt lat="43.72088919185288" lon="10.733584648361564"><ele>12.666666666666666</ele><time>2026-05-04T08:41:25.001Z</time></trkpt><trkpt lat="43.72072533646764" lon="10.733766263347151"><ele>13.0</ele><time>2026-05-04T08:41:26.001Z</time></trkpt><trkpt lat="43.720553653617095" lon="10.733929553707794"><ele>13.0</ele><time>2026-05-04T08:41:27.001Z</time></trkpt><trkpt lat="43.720384950224876" lon="10.73409210708202"><ele>13.0</ele><time>2026-05-04T08:41:28.001Z</time></trkpt><trkpt lat="43.72021882786639" lon="10.734247276121392"><ele>13.0</ele><time>2026-05-04T08:41:29.001Z</time></trkpt><trkpt lat="43.720060163315644" lon="10.734395425863067"><ele>13.333333333333332</ele><time>2026-05-04T08:41:30.001Z</time></trkpt><trkpt lat="43.71991082788224" lon="10.73453411596719"><ele>13.666666666666668</ele><time>2026-05-04T08:41:31.001Z</time></trkpt><trkpt lat="43.71977984303433" lon="10.734657892993345"><ele>14.0</ele><time>2026-05-04T08:41:32.001Z</time></trkpt><trkpt lat="43.71965558705164" lon="10.734777020989355"><ele>14.0</ele><time>2026-05-04T08:41:33.001Z</time></trkpt><trkpt lat="43.71954519841116" lon="10.734884487961779"><ele>14.0</ele><time>2026-05-04T08:41:34.001Z</time></trkpt><trkpt lat="43.719441209998685" lon="10.734983443220546"><ele>14.0</ele><time>2026-05-04T08:41:35.001Z</time></trkpt><trkpt lat="43.71934634366318" lon="10.735075868157995"><ele>14.0</ele><time>2026-05-04T08:41:36.001Z</time></trkpt><trkpt lat="43.719256768955205" lon="10.735159121533375"><ele>13.799999999999999</ele><time>2026-05-04T08:41:37.001Z</time></trkpt><trkpt lat="43.719169601583644" lon="10.735239687166311"><ele>13.599999999999998</ele><time>2026-05-04T08:41:38.001Z</time></trkpt><trkpt lat="43.71908870085923" lon="10.735315296492006"><ele>13.4</ele><time>2026-05-04T08:41:39.001Z</time></trkpt><trkpt lat="43.7190139034237" lon="10.73538764026705"><ele>13.2</ele><time>2026-05-04T08:41:40.001Z</time></trkpt><trkpt lat="43.71894925149131" lon="10.735456069863094"><ele>13.0</ele><time>2026-05-04T08:41:41.001Z</time></trkpt><trkpt lat="43.7188752130293" lon="10.735533381332381"><ele>12.999999999999998</ele><time>2026-05-04T08:41:42.001Z</time></trkpt><trkpt lat="43.71880015104" lon="10.735579436780169"><ele>13.0</ele><time>2026-05-04T08:41:43.001Z</time></trkpt><trkpt lat="43.71871018785591" lon="10.73560292465087"><ele>13.0</ele><time>2026-05-04T08:41:44.001Z</time></trkpt><trkpt lat="43.71862603332174" lon="10.735597706973731"><ele>13.0</ele><time>2026-05-04T08:41:45.001Z</time></trkpt><trkpt lat="43.7185410610429" lon="10.735577250613176"><ele>12.999999999999998</ele><time>2026-05-04T08:41:46.001Z</time></trkpt><trkpt lat="43.718463070516286" lon="10.735601857827435"><ele>13.0</ele><time>2026-05-04T08:41:47.001Z</time></trkpt><trkpt lat="43.71840650214467" lon="10.735656296817892"><ele>13.0</ele><time>2026-05-04T08:41:48.001Z</time></trkpt><trkpt lat="43.718353566431254" lon="10.735734714476663"><ele>13.0</ele><time>2026-05-04T08:41:49.001Z</time></trkpt><trkpt lat="43.71831058220872" lon="10.735843244956824"><ele>13.0</ele><time>2026-05-04T08:41:50.001Z</time></trkpt><trkpt lat="43.71825314023382" lon="10.735952120611879"><ele>13.0</ele><time>2026-05-04T08:41:51.001Z</time></trkpt><trkpt lat="43.71819291351244" lon="10.736070856362197"><ele>13.0</ele><time>2026-05-04T08:41:52.001Z</time></trkpt><trkpt lat="43.71808699576387" lon="10.736153703143797"><ele>13.0</ele><time>2026-05-04T08:41:53.001Z</time></trkpt><trkpt lat="43.71797541604411" lon="10.736245350591352"><ele>13.0</ele><time>2026-05-04T08:41:54.001Z</time></trkpt><trkpt lat="43.71783590702465" lon="10.736297791929491"><ele>13.0</ele><time>2026-05-04T08:41:55.001Z</time></trkpt><trkpt lat="43.71768921922962" lon="10.736366662100338"><ele>13.0</ele><time>2026-05-04T08:41:56.001Z</time></trkpt><trkpt lat="43.71752754593209" lon="10.736442566509071"><ele>12.333333333333332</ele><time>2026-05-04T08:41:57.001Z</time></trkpt><trkpt lat="43.71736223244836" lon="10.736537758608215"><ele>11.666666666666666</ele><time>2026-05-04T08:41:58.001Z</time></trkpt><trkpt lat="43.71718743118448" lon="10.73661477604458"><ele>11.0</ele><time>2026-05-04T08:41:59.001Z</time></trkpt><trkpt lat="43.717004744869335" lon="10.736699854042177"><ele>11.0</ele><time>2026-05-04T08:42:00.001Z</time></trkpt><trkpt lat="43.71681455570754" lon="10.736789626523592"><ele>11.0</ele><time>2026-05-04T08:42:01.001Z</time></trkpt><trkpt lat="43.716620555917025" lon="10.736880071299792"><ele>11.0</ele><time>2026-05-04T08:42:02.001Z</time></trkpt><trkpt lat="43.71642182016381" lon="10.73697258431512"><ele>11.333333333333332</ele><time>2026-05-04T08:42:03.001Z</time></trkpt><trkpt lat="43.716222372901946" lon="10.73706583561913"><ele>11.666666666666666</ele><time>2026-05-04T08:42:04.001Z</time></trkpt><trkpt lat="43.71601586329617" lon="10.737161377733269"><ele>12.0</ele><time>2026-05-04T08:42:05.001Z</time></trkpt><trkpt lat="43.71580611838528" lon="10.73726005711475"><ele>12.5</ele><time>2026-05-04T08:42:06.001Z</time></trkpt><trkpt lat="43.71559369721281" lon="10.737361328407923"><ele>13.0</ele><time>2026-05-04T08:42:07.001Z</time></trkpt><trkpt lat="43.71538108199087" lon="10.737465399657884"><ele>12.5</ele><time>2026-05-04T08:42:08.001Z</time></trkpt><trkpt lat="43.7151618516188" lon="10.737544886794966"><ele>12.0</ele><time>2026-05-04T08:42:09Z</time></trkpt><trkpt lat="43.71494727504285" lon="10.737644484611522"><ele>13.0</ele><time>2026-05-04T08:42:10Z</time></trkpt><trkpt lat="43.714732022555914" lon="10.737744777956046"><ele>14.0</ele><time>2026-05-04T08:42:11Z</time></trkpt><trkpt lat="43.71451701891671" lon="10.737844955344348"><ele>13.5</ele><time>2026-05-04T08:42:12Z</time></trkpt><trkpt lat="43.714302310041894" lon="10.737944995530137"><ele>13.0</ele><time>2026-05-04T08:42:13Z</time></trkpt><trkpt lat="43.714087341128405" lon="10.738043638979374"><ele>13.0</ele><time>2026-05-04T08:42:14Z</time></trkpt><trkpt lat="43.713876378651975" lon="10.738159864194001"><ele>13.0</ele><time>2026-05-04T08:42:15Z</time></trkpt><trkpt lat="43.71365885736154" lon="10.738254165393162"><ele>13.0</ele><time>2026-05-04T08:42:16Z</time></trkpt><trkpt lat="43.71344249088168" lon="10.738352563075383"><ele>13.0</ele><time>2026-05-04T08:42:17Z</time></trkpt><trkpt lat="43.71322797143193" lon="10.738450525804645"><ele>13.0</ele><time>2026-05-04T08:42:18Z</time></trkpt><trkpt lat="43.71301325087949" lon="10.738549013311333"><ele>13.0</ele><time>2026-05-04T08:42:19Z</time></trkpt><trkpt lat="43.71279749952969" lon="10.738649752662942"><ele>13.0</ele><time>2026-05-04T08:42:20Z</time></trkpt><trkpt lat="43.712579373193456" lon="10.738749544655747"><ele>13.0</ele><time>2026-05-04T08:42:21Z</time></trkpt><trkpt lat="43.712369235746635" lon="10.73884945871486"><ele>13.0</ele><time>2026-05-04T08:42:22Z</time></trkpt><trkpt lat="43.71215618326962" lon="10.738950691710638"><ele>13.0</ele><time>2026-05-04T08:42:23Z</time></trkpt><trkpt lat="43.71194309287967" lon="10.739052639974021"><ele>13.5</ele><time>2026-05-04T08:42:24Z</time></trkpt><trkpt lat="43.71172953659323" lon="10.739154796519493"><ele>14.0</ele><time>2026-05-04T08:42:25Z</time></trkpt><trkpt lat="43.711516763745706" lon="10.739256283877895"><ele>14.0</ele><time>2026-05-04T08:42:26Z</time></trkpt><trkpt lat="43.711307023187324" lon="10.739355782379198"><ele>14.0</ele><time>2026-05-04T08:42:27Z</time></trkpt><trkpt lat="43.711098342046384" lon="10.73943516481356"><ele>14.0</ele><time>2026-05-04T08:42:28Z</time></trkpt><trkpt lat="43.71088369795271" lon="10.739550080970462"><ele>13.666666666666668</ele><time>2026-05-04T08:42:29Z</time></trkpt><trkpt lat="43.710669984381795" lon="10.739648005584327"><ele>13.333333333333332</ele><time>2026-05-04T08:42:30Z</time></trkpt><trkpt lat="43.710464461806296" lon="10.739748357308459"><ele>13.0</ele><time>2026-05-04T08:42:31Z</time></trkpt><trkpt lat="43.71025815362776" lon="10.73982648227137"><ele>13.5</ele><time>2026-05-04T08:42:32Z</time></trkpt><trkpt lat="43.710058123073054" lon="10.739918705298216"><ele>14.0</ele><time>2026-05-04T08:42:33Z</time></trkpt><trkpt lat="43.70981640976452" lon="10.74004755567006"><ele>14.0</ele><time>2026-05-04T08:42:34Z</time></trkpt><trkpt lat="43.70960068150385" lon="10.740147215490726"><ele>14.0</ele><time>2026-05-04T08:42:35Z</time></trkpt><trkpt lat="43.709381542133" lon="10.740243733824528"><ele>13.5</ele><time>2026-05-04T08:42:36Z</time></trkpt><trkpt lat="43.709162778794095" lon="10.740344178519203"><ele>13.0</ele><time>2026-05-04T08:42:37Z</time></trkpt><trkpt lat="43.708944961062635" lon="10.740444700723252"><ele>13.0</ele><time>2026-05-04T08:42:38Z</time></trkpt><trkpt lat="43.7087220720376" lon="10.740551739793228"><ele>13.0</ele><time>2026-05-04T08:42:39Z</time></trkpt><trkpt lat="43.70850130047183" lon="10.740648474690964"><ele>13.0</ele><time>2026-05-04T08:42:40Z</time></trkpt><trkpt lat="43.70828037343599" lon="10.74074855579353"><ele>13.0</ele><time>2026-05-04T08:42:41Z</time></trkpt><trkpt lat="43.70805625853195" lon="10.740852859145017"><ele>13.0</ele><time>2026-05-04T08:42:42Z</time></trkpt><trkpt lat="43.70783571665042" lon="10.74096184912744"><ele>13.0</ele><time>2026-05-04T08:42:43Z</time></trkpt><trkpt lat="43.70761570538674" lon="10.741068462371485"><ele>13.5</ele><time>2026-05-04T08:42:44Z</time></trkpt><trkpt lat="43.70739262172746" lon="10.741171652443294"><ele>14.0</ele><time>2026-05-04T08:42:45Z</time></trkpt><trkpt lat="43.70716801106922" lon="10.741278333487989"><ele>14.0</ele><time>2026-05-04T08:42:46Z</time></trkpt><trkpt lat="43.706946442037925" lon="10.741380402002553"><ele>14.0</ele><time>2026-05-04T08:42:47Z</time></trkpt><trkpt lat="43.70672373892949" lon="10.741484528923552"><ele>14.5</ele><time>2026-05-04T08:42:48Z</time></trkpt><trkpt lat="43.706496029189594" lon="10.741587555910256"><ele>15.0</ele><time>2026-05-04T08:42:49Z</time></trkpt><trkpt lat="43.70626731602359" lon="10.741689460617298"><ele>15.0</ele><time>2026-05-04T08:42:50Z</time></trkpt><trkpt lat="43.70603914498574" lon="10.741784457930184"><ele>15.0</ele><time>2026-05-04T08:42:51Z</time></trkpt><trkpt lat="43.70581359906912" lon="10.74188684173155"><ele>15.0</ele><time>2026-05-04T08:42:52Z</time></trkpt><trkpt lat="43.70558726332855" lon="10.741989941997534"><ele>15.0</ele><time>2026-05-04T08:42:53.001Z</time></trkpt><trkpt lat="43.70536275995407" lon="10.742090667691736"><ele>15.0</ele><time>2026-05-04T08:42:54.001Z</time></trkpt><trkpt lat="43.70514074827335" lon="10.742197198339127"><ele>15.0</ele><time>2026-05-04T08:42:55.001Z</time></trkpt><trkpt lat="43.704923465639716" lon="10.742296947304691"><ele>15.0</ele><time>2026-05-04T08:42:56.001Z</time></trkpt><trkpt lat="43.70470472964075" lon="10.74239772930123"><ele>15.0</ele><time>2026-05-04T08:42:57.001Z</time></trkpt><trkpt lat="43.704490400346266" lon="10.742495887996135"><ele>15.0</ele><time>2026-05-04T08:42:58.001Z</time></trkpt><trkpt lat="43.70427698391261" lon="10.742593254944103"><ele>15.0</ele><time>2026-05-04T08:42:59.001Z</time></trkpt><trkpt lat="43.70406903622015" lon="10.742687568236889"><ele>15.0</ele><time>2026-05-04T08:43:00.001Z</time></trkpt><trkpt lat="43.703867149041024" lon="10.742779131713636"><ele>15.0</ele><time>2026-05-04T08:43:01.001Z</time></trkpt><trkpt lat="43.70367416746036" lon="10.742879719970622"><ele>15.0</ele><time>2026-05-04T08:43:02.001Z</time></trkpt><trkpt lat="43.7034962745559" lon="10.742959347254438"><ele>15.0</ele><time>2026-05-04T08:43:03.001Z</time></trkpt><trkpt lat="43.70332235983029" lon="10.743039365345956"><ele>14.666666666666668</ele><time>2026-05-04T08:43:04.001Z</time></trkpt><trkpt lat="43.70315593160535" lon="10.743113337010394"><ele>14.333333333333334</ele><time>2026-05-04T08:43:05.001Z</time></trkpt><trkpt lat="43.703002433586136" lon="10.743178506289198"><ele>14.0</ele><time>2026-05-04T08:43:06.001Z</time></trkpt><trkpt lat="43.70285181510366" lon="10.743243624773328"><ele>14.0</ele><time>2026-05-04T08:43:07.001Z</time></trkpt><trkpt lat="43.70270876856619" lon="10.743310802504086"><ele>14.0</ele><time>2026-05-04T08:43:08.001Z</time></trkpt><trkpt lat="43.70257268200458" lon="10.743375227073994"><ele>14.0</ele><time>2026-05-04T08:43:09.001Z</time></trkpt><trkpt lat="43.70244441428489" lon="10.7434310056527"><ele>14.0</ele><time>2026-05-04T08:43:10.001Z</time></trkpt><trkpt lat="43.702325829100914" lon="10.743482873570715"><ele>14.0</ele><time>2026-05-04T08:43:11.001Z</time></trkpt><trkpt lat="43.70221427537104" lon="10.743530270982397"><ele>13.999999999999998</ele><time>2026-05-04T08:43:12.001Z</time></trkpt><trkpt lat="43.702123659062615" lon="10.743572043600077"><ele>13.999999999999998</ele><time>2026-05-04T08:43:13.001Z</time></trkpt><trkpt lat="43.70205225827771" lon="10.743597930511521"><ele>14.0</ele><time>2026-05-04T08:43:14.001Z</time></trkpt><trkpt lat="43.70194146970033" lon="10.743590287112504"><ele>14.0</ele><time>2026-05-04T08:43:16.001Z</time></trkpt><trkpt lat="43.70187437676298" lon="10.74370272122855"><ele>14.166666666666668</ele><time>2026-05-04T08:43:18.001Z</time></trkpt><trkpt lat="43.70189564948756" lon="10.743791323931482"><ele>14.333333333333334</ele><time>2026-05-04T08:43:19.001Z</time></trkpt><trkpt lat="43.70194444233376" lon="10.743858951299092"><ele>14.5</ele><time>2026-05-04T08:43:20.001Z</time></trkpt><trkpt lat="43.70199430526422" lon="10.74393483102026"><ele>14.666666666666668</ele><time>2026-05-04T08:43:21.001Z</time></trkpt><trkpt lat="43.70203548377807" lon="10.744043660007264"><ele>14.833333333333334</ele><time>2026-05-04T08:43:22.001Z</time></trkpt><trkpt lat="43.702073065359684" lon="10.74417375684527"><ele>15.0</ele><time>2026-05-04T08:43:23.001Z</time></trkpt><trkpt lat="43.70211255080468" lon="10.74431944269477"><ele>15.25</ele><time>2026-05-04T08:43:24.001Z</time></trkpt><trkpt lat="43.70215444502394" lon="10.744480517497434"><ele>15.5</ele><time>2026-05-04T08:43:25.001Z</time></trkpt><trkpt lat="43.702189476349766" lon="10.74465499205103"><ele>15.75</ele><time>2026-05-04T08:43:26.001Z</time></trkpt><trkpt lat="43.702210402892874" lon="10.744841058578444"><ele>16.0</ele><time>2026-05-04T08:43:27.001Z</time></trkpt><trkpt lat="43.702209611100564" lon="10.745035303802137"><ele>16.333333333333332</ele><time>2026-05-04T08:43:28.001Z</time></trkpt><trkpt lat="43.70219079202545" lon="10.745237346616204"><ele>16.666666666666668</ele><time>2026-05-04T08:43:29.001Z</time></trkpt><trkpt lat="43.70215258062245" lon="10.745437343720793"><ele>17.0</ele><time>2026-05-04T08:43:30.001Z</time></trkpt><trkpt lat="43.70210370706016" lon="10.745640291291124"><ele>17.0</ele><time>2026-05-04T08:43:31.001Z</time></trkpt><trkpt lat="43.7020388766372" lon="10.745834638214149"><ele>17.0</ele><time>2026-05-04T08:43:32.001Z</time></trkpt><trkpt lat="43.701949005882376" lon="10.746025167519633"><ele>17.0</ele><time>2026-05-04T08:43:33.001Z</time></trkpt><trkpt lat="43.70183972118383" lon="10.746196859672658"><ele>17.25</ele><time>2026-05-04T08:43:34.001Z</time></trkpt><trkpt lat="43.701732461900086" lon="10.746333611235746"><ele>17.5</ele><time>2026-05-04T08:43:35.001Z</time></trkpt><trkpt lat="43.70162626494411" lon="10.746421720213318"><ele>17.75</ele><time>2026-05-04T08:43:36.001Z</time></trkpt><trkpt lat="43.70154837045644" lon="10.746457891414014"><ele>18.0</ele><time>2026-05-04T08:43:37.001Z</time></trkpt><trkpt lat="43.70141826489871" lon="10.746459548045461"><ele>18.0</ele><time>2026-05-04T08:43:39.001Z</time></trkpt><trkpt lat="43.70135790438245" lon="10.746515217990483"><ele>18.0</ele><time>2026-05-04T08:43:40.001Z</time></trkpt><trkpt lat="43.70133220745155" lon="10.74659977706621"><ele>18.0</ele><time>2026-05-04T08:43:41.001Z</time></trkpt><trkpt lat="43.7012755665554" lon="10.746754338596812"><ele>18.0</ele><time>2026-05-04T08:43:43.001Z</time></trkpt><trkpt lat="43.70120326511706" lon="10.746822223252801"><ele>18.0</ele><time>2026-05-04T08:43:44.001Z</time></trkpt><trkpt lat="43.70109358739379" lon="10.746860703779301"><ele>18.25</ele><time>2026-05-04T08:43:45.001Z</time></trkpt><trkpt lat="43.70098493935313" lon="10.746948767435974"><ele>18.5</ele><time>2026-05-04T08:43:46.001Z</time></trkpt><trkpt lat="43.70087591065301" lon="10.747057765623566"><ele>18.75</ele><time>2026-05-04T08:43:47.001Z</time></trkpt><trkpt lat="43.70074909782147" lon="10.747158462615486"><ele>19.0</ele><time>2026-05-04T08:43:48.001Z</time></trkpt><trkpt lat="43.70063184239072" lon="10.74725506458041"><ele>19.0</ele><time>2026-05-04T08:43:49.001Z</time></trkpt><trkpt lat="43.70052401958108" lon="10.747336897791959"><ele>19.0</ele><time>2026-05-04T08:43:50.001Z</time></trkpt><trkpt lat="43.70041970165124" lon="10.747400984412394"><ele>19.0</ele><time>2026-05-04T08:43:51.001Z</time></trkpt><trkpt lat="43.70030968819099" lon="10.747453138377319"><ele>19.0</ele><time>2026-05-04T08:43:52.001Z</time></trkpt><trkpt lat="43.700189556121835" lon="10.747489035022634"><ele>19.5</ele><time>2026-05-04T08:43:53.001Z</time></trkpt><trkpt lat="43.70005723118113" lon="10.747524214738702"><ele>20.0</ele><time>2026-05-04T08:43:54.001Z</time></trkpt><trkpt lat="43.69992312246313" lon="10.747561061906568"><ele>20.5</ele><time>2026-05-04T08:43:55.001Z</time></trkpt><trkpt lat="43.699773497975144" lon="10.747604286042158"><ele>21.0</ele><time>2026-05-04T08:43:56.001Z</time></trkpt><trkpt lat="43.69963048097339" lon="10.747648940182712"><ele>21.0</ele><time>2026-05-04T08:43:57.001Z</time></trkpt><trkpt lat="43.69948115511696" lon="10.747695462239266"><ele>21.0</ele><time>2026-05-04T08:43:58.001Z</time></trkpt><trkpt lat="43.699328839289" lon="10.747752439193443"><ele>21.0</ele><time>2026-05-04T08:43:59.001Z</time></trkpt><trkpt lat="43.6991789349996" lon="10.74782370248919"><ele>20.0</ele><time>2026-05-04T08:44:00.001Z</time></trkpt><trkpt lat="43.69901816437953" lon="10.747907364575964"><ele>19.0</ele><time>2026-05-04T08:44:01.001Z</time></trkpt><trkpt lat="43.69885256155367" lon="10.747991852806956"><ele>18.0</ele><time>2026-05-04T08:44:02.001Z</time></trkpt><trkpt lat="43.6986848400569" lon="10.748071662457507"><ele>18.0</ele><time>2026-05-04T08:44:03.001Z</time></trkpt><trkpt lat="43.698531665238136" lon="10.748142364923591"><ele>18.0</ele><time>2026-05-04T08:44:04.001Z</time></trkpt><trkpt lat="43.69839928890984" lon="10.748204835515784"><ele>18.0</ele><time>2026-05-04T08:44:05.001Z</time></trkpt><trkpt lat="43.69828137133667" lon="10.748264914759988"><ele>18.0</ele><time>2026-05-04T08:44:06.001Z</time></trkpt><trkpt lat="43.698173424477936" lon="10.748319385454908"><ele>18.0</ele><time>2026-05-04T08:44:07.001Z</time></trkpt><trkpt lat="43.698072402246346" lon="10.748371977216275"><ele>18.0</ele><time>2026-05-04T08:44:08.001Z</time></trkpt><trkpt lat="43.697978767070936" lon="10.748421139397637"><ele>18.0</ele><time>2026-05-04T08:44:09.001Z</time></trkpt><trkpt lat="43.69790293436384" lon="10.748452657392077"><ele>18.0</ele><time>2026-05-04T08:44:10.001Z</time></trkpt><trkpt lat="43.69783802317731" lon="10.748478249320451"><ele>18.0</ele><time>2026-05-04T08:44:11.001Z</time></trkpt><trkpt lat="43.69773072107616" lon="10.748530125139132"><ele>18.0</ele><time>2026-05-04T08:44:13.001Z</time></trkpt><trkpt lat="43.697657568625054" lon="10.748570750609957"><ele>18.0</ele><time>2026-05-04T08:44:15Z</time></trkpt><trkpt lat="43.69758917692027" lon="10.748605341772734"><ele>18.0</ele><time>2026-05-04T08:44:17Z</time></trkpt><trkpt lat="43.6974846539392" lon="10.748653369341188"><ele>18.0</ele><time>2026-05-04T08:44:19Z</time></trkpt><trkpt lat="43.697420763684406" lon="10.748672531173794"><ele>18.0</ele><time>2026-05-04T08:44:20Z</time></trkpt><trkpt lat="43.69734176987649" lon="10.748686471836725"><ele>18.0</ele><time>2026-05-04T08:44:21Z</time></trkpt><trkpt lat="43.69725749114859" lon="10.748688109773568"><ele>18.0</ele><time>2026-05-04T08:44:22Z</time></trkpt><trkpt lat="43.69715585916885" lon="10.748688997804328"><ele>18.0</ele><time>2026-05-04T08:44:23Z</time></trkpt><trkpt lat="43.69704888545363" lon="10.748691813291796"><ele>18.0</ele><time>2026-05-04T08:44:24Z</time></trkpt><trkpt lat="43.69693009330503" lon="10.748659409657513"><ele>18.0</ele><time>2026-05-04T08:44:25Z</time></trkpt><trkpt lat="43.69679780159842" lon="10.74867114249468"><ele>17.75</ele><time>2026-05-04T08:44:26Z</time></trkpt><trkpt lat="43.69665950005917" lon="10.74865625318959"><ele>17.5</ele><time>2026-05-04T08:44:27Z</time></trkpt><trkpt lat="43.69651302879393" lon="10.748640765887767"><ele>17.25</ele><time>2026-05-04T08:44:28Z</time></trkpt><trkpt lat="43.696364638534405" lon="10.748625462868853"><ele>17.0</ele><time>2026-05-04T08:44:29Z</time></trkpt><trkpt lat="43.69621726712332" lon="10.748613008168562"><ele>17.333333333333336</ele><time>2026-05-04T08:44:30Z</time></trkpt><trkpt lat="43.696063964270316" lon="10.74860556354256"><ele>17.666666666666668</ele><time>2026-05-04T08:44:31Z</time></trkpt><trkpt lat="43.69591321149626" lon="10.748596452215681"><ele>18.0</ele><time>2026-05-04T08:44:32Z</time></trkpt><trkpt lat="43.6957596423673" lon="10.748581215265107"><ele>18.0</ele><time>2026-05-04T08:44:33Z</time></trkpt><trkpt lat="43.695619919350335" lon="10.748564022138128"><ele>18.0</ele><time>2026-05-04T08:44:34Z</time></trkpt><trkpt lat="43.695494152171364" lon="10.748548724170632"><ele>18.0</ele><time>2026-05-04T08:44:35Z</time></trkpt><trkpt lat="43.69538099758219" lon="10.74853913560098"><ele>18.0</ele><time>2026-05-04T08:44:36Z</time></trkpt><trkpt lat="43.695277034115335" lon="10.748533978566671"><ele>18.166666666666668</ele><time>2026-05-04T08:44:37Z</time></trkpt><trkpt lat="43.69519300835163" lon="10.748520077684327"><ele>18.333333333333332</ele><time>2026-05-04T08:44:38Z</time></trkpt><trkpt lat="43.69511870229825" lon="10.74848230921859"><ele>18.5</ele><time>2026-05-04T08:44:39Z</time></trkpt><trkpt lat="43.695058333404475" lon="10.748415800316726"><ele>18.666666666666664</ele><time>2026-05-04T08:44:40Z</time></trkpt><trkpt lat="43.69499100725722" lon="10.748352205160838"><ele>18.833333333333332</ele><time>2026-05-04T08:44:41Z</time></trkpt><trkpt lat="43.6949099368684" lon="10.748336100833901"><ele>19.0</ele><time>2026-05-04T08:44:42Z</time></trkpt><trkpt lat="43.6948326368928" lon="10.748369516865695"><ele>19.0</ele><time>2026-05-04T08:44:43Z</time></trkpt><trkpt lat="43.69475157882202" lon="10.748421769711621"><ele>19.0</ele><time>2026-05-04T08:44:44Z</time></trkpt><trkpt lat="43.69471344138422" lon="10.748561877297355"><ele>19.0</ele><time>2026-05-04T08:44:45Z</time></trkpt><trkpt lat="43.69458846189706" lon="10.748532676872168"><ele>19.0</ele><time>2026-05-04T08:44:46Z</time></trkpt><trkpt lat="43.694484113514704" lon="10.74853315119549"><ele>19.0</ele><time>2026-05-04T08:44:47Z</time></trkpt><trkpt lat="43.69437232489058" lon="10.748546329380881"><ele>16.75</ele><time>2026-05-04T08:44:48Z</time></trkpt><trkpt lat="43.69425045058008" lon="10.748543246869637"><ele>14.5</ele><time>2026-05-04T08:44:49Z</time></trkpt><trkpt lat="43.69411670641732" lon="10.748536585445885"><ele>12.25</ele><time>2026-05-04T08:44:50Z</time></trkpt><trkpt lat="43.693974983616094" lon="10.74853488171293"><ele>10.0</ele><time>2026-05-04T08:44:51Z</time></trkpt><trkpt lat="43.69383026655185" lon="10.74853590000236"><ele>9.5</ele><time>2026-05-04T08:44:52Z</time></trkpt><trkpt lat="43.69368639741217" lon="10.748536598363915"><ele>9.0</ele><time>2026-05-04T08:44:53Z</time></trkpt><trkpt lat="43.6935411840478" lon="10.748528439866615"><ele>8.5</ele><time>2026-05-04T08:44:54Z</time></trkpt><trkpt lat="43.69339404023766" lon="10.748530020076183"><ele>8.0</ele><time>2026-05-04T08:44:55Z</time></trkpt><trkpt lat="43.69325145024067" lon="10.74852339719431"><ele>9.75</ele><time>2026-05-04T08:44:56Z</time></trkpt><trkpt lat="43.69311856401907" lon="10.748523125422576"><ele>11.5</ele><time>2026-05-04T08:44:57Z</time></trkpt><trkpt lat="43.69299114494537" lon="10.748520640300086"><ele>13.25</ele><time>2026-05-04T08:44:58Z</time></trkpt><trkpt lat="43.6928679617225" lon="10.748522665644881"><ele>15.0</ele><time>2026-05-04T08:44:59Z</time></trkpt><trkpt lat="43.692739786977036" lon="10.748527408011055"><ele>16.25</ele><time>2026-05-04T08:45:00Z</time></trkpt><trkpt lat="43.69260380265803" lon="10.748540722162721"><ele>17.5</ele><time>2026-05-04T08:45:01Z</time></trkpt><trkpt lat="43.692465793047624" lon="10.748552053223149"><ele>18.75</ele><time>2026-05-04T08:45:02Z</time></trkpt><trkpt lat="43.692324482135945" lon="10.74856027462767"><ele>20.0</ele><time>2026-05-04T08:45:03Z</time></trkpt><trkpt lat="43.69218380617033" lon="10.748572555837361"><ele>20.0</ele><time>2026-05-04T08:45:04Z</time></trkpt><trkpt lat="43.69203907068851" lon="10.748582365160061"><ele>20.0</ele><time>2026-05-04T08:45:05Z</time></trkpt><trkpt lat="43.69189539003927" lon="10.748601257028936"><ele>20.0</ele><time>2026-05-04T08:45:06Z</time></trkpt><trkpt lat="43.69176541572043" lon="10.748614865080329"><ele>20.0</ele><time>2026-05-04T08:45:07Z</time></trkpt><trkpt lat="43.69164633959846" lon="10.748632560923843"><ele>20.0</ele><time>2026-05-04T08:45:08Z</time></trkpt><trkpt lat="43.69152506356402" lon="10.748626804795823"><ele>20.0</ele><time>2026-05-04T08:45:09Z</time></trkpt><trkpt lat="43.69139090587392" lon="10.748640532926563"><ele>20.0</ele><time>2026-05-04T08:45:10Z</time></trkpt><trkpt lat="43.69125033523146" lon="10.748654917286126"><ele>20.0</ele><time>2026-05-04T08:45:11Z</time></trkpt><trkpt lat="43.6911018691972" lon="10.748669482523576"><ele>20.333333333333336</ele><time>2026-05-04T08:45:12Z</time></trkpt><trkpt lat="43.69094453547713" lon="10.748684017181187"><ele>20.666666666666668</ele><time>2026-05-04T08:45:13Z</time></trkpt><trkpt lat="43.69078525685899" lon="10.748720737410945"><ele>21.0</ele><time>2026-05-04T08:45:14Z</time></trkpt><trkpt lat="43.69062158897455" lon="10.748731060134094"><ele>21.0</ele><time>2026-05-04T08:45:15Z</time></trkpt><trkpt lat="43.69045553641657" lon="10.74874623286447"><ele>21.0</ele><time>2026-05-04T08:45:16Z</time></trkpt><trkpt lat="43.69028990792521" lon="10.748762245621828"><ele>21.0</ele><time>2026-05-04T08:45:17Z</time></trkpt><trkpt lat="43.69012578245219" lon="10.74878596828847"><ele>22.0</ele><time>2026-05-04T08:45:18.001Z</time></trkpt><trkpt lat="43.689972296327156" lon="10.748815277808966"><ele>23.0</ele><time>2026-05-04T08:45:19.001Z</time></trkpt><trkpt lat="43.689825288429695" lon="10.748847347926946"><ele>24.0</ele><time>2026-05-04T08:45:20.001Z</time></trkpt><trkpt lat="43.6896888424325" lon="10.74888340343293"><ele>25.0</ele><time>2026-05-04T08:45:21.001Z</time></trkpt><trkpt lat="43.68956580808711" lon="10.748923084795885"><ele>25.0</ele><time>2026-05-04T08:45:22.001Z</time></trkpt><trkpt lat="43.68945305743299" lon="10.748963682602772"><ele>25.0</ele><time>2026-05-04T08:45:23.001Z</time></trkpt><trkpt lat="43.68935277817617" lon="10.749004824232026"><ele>25.0</ele><time>2026-05-04T08:45:24.001Z</time></trkpt><trkpt lat="43.689260949329444" lon="10.749055029040987"><ele>25.0</ele><time>2026-05-04T08:45:25.001Z</time></trkpt><trkpt lat="43.6891703269343" lon="10.74913835199334"><ele>25.0</ele><time>2026-05-04T08:45:26.001Z</time></trkpt><trkpt lat="43.68908486183983" lon="10.749236362526029"><ele>27.0</ele><time>2026-05-04T08:45:27.001Z</time></trkpt><trkpt lat="43.68900321019123" lon="10.749351862537214"><ele>29.0</ele><time>2026-05-04T08:45:28.001Z</time></trkpt><trkpt lat="43.68893113983388" lon="10.749474101670499"><ele>31.0</ele><time>2026-05-04T08:45:29.001Z</time></trkpt><trkpt lat="43.688861385909156" lon="10.74960014975497"><ele>33.0</ele><time>2026-05-04T08:45:30.001Z</time></trkpt><trkpt lat="43.688792752500994" lon="10.749723674232525"><ele>33.0</ele><time>2026-05-04T08:45:31.001Z</time></trkpt><trkpt lat="43.68871321028522" lon="10.749849170679665"><ele>33.0</ele><time>2026-05-04T08:45:32.001Z</time></trkpt><trkpt lat="43.688629129655425" lon="10.749966407565713"><ele>33.0</ele><time>2026-05-04T08:45:33.001Z</time></trkpt><trkpt lat="43.688535538461956" lon="10.750065278547991"><ele>33.0</ele><time>2026-05-04T08:45:34.001Z</time></trkpt><trkpt lat="43.68843300610953" lon="10.750162863492559"><ele>34.5</ele><time>2026-05-04T08:45:35.001Z</time></trkpt><trkpt lat="43.688314085960435" lon="10.750234227370575"><ele>36.0</ele><time>2026-05-04T08:45:36.001Z</time></trkpt><trkpt lat="43.68819513607916" lon="10.750328470763016"><ele>37.5</ele><time>2026-05-04T08:45:37.001Z</time></trkpt><trkpt lat="43.68808557931725" lon="10.75045128162656"><ele>39.0</ele><time>2026-05-04T08:45:38.001Z</time></trkpt><trkpt lat="43.68796518517086" lon="10.750539468744474"><ele>39.0</ele><time>2026-05-04T08:45:39.001Z</time></trkpt><trkpt lat="43.68785087721652" lon="10.750621474551401"><ele>39.0</ele><time>2026-05-04T08:45:40.001Z</time></trkpt><trkpt lat="43.68777145022205" lon="10.750707918442686"><ele>39.0</ele><time>2026-05-04T08:45:41.001Z</time></trkpt><trkpt lat="43.687695615831835" lon="10.750772563788322"><ele>39.0</ele><time>2026-05-04T08:45:42.001Z</time></trkpt><trkpt lat="43.68762776801845" lon="10.750803399861537"><ele>39.0</ele><time>2026-05-04T08:45:43.001Z</time></trkpt><trkpt lat="43.68755512738074" lon="10.750851083322122"><ele>40.0</ele><time>2026-05-04T08:45:45.001Z</time></trkpt><trkpt lat="43.687523876534335" lon="10.75074806387189"><ele>41.0</ele><time>2026-05-04T08:45:47.001Z</time></trkpt><trkpt lat="43.68748897888446" lon="10.75059340305274"><ele>42.0</ele><time>2026-05-04T08:45:49.001Z</time></trkpt><trkpt lat="43.687460431897236" lon="10.750498145450768"><ele>43.0</ele><time>2026-05-04T08:45:50.001Z</time></trkpt><trkpt lat="43.68742216722422" lon="10.750389886196414"><ele>44.0</ele><time>2026-05-04T08:45:51.001Z</time></trkpt><trkpt lat="43.687390322249335" lon="10.750314313322692"><ele>45.0</ele><time>2026-05-04T08:45:52.001Z</time></trkpt><trkpt lat="43.6872167311993" lon="10.750332994771007"><ele>45.0</ele><time>2026-05-04T08:45:55.001Z</time></trkpt><trkpt lat="43.687157457109954" lon="10.750369599563761"><ele>45.0</ele><time>2026-05-04T08:45:56.001Z</time></trkpt><trkpt lat="43.687089960914975" lon="10.750399501830156"><ele>45.0</ele><time>2026-05-04T08:45:57.001Z</time></trkpt><trkpt lat="43.68701594618892" lon="10.750432616713466"><ele>45.0</ele><time>2026-05-04T08:45:58.001Z</time></trkpt><trkpt lat="43.686943412183666" lon="10.750472588646007"><ele>45.0</ele><time>2026-05-04T08:45:59.001Z</time></trkpt><trkpt lat="43.686869276878426" lon="10.750519663985797"><ele>45.0</ele><time>2026-05-04T08:46:00.001Z</time></trkpt><trkpt lat="43.68679973773834" lon="10.750573579065014"><ele>46.2</ele><time>2026-05-04T08:46:01.001Z</time></trkpt><trkpt lat="43.686726877983325" lon="10.75063407066291"><ele>47.4</ele><time>2026-05-04T08:46:02.001Z</time></trkpt><trkpt lat="43.68664650889811" lon="10.750696856783456"><ele>48.599999999999994</ele><time>2026-05-04T08:46:03.001Z</time></trkpt><trkpt lat="43.68655868855847" lon="10.750767545786108"><ele>49.8</ele><time>2026-05-04T08:46:04.001Z</time></trkpt><trkpt lat="43.6864660753985" lon="10.75083991886723"><ele>51.0</ele><time>2026-05-04T08:46:05.001Z</time></trkpt><trkpt lat="43.68637627609333" lon="10.750920819118981"><ele>51.0</ele><time>2026-05-04T08:46:06.001Z</time></trkpt><trkpt lat="43.68628269439467" lon="10.751011211901782"><ele>51.0</ele><time>2026-05-04T08:46:07.001Z</time></trkpt><trkpt lat="43.686189955571386" lon="10.751105748382251"><ele>51.0</ele><time>2026-05-04T08:46:08.001Z</time></trkpt><trkpt lat="43.686095550333356" lon="10.751198787198343"><ele>51.0</ele><time>2026-05-04T08:46:09.001Z</time></trkpt><trkpt lat="43.685994280728785" lon="10.75129099717527"><ele>52.4</ele><time>2026-05-04T08:46:10.001Z</time></trkpt><trkpt lat="43.68588598205893" lon="10.751376789094412"><ele>53.8</ele><time>2026-05-04T08:46:11.001Z</time></trkpt><trkpt lat="43.68579508650322" lon="10.751441875481142"><ele>55.199999999999996</ele><time>2026-05-04T08:46:12.001Z</time></trkpt><trkpt lat="43.68572011341462" lon="10.751492023610998"><ele>56.599999999999994</ele><time>2026-05-04T08:46:13.001Z</time></trkpt><trkpt lat="43.68565918613043" lon="10.751538668386562"><ele>58.0</ele><time>2026-05-04T08:46:14.001Z</time></trkpt><trkpt lat="43.68558160764063" lon="10.751624764823417"><ele>58.0</ele><time>2026-05-04T08:46:16.001Z</time></trkpt><trkpt lat="43.68562316347727" lon="10.751823767272052"><ele>58.0</ele><time>2026-05-04T08:46:19.001Z</time></trkpt><trkpt lat="43.68566976789728" lon="10.751919356747557"><ele>58.0</ele><time>2026-05-04T08:46:20Z</time></trkpt><trkpt lat="43.6857163049632" lon="10.75202231838581"><ele>58.0</ele><time>2026-05-04T08:46:21Z</time></trkpt><trkpt lat="43.68575783388733" lon="10.752110839952213"><ele>58.0</ele><time>2026-05-04T08:46:22Z</time></trkpt><trkpt lat="43.6857908924392" lon="10.752196732913276"><ele>58.166666666666664</ele><time>2026-05-04T08:46:23Z</time></trkpt><trkpt lat="43.68583499812794" lon="10.752302984075062"><ele>58.33333333333333</ele><time>2026-05-04T08:46:25Z</time></trkpt><trkpt lat="43.68572972292588" lon="10.752381129807606"><ele>58.5</ele><time>2026-05-04T08:46:26Z</time></trkpt><trkpt lat="43.68567071400458" lon="10.752430626872716"><ele>58.66666666666667</ele><time>2026-05-04T08:46:27Z</time></trkpt><trkpt lat="43.68561974362" lon="10.752494841299221"><ele>58.833333333333336</ele><time>2026-05-04T08:46:28Z</time></trkpt><trkpt lat="43.68556280285112" lon="10.752533190347707"><ele>59.0</ele><time>2026-05-04T08:46:29Z</time></trkpt><trkpt lat="43.685494030571434" lon="10.752589112356812"><ele>59.0</ele><time>2026-05-04T08:46:31Z</time></trkpt><trkpt lat="43.6854390219103" lon="10.752643490444587"><ele>59.00000000000001</ele><time>2026-05-04T08:46:34Z</time></trkpt><trkpt lat="43.68549401681754" lon="10.752782469722744"><ele>59.00000000000001</ele><time>2026-05-04T08:46:35Z</time></trkpt><trkpt lat="43.68554920031644" lon="10.752887873258233"><ele>59.0</ele><time>2026-05-04T08:46:36Z</time></trkpt><trkpt lat="43.68560558484958" lon="10.753009788474754"><ele>59.0</ele><time>2026-05-04T08:46:37Z</time></trkpt><trkpt lat="43.685660675653324" lon="10.753140904686102"><ele>58.25</ele><time>2026-05-04T08:46:38Z</time></trkpt><trkpt lat="43.68571536709364" lon="10.753279237877045"><ele>57.5</ele><time>2026-05-04T08:46:39Z</time></trkpt><trkpt lat="43.68577416614902" lon="10.753427686848532"><ele>56.75</ele><time>2026-05-04T08:46:40Z</time></trkpt><trkpt lat="43.68583870060448" lon="10.753579245276917"><ele>56.0</ele><time>2026-05-04T08:46:41Z</time></trkpt><trkpt lat="43.68590510044611" lon="10.753735856058235"><ele>55.25</ele><time>2026-05-04T08:46:42Z</time></trkpt><trkpt lat="43.6859730933591" lon="10.753898440712275"><ele>54.5</ele><time>2026-05-04T08:46:43Z</time></trkpt><trkpt lat="43.68603954149594" lon="10.754062385911707"><ele>53.75</ele><time>2026-05-04T08:46:44Z</time></trkpt><trkpt lat="43.68610007838397" lon="10.754228625975871"><ele>53.0</ele><time>2026-05-04T08:46:45Z</time></trkpt><trkpt lat="43.6861464366792" lon="10.75440462228127"><ele>52.75</ele><time>2026-05-04T08:46:46Z</time></trkpt><trkpt lat="43.686147064976176" lon="10.75459585886625"><ele>52.5</ele><time>2026-05-04T08:46:47Z</time></trkpt><trkpt lat="43.686172643856736" lon="10.75479625833629"><ele>52.25</ele><time>2026-05-04T08:46:48Z</time></trkpt><trkpt lat="43.68617229152189" lon="10.754994678184744"><ele>52.0</ele><time>2026-05-04T08:46:49Z</time></trkpt><trkpt lat="43.68616586858564" lon="10.755195257311518"><ele>51.5</ele><time>2026-05-04T08:46:50Z</time></trkpt><trkpt lat="43.68615628601679" lon="10.75540958709707"><ele>51.0</ele><time>2026-05-04T08:46:51Z</time></trkpt><trkpt lat="43.68614622781212" lon="10.755615908865142"><ele>50.5</ele><time>2026-05-04T08:46:52Z</time></trkpt><trkpt lat="43.686137211054614" lon="10.755805971038551"><ele>50.0</ele><time>2026-05-04T08:46:53Z</time></trkpt><trkpt lat="43.68612895436371" lon="10.755981154619242"><ele>50.5</ele><time>2026-05-04T08:46:54Z</time></trkpt><trkpt lat="43.68612623479804" lon="10.756144958112888"><ele>51.0</ele><time>2026-05-04T08:46:55Z</time></trkpt><trkpt lat="43.68613194296281" lon="10.756310492175281"><ele>51.5</ele><time>2026-05-04T08:46:56Z</time></trkpt><trkpt lat="43.686146424219245" lon="10.75647151569241"><ele>52.0</ele><time>2026-05-04T08:46:57Z</time></trkpt><trkpt lat="43.686166921582505" lon="10.756636834264244"><ele>52.0</ele><time>2026-05-04T08:46:58Z</time></trkpt><trkpt lat="43.68619729278725" lon="10.756807701874694"><ele>52.0</ele><time>2026-05-04T08:46:59Z</time></trkpt><trkpt lat="43.686233847987666" lon="10.756983999094128"><ele>52.0</ele><time>2026-05-04T08:47:00Z</time></trkpt><trkpt lat="43.6862740630944" lon="10.757162329072038"><ele>52.0</ele><time>2026-05-04T08:47:01Z</time></trkpt><trkpt lat="43.686317448337505" lon="10.757342443738914"><ele>52.400000000000006</ele><time>2026-05-04T08:47:02Z</time></trkpt><trkpt lat="43.68635519475439" lon="10.757498766584957"><ele>52.800000000000004</ele><time>2026-05-04T08:47:03Z</time></trkpt><trkpt lat="43.68639321611118" lon="10.757645151411197"><ele>53.2</ele><time>2026-05-04T08:47:04Z</time></trkpt><trkpt lat="43.68642523418588" lon="10.757775829521043"><ele>53.6</ele><time>2026-05-04T08:47:05Z</time></trkpt><trkpt lat="43.686462793809156" lon="10.757916143271183"><ele>54.0</ele><time>2026-05-04T08:47:06Z</time></trkpt><trkpt lat="43.68648663269396" lon="10.758041157271418"><ele>54.400000000000006</ele><time>2026-05-04T08:47:07Z</time></trkpt><trkpt lat="43.686506230366604" lon="10.758173890400693"><ele>54.800000000000004</ele><time>2026-05-04T08:47:08Z</time></trkpt><trkpt lat="43.68647909512409" lon="10.758296438562223"><ele>55.199999999999996</ele><time>2026-05-04T08:47:09Z</time></trkpt><trkpt lat="43.68640086810386" lon="10.75838638753625"><ele>55.599999999999994</ele><time>2026-05-04T08:47:10Z</time></trkpt><trkpt lat="43.68632568089656" lon="10.758491540411592"><ele>56.0</ele><time>2026-05-04T08:47:11Z</time></trkpt><trkpt lat="43.68620342576689" lon="10.758556853130216"><ele>53.333333333333336</ele><time>2026-05-04T08:47:12Z</time></trkpt><trkpt lat="43.68608317384129" lon="10.758664695633575"><ele>50.66666666666667</ele><time>2026-05-04T08:47:13Z</time></trkpt><trkpt lat="43.685954677204066" lon="10.7587864756237"><ele>48.0</ele><time>2026-05-04T08:47:14Z</time></trkpt><trkpt lat="43.685831076196585" lon="10.75893009125105"><ele>48.0</ele><time>2026-05-04T08:47:15Z</time></trkpt><trkpt lat="43.68569038274495" lon="10.759061537802578"><ele>48.0</ele><time>2026-05-04T08:47:16Z</time></trkpt><trkpt lat="43.68555186237315" lon="10.759195939302879"><ele>48.0</ele><time>2026-05-04T08:47:17Z</time></trkpt><trkpt lat="43.68540465002779" lon="10.759321146710828"><ele>44.0</ele><time>2026-05-04T08:47:18Z</time></trkpt><trkpt lat="43.685235172602304" lon="10.759423477486312"><ele>40.0</ele><time>2026-05-04T08:47:19Z</time></trkpt><trkpt lat="43.685057097365856" lon="10.759495066099676"><ele>36.0</ele><time>2026-05-04T08:47:20Z</time></trkpt><trkpt lat="43.68486678297419" lon="10.759554419288872"><ele>36.0</ele><time>2026-05-04T08:47:21Z</time></trkpt><trkpt lat="43.68466791116723" lon="10.75959339832139"><ele>36.0</ele><time>2026-05-04T08:47:22Z</time></trkpt><trkpt lat="43.684461898385166" lon="10.75958360811455"><ele>36.0</ele><time>2026-05-04T08:47:23Z</time></trkpt><trkpt lat="43.6842487279955" lon="10.759614648089922"><ele>34.666666666666664</ele><time>2026-05-04T08:47:24Z</time></trkpt><trkpt lat="43.68404385579235" lon="10.759615541268936"><ele>33.33333333333333</ele><time>2026-05-04T08:47:25Z</time></trkpt><trkpt lat="43.68383980795333" lon="10.75964000963411"><ele>32.0</ele><time>2026-05-04T08:47:26Z</time></trkpt><trkpt lat="43.68364463142478" lon="10.759689103757756"><ele>33.0</ele><time>2026-05-04T08:47:27Z</time></trkpt><trkpt lat="43.68345334905444" lon="10.75975391022392"><ele>34.0</ele><time>2026-05-04T08:47:28Z</time></trkpt><trkpt lat="43.68327194220543" lon="10.759826087135249"><ele>35.0</ele><time>2026-05-04T08:47:29Z</time></trkpt><trkpt lat="43.68308348476277" lon="10.759901496838248"><ele>35.0</ele><time>2026-05-04T08:47:30Z</time></trkpt><trkpt lat="43.68289027567034" lon="10.759973811102459"><ele>35.0</ele><time>2026-05-04T08:47:31Z</time></trkpt><trkpt lat="43.68268819069518" lon="10.76004845705654"><ele>35.0</ele><time>2026-05-04T08:47:32Z</time></trkpt><trkpt lat="43.682489317844954" lon="10.760116629719462"><ele>34.666666666666664</ele><time>2026-05-04T08:47:33Z</time></trkpt><trkpt lat="43.682280680945226" lon="10.760197039506949"><ele>34.333333333333336</ele><time>2026-05-04T08:47:34Z</time></trkpt><trkpt lat="43.682077160120386" lon="10.760285504294297"><ele>34.0</ele><time>2026-05-04T08:47:35Z</time></trkpt><trkpt lat="43.6818843808931" lon="10.760406658858596"><ele>34.0</ele><time>2026-05-04T08:47:36Z</time></trkpt><trkpt lat="43.681696568940175" lon="10.760565339896454"><ele>34.0</ele><time>2026-05-04T08:47:37Z</time></trkpt><trkpt lat="43.68152588863865" lon="10.760750148659989"><ele>34.0</ele><time>2026-05-04T08:47:38Z</time></trkpt><trkpt lat="43.68135926881406" lon="10.760945839777685"><ele>34.0</ele><time>2026-05-04T08:47:39Z</time></trkpt><trkpt lat="43.681192217329674" lon="10.761135537443641"><ele>34.0</ele><time>2026-05-04T08:47:40Z</time></trkpt><trkpt lat="43.681002427925684" lon="10.76126958596153"><ele>34.0</ele><time>2026-05-04T08:47:41.001Z</time></trkpt><trkpt lat="43.68082124290391" lon="10.76141688073598"><ele>34.0</ele><time>2026-05-04T08:47:42.001Z</time></trkpt><trkpt lat="43.6806374672292" lon="10.76156472210289"><ele>34.0</ele><time>2026-05-04T08:47:43.001Z</time></trkpt><trkpt lat="43.68046299305068" lon="10.761725972317501"><ele>34.0</ele><time>2026-05-04T08:47:44.001Z</time></trkpt><trkpt lat="43.68028102491865" lon="10.761872806034793"><ele>36.0</ele><time>2026-05-04T08:47:45.001Z</time></trkpt><trkpt lat="43.6801031735594" lon="10.762022113022608"><ele>38.0</ele><time>2026-05-04T08:47:46.001Z</time></trkpt><trkpt lat="43.67992130354333" lon="10.762169919564858"><ele>40.0</ele><time>2026-05-04T08:47:47.001Z</time></trkpt><trkpt lat="43.67973923359218" lon="10.76230777728876"><ele>40.0</ele><time>2026-05-04T08:47:48.001Z</time></trkpt><trkpt lat="43.6795507133041" lon="10.762435019700652"><ele>40.0</ele><time>2026-05-04T08:47:49.001Z</time></trkpt><trkpt lat="43.67935566574968" lon="10.762545802123066"><ele>40.0</ele><time>2026-05-04T08:47:50.001Z</time></trkpt><trkpt lat="43.67915511221733" lon="10.762642190460886"><ele>40.66666666666667</ele><time>2026-05-04T08:47:51.001Z</time></trkpt><trkpt lat="43.67895173149483" lon="10.762728495473704"><ele>41.333333333333336</ele><time>2026-05-04T08:47:52.001Z</time></trkpt><trkpt lat="43.67874231041679" lon="10.762808470522245"><ele>42.0</ele><time>2026-05-04T08:47:53.001Z</time></trkpt><trkpt lat="43.67853158896497" lon="10.76288835255226"><ele>42.0</ele><time>2026-05-04T08:47:54.001Z</time></trkpt><trkpt lat="43.67832286697783" lon="10.762974621220039"><ele>42.0</ele><time>2026-05-04T08:47:55.001Z</time></trkpt><trkpt lat="43.67811690980313" lon="10.763067076202452"><ele>42.0</ele><time>2026-05-04T08:47:56.001Z</time></trkpt><trkpt lat="43.6779053650778" lon="10.76315925590959"><ele>41.333333333333336</ele><time>2026-05-04T08:47:57.001Z</time></trkpt><trkpt lat="43.67769292711525" lon="10.763247446362461"><ele>40.66666666666667</ele><time>2026-05-04T08:47:58.001Z</time></trkpt><trkpt lat="43.67747970916311" lon="10.763331325987096"><ele>40.0</ele><time>2026-05-04T08:47:59.001Z</time></trkpt><trkpt lat="43.677261670401386" lon="10.76340582737406"><ele>40.0</ele><time>2026-05-04T08:48:00.001Z</time></trkpt><trkpt lat="43.6770538489508" lon="10.763460076400362"><ele>40.0</ele><time>2026-05-04T08:48:01.001Z</time></trkpt><trkpt lat="43.676842211667456" lon="10.763479502680571"><ele>40.0</ele><time>2026-05-04T08:48:02.001Z</time></trkpt><trkpt lat="43.67663019677158" lon="10.76347048250596"><ele>40.66666666666667</ele><time>2026-05-04T08:48:03.001Z</time></trkpt><trkpt lat="43.67642085633872" lon="10.763445222026634"><ele>41.333333333333336</ele><time>2026-05-04T08:48:04.001Z</time></trkpt><trkpt lat="43.67622164711198" lon="10.763396618167553"><ele>42.0</ele><time>2026-05-04T08:48:05.001Z</time></trkpt><trkpt lat="43.67602574263845" lon="10.763324131181632"><ele>42.666666666666664</ele><time>2026-05-04T08:48:06.001Z</time></trkpt><trkpt lat="43.67583765457269" lon="10.763225178659276"><ele>43.33333333333333</ele><time>2026-05-04T08:48:07.001Z</time></trkpt><trkpt lat="43.67566363821225" lon="10.763101770062594"><ele>44.0</ele><time>2026-05-04T08:48:08.001Z</time></trkpt><trkpt lat="43.67548282187647" lon="10.762971211067699"><ele>44.0</ele><time>2026-05-04T08:48:09.001Z</time></trkpt><trkpt lat="43.675312630582376" lon="10.762855993534576"><ele>44.0</ele><time>2026-05-04T08:48:10.001Z</time></trkpt><trkpt lat="43.67513443951165" lon="10.762753732258178"><ele>44.0</ele><time>2026-05-04T08:48:11.001Z</time></trkpt><trkpt lat="43.67495694493975" lon="10.762668694828408"><ele>48.0</ele><time>2026-05-04T08:48:12.001Z</time></trkpt><trkpt lat="43.6747710663844" lon="10.762603932984574"><ele>52.0</ele><time>2026-05-04T08:48:13.001Z</time></trkpt><trkpt lat="43.67458404574256" lon="10.762556270964012"><ele>56.0</ele><time>2026-05-04T08:48:14.001Z</time></trkpt><trkpt lat="43.674392156567" lon="10.762535294100378"><ele>56.333333333333336</ele><time>2026-05-04T08:48:15.001Z</time></trkpt><trkpt lat="43.67419395370696" lon="10.76254403260767"><ele>56.66666666666667</ele><time>2026-05-04T08:48:16.001Z</time></trkpt><trkpt lat="43.673989724966646" lon="10.762587274143154"><ele>57.0</ele><time>2026-05-04T08:48:17.001Z</time></trkpt><trkpt lat="43.673785993087165" lon="10.76265289260223"><ele>60.0</ele><time>2026-05-04T08:48:18.001Z</time></trkpt><trkpt lat="43.67357331461679" lon="10.762715007106713"><ele>63.0</ele><time>2026-05-04T08:48:19.001Z</time></trkpt><trkpt lat="43.67336249343476" lon="10.762766922994993"><ele>66.0</ele><time>2026-05-04T08:48:20.001Z</time></trkpt><trkpt lat="43.673161962815186" lon="10.76281707597879"><ele>66.0</ele><time>2026-05-04T08:48:21.001Z</time></trkpt><trkpt lat="43.6729816924986" lon="10.762865125875908"><ele>66.0</ele><time>2026-05-04T08:48:22.001Z</time></trkpt><trkpt lat="43.67281384986353" lon="10.762906849019782"><ele>66.0</ele><time>2026-05-04T08:48:23.001Z</time></trkpt><trkpt lat="43.67266219740564" lon="10.76294337504039"><ele>65.5</ele><time>2026-05-04T08:48:24.001Z</time></trkpt><trkpt lat="43.672521584015335" lon="10.76296309244501"><ele>65.0</ele><time>2026-05-04T08:48:25.001Z</time></trkpt><trkpt lat="43.672402332938326" lon="10.762951091059952"><ele>64.5</ele><time>2026-05-04T08:48:26Z</time></trkpt><trkpt lat="43.67229753541005" lon="10.762877681433991"><ele>64.0</ele><time>2026-05-04T08:48:27Z</time></trkpt><trkpt lat="43.67219519327736" lon="10.762756772940648"><ele>61.25</ele><time>2026-05-04T08:48:28Z</time></trkpt><trkpt lat="43.67212188465746" lon="10.76257967409059"><ele>58.5</ele><time>2026-05-04T08:48:29Z</time></trkpt><trkpt lat="43.67208133132729" lon="10.76241349326053"><ele>55.75</ele><time>2026-05-04T08:48:30Z</time></trkpt><trkpt lat="43.67208201126028" lon="10.762238336485854"><ele>53.0</ele><time>2026-05-04T08:48:31Z</time></trkpt><trkpt lat="43.672134654759304" lon="10.76207715728554"><ele>53.0</ele><time>2026-05-04T08:48:32Z</time></trkpt><trkpt lat="43.672234670451104" lon="10.761960419826911"><ele>53.0</ele><time>2026-05-04T08:48:33Z</time></trkpt><trkpt lat="43.6723354195846" lon="10.761847555764534"><ele>53.0</ele><time>2026-05-04T08:48:34Z</time></trkpt><trkpt lat="43.672423293169224" lon="10.76170416862204"><ele>53.0</ele><time>2026-05-04T08:48:35Z</time></trkpt><trkpt lat="43.67249604124085" lon="10.761535799034663"><ele>54.66666666666667</ele><time>2026-05-04T08:48:36Z</time></trkpt><trkpt lat="43.67253564141842" lon="10.761343645220855"><ele>56.33333333333333</ele><time>2026-05-04T08:48:37Z</time></trkpt><trkpt lat="43.67253747452009" lon="10.761130392712692"><ele>58.0</ele><time>2026-05-04T08:48:38Z</time></trkpt><trkpt lat="43.672504054761234" lon="10.760915888927512"><ele>60.25</ele><time>2026-05-04T08:48:39Z</time></trkpt><trkpt lat="43.67244246761875" lon="10.760721655611562"><ele>62.5</ele><time>2026-05-04T08:48:40Z</time></trkpt><trkpt lat="43.67234370514061" lon="10.760566214079287"><ele>64.75</ele><time>2026-05-04T08:48:41Z</time></trkpt><trkpt lat="43.672223608431864" lon="10.76045094759203"><ele>67.0</ele><time>2026-05-04T08:48:42Z</time></trkpt><trkpt lat="43.67212294851475" lon="10.760338812438755"><ele>66.5</ele><time>2026-05-04T08:48:43Z</time></trkpt><trkpt lat="43.67209789014715" lon="10.760192475695003"><ele>66.0</ele><time>2026-05-04T08:48:44Z</time></trkpt><trkpt lat="43.672114766016" lon="10.760022511459058"><ele>65.5</ele><time>2026-05-04T08:48:45Z</time></trkpt><trkpt lat="43.67212171481138" lon="10.759857752253259"><ele>65.0</ele><time>2026-05-04T08:48:46Z</time></trkpt><trkpt lat="43.672097331212385" lon="10.759717084557852"><ele>65.0</ele><time>2026-05-04T08:48:47Z</time></trkpt><trkpt lat="43.672027824543626" lon="10.75961381782961"><ele>65.0</ele><time>2026-05-04T08:48:48Z</time></trkpt><trkpt lat="43.67192364156195" lon="10.759555009179115"><ele>65.0</ele><time>2026-05-04T08:48:49Z</time></trkpt><trkpt lat="43.671813637344016" lon="10.759465030372944"><ele>65.0</ele><time>2026-05-04T08:48:50Z</time></trkpt><trkpt lat="43.671730103351244" lon="10.759330150291943"><ele>69.8</ele><time>2026-05-04T08:48:51Z</time></trkpt><trkpt lat="43.67169719065959" lon="10.759178165412854"><ele>74.6</ele><time>2026-05-04T08:48:52Z</time></trkpt><trkpt lat="43.67171925931304" lon="10.759030034375709"><ele>79.4</ele><time>2026-05-04T08:48:53Z</time></trkpt><trkpt lat="43.67178564408151" lon="10.758905399897449"><ele>84.2</ele><time>2026-05-04T08:48:54Z</time></trkpt><trkpt lat="43.671834170878924" lon="10.758781213505552"><ele>89.0</ele><time>2026-05-04T08:48:55Z</time></trkpt><trkpt lat="43.67185946750594" lon="10.758615864168586"><ele>89.0</ele><time>2026-05-04T08:48:56Z</time></trkpt><trkpt lat="43.671883495535305" lon="10.758435231172397"><ele>89.0</ele><time>2026-05-04T08:48:57Z</time></trkpt><trkpt lat="43.67191073788879" lon="10.758244116077385"><ele>89.0</ele><time>2026-05-04T08:48:58Z</time></trkpt><trkpt lat="43.67193890422066" lon="10.758050164557128"><ele>89.0</ele><time>2026-05-04T08:48:59Z</time></trkpt><trkpt lat="43.6719632491239" lon="10.757888065345679"><ele>87.6</ele><time>2026-05-04T08:49:00Z</time></trkpt><trkpt lat="43.671973678192685" lon="10.757749870503211"><ele>86.2</ele><time>2026-05-04T08:49:01Z</time></trkpt><trkpt lat="43.671948007092645" lon="10.75762563694045"><ele>84.8</ele><time>2026-05-04T08:49:02Z</time></trkpt><trkpt lat="43.671882434096595" lon="10.757518114468573"><ele>83.39999999999999</ele><time>2026-05-04T08:49:03Z</time></trkpt><trkpt lat="43.671780402478795" lon="10.757440609777237"><ele>82.0</ele><time>2026-05-04T08:49:04Z</time></trkpt><trkpt lat="43.67167242517225" lon="10.75738416101035"><ele>82.0</ele><time>2026-05-04T08:49:05Z</time></trkpt><trkpt lat="43.6715750849784" lon="10.757344669044839"><ele>82.0</ele><time>2026-05-04T08:49:06Z</time></trkpt><trkpt lat="43.671489777642975" lon="10.757309954416373"><ele>82.0</ele><time>2026-05-04T08:49:07Z</time></trkpt><trkpt lat="43.67141810245421" lon="10.757273983283438"><ele>82.0</ele><time>2026-05-04T08:49:08Z</time></trkpt><trkpt lat="43.67131337324424" lon="10.757225357322762"><ele>82.0</ele><time>2026-05-04T08:49:10Z</time></trkpt><trkpt lat="43.67121972457035" lon="10.757152375931819"><ele>82.0</ele><time>2026-05-04T08:49:12Z</time></trkpt><trkpt lat="43.671189079633244" lon="10.757063672210542"><ele>82.0</ele><time>2026-05-04T08:49:13Z</time></trkpt><trkpt lat="43.67118223176117" lon="10.75694387745069"><ele>82.0</ele><time>2026-05-04T08:49:14Z</time></trkpt><trkpt lat="43.67118856117206" lon="10.75680380999416"><ele>82.0</ele><time>2026-05-04T08:49:15Z</time></trkpt><trkpt lat="43.67118553363079" lon="10.756647577075835"><ele>82.0</ele><time>2026-05-04T08:49:16Z</time></trkpt><trkpt lat="43.671174781004666" lon="10.756468893342632"><ele>81.75</ele><time>2026-05-04T08:49:17Z</time></trkpt><trkpt lat="43.67115361370153" lon="10.756275229700707"><ele>81.5</ele><time>2026-05-04T08:49:18Z</time></trkpt><trkpt lat="43.67113042808169" lon="10.756071936202346"><ele>81.25</ele><time>2026-05-04T08:49:19Z</time></trkpt><trkpt lat="43.67110826505259" lon="10.755869899191248"><ele>81.0</ele><time>2026-05-04T08:49:20Z</time></trkpt><trkpt lat="43.67108476507806" lon="10.755672203817808"><ele>81.0</ele><time>2026-05-04T08:49:21Z</time></trkpt><trkpt lat="43.67105841908504" lon="10.755431825202738"><ele>81.0</ele><time>2026-05-04T08:49:22Z</time></trkpt><trkpt lat="43.67103961413659" lon="10.755211966075855"><ele>81.0</ele><time>2026-05-04T08:49:23Z</time></trkpt><trkpt lat="43.67101677210797" lon="10.755006184590925"><ele>80.2</ele><time>2026-05-04T08:49:24Z</time></trkpt><trkpt lat="43.67099531011615" lon="10.754817317197448"><ele>79.39999999999999</ele><time>2026-05-04T08:49:25Z</time></trkpt><trkpt lat="43.67097448774357" lon="10.75464855974957"><ele>78.6</ele><time>2026-05-04T08:49:26Z</time></trkpt><trkpt lat="43.670957385609285" lon="10.754507064570127"><ele>77.8</ele><time>2026-05-04T08:49:27Z</time></trkpt><trkpt lat="43.67094908149969" lon="10.75441051907217"><ele>77.0</ele><time>2026-05-04T08:49:28Z</time></trkpt><trkpt lat="43.670844440439566" lon="10.75439430863336"><ele>77.0</ele><time>2026-05-04T08:49:36Z</time></trkpt><trkpt lat="43.67078171452503" lon="10.754425400429717"><ele>77.0</ele><time>2026-05-04T08:49:37Z</time></trkpt><trkpt lat="43.67070577743617" lon="10.754453051105946"><ele>77.0</ele><time>2026-05-04T08:49:38Z</time></trkpt><trkpt lat="43.67060661338334" lon="10.754458535094075"><ele>77.0</ele><time>2026-05-04T08:49:39Z</time></trkpt><trkpt lat="43.67049062643821" lon="10.754437499048162"><ele>77.0</ele><time>2026-05-04T08:49:40Z</time></trkpt><trkpt lat="43.67035454010785" lon="10.754401372921023"><ele>74.0</ele><time>2026-05-04T08:49:41Z</time></trkpt><trkpt lat="43.67023135623345" lon="10.75432351688068"><ele>71.0</ele><time>2026-05-04T08:49:42Z</time></trkpt><trkpt lat="43.670107788713864" lon="10.754245968323627"><ele>68.0</ele><time>2026-05-04T08:49:43Z</time></trkpt><trkpt lat="43.67000558850975" lon="10.754108877112966"><ele>65.0</ele><time>2026-05-04T08:49:44.001Z</time></trkpt><trkpt lat="43.669893307316215" lon="10.753946089216539"><ele>65.0</ele><time>2026-05-04T08:49:45.001Z</time></trkpt><trkpt lat="43.669781396108704" lon="10.753776383157636"><ele>65.0</ele><time>2026-05-04T08:49:46.001Z</time></trkpt><trkpt lat="43.66967435819557" lon="10.753606561657818"><ele>65.0</ele><time>2026-05-04T08:49:47.001Z</time></trkpt><trkpt lat="43.669568161889835" lon="10.753456771228455"><ele>63.333333333333336</ele><time>2026-05-04T08:49:48.001Z</time></trkpt><trkpt lat="43.669496149572595" lon="10.753275579109644"><ele>61.66666666666667</ele><time>2026-05-04T08:49:49.001Z</time></trkpt><trkpt lat="43.66941778496864" lon="10.75309306856226"><ele>60.0</ele><time>2026-05-04T08:49:50.001Z</time></trkpt><trkpt lat="43.66932757656999" lon="10.752910480011945"><ele>58.33333333333333</ele><time>2026-05-04T08:49:51.001Z</time></trkpt><trkpt lat="43.669247896666405" lon="10.752700971932734"><ele>56.666666666666664</ele><time>2026-05-04T08:49:52.001Z</time></trkpt><trkpt lat="43.669166760787874" lon="10.752490910664863"><ele>55.0</ele><time>2026-05-04T08:49:53.001Z</time></trkpt><trkpt lat="43.66908214513487" lon="10.752286606587031"><ele>55.0</ele><time>2026-05-04T08:49:54.001Z</time></trkpt><trkpt lat="43.668998864590854" lon="10.752077335773517"><ele>55.0</ele><time>2026-05-04T08:49:55.001Z</time></trkpt><trkpt lat="43.668916600315704" lon="10.751865060666873"><ele>55.0</ele><time>2026-05-04T08:49:56.001Z</time></trkpt><trkpt lat="43.66882332106796" lon="10.751654200656873"><ele>52.666666666666664</ele><time>2026-05-04T08:49:57.001Z</time></trkpt><trkpt lat="43.66870008762281" lon="10.751451912689873"><ele>50.33333333333333</ele><time>2026-05-04T08:49:58.001Z</time></trkpt><trkpt lat="43.66856805407205" lon="10.751281262861816"><ele>48.0</ele><time>2026-05-04T08:49:59.001Z</time></trkpt><trkpt lat="43.668427986872054" lon="10.751131894227761"><ele>45.75</ele><time>2026-05-04T08:50:00.001Z</time></trkpt><trkpt lat="43.668300749876366" lon="10.7510124282194"><ele>43.5</ele><time>2026-05-04T08:50:01.001Z</time></trkpt><trkpt lat="43.66817799241995" lon="10.75094438317571"><ele>41.25</ele><time>2026-05-04T08:50:02.001Z</time></trkpt><trkpt lat="43.668046694184234" lon="10.750935231255028"><ele>39.0</ele><time>2026-05-04T08:50:03.001Z</time></trkpt><trkpt lat="43.66790362785713" lon="10.75100076823621"><ele>39.333333333333336</ele><time>2026-05-04T08:50:04.001Z</time></trkpt><trkpt lat="43.66776215379581" lon="10.75109445540688"><ele>39.66666666666667</ele><time>2026-05-04T08:50:05.001Z</time></trkpt><trkpt lat="43.66761685111951" lon="10.751212748737306"><ele>40.0</ele><time>2026-05-04T08:50:06.001Z</time></trkpt><trkpt lat="43.66746755930819" lon="10.751333498347197"><ele>40.0</ele><time>2026-05-04T08:50:07.001Z</time></trkpt><trkpt lat="43.667297396559405" lon="10.751430115505526"><ele>40.0</ele><time>2026-05-04T08:50:08.001Z</time></trkpt><trkpt lat="43.667132428233984" lon="10.751548336464829"><ele>40.0</ele><time>2026-05-04T08:50:09.001Z</time></trkpt><trkpt lat="43.66697639761686" lon="10.751687261225362"><ele>40.333333333333336</ele><time>2026-05-04T08:50:10.001Z</time></trkpt><trkpt lat="43.66680065658006" lon="10.751815992363145"><ele>40.666666666666664</ele><time>2026-05-04T08:50:11.001Z</time></trkpt><trkpt lat="43.66662021645586" lon="10.751922724442762"><ele>41.0</ele><time>2026-05-04T08:50:12.001Z</time></trkpt><trkpt lat="43.66644159287066" lon="10.752049455717877"><ele>41.0</ele><time>2026-05-04T08:50:13.001Z</time></trkpt><trkpt lat="43.66625494824433" lon="10.75215996347827"><ele>41.0</ele><time>2026-05-04T08:50:14.001Z</time></trkpt><trkpt lat="43.66606416440666" lon="10.752234009329028"><ele>41.0</ele><time>2026-05-04T08:50:15.001Z</time></trkpt><trkpt lat="43.665859937710565" lon="10.75230344300552"><ele>41.0</ele><time>2026-05-04T08:50:16.001Z</time></trkpt><trkpt lat="43.66565279241657" lon="10.75238916344394"><ele>41.0</ele><time>2026-05-04T08:50:17.001Z</time></trkpt><trkpt lat="43.665440703445064" lon="10.752454928551415"><ele>41.0</ele><time>2026-05-04T08:50:18.001Z</time></trkpt><trkpt lat="43.66522566939943" lon="10.752529003390178"><ele>38.0</ele><time>2026-05-04T08:50:19.001Z</time></trkpt><trkpt lat="43.66500822086866" lon="10.752600848691738"><ele>35.0</ele><time>2026-05-04T08:50:20.001Z</time></trkpt><trkpt lat="43.66478864512525" lon="10.752674531428717"><ele>38.5</ele><time>2026-05-04T08:50:21.001Z</time></trkpt><trkpt lat="43.664568569570775" lon="10.752746588403323"><ele>42.0</ele><time>2026-05-04T08:50:22.001Z</time></trkpt><trkpt lat="43.66434055292834" lon="10.752821352457978"><ele>42.0</ele><time>2026-05-04T08:50:23.001Z</time></trkpt><trkpt lat="43.66413869450274" lon="10.752887371051525"><ele>42.0</ele><time>2026-05-04T08:50:24.001Z</time></trkpt><trkpt lat="43.663966113170716" lon="10.752941194539654"><ele>42.0</ele><time>2026-05-04T08:50:25.001Z</time></trkpt><trkpt lat="43.66382176722883" lon="10.752984278740405"><ele>42.0</ele><time>2026-05-04T08:50:26.001Z</time></trkpt><trkpt lat="43.6637029267922" lon="10.752973264523867"><ele>42.0</ele><time>2026-05-04T08:50:27.001Z</time></trkpt><trkpt lat="43.66361599448513" lon="10.752959073386794"><ele>42.0</ele><time>2026-05-04T08:50:28.001Z</time></trkpt><trkpt lat="43.6635478550042" lon="10.752930146844523"><ele>42.0</ele><time>2026-05-04T08:50:29.001Z</time></trkpt><trkpt lat="43.66348503699146" lon="10.752896357257269"><ele>42.0</ele><time>2026-05-04T08:50:30.001Z</time></trkpt><trkpt lat="43.663395286610076" lon="10.753009301749554"><ele>40.5</ele><time>2026-05-04T08:50:31.001Z</time></trkpt><trkpt lat="43.66331519431007" lon="10.753091904280112"><ele>39.0</ele><time>2026-05-04T08:50:32Z</time></trkpt><trkpt lat="43.6632080354127" lon="10.753152390597378"><ele>37.5</ele><time>2026-05-04T08:50:33Z</time></trkpt><trkpt lat="43.663090093908096" lon="10.753226469426776"><ele>36.0</ele><time>2026-05-04T08:50:34Z</time></trkpt><trkpt lat="43.66295620449281" lon="10.753288810873615"><ele>36.0</ele><time>2026-05-04T08:50:35Z</time></trkpt><trkpt lat="43.66280530257401" lon="10.753327132067513"><ele>36.0</ele><time>2026-05-04T08:50:36Z</time></trkpt><trkpt lat="43.662640156400784" lon="10.753348143874344"><ele>36.0</ele><time>2026-05-04T08:50:37Z</time></trkpt><trkpt lat="43.66246858260193" lon="10.75336576720175"><ele>36.0</ele><time>2026-05-04T08:50:38Z</time></trkpt><trkpt lat="43.66228607242539" lon="10.753377864387323"><ele>36.0</ele><time>2026-05-04T08:50:39Z</time></trkpt><trkpt lat="43.66210526583992" lon="10.753371173965203"><ele>36.0</ele><time>2026-05-04T08:50:40Z</time></trkpt><trkpt lat="43.66191514589493" lon="10.753367238745211"><ele>36.333333333333336</ele><time>2026-05-04T08:50:41Z</time></trkpt><trkpt lat="43.66172214196687" lon="10.753385805030712"><ele>36.66666666666667</ele><time>2026-05-04T08:50:42Z</time></trkpt><trkpt lat="43.66152660954752" lon="10.753399944632495"><ele>37.0</ele><time>2026-05-04T08:50:43Z</time></trkpt><trkpt lat="43.661345426229744" lon="10.753401962939531"><ele>37.0</ele><time>2026-05-04T08:50:44Z</time></trkpt><trkpt lat="43.66116876711146" lon="10.753400767433849"><ele>37.0</ele><time>2026-05-04T08:50:45Z</time></trkpt><trkpt lat="43.661012307591555" lon="10.753419260977825"><ele>37.0</ele><time>2026-05-04T08:50:46Z</time></trkpt><trkpt lat="43.66086360175052" lon="10.753423499691898"><ele>37.75</ele><time>2026-05-04T08:50:47Z</time></trkpt><trkpt lat="43.66071869434801" lon="10.753443429619384"><ele>38.5</ele><time>2026-05-04T08:50:48Z</time></trkpt><trkpt lat="43.66057667395268" lon="10.753508244053068"><ele>39.25</ele><time>2026-05-04T08:50:49Z</time></trkpt><trkpt lat="43.66044593595091" lon="10.753620920509968"><ele>40.0</ele><time>2026-05-04T08:50:50Z</time></trkpt><trkpt lat="43.66030723186851" lon="10.753698844908467"><ele>40.75</ele><time>2026-05-04T08:50:51Z</time></trkpt><trkpt lat="43.660159190719156" lon="10.753755976353839"><ele>41.5</ele><time>2026-05-04T08:50:52Z</time></trkpt><trkpt lat="43.66002032801051" lon="10.75380222551655"><ele>42.25</ele><time>2026-05-04T08:50:53Z</time></trkpt><trkpt lat="43.65990215126999" lon="10.753835092492379"><ele>43.0</ele><time>2026-05-04T08:50:54Z</time></trkpt><trkpt lat="43.65980930265528" lon="10.75387068269623"><ele>43.0</ele><time>2026-05-04T08:50:55Z</time></trkpt><trkpt lat="43.65972357289527" lon="10.753922754213407"><ele>43.0</ele><time>2026-05-04T08:50:56Z</time></trkpt><trkpt lat="43.659631928996596" lon="10.753982607232736"><ele>43.0</ele><time>2026-05-04T08:50:57Z</time></trkpt><trkpt lat="43.659534544177234" lon="10.754059806829895"><ele>43.0</ele><time>2026-05-04T08:50:58Z</time></trkpt><trkpt lat="43.65943233232287" lon="10.754152391666656"><ele>43.0</ele><time>2026-05-04T08:50:59Z</time></trkpt><trkpt lat="43.65933338232954" lon="10.754258990077304"><ele>41.5</ele><time>2026-05-04T08:51:00Z</time></trkpt><trkpt lat="43.65923461912406" lon="10.754375673013932"><ele>40.0</ele><time>2026-05-04T08:51:01Z</time></trkpt><trkpt lat="43.65913813288724" lon="10.754493612248831"><ele>38.5</ele><time>2026-05-04T08:51:02Z</time></trkpt><trkpt lat="43.659052294632765" lon="10.754597466197469"><ele>37.0</ele><time>2026-05-04T08:51:03Z</time></trkpt><trkpt lat="43.65896047290922" lon="10.75470609953565"><ele>37.0</ele><time>2026-05-04T08:51:04Z</time></trkpt><trkpt lat="43.658851561331275" lon="10.754834951633313"><ele>37.0</ele><time>2026-05-04T08:51:05Z</time></trkpt><trkpt lat="43.65874906436087" lon="10.754956214743318"><ele>37.0</ele><time>2026-05-04T08:51:06Z</time></trkpt><trkpt lat="43.65864434711554" lon="10.75510971335263"><ele>37.0</ele><time>2026-05-04T08:51:07Z</time></trkpt><trkpt lat="43.65852276835661" lon="10.755242112876095"><ele>37.0</ele><time>2026-05-04T08:51:08Z</time></trkpt><trkpt lat="43.658414206927205" lon="10.75537305993961"><ele>37.0</ele><time>2026-05-04T08:51:09Z</time></trkpt><trkpt lat="43.658312256798006" lon="10.75548694889778"><ele>37.0</ele><time>2026-05-04T08:51:10Z</time></trkpt><trkpt lat="43.658214459571745" lon="10.75559674359826"><ele>37.0</ele><time>2026-05-04T08:51:11Z</time></trkpt><trkpt lat="43.65812217974607" lon="10.75571156895267"><ele>37.0</ele><time>2026-05-04T08:51:12Z</time></trkpt><trkpt lat="43.65803296327155" lon="10.755821364005612"><ele>37.0</ele><time>2026-05-04T08:51:13Z</time></trkpt><trkpt lat="43.65794759877387" lon="10.755931904883932"><ele>37.0</ele><time>2026-05-04T08:51:14Z</time></trkpt><trkpt lat="43.657844915534724" lon="10.75604899293528"><ele>37.0</ele><time>2026-05-04T08:51:15Z</time></trkpt><trkpt lat="43.65775444044202" lon="10.756190547547773"><ele>38.5</ele><time>2026-05-04T08:51:16Z</time></trkpt><trkpt lat="43.65769355454343" lon="10.756355274916885"><ele>40.0</ele><time>2026-05-04T08:51:17Z</time></trkpt><trkpt lat="43.6576268528826" lon="10.756494778702212"><ele>41.5</ele><time>2026-05-04T08:51:18Z</time></trkpt><trkpt lat="43.65758173570157" lon="10.756597333101825"><ele>43.0</ele><time>2026-05-04T08:51:19Z</time></trkpt><trkpt lat="43.65752591062428" lon="10.756739307033374"><ele>44.2</ele><time>2026-05-04T08:51:21Z</time></trkpt><trkpt lat="43.65744867952817" lon="10.756872830881175"><ele>45.4</ele><time>2026-05-04T08:51:23Z</time></trkpt><trkpt lat="43.657347997678606" lon="10.756947888737693"><ele>46.6</ele><time>2026-05-04T08:51:25Z</time></trkpt><trkpt lat="43.65723528222445" lon="10.756972880352466"><ele>47.800000000000004</ele><time>2026-05-04T08:51:27Z</time></trkpt><trkpt lat="43.65717099457632" lon="10.757003922261228"><ele>49.0</ele><time>2026-05-04T08:51:28Z</time></trkpt><trkpt lat="43.657099514826285" lon="10.757071665979314"><ele>49.0</ele><time>2026-05-04T08:51:29Z</time></trkpt><trkpt lat="43.65700729222611" lon="10.75711780237266"><ele>49.0</ele><time>2026-05-04T08:51:30Z</time></trkpt><trkpt lat="43.656897503093035" lon="10.757123857607194"><ele>49.0</ele><time>2026-05-04T08:51:31Z</time></trkpt><trkpt lat="43.656778608569944" lon="10.757130420497958"><ele>49.0</ele><time>2026-05-04T08:51:32Z</time></trkpt><trkpt lat="43.65665502554091" lon="10.757139418811088"><ele>47.0</ele><time>2026-05-04T08:51:33Z</time></trkpt><trkpt lat="43.65653927733046" lon="10.757156510653003"><ele>45.0</ele><time>2026-05-04T08:51:34Z</time></trkpt><trkpt lat="43.65643639989284" lon="10.757188065475471"><ele>43.0</ele><time>2026-05-04T08:51:35Z</time></trkpt><trkpt lat="43.656343012622244" lon="10.757231173515928"><ele>41.0</ele><time>2026-05-04T08:51:36Z</time></trkpt><trkpt lat="43.65627018471772" lon="10.75733155761752"><ele>39.0</ele><time>2026-05-04T08:51:37Z</time></trkpt><trkpt lat="43.65621531597226" lon="10.757374571742345"><ele>39.0</ele><time>2026-05-04T08:51:38.001Z</time></trkpt><trkpt lat="43.656152609854146" lon="10.757387698647475"><ele>39.0</ele><time>2026-05-04T08:51:39.001Z</time></trkpt><trkpt lat="43.65606448286715" lon="10.757345776273835"><ele>39.0</ele><time>2026-05-04T08:51:40.001Z</time></trkpt><trkpt lat="43.655943104902114" lon="10.757351200021112"><ele>39.0</ele><time>2026-05-04T08:51:41.001Z</time></trkpt><trkpt lat="43.65579868906172" lon="10.757283840881835"><ele>39.0</ele><time>2026-05-04T08:51:42.001Z</time></trkpt><trkpt lat="43.65561924445554" lon="10.757233985149288"><ele>39.333333333333336</ele><time>2026-05-04T08:51:43.001Z</time></trkpt><trkpt lat="43.655436093185436" lon="10.75719350508068"><ele>39.66666666666667</ele><time>2026-05-04T08:51:44.001Z</time></trkpt><trkpt lat="43.65523533362278" lon="10.757184758341776"><ele>40.0</ele><time>2026-05-04T08:51:45.001Z</time></trkpt><trkpt lat="43.65506969692173" lon="10.757170767480849"><ele>40.0</ele><time>2026-05-04T08:51:46.001Z</time></trkpt><trkpt lat="43.65493043299132" lon="10.757155628803504"><ele>40.0</ele><time>2026-05-04T08:51:47.001Z</time></trkpt><trkpt lat="43.6548119636543" lon="10.757139831114745"><ele>40.0</ele><time>2026-05-04T08:51:48.001Z</time></trkpt><trkpt lat="43.65469321630989" lon="10.757123114077231"><ele>40.0</ele><time>2026-05-04T08:51:49.001Z</time></trkpt><trkpt lat="43.65459346876477" lon="10.757120588171697"><ele>40.0</ele><time>2026-05-04T08:51:50.001Z</time></trkpt><trkpt lat="43.65451599271023" lon="10.757110302114594"><ele>40.0</ele><time>2026-05-04T08:51:51.001Z</time></trkpt><trkpt lat="43.6544494734059" lon="10.757168707778936"><ele>40.0</ele><time>2026-05-04T08:51:52.001Z</time></trkpt><trkpt lat="43.65437542201792" lon="10.757215622939066"><ele>40.0</ele><time>2026-05-04T08:51:53.001Z</time></trkpt><trkpt lat="43.654309761248086" lon="10.757361695978664"><ele>40.0</ele><time>2026-05-04T08:51:54.001Z</time></trkpt><trkpt lat="43.65420783066184" lon="10.75751720410884"><ele>39.333333333333336</ele><time>2026-05-04T08:51:55.001Z</time></trkpt><trkpt lat="43.654065180437335" lon="10.757646494363247"><ele>38.666666666666664</ele><time>2026-05-04T08:51:56.001Z</time></trkpt><trkpt lat="43.653943040215374" lon="10.757835364568223"><ele>38.0</ele><time>2026-05-04T08:51:57.001Z</time></trkpt><trkpt lat="43.653822017225664" lon="10.75796719333051"><ele>38.25</ele><time>2026-05-04T08:51:58.001Z</time></trkpt><trkpt lat="43.65372571703613" lon="10.758093908467629"><ele>38.5</ele><time>2026-05-04T08:51:59.001Z</time></trkpt><trkpt lat="43.653634475100226" lon="10.758198962500096"><ele>38.75</ele><time>2026-05-04T08:52:00.001Z</time></trkpt><trkpt lat="43.65353648779024" lon="10.758268330802105"><ele>39.0</ele><time>2026-05-04T08:52:01.001Z</time></trkpt><trkpt lat="43.653422676174124" lon="10.75831734953964"><ele>39.0</ele><time>2026-05-04T08:52:02.001Z</time></trkpt><trkpt lat="43.65328377798686" lon="10.758365974378558"><ele>39.0</ele><time>2026-05-04T08:52:03.001Z</time></trkpt><trkpt lat="43.65311445235404" lon="10.758414419063865"><ele>39.0</ele><time>2026-05-04T08:52:04.001Z</time></trkpt><trkpt lat="43.6529838921049" lon="10.758448248719438"><ele>39.0</ele><time>2026-05-04T08:52:05.001Z</time></trkpt><trkpt lat="43.652895856691984" lon="10.758462504501875"><ele>39.0</ele><time>2026-05-04T08:52:06.001Z</time></trkpt><trkpt lat="43.65281424495296" lon="10.7584530683476"><ele>39.0</ele><time>2026-05-04T08:52:07.001Z</time></trkpt><trkpt lat="43.65270816597006" lon="10.758426792132386"><ele>39.0</ele><time>2026-05-04T08:52:08.001Z</time></trkpt><trkpt lat="43.652599989039004" lon="10.758431985091713"><ele>39.0</ele><time>2026-05-04T08:52:09.001Z</time></trkpt><trkpt lat="43.65251633257938" lon="10.758454319483722"><ele>39.0</ele><time>2026-05-04T08:52:10.001Z</time></trkpt><trkpt lat="43.65244004818127" lon="10.758520675817712"><ele>38.333333333333336</ele><time>2026-05-04T08:52:11.001Z</time></trkpt><trkpt lat="43.652363183326024" lon="10.758660837422717"><ele>37.66666666666667</ele><time>2026-05-04T08:52:12.001Z</time></trkpt><trkpt lat="43.65223809912826" lon="10.758800260056317"><ele>37.0</ele><time>2026-05-04T08:52:13.001Z</time></trkpt><trkpt lat="43.6520879995472" lon="10.758990749410678"><ele>37.66666666666667</ele><time>2026-05-04T08:52:14.001Z</time></trkpt><trkpt lat="43.6519350386445" lon="10.759187143618913"><ele>38.333333333333336</ele><time>2026-05-04T08:52:15.001Z</time></trkpt><trkpt lat="43.65176800620396" lon="10.759391583675562"><ele>39.0</ele><time>2026-05-04T08:52:16.001Z</time></trkpt><trkpt lat="43.65162218113327" lon="10.759603212368225"><ele>40.333333333333336</ele><time>2026-05-04T08:52:17.001Z</time></trkpt><trkpt lat="43.65145620895593" lon="10.759797123171978"><ele>41.66666666666667</ele><time>2026-05-04T08:52:18.001Z</time></trkpt><trkpt lat="43.65130346819058" lon="10.759941541243318"><ele>43.0</ele><time>2026-05-04T08:52:19.001Z</time></trkpt><trkpt lat="43.651155789703616" lon="10.760090970552394"><ele>44.0</ele><time>2026-05-04T08:52:20.001Z</time></trkpt><trkpt lat="43.651018817047834" lon="10.760225732637888"><ele>45.0</ele><time>2026-05-04T08:52:21.001Z</time></trkpt><trkpt lat="43.6508845012695" lon="10.760368581904425"><ele>46.0</ele><time>2026-05-04T08:52:22.001Z</time></trkpt><trkpt lat="43.650748947614765" lon="10.76051274757968"><ele>46.0</ele><time>2026-05-04T08:52:23.001Z</time></trkpt><trkpt lat="43.650606263042064" lon="10.760688862965916"><ele>46.0</ele><time>2026-05-04T08:52:24.001Z</time></trkpt><trkpt lat="43.650449384311095" lon="10.760846618943404"><ele>46.0</ele><time>2026-05-04T08:52:25.001Z</time></trkpt><trkpt lat="43.65027755318659" lon="10.7609906369703"><ele>45.66666666666667</ele><time>2026-05-04T08:52:26.001Z</time></trkpt><trkpt lat="43.65012005189892" lon="10.761151673878937"><ele>45.333333333333336</ele><time>2026-05-04T08:52:27.001Z</time></trkpt><trkpt lat="43.649968886502364" lon="10.761320657712234"><ele>45.0</ele><time>2026-05-04T08:52:28.001Z</time></trkpt><trkpt lat="43.64980753509968" lon="10.761529630725336"><ele>45.0</ele><time>2026-05-04T08:52:29.001Z</time></trkpt><trkpt lat="43.6496059733438" lon="10.761725548487014"><ele>45.0</ele><time>2026-05-04T08:52:30.001Z</time></trkpt><trkpt lat="43.649422841988354" lon="10.761930942775143"><ele>45.333333333333336</ele><time>2026-05-04T08:52:31.001Z</time></trkpt><trkpt lat="43.64925166099072" lon="10.762129562284047"><ele>45.66666666666667</ele><time>2026-05-04T08:52:32.001Z</time></trkpt><trkpt lat="43.6491059732305" lon="10.762300929207331"><ele>46.0</ele><time>2026-05-04T08:52:33.001Z</time></trkpt><trkpt lat="43.648973431879206" lon="10.762456316740943"><ele>46.0</ele><time>2026-05-04T08:52:34.001Z</time></trkpt><trkpt lat="43.648846083861145" lon="10.762604907305779"><ele>46.0</ele><time>2026-05-04T08:52:35.001Z</time></trkpt><trkpt lat="43.648735087640965" lon="10.762725923793665"><ele>46.0</ele><time>2026-05-04T08:52:36.001Z</time></trkpt><trkpt lat="43.64864868974574" lon="10.762797515579777"><ele>46.0</ele><time>2026-05-04T08:52:37.001Z</time></trkpt><trkpt lat="43.64859223130886" lon="10.762844650403537"><ele>46.199999999999996</ele><time>2026-05-04T08:52:38Z</time></trkpt><trkpt lat="43.64852852969817" lon="10.76289995082349"><ele>46.4</ele><time>2026-05-04T08:52:40Z</time></trkpt><trkpt lat="43.64846546110268" lon="10.762955912298587"><ele>46.6</ele><time>2026-05-04T08:52:42Z</time></trkpt><trkpt lat="43.64840682658576" lon="10.76302767137539"><ele>46.8</ele><time>2026-05-04T08:52:43Z</time></trkpt><trkpt lat="43.6483308209326" lon="10.763134181567779"><ele>47.0</ele><time>2026-05-04T08:52:44Z</time></trkpt><trkpt lat="43.64824602605847" lon="10.763251918100838"><ele>47.0</ele><time>2026-05-04T08:52:45Z</time></trkpt><trkpt lat="43.648179183339934" lon="10.763343842766007"><ele>47.0</ele><time>2026-05-04T08:52:46Z</time></trkpt><trkpt lat="43.64813112659138" lon="10.763405952215509"><ele>47.0</ele><time>2026-05-04T08:52:47Z</time></trkpt><trkpt lat="43.64803758145685" lon="10.763438206739918"><ele>47.0</ele><time>2026-05-04T08:52:49Z</time></trkpt><trkpt lat="43.64797930397997" lon="10.76339683449056"><ele>47.0</ele><time>2026-05-04T08:52:50Z</time></trkpt><trkpt lat="43.647917869752284" lon="10.763345011606464"><ele>47.0</ele><time>2026-05-04T08:52:51Z</time></trkpt><trkpt lat="43.64785081466424" lon="10.763314999076313"><ele>47.0</ele><time>2026-05-04T08:52:53Z</time></trkpt><trkpt lat="43.64782284574587" lon="10.763484015152807"><ele>47.0</ele><time>2026-05-04T08:52:54Z</time></trkpt><trkpt lat="43.64785125967645" lon="10.763590397184064"><ele>47.0</ele><time>2026-05-04T08:52:55Z</time></trkpt><trkpt lat="43.647854145509555" lon="10.763746158490548"><ele>47.0</ele><time>2026-05-04T08:52:56Z</time></trkpt><trkpt lat="43.647824994636686" lon="10.763924446380896"><ele>47.666666666666664</ele><time>2026-05-04T08:52:57Z</time></trkpt><trkpt lat="43.647750629916935" lon="10.764109100820006"><ele>48.33333333333333</ele><time>2026-05-04T08:52:58Z</time></trkpt><trkpt lat="43.647645943339505" lon="10.764304604261953"><ele>49.0</ele><time>2026-05-04T08:52:59Z</time></trkpt><trkpt lat="43.64754355331319" lon="10.764523229735953"><ele>49.0</ele><time>2026-05-04T08:53:00Z</time></trkpt><trkpt lat="43.64741856842766" lon="10.764743526970934"><ele>49.0</ele><time>2026-05-04T08:53:01Z</time></trkpt><trkpt lat="43.64729754051715" lon="10.76497106232024"><ele>49.0</ele><time>2026-05-04T08:53:02Z</time></trkpt><trkpt lat="43.647167867319524" lon="10.765210225184072"><ele>46.5</ele><time>2026-05-04T08:53:03Z</time></trkpt><trkpt lat="43.64703501745045" lon="10.765452531635828"><ele>44.0</ele><time>2026-05-04T08:53:04Z</time></trkpt><trkpt lat="43.64689188535181" lon="10.765707778827787"><ele>44.0</ele><time>2026-05-04T08:53:05Z</time></trkpt><trkpt lat="43.646750910948604" lon="10.765966938385917"><ele>44.0</ele><time>2026-05-04T08:53:06Z</time></trkpt><trkpt lat="43.64659445721651" lon="10.766217245028031"><ele>49.5</ele><time>2026-05-04T08:53:07Z</time></trkpt><trkpt lat="43.64644803317626" lon="10.76648285362301"><ele>55.0</ele><time>2026-05-04T08:53:08Z</time></trkpt><trkpt lat="43.64629783428497" lon="10.766759215272899"><ele>52.5</ele><time>2026-05-04T08:53:09Z</time></trkpt><trkpt lat="43.64614587272636" lon="10.767040311312003"><ele>50.0</ele><time>2026-05-04T08:53:10Z</time></trkpt><trkpt lat="43.64598982277174" lon="10.767324355976275"><ele>50.0</ele><time>2026-05-04T08:53:11Z</time></trkpt><trkpt lat="43.64583395836226" lon="10.767613048281758"><ele>50.0</ele><time>2026-05-04T08:53:12Z</time></trkpt><trkpt lat="43.645673949633505" lon="10.767904136313067"><ele>51.5</ele><time>2026-05-04T08:53:13Z</time></trkpt><trkpt lat="43.645525585983606" lon="10.768213187466369"><ele>53.0</ele><time>2026-05-04T08:53:14.001Z</time></trkpt><trkpt lat="43.64535972241465" lon="10.768512152767237"><ele>49.5</ele><time>2026-05-04T08:53:15.001Z</time></trkpt><trkpt lat="43.64519333851906" lon="10.768813761451698"><ele>46.0</ele><time>2026-05-04T08:53:16.001Z</time></trkpt><trkpt lat="43.64502761943862" lon="10.769119076798063"><ele>48.0</ele><time>2026-05-04T08:53:17.001Z</time></trkpt><trkpt lat="43.64485997047344" lon="10.769426962015302"><ele>50.0</ele><time>2026-05-04T08:53:18.001Z</time></trkpt><trkpt lat="43.64469631961348" lon="10.769735777122815"><ele>50.0</ele><time>2026-05-04T08:53:19.001Z</time></trkpt><trkpt lat="43.644540799006904" lon="10.770049364316263"><ele>50.0</ele><time>2026-05-04T08:53:20.001Z</time></trkpt><trkpt lat="43.64439100986718" lon="10.770379828256027"><ele>50.0</ele><time>2026-05-04T08:53:21.001Z</time></trkpt><trkpt lat="43.64425129704196" lon="10.770713852753634"><ele>50.0</ele><time>2026-05-04T08:53:22.001Z</time></trkpt><trkpt lat="43.6441173387964" lon="10.771050757221749"><ele>50.0</ele><time>2026-05-04T08:53:23.001Z</time></trkpt><trkpt lat="43.64397468202706" lon="10.771377524571609"><ele>50.0</ele><time>2026-05-04T08:53:24.001Z</time></trkpt><trkpt lat="43.64383989533186" lon="10.771718953280589"><ele>48.5</ele><time>2026-05-04T08:53:25.001Z</time></trkpt><trkpt lat="43.64371867674698" lon="10.772064960408024"><ele>47.0</ele><time>2026-05-04T08:53:26.001Z</time></trkpt><trkpt lat="43.64358218863343" lon="10.772398633120781"><ele>48.5</ele><time>2026-05-04T08:53:27.001Z</time></trkpt><trkpt lat="43.64344599950847" lon="10.772738904734481"><ele>50.0</ele><time>2026-05-04T08:53:28.001Z</time></trkpt><trkpt lat="43.64331101279287" lon="10.773074590735478"><ele>50.0</ele><time>2026-05-04T08:53:29.001Z</time></trkpt><trkpt lat="43.64317554866793" lon="10.773409118292223"><ele>50.0</ele><time>2026-05-04T08:53:30.001Z</time></trkpt><trkpt lat="43.643038158131866" lon="10.773744812440984"><ele>52.0</ele><time>2026-05-04T08:53:31.001Z</time></trkpt><trkpt lat="43.6429023934792" lon="10.774076917811362"><ele>54.0</ele><time>2026-05-04T08:53:32.001Z</time></trkpt><trkpt lat="43.64276540539451" lon="10.774412087265546"><ele>54.0</ele><time>2026-05-04T08:53:33.001Z</time></trkpt><trkpt lat="43.64263143655885" lon="10.774746544626623"><ele>54.0</ele><time>2026-05-04T08:53:34.001Z</time></trkpt><trkpt lat="43.64250918184075" lon="10.7750793488472"><ele>55.5</ele><time>2026-05-04T08:53:35.001Z</time></trkpt><trkpt lat="43.642413075947324" lon="10.775416106841606"><ele>57.0</ele><time>2026-05-04T08:53:36.001Z</time></trkpt><trkpt lat="43.64234506312582" lon="10.775761353212442"><ele>58.5</ele><time>2026-05-04T08:53:37.001Z</time></trkpt><trkpt lat="43.6423074705418" lon="10.776097606679864"><ele>60.0</ele><time>2026-05-04T08:53:38.001Z</time></trkpt><trkpt lat="43.64229579152716" lon="10.77644033476773"><ele>60.0</ele><time>2026-05-04T08:53:39.001Z</time></trkpt><trkpt lat="43.6423033412397" lon="10.776796507822901"><ele>60.0</ele><time>2026-05-04T08:53:40.001Z</time></trkpt><trkpt lat="43.64231040795894" lon="10.777167236952549"><ele>60.0</ele><time>2026-05-04T08:53:41.001Z</time></trkpt><trkpt lat="43.642309163701526" lon="10.77752979435213"><ele>60.0</ele><time>2026-05-04T08:53:42.001Z</time></trkpt><trkpt lat="43.64230573457188" lon="10.777876594111811"><ele>58.0</ele><time>2026-05-04T08:53:43.001Z</time></trkpt><trkpt lat="43.642286983367896" lon="10.77821508341983"><ele>56.0</ele><time>2026-05-04T08:53:44.001Z</time></trkpt><trkpt lat="43.642238553543585" lon="10.778539932461644"><ele>56.0</ele><time>2026-05-04T08:53:45.001Z</time></trkpt><trkpt lat="43.64218295417024" lon="10.778845882951488"><ele>56.0</ele><time>2026-05-04T08:53:46.001Z</time></trkpt><trkpt lat="43.64213014409277" lon="10.779059176878356"><ele>56.0</ele><time>2026-05-04T08:53:47.001Z</time></trkpt><trkpt lat="43.64207879996949" lon="10.779214950925583"><ele>56.00000000000001</ele><time>2026-05-04T08:53:48.001Z</time></trkpt><trkpt lat="43.642048287122236" lon="10.779307820591466"><ele>56.0</ele><time>2026-05-04T08:53:49.001Z</time></trkpt><trkpt lat="43.641985872420996" lon="10.779351005138244"><ele>56.0</ele><time>2026-05-04T08:53:51.001Z</time></trkpt><trkpt lat="43.64191334292052" lon="10.779345298330798"><ele>56.0</ele><time>2026-05-04T08:53:52.001Z</time></trkpt><trkpt lat="43.64181674970104" lon="10.779337967486967"><ele>56.00000000000001</ele><time>2026-05-04T08:53:53.001Z</time></trkpt><trkpt lat="43.64170397999139" lon="10.779307606364986"><ele>56.0</ele><time>2026-05-04T08:53:54.001Z</time></trkpt><trkpt lat="43.64157596630016" lon="10.77926220628653"><ele>53.66666666666667</ele><time>2026-05-04T08:53:55.001Z</time></trkpt><trkpt lat="43.64143497361456" lon="10.779208369262511"><ele>51.33333333333333</ele><time>2026-05-04T08:53:56.001Z</time></trkpt><trkpt lat="43.64128401798988" lon="10.779156598632134"><ele>49.0</ele><time>2026-05-04T08:53:57.001Z</time></trkpt><trkpt lat="43.64112805320701" lon="10.77910102455646"><ele>49.0</ele><time>2026-05-04T08:53:58.001Z</time></trkpt><trkpt lat="43.64098522466352" lon="10.779058268808088"><ele>49.0</ele><time>2026-05-04T08:53:59.001Z</time></trkpt><trkpt lat="43.64084615543781" lon="10.779043748223875"><ele>49.0</ele><time>2026-05-04T08:54:00.001Z</time></trkpt><trkpt lat="43.640685518428114" lon="10.779031417793403"><ele>49.0</ele><time>2026-05-04T08:54:01.001Z</time></trkpt><trkpt lat="43.640550730815576" lon="10.779017525050104"><ele>49.0</ele><time>2026-05-04T08:54:02.001Z</time></trkpt><trkpt lat="43.640445068654614" lon="10.779009130406536"><ele>49.0</ele><time>2026-05-04T08:54:03.001Z</time></trkpt><trkpt lat="43.64036617411169" lon="10.778992136731363"><ele>49.0</ele><time>2026-05-04T08:54:04.001Z</time></trkpt><trkpt lat="43.64027963956473" lon="10.77896174263278"><ele>49.0</ele><time>2026-05-04T08:54:06.001Z</time></trkpt><trkpt lat="43.640339250309005" lon="10.77898975358327"><ele>49.0</ele><time>2026-05-04T08:54:13.001Z</time></trkpt><trkpt lat="43.640471694103134" lon="10.778981857361046"><ele>49.0</ele><time>2026-05-04T08:54:15.001Z</time></trkpt><trkpt lat="43.64057251706988" lon="10.779011641894419"><ele>49.0</ele><time>2026-05-04T08:54:16.001Z</time></trkpt><trkpt lat="43.6406875360716" lon="10.779038918497813"><ele>49.0</ele><time>2026-05-04T08:54:17.001Z</time></trkpt><trkpt lat="43.64078501761699" lon="10.779051319817704"><ele>49.0</ele><time>2026-05-04T08:54:18.001Z</time></trkpt><trkpt lat="43.64085018538159" lon="10.779062815530118"><ele>49.0</ele><time>2026-05-04T08:54:19.001Z</time></trkpt><trkpt lat="43.6409355769773" lon="10.779180456127639"><ele>49.0</ele><time>2026-05-04T08:54:21.001Z</time></trkpt><trkpt lat="43.640964038009365" lon="10.77927656091844"><ele>49.0</ele><time>2026-05-04T08:54:22.001Z</time></trkpt><trkpt lat="43.641002429052676" lon="10.779400409161385"><ele>49.0</ele><time>2026-05-04T08:54:23.001Z</time></trkpt><trkpt lat="43.64102396984277" lon="10.779522943524917"><ele>49.0</ele><time>2026-05-04T08:54:24.001Z</time></trkpt><trkpt lat="43.64102867234347" lon="10.779671146464414"><ele>49.0</ele><time>2026-05-04T08:54:25.001Z</time></trkpt><trkpt lat="43.641022353549225" lon="10.779846276849549"><ele>48.6</ele><time>2026-05-04T08:54:26.001Z</time></trkpt><trkpt lat="43.64102207810206" lon="10.780023185961692"><ele>48.2</ele><time>2026-05-04T08:54:27.001Z</time></trkpt><trkpt lat="43.641032737127304" lon="10.780187522792243"><ele>47.800000000000004</ele><time>2026-05-04T08:54:28.001Z</time></trkpt><trkpt lat="43.64103192094031" lon="10.78032493127391"><ele>47.400000000000006</ele><time>2026-05-04T08:54:29.001Z</time></trkpt><trkpt lat="43.64102455341945" lon="10.780458590703219"><ele>47.0</ele><time>2026-05-04T08:54:30.001Z</time></trkpt><trkpt lat="43.6410118266728" lon="10.780585510740549"><ele>46.75</ele><time>2026-05-04T08:54:31.001Z</time></trkpt><trkpt lat="43.64097752949433" lon="10.780705465284212"><ele>46.5</ele><time>2026-05-04T08:54:32.001Z</time></trkpt><trkpt lat="43.64092156990247" lon="10.78080938888888"><ele>46.25</ele><time>2026-05-04T08:54:33.001Z</time></trkpt><trkpt lat="43.6408396279535" lon="10.780903252144077"><ele>46.0</ele><time>2026-05-04T08:54:34.001Z</time></trkpt><trkpt lat="43.640714549108715" lon="10.781034779170493"><ele>46.0</ele><time>2026-05-04T08:54:35.001Z</time></trkpt><trkpt lat="43.64058537242307" lon="10.7811774169801"><ele>46.0</ele><time>2026-05-04T08:54:36.001Z</time></trkpt><trkpt lat="43.64045089234281" lon="10.78129941725775"><ele>46.0</ele><time>2026-05-04T08:54:37.001Z</time></trkpt><trkpt lat="43.64031499921863" lon="10.781411787168844"><ele>46.5</ele><time>2026-05-04T08:54:38.001Z</time></trkpt><trkpt lat="43.64019680994938" lon="10.781487175130694"><ele>47.0</ele><time>2026-05-04T08:54:39.001Z</time></trkpt><trkpt lat="43.640074505733644" lon="10.78155711282725"><ele>47.5</ele><time>2026-05-04T08:54:40.001Z</time></trkpt><trkpt lat="43.63995744986643" lon="10.78165602732584"><ele>48.0</ele><time>2026-05-04T08:54:41.001Z</time></trkpt><trkpt lat="43.63985069656579" lon="10.781792451500099"><ele>48.0</ele><time>2026-05-04T08:54:42.001Z</time></trkpt><trkpt lat="43.63976639585081" lon="10.78192298863945"><ele>48.0</ele><time>2026-05-04T08:54:43.001Z</time></trkpt><trkpt lat="43.639699365506736" lon="10.782013939142635"><ele>48.0</ele><time>2026-05-04T08:54:44Z</time></trkpt><trkpt lat="43.63961429437642" lon="10.78208680815648"><ele>48.0</ele><time>2026-05-04T08:54:45Z</time></trkpt><trkpt lat="43.63950221775391" lon="10.782146783423434"><ele>48.0</ele><time>2026-05-04T08:54:46.001Z</time></trkpt><trkpt lat="43.6393773838438" lon="10.782230004099178"><ele>47.666666666666664</ele><time>2026-05-04T08:54:47.001Z</time></trkpt><trkpt lat="43.639260161186044" lon="10.782353660213952"><ele>47.33333333333333</ele><time>2026-05-04T08:54:48Z</time></trkpt><trkpt lat="43.63914870492278" lon="10.782509988662135"><ele>47.0</ele><time>2026-05-04T08:54:49.001Z</time></trkpt><trkpt lat="43.63903702983434" lon="10.782692444957679"><ele>47.0</ele><time>2026-05-04T08:54:50.001Z</time></trkpt><trkpt lat="43.638925754011" lon="10.782897291425314"><ele>47.0</ele><time>2026-05-04T08:54:51Z</time></trkpt><trkpt lat="43.638808013320585" lon="10.783129666198729"><ele>47.0</ele><time>2026-05-04T08:54:52.001Z</time></trkpt><trkpt lat="43.638688326235055" lon="10.783377748286277"><ele>48.0</ele><time>2026-05-04T08:54:53Z</time></trkpt><trkpt lat="43.63856679905172" lon="10.7836161435881"><ele>49.0</ele><time>2026-05-04T08:54:54Z</time></trkpt><trkpt lat="43.638446062625114" lon="10.783845558653288"><ele>50.0</ele><time>2026-05-04T08:54:55Z</time></trkpt><trkpt lat="43.6383171432098" lon="10.78407658537612"><ele>50.0</ele><time>2026-05-04T08:54:56Z</time></trkpt><trkpt lat="43.638185472891415" lon="10.784289907876646"><ele>50.0</ele><time>2026-05-04T08:54:57Z</time></trkpt><trkpt lat="43.63805492401438" lon="10.784505494116873"><ele>50.0</ele><time>2026-05-04T08:54:58Z</time></trkpt><trkpt lat="43.6379293266107" lon="10.784752938315805"><ele>50.333333333333336</ele><time>2026-05-04T08:54:59.001Z</time></trkpt><trkpt lat="43.63781097161438" lon="10.785008836233287"><ele>50.66666666666667</ele><time>2026-05-04T08:55:00.001Z</time></trkpt><trkpt lat="43.63769533752128" lon="10.785245999656032"><ele>51.0</ele><time>2026-05-04T08:55:01.001Z</time></trkpt><trkpt lat="43.63757602829065" lon="10.785486985032499"><ele>51.0</ele><time>2026-05-04T08:55:02.001Z</time></trkpt><trkpt lat="43.63745965872185" lon="10.785712165958245"><ele>51.0</ele><time>2026-05-04T08:55:03.001Z</time></trkpt><trkpt lat="43.63731851523413" lon="10.78595087422948"><ele>51.0</ele><time>2026-05-04T08:55:04.001Z</time></trkpt><trkpt lat="43.63717466203104" lon="10.786176977428966"><ele>50.5</ele><time>2026-05-04T08:55:05.001Z</time></trkpt><trkpt lat="43.63702628710414" lon="10.786415715302073"><ele>50.0</ele><time>2026-05-04T08:55:06.001Z</time></trkpt><trkpt lat="43.636876297598754" lon="10.786664649898672"><ele>49.5</ele><time>2026-05-04T08:55:07.001Z</time></trkpt><trkpt lat="43.63672149523117" lon="10.78692232432165"><ele>49.0</ele><time>2026-05-04T08:55:08.001Z</time></trkpt><trkpt lat="43.63656267315269" lon="10.7871891220965"><ele>49.0</ele><time>2026-05-04T08:55:09.001Z</time></trkpt><trkpt lat="43.63640447900014" lon="10.787463794333336"><ele>49.0</ele><time>2026-05-04T08:55:10.001Z</time></trkpt><trkpt lat="43.63624566527806" lon="10.78773637675517"><ele>50.0</ele><time>2026-05-04T08:55:11.001Z</time></trkpt><trkpt lat="43.636091874179606" lon="10.787996054349092"><ele>51.0</ele><time>2026-05-04T08:55:12.001Z</time></trkpt><trkpt lat="43.635946917005214" lon="10.788236937167403"><ele>51.0</ele><time>2026-05-04T08:55:13.001Z</time></trkpt><trkpt lat="43.63581026898372" lon="10.788487855076422"><ele>51.0</ele><time>2026-05-04T08:55:14.001Z</time></trkpt><trkpt lat="43.63568859972773" lon="10.788717157834299"><ele>51.0</ele><time>2026-05-04T08:55:15.001Z</time></trkpt><trkpt lat="43.63558890963207" lon="10.788912841455074"><ele>51.0</ele><time>2026-05-04T08:55:16.001Z</time></trkpt><trkpt lat="43.63551191040954" lon="10.789056555280165"><ele>51.0</ele><time>2026-05-04T08:55:17.001Z</time></trkpt><trkpt lat="43.63544438307168" lon="10.789171471571567"><ele>51.0</ele><time>2026-05-04T08:55:18.001Z</time></trkpt><trkpt lat="43.63536372596627" lon="10.789282213160867"><ele>51.0</ele><time>2026-05-04T08:55:19.001Z</time></trkpt><trkpt lat="43.635263617679136" lon="10.7893731586311"><ele>51.0</ele><time>2026-05-04T08:55:20.001Z</time></trkpt><trkpt lat="43.63513937197411" lon="10.789439106960495"><ele>51.0</ele><time>2026-05-04T08:55:21.001Z</time></trkpt><trkpt lat="43.63499501644794" lon="10.789488974287577"><ele>51.0</ele><time>2026-05-04T08:55:22.001Z</time></trkpt><trkpt lat="43.63485273828748" lon="10.789557016237476"><ele>51.0</ele><time>2026-05-04T08:55:23.001Z</time></trkpt><trkpt lat="43.63472310461765" lon="10.789667207382585"><ele>51.0</ele><time>2026-05-04T08:55:24.001Z</time></trkpt><trkpt lat="43.63459111178179" lon="10.78982294580887"><ele>51.0</ele><time>2026-05-04T08:55:25.001Z</time></trkpt><trkpt lat="43.63445848146468" lon="10.78999844431146"><ele>51.0</ele><time>2026-05-04T08:55:26.001Z</time></trkpt><trkpt lat="43.634341150990984" lon="10.790161850990113"><ele>51.25</ele><time>2026-05-04T08:55:27.001Z</time></trkpt><trkpt lat="43.63424393361279" lon="10.790305432334103"><ele>51.5</ele><time>2026-05-04T08:55:28.001Z</time></trkpt><trkpt lat="43.63415122483478" lon="10.790463002565192"><ele>51.75</ele><time>2026-05-04T08:55:29.001Z</time></trkpt><trkpt lat="43.634074278456495" lon="10.790635238806248"><ele>52.0</ele><time>2026-05-04T08:55:30.001Z</time></trkpt><trkpt lat="43.63401695462498" lon="10.7908234022007"><ele>53.33333333333333</ele><time>2026-05-04T08:55:31.001Z</time></trkpt><trkpt lat="43.63395881913905" lon="10.791041485387707"><ele>54.66666666666667</ele><time>2026-05-04T08:55:32.001Z</time></trkpt><trkpt lat="43.63390470401145" lon="10.791262545365775"><ele>56.0</ele><time>2026-05-04T08:55:33.001Z</time></trkpt><trkpt lat="43.63383983007944" lon="10.791483823077723"><ele>56.0</ele><time>2026-05-04T08:55:34.001Z</time></trkpt><trkpt lat="43.633762934740844" lon="10.791712781307556"><ele>56.0</ele><time>2026-05-04T08:55:35.001Z</time></trkpt><trkpt lat="43.63367787707075" lon="10.791930900443898"><ele>56.0</ele><time>2026-05-04T08:55:36.001Z</time></trkpt><trkpt lat="43.63358991917063" lon="10.792128989346775"><ele>55.333333333333336</ele><time>2026-05-04T08:55:37.001Z</time></trkpt><trkpt lat="43.63348376492905" lon="10.792333931549226"><ele>54.66666666666667</ele><time>2026-05-04T08:55:38.001Z</time></trkpt><trkpt lat="43.63337864953537" lon="10.792520095370662"><ele>54.0</ele><time>2026-05-04T08:55:39.001Z</time></trkpt><trkpt lat="43.63326930911514" lon="10.792698012543886"><ele>54.0</ele><time>2026-05-04T08:55:40.001Z</time></trkpt><trkpt lat="43.633180346542" lon="10.792868457956914"><ele>54.0</ele><time>2026-05-04T08:55:41.001Z</time></trkpt><trkpt lat="43.633112505966544" lon="10.793040833798864"><ele>54.0</ele><time>2026-05-04T08:55:42.001Z</time></trkpt><trkpt lat="43.63304377456061" lon="10.793210138488506"><ele>54.0</ele><time>2026-05-04T08:55:43.001Z</time></trkpt><trkpt lat="43.6329571212566" lon="10.793354017376853"><ele>54.0</ele><time>2026-05-04T08:55:44.001Z</time></trkpt><trkpt lat="43.63285310503343" lon="10.793488195563715"><ele>54.0</ele><time>2026-05-04T08:55:45.001Z</time></trkpt><trkpt lat="43.632744302868815" lon="10.793613891637724"><ele>54.0</ele><time>2026-05-04T08:55:46.001Z</time></trkpt><trkpt lat="43.63265048187692" lon="10.79371558530472"><ele>54.0</ele><time>2026-05-04T08:55:47.001Z</time></trkpt><trkpt lat="43.63257844525913" lon="10.793788195381124"><ele>54.2</ele><time>2026-05-04T08:55:48.001Z</time></trkpt><trkpt lat="43.632456528930746" lon="10.793837060093203"><ele>54.400000000000006</ele><time>2026-05-04T08:55:50.001Z</time></trkpt><trkpt lat="43.63238067784449" lon="10.793813555844425"><ele>54.6</ele><time>2026-05-04T08:55:51.001Z</time></trkpt><trkpt lat="43.63229982272086" lon="10.793746390038342"><ele>54.8</ele><time>2026-05-04T08:55:52.001Z</time></trkpt><trkpt lat="43.632209813044796" lon="10.793647634995285"><ele>55.0</ele><time>2026-05-04T08:55:53.001Z</time></trkpt><trkpt lat="43.63211205542053" lon="10.793524430900776"><ele>54.99999999999999</ele><time>2026-05-04T08:55:54.001Z</time></trkpt><trkpt lat="43.63203101248785" lon="10.793416907512952"><ele>55.0</ele><time>2026-05-04T08:55:55.001Z</time></trkpt><trkpt lat="43.6319694411935" lon="10.793357489976241"><ele>55.0</ele><time>2026-05-04T08:55:56.001Z</time></trkpt><trkpt lat="43.63190340925483" lon="10.793329304598897"><ele>55.0</ele><time>2026-05-04T08:55:57.001Z</time></trkpt><trkpt lat="43.63182672785813" lon="10.793339037766673"><ele>54.99999999999999</ele><time>2026-05-04T08:55:58.001Z</time></trkpt><trkpt lat="43.631745059904596" lon="10.793382789809048"><ele>55.0</ele><time>2026-05-04T08:55:59.001Z</time></trkpt><trkpt lat="43.63165681949175" lon="10.793457202371183"><ele>55.33333333333333</ele><time>2026-05-04T08:56:00.001Z</time></trkpt><trkpt lat="43.63155610535559" lon="10.793551990954429"><ele>55.66666666666667</ele><time>2026-05-04T08:56:01.001Z</time></trkpt><trkpt lat="43.63143343631454" lon="10.793675422696486"><ele>56.0</ele><time>2026-05-04T08:56:02.001Z</time></trkpt><trkpt lat="43.63129228973476" lon="10.793826768401365"><ele>56.0</ele><time>2026-05-04T08:56:03.001Z</time></trkpt><trkpt lat="43.631177531017585" lon="10.793955572025217"><ele>56.0</ele><time>2026-05-04T08:56:04.001Z</time></trkpt><trkpt lat="43.63107794300471" lon="10.79405785522623"><ele>56.0</ele><time>2026-05-04T08:56:05.001Z</time></trkpt><trkpt lat="43.63099493164672" lon="10.794138315885926"><ele>56.0</ele><time>2026-05-04T08:56:06.001Z</time></trkpt><trkpt lat="43.63091527946489" lon="10.794184528245326"><ele>58.5</ele><time>2026-05-04T08:56:07.001Z</time></trkpt><trkpt lat="43.63082395895689" lon="10.794216099429212"><ele>61.0</ele><time>2026-05-04T08:56:08.001Z</time></trkpt><trkpt lat="43.63069498154433" lon="10.7942453461259"><ele>63.5</ele><time>2026-05-04T08:56:09.001Z</time></trkpt><trkpt lat="43.63054643110877" lon="10.794263931961495"><ele>66.0</ele><time>2026-05-04T08:56:10.001Z</time></trkpt><trkpt lat="43.63041300196054" lon="10.794265178422801"><ele>65.0</ele><time>2026-05-04T08:56:11.001Z</time></trkpt><trkpt lat="43.630283098896314" lon="10.794289558310927"><ele>64.0</ele><time>2026-05-04T08:56:12.001Z</time></trkpt><trkpt lat="43.63015716989336" lon="10.794331952422274"><ele>63.0</ele><time>2026-05-04T08:56:13.001Z</time></trkpt><trkpt lat="43.630039118555516" lon="10.7944010194639"><ele>62.0</ele><time>2026-05-04T08:56:14.001Z</time></trkpt><trkpt lat="43.629926480087114" lon="10.794495105890668"><ele>61.2</ele><time>2026-05-04T08:56:15.001Z</time></trkpt><trkpt lat="43.629827954368054" lon="10.794606826842584"><ele>60.400000000000006</ele><time>2026-05-04T08:56:16.001Z</time></trkpt><trkpt lat="43.62975754472856" lon="10.794715669976826"><ele>59.599999999999994</ele><time>2026-05-04T08:56:17.001Z</time></trkpt><trkpt lat="43.629702015676024" lon="10.794838318935563"><ele>58.8</ele><time>2026-05-04T08:56:18.001Z</time></trkpt><trkpt lat="43.62967729442175" lon="10.794965400022434"><ele>58.0</ele><time>2026-05-04T08:56:19.001Z</time></trkpt><trkpt lat="43.629657454847504" lon="10.795131859203474"><ele>57.599999999999994</ele><time>2026-05-04T08:56:20.001Z</time></trkpt><trkpt lat="43.62963894889018" lon="10.795311051353684"><ele>57.199999999999996</ele><time>2026-05-04T08:56:21.001Z</time></trkpt><trkpt lat="43.62960920438877" lon="10.795437489138951"><ele>56.8</ele><time>2026-05-04T08:56:22.001Z</time></trkpt><trkpt lat="43.62956264170647" lon="10.795531617676035"><ele>56.4</ele><time>2026-05-04T08:56:23.001Z</time></trkpt><trkpt lat="43.62949243378015" lon="10.795601093883828"><ele>56.0</ele><time>2026-05-04T08:56:24.001Z</time></trkpt><trkpt lat="43.62941812699924" lon="10.795620641385565"><ele>57.0</ele><time>2026-05-04T08:56:25.001Z</time></trkpt><trkpt lat="43.6293165934467" lon="10.795604101176993"><ele>57.99999999999999</ele><time>2026-05-04T08:56:26.001Z</time></trkpt><trkpt lat="43.62921354822604" lon="10.795594580252796"><ele>58.99999999999999</ele><time>2026-05-04T08:56:27.001Z</time></trkpt><trkpt lat="43.62913911578891" lon="10.7956208112811"><ele>60.0</ele><time>2026-05-04T08:56:28.001Z</time></trkpt><trkpt lat="43.6290619178391" lon="10.795695090918484"><ele>61.0</ele><time>2026-05-04T08:56:29.001Z</time></trkpt><trkpt lat="43.62899008579415" lon="10.795809722271564"><ele>61.0</ele><time>2026-05-04T08:56:30.001Z</time></trkpt><trkpt lat="43.62892689588895" lon="10.795944026053805"><ele>61.0</ele><time>2026-05-04T08:56:31.001Z</time></trkpt><trkpt lat="43.628877516188524" lon="10.796102270606076"><ele>61.0</ele><time>2026-05-04T08:56:32.001Z</time></trkpt><trkpt lat="43.62882993248373" lon="10.796276796973237"><ele>61.0</ele><time>2026-05-04T08:56:33.001Z</time></trkpt><trkpt lat="43.62877364545816" lon="10.796442944846486"><ele>60.25</ele><time>2026-05-04T08:56:34.001Z</time></trkpt><trkpt lat="43.628695551719105" lon="10.79658491676847"><ele>59.5</ele><time>2026-05-04T08:56:35.001Z</time></trkpt><trkpt lat="43.628617584944365" lon="10.796683182584408"><ele>58.75</ele><time>2026-05-04T08:56:36.001Z</time></trkpt><trkpt lat="43.628521145706685" lon="10.79676807035977"><ele>58.0</ele><time>2026-05-04T08:56:37.001Z</time></trkpt><trkpt lat="43.62840929252454" lon="10.79685464213922"><ele>59.599999999999994</ele><time>2026-05-04T08:56:38.001Z</time></trkpt><trkpt lat="43.62831283916275" lon="10.7969350011951"><ele>61.199999999999996</ele><time>2026-05-04T08:56:39.001Z</time></trkpt><trkpt lat="43.628247857115376" lon="10.797023531969215"><ele>62.8</ele><time>2026-05-04T08:56:40.001Z</time></trkpt><trkpt lat="43.628191709595114" lon="10.797154144798375"><ele>64.39999999999999</ele><time>2026-05-04T08:56:41.001Z</time></trkpt><trkpt lat="43.628151944739436" lon="10.797304496225658"><ele>66.0</ele><time>2026-05-04T08:56:42.001Z</time></trkpt><trkpt lat="43.628109062274206" lon="10.797501155928312"><ele>63.33333333333333</ele><time>2026-05-04T08:56:43.001Z</time></trkpt><trkpt lat="43.628060471070015" lon="10.797727733254598"><ele>60.666666666666664</ele><time>2026-05-04T08:56:44.001Z</time></trkpt><trkpt lat="43.628006422346765" lon="10.797958798822597"><ele>58.0</ele><time>2026-05-04T08:56:45.001Z</time></trkpt><trkpt lat="43.62794842473602" lon="10.79816862467534"><ele>58.0</ele><time>2026-05-04T08:56:46.001Z</time></trkpt><trkpt lat="43.627881614587366" lon="10.798380060467874"><ele>58.0</ele><time>2026-05-04T08:56:47.001Z</time></trkpt><trkpt lat="43.62781431950944" lon="10.798555102136179"><ele>58.0</ele><time>2026-05-04T08:56:48.001Z</time></trkpt><trkpt lat="43.62774405691494" lon="10.798704368295835"><ele>58.0</ele><time>2026-05-04T08:56:49.001Z</time></trkpt><trkpt lat="43.62767959498409" lon="10.798823319158393"><ele>58.599999999999994</ele><time>2026-05-04T08:56:50.001Z</time></trkpt><trkpt lat="43.62760294605371" lon="10.798937152130412"><ele>59.199999999999996</ele><time>2026-05-04T08:56:51.001Z</time></trkpt><trkpt lat="43.62749985274618" lon="10.799030103146757"><ele>59.8</ele><time>2026-05-04T08:56:52.001Z</time></trkpt><trkpt lat="43.627409373516834" lon="10.799116258201511"><ele>60.4</ele><time>2026-05-04T08:56:53.001Z</time></trkpt><trkpt lat="43.62734273083961" lon="10.799203805366279"><ele>61.0</ele><time>2026-05-04T08:56:54.001Z</time></trkpt><trkpt lat="43.62731253382039" lon="10.799324189428905"><ele>61.25</ele><time>2026-05-04T08:56:55.001Z</time></trkpt><trkpt lat="43.62729410924633" lon="10.79946994532773"><ele>61.5</ele><time>2026-05-04T08:56:56.001Z</time></trkpt><trkpt lat="43.627282064255716" lon="10.799628883194861"><ele>61.75</ele><time>2026-05-04T08:56:57.001Z</time></trkpt><trkpt lat="43.62726971606598" lon="10.799832948179134"><ele>62.0</ele><time>2026-05-04T08:56:58.001Z</time></trkpt><trkpt lat="43.62725780102152" lon="10.800045609710036"><ele>61.0</ele><time>2026-05-04T08:56:59.001Z</time></trkpt><trkpt lat="43.62723591492396" lon="10.800229977729671"><ele>60.0</ele><time>2026-05-04T08:57:00.001Z</time></trkpt><trkpt lat="43.62719886235149" lon="10.800394508985516"><ele>59.0</ele><time>2026-05-04T08:57:01.001Z</time></trkpt><trkpt lat="43.627151689580174" lon="10.80053132485412"><ele>58.0</ele><time>2026-05-04T08:57:02.001Z</time></trkpt><trkpt lat="43.62709153327532" lon="10.800656101162701"><ele>58.0</ele><time>2026-05-04T08:57:03.001Z</time></trkpt><trkpt lat="43.62701613424849" lon="10.800775866047472"><ele>58.0</ele><time>2026-05-04T08:57:04.001Z</time></trkpt><trkpt lat="43.62692468076302" lon="10.800888773773346"><ele>58.0</ele><time>2026-05-04T08:57:05.001Z</time></trkpt><trkpt lat="43.626821289615194" lon="10.800984486951531"><ele>58.0</ele><time>2026-05-04T08:57:06.001Z</time></trkpt><trkpt lat="43.62669552073272" lon="10.801088820920471"><ele>59.599999999999994</ele><time>2026-05-04T08:57:07.001Z</time></trkpt><trkpt lat="43.62658669547185" lon="10.801183276844139"><ele>61.199999999999996</ele><time>2026-05-04T08:57:08.001Z</time></trkpt><trkpt lat="43.6264757762949" lon="10.80127259305142"><ele>62.8</ele><time>2026-05-04T08:57:09.001Z</time></trkpt><trkpt lat="43.626399590868125" lon="10.801351065228548"><ele>64.39999999999999</ele><time>2026-05-04T08:57:10.001Z</time></trkpt><trkpt lat="43.626343394594564" lon="10.801449151189397"><ele>66.0</ele><time>2026-05-04T08:57:11.001Z</time></trkpt><trkpt lat="43.626302651581604" lon="10.801577608710538"><ele>66.0</ele><time>2026-05-04T08:57:12.001Z</time></trkpt><trkpt lat="43.62628384311451" lon="10.80172507127653"><ele>66.0</ele><time>2026-05-04T08:57:13.001Z</time></trkpt><trkpt lat="43.62628695009614" lon="10.801866135849016"><ele>66.0</ele><time>2026-05-04T08:57:14.001Z</time></trkpt><trkpt lat="43.626295276039905" lon="10.801978147361515"><ele>66.0</ele><time>2026-05-04T08:57:15.001Z</time></trkpt><trkpt lat="43.62630388495581" lon="10.802081796519932"><ele>66.0</ele><time>2026-05-04T08:57:16.001Z</time></trkpt><trkpt lat="43.62630889678398" lon="10.802192223345914"><ele>66.0</ele><time>2026-05-04T08:57:17.001Z</time></trkpt><trkpt lat="43.62630582820114" lon="10.802305516740647"><ele>65.33333333333333</ele><time>2026-05-04T08:57:18.001Z</time></trkpt><trkpt lat="43.626298978678335" lon="10.802410659046702"><ele>64.66666666666667</ele><time>2026-05-04T08:57:19.001Z</time></trkpt><trkpt lat="43.62628991586201" lon="10.802507315399115"><ele>64.0</ele><time>2026-05-04T08:57:20.001Z</time></trkpt><trkpt lat="43.626272667202066" lon="10.802665488449033"><ele>63.333333333333336</ele><time>2026-05-04T08:57:22.001Z</time></trkpt><trkpt lat="43.626228068195765" lon="10.802814036889895"><ele>62.66666666666667</ele><time>2026-05-04T08:57:24.001Z</time></trkpt><trkpt lat="43.626191470369136" lon="10.802890813990695"><ele>62.0</ele><time>2026-05-04T08:57:25.001Z</time></trkpt><trkpt lat="43.626143857150254" lon="10.802964310982073"><ele>62.2</ele><time>2026-05-04T08:57:26.001Z</time></trkpt><trkpt lat="43.626094876298964" lon="10.803057276230266"><ele>62.400000000000006</ele><time>2026-05-04T08:57:27.001Z</time></trkpt><trkpt lat="43.62602818103019" lon="10.803153421423724"><ele>62.599999999999994</ele><time>2026-05-04T08:57:28.001Z</time></trkpt><trkpt lat="43.62595190842444" lon="10.803272886505296"><ele>62.8</ele><time>2026-05-04T08:57:29.001Z</time></trkpt><trkpt lat="43.62587446572316" lon="10.803392886979927"><ele>63.0</ele><time>2026-05-04T08:57:30.001Z</time></trkpt><trkpt lat="43.62579393911817" lon="10.803522067012091"><ele>63.0</ele><time>2026-05-04T08:57:31.001Z</time></trkpt><trkpt lat="43.62571087528023" lon="10.803664054913037"><ele>63.0</ele><time>2026-05-04T08:57:32.001Z</time></trkpt><trkpt lat="43.62563371341194" lon="10.803835133405219"><ele>63.0</ele><time>2026-05-04T08:57:33.001Z</time></trkpt><trkpt lat="43.62555866699613" lon="10.804011430778264"><ele>63.0</ele><time>2026-05-04T08:57:34.001Z</time></trkpt><trkpt lat="43.62548656869293" lon="10.804199701198296"><ele>62.5</ele><time>2026-05-04T08:57:35.001Z</time></trkpt><trkpt lat="43.62542180497244" lon="10.804372369067003"><ele>62.0</ele><time>2026-05-04T08:57:36.001Z</time></trkpt><trkpt lat="43.62536002487271" lon="10.804524112116892"><ele>61.5</ele><time>2026-05-04T08:57:37.001Z</time></trkpt><trkpt lat="43.625305542919776" lon="10.804653435056181"><ele>61.0</ele><time>2026-05-04T08:57:38.001Z</time></trkpt><trkpt lat="43.62523695700301" lon="10.804768384887689"><ele>61.75</ele><time>2026-05-04T08:57:39.001Z</time></trkpt><trkpt lat="43.62515417744249" lon="10.804887350940996"><ele>62.5</ele><time>2026-05-04T08:57:40.001Z</time></trkpt><trkpt lat="43.625048544446464" lon="10.805005830379624"><ele>63.25</ele><time>2026-05-04T08:57:41.001Z</time></trkpt><trkpt lat="43.62493540443553" lon="10.805150906091663"><ele>64.0</ele><time>2026-05-04T08:57:42.001Z</time></trkpt><trkpt lat="43.624824153139684" lon="10.805296111673615"><ele>64.0</ele><time>2026-05-04T08:57:43.001Z</time></trkpt><trkpt lat="43.62472151857408" lon="10.805435827221762"><ele>64.0</ele><time>2026-05-04T08:57:44.001Z</time></trkpt><trkpt lat="43.62461876687944" lon="10.805576366267177"><ele>64.0</ele><time>2026-05-04T08:57:45.001Z</time></trkpt><trkpt lat="43.62450214082507" lon="10.80570351942906"><ele>64.0</ele><time>2026-05-04T08:57:46.001Z</time></trkpt><trkpt lat="43.62439196523133" lon="10.805797559112813"><ele>64.8</ele><time>2026-05-04T08:57:47.001Z</time></trkpt><trkpt lat="43.62429556684356" lon="10.805891519219752"><ele>65.60000000000001</ele><time>2026-05-04T08:57:48.001Z</time></trkpt><trkpt lat="43.6242199772649" lon="10.805998534937396"><ele>66.4</ele><time>2026-05-04T08:57:49.001Z</time></trkpt><trkpt lat="43.62416946781161" lon="10.80611238738685"><ele>67.2</ele><time>2026-05-04T08:57:50.001Z</time></trkpt><trkpt lat="43.624135362133664" lon="10.806252013218643"><ele>68.0</ele><time>2026-05-04T08:57:51.001Z</time></trkpt><trkpt lat="43.6241057860795" lon="10.806429357824546"><ele>68.0</ele><time>2026-05-04T08:57:52.001Z</time></trkpt><trkpt lat="43.62405870563886" lon="10.80663130308553"><ele>68.0</ele><time>2026-05-04T08:57:53.001Z</time></trkpt><trkpt lat="43.62399994347524" lon="10.8068187215157"><ele>68.0</ele><time>2026-05-04T08:57:54.001Z</time></trkpt><trkpt lat="43.623934006881875" lon="10.80697699033021"><ele>68.0</ele><time>2026-05-04T08:57:55.001Z</time></trkpt><trkpt lat="43.62385681701281" lon="10.807132719331644"><ele>66.75</ele><time>2026-05-04T08:57:56.001Z</time></trkpt><trkpt lat="43.62377556047951" lon="10.80727916162456"><ele>65.5</ele><time>2026-05-04T08:57:57.001Z</time></trkpt><trkpt lat="43.62368824845231" lon="10.807429971250036"><ele>64.25</ele><time>2026-05-04T08:57:58.001Z</time></trkpt><trkpt lat="43.62360733274562" lon="10.807559110266613"><ele>63.0</ele><time>2026-05-04T08:57:59.001Z</time></trkpt><trkpt lat="43.62353935982611" lon="10.80764737100896"><ele>64.4</ele><time>2026-05-04T08:58:00.001Z</time></trkpt><trkpt lat="43.62348535717844" lon="10.807731425092083"><ele>65.8</ele><time>2026-05-04T08:58:01.001Z</time></trkpt><trkpt lat="43.623452833231596" lon="10.807836308986968"><ele>67.2</ele><time>2026-05-04T08:58:02.001Z</time></trkpt><trkpt lat="43.62342673634494" lon="10.80795925991406"><ele>68.6</ele><time>2026-05-04T08:58:03.001Z</time></trkpt><trkpt lat="43.62338802323387" lon="10.808126138591467"><ele>70.0</ele><time>2026-05-04T08:58:04.001Z</time></trkpt><trkpt lat="43.62334231093067" lon="10.808266541014136"><ele>70.0</ele><time>2026-05-04T08:58:05.001Z</time></trkpt><trkpt lat="43.623267989748875" lon="10.808404372877957"><ele>70.0</ele><time>2026-05-04T08:58:06.001Z</time></trkpt><trkpt lat="43.62317865073494" lon="10.808553742905723"><ele>70.0</ele><time>2026-05-04T08:58:07.001Z</time></trkpt><trkpt lat="43.623088188929565" lon="10.808718122416172"><ele>70.0</ele><time>2026-05-04T08:58:08.001Z</time></trkpt><trkpt lat="43.623008952877534" lon="10.80887962334554"><ele>69.0</ele><time>2026-05-04T08:58:09.001Z</time></trkpt><trkpt lat="43.622948960277064" lon="10.80902068041855"><ele>68.0</ele><time>2026-05-04T08:58:10.001Z</time></trkpt><trkpt lat="43.62290613530276" lon="10.809159726958677"><ele>67.0</ele><time>2026-05-04T08:58:11.001Z</time></trkpt><trkpt lat="43.622874357202605" lon="10.809308564675753"><ele>66.0</ele><time>2026-05-04T08:58:12.001Z</time></trkpt><trkpt lat="43.62285453943704" lon="10.809470924113302"><ele>66.25</ele><time>2026-05-04T08:58:13.001Z</time></trkpt><trkpt lat="43.622812382896456" lon="10.809664505637842"><ele>66.5</ele><time>2026-05-04T08:58:14.001Z</time></trkpt><trkpt lat="43.62276120874025" lon="10.809843541992858"><ele>66.75</ele><time>2026-05-04T08:58:15.001Z</time></trkpt><trkpt lat="43.622700508937726" lon="10.81001783873946"><ele>67.0</ele><time>2026-05-04T08:58:16.001Z</time></trkpt><trkpt lat="43.6226325807609" lon="10.810201188931703"><ele>67.0</ele><time>2026-05-04T08:58:17.001Z</time></trkpt><trkpt lat="43.62256933838667" lon="10.810362069544247"><ele>67.0</ele><time>2026-05-04T08:58:18.001Z</time></trkpt><trkpt lat="43.62250564826683" lon="10.810515353114969"><ele>67.0</ele><time>2026-05-04T08:58:19.001Z</time></trkpt><trkpt lat="43.62244652868517" lon="10.810638532963695"><ele>67.0</ele><time>2026-05-04T08:58:20.001Z</time></trkpt><trkpt lat="43.62237931837103" lon="10.810769196847708"><ele>67.0</ele><time>2026-05-04T08:58:21.001Z</time></trkpt><trkpt lat="43.62230083712468" lon="10.810913568228075"><ele>67.0</ele><time>2026-05-04T08:58:22.001Z</time></trkpt><trkpt lat="43.62220625477725" lon="10.811056382479705"><ele>67.0</ele><time>2026-05-04T08:58:23.001Z</time></trkpt><trkpt lat="43.62210367411549" lon="10.811206413193698"><ele>67.0</ele><time>2026-05-04T08:58:24.001Z</time></trkpt><trkpt lat="43.6219982533795" lon="10.811366152932187"><ele>67.0</ele><time>2026-05-04T08:58:25.001Z</time></trkpt><trkpt lat="43.6219004120451" lon="10.811537776821707"><ele>67.0</ele><time>2026-05-04T08:58:26.001Z</time></trkpt><trkpt lat="43.62180904176218" lon="10.811712228452079"><ele>67.0</ele><time>2026-05-04T08:58:27.001Z</time></trkpt><trkpt lat="43.62172781421571" lon="10.811876723027616"><ele>66.4</ele><time>2026-05-04T08:58:28.001Z</time></trkpt><trkpt lat="43.62165590174808" lon="10.812025131150827"><ele>65.80000000000001</ele><time>2026-05-04T08:58:29.001Z</time></trkpt><trkpt lat="43.62159281969812" lon="10.81214223913609"><ele>65.2</ele><time>2026-05-04T08:58:30.001Z</time></trkpt><trkpt lat="43.62152487918067" lon="10.81224373318297"><ele>64.60000000000001</ele><time>2026-05-04T08:58:31.001Z</time></trkpt><trkpt lat="43.62144611292944" lon="10.81233324026208"><ele>64.0</ele><time>2026-05-04T08:58:32.001Z</time></trkpt><trkpt lat="43.621361015472175" lon="10.812391155855604"><ele>64.0</ele><time>2026-05-04T08:58:33.001Z</time></trkpt><trkpt lat="43.62126544942816" lon="10.812419595010216"><ele>64.0</ele><time>2026-05-04T08:58:34.001Z</time></trkpt><trkpt lat="43.62116008113111" lon="10.81242484346416"><ele>64.0</ele><time>2026-05-04T08:58:35.001Z</time></trkpt><trkpt lat="43.62103450104471" lon="10.81242635706302"><ele>64.0</ele><time>2026-05-04T08:58:36.002Z</time></trkpt><trkpt lat="43.62092072076195" lon="10.812450041805567"><ele>64.0</ele><time>2026-05-04T08:58:37.002Z</time></trkpt><trkpt lat="43.6208168343682" lon="10.812506267008178"><ele>64.0</ele><time>2026-05-04T08:58:38.002Z</time></trkpt><trkpt lat="43.62070542097101" lon="10.812583764272775"><ele>64.0</ele><time>2026-05-04T08:58:39.002Z</time></trkpt><trkpt lat="43.62060427199524" lon="10.812673014483254"><ele>64.0</ele><time>2026-05-04T08:58:40.002Z</time></trkpt><trkpt lat="43.62052231179045" lon="10.812754467433894"><ele>64.0</ele><time>2026-05-04T08:58:41.002Z</time></trkpt><trkpt lat="43.620456006905506" lon="10.812838980611302"><ele>64.0</ele><time>2026-05-04T08:58:42.002Z</time></trkpt><trkpt lat="43.62039946922912" lon="10.812937184673237"><ele>63.99999999999999</ele><time>2026-05-04T08:58:43.002Z</time></trkpt><trkpt lat="43.62037247031474" lon="10.813030740167056"><ele>64.0</ele><time>2026-05-04T08:58:44.002Z</time></trkpt><trkpt lat="43.620369642218805" lon="10.813122845287392"><ele>64.0</ele><time>2026-05-04T08:58:45.002Z</time></trkpt><trkpt lat="43.620378251882094" lon="10.813242236802136"><ele>64.0</ele><time>2026-05-04T08:58:46.002Z</time></trkpt><trkpt lat="43.62039044354433" lon="10.813383967725414"><ele>63.99999999999999</ele><time>2026-05-04T08:58:47.002Z</time></trkpt><trkpt lat="43.620398684937015" lon="10.813534442904658"><ele>64.0</ele><time>2026-05-04T08:58:48.002Z</time></trkpt><trkpt lat="43.62040938910834" lon="10.813692067247734"><ele>64.16666666666666</ele><time>2026-05-04T08:58:49.002Z</time></trkpt><trkpt lat="43.62041516984891" lon="10.81380720956755"><ele>64.33333333333333</ele><time>2026-05-04T08:58:50.002Z</time></trkpt><trkpt lat="43.620405238800316" lon="10.813927747654631"><ele>64.5</ele><time>2026-05-04T08:58:51.002Z</time></trkpt><trkpt lat="43.62037957675988" lon="10.814037625279092"><ele>64.66666666666667</ele><time>2026-05-04T08:58:52.002Z</time></trkpt><trkpt lat="43.62034189116118" lon="10.814132393403439"><ele>64.83333333333334</ele><time>2026-05-04T08:58:53.002Z</time></trkpt><trkpt lat="43.620278545063016" lon="10.814223530960032"><ele>65.0</ele><time>2026-05-04T08:58:54.002Z</time></trkpt><trkpt lat="43.6201911960107" lon="10.814349569403946"><ele>65.0</ele><time>2026-05-04T08:58:55.002Z</time></trkpt><trkpt lat="43.62008889073656" lon="10.814496386245006"><ele>65.0</ele><time>2026-05-04T08:58:56.001Z</time></trkpt><trkpt lat="43.61998366130248" lon="10.814646418036348"><ele>65.0</ele><time>2026-05-04T08:58:57.001Z</time></trkpt><trkpt lat="43.6198871992712" lon="10.814798140279654"><ele>65.0</ele><time>2026-05-04T08:58:58.001Z</time></trkpt><trkpt lat="43.619799131286406" lon="10.814953414116463"><ele>65.0</ele><time>2026-05-04T08:58:59.001Z</time></trkpt><trkpt lat="43.619714168169004" lon="10.81510872794115"><ele>65.0</ele><time>2026-05-04T08:59:00.001Z</time></trkpt><trkpt lat="43.61963187657844" lon="10.815253560810323"><ele>65.0</ele><time>2026-05-04T08:59:01.001Z</time></trkpt><trkpt lat="43.61955866963151" lon="10.815398469257334"><ele>65.0</ele><time>2026-05-04T08:59:02.001Z</time></trkpt><trkpt lat="43.619490838710426" lon="10.815541046382231"><ele>65.75</ele><time>2026-05-04T08:59:03.001Z</time></trkpt><trkpt lat="43.619428031613396" lon="10.815701223594257"><ele>66.5</ele><time>2026-05-04T08:59:04.001Z</time></trkpt><trkpt lat="43.61937914353483" lon="10.815859563008804"><ele>67.25</ele><time>2026-05-04T08:59:05.001Z</time></trkpt><trkpt lat="43.61933732128294" lon="10.815994175219345"><ele>68.0</ele><time>2026-05-04T08:59:06.001Z</time></trkpt><trkpt lat="43.61929345971438" lon="10.81611067694889"><ele>69.33333333333334</ele><time>2026-05-04T08:59:07.001Z</time></trkpt><trkpt lat="43.61924333783224" lon="10.81621820020955"><ele>70.66666666666667</ele><time>2026-05-04T08:59:08.001Z</time></trkpt><trkpt lat="43.6191841762491" lon="10.816303396235652"><ele>72.0</ele><time>2026-05-04T08:59:09.001Z</time></trkpt><trkpt lat="43.61911223979209" lon="10.816352836444961"><ele>73.33333333333333</ele><time>2026-05-04T08:59:10.001Z</time></trkpt><trkpt lat="43.619031163338136" lon="10.816376121765964"><ele>74.66666666666666</ele><time>2026-05-04T08:59:11.001Z</time></trkpt><trkpt lat="43.618934442041386" lon="10.816383871782422"><ele>76.0</ele><time>2026-05-04T08:59:12.001Z</time></trkpt><trkpt lat="43.61883133038154" lon="10.816388111918489"><ele>76.0</ele><time>2026-05-04T08:59:13.001Z</time></trkpt><trkpt lat="43.618720695643916" lon="10.816392834064507"><ele>76.0</ele><time>2026-05-04T08:59:14.001Z</time></trkpt><trkpt lat="43.6186200702465" lon="10.816402155866728"><ele>76.0</ele><time>2026-05-04T08:59:15.001Z</time></trkpt><trkpt lat="43.61853038259918" lon="10.816427064748941"><ele>76.0</ele><time>2026-05-04T08:59:16.001Z</time></trkpt><trkpt lat="43.61844363399679" lon="10.81646340926881"><ele>76.0</ele><time>2026-05-04T08:59:17.001Z</time></trkpt><trkpt lat="43.61836812339851" lon="10.816503483257348"><ele>76.8</ele><time>2026-05-04T08:59:18.001Z</time></trkpt><trkpt lat="43.61827884944084" lon="10.816553276172103"><ele>77.6</ele><time>2026-05-04T08:59:19.001Z</time></trkpt><trkpt lat="43.61819226469574" lon="10.816611996402475"><ele>78.4</ele><time>2026-05-04T08:59:20.001Z</time></trkpt><trkpt lat="43.61809895934586" lon="10.816673918099042"><ele>79.2</ele><time>2026-05-04T08:59:21.001Z</time></trkpt><trkpt lat="43.618001406704124" lon="10.816741833622908"><ele>80.0</ele><time>2026-05-04T08:59:22.001Z</time></trkpt><trkpt lat="43.617917856085576" lon="10.816780550903099"><ele>80.0</ele><time>2026-05-04T08:59:23.001Z</time></trkpt><trkpt lat="43.6178220167084" lon="10.816802296624116"><ele>80.0</ele><time>2026-05-04T08:59:24.001Z</time></trkpt><trkpt lat="43.61773672698303" lon="10.816814251595753"><ele>80.0</ele><time>2026-05-04T08:59:25.001Z</time></trkpt><trkpt lat="43.61762944003033" lon="10.816845372621918"><ele>80.0</ele><time>2026-05-04T08:59:26.001Z</time></trkpt><trkpt lat="43.61753884204638" lon="10.816883300113744"><ele>80.0</ele><time>2026-05-04T08:59:27.001Z</time></trkpt><trkpt lat="43.617463671016836" lon="10.816927826487582"><ele>79.4</ele><time>2026-05-04T08:59:28.001Z</time></trkpt><trkpt lat="43.617363238818335" lon="10.817034574686598"><ele>78.8</ele><time>2026-05-04T08:59:30.001Z</time></trkpt><trkpt lat="43.617311432602676" lon="10.817149172164958"><ele>78.2</ele><time>2026-05-04T08:59:32.001Z</time></trkpt><trkpt lat="43.617225167713116" lon="10.817190694688534"><ele>77.6</ele><time>2026-05-04T08:59:34.001Z</time></trkpt><trkpt lat="43.61711785524078" lon="10.817208960542436"><ele>77.0</ele><time>2026-05-04T08:59:36.001Z</time></trkpt><trkpt lat="43.6169825027862" lon="10.817205812003914"><ele>76.0</ele><time>2026-05-04T08:59:38.001Z</time></trkpt><trkpt lat="43.61689724451979" lon="10.817217698993916"><ele>75.0</ele><time>2026-05-04T08:59:39.001Z</time></trkpt><trkpt lat="43.616809613680346" lon="10.817235002429566"><ele>74.0</ele><time>2026-05-04T08:59:40.001Z</time></trkpt><trkpt lat="43.616733125601165" lon="10.817255976173211"><ele>73.0</ele><time>2026-05-04T08:59:41.001Z</time></trkpt><trkpt lat="43.61665934396745" lon="10.817298356184866"><ele>72.0</ele><time>2026-05-04T08:59:42.001Z</time></trkpt><trkpt lat="43.616577309624816" lon="10.817363815485114"><ele>71.0</ele><time>2026-05-04T08:59:43.001Z</time></trkpt><trkpt lat="43.616491772219554" lon="10.81743871235274"><ele>71.0</ele><time>2026-05-04T08:59:44.001Z</time></trkpt><trkpt lat="43.61643159621626" lon="10.817509527052712"><ele>71.0</ele><time>2026-05-04T08:59:45.001Z</time></trkpt><trkpt lat="43.616370469898904" lon="10.817586984043187"><ele>71.0</ele><time>2026-05-04T08:59:46.001Z</time></trkpt><trkpt lat="43.616314346244366" lon="10.817666565146192"><ele>71.0</ele><time>2026-05-04T08:59:47.001Z</time></trkpt><trkpt lat="43.616243232573034" lon="10.817762688356718"><ele>71.0</ele><time>2026-05-04T08:59:48.001Z</time></trkpt><trkpt lat="43.61617795179146" lon="10.817867646245611"><ele>71.0</ele><time>2026-05-04T08:59:49.001Z</time></trkpt><trkpt lat="43.61611518946431" lon="10.817964456135002"><ele>71.8</ele><time>2026-05-04T08:59:50.001Z</time></trkpt><trkpt lat="43.61605225924213" lon="10.818076888260993"><ele>72.6</ele><time>2026-05-04T08:59:52.001Z</time></trkpt><trkpt lat="43.6160249504213" lon="10.818248894488224"><ele>73.4</ele><time>2026-05-04T08:59:54.001Z</time></trkpt><trkpt lat="43.616002923295476" lon="10.8183693770999"><ele>74.2</ele><time>2026-05-04T08:59:55.001Z</time></trkpt><trkpt lat="43.615981559279675" lon="10.81847750297365"><ele>75.0</ele><time>2026-05-04T08:59:56.001Z</time></trkpt><trkpt lat="43.61595379741403" lon="10.818577105362392"><ele>75.4</ele><time>2026-05-04T08:59:57.001Z</time></trkpt><trkpt lat="43.61590343388144" lon="10.818676810423545"><ele>75.8</ele><time>2026-05-04T08:59:58.001Z</time></trkpt><trkpt lat="43.61583955126785" lon="10.818771092296503"><ele>76.2</ele><time>2026-05-04T08:59:59.001Z</time></trkpt><trkpt lat="43.61576374329539" lon="10.818852174392019"><ele>76.6</ele><time>2026-05-04T09:00:00.001Z</time></trkpt><trkpt lat="43.61567801517909" lon="10.818933329892378"><ele>77.0</ele><time>2026-05-04T09:00:01.001Z</time></trkpt><trkpt lat="43.6155980512546" lon="10.819031359954229"><ele>77.0</ele><time>2026-05-04T09:00:02.001Z</time></trkpt><trkpt lat="43.615527701037294" lon="10.819128709377107"><ele>77.0</ele><time>2026-05-04T09:00:03.001Z</time></trkpt><trkpt lat="43.61547070102771" lon="10.819216072940124"><ele>77.0</ele><time>2026-05-04T09:00:04.001Z</time></trkpt><trkpt lat="43.61540921881122" lon="10.819325660853712"><ele>77.0</ele><time>2026-05-04T09:00:05.001Z</time></trkpt><trkpt lat="43.615352621574225" lon="10.819445540087775"><ele>77.0</ele><time>2026-05-04T09:00:06.001Z</time></trkpt><trkpt lat="43.615291111207455" lon="10.819569677091275"><ele>77.0</ele><time>2026-05-04T09:00:07.001Z</time></trkpt><trkpt lat="43.61523216568877" lon="10.819687153793318"><ele>77.0</ele><time>2026-05-04T09:00:08.001Z</time></trkpt><trkpt lat="43.61516986548805" lon="10.819785898960733"><ele>77.0</ele><time>2026-05-04T09:00:09.001Z</time></trkpt><trkpt lat="43.61511041911904" lon="10.819875434252577"><ele>77.0</ele><time>2026-05-04T09:00:10.001Z</time></trkpt><trkpt lat="43.61505595889619" lon="10.819986045498865"><ele>77.0</ele><time>2026-05-04T09:00:11.001Z</time></trkpt><trkpt lat="43.61500192885087" lon="10.820116662035124"><ele>77.2</ele><time>2026-05-04T09:00:12.001Z</time></trkpt><trkpt lat="43.6149378521932" lon="10.820232400341574"><ele>77.4</ele><time>2026-05-04T09:00:13.001Z</time></trkpt><trkpt lat="43.614875399273856" lon="10.8203341983656"><ele>77.6</ele><time>2026-05-04T09:00:14.001Z</time></trkpt><trkpt lat="43.61483057699361" lon="10.820442779193874"><ele>77.8</ele><time>2026-05-04T09:00:15.001Z</time></trkpt><trkpt lat="43.614800108772165" lon="10.820549667354221"><ele>78.0</ele><time>2026-05-04T09:00:16.001Z</time></trkpt><trkpt lat="43.61478042432818" lon="10.820652286854568"><ele>78.0</ele><time>2026-05-04T09:00:17.001Z</time></trkpt><trkpt lat="43.6147570806724" lon="10.820784224144413"><ele>78.0</ele><time>2026-05-04T09:00:18.001Z</time></trkpt><trkpt lat="43.61472904903459" lon="10.820934803364201"><ele>78.0</ele><time>2026-05-04T09:00:19.001Z</time></trkpt><trkpt lat="43.61469936136651" lon="10.821086155030073"><ele>78.0</ele><time>2026-05-04T09:00:20.001Z</time></trkpt><trkpt lat="43.6146640348852" lon="10.821224779306124"><ele>78.0</ele><time>2026-05-04T09:00:21.001Z</time></trkpt><trkpt lat="43.614622707080365" lon="10.821359081607337"><ele>78.2</ele><time>2026-05-04T09:00:22.001Z</time></trkpt><trkpt lat="43.61457356168516" lon="10.821492105450794"><ele>78.4</ele><time>2026-05-04T09:00:23.001Z</time></trkpt><trkpt lat="43.614536457481144" lon="10.821622372228887"><ele>78.60000000000001</ele><time>2026-05-04T09:00:24.001Z</time></trkpt><trkpt lat="43.61451218715844" lon="10.821744175985224"><ele>78.8</ele><time>2026-05-04T09:00:25.001Z</time></trkpt><trkpt lat="43.614494511160004" lon="10.821855698350186"><ele>79.0</ele><time>2026-05-04T09:00:26.001Z</time></trkpt><trkpt lat="43.61448102886055" lon="10.82195820770748"><ele>78.16666666666666</ele><time>2026-05-04T09:00:27.001Z</time></trkpt><trkpt lat="43.61445973856094" lon="10.822047779564432"><ele>77.33333333333333</ele><time>2026-05-04T09:00:28.001Z</time></trkpt><trkpt lat="43.6144249426051" lon="10.822154165386019"><ele>76.5</ele><time>2026-05-04T09:00:29.001Z</time></trkpt><trkpt lat="43.61438513717441" lon="10.8222606558204"><ele>75.66666666666667</ele><time>2026-05-04T09:00:30.001Z</time></trkpt><trkpt lat="43.61435111032785" lon="10.822365778117666"><ele>74.83333333333334</ele><time>2026-05-04T09:00:31.001Z</time></trkpt><trkpt lat="43.61429648057322" lon="10.822480698871674"><ele>74.0</ele><time>2026-05-04T09:00:32.001Z</time></trkpt><trkpt lat="43.61424850885922" lon="10.822560102628454"><ele>74.0</ele><time>2026-05-04T09:00:33.001Z</time></trkpt><trkpt lat="43.61420573723591" lon="10.822645249528515"><ele>74.0</ele><time>2026-05-04T09:00:34.001Z</time></trkpt><trkpt lat="43.61416916216846" lon="10.822732928753846"><ele>74.0</ele><time>2026-05-04T09:00:35.001Z</time></trkpt><trkpt lat="43.614142296150916" lon="10.822827333217523"><ele>74.0</ele><time>2026-05-04T09:00:36.001Z</time></trkpt><trkpt lat="43.61412797730318" lon="10.82294442908114"><ele>74.0</ele><time>2026-05-04T09:00:37.001Z</time></trkpt><trkpt lat="43.614119035101965" lon="10.82305677774937"><ele>74.0</ele><time>2026-05-04T09:00:38.001Z</time></trkpt><trkpt lat="43.6141085566365" lon="10.823172736806097"><ele>75.0</ele><time>2026-05-04T09:00:39.001Z</time></trkpt><trkpt lat="43.61409994277282" lon="10.823275326537047"><ele>76.0</ele><time>2026-05-04T09:00:40.001Z</time></trkpt><trkpt lat="43.61408958494316" lon="10.823377641852556"><ele>77.0</ele><time>2026-05-04T09:00:41.001Z</time></trkpt><trkpt lat="43.61407019385314" lon="10.823500241811516"><ele>78.0</ele><time>2026-05-04T09:00:42.002Z</time></trkpt><trkpt lat="43.614050265853" lon="10.823609787528174"><ele>79.0</ele><time>2026-05-04T09:00:43.002Z</time></trkpt><trkpt lat="43.614034764917754" lon="10.823714687091625"><ele>80.0</ele><time>2026-05-04T09:00:44.002Z</time></trkpt><trkpt lat="43.61402541152378" lon="10.823874449621053"><ele>80.33333333333334</ele><time>2026-05-04T09:00:46.002Z</time></trkpt><trkpt lat="43.614014659291264" lon="10.823961057239309"><ele>80.66666666666667</ele><time>2026-05-04T09:00:47.002Z</time></trkpt><trkpt lat="43.613999641213034" lon="10.82406013451147"><ele>81.0</ele><time>2026-05-04T09:00:48.002Z</time></trkpt><trkpt lat="43.613989874180234" lon="10.824166882271907"><ele>81.33333333333333</ele><time>2026-05-04T09:00:49.002Z</time></trkpt><trkpt lat="43.61398130258501" lon="10.82428301859817"><ele>81.66666666666666</ele><time>2026-05-04T09:00:50.002Z</time></trkpt><trkpt lat="43.61397422571895" lon="10.824373192357806"><ele>82.0</ele><time>2026-05-04T09:00:51.002Z</time></trkpt><trkpt lat="43.61396028834642" lon="10.824527706325338"><ele>82.5</ele><time>2026-05-04T09:00:53.002Z</time></trkpt><trkpt lat="43.613942313322234" lon="10.824654655835692"><ele>83.0</ele><time>2026-05-04T09:00:55.002Z</time></trkpt><trkpt lat="43.613922419577776" lon="10.824788989625077"><ele>83.5</ele><time>2026-05-04T09:00:57.002Z</time></trkpt><trkpt lat="43.61390840509678" lon="10.82488857635443"><ele>84.0</ele><time>2026-05-04T09:00:58.002Z</time></trkpt><trkpt lat="43.61388309198326" lon="10.825001689349195"><ele>84.5</ele><time>2026-05-04T09:00:59.002Z</time></trkpt><trkpt lat="43.613852241672824" lon="10.825101369626418"><ele>85.0</ele><time>2026-05-04T09:01:00.002Z</time></trkpt><trkpt lat="43.61381827899016" lon="10.82518209113747"><ele>84.16666666666666</ele><time>2026-05-04T09:01:01.002Z</time></trkpt><trkpt lat="43.613785008730055" lon="10.825259410004762"><ele>83.33333333333333</ele><time>2026-05-04T09:01:02.001Z</time></trkpt><trkpt lat="43.613732820055446" lon="10.825386631656826"><ele>82.5</ele><time>2026-05-04T09:01:04.001Z</time></trkpt><trkpt lat="43.61367989708233" lon="10.825469485476452"><ele>81.66666666666667</ele><time>2026-05-04T09:01:06.001Z</time></trkpt><trkpt lat="43.6136001677965" lon="10.825585162352967"><ele>80.83333333333334</ele><time>2026-05-04T09:01:08.001Z</time></trkpt><trkpt lat="43.61355130221657" lon="10.825670393026288"><ele>80.0</ele><time>2026-05-04T09:01:09.001Z</time></trkpt><trkpt lat="43.613512387817316" lon="10.825752976956233"><ele>80.0</ele><time>2026-05-04T09:01:10.001Z</time></trkpt><trkpt lat="43.61347096499145" lon="10.825884688003795"><ele>80.0</ele><time>2026-05-04T09:01:12.001Z</time></trkpt><trkpt lat="43.61343323306391" lon="10.825992392807322"><ele>80.0</ele><time>2026-05-04T09:01:14.001Z</time></trkpt><trkpt lat="43.613401104916555" lon="10.826106562360406"><ele>80.0</ele><time>2026-05-04T09:01:16.001Z</time></trkpt><trkpt lat="43.613382210810954" lon="10.826250845364116"><ele>80.0</ele><time>2026-05-04T09:01:18.001Z</time></trkpt><trkpt lat="43.613362733837924" lon="10.82641401663728"><ele>81.33333333333334</ele><time>2026-05-04T09:01:20.001Z</time></trkpt><trkpt lat="43.613365802677514" lon="10.826549848960966"><ele>82.66666666666667</ele><time>2026-05-04T09:01:22.001Z</time></trkpt><trkpt lat="43.61334975467382" lon="10.826635626316309"><ele>84.0</ele><time>2026-05-04T09:01:24.001Z</time></trkpt><trkpt lat="43.61327585281842" lon="10.826691841032432"><ele>85.33333333333333</ele><time>2026-05-04T09:01:27.001Z</time></trkpt><trkpt lat="43.61319937707637" lon="10.826746907109367"><ele>86.66666666666666</ele><time>2026-05-04T09:01:29.001Z</time></trkpt><trkpt lat="43.613175035763334" lon="10.826868130994246"><ele>88.0</ele><time>2026-05-04T09:01:31.001Z</time></trkpt><trkpt lat="43.613087914590515" lon="10.827012953837576"><ele>87.0</ele><time>2026-05-04T09:01:33.001Z</time></trkpt><trkpt lat="43.61304026275725" lon="10.827108979910653"><ele>86.0</ele><time>2026-05-04T09:01:34.001Z</time></trkpt><trkpt lat="43.61296559415358" lon="10.827206398114441"><ele>85.0</ele><time>2026-05-04T09:01:36.001Z</time></trkpt><trkpt lat="43.61292236191541" lon="10.827274126394906"><ele>84.0</ele><time>2026-05-04T09:01:38.001Z</time></trkpt><trkpt lat="43.61290891109302" lon="10.827403393502612"><ele>83.0</ele><time>2026-05-04T09:01:40.001Z</time></trkpt><trkpt lat="43.61287832508726" lon="10.827491394066032"><ele>82.0</ele><time>2026-05-04T09:01:42.001Z</time></trkpt><trkpt lat="43.61281624150497" lon="10.82757751355508"><ele>82.5</ele><time>2026-05-04T09:01:44.001Z</time></trkpt><trkpt lat="43.61273976401952" lon="10.827682853395215"><ele>83.0</ele><time>2026-05-04T09:01:46.001Z</time></trkpt><trkpt lat="43.61269177017581" lon="10.827775012128534"><ele>83.5</ele><time>2026-05-04T09:01:48.001Z</time></trkpt><trkpt lat="43.612663834947476" lon="10.827860651181622"><ele>84.0</ele><time>2026-05-04T09:01:49.001Z</time></trkpt><trkpt lat="43.612607779501964" lon="10.827970218931588"><ele>84.5</ele><time>2026-05-04T09:01:51.001Z</time></trkpt><trkpt lat="43.61257883354246" lon="10.828047998706774"><ele>85.0</ele><time>2026-05-04T09:01:52.001Z</time></trkpt><trkpt lat="43.612509579145716" lon="10.828149368172935"><ele>85.0</ele><time>2026-05-04T09:01:54.001Z</time></trkpt><trkpt lat="43.61242278904931" lon="10.82823380083269"><ele>85.0</ele><time>2026-05-04T09:01:56.001Z</time></trkpt><trkpt lat="43.612393516940614" lon="10.828325592382733"><ele>85.0</ele><time>2026-05-04T09:01:58.001Z</time></trkpt><trkpt lat="43.61238612839641" lon="10.828445370558482"><ele>85.0</ele><time>2026-05-04T09:02:00.001Z</time></trkpt><trkpt lat="43.612379424728076" lon="10.828588861892698"><ele>85.0</ele><time>2026-05-04T09:02:02.001Z</time></trkpt><trkpt lat="43.612390818745205" lon="10.828740513174278"><ele>85.5</ele><time>2026-05-04T09:02:04.001Z</time></trkpt><trkpt lat="43.61236968891451" lon="10.828860840506971"><ele>86.0</ele><time>2026-05-04T09:02:27.001Z</time></trkpt><trkpt lat="43.6122537948229" lon="10.828884917787523"><ele>86.5</ele><time>2026-05-04T09:02:30.001Z</time></trkpt><trkpt lat="43.612178713595554" lon="10.828881673713735"><ele>87.0</ele><time>2026-05-04T09:02:32.001Z</time></trkpt><trkpt lat="43.612100528094" lon="10.828900795448467"><ele>87.5</ele><time>2026-05-04T09:08:23Z</time></trkpt><trkpt lat="43.612162506398136" lon="10.828868941816927"><ele>88.0</ele><time>2026-05-04T09:08:34Z</time></trkpt><trkpt lat="43.612235534495774" lon="10.82885387331507"><ele>88.0</ele><time>2026-05-04T09:08:37Z</time></trkpt><trkpt lat="43.61229847135088" lon="10.82884219092862"><ele>88.0</ele><time>2026-05-04T09:08:38Z</time></trkpt><trkpt lat="43.61236984925511" lon="10.828801285137871"><ele>88.0</ele><time>2026-05-04T09:08:41Z</time></trkpt><trkpt lat="43.612361511023096" lon="10.828705168473986"><ele>88.0</ele><time>2026-05-04T09:08:43Z</time></trkpt><trkpt lat="43.612363006100544" lon="10.828603053219918"><ele>88.0</ele><time>2026-05-04T09:08:44Z</time></trkpt><trkpt lat="43.61235759725121" lon="10.828465067812436"><ele>88.0</ele><time>2026-05-04T09:08:46Z</time></trkpt><trkpt lat="43.61237093452527" lon="10.828373061130423"><ele>87.5</ele><time>2026-05-04T09:08:48Z</time></trkpt><trkpt lat="43.612384428561754" lon="10.82827532768064"><ele>87.0</ele><time>2026-05-04T09:08:50Z</time></trkpt><trkpt lat="43.612442515537786" lon="10.82819503642752"><ele>86.5</ele><time>2026-05-04T09:08:52Z</time></trkpt><trkpt lat="43.61251795313971" lon="10.828127227030455"><ele>86.0</ele><time>2026-05-04T09:08:54Z</time></trkpt><trkpt lat="43.61257157038716" lon="10.82803060817425"><ele>85.5</ele><time>2026-05-04T09:08:56Z</time></trkpt><trkpt lat="43.612614414178275" lon="10.827897301163384"><ele>85.0</ele><time>2026-05-04T09:08:58Z</time></trkpt><trkpt lat="43.612648480197265" lon="10.827821254133605"><ele>85.0</ele><time>2026-05-04T09:09:00Z</time></trkpt><trkpt lat="43.612713143207536" lon="10.827710501685187"><ele>85.0</ele><time>2026-05-04T09:09:02Z</time></trkpt><trkpt lat="43.612784981950796" lon="10.827613100405685"><ele>85.0</ele><time>2026-05-04T09:09:04Z</time></trkpt><trkpt lat="43.612853332980784" lon="10.827528622853418"><ele>85.0</ele><time>2026-05-04T09:09:06Z</time></trkpt><trkpt lat="43.61289657081631" lon="10.827447790215581"><ele>85.0</ele><time>2026-05-04T09:09:08Z</time></trkpt><trkpt lat="43.61290447801558" lon="10.827309493389503"><ele>85.5</ele><time>2026-05-04T09:09:10Z</time></trkpt><trkpt lat="43.612943682478516" lon="10.827204659010587"><ele>86.0</ele><time>2026-05-04T09:09:12Z</time></trkpt><trkpt lat="43.6130082315261" lon="10.827160086725305"><ele>86.5</ele><time>2026-05-04T09:09:14Z</time></trkpt><trkpt lat="43.613069487306035" lon="10.827023394871675"><ele>87.0</ele><time>2026-05-04T09:09:16Z</time></trkpt><trkpt lat="43.61310745059875" lon="10.826943695262003"><ele>87.5</ele><time>2026-05-04T09:09:17Z</time></trkpt><trkpt lat="43.6131390212531" lon="10.826863390830267"><ele>88.0</ele><time>2026-05-04T09:09:18Z</time></trkpt><trkpt lat="43.61318309069046" lon="10.826761067325679"><ele>88.0</ele><time>2026-05-04T09:09:20Z</time></trkpt><trkpt lat="43.61323314439116" lon="10.826690674947809"><ele>88.0</ele><time>2026-05-04T09:09:22Z</time></trkpt><trkpt lat="43.61330239106028" lon="10.826645779509942"><ele>88.0</ele><time>2026-05-04T09:09:24Z</time></trkpt><trkpt lat="43.61335024264039" lon="10.826582727085516"><ele>88.0</ele><time>2026-05-04T09:09:26Z</time></trkpt><trkpt lat="43.61335926190397" lon="10.826475451812726"><ele>88.0</ele><time>2026-05-04T09:09:28Z</time></trkpt><trkpt lat="43.61335684402585" lon="10.826379556135084"><ele>88.0</ele><time>2026-05-04T09:09:29Z</time></trkpt><trkpt lat="43.61336086337861" lon="10.826285944809902"><ele>88.0</ele><time>2026-05-04T09:09:30Z</time></trkpt><trkpt lat="43.61337524707421" lon="10.82617743912063"><ele>88.0</ele><time>2026-05-04T09:09:32Z</time></trkpt><trkpt lat="43.61340373275768" lon="10.826056730037827"><ele>88.0</ele><time>2026-05-04T09:09:34Z</time></trkpt><trkpt lat="43.61342862245744" lon="10.825968053691668"><ele>88.0</ele><time>2026-05-04T09:09:37Z</time></trkpt><trkpt lat="43.61346702024742" lon="10.82588962533119"><ele>88.0</ele><time>2026-05-04T09:10:03Z</time></trkpt><trkpt lat="43.6135199419635" lon="10.8257391499555"><ele>88.0</ele><time>2026-05-04T09:10:05Z</time></trkpt><trkpt lat="43.61355135027654" lon="10.8256614554403"><ele>88.0</ele><time>2026-05-04T09:10:06Z</time></trkpt><trkpt lat="43.61358800345077" lon="10.825589012586935"><ele>87.5</ele><time>2026-05-04T09:10:07Z</time></trkpt><trkpt lat="43.61363649431069" lon="10.82551042052212"><ele>87.0</ele><time>2026-05-04T09:10:08Z</time></trkpt><trkpt lat="43.61368725694708" lon="10.825433688854455"><ele>86.5</ele><time>2026-05-04T09:10:09Z</time></trkpt><trkpt lat="43.61373879934352" lon="10.82535273707848"><ele>86.0</ele><time>2026-05-04T09:10:10Z</time></trkpt><trkpt lat="43.613779424570865" lon="10.825263000259893"><ele>85.5</ele><time>2026-05-04T09:10:11Z</time></trkpt><trkpt lat="43.61381606264732" lon="10.825165892064495"><ele>85.0</ele><time>2026-05-04T09:10:12Z</time></trkpt><trkpt lat="43.61384971599509" lon="10.825073786432107"><ele>85.0</ele><time>2026-05-04T09:10:13Z</time></trkpt><trkpt lat="43.61388944272408" lon="10.824953043403962"><ele>85.0</ele><time>2026-05-04T09:10:14Z</time></trkpt><trkpt lat="43.61391413584562" lon="10.824845287126733"><ele>85.0</ele><time>2026-05-04T09:10:15Z</time></trkpt><trkpt lat="43.6139291501191" lon="10.824725499228439"><ele>85.0</ele><time>2026-05-04T09:10:16Z</time></trkpt><trkpt lat="43.61394154132391" lon="10.82462302976544"><ele>85.0</ele><time>2026-05-04T09:10:17Z</time></trkpt><trkpt lat="43.61396189336583" lon="10.824505097688618"><ele>85.0</ele><time>2026-05-04T09:10:18Z</time></trkpt><trkpt lat="43.613980406610196" lon="10.824392960725465"><ele>84.4</ele><time>2026-05-04T09:10:19Z</time></trkpt><trkpt lat="43.61399353167745" lon="10.824276020431414"><ele>83.8</ele><time>2026-05-04T09:10:20Z</time></trkpt><trkpt lat="43.614003159579816" lon="10.824157194936255"><ele>83.19999999999999</ele><time>2026-05-04T09:10:21Z</time></trkpt><trkpt lat="43.614015588435834" lon="10.824026194642604"><ele>82.6</ele><time>2026-05-04T09:10:22Z</time></trkpt><trkpt lat="43.61402834943817" lon="10.823899828386457"><ele>82.0</ele><time>2026-05-04T09:10:23Z</time></trkpt><trkpt lat="43.61404155444251" lon="10.823770353876832"><ele>82.0</ele><time>2026-05-04T09:10:24Z</time></trkpt><trkpt lat="43.61405487506424" lon="10.82366043927346"><ele>82.0</ele><time>2026-05-04T09:10:25Z</time></trkpt><trkpt lat="43.61406665985572" lon="10.823539356715441"><ele>82.0</ele><time>2026-05-04T09:10:26Z</time></trkpt><trkpt lat="43.614080746106055" lon="10.823430720238271"><ele>82.0</ele><time>2026-05-04T09:10:27Z</time></trkpt><trkpt lat="43.614100182748786" lon="10.823306566430897"><ele>82.0</ele><time>2026-05-04T09:10:28Z</time></trkpt><trkpt lat="43.61411982268701" lon="10.823186866280743"><ele>82.0</ele><time>2026-05-04T09:10:29Z</time></trkpt><trkpt lat="43.61412849443472" lon="10.823060643864995"><ele>81.66666666666666</ele><time>2026-05-04T09:10:30Z</time></trkpt><trkpt lat="43.61413582890384" lon="10.82292539578257"><ele>81.33333333333333</ele><time>2026-05-04T09:10:31Z</time></trkpt><trkpt lat="43.614143407646075" lon="10.822817836717002"><ele>81.0</ele><time>2026-05-04T09:10:32Z</time></trkpt><trkpt lat="43.61415674726887" lon="10.822712401468666"><ele>80.66666666666667</ele><time>2026-05-04T09:10:33Z</time></trkpt><trkpt lat="43.61418383117444" lon="10.822629898277278"><ele>80.33333333333334</ele><time>2026-05-04T09:10:34Z</time></trkpt><trkpt lat="43.61422895678161" lon="10.822548133355893"><ele>80.0</ele><time>2026-05-04T09:10:35Z</time></trkpt><trkpt lat="43.61429137740754" lon="10.822453762353696"><ele>79.83333333333334</ele><time>2026-05-04T09:10:36Z</time></trkpt><trkpt lat="43.61435227317802" lon="10.82235220088479"><ele>79.66666666666667</ele><time>2026-05-04T09:10:37Z</time></trkpt><trkpt lat="43.61440076248592" lon="10.8222532782873"><ele>79.5</ele><time>2026-05-04T09:10:38Z</time></trkpt><trkpt lat="43.61443087163992" lon="10.822157249043434"><ele>79.33333333333333</ele><time>2026-05-04T09:10:39Z</time></trkpt><trkpt lat="43.6144630023271" lon="10.822035292988446"><ele>79.16666666666666</ele><time>2026-05-04T09:10:40Z</time></trkpt><trkpt lat="43.61449560138255" lon="10.821923237340519"><ele>79.0</ele><time>2026-05-04T09:10:41Z</time></trkpt><trkpt lat="43.61451810024967" lon="10.821814246706596"><ele>79.0</ele><time>2026-05-04T09:10:42Z</time></trkpt><trkpt lat="43.6145322391164" lon="10.821687716519206"><ele>79.0</ele><time>2026-05-04T09:10:43Z</time></trkpt><trkpt lat="43.61455297781107" lon="10.821566853662175"><ele>79.0</ele><time>2026-05-04T09:10:44Z</time></trkpt><trkpt lat="43.6145900546782" lon="10.82144375656612"><ele>79.0</ele><time>2026-05-04T09:10:45Z</time></trkpt><trkpt lat="43.614629003860806" lon="10.821326653970997"><ele>79.0</ele><time>2026-05-04T09:10:46Z</time></trkpt><trkpt lat="43.614680708323974" lon="10.821191240432896"><ele>79.0</ele><time>2026-05-04T09:10:47Z</time></trkpt><trkpt lat="43.61472058847734" lon="10.821060567141917"><ele>79.0</ele><time>2026-05-04T09:10:48Z</time></trkpt><trkpt lat="43.61474480291523" lon="10.820923618872406"><ele>79.0</ele><time>2026-05-04T09:10:49Z</time></trkpt><trkpt lat="43.614772223182584" lon="10.820770900370812"><ele>79.0</ele><time>2026-05-04T09:10:50Z</time></trkpt><trkpt lat="43.61479797427943" lon="10.820626608618007"><ele>79.0</ele><time>2026-05-04T09:10:51Z</time></trkpt><trkpt lat="43.61482650110571" lon="10.820495938486836"><ele>78.8</ele><time>2026-05-04T09:10:52Z</time></trkpt><trkpt lat="43.61486356789557" lon="10.820380071218722"><ele>78.60000000000001</ele><time>2026-05-04T09:10:53Z</time></trkpt><trkpt lat="43.614906879863234" lon="10.820279038214037"><ele>78.4</ele><time>2026-05-04T09:10:54Z</time></trkpt><trkpt lat="43.614966644819816" lon="10.820174446224252"><ele>78.2</ele><time>2026-05-04T09:10:55Z</time></trkpt><trkpt lat="43.61503503930581" lon="10.820062112289246"><ele>78.0</ele><time>2026-05-04T09:10:56Z</time></trkpt><trkpt lat="43.61509693996545" lon="10.819956974192564"><ele>77.8</ele><time>2026-05-04T09:10:57Z</time></trkpt><trkpt lat="43.6151398176388" lon="10.819851121239008"><ele>77.6</ele><time>2026-05-04T09:10:58Z</time></trkpt><trkpt lat="43.615190197070646" lon="10.819740021224023"><ele>77.4</ele><time>2026-05-04T09:10:59Z</time></trkpt><trkpt lat="43.61526036745804" lon="10.81963716374504"><ele>77.2</ele><time>2026-05-04T09:11:00Z</time></trkpt><trkpt lat="43.61533218293378" lon="10.819519611928003"><ele>77.0</ele><time>2026-05-04T09:11:01Z</time></trkpt><trkpt lat="43.615387058446366" lon="10.819397206163318"><ele>77.0</ele><time>2026-05-04T09:11:02Z</time></trkpt><trkpt lat="43.615453869225725" lon="10.819269245047218"><ele>77.0</ele><time>2026-05-04T09:11:03Z</time></trkpt><trkpt lat="43.6155169962009" lon="10.819153089501057"><ele>77.0</ele><time>2026-05-04T09:11:04Z</time></trkpt><trkpt lat="43.6155861203568" lon="10.819051318330699"><ele>77.0</ele><time>2026-05-04T09:11:05Z</time></trkpt><trkpt lat="43.61566141950517" lon="10.818964187734174"><ele>77.0</ele><time>2026-05-04T09:11:06Z</time></trkpt><trkpt lat="43.615747734173986" lon="10.818864645834772"><ele>77.0</ele><time>2026-05-04T09:11:07Z</time></trkpt><trkpt lat="43.615830044829266" lon="10.818779365656056"><ele>77.0</ele><time>2026-05-04T09:11:08Z</time></trkpt><trkpt lat="43.61589640871195" lon="10.81870291719117"><ele>77.0</ele><time>2026-05-04T09:11:09Z</time></trkpt><trkpt lat="43.61594158169566" lon="10.818629073487397"><ele>77.0</ele><time>2026-05-04T09:11:10Z</time></trkpt><trkpt lat="43.615982490576" lon="10.818530046685376"><ele>77.0</ele><time>2026-05-04T09:11:11Z</time></trkpt><trkpt lat="43.616012161749566" lon="10.818423675085189"><ele>77.0</ele><time>2026-05-04T09:11:12Z</time></trkpt><trkpt lat="43.61602272851465" lon="10.818312762266272"><ele>77.2</ele><time>2026-05-04T09:11:13Z</time></trkpt><trkpt lat="43.616033456973994" lon="10.818161837529935"><ele>77.4</ele><time>2026-05-04T09:11:14Z</time></trkpt><trkpt lat="43.61605614626168" lon="10.818050095761302"><ele>77.6</ele><time>2026-05-04T09:11:15Z</time></trkpt><trkpt lat="43.61613151063684" lon="10.817921244804491"><ele>77.8</ele><time>2026-05-04T09:11:17Z</time></trkpt><trkpt lat="43.61619865669807" lon="10.81784380984312"><ele>78.0</ele><time>2026-05-04T09:11:18Z</time></trkpt><trkpt lat="43.61626684836901" lon="10.817742533765792"><ele>76.83333333333333</ele><time>2026-05-04T09:11:19Z</time></trkpt><trkpt lat="43.61633787677461" lon="10.81763798879624"><ele>75.66666666666667</ele><time>2026-05-04T09:11:20Z</time></trkpt><trkpt lat="43.616412255110845" lon="10.81754346808235"><ele>74.5</ele><time>2026-05-04T09:11:21Z</time></trkpt><trkpt lat="43.616474721616555" lon="10.817468687515241"><ele>73.33333333333334</ele><time>2026-05-04T09:11:22Z</time></trkpt><trkpt lat="43.61653289455533" lon="10.8174086243255"><ele>72.16666666666667</ele><time>2026-05-04T09:11:23Z</time></trkpt><trkpt lat="43.61660119868548" lon="10.81735576305409"><ele>71.0</ele><time>2026-05-04T09:11:24Z</time></trkpt><trkpt lat="43.616689418220076" lon="10.81729439115784"><ele>71.0</ele><time>2026-05-04T09:11:25Z</time></trkpt><trkpt lat="43.61677065735974" lon="10.817248110930853"><ele>71.0</ele><time>2026-05-04T09:11:26Z</time></trkpt><trkpt lat="43.61684736323877" lon="10.817223363016115"><ele>71.0</ele><time>2026-05-04T09:11:27Z</time></trkpt><trkpt lat="43.61692553175527" lon="10.817219589847717"><ele>71.0</ele><time>2026-05-04T09:11:28Z</time></trkpt><trkpt lat="43.61701230899865" lon="10.817216194640677"><ele>71.0</ele><time>2026-05-04T09:11:29Z</time></trkpt><trkpt lat="43.61710380946786" lon="10.81721019930894"><ele>71.0</ele><time>2026-05-04T09:11:30Z</time></trkpt><trkpt lat="43.61717693537037" lon="10.817210087530048"><ele>72.0</ele><time>2026-05-04T09:11:30.999Z</time></trkpt><trkpt lat="43.617249552054346" lon="10.817211472058762"><ele>73.0</ele><time>2026-05-04T09:11:31.999Z</time></trkpt><trkpt lat="43.617335251407304" lon="10.81720635444983"><ele>74.0</ele><time>2026-05-04T09:11:32.999Z</time></trkpt><trkpt lat="43.61740860157871" lon="10.817206840411846"><ele>75.0</ele><time>2026-05-04T09:11:33.999Z</time></trkpt><trkpt lat="43.61749255438121" lon="10.817203164222036"><ele>76.0</ele><time>2026-05-04T09:11:34.999Z</time></trkpt><trkpt lat="43.61759721914226" lon="10.817199489177689"><ele>77.0</ele><time>2026-05-04T09:11:36.999Z</time></trkpt><trkpt lat="43.617659689246665" lon="10.817211578477552"><ele>77.0</ele><time>2026-05-04T09:11:38.999Z</time></trkpt><trkpt lat="43.6177091817915" lon="10.817290159433835"><ele>77.0</ele><time>2026-05-04T09:11:44.999Z</time></trkpt><trkpt lat="43.61772839134691" lon="10.817430583675522"><ele>77.0</ele><time>2026-05-04T09:11:46.999Z</time></trkpt><trkpt lat="43.61764730838449" lon="10.817547169517665"><ele>77.0</ele><time>2026-05-04T09:11:48.999Z</time></trkpt><trkpt lat="43.61757717506432" lon="10.817608333882397"><ele>77.0</ele><time>2026-05-04T09:11:49.999Z</time></trkpt><trkpt lat="43.61749683491449" lon="10.817664042445049"><ele>82.0</ele><time>2026-05-04T09:11:50.999Z</time></trkpt><trkpt lat="43.61741227853505" lon="10.817712969112693"><ele>87.0</ele><time>2026-05-04T09:11:51.999Z</time></trkpt><trkpt lat="43.617316439901266" lon="10.817761742048978"><ele>92.0</ele><time>2026-05-04T09:11:52.999Z</time></trkpt><trkpt lat="43.61722230722824" lon="10.817798178865514"><ele>97.0</ele><time>2026-05-04T09:11:53.999Z</time></trkpt><trkpt lat="43.617123254307984" lon="10.817820035597585"><ele>102.0</ele><time>2026-05-04T09:11:54.999Z</time></trkpt><trkpt lat="43.617039438207904" lon="10.817834542802332"><ele>98.0</ele><time>2026-05-04T09:11:55.999Z</time></trkpt><trkpt lat="43.61696897926155" lon="10.81786188251324"><ele>94.0</ele><time>2026-05-04T09:11:56.999Z</time></trkpt><trkpt lat="43.616911192314426" lon="10.817906720849395"><ele>90.0</ele><time>2026-05-04T09:11:57.999Z</time></trkpt><trkpt lat="43.61684787368101" lon="10.817975549500261"><ele>86.0</ele><time>2026-05-04T09:11:58.999Z</time></trkpt><trkpt lat="43.61678424206849" lon="10.81806940125355"><ele>82.0</ele><time>2026-05-04T09:11:59.999Z</time></trkpt><trkpt lat="43.61671337992895" lon="10.818180877548055"><ele>78.0</ele><time>2026-05-04T09:12:00.999Z</time></trkpt><trkpt lat="43.61662187912226" lon="10.818312310796049"><ele>78.0</ele><time>2026-05-04T09:12:01.999Z</time></trkpt><trkpt lat="43.61653182989764" lon="10.818429521305738"><ele>78.0</ele><time>2026-05-04T09:12:02.999Z</time></trkpt><trkpt lat="43.616450010396704" lon="10.81852508695175"><ele>78.0</ele><time>2026-05-04T09:12:03.999Z</time></trkpt><trkpt lat="43.6163808921761" lon="10.81860515878244"><ele>78.0</ele><time>2026-05-04T09:12:04.999Z</time></trkpt><trkpt lat="43.61632926578144" lon="10.818689115730189"><ele>78.0</ele><time>2026-05-04T09:12:05.999Z</time></trkpt><trkpt lat="43.616285962748144" lon="10.81878457065526"><ele>81.2</ele><time>2026-05-04T09:12:06.999Z</time></trkpt><trkpt lat="43.61625460859752" lon="10.818888113361517"><ele>84.4</ele><time>2026-05-04T09:12:07.999Z</time></trkpt><trkpt lat="43.61622151582254" lon="10.819017296139158"><ele>87.60000000000001</ele><time>2026-05-04T09:12:08.999Z</time></trkpt><trkpt lat="43.61617338674944" lon="10.819170784618438"><ele>90.8</ele><time>2026-05-04T09:12:09.999Z</time></trkpt><trkpt lat="43.616109172903364" lon="10.819317915300775"><ele>94.0</ele><time>2026-05-04T09:12:10.999Z</time></trkpt><trkpt lat="43.616036411295745" lon="10.819467974391054"><ele>94.0</ele><time>2026-05-04T09:12:11.999Z</time></trkpt><trkpt lat="43.61596797624858" lon="10.819627953169146"><ele>94.0</ele><time>2026-05-04T09:12:12.999Z</time></trkpt><trkpt lat="43.615891866473476" lon="10.819798537147172"><ele>94.0</ele><time>2026-05-04T09:12:13.999Z</time></trkpt><trkpt lat="43.61582265968442" lon="10.819969357138277"><ele>94.0</ele><time>2026-05-04T09:12:14.999Z</time></trkpt><trkpt lat="43.61576228582069" lon="10.82012867879835"><ele>94.0</ele><time>2026-05-04T09:12:15.999Z</time></trkpt><trkpt lat="43.61571978594247" lon="10.82025411607578"><ele>94.0</ele><time>2026-05-04T09:12:16.999Z</time></trkpt><trkpt lat="43.61568291990579" lon="10.820340215652683"><ele>94.0</ele><time>2026-05-04T09:12:17.999Z</time></trkpt><trkpt lat="43.615662406772366" lon="10.82043967191885"><ele>94.0</ele><time>2026-05-04T09:12:21.999Z</time></trkpt><trkpt lat="43.61569757498323" lon="10.820323193481078"><ele>94.0</ele><time>2026-05-04T09:12:41.999Z</time></trkpt><trkpt lat="43.615748066338305" lon="10.820208242238461"><ele>94.0</ele><time>2026-05-04T09:12:43.999Z</time></trkpt><trkpt lat="43.615800075000166" lon="10.820081758539065"><ele>94.0</ele><time>2026-05-04T09:12:45.999Z</time></trkpt><trkpt lat="43.615829905681586" lon="10.819996481417254"><ele>94.0</ele><time>2026-05-04T09:12:46.999Z</time></trkpt><trkpt lat="43.61586660192118" lon="10.819910398326412"><ele>94.0</ele><time>2026-05-04T09:12:47.999Z</time></trkpt><trkpt lat="43.61590210491204" lon="10.819820132743246"><ele>94.0</ele><time>2026-05-04T09:12:48.999Z</time></trkpt><trkpt lat="43.615937406423214" lon="10.81973023486373"><ele>94.0</ele><time>2026-05-04T09:12:49.999Z</time></trkpt><trkpt lat="43.61597685305185" lon="10.819635727658907"><ele>94.0</ele><time>2026-05-04T09:12:50.999Z</time></trkpt><trkpt lat="43.61601652899534" lon="10.819541849720459"><ele>94.0</ele><time>2026-05-04T09:12:51.999Z</time></trkpt><trkpt lat="43.61606040442238" lon="10.819447507707281"><ele>94.0</ele><time>2026-05-04T09:12:52.999Z</time></trkpt><trkpt lat="43.616101943790916" lon="10.819346615677233"><ele>94.0</ele><time>2026-05-04T09:12:53.999Z</time></trkpt><trkpt lat="43.616137837256" lon="10.819263602774742"><ele>94.0</ele><time>2026-05-04T09:12:54.999Z</time></trkpt><trkpt lat="43.61618249322031" lon="10.819173378886555"><ele>94.0</ele><time>2026-05-04T09:12:55.999Z</time></trkpt><trkpt lat="43.616220469123256" lon="10.81908431867013"><ele>94.0</ele><time>2026-05-04T09:12:56.999Z</time></trkpt><trkpt lat="43.61625064759669" lon="10.818995714791992"><ele>94.0</ele><time>2026-05-04T09:12:57.999Z</time></trkpt><trkpt lat="43.616280309135405" lon="10.8188876909295"><ele>94.80000000000001</ele><time>2026-05-04T09:12:58.999Z</time></trkpt><trkpt lat="43.616318445007295" lon="10.818755589354275"><ele>95.60000000000001</ele><time>2026-05-04T09:12:59.999Z</time></trkpt><trkpt lat="43.61636362620579" lon="10.818657584780086"><ele>96.4</ele><time>2026-05-04T09:13:00.999Z</time></trkpt><trkpt lat="43.61642066042217" lon="10.818564617799794"><ele>97.2</ele><time>2026-05-04T09:13:01.999Z</time></trkpt><trkpt lat="43.61648875006252" lon="10.81848236490696"><ele>98.0</ele><time>2026-05-04T09:13:02.999Z</time></trkpt><trkpt lat="43.61657516968171" lon="10.818391041722947"><ele>94.0</ele><time>2026-05-04T09:13:03.999Z</time></trkpt><trkpt lat="43.616662083771025" lon="10.818282751554388"><ele>90.0</ele><time>2026-05-04T09:13:04.999Z</time></trkpt><trkpt lat="43.61674493103696" lon="10.81815939016898"><ele>86.0</ele><time>2026-05-04T09:13:05.999Z</time></trkpt><trkpt lat="43.61682372760632" lon="10.818046242047728"><ele>82.0</ele><time>2026-05-04T09:13:06.999Z</time></trkpt><trkpt lat="43.61689062286834" lon="10.817955293292913"><ele>78.0</ele><time>2026-05-04T09:13:07.999Z</time></trkpt><trkpt lat="43.61695611342985" lon="10.817883705828502"><ele>82.8</ele><time>2026-05-04T09:13:08.999Z</time></trkpt><trkpt lat="43.61702831245847" lon="10.817838630493634"><ele>87.6</ele><time>2026-05-04T09:13:09.999Z</time></trkpt><trkpt lat="43.617106623567416" lon="10.817819327027195"><ele>92.39999999999999</ele><time>2026-05-04T09:13:10.999Z</time></trkpt><trkpt lat="43.6172081866161" lon="10.817808520785837"><ele>97.19999999999999</ele><time>2026-05-04T09:13:11.999Z</time></trkpt><trkpt lat="43.61732293576102" lon="10.817774348457784"><ele>102.0</ele><time>2026-05-04T09:13:12.999Z</time></trkpt><trkpt lat="43.61742220241781" lon="10.817731313713287"><ele>102.0</ele><time>2026-05-04T09:13:13.999Z</time></trkpt><trkpt lat="43.61751883635087" lon="10.817670799660442"><ele>102.0</ele><time>2026-05-04T09:13:14.999Z</time></trkpt><trkpt lat="43.617605993596904" lon="10.817605535609804"><ele>102.0</ele><time>2026-05-04T09:13:15.999Z</time></trkpt><trkpt lat="43.61765850783668" lon="10.817549607416957"><ele>102.0</ele><time>2026-05-04T09:13:16.999Z</time></trkpt><trkpt lat="43.61771049527429" lon="10.817491930457361"><ele>102.0</ele><time>2026-05-04T09:13:17.999Z</time></trkpt><trkpt lat="43.61774105513453" lon="10.817350647434907"><ele>102.0</ele><time>2026-05-04T09:13:19.999Z</time></trkpt><trkpt lat="43.617684679396866" lon="10.817219861173113"><ele>97.0</ele><time>2026-05-04T09:13:21.999Z</time></trkpt><trkpt lat="43.61758311451011" lon="10.817178330227456"><ele>92.0</ele><time>2026-05-04T09:13:23.999Z</time></trkpt><trkpt lat="43.617482564813116" lon="10.817213937660567"><ele>87.0</ele><time>2026-05-04T09:13:25.999Z</time></trkpt><trkpt lat="43.61740903683938" lon="10.817228403092123"><ele>82.0</ele><time>2026-05-04T09:13:26.999Z</time></trkpt><trkpt lat="43.61733445182702" lon="10.817158028074767"><ele>77.0</ele><time>2026-05-04T09:13:28.999Z</time></trkpt><trkpt lat="43.61736657969302" lon="10.817026249823792"><ele>77.0</ele><time>2026-05-04T09:13:30.999Z</time></trkpt><trkpt lat="43.617423259876325" lon="10.816962446723062"><ele>77.0</ele><time>2026-05-04T09:13:31.999Z</time></trkpt><trkpt lat="43.61749201679278" lon="10.81690787027897"><ele>77.0</ele><time>2026-05-04T09:13:32.999Z</time></trkpt><trkpt lat="43.61759055833407" lon="10.816875008223546"><ele>77.0</ele><time>2026-05-04T09:13:33.999Z</time></trkpt><trkpt lat="43.61771180174432" lon="10.816838815866383"><ele>77.0</ele><time>2026-05-04T09:13:34.999Z</time></trkpt><trkpt lat="43.617821780694776" lon="10.816796244618788"><ele>77.6</ele><time>2026-05-04T09:13:35.998Z</time></trkpt><trkpt lat="43.61792171797258" lon="10.81677339543762"><ele>78.2</ele><time>2026-05-04T09:13:36.998Z</time></trkpt><trkpt lat="43.61801015713528" lon="10.8167437905421"><ele>78.8</ele><time>2026-05-04T09:13:37.998Z</time></trkpt><trkpt lat="43.61810576035274" lon="10.81668138674383"><ele>79.4</ele><time>2026-05-04T09:13:38.998Z</time></trkpt><trkpt lat="43.61821454714911" lon="10.816605164429813"><ele>80.0</ele><time>2026-05-04T09:13:39.998Z</time></trkpt><trkpt lat="43.618317846634575" lon="10.81653266749286"><ele>80.0</ele><time>2026-05-04T09:13:40.998Z</time></trkpt><trkpt lat="43.618401716469464" lon="10.816473474506708"><ele>80.0</ele><time>2026-05-04T09:13:41.998Z</time></trkpt><trkpt lat="43.61848758651398" lon="10.81643909374014"><ele>80.0</ele><time>2026-05-04T09:13:42.998Z</time></trkpt><trkpt lat="43.618570636619495" lon="10.816415594900652"><ele>80.0</ele><time>2026-05-04T09:13:43.998Z</time></trkpt><trkpt lat="43.61865474411378" lon="10.816398426320365"><ele>80.0</ele><time>2026-05-04T09:13:44.998Z</time></trkpt><trkpt lat="43.618760569786666" lon="10.816398952809426"><ele>79.2</ele><time>2026-05-04T09:13:45.998Z</time></trkpt><trkpt lat="43.618861384069476" lon="10.816400389746638"><ele>78.4</ele><time>2026-05-04T09:13:46.998Z</time></trkpt><trkpt lat="43.618958689123744" lon="10.816387291800622"><ele>77.6</ele><time>2026-05-04T09:13:47.998Z</time></trkpt><trkpt lat="43.6190443575506" lon="10.816373523670572"><ele>76.8</ele><time>2026-05-04T09:13:48.998Z</time></trkpt><trkpt lat="43.619128150802375" lon="10.816343523473579"><ele>76.0</ele><time>2026-05-04T09:13:49.998Z</time></trkpt><trkpt lat="43.61920337760968" lon="10.816290289381664"><ele>76.0</ele><time>2026-05-04T09:13:50.998Z</time></trkpt><trkpt lat="43.61927013080928" lon="10.816206917879773"><ele>76.0</ele><time>2026-05-04T09:13:51.998Z</time></trkpt><trkpt lat="43.61931113331546" lon="10.816104583358674"><ele>76.0</ele><time>2026-05-04T09:13:52.998Z</time></trkpt><trkpt lat="43.61934489796637" lon="10.815991832808878"><ele>76.0</ele><time>2026-05-04T09:13:53.998Z</time></trkpt><trkpt lat="43.61936740148815" lon="10.815893290061455"><ele>76.0</ele><time>2026-05-04T09:13:54.998Z</time></trkpt><trkpt lat="43.61940486819451" lon="10.815767213167108"><ele>76.0</ele><time>2026-05-04T09:13:56.999Z</time></trkpt><trkpt lat="43.61946009236299" lon="10.815611896271541"><ele>74.39999999999999</ele><time>2026-05-04T09:13:58.999Z</time></trkpt><trkpt lat="43.61949807577658" lon="10.815497344859763"><ele>72.8</ele><time>2026-05-04T09:13:59.999Z</time></trkpt><trkpt lat="43.61954958863044" lon="10.815379549093283"><ele>71.19999999999999</ele><time>2026-05-04T09:14:00.999Z</time></trkpt><trkpt lat="43.61962070794234" lon="10.81525492076215"><ele>69.6</ele><time>2026-05-04T09:14:01.999Z</time></trkpt><trkpt lat="43.619697505955365" lon="10.815124673755479"><ele>68.0</ele><time>2026-05-04T09:14:02.999Z</time></trkpt><trkpt lat="43.619785020811165" lon="10.814981867694822"><ele>67.0</ele><time>2026-05-04T09:14:03.999Z</time></trkpt><trkpt lat="43.61988348763961" lon="10.814829646552331"><ele>66.0</ele><time>2026-05-04T09:14:04.999Z</time></trkpt><trkpt lat="43.61998139665494" lon="10.814668554931911"><ele>65.0</ele><time>2026-05-04T09:14:05.999Z</time></trkpt><trkpt lat="43.62008251118755" lon="10.814513116056906"><ele>65.0</ele><time>2026-05-04T09:14:06.999Z</time></trkpt><trkpt lat="43.62017219723216" lon="10.814385221242745"><ele>65.0</ele><time>2026-05-04T09:14:07.999Z</time></trkpt><trkpt lat="43.620255605554995" lon="10.814264111602307"><ele>65.0</ele><time>2026-05-04T09:14:08.999Z</time></trkpt><trkpt lat="43.62032800585795" lon="10.814144853287496"><ele>65.0</ele><time>2026-05-04T09:14:09.999Z</time></trkpt><trkpt lat="43.62038971184659" lon="10.814020065200747"><ele>65.2</ele><time>2026-05-04T09:14:10.999Z</time></trkpt><trkpt lat="43.62042286917781" lon="10.813906382600091"><ele>65.4</ele><time>2026-05-04T09:14:11.999Z</time></trkpt><trkpt lat="43.62043462203415" lon="10.81379036307587"><ele>65.6</ele><time>2026-05-04T09:14:12.999Z</time></trkpt><trkpt lat="43.62042504196631" lon="10.813655199951853"><ele>65.8</ele><time>2026-05-04T09:14:13.999Z</time></trkpt><trkpt lat="43.620405402789956" lon="10.813509996761491"><ele>66.0</ele><time>2026-05-04T09:14:14.999Z</time></trkpt><trkpt lat="43.620382354167305" lon="10.81334790433988"><ele>65.66666666666667</ele><time>2026-05-04T09:14:15.999Z</time></trkpt><trkpt lat="43.620371780496534" lon="10.813207555567866"><ele>65.33333333333333</ele><time>2026-05-04T09:14:16.999Z</time></trkpt><trkpt lat="43.620368235320754" lon="10.81308367716383"><ele>65.0</ele><time>2026-05-04T09:14:17.999Z</time></trkpt><trkpt lat="43.62038497921132" lon="10.812971003404575"><ele>64.66666666666666</ele><time>2026-05-04T09:14:18.999Z</time></trkpt><trkpt lat="43.62041878324449" lon="10.812870862864543"><ele>64.33333333333333</ele><time>2026-05-04T09:14:19.999Z</time></trkpt><trkpt lat="43.620473742283885" lon="10.812794897393603"><ele>64.0</ele><time>2026-05-04T09:14:20.999Z</time></trkpt><trkpt lat="43.62053769301349" lon="10.812729362213396"><ele>64.5</ele><time>2026-05-04T09:14:21.999Z</time></trkpt><trkpt lat="43.620627387830574" lon="10.812652500508202"><ele>65.0</ele><time>2026-05-04T09:14:22.999Z</time></trkpt><trkpt lat="43.62074839877458" lon="10.81255812353123"><ele>65.5</ele><time>2026-05-04T09:14:23.999Z</time></trkpt><trkpt lat="43.62087579065459" lon="10.812474552155983"><ele>66.0</ele><time>2026-05-04T09:14:24.999Z</time></trkpt><trkpt lat="43.6209894154455" lon="10.812422760651383"><ele>66.0</ele><time>2026-05-04T09:14:25.999Z</time></trkpt><trkpt lat="43.62110066351369" lon="10.812407355827974"><ele>66.0</ele><time>2026-05-04T09:14:26.999Z</time></trkpt><trkpt lat="43.62121637113955" lon="10.812411524609315"><ele>66.0</ele><time>2026-05-04T09:14:27.999Z</time></trkpt><trkpt lat="43.62132990985245" lon="10.812404196526384"><ele>66.0</ele><time>2026-05-04T09:14:28.999Z</time></trkpt><trkpt lat="43.62142313595375" lon="10.812371722548592"><ele>66.0</ele><time>2026-05-04T09:14:29.999Z</time></trkpt><trkpt lat="43.62149984894631" lon="10.812316498361023"><ele>66.25</ele><time>2026-05-04T09:14:30.999Z</time></trkpt><trkpt lat="43.62155712219769" lon="10.812227144263574"><ele>66.5</ele><time>2026-05-04T09:14:31.999Z</time></trkpt><trkpt lat="43.62162635799021" lon="10.812107166672659"><ele>66.75</ele><time>2026-05-04T09:14:32.999Z</time></trkpt><trkpt lat="43.621695396105075" lon="10.811960806167473"><ele>67.0</ele><time>2026-05-04T09:14:33.999Z</time></trkpt><trkpt lat="43.621780005484965" lon="10.811782087346863"><ele>67.0</ele><time>2026-05-04T09:14:34.999Z</time></trkpt><trkpt lat="43.621878347972036" lon="10.811592206285871"><ele>67.0</ele><time>2026-05-04T09:14:35.999Z</time></trkpt><trkpt lat="43.62199177094647" lon="10.811405339166392"><ele>67.0</ele><time>2026-05-04T09:14:36.999Z</time></trkpt><trkpt lat="43.62210066643438" lon="10.811226013819022"><ele>67.0</ele><time>2026-05-04T09:14:37.999Z</time></trkpt><trkpt lat="43.6222037213973" lon="10.811066643322967"><ele>67.0</ele><time>2026-05-04T09:14:38.999Z</time></trkpt><trkpt lat="43.62231113578972" lon="10.810909217495812"><ele>67.0</ele><time>2026-05-04T09:14:39.999Z</time></trkpt><trkpt lat="43.62239169761197" lon="10.81078581754626"><ele>67.0</ele><time>2026-05-04T09:14:40.999Z</time></trkpt><trkpt lat="43.62245873670273" lon="10.810654346062845"><ele>67.0</ele><time>2026-05-04T09:14:41.999Z</time></trkpt><trkpt lat="43.6225264030859" lon="10.810497620560254"><ele>67.0</ele><time>2026-05-04T09:14:42.999Z</time></trkpt><trkpt lat="43.62259385211022" lon="10.810331464970938"><ele>67.0</ele><time>2026-05-04T09:14:43.999Z</time></trkpt><trkpt lat="43.622661027300985" lon="10.810159987369898"><ele>67.0</ele><time>2026-05-04T09:14:44.999Z</time></trkpt><trkpt lat="43.62272194496585" lon="10.809989667630385"><ele>65.75</ele><time>2026-05-04T09:14:45.999Z</time></trkpt><trkpt lat="43.62277593320765" lon="10.80980293740967"><ele>64.5</ele><time>2026-05-04T09:14:46.999Z</time></trkpt><trkpt lat="43.62282674013594" lon="10.80963098521826"><ele>63.25</ele><time>2026-05-04T09:14:47.999Z</time></trkpt><trkpt lat="43.62286612737778" lon="10.80947210918441"><ele>62.0</ele><time>2026-05-04T09:14:48.999Z</time></trkpt><trkpt lat="43.62289413944722" lon="10.809329150391113"><ele>62.8</ele><time>2026-05-04T09:14:49.999Z</time></trkpt><trkpt lat="43.622916886980626" lon="10.809190762850978"><ele>63.6</ele><time>2026-05-04T09:14:50.999Z</time></trkpt><trkpt lat="43.6229474381472" lon="10.809056019343124"><ele>64.39999999999999</ele><time>2026-05-04T09:14:51.999Z</time></trkpt><trkpt lat="43.622989757556745" lon="10.808938369198229"><ele>65.2</ele><time>2026-05-04T09:14:52.999Z</time></trkpt><trkpt lat="43.62304221872321" lon="10.808826405716365"><ele>66.0</ele><time>2026-05-04T09:14:53.999Z</time></trkpt><trkpt lat="43.62310342982196" lon="10.808708935236371"><ele>66.0</ele><time>2026-05-04T09:14:54.999Z</time></trkpt><trkpt lat="43.6231640622553" lon="10.808601674924105"><ele>66.0</ele><time>2026-05-04T09:14:55.999Z</time></trkpt><trkpt lat="43.62322586721214" lon="10.80849034205203"><ele>66.0</ele><time>2026-05-04T09:14:56.999Z</time></trkpt><trkpt lat="43.623287522934824" lon="10.808377376439102"><ele>66.0</ele><time>2026-05-04T09:14:57.999Z</time></trkpt><trkpt lat="43.62334044223815" lon="10.808276526134751"><ele>66.0</ele><time>2026-05-04T09:14:58.999Z</time></trkpt><trkpt lat="43.62338414412045" lon="10.808184364576894"><ele>65.66666666666667</ele><time>2026-05-04T09:14:59.999Z</time></trkpt><trkpt lat="43.62342240168178" lon="10.808047880937051"><ele>65.33333333333333</ele><time>2026-05-04T09:15:01.999Z</time></trkpt><trkpt lat="43.623501622502985" lon="10.808010325696626"><ele>65.0</ele><time>2026-05-04T09:15:04.999Z</time></trkpt><trkpt lat="43.62356442227332" lon="10.808036986182115"><ele>64.66666666666666</ele><time>2026-05-04T09:15:05.999Z</time></trkpt><trkpt lat="43.623627482679126" lon="10.808063806912486"><ele>64.33333333333333</ele><time>2026-05-04T09:15:06.999Z</time></trkpt><trkpt lat="43.623697465457454" lon="10.808082669160784"><ele>64.0</ele><time>2026-05-04T09:15:07.999Z</time></trkpt><trkpt lat="43.623804474631456" lon="10.808164196617259"><ele>63.99999999999999</ele><time>2026-05-04T09:15:09.999Z</time></trkpt><trkpt lat="43.62386629724747" lon="10.808201511390982"><ele>64.0</ele><time>2026-05-04T09:15:10.999Z</time></trkpt><trkpt lat="43.62394048688942" lon="10.808198064586623"><ele>64.0</ele><time>2026-05-04T09:15:11.999Z</time></trkpt><trkpt lat="43.624018358897146" lon="10.808202676108406"><ele>64.0</ele><time>2026-05-04T09:15:12.999Z</time></trkpt><trkpt lat="43.624098111829525" lon="10.808214192597594"><ele>63.99999999999999</ele><time>2026-05-04T09:15:13.999Z</time></trkpt><trkpt lat="43.624186791541234" lon="10.808222594536952"><ele>64.0</ele><time>2026-05-04T09:15:14.999Z</time></trkpt><trkpt lat="43.624284980088134" lon="10.808227414206858"><ele>64.0</ele><time>2026-05-04T09:15:15.999Z</time></trkpt><trkpt lat="43.624389527411466" lon="10.808227836617034"><ele>64.0</ele><time>2026-05-04T09:15:16.999Z</time></trkpt><trkpt lat="43.624488658289096" lon="10.808236441082045"><ele>64.0</ele><time>2026-05-04T09:15:17.999Z</time></trkpt><trkpt lat="43.62458191228224" lon="10.808257140742468"><ele>64.0</ele><time>2026-05-04T09:15:18.999Z</time></trkpt><trkpt lat="43.624670907230694" lon="10.80828521319224"><ele>64.0</ele><time>2026-05-04T09:15:19.999Z</time></trkpt><trkpt lat="43.62476370050664" lon="10.808321601618573"><ele>63.666666666666664</ele><time>2026-05-04T09:15:20.999Z</time></trkpt><trkpt lat="43.624841421242984" lon="10.808352470080258"><ele>63.33333333333333</ele><time>2026-05-04T09:15:21.999Z</time></trkpt><trkpt lat="43.62490392888099" lon="10.808367596851344"><ele>63.0</ele><time>2026-05-04T09:15:22.999Z</time></trkpt><trkpt lat="43.62498380439892" lon="10.808415187886945"><ele>62.66666666666667</ele><time>2026-05-04T09:15:24.999Z</time></trkpt><trkpt lat="43.62500491223237" lon="10.808557054869263"><ele>62.333333333333336</ele><time>2026-05-04T09:15:27.999Z</time></trkpt><trkpt lat="43.62502346169035" lon="10.808652730934286"><ele>62.0</ele><time>2026-05-04T09:15:28.999Z</time></trkpt><trkpt lat="43.62504934880414" lon="10.808758276472648"><ele>62.00000000000001</ele><time>2026-05-04T09:15:29.999Z</time></trkpt><trkpt lat="43.62507517210981" lon="10.808856169549443"><ele>62.0</ele><time>2026-05-04T09:15:30.999Z</time></trkpt><trkpt lat="43.62512044915424" lon="10.808979675502817"><ele>62.0</ele><time>2026-05-04T09:15:32.999Z</time></trkpt><trkpt lat="43.6251836829157" lon="10.80908107998131"><ele>62.0</ele><time>2026-05-04T09:15:34.999Z</time></trkpt><trkpt lat="43.62523941284813" lon="10.80913717170796"><ele>62.00000000000001</ele><time>2026-05-04T09:15:35.999Z</time></trkpt><trkpt lat="43.62529627490064" lon="10.809211091594603"><ele>62.0</ele><time>2026-05-04T09:15:36.999Z</time></trkpt><trkpt lat="43.62535599601516" lon="10.809281298867722"><ele>62.833333333333336</ele><time>2026-05-04T09:15:37.999Z</time></trkpt><trkpt lat="43.62541360240562" lon="10.80934738827314"><ele>63.66666666666667</ele><time>2026-05-04T09:15:38.999Z</time></trkpt><trkpt lat="43.62547579502969" lon="10.809423308421337"><ele>64.5</ele><time>2026-05-04T09:15:39.999Z</time></trkpt><trkpt lat="43.62553536053159" lon="10.809492238043449"><ele>65.33333333333333</ele><time>2026-05-04T09:15:40.999Z</time></trkpt><trkpt lat="43.6256044067204" lon="10.809566043833009"><ele>66.16666666666666</ele><time>2026-05-04T09:15:41.998Z</time></trkpt><trkpt lat="43.62567301753327" lon="10.80964172270165"><ele>67.0</ele><time>2026-05-04T09:15:42.998Z</time></trkpt><trkpt lat="43.62573240043892" lon="10.809708769280668"><ele>67.0</ele><time>2026-05-04T09:15:43.998Z</time></trkpt><trkpt lat="43.62579556341278" lon="10.809781809803127"><ele>67.0</ele><time>2026-05-04T09:15:44.998Z</time></trkpt><trkpt lat="43.62585951008629" lon="10.809861351205553"><ele>67.0</ele><time>2026-05-04T09:15:45.998Z</time></trkpt><trkpt lat="43.62592554765526" lon="10.809933905415747"><ele>67.0</ele><time>2026-05-04T09:15:46.998Z</time></trkpt><trkpt lat="43.625977228949765" lon="10.81001310057625"><ele>67.0</ele><time>2026-05-04T09:15:47.998Z</time></trkpt><trkpt lat="43.626020678754216" lon="10.81010933219094"><ele>67.0</ele><time>2026-05-04T09:15:48.998Z</time></trkpt><trkpt lat="43.62605933872754" lon="10.810205181413162"><ele>67.83333333333333</ele><time>2026-05-04T09:15:49.998Z</time></trkpt><trkpt lat="43.62609741231434" lon="10.810286317070249"><ele>68.66666666666666</ele><time>2026-05-04T09:15:50.998Z</time></trkpt><trkpt lat="43.62614544050842" lon="10.810387713543761"><ele>69.5</ele><time>2026-05-04T09:15:51.998Z</time></trkpt><trkpt lat="43.6261924269414" lon="10.810493721105676"><ele>70.33333333333333</ele><time>2026-05-04T09:15:52.998Z</time></trkpt><trkpt lat="43.62623613172595" lon="10.810603676093132"><ele>71.16666666666667</ele><time>2026-05-04T09:15:53.998Z</time></trkpt><trkpt lat="43.626273916941535" lon="10.810692739321972"><ele>72.0</ele><time>2026-05-04T09:15:54.998Z</time></trkpt><trkpt lat="43.62630684194915" lon="10.810784439881974"><ele>72.0</ele><time>2026-05-04T09:15:55.998Z</time></trkpt><trkpt lat="43.62632932479698" lon="10.810881844961575"><ele>72.0</ele><time>2026-05-04T09:15:56.998Z</time></trkpt><trkpt lat="43.62636061248732" lon="10.810990217862122"><ele>72.0</ele><time>2026-05-04T09:15:57.998Z</time></trkpt><trkpt lat="43.62640008289633" lon="10.811097555355934"><ele>72.0</ele><time>2026-05-04T09:15:58.998Z</time></trkpt><trkpt lat="43.62643747989307" lon="10.81118603161595"><ele>72.0</ele><time>2026-05-04T09:15:59.998Z</time></trkpt><trkpt lat="43.626475943564934" lon="10.811285611799386"><ele>72.0</ele><time>2026-05-04T09:16:00.998Z</time></trkpt><trkpt lat="43.62654321459535" lon="10.81139999798534"><ele>72.0</ele><time>2026-05-04T09:16:02.998Z</time></trkpt><trkpt lat="43.62662367096133" lon="10.811521142488479"><ele>72.0</ele><time>2026-05-04T09:16:04.998Z</time></trkpt><trkpt lat="43.6266749532616" lon="10.811572201971378"><ele>72.0</ele><time>2026-05-04T09:16:05.998Z</time></trkpt><trkpt lat="43.62676806668855" lon="10.811678060519094"><ele>72.0</ele><time>2026-05-04T09:16:07.998Z</time></trkpt><trkpt lat="43.626824593204645" lon="10.811836656502308"><ele>72.0</ele><time>2026-05-04T09:16:09.998Z</time></trkpt><trkpt lat="43.62686584047675" lon="10.811941032999437"><ele>72.0</ele><time>2026-05-04T09:16:10.998Z</time></trkpt><trkpt lat="43.626908095009874" lon="10.81204899980322"><ele>72.0</ele><time>2026-05-04T09:16:11.998Z</time></trkpt><trkpt lat="43.626949059118544" lon="10.81214796010687"><ele>72.0</ele><time>2026-05-04T09:16:12.998Z</time></trkpt><trkpt lat="43.62698770572669" lon="10.812242978021395"><ele>72.0</ele><time>2026-05-04T09:16:13.998Z</time></trkpt><trkpt lat="43.62703278610458" lon="10.812321008133406"><ele>72.0</ele><time>2026-05-04T09:16:14.998Z</time></trkpt><trkpt lat="43.62707778022855" lon="10.812402291974804"><ele>72.0</ele><time>2026-05-04T09:16:15.998Z</time></trkpt><trkpt lat="43.62712118399178" lon="10.812494350318696"><ele>72.16666666666667</ele><time>2026-05-04T09:16:16.998Z</time></trkpt><trkpt lat="43.627159394728174" lon="10.812592015849027"><ele>72.33333333333333</ele><time>2026-05-04T09:16:17.998Z</time></trkpt><trkpt lat="43.62719445285216" lon="10.81268754335476"><ele>72.5</ele><time>2026-05-04T09:16:18.999Z</time></trkpt><trkpt lat="43.62723832439758" lon="10.81279133597889"><ele>72.66666666666666</ele><time>2026-05-04T09:16:19.999Z</time></trkpt><trkpt lat="43.627288856154514" lon="10.812905338835249"><ele>72.83333333333333</ele><time>2026-05-04T09:16:20.999Z</time></trkpt><trkpt lat="43.62733193818418" lon="10.81299751501891"><ele>73.0</ele><time>2026-05-04T09:16:21.999Z</time></trkpt><trkpt lat="43.62737887146476" lon="10.813100345672343"><ele>73.0</ele><time>2026-05-04T09:16:22.999Z</time></trkpt><trkpt lat="43.62744605024733" lon="10.813249487287043"><ele>73.0</ele><time>2026-05-04T09:16:24.999Z</time></trkpt><trkpt lat="43.627511373234086" lon="10.813367917725135"><ele>73.0</ele><time>2026-05-04T09:16:26.999Z</time></trkpt><trkpt lat="43.62754797311675" lon="10.813472100468458"><ele>73.0</ele><time>2026-05-04T09:16:28.999Z</time></trkpt><trkpt lat="43.62750189244902" lon="10.813575432086864"><ele>73.0</ele><time>2026-05-04T09:16:30.999Z</time></trkpt><trkpt lat="43.62741846279846" lon="10.813686013512648"><ele>74.8</ele><time>2026-05-04T09:16:32.999Z</time></trkpt><trkpt lat="43.627339383878" lon="10.813804211860552"><ele>76.6</ele><time>2026-05-04T09:16:34.999Z</time></trkpt><trkpt lat="43.62731373553755" lon="10.813954467039682"><ele>78.39999999999999</ele><time>2026-05-04T09:16:36.999Z</time></trkpt><trkpt lat="43.62731684154262" lon="10.8140755305471"><ele>80.19999999999999</ele><time>2026-05-04T09:16:37.999Z</time></trkpt><trkpt lat="43.62730622389405" lon="10.81421740893135"><ele>82.0</ele><time>2026-05-04T09:16:38.999Z</time></trkpt><trkpt lat="43.627283863644266" lon="10.814382404956875"><ele>83.6</ele><time>2026-05-04T09:16:39.999Z</time></trkpt><trkpt lat="43.627264618311905" lon="10.814546024335797"><ele>85.19999999999999</ele><time>2026-05-04T09:16:40.999Z</time></trkpt><trkpt lat="43.627245309363516" lon="10.814684360238722"><ele>86.8</ele><time>2026-05-04T09:16:41.999Z</time></trkpt><trkpt lat="43.627234577437356" lon="10.81478530763867"><ele>88.4</ele><time>2026-05-04T09:16:42.999Z</time></trkpt><trkpt lat="43.627215140096794" lon="10.81486824006284"><ele>90.0</ele><time>2026-05-04T09:16:43.999Z</time></trkpt><trkpt lat="43.62714742687097" lon="10.815010826999883"><ele>90.0</ele><time>2026-05-04T09:16:45.999Z</time></trkpt><trkpt lat="43.62710434319939" lon="10.815090540064713"><ele>90.0</ele><time>2026-05-04T09:16:46.999Z</time></trkpt><trkpt lat="43.62705513469965" lon="10.815178156264919"><ele>90.0</ele><time>2026-05-04T09:16:47.999Z</time></trkpt><trkpt lat="43.62700807097947" lon="10.815254267123853"><ele>90.0</ele><time>2026-05-04T09:16:48.999Z</time></trkpt><trkpt lat="43.62696826679014" lon="10.815327210792669"><ele>90.0</ele><time>2026-05-04T09:16:49.999Z</time></trkpt><trkpt lat="43.626934679124574" lon="10.815487332679828"><ele>90.0</ele><time>2026-05-04T09:16:51.999Z</time></trkpt><trkpt lat="43.626921381294544" lon="10.815624670979227"><ele>88.33333333333333</ele><time>2026-05-04T09:16:53.999Z</time></trkpt><trkpt lat="43.626912889641254" lon="10.815712113974824"><ele>86.66666666666667</ele><time>2026-05-04T09:16:56.999Z</time></trkpt><trkpt lat="43.62691826942725" lon="10.815809623338858"><ele>85.0</ele><time>2026-05-04T09:17:00.999Z</time></trkpt><trkpt lat="43.62692024917926" lon="10.815699588310723"><ele>83.33333333333334</ele><time>2026-05-04T09:17:09.999Z</time></trkpt><trkpt lat="43.62693937040594" lon="10.815552565699676"><ele>81.66666666666667</ele><time>2026-05-04T09:17:11.999Z</time></trkpt><trkpt lat="43.6269579469591" lon="10.815427002884878"><ele>80.0</ele><time>2026-05-04T09:17:13.999Z</time></trkpt><trkpt lat="43.62689053217207" lon="10.815403465116756"><ele>80.0</ele><time>2026-05-04T09:17:18.999Z</time></trkpt><trkpt lat="43.62684667023175" lon="10.815468851317613"><ele>80.0</ele><time>2026-05-04T09:17:20.999Z</time></trkpt><trkpt lat="43.62682013128825" lon="10.815560043296163"><ele>80.0</ele><time>2026-05-04T09:17:22.999Z</time></trkpt><trkpt lat="43.62680148010879" lon="10.815666192748044"><ele>80.0</ele><time>2026-05-04T09:17:25.999Z</time></trkpt><trkpt lat="43.626800131470056" lon="10.81579028868863"><ele>80.0</ele><time>2026-05-04T09:17:28.999Z</time></trkpt><trkpt lat="43.626803848871944" lon="10.81588412146092"><ele>80.0</ele><time>2026-05-04T09:17:30.999Z</time></trkpt><trkpt lat="43.62682763208035" lon="10.8159872782964"><ele>80.16666666666667</ele><time>2026-05-04T09:17:32.999Z</time></trkpt><trkpt lat="43.626825563294474" lon="10.816106109685373"><ele>80.33333333333334</ele><time>2026-05-04T09:17:34.999Z</time></trkpt><trkpt lat="43.62678803580916" lon="10.81623626430804"><ele>80.5</ele><time>2026-05-04T09:17:36.999Z</time></trkpt><trkpt lat="43.626751313617" lon="10.816353969084647"><ele>80.66666666666667</ele><time>2026-05-04T09:17:38.999Z</time></trkpt><trkpt lat="43.62673153880492" lon="10.81643896446625"><ele>80.83333333333333</ele><time>2026-05-04T09:17:39.999Z</time></trkpt><trkpt lat="43.62671261966069" lon="10.816523506718815"><ele>81.0</ele><time>2026-05-04T09:17:40.999Z</time></trkpt><trkpt lat="43.626675061664514" lon="10.816644015577905"><ele>81.0</ele><time>2026-05-04T09:17:42.999Z</time></trkpt><trkpt lat="43.62665191381658" lon="10.816739767560929"><ele>81.0</ele><time>2026-05-04T09:17:44.999Z</time></trkpt><trkpt lat="43.62661420341082" lon="10.816868648121472"><ele>81.0</ele><time>2026-05-04T09:17:46.999Z</time></trkpt><trkpt lat="43.626585136365854" lon="10.817027268440805"><ele>81.0</ele><time>2026-05-04T09:17:48.998Z</time></trkpt><trkpt lat="43.62657027485713" lon="10.817117112542402"><ele>81.0</ele><time>2026-05-04T09:17:49.998Z</time></trkpt><trkpt lat="43.62655406323977" lon="10.817214972500663"><ele>81.0</ele><time>2026-05-04T09:17:50.998Z</time></trkpt><trkpt lat="43.626535339442576" lon="10.817311029967474"><ele>82.0</ele><time>2026-05-04T09:17:51.998Z</time></trkpt><trkpt lat="43.626512322798845" lon="10.817403894314742"><ele>83.0</ele><time>2026-05-04T09:17:53.998Z</time></trkpt><trkpt lat="43.626489596699" lon="10.817543713384309"><ele>84.0</ele><time>2026-05-04T09:17:55.998Z</time></trkpt><trkpt lat="43.62647995389454" lon="10.817683072798415"><ele>85.0</ele><time>2026-05-04T09:17:57.998Z</time></trkpt><trkpt lat="43.62646557917776" lon="10.817821483437518"><ele>86.0</ele><time>2026-05-04T09:17:59.998Z</time></trkpt><trkpt lat="43.6264742849181" lon="10.817929648839371"><ele>86.0</ele><time>2026-05-04T09:18:01.998Z</time></trkpt><trkpt lat="43.62648099183364" lon="10.818029194709084"><ele>86.0</ele><time>2026-05-04T09:18:07.998Z</time></trkpt><trkpt lat="43.6264956336359" lon="10.818163670908707"><ele>86.0</ele><time>2026-05-04T09:18:09.998Z</time></trkpt><trkpt lat="43.626531095405" lon="10.818278376010609"><ele>86.0</ele><time>2026-05-04T09:18:12.998Z</time></trkpt><trkpt lat="43.62651118716982" lon="10.81815449436573"><ele>86.0</ele><time>2026-05-04T09:19:13.999Z</time></trkpt><trkpt lat="43.62649694189931" lon="10.818069203882592"><ele>86.0</ele><time>2026-05-04T09:19:15.999Z</time></trkpt><trkpt lat="43.626482549137165" lon="10.81797230826648"><ele>86.0</ele><time>2026-05-04T09:19:19.999Z</time></trkpt><trkpt lat="43.62647606233006" lon="10.817867052068076"><ele>86.0</ele><time>2026-05-04T09:19:23.999Z</time></trkpt><trkpt lat="43.626474421460344" lon="10.81775427697313"><ele>86.0</ele><time>2026-05-04T09:19:25.999Z</time></trkpt><trkpt lat="43.626473958322244" lon="10.817651706249908"><ele>86.0</ele><time>2026-05-04T09:19:27.999Z</time></trkpt><trkpt lat="43.62649293070854" lon="10.817515857841084"><ele>86.0</ele><time>2026-05-04T09:19:29.999Z</time></trkpt><trkpt lat="43.62651442131116" lon="10.817386440033559"><ele>86.0</ele><time>2026-05-04T09:19:31.999Z</time></trkpt><trkpt lat="43.626535671980704" lon="10.817275542095324"><ele>86.19999999999999</ele><time>2026-05-04T09:19:33.999Z</time></trkpt><trkpt lat="43.62656499560426" lon="10.817132079292884"><ele>86.39999999999999</ele><time>2026-05-04T09:19:35.999Z</time></trkpt><trkpt lat="43.62658674729829" lon="10.816997851524446"><ele>86.6</ele><time>2026-05-04T09:19:37.999Z</time></trkpt><trkpt lat="43.626614660550636" lon="10.816833023741447"><ele>86.8</ele><time>2026-05-04T09:19:39.999Z</time></trkpt><trkpt lat="43.6266536933703" lon="10.81670045963754"><ele>87.0</ele><time>2026-05-04T09:19:41.999Z</time></trkpt><trkpt lat="43.626675122831" lon="10.81660441163824"><ele>85.8</ele><time>2026-05-04T09:19:43.999Z</time></trkpt><trkpt lat="43.6267083437565" lon="10.816499766477762"><ele>84.6</ele><time>2026-05-04T09:19:45.999Z</time></trkpt><trkpt lat="43.62673723066925" lon="10.816370021285662"><ele>83.39999999999999</ele><time>2026-05-04T09:19:47.999Z</time></trkpt><trkpt lat="43.62678020591085" lon="10.816211659575844"><ele>82.19999999999999</ele><time>2026-05-04T09:19:49.999Z</time></trkpt><trkpt lat="43.626821871367106" lon="10.81608679176843"><ele>81.0</ele><time>2026-05-04T09:19:51.999Z</time></trkpt><trkpt lat="43.62682209935865" lon="10.81596838248578"><ele>80.83333333333333</ele><time>2026-05-04T09:19:53.999Z</time></trkpt><trkpt lat="43.62679319531323" lon="10.815848964269613"><ele>80.66666666666667</ele><time>2026-05-04T09:19:55.999Z</time></trkpt><trkpt lat="43.626790182146635" lon="10.815739501803407"><ele>80.5</ele><time>2026-05-04T09:19:57.999Z</time></trkpt><trkpt lat="43.62679784183925" lon="10.815646918264758"><ele>80.33333333333334</ele><time>2026-05-04T09:19:59.999Z</time></trkpt><trkpt lat="43.62682202892004" lon="10.815538798503223"><ele>80.16666666666667</ele><time>2026-05-04T09:20:01.999Z</time></trkpt><trkpt lat="43.626855963314085" lon="10.81543821988509"><ele>80.0</ele><time>2026-05-04T09:20:03.999Z</time></trkpt><trkpt lat="43.62691884779173" lon="10.815335505418705"><ele>81.66666666666667</ele><time>2026-05-04T09:20:05.999Z</time></trkpt><trkpt lat="43.62701160936502" lon="10.815242450232509"><ele>83.33333333333334</ele><time>2026-05-04T09:20:07.999Z</time></trkpt><trkpt lat="43.62706436212352" lon="10.815167446279501"><ele>85.0</ele><time>2026-05-04T09:20:08.999Z</time></trkpt><trkpt lat="43.62710875916158" lon="10.815080880043748"><ele>86.66666666666667</ele><time>2026-05-04T09:20:09.999Z</time></trkpt><trkpt lat="43.6271512868853" lon="10.814996251042446"><ele>88.33333333333333</ele><time>2026-05-04T09:20:10.999Z</time></trkpt><trkpt lat="43.62719100942141" lon="10.814909622458803"><ele>90.0</ele><time>2026-05-04T09:20:12.999Z</time></trkpt><trkpt lat="43.627235590754566" lon="10.815007631959137"><ele>90.0</ele><time>2026-05-04T09:20:22.999Z</time></trkpt><trkpt lat="43.62718855435316" lon="10.815132856031047"><ele>90.0</ele><time>2026-05-04T09:20:24.999Z</time></trkpt><trkpt lat="43.627166759681195" lon="10.815253915696672"><ele>90.0</ele><time>2026-05-04T09:20:26.999Z</time></trkpt><trkpt lat="43.62716336565301" lon="10.815363442604161"><ele>90.0</ele><time>2026-05-04T09:20:28.999Z</time></trkpt><trkpt lat="43.62716056398094" lon="10.815270067914918"><ele>90.0</ele><time>2026-05-04T09:20:38Z</time></trkpt><trkpt lat="43.62717753200118" lon="10.815154846554705"><ele>90.0</ele><time>2026-05-04T09:20:40Z</time></trkpt><trkpt lat="43.62723135572708" lon="10.815011489353774"><ele>90.0</ele><time>2026-05-04T09:20:42Z</time></trkpt><trkpt lat="43.627242200925856" lon="10.814863535292522"><ele>90.0</ele><time>2026-05-04T09:20:44Z</time></trkpt><trkpt lat="43.62723995389773" lon="10.81477506205255"><ele>90.0</ele><time>2026-05-04T09:20:45Z</time></trkpt><trkpt lat="43.62725366711727" lon="10.814686799884866"><ele>90.0</ele><time>2026-05-04T09:20:46Z</time></trkpt><trkpt lat="43.62726818217745" lon="10.814598487560342"><ele>90.0</ele><time>2026-05-04T09:20:47Z</time></trkpt><trkpt lat="43.62727808454042" lon="10.814505584276317"><ele>90.0</ele><time>2026-05-04T09:20:48Z</time></trkpt><trkpt lat="43.62729077455303" lon="10.814407236781397"><ele>90.0</ele><time>2026-05-04T09:20:49Z</time></trkpt><trkpt lat="43.62730373155315" lon="10.814302401277327"><ele>88.66666666666667</ele><time>2026-05-04T09:20:50Z</time></trkpt><trkpt lat="43.62731488881249" lon="10.814197256394824"><ele>87.33333333333333</ele><time>2026-05-04T09:20:51Z</time></trkpt><trkpt lat="43.62732523685671" lon="10.814091815471194"><ele>86.0</ele><time>2026-05-04T09:20:52Z</time></trkpt><trkpt lat="43.627332586108885" lon="10.813998949482043"><ele>84.66666666666666</ele><time>2026-05-04T09:20:53Z</time></trkpt><trkpt lat="43.627340750549976" lon="10.813850304636789"><ele>83.33333333333333</ele><time>2026-05-04T09:20:55Z</time></trkpt><trkpt lat="43.62737477175086" lon="10.813730341976111"><ele>82.0</ele><time>2026-05-04T09:20:57Z</time></trkpt><trkpt lat="43.62745329899119" lon="10.813675687146429"><ele>82.0</ele><time>2026-05-04T09:20:59Z</time></trkpt><trkpt lat="43.627557129717786" lon="10.813665945937437"><ele>82.0</ele><time>2026-05-04T09:21:01Z</time></trkpt><trkpt lat="43.627623810191366" lon="10.813680338186527"><ele>82.0</ele><time>2026-05-04T09:21:02Z</time></trkpt><trkpt lat="43.627688346752514" lon="10.813697540337383"><ele>82.0</ele><time>2026-05-04T09:21:03Z</time></trkpt><trkpt lat="43.62776449156383" lon="10.813728656694785"><ele>82.0</ele><time>2026-05-04T09:21:04Z</time></trkpt><trkpt lat="43.627829337380206" lon="10.813762744514387"><ele>82.0</ele><time>2026-05-04T09:21:05Z</time></trkpt><trkpt lat="43.62790830398076" lon="10.813812797549732"><ele>83.39999999999999</ele><time>2026-05-04T09:21:06Z</time></trkpt><trkpt lat="43.627993819550085" lon="10.813865278461762"><ele>84.8</ele><time>2026-05-04T09:21:07Z</time></trkpt><trkpt lat="43.628082596967765" lon="10.813918444830104"><ele>86.2</ele><time>2026-05-04T09:21:08Z</time></trkpt><trkpt lat="43.62817496810381" lon="10.813964194416203"><ele>87.6</ele><time>2026-05-04T09:21:09Z</time></trkpt><trkpt lat="43.628267174117575" lon="10.814024632818237"><ele>89.0</ele><time>2026-05-04T09:21:10Z</time></trkpt><trkpt lat="43.62835962447758" lon="10.814073557956066"><ele>89.0</ele><time>2026-05-04T09:21:11Z</time></trkpt><trkpt lat="43.628453431945374" lon="10.814114820080581"><ele>89.0</ele><time>2026-05-04T09:21:12Z</time></trkpt><trkpt lat="43.62853907091535" lon="10.814153908176197"><ele>89.0</ele><time>2026-05-04T09:21:13Z</time></trkpt><trkpt lat="43.628629917455356" lon="10.814175702975517"><ele>89.0</ele><time>2026-05-04T09:21:14Z</time></trkpt><trkpt lat="43.62870992090661" lon="10.814198338125417"><ele>89.0</ele><time>2026-05-04T09:21:15Z</time></trkpt><trkpt lat="43.62878069376676" lon="10.814228292981332"><ele>89.0</ele><time>2026-05-04T09:21:16Z</time></trkpt><trkpt lat="43.628845916770736" lon="10.814265405447381"><ele>87.6</ele><time>2026-05-04T09:21:17Z</time></trkpt><trkpt lat="43.62890989048647" lon="10.814315411844136"><ele>86.2</ele><time>2026-05-04T09:21:18Z</time></trkpt><trkpt lat="43.62896694396089" lon="10.81436297719255"><ele>84.8</ele><time>2026-05-04T09:21:19Z</time></trkpt><trkpt lat="43.62906642848936" lon="10.814464918140636"><ele>83.39999999999999</ele><time>2026-05-04T09:21:21Z</time></trkpt><trkpt lat="43.62915553133473" lon="10.814575802993291"><ele>82.0</ele><time>2026-05-04T09:21:23Z</time></trkpt><trkpt lat="43.629243630706945" lon="10.814633213814467"><ele>83.33333333333333</ele><time>2026-05-04T09:21:25Z</time></trkpt><trkpt lat="43.62934415341661" lon="10.814596192148349"><ele>84.66666666666666</ele><time>2026-05-04T09:21:27Z</time></trkpt><trkpt lat="43.6294035815454" lon="10.814547201220456"><ele>86.0</ele><time>2026-05-04T09:21:28Z</time></trkpt><trkpt lat="43.62946100023443" lon="10.814492711469637"><ele>87.33333333333333</ele><time>2026-05-04T09:21:29Z</time></trkpt><trkpt lat="43.62951253034478" lon="10.814426788278972"><ele>88.66666666666667</ele><time>2026-05-04T09:21:30Z</time></trkpt><trkpt lat="43.62955733959945" lon="10.814349230135878"><ele>90.0</ele><time>2026-05-04T09:21:31Z</time></trkpt><trkpt lat="43.62959224198661" lon="10.814266576033575"><ele>90.0</ele><time>2026-05-04T09:21:32Z</time></trkpt><trkpt lat="43.629682058405564" lon="10.814121986975211"><ele>90.0</ele><time>2026-05-04T09:21:34Z</time></trkpt><trkpt lat="43.62976130829918" lon="10.81404959906434"><ele>90.0</ele><time>2026-05-04T09:21:35Z</time></trkpt><trkpt lat="43.629854045870275" lon="10.813980189895384"><ele>90.0</ele><time>2026-05-04T09:21:36Z</time></trkpt><trkpt lat="43.62995666159719" lon="10.813913229123223"><ele>90.0</ele><time>2026-05-04T09:21:37Z</time></trkpt><trkpt lat="43.630062973536546" lon="10.813848350171252"><ele>90.0</ele><time>2026-05-04T09:21:38Z</time></trkpt><trkpt lat="43.63017302962101" lon="10.813798663271136"><ele>90.0</ele><time>2026-05-04T09:21:39Z</time></trkpt><trkpt lat="43.63027254600204" lon="10.81378308357332"><ele>90.0</ele><time>2026-05-04T09:21:40Z</time></trkpt><trkpt lat="43.6303608692998" lon="10.813782374223756"><ele>90.0</ele><time>2026-05-04T09:21:41Z</time></trkpt><trkpt lat="43.630450531270505" lon="10.813787889605974"><ele>93.5</ele><time>2026-05-04T09:21:42Z</time></trkpt><trkpt lat="43.63052063501995" lon="10.813777792360598"><ele>97.0</ele><time>2026-05-04T09:21:43Z</time></trkpt><trkpt lat="43.63062370898067" lon="10.81383636375441"><ele>100.5</ele><time>2026-05-04T09:21:45Z</time></trkpt><trkpt lat="43.630656830542854" lon="10.813965912804774"><ele>104.0</ele><time>2026-05-04T09:21:47Z</time></trkpt><trkpt lat="43.63063882636581" lon="10.814049724015442"><ele>107.5</ele><time>2026-05-04T09:21:48Z</time></trkpt><trkpt lat="43.630599360248674" lon="10.814140255862004"><ele>111.0</ele><time>2026-05-04T09:21:49Z</time></trkpt><trkpt lat="43.630552258481295" lon="10.814237642947042"><ele>112.5</ele><time>2026-05-04T09:21:50Z</time></trkpt><trkpt lat="43.63050459683526" lon="10.814359431001087"><ele>114.0</ele><time>2026-05-04T09:21:51Z</time></trkpt><trkpt lat="43.630467549628804" lon="10.814479781521273"><ele>115.5</ele><time>2026-05-04T09:21:52Z</time></trkpt><trkpt lat="43.63045622295699" lon="10.814597036005711"><ele>117.0</ele><time>2026-05-04T09:21:53Z</time></trkpt><trkpt lat="43.63047416211352" lon="10.81470796509212"><ele>118.5</ele><time>2026-05-04T09:21:54Z</time></trkpt><trkpt lat="43.63051204490755" lon="10.814811824848645"><ele>120.0</ele><time>2026-05-04T09:21:55Z</time></trkpt><trkpt lat="43.63056440331548" lon="10.814919499211042"><ele>120.0</ele><time>2026-05-04T09:21:56Z</time></trkpt><trkpt lat="43.63062395120675" lon="10.815014685401414"><ele>120.0</ele><time>2026-05-04T09:21:57Z</time></trkpt><trkpt lat="43.6306887147401" lon="10.815118994871916"><ele>120.0</ele><time>2026-05-04T09:21:58Z</time></trkpt><trkpt lat="43.630756318619525" lon="10.815206780557915"><ele>120.0</ele><time>2026-05-04T09:21:59Z</time></trkpt><trkpt lat="43.63083128786078" lon="10.815259379119986"><ele>120.0</ele><time>2026-05-04T09:22:00Z</time></trkpt><trkpt lat="43.63090449855203" lon="10.8152815269906"><ele>120.0</ele><time>2026-05-04T09:22:01Z</time></trkpt><trkpt lat="43.63096812147153" lon="10.81527849513999"><ele>118.2</ele><time>2026-05-04T09:22:02Z</time></trkpt><trkpt lat="43.631087720677094" lon="10.815215888940763"><ele>116.4</ele><time>2026-05-04T09:22:04Z</time></trkpt><trkpt lat="43.63115529853395" lon="10.815156995985388"><ele>114.6</ele><time>2026-05-04T09:22:05Z</time></trkpt><trkpt lat="43.63124778529429" lon="10.815099797398258"><ele>112.8</ele><time>2026-05-04T09:22:06Z</time></trkpt><trkpt lat="43.63134637944008" lon="10.815044584807406"><ele>111.0</ele><time>2026-05-04T09:22:07Z</time></trkpt><trkpt lat="43.631457006184355" lon="10.814993208079487"><ele>118.25</ele><time>2026-05-04T09:22:08Z</time></trkpt><trkpt lat="43.63157419161376" lon="10.81493615574697"><ele>125.5</ele><time>2026-05-04T09:22:09Z</time></trkpt><trkpt lat="43.63169545594815" lon="10.81487554255241"><ele>132.75</ele><time>2026-05-04T09:22:10Z</time></trkpt><trkpt lat="43.63181398915845" lon="10.814828388990877"><ele>140.0</ele><time>2026-05-04T09:22:11Z</time></trkpt><trkpt lat="43.63191600252941" lon="10.814806395422467"><ele>140.5</ele><time>2026-05-04T09:22:12Z</time></trkpt><trkpt lat="43.631993052470115" lon="10.814797473106626"><ele>141.0</ele><time>2026-05-04T09:22:13Z</time></trkpt><trkpt lat="43.632060817598266" lon="10.81479772070582"><ele>141.5</ele><time>2026-05-04T09:22:14Z</time></trkpt><trkpt lat="43.63214003632849" lon="10.814773353456602"><ele>142.0</ele><time>2026-05-04T09:22:16Z</time></trkpt><trkpt lat="43.63220906180861" lon="10.814752554890298"><ele>142.5</ele><time>2026-05-04T09:22:19Z</time></trkpt><trkpt lat="43.63227414468583" lon="10.814701060900584"><ele>143.0</ele><time>2026-05-04T09:22:29Z</time></trkpt><trkpt lat="43.63234147154907" lon="10.814773947846543"><ele>142.99999999999997</ele><time>2026-05-04T09:22:34Z</time></trkpt><trkpt lat="43.63235898294968" lon="10.814862996403786"><ele>143.0</ele><time>2026-05-04T09:22:35Z</time></trkpt><trkpt lat="43.632385805886" lon="10.814982969048115"><ele>143.0</ele><time>2026-05-04T09:22:37Z</time></trkpt><trkpt lat="43.6324137001411" lon="10.815082854745446"><ele>143.0</ele><time>2026-05-04T09:22:40Z</time></trkpt><trkpt lat="43.632413236479834" lon="10.815179787236412"><ele>143.0</ele><time>2026-05-04T09:22:42Z</time></trkpt><trkpt lat="43.632388160706505" lon="10.815274149177501"><ele>142.99999999999997</ele><time>2026-05-04T09:22:44Z</time></trkpt><trkpt lat="43.632375472747796" lon="10.815369149803944"><ele>143.0</ele><time>2026-05-04T09:23:11Z</time></trkpt><trkpt lat="43.6323627958187" lon="10.815456308369136"><ele>143.6</ele><time>2026-05-04T09:23:12Z</time></trkpt><trkpt lat="43.63235711648166" lon="10.815545017927773"><ele>144.20000000000002</ele><time>2026-05-04T09:23:13Z</time></trkpt><trkpt lat="43.63236618747339" lon="10.815632192218166"><ele>144.8</ele><time>2026-05-04T09:23:14Z</time></trkpt><trkpt lat="43.63240858863284" lon="10.81577822405979"><ele>145.4</ele><time>2026-05-04T09:23:16Z</time></trkpt><trkpt lat="43.63248733118964" lon="10.815914400584465"><ele>146.0</ele><time>2026-05-04T09:23:18Z</time></trkpt><trkpt lat="43.632541593098765" lon="10.816032108210136"><ele>146.0</ele><time>2026-05-04T09:23:20Z</time></trkpt><trkpt lat="43.63253101916745" lon="10.816156817836283"><ele>146.0</ele><time>2026-05-04T09:23:23Z</time></trkpt><trkpt lat="43.632583433550046" lon="10.816094714694778"><ele>146.0</ele><time>2026-05-04T09:23:57.001Z</time></trkpt><trkpt lat="43.6325488005796" lon="10.81601300219207"><ele>146.0</ele><time>2026-05-04T09:23:59.001Z</time></trkpt><trkpt lat="43.63246983551989" lon="10.815877610158894"><ele>146.0</ele><time>2026-05-04T09:24:01.001Z</time></trkpt><trkpt lat="43.63240219352246" lon="10.81573722466548"><ele>146.0</ele><time>2026-05-04T09:24:02.001Z</time></trkpt><trkpt lat="43.632363937166936" lon="10.815593701682689"><ele>146.0</ele><time>2026-05-04T09:24:04.001Z</time></trkpt><trkpt lat="43.63236925287279" lon="10.815424045059842"><ele>146.0</ele><time>2026-05-04T09:24:06Z</time></trkpt><trkpt lat="43.63238573254594" lon="10.815324218320276"><ele>146.0</ele><time>2026-05-04T09:24:07Z</time></trkpt><trkpt lat="43.63241371855714" lon="10.815157862192976"><ele>146.0</ele><time>2026-05-04T09:24:09Z</time></trkpt><trkpt lat="43.63241457463684" lon="10.81502900031576"><ele>145.4</ele><time>2026-05-04T09:24:11Z</time></trkpt><trkpt lat="43.63236093234662" lon="10.81488477951351"><ele>144.8</ele><time>2026-05-04T09:24:13Z</time></trkpt><trkpt lat="43.632320734393986" lon="10.814793101557859"><ele>144.20000000000002</ele><time>2026-05-04T09:24:14Z</time></trkpt><trkpt lat="43.63230168614746" lon="10.814700720569023"><ele>143.6</ele><time>2026-05-04T09:24:15Z</time></trkpt><trkpt lat="43.632319184094" lon="10.8145327985522"><ele>143.0</ele><time>2026-05-04T09:24:17Z</time></trkpt><trkpt lat="43.632350765925565" lon="10.814440717992227"><ele>143.0</ele><time>2026-05-04T09:24:18Z</time></trkpt><trkpt lat="43.632385958554394" lon="10.814335042557234"><ele>143.0</ele><time>2026-05-04T09:24:19Z</time></trkpt><trkpt lat="43.632426239146795" lon="10.81421470246507"><ele>143.0</ele><time>2026-05-04T09:24:20Z</time></trkpt><trkpt lat="43.63247013493737" lon="10.81408443957993"><ele>143.0</ele><time>2026-05-04T09:24:21Z</time></trkpt><trkpt lat="43.63251876516348" lon="10.81395017138452"><ele>143.0</ele><time>2026-05-04T09:24:22Z</time></trkpt><trkpt lat="43.63256165820902" lon="10.813819446236712"><ele>143.0</ele><time>2026-05-04T09:24:23Z</time></trkpt><trkpt lat="43.63259611355056" lon="10.813687318085492"><ele>143.0</ele><time>2026-05-04T09:24:24Z</time></trkpt><trkpt lat="43.63261102422398" lon="10.813559240903988"><ele>143.0</ele><time>2026-05-04T09:24:25Z</time></trkpt><trkpt lat="43.63264466970072" lon="10.813426653673504"><ele>143.0</ele><time>2026-05-04T09:24:26Z</time></trkpt><trkpt lat="43.632682644599164" lon="10.813322343726243"><ele>143.0</ele><time>2026-05-04T09:24:27Z</time></trkpt><trkpt lat="43.63272698045254" lon="10.813253927409791"><ele>143.0</ele><time>2026-05-04T09:24:28Z</time></trkpt><trkpt lat="43.63277279070166" lon="10.813177390142165"><ele>145.0</ele><time>2026-05-04T09:24:29Z</time></trkpt><trkpt lat="43.632829295361596" lon="10.813089192214749"><ele>147.0</ele><time>2026-05-04T09:24:30Z</time></trkpt><trkpt lat="43.63288526120541" lon="10.812991271645704"><ele>149.0</ele><time>2026-05-04T09:24:31Z</time></trkpt><trkpt lat="43.63293478268232" lon="10.812898068214167"><ele>151.0</ele><time>2026-05-04T09:24:32Z</time></trkpt><trkpt lat="43.63299362369753" lon="10.812803333266046"><ele>153.0</ele><time>2026-05-04T09:24:33Z</time></trkpt><trkpt lat="43.63305236936084" lon="10.812716631005037"><ele>155.0</ele><time>2026-05-04T09:24:34Z</time></trkpt><trkpt lat="43.63312996694329" lon="10.812609840023047"><ele>157.2</ele><time>2026-05-04T09:24:35Z</time></trkpt><trkpt lat="43.633205100847796" lon="10.8125163396544"><ele>159.4</ele><time>2026-05-04T09:24:36Z</time></trkpt><trkpt lat="43.63328338052545" lon="10.812422224364688"><ele>161.60000000000002</ele><time>2026-05-04T09:24:37Z</time></trkpt><trkpt lat="43.63336353410931" lon="10.812340907082008"><ele>163.8</ele><time>2026-05-04T09:24:38Z</time></trkpt><trkpt lat="43.63344957936349" lon="10.812297853293844"><ele>166.0</ele><time>2026-05-04T09:24:39Z</time></trkpt><trkpt lat="43.6335403266101" lon="10.81227054232979"><ele>166.0</ele><time>2026-05-04T09:24:40Z</time></trkpt><trkpt lat="43.63362631987536" lon="10.812227550997596"><ele>166.0</ele><time>2026-05-04T09:24:41Z</time></trkpt><trkpt lat="43.63370577874557" lon="10.81216514386959"><ele>166.0</ele><time>2026-05-04T09:24:42Z</time></trkpt><trkpt lat="43.63378251360803" lon="10.81208492368998"><ele>166.0</ele><time>2026-05-04T09:24:43Z</time></trkpt><trkpt lat="43.63386497644632" lon="10.81202283107806"><ele>166.0</ele><time>2026-05-04T09:24:44Z</time></trkpt><trkpt lat="43.633957468606525" lon="10.811959734077556"><ele>166.5</ele><time>2026-05-04T09:24:45Z</time></trkpt><trkpt lat="43.634052666293925" lon="10.811892423092251"><ele>167.0</ele><time>2026-05-04T09:24:46Z</time></trkpt><trkpt lat="43.634152543455734" lon="10.811817575153011"><ele>167.5</ele><time>2026-05-04T09:24:47Z</time></trkpt><trkpt lat="43.6342557244121" lon="10.811741164215743"><ele>168.0</ele><time>2026-05-04T09:24:48Z</time></trkpt><trkpt lat="43.63436589736245" lon="10.811653885055263"><ele>169.4</ele><time>2026-05-04T09:24:49Z</time></trkpt><trkpt lat="43.634471525701535" lon="10.811576070666211"><ele>170.8</ele><time>2026-05-04T09:24:50Z</time></trkpt><trkpt lat="43.63454745627727" lon="10.8115167289588"><ele>172.2</ele><time>2026-05-04T09:24:51Z</time></trkpt><trkpt lat="43.63461045022718" lon="10.811471322739047"><ele>173.6</ele><time>2026-05-04T09:24:54Z</time></trkpt><trkpt lat="43.634707903442326" lon="10.81142564273601"><ele>175.0</ele><time>2026-05-04T09:24:56Z</time></trkpt><trkpt lat="43.63478863350698" lon="10.811405986120713"><ele>175.0</ele><time>2026-05-04T09:24:57Z</time></trkpt><trkpt lat="43.63488094341561" lon="10.8113731784644"><ele>175.0</ele><time>2026-05-04T09:24:58Z</time></trkpt><trkpt lat="43.63498993387787" lon="10.811332001333213"><ele>175.0</ele><time>2026-05-04T09:24:59Z</time></trkpt><trkpt lat="43.635101391669586" lon="10.811294255814309"><ele>175.0</ele><time>2026-05-04T09:25:00Z</time></trkpt><trkpt lat="43.63520857705593" lon="10.811243024252812"><ele>175.0</ele><time>2026-05-04T09:25:01Z</time></trkpt><trkpt lat="43.635316779854634" lon="10.811172713225277"><ele>173.75</ele><time>2026-05-04T09:25:02Z</time></trkpt><trkpt lat="43.635426898625546" lon="10.811100268012984"><ele>172.5</ele><time>2026-05-04T09:25:03Z</time></trkpt><trkpt lat="43.63554591544578" lon="10.811043053267767"><ele>171.25</ele><time>2026-05-04T09:25:04Z</time></trkpt><trkpt lat="43.63566209906552" lon="10.810997840455428"><ele>170.0</ele><time>2026-05-04T09:25:05Z</time></trkpt><trkpt lat="43.63577079358019" lon="10.810979309865271"><ele>170.0</ele><time>2026-05-04T09:25:06Z</time></trkpt><trkpt lat="43.635848995265384" lon="10.810996723854537"><ele>170.0</ele><time>2026-05-04T09:25:07Z</time></trkpt><trkpt lat="43.6359484094973" lon="10.810996423390117"><ele>170.0</ele><time>2026-05-04T09:25:09Z</time></trkpt><trkpt lat="43.63603053946535" lon="10.81097477228318"><ele>170.0</ele><time>2026-05-04T09:25:12Z</time></trkpt><trkpt lat="43.636103241807575" lon="10.810948138556041"><ele>170.0</ele><time>2026-05-04T09:25:14Z</time></trkpt><trkpt lat="43.63621388158533" lon="10.810952795490774"><ele>170.0</ele><time>2026-05-04T09:25:16Z</time></trkpt><trkpt lat="43.63633611479939" lon="10.810998392500986"><ele>167.2</ele><time>2026-05-04T09:25:18Z</time></trkpt><trkpt lat="43.63644328810456" lon="10.811063038778812"><ele>164.4</ele><time>2026-05-04T09:25:20Z</time></trkpt><trkpt lat="43.63655975910521" lon="10.811110099181262"><ele>161.6</ele><time>2026-05-04T09:25:22Z</time></trkpt><trkpt lat="43.63668555705141" lon="10.811136170386051"><ele>158.8</ele><time>2026-05-04T09:25:24Z</time></trkpt><trkpt lat="43.63676570947818" lon="10.811157152276364"><ele>156.0</ele><time>2026-05-04T09:25:25Z</time></trkpt><trkpt lat="43.63684149140334" lon="10.811170245336314"><ele>156.0</ele><time>2026-05-04T09:25:26Z</time></trkpt><trkpt lat="43.636910564870156" lon="10.81117787789034"><ele>156.0</ele><time>2026-05-04T09:25:27Z</time></trkpt><trkpt lat="43.63698350732262" lon="10.811185145991134"><ele>156.0</ele><time>2026-05-04T09:25:28Z</time></trkpt><trkpt lat="43.63710835029628" lon="10.811205586237046"><ele>156.0</ele><time>2026-05-04T09:25:30Z</time></trkpt><trkpt lat="43.63722901847517" lon="10.811221432696648"><ele>156.0</ele><time>2026-05-04T09:25:32Z</time></trkpt><trkpt lat="43.6373362385603" lon="10.811213401184903"><ele>154.5</ele><time>2026-05-04T09:25:34Z</time></trkpt><trkpt lat="43.63746727855807" lon="10.811181736614333"><ele>153.0</ele><time>2026-05-04T09:25:36Z</time></trkpt><trkpt lat="43.63758378266534" lon="10.81114597187603"><ele>151.5</ele><time>2026-05-04T09:25:38Z</time></trkpt><trkpt lat="43.637695430011625" lon="10.811113217026207"><ele>150.0</ele><time>2026-05-04T09:25:40Z</time></trkpt><trkpt lat="43.637798125328935" lon="10.811091179673113"><ele>149.33333333333334</ele><time>2026-05-04T09:25:42Z</time></trkpt><trkpt lat="43.637897382700714" lon="10.811052829513809"><ele>148.66666666666666</ele><time>2026-05-04T09:25:44Z</time></trkpt><trkpt lat="43.637978458413045" lon="10.81103590929051"><ele>148.0</ele><time>2026-05-04T09:25:46Z</time></trkpt><trkpt lat="43.63806442785985" lon="10.81100892632859"><ele>147.33333333333331</ele><time>2026-05-04T09:25:48Z</time></trkpt><trkpt lat="43.63813165552353" lon="10.810978089952886"><ele>146.66666666666666</ele><time>2026-05-04T09:25:50Z</time></trkpt><trkpt lat="43.63819920976967" lon="10.810967196766287"><ele>146.0</ele><time>2026-05-04T09:25:54Z</time></trkpt><trkpt lat="43.63818109998259" lon="10.810871496050382"><ele>146.0</ele><time>2026-05-04T09:25:58Z</time></trkpt><trkpt lat="43.6380837103591" lon="10.810927110001824"><ele>146.0</ele><time>2026-05-04T09:26:02Z</time></trkpt><trkpt lat="43.63800680265867" lon="10.811000028077416"><ele>146.0</ele><time>2026-05-04T09:26:04Z</time></trkpt><trkpt lat="43.63791698963783" lon="10.811047913309524"><ele>146.0</ele><time>2026-05-04T09:26:06Z</time></trkpt><trkpt lat="43.63779653057465" lon="10.811091507239857"><ele>146.0</ele><time>2026-05-04T09:26:08Z</time></trkpt><trkpt lat="43.63773336460882" lon="10.811098881245647"><ele>146.66666666666666</ele><time>2026-05-04T09:26:09Z</time></trkpt><trkpt lat="43.63765934595808" lon="10.811111421743725"><ele>147.33333333333331</ele><time>2026-05-04T09:26:10Z</time></trkpt><trkpt lat="43.637582916441666" lon="10.811133325147482"><ele>148.0</ele><time>2026-05-04T09:26:11Z</time></trkpt><trkpt lat="43.63750281356464" lon="10.811165918182832"><ele>148.66666666666666</ele><time>2026-05-04T09:26:11.999Z</time></trkpt><trkpt lat="43.63740940829965" lon="10.811192793309038"><ele>149.33333333333334</ele><time>2026-05-04T09:26:12.999Z</time></trkpt><trkpt lat="43.63732862022275" lon="10.811210780541815"><ele>150.0</ele><time>2026-05-04T09:26:13.999Z</time></trkpt><trkpt lat="43.63725696968588" lon="10.81121991260861"><ele>150.0</ele><time>2026-05-04T09:26:14.999Z</time></trkpt><trkpt lat="43.63718428572336" lon="10.811220351813995"><ele>150.0</ele><time>2026-05-04T09:26:15.999Z</time></trkpt><trkpt lat="43.637068326910466" lon="10.81118918174248"><ele>150.0</ele><time>2026-05-04T09:26:17.999Z</time></trkpt><trkpt lat="43.63699938769814" lon="10.81117158630072"><ele>150.0</ele><time>2026-05-04T09:26:18.999Z</time></trkpt><trkpt lat="43.636923359977594" lon="10.811156241555818"><ele>150.0</ele><time>2026-05-04T09:26:19.999Z</time></trkpt><trkpt lat="43.63684256039284" lon="10.811149738050876"><ele>150.0</ele><time>2026-05-04T09:26:20.999Z</time></trkpt><trkpt lat="43.636753211585926" lon="10.811143031072394"><ele>151.0</ele><time>2026-05-04T09:26:21.999Z</time></trkpt><trkpt lat="43.63667497112079" lon="10.811131765514613"><ele>152.0</ele><time>2026-05-04T09:26:22.999Z</time></trkpt><trkpt lat="43.63659964791257" lon="10.811114206879537"><ele>153.0</ele><time>2026-05-04T09:26:23.999Z</time></trkpt><trkpt lat="43.63652924640808" lon="10.811090014540747"><ele>154.0</ele><time>2026-05-04T09:26:24.999Z</time></trkpt><trkpt lat="43.636458957533065" lon="10.811070398230367"><ele>155.0</ele><time>2026-05-04T09:26:25.999Z</time></trkpt><trkpt lat="43.636386286164" lon="10.811037365131204"><ele>156.0</ele><time>2026-05-04T09:26:26.999Z</time></trkpt><trkpt lat="43.6363201120757" lon="10.810991534541943"><ele>156.83333333333334</ele><time>2026-05-04T09:26:27.999Z</time></trkpt><trkpt lat="43.63625311825024" lon="10.810946547770417"><ele>157.66666666666666</ele><time>2026-05-04T09:26:28.999Z</time></trkpt><trkpt lat="43.63618082490587" lon="10.81092828280953"><ele>158.5</ele><time>2026-05-04T09:26:30Z</time></trkpt><trkpt lat="43.6361068386318" lon="10.810930032674463"><ele>159.33333333333331</ele><time>2026-05-04T09:26:31Z</time></trkpt><trkpt lat="43.636036610144814" lon="10.810946165473954"><ele>160.16666666666666</ele><time>2026-05-04T09:26:32Z</time></trkpt><trkpt lat="43.63593530711541" lon="10.810953181198178"><ele>161.0</ele><time>2026-05-04T09:26:34Z</time></trkpt><trkpt lat="43.63588496474496" lon="10.81089449138551"><ele>162.8</ele><time>2026-05-04T09:26:35Z</time></trkpt><trkpt lat="43.63582990082005" lon="10.810802707287118"><ele>164.60000000000002</ele><time>2026-05-04T09:26:36Z</time></trkpt><trkpt lat="43.63575835899379" lon="10.810704608158671"><ele>166.4</ele><time>2026-05-04T09:26:37Z</time></trkpt><trkpt lat="43.63566927228767" lon="10.810611778205065"><ele>168.2</ele><time>2026-05-04T09:26:38Z</time></trkpt><trkpt lat="43.63557149199967" lon="10.810518197228983"><ele>170.0</ele><time>2026-05-04T09:26:39Z</time></trkpt><trkpt lat="43.6354739392234" lon="10.810410084012185"><ele>170.0</ele><time>2026-05-04T09:26:40Z</time></trkpt><trkpt lat="43.635383274162635" lon="10.810278103095674"><ele>170.0</ele><time>2026-05-04T09:26:41Z</time></trkpt><trkpt lat="43.6353068140974" lon="10.81012371415214"><ele>170.0</ele><time>2026-05-04T09:26:42Z</time></trkpt><trkpt lat="43.63525400482107" lon="10.80993133652686"><ele>170.0</ele><time>2026-05-04T09:26:43Z</time></trkpt><trkpt lat="43.63520187745051" lon="10.809730400224066"><ele>171.0</ele><time>2026-05-04T09:26:44Z</time></trkpt><trkpt lat="43.63516430649424" lon="10.809508827035392"><ele>172.0</ele><time>2026-05-04T09:26:45Z</time></trkpt><trkpt lat="43.63513681897532" lon="10.809291839179055"><ele>173.0</ele><time>2026-05-04T09:26:46Z</time></trkpt><trkpt lat="43.63511773190333" lon="10.809069512909861"><ele>173.0</ele><time>2026-05-04T09:26:47Z</time></trkpt><trkpt lat="43.635118439158624" lon="10.80887081380518"><ele>173.0</ele><time>2026-05-04T09:26:48Z</time></trkpt><trkpt lat="43.635122808790186" lon="10.808710715502158"><ele>173.0</ele><time>2026-05-04T09:26:49Z</time></trkpt><trkpt lat="43.63512162415906" lon="10.808579758953169"><ele>173.0</ele><time>2026-05-04T09:26:50Z</time></trkpt><trkpt lat="43.635119539602044" lon="10.808481295828704"><ele>173.0</ele><time>2026-05-04T09:26:51Z</time></trkpt><trkpt lat="43.63511431270346" lon="10.808375380078738"><ele>171.5</ele><time>2026-05-04T09:26:52Z</time></trkpt><trkpt lat="43.63512943096111" lon="10.808266691057593"><ele>170.0</ele><time>2026-05-04T09:26:53Z</time></trkpt><trkpt lat="43.63516151446119" lon="10.808156253859194"><ele>168.5</ele><time>2026-05-04T09:26:54Z</time></trkpt><trkpt lat="43.63519973855033" lon="10.808042279968037"><ele>167.0</ele><time>2026-05-04T09:26:55Z</time></trkpt><trkpt lat="43.63523759036916" lon="10.807930950595978"><ele>165.5</ele><time>2026-05-04T09:26:56Z</time></trkpt><trkpt lat="43.63528576030615" lon="10.807821357777849"><ele>164.0</ele><time>2026-05-04T09:26:57Z</time></trkpt><trkpt lat="43.63535296370917" lon="10.80772622733097"><ele>164.5</ele><time>2026-05-04T09:26:58Z</time></trkpt><trkpt lat="43.63543448606249" lon="10.80763048259874"><ele>165.0</ele><time>2026-05-04T09:26:59Z</time></trkpt><trkpt lat="43.635511780047544" lon="10.807530640748583"><ele>165.5</ele><time>2026-05-04T09:27:00Z</time></trkpt><trkpt lat="43.63560422356729" lon="10.807409328732874"><ele>166.0</ele><time>2026-05-04T09:27:01Z</time></trkpt><trkpt lat="43.63568936491267" lon="10.807272549492609"><ele>166.0</ele><time>2026-05-04T09:27:02Z</time></trkpt><trkpt lat="43.635759199779145" lon="10.8071061146433"><ele>166.0</ele><time>2026-05-04T09:27:03Z</time></trkpt><trkpt lat="43.63583396043574" lon="10.80695072362546"><ele>166.0</ele><time>2026-05-04T09:27:04Z</time></trkpt><trkpt lat="43.635926929117446" lon="10.806796199035015"><ele>166.0</ele><time>2026-05-04T09:27:05Z</time></trkpt><trkpt lat="43.636029167575614" lon="10.806664298415898"><ele>168.5</ele><time>2026-05-04T09:27:06Z</time></trkpt><trkpt lat="43.63612965528893" lon="10.80654732509044"><ele>171.0</ele><time>2026-05-04T09:27:07Z</time></trkpt><trkpt lat="43.63621834766565" lon="10.806443239023269"><ele>173.5</ele><time>2026-05-04T09:27:08Z</time></trkpt><trkpt lat="43.636297042372036" lon="10.806319099668398"><ele>176.0</ele><time>2026-05-04T09:27:09Z</time></trkpt><trkpt lat="43.63635585982153" lon="10.806189674891263"><ele>171.0</ele><time>2026-05-04T09:27:10Z</time></trkpt><trkpt lat="43.63642317302943" lon="10.80606306755274"><ele>166.0</ele><time>2026-05-04T09:27:11Z</time></trkpt><trkpt lat="43.636515708987844" lon="10.805980870542086"><ele>161.0</ele><time>2026-05-04T09:27:12Z</time></trkpt><trkpt lat="43.63663850727261" lon="10.805914090675827"><ele>156.0</ele><time>2026-05-04T09:27:13Z</time></trkpt><trkpt lat="43.63675646117684" lon="10.805822211970087"><ele>156.0</ele><time>2026-05-04T09:27:14Z</time></trkpt><trkpt lat="43.63685754184576" lon="10.805685914056019"><ele>156.0</ele><time>2026-05-04T09:27:15Z</time></trkpt><trkpt lat="43.636966537301184" lon="10.805526570119168"><ele>156.0</ele><time>2026-05-04T09:27:16Z</time></trkpt><trkpt lat="43.63707070161476" lon="10.805390697539508"><ele>156.0</ele><time>2026-05-04T09:27:17Z</time></trkpt><trkpt lat="43.63717200881221" lon="10.805279500670908"><ele>154.4</ele><time>2026-05-04T09:27:18Z</time></trkpt><trkpt lat="43.63728195079846" lon="10.805196965982404"><ele>152.8</ele><time>2026-05-04T09:27:19Z</time></trkpt><trkpt lat="43.63738823854997" lon="10.805145893284365"><ele>151.20000000000002</ele><time>2026-05-04T09:27:20Z</time></trkpt><trkpt lat="43.63748190177939" lon="10.805136684159587"><ele>149.6</ele><time>2026-05-04T09:27:21Z</time></trkpt><trkpt lat="43.637575816222174" lon="10.805148123146683"><ele>148.0</ele><time>2026-05-04T09:27:22Z</time></trkpt><trkpt lat="43.6376718844324" lon="10.805153702929463"><ele>146.25</ele><time>2026-05-04T09:27:23Z</time></trkpt><trkpt lat="43.63778483506951" lon="10.805181982418446"><ele>144.5</ele><time>2026-05-04T09:27:24Z</time></trkpt><trkpt lat="43.63790099407862" lon="10.805231221897392"><ele>142.75</ele><time>2026-05-04T09:27:25Z</time></trkpt><trkpt lat="43.638002678066705" lon="10.805286721964627"><ele>141.0</ele><time>2026-05-04T09:27:26Z</time></trkpt><trkpt lat="43.638105675901826" lon="10.805327949855847"><ele>139.0</ele><time>2026-05-04T09:27:27Z</time></trkpt><trkpt lat="43.6382036815014" lon="10.805329843645248"><ele>137.0</ele><time>2026-05-04T09:27:28Z</time></trkpt><trkpt lat="43.638311486633256" lon="10.8052976357619"><ele>135.0</ele><time>2026-05-04T09:27:29Z</time></trkpt><trkpt lat="43.638428583465306" lon="10.805270166511237"><ele>133.0</ele><time>2026-05-04T09:27:30Z</time></trkpt><trkpt lat="43.63855036739919" lon="10.80527858025759"><ele>131.0</ele><time>2026-05-04T09:27:31Z</time></trkpt><trkpt lat="43.63866388697994" lon="10.805323676420413"><ele>129.4</ele><time>2026-05-04T09:27:32Z</time></trkpt><trkpt lat="43.63875393776544" lon="10.805395995857534"><ele>127.8</ele><time>2026-05-04T09:27:33Z</time></trkpt><trkpt lat="43.6388346699864" lon="10.805458893101248"><ele>126.20000000000002</ele><time>2026-05-04T09:27:34Z</time></trkpt><trkpt lat="43.63892727290987" lon="10.805462093562937"><ele>124.60000000000001</ele><time>2026-05-04T09:27:35Z</time></trkpt><trkpt lat="43.63903906661294" lon="10.805412745143542"><ele>123.0</ele><time>2026-05-04T09:27:36Z</time></trkpt><trkpt lat="43.6391358058011" lon="10.805333064980724"><ele>123.0</ele><time>2026-05-04T09:27:37Z</time></trkpt><trkpt lat="43.63922869287189" lon="10.805289983712584"><ele>123.00000000000001</ele><time>2026-05-04T09:27:38Z</time></trkpt><trkpt lat="43.6393021518989" lon="10.805318779674984"><ele>123.00000000000001</ele><time>2026-05-04T09:27:39Z</time></trkpt><trkpt lat="43.63935009184745" lon="10.805399104437239"><ele>123.0</ele><time>2026-05-04T09:27:40Z</time></trkpt><trkpt lat="43.63938352146255" lon="10.805520062250508"><ele>123.0</ele><time>2026-05-04T09:27:41Z</time></trkpt><trkpt lat="43.63942110276622" lon="10.80565823250735"><ele>121.2</ele><time>2026-05-04T09:27:42Z</time></trkpt><trkpt lat="43.63948259595581" lon="10.805772611340979"><ele>119.4</ele><time>2026-05-04T09:27:43Z</time></trkpt><trkpt lat="43.639570575903456" lon="10.80584295724692"><ele>117.60000000000001</ele><time>2026-05-04T09:27:44Z</time></trkpt><trkpt lat="43.63968056830931" lon="10.805873219696833"><ele>115.80000000000001</ele><time>2026-05-04T09:27:45Z</time></trkpt><trkpt lat="43.63980622566382" lon="10.80587056570002"><ele>114.0</ele><time>2026-05-04T09:27:46Z</time></trkpt><trkpt lat="43.639937466737535" lon="10.805844122762764"><ele>114.0</ele><time>2026-05-04T09:27:47Z</time></trkpt><trkpt lat="43.64006584124725" lon="10.80581742239465"><ele>114.0</ele><time>2026-05-04T09:27:48Z</time></trkpt><trkpt lat="43.640190626598326" lon="10.805821066088102"><ele>114.0</ele><time>2026-05-04T09:27:49Z</time></trkpt><trkpt lat="43.640304226343915" lon="10.805840408837057"><ele>114.0</ele><time>2026-05-04T09:27:50Z</time></trkpt><trkpt lat="43.640405375701455" lon="10.805825769703484"><ele>111.6</ele><time>2026-05-04T09:27:51Z</time></trkpt><trkpt lat="43.64048918328693" lon="10.805766385686452"><ele>109.2</ele><time>2026-05-04T09:27:52Z</time></trkpt><trkpt lat="43.64054771277531" lon="10.805656168565577"><ele>106.8</ele><time>2026-05-04T09:27:53Z</time></trkpt><trkpt lat="43.640569621607156" lon="10.805555562545319"><ele>104.39999999999999</ele><time>2026-05-04T09:27:54Z</time></trkpt><trkpt lat="43.64064708406841" lon="10.805556574098636"><ele>102.0</ele><time>2026-05-04T09:27:56Z</time></trkpt><trkpt lat="43.64065059436309" lon="10.805761328021731"><ele>102.0</ele><time>2026-05-04T09:27:58Z</time></trkpt><trkpt lat="43.64060513422345" lon="10.805873350103127"><ele>102.0</ele><time>2026-05-04T09:27:59Z</time></trkpt><trkpt lat="43.64058110702187" lon="10.805963110246399"><ele>102.0</ele><time>2026-05-04T09:28:00Z</time></trkpt><trkpt lat="43.64061483105826" lon="10.806036864252967"><ele>102.0</ele><time>2026-05-04T09:28:01Z</time></trkpt><trkpt lat="43.64067968218414" lon="10.806047637419312"><ele>102.0</ele><time>2026-05-04T09:28:02Z</time></trkpt><trkpt lat="43.640744142770735" lon="10.805992282457"><ele>102.0</ele><time>2026-05-04T09:28:03Z</time></trkpt><trkpt lat="43.64081222265564" lon="10.805887534053698"><ele>102.0</ele><time>2026-05-04T09:28:04Z</time></trkpt><trkpt lat="43.64088196571705" lon="10.805764800522994"><ele>102.0</ele><time>2026-05-04T09:28:05Z</time></trkpt><trkpt lat="43.64093351724613" lon="10.805652315747249"><ele>102.0</ele><time>2026-05-04T09:28:06Z</time></trkpt><trkpt lat="43.64098354440676" lon="10.80555478805574"><ele>102.0</ele><time>2026-05-04T09:28:07Z</time></trkpt><trkpt lat="43.641052339072395" lon="10.805497280172757"><ele>102.0</ele><time>2026-05-04T09:28:08Z</time></trkpt><trkpt lat="43.6411365269607" lon="10.80550884062893"><ele>102.0</ele><time>2026-05-04T09:28:09Z</time></trkpt><trkpt lat="43.6411742323963" lon="10.805582842763956"><ele>102.0</ele><time>2026-05-04T09:28:10Z</time></trkpt><trkpt lat="43.64117330902743" lon="10.805687129520951"><ele>102.0</ele><time>2026-05-04T09:28:11Z</time></trkpt><trkpt lat="43.641119008244395" lon="10.805827770310318"><ele>102.0</ele><time>2026-05-04T09:28:12Z</time></trkpt><trkpt lat="43.64105453640389" lon="10.805981075462018"><ele>102.0</ele><time>2026-05-04T09:28:13Z</time></trkpt><trkpt lat="43.64100508647564" lon="10.806165520652746"><ele>98.39999999999999</ele><time>2026-05-04T09:28:14Z</time></trkpt><trkpt lat="43.64097366700144" lon="10.806343667627774"><ele>94.8</ele><time>2026-05-04T09:28:15Z</time></trkpt><trkpt lat="43.640949390716834" lon="10.806488555901318"><ele>91.2</ele><time>2026-05-04T09:28:16Z</time></trkpt><trkpt lat="43.640956692023046" lon="10.806603070040968"><ele>87.6</ele><time>2026-05-04T09:28:17Z</time></trkpt><trkpt lat="43.64098956600601" lon="10.806714285953298"><ele>84.0</ele><time>2026-05-04T09:28:17.999Z</time></trkpt><trkpt lat="43.641050905375565" lon="10.806810652834061"><ele>81.75</ele><time>2026-05-04T09:28:18.999Z</time></trkpt><trkpt lat="43.64114317540784" lon="10.806844163660937"><ele>79.5</ele><time>2026-05-04T09:28:19.999Z</time></trkpt><trkpt lat="43.64125587145889" lon="10.806792037240227"><ele>77.25</ele><time>2026-05-04T09:28:20.999Z</time></trkpt><trkpt lat="43.6413723998797" lon="10.806699192997883"><ele>75.0</ele><time>2026-05-04T09:28:21.999Z</time></trkpt><trkpt lat="43.64150073885351" lon="10.806597537989674"><ele>74.75</ele><time>2026-05-04T09:28:22.999Z</time></trkpt><trkpt lat="43.641610018440694" lon="10.8065216700868"><ele>74.5</ele><time>2026-05-04T09:28:23.999Z</time></trkpt><trkpt lat="43.64170114791406" lon="10.806407807160644"><ele>74.25</ele><time>2026-05-04T09:28:24.999Z</time></trkpt><trkpt lat="43.64176835515466" lon="10.806269925957228"><ele>74.0</ele><time>2026-05-04T09:28:25.999Z</time></trkpt><trkpt lat="43.64181258505609" lon="10.80611936268713"><ele>73.60000000000001</ele><time>2026-05-04T09:28:26.999Z</time></trkpt><trkpt lat="43.64185196229539" lon="10.805989713860976"><ele>73.2</ele><time>2026-05-04T09:28:27.999Z</time></trkpt><trkpt lat="43.64190530726761" lon="10.805920288426192"><ele>72.80000000000001</ele><time>2026-05-04T09:28:28.999Z</time></trkpt><trkpt lat="43.64197752560337" lon="10.805891838744557"><ele>72.4</ele><time>2026-05-04T09:28:29.999Z</time></trkpt><trkpt lat="43.64207324395516" lon="10.805893866371012"><ele>72.0</ele><time>2026-05-04T09:28:30.999Z</time></trkpt><trkpt lat="43.642175217550204" lon="10.805938954158139"><ele>73.25</ele><time>2026-05-04T09:28:31.999Z</time></trkpt><trkpt lat="43.64228209924724" lon="10.806002022720216"><ele>74.5</ele><time>2026-05-04T09:28:32.999Z</time></trkpt><trkpt lat="43.64239497477514" lon="10.80605726536666"><ele>75.75</ele><time>2026-05-04T09:28:33.999Z</time></trkpt><trkpt lat="43.64251072662496" lon="10.806109897361045"><ele>77.0</ele><time>2026-05-04T09:28:34.999Z</time></trkpt><trkpt lat="43.642611437195775" lon="10.806157082314131"><ele>77.0</ele><time>2026-05-04T09:28:35.999Z</time></trkpt><trkpt lat="43.642670891487434" lon="10.806190882517518"><ele>77.0</ele><time>2026-05-04T09:28:36.999Z</time></trkpt><trkpt lat="43.64272887411716" lon="10.80629706575146"><ele>77.0</ele><time>2026-05-04T09:28:38.999Z</time></trkpt><trkpt lat="43.64273508843393" lon="10.806385003512455"><ele>77.0</ele><time>2026-05-04T09:28:39.999Z</time></trkpt><trkpt lat="43.64269484319082" lon="10.806518768036598"><ele>77.0</ele><time>2026-05-04T09:28:41.999Z</time></trkpt><trkpt lat="43.6425901156349" lon="10.806607282823757"><ele>77.0</ele><time>2026-05-04T09:28:43.999Z</time></trkpt><trkpt lat="43.64253412468172" lon="10.806663757035524"><ele>77.0</ele><time>2026-05-04T09:28:44.999Z</time></trkpt><trkpt lat="43.642471149423244" lon="10.806734746363288"><ele>77.0</ele><time>2026-05-04T09:28:46.999Z</time></trkpt><trkpt lat="43.64239290935441" lon="10.80682971800813"><ele>77.0</ele><time>2026-05-04T09:29:16Z</time></trkpt><trkpt lat="43.642326293375945" lon="10.806897558630169"><ele>77.0</ele><time>2026-05-04T09:29:17Z</time></trkpt><trkpt lat="43.6422539826005" lon="10.806984459654842"><ele>77.0</ele><time>2026-05-04T09:29:18Z</time></trkpt><trkpt lat="43.64217908916921" lon="10.807078034877826"><ele>76.6</ele><time>2026-05-04T09:29:19Z</time></trkpt><trkpt lat="43.64209492653926" lon="10.807176977952622"><ele>76.2</ele><time>2026-05-04T09:29:20Z</time></trkpt><trkpt lat="43.642010368164854" lon="10.807278894819838"><ele>75.8</ele><time>2026-05-04T09:29:21Z</time></trkpt><trkpt lat="43.64192844688049" lon="10.807377522868341"><ele>75.4</ele><time>2026-05-04T09:29:22Z</time></trkpt><trkpt lat="43.64185310330562" lon="10.807457976342876"><ele>75.0</ele><time>2026-05-04T09:29:23Z</time></trkpt><trkpt lat="43.64178204306312" lon="10.807531716507329"><ele>75.0</ele><time>2026-05-04T09:29:24Z</time></trkpt><trkpt lat="43.64171179732741" lon="10.80759985184627"><ele>75.0</ele><time>2026-05-04T09:29:25Z</time></trkpt><trkpt lat="43.64164026319728" lon="10.807658852451956"><ele>75.0</ele><time>2026-05-04T09:29:26Z</time></trkpt><trkpt lat="43.641557488450665" lon="10.807716106277173"><ele>75.0</ele><time>2026-05-04T09:29:27Z</time></trkpt><trkpt lat="43.641489156309106" lon="10.8077774741661"><ele>75.0</ele><time>2026-05-04T09:29:28Z</time></trkpt><trkpt lat="43.641424886960934" lon="10.807827965747153"><ele>75.0</ele><time>2026-05-04T09:29:29Z</time></trkpt><trkpt lat="43.641376938895334" lon="10.807888763487785"><ele>76.2</ele><time>2026-05-04T09:29:30Z</time></trkpt><trkpt lat="43.64135449048982" lon="10.807975688188588"><ele>77.4</ele><time>2026-05-04T09:29:31Z</time></trkpt><trkpt lat="43.641343579588586" lon="10.808104959106085"><ele>78.6</ele><time>2026-05-04T09:29:32Z</time></trkpt><trkpt lat="43.641338795441754" lon="10.80826481934998"><ele>79.8</ele><time>2026-05-04T09:29:33Z</time></trkpt><trkpt lat="43.64132289105929" lon="10.80846516223967"><ele>81.0</ele><time>2026-05-04T09:29:34Z</time></trkpt><trkpt lat="43.64130894479241" lon="10.80869711192557"><ele>82.33333333333333</ele><time>2026-05-04T09:29:35Z</time></trkpt><trkpt lat="43.64129731033031" lon="10.808954988052427"><ele>83.66666666666666</ele><time>2026-05-04T09:29:36Z</time></trkpt><trkpt lat="43.64127587889937" lon="10.809217538708209"><ele>85.0</ele><time>2026-05-04T09:29:37Z</time></trkpt><trkpt lat="43.64124245063682" lon="10.809482372722107"><ele>85.33333333333333</ele><time>2026-05-04T09:29:38Z</time></trkpt><trkpt lat="43.6412158748022" lon="10.809723096100813"><ele>85.66666666666667</ele><time>2026-05-04T09:29:39Z</time></trkpt><trkpt lat="43.64119140805351" lon="10.809939355490114"><ele>86.0</ele><time>2026-05-04T09:29:40Z</time></trkpt><trkpt lat="43.641169174040115" lon="10.810131442238436"><ele>86.5</ele><time>2026-05-04T09:29:41Z</time></trkpt><trkpt lat="43.6411442675189" lon="10.81032131702313"><ele>87.0</ele><time>2026-05-04T09:29:42Z</time></trkpt><trkpt lat="43.64111284427194" lon="10.810497334198367"><ele>87.5</ele><time>2026-05-04T09:29:43Z</time></trkpt><trkpt lat="43.641077147760925" lon="10.810666809631018"><ele>88.0</ele><time>2026-05-04T09:29:44Z</time></trkpt><trkpt lat="43.641031557373886" lon="10.810825121998992"><ele>88.0</ele><time>2026-05-04T09:29:45Z</time></trkpt><trkpt lat="43.6409727002626" lon="10.810975196960154"><ele>88.0</ele><time>2026-05-04T09:29:46Z</time></trkpt><trkpt lat="43.64089966608392" lon="10.811133545898572"><ele>88.0</ele><time>2026-05-04T09:29:47Z</time></trkpt><trkpt lat="43.64081353148683" lon="10.811313772736472"><ele>88.0</ele><time>2026-05-04T09:29:48Z</time></trkpt><trkpt lat="43.64072395037339" lon="10.81150424018953"><ele>87.0</ele><time>2026-05-04T09:29:49Z</time></trkpt><trkpt lat="43.640636791944736" lon="10.811696658204536"><ele>86.0</ele><time>2026-05-04T09:29:50Z</time></trkpt><trkpt lat="43.64055125060959" lon="10.811885417567385"><ele>85.0</ele><time>2026-05-04T09:29:51Z</time></trkpt><trkpt lat="43.64046451274338" lon="10.81206631079932"><ele>84.75</ele><time>2026-05-04T09:29:52Z</time></trkpt><trkpt lat="43.64037694358354" lon="10.812228219193885"><ele>84.5</ele><time>2026-05-04T09:29:53Z</time></trkpt><trkpt lat="43.64029018579267" lon="10.812372887928706"><ele>84.25</ele><time>2026-05-04T09:29:54Z</time></trkpt><trkpt lat="43.64019665220049" lon="10.812506387310885"><ele>84.0</ele><time>2026-05-04T09:29:55Z</time></trkpt><trkpt lat="43.640085960244036" lon="10.812639762987567"><ele>87.0</ele><time>2026-05-04T09:29:56Z</time></trkpt><trkpt lat="43.63997082046708" lon="10.812764432873477"><ele>90.0</ele><time>2026-05-04T09:29:57Z</time></trkpt><trkpt lat="43.63984615047894" lon="10.812896111456205"><ele>93.0</ele><time>2026-05-04T09:29:58Z</time></trkpt><trkpt lat="43.63972134942236" lon="10.813029099553791"><ele>93.0</ele><time>2026-05-04T09:29:59Z</time></trkpt><trkpt lat="43.63959525990371" lon="10.813170684021003"><ele>93.0</ele><time>2026-05-04T09:30:00Z</time></trkpt><trkpt lat="43.63947852809746" lon="10.813317169174063"><ele>93.0</ele><time>2026-05-04T09:30:01Z</time></trkpt><trkpt lat="43.63937220134253" lon="10.813467552094755"><ele>94.0</ele><time>2026-05-04T09:30:02Z</time></trkpt><trkpt lat="43.6392687060756" lon="10.81362411675821"><ele>95.0</ele><time>2026-05-04T09:30:03Z</time></trkpt><trkpt lat="43.63916773293831" lon="10.813782876499253"><ele>96.0</ele><time>2026-05-04T09:30:04Z</time></trkpt><trkpt lat="43.639066048908454" lon="10.813925909353726"><ele>96.0</ele><time>2026-05-04T09:30:05Z</time></trkpt><trkpt lat="43.63895935712351" lon="10.814045959494017"><ele>96.0</ele><time>2026-05-04T09:30:06Z</time></trkpt><trkpt lat="43.638839852205756" lon="10.814165188764884"><ele>96.0</ele><time>2026-05-04T09:30:07Z</time></trkpt><trkpt lat="43.638714697662884" lon="10.814277692634317"><ele>96.0</ele><time>2026-05-04T09:30:08Z</time></trkpt><trkpt lat="43.638582708625194" lon="10.814390509567602"><ele>95.19999999999999</ele><time>2026-05-04T09:30:09Z</time></trkpt><trkpt lat="43.63846771795172" lon="10.81448450470133"><ele>94.39999999999999</ele><time>2026-05-04T09:30:10Z</time></trkpt><trkpt lat="43.63836768191712" lon="10.814563192193598"><ele>93.6</ele><time>2026-05-04T09:30:11Z</time></trkpt><trkpt lat="43.63827649434215" lon="10.814631416075034"><ele>92.8</ele><time>2026-05-04T09:30:12Z</time></trkpt><trkpt lat="43.63820217223006" lon="10.814712624905445"><ele>92.0</ele><time>2026-05-04T09:30:13Z</time></trkpt><trkpt lat="43.638132922662344" lon="10.81481571849373"><ele>92.0</ele><time>2026-05-04T09:30:14Z</time></trkpt><trkpt lat="43.63806981546347" lon="10.814942056491534"><ele>92.0</ele><time>2026-05-04T09:30:15Z</time></trkpt><trkpt lat="43.63800524115477" lon="10.815084583635986"><ele>92.0</ele><time>2026-05-04T09:30:16Z</time></trkpt><trkpt lat="43.637938214926756" lon="10.81523344090507"><ele>92.0</ele><time>2026-05-04T09:30:17Z</time></trkpt><trkpt lat="43.637871100449075" lon="10.815390642921745"><ele>93.0</ele><time>2026-05-04T09:30:18Z</time></trkpt><trkpt lat="43.637795349612716" lon="10.815553470180042"><ele>94.0</ele><time>2026-05-04T09:30:19Z</time></trkpt><trkpt lat="43.6377051131042" lon="10.815745834782795"><ele>95.0</ele><time>2026-05-04T09:30:20Z</time></trkpt><trkpt lat="43.63760517991621" lon="10.815945712367878"><ele>98.66666666666667</ele><time>2026-05-04T09:30:21Z</time></trkpt><trkpt lat="43.63750815769197" lon="10.816151567312136"><ele>102.33333333333334</ele><time>2026-05-04T09:30:22Z</time></trkpt><trkpt lat="43.637416887380645" lon="10.816352807471725"><ele>106.0</ele><time>2026-05-04T09:30:23Z</time></trkpt><trkpt lat="43.63733236576487" lon="10.816539311779554"><ele>106.0</ele><time>2026-05-04T09:30:23.999Z</time></trkpt><trkpt lat="43.637263566716655" lon="10.816689260099057"><ele>106.0</ele><time>2026-05-04T09:30:24.999Z</time></trkpt><trkpt lat="43.63720160473486" lon="10.81682602785163"><ele>106.0</ele><time>2026-05-04T09:30:25.999Z</time></trkpt><trkpt lat="43.63714184579937" lon="10.816959399089454"><ele>106.0</ele><time>2026-05-04T09:30:26.999Z</time></trkpt><trkpt lat="43.63708147402704" lon="10.817092308504916"><ele>106.6</ele><time>2026-05-04T09:30:27.999Z</time></trkpt><trkpt lat="43.63701496686095" lon="10.817209723527128"><ele>107.19999999999999</ele><time>2026-05-04T09:30:28.999Z</time></trkpt><trkpt lat="43.63693964582926" lon="10.817305260810633"><ele>107.80000000000001</ele><time>2026-05-04T09:30:29.999Z</time></trkpt><trkpt lat="43.63684908107961" lon="10.81739981216091"><ele>108.4</ele><time>2026-05-04T09:30:30.999Z</time></trkpt><trkpt lat="43.63675038948272" lon="10.817493035471484"><ele>109.0</ele><time>2026-05-04T09:30:31.999Z</time></trkpt><trkpt lat="43.636662797251965" lon="10.817572830598504"><ele>109.0</ele><time>2026-05-04T09:30:32.999Z</time></trkpt><trkpt lat="43.63659102038363" lon="10.81765150434445"><ele>109.0</ele><time>2026-05-04T09:30:33.999Z</time></trkpt><trkpt lat="43.63653090524722" lon="10.817744969560177"><ele>109.0</ele><time>2026-05-04T09:30:34.999Z</time></trkpt><trkpt lat="43.636489435161884" lon="10.817847835274616"><ele>109.0</ele><time>2026-05-04T09:30:35.999Z</time></trkpt><trkpt lat="43.63645843056825" lon="10.817973941715495"><ele>109.0</ele><time>2026-05-04T09:30:36.999Z</time></trkpt><trkpt lat="43.636422861426716" lon="10.818134353573969"><ele>110.0</ele><time>2026-05-04T09:30:38Z</time></trkpt><trkpt lat="43.63636963874126" lon="10.818302423772957"><ele>111.0</ele><time>2026-05-04T09:30:39Z</time></trkpt><trkpt lat="43.636318934270356" lon="10.818443532099337"><ele>112.0</ele><time>2026-05-04T09:30:40Z</time></trkpt><trkpt lat="43.63628262116121" lon="10.818563917521775"><ele>113.0</ele><time>2026-05-04T09:30:41Z</time></trkpt><trkpt lat="43.63626011809134" lon="10.81869054578092"><ele>114.0</ele><time>2026-05-04T09:30:42Z</time></trkpt><trkpt lat="43.636257259160324" lon="10.818832399380627"><ele>114.75</ele><time>2026-05-04T09:30:43Z</time></trkpt><trkpt lat="43.63626844003226" lon="10.818990864859943"><ele>115.5</ele><time>2026-05-04T09:30:44Z</time></trkpt><trkpt lat="43.636281570693576" lon="10.819170103916344"><ele>116.25</ele><time>2026-05-04T09:30:45Z</time></trkpt><trkpt lat="43.636276561728884" lon="10.819376919605943"><ele>117.0</ele><time>2026-05-04T09:30:46Z</time></trkpt><trkpt lat="43.63626741637427" lon="10.819564659415198"><ele>117.39999999999999</ele><time>2026-05-04T09:30:47Z</time></trkpt><trkpt lat="43.6362533523403" lon="10.819722232739103"><ele>117.79999999999998</ele><time>2026-05-04T09:30:48Z</time></trkpt><trkpt lat="43.63623118271722" lon="10.81986389419274"><ele>118.2</ele><time>2026-05-04T09:30:49Z</time></trkpt><trkpt lat="43.63619470918341" lon="10.820009771410938"><ele>118.6</ele><time>2026-05-04T09:30:50Z</time></trkpt><trkpt lat="43.63615076265236" lon="10.820157994095164"><ele>119.0</ele><time>2026-05-04T09:30:51Z</time></trkpt><trkpt lat="43.63610360542258" lon="10.82029365300836"><ele>118.99999999999999</ele><time>2026-05-04T09:30:52Z</time></trkpt><trkpt lat="43.6360604677339" lon="10.820423706892154"><ele>119.0</ele><time>2026-05-04T09:30:53Z</time></trkpt><trkpt lat="43.63601802724653" lon="10.820531460392123"><ele>119.0</ele><time>2026-05-04T09:30:54Z</time></trkpt><trkpt lat="43.635974183188075" lon="10.820611960165351"><ele>119.0</ele><time>2026-05-04T09:30:55Z</time></trkpt><trkpt lat="43.63592002333791" lon="10.820678153101348"><ele>118.99999999999999</ele><time>2026-05-04T09:30:56Z</time></trkpt><trkpt lat="43.63585471728799" lon="10.82074224267436"><ele>119.0</ele><time>2026-05-04T09:30:57Z</time></trkpt><trkpt lat="43.635780138438506" lon="10.82080778780141"><ele>119.0</ele><time>2026-05-04T09:30:58Z</time></trkpt><trkpt lat="43.63571015541144" lon="10.820884528166864"><ele>119.0</ele><time>2026-05-04T09:30:59Z</time></trkpt><trkpt lat="43.63563832816233" lon="10.820978923265162"><ele>119.0</ele><time>2026-05-04T09:31:00Z</time></trkpt><trkpt lat="43.63556682367488" lon="10.821080651803834"><ele>119.0</ele><time>2026-05-04T09:31:01Z</time></trkpt><trkpt lat="43.63549323356975" lon="10.821173266863362"><ele>119.0</ele><time>2026-05-04T09:31:02Z</time></trkpt><trkpt lat="43.635418029383175" lon="10.821265847164144"><ele>120.16666666666666</ele><time>2026-05-04T09:31:03Z</time></trkpt><trkpt lat="43.63535728505094" lon="10.821358931168863"><ele>121.33333333333333</ele><time>2026-05-04T09:31:04Z</time></trkpt><trkpt lat="43.63531008046783" lon="10.821456471071503"><ele>122.5</ele><time>2026-05-04T09:31:05Z</time></trkpt><trkpt lat="43.635271535996885" lon="10.821549042010243"><ele>123.66666666666666</ele><time>2026-05-04T09:31:06Z</time></trkpt><trkpt lat="43.6352274511564" lon="10.821651388239234"><ele>124.83333333333333</ele><time>2026-05-04T09:31:07Z</time></trkpt><trkpt lat="43.6351937515754" lon="10.821746621220704"><ele>126.0</ele><time>2026-05-04T09:31:08Z</time></trkpt><trkpt lat="43.63515456829686" lon="10.82185839836262"><ele>126.33333333333333</ele><time>2026-05-04T09:31:09Z</time></trkpt><trkpt lat="43.63510737478912" lon="10.821968215245445"><ele>126.66666666666666</ele><time>2026-05-04T09:31:10Z</time></trkpt><trkpt lat="43.63505508800639" lon="10.822065658076939"><ele>127.0</ele><time>2026-05-04T09:31:11Z</time></trkpt><trkpt lat="43.63500196804429" lon="10.822152664775285"><ele>127.33333333333333</ele><time>2026-05-04T09:31:12Z</time></trkpt><trkpt lat="43.63495273169114" lon="10.822229248563902"><ele>127.66666666666666</ele><time>2026-05-04T09:31:13Z</time></trkpt><trkpt lat="43.63490658372085" lon="10.822312571242984"><ele>128.0</ele><time>2026-05-04T09:31:14Z</time></trkpt><trkpt lat="43.63486260459393" lon="10.822387701741029"><ele>127.99999999999999</ele><time>2026-05-04T09:31:15Z</time></trkpt><trkpt lat="43.63481810996277" lon="10.822452857655136"><ele>128.0</ele><time>2026-05-04T09:31:16Z</time></trkpt><trkpt lat="43.63476245007845" lon="10.82249797186846"><ele>128.0</ele><time>2026-05-04T09:31:18Z</time></trkpt><trkpt lat="43.63468511695029" lon="10.822530857596593"><ele>128.0</ele><time>2026-05-04T09:31:23Z</time></trkpt><trkpt lat="43.634618531081514" lon="10.822492933947062"><ele>127.99999999999999</ele><time>2026-05-04T09:31:25Z</time></trkpt><trkpt lat="43.6347074969596" lon="10.822528469486027"><ele>128.0</ele><time>2026-05-04T09:31:42Z</time></trkpt><trkpt lat="43.634793494594476" lon="10.822474439025243"><ele>127.99999999999999</ele><time>2026-05-04T09:31:44Z</time></trkpt><trkpt lat="43.63488256521549" lon="10.822338490551084"><ele>128.0</ele><time>2026-05-04T09:31:46Z</time></trkpt><trkpt lat="43.63493099471508" lon="10.822259048917307"><ele>128.0</ele><time>2026-05-04T09:31:47Z</time></trkpt><trkpt lat="43.634980960266994" lon="10.822174827371375"><ele>128.0</ele><time>2026-05-04T09:31:48Z</time></trkpt><trkpt lat="43.635028382801" lon="10.822089691839128"><ele>127.99999999999999</ele><time>2026-05-04T09:31:49Z</time></trkpt><trkpt lat="43.63507431572544" lon="10.822000434828935"><ele>128.0</ele><time>2026-05-04T09:31:50Z</time></trkpt><trkpt lat="43.635120029760344" lon="10.821907737535009"><ele>127.60000000000001</ele><time>2026-05-04T09:31:51Z</time></trkpt><trkpt lat="43.63516453359907" lon="10.821806781921628"><ele>127.20000000000002</ele><time>2026-05-04T09:31:52Z</time></trkpt><trkpt lat="43.63524299016494" lon="10.821632679453474"><ele>126.8</ele><time>2026-05-04T09:31:53Z</time></trkpt><trkpt lat="43.63528888382924" lon="10.82153005249415"><ele>126.4</ele><time>2026-05-04T09:31:54Z</time></trkpt><trkpt lat="43.63533766331928" lon="10.821424377745851"><ele>126.0</ele><time>2026-05-04T09:31:55Z</time></trkpt><trkpt lat="43.63539190201421" lon="10.821318429086478"><ele>127.4</ele><time>2026-05-04T09:31:56Z</time></trkpt><trkpt lat="43.63545504594458" lon="10.821226604056948"><ele>128.8</ele><time>2026-05-04T09:31:57Z</time></trkpt><trkpt lat="43.635525886469075" lon="10.82114882226841"><ele>130.20000000000002</ele><time>2026-05-04T09:31:58Z</time></trkpt><trkpt lat="43.63560107952608" lon="10.821071185919466"><ele>131.6</ele><time>2026-05-04T09:31:59Z</time></trkpt><trkpt lat="43.63567002437668" lon="10.820983257599194"><ele>133.0</ele><time>2026-05-04T09:32:00Z</time></trkpt><trkpt lat="43.63573861941164" lon="10.820885113128584"><ele>130.66666666666669</ele><time>2026-05-04T09:32:01Z</time></trkpt><trkpt lat="43.63579986645611" lon="10.820799615950504"><ele>128.33333333333334</ele><time>2026-05-04T09:32:02Z</time></trkpt><trkpt lat="43.635863633596976" lon="10.82073257968239"><ele>126.0</ele><time>2026-05-04T09:32:03Z</time></trkpt><trkpt lat="43.63592741674218" lon="10.820677511590844"><ele>123.66666666666666</ele><time>2026-05-04T09:32:04Z</time></trkpt><trkpt lat="43.63598131332311" lon="10.820615432634343"><ele>121.33333333333333</ele><time>2026-05-04T09:32:05Z</time></trkpt><trkpt lat="43.6360332073298" lon="10.82052766800969"><ele>119.0</ele><time>2026-05-04T09:32:06Z</time></trkpt><trkpt lat="43.63608437114988" lon="10.82041335239047"><ele>119.0</ele><time>2026-05-04T09:32:07Z</time></trkpt><trkpt lat="43.63612365914477" lon="10.820281614252325"><ele>119.0</ele><time>2026-05-04T09:32:08Z</time></trkpt><trkpt lat="43.63616111269424" lon="10.820135474452242"><ele>119.0</ele><time>2026-05-04T09:32:09Z</time></trkpt><trkpt lat="43.63620192269537" lon="10.81999317295099"><ele>119.0</ele><time>2026-05-04T09:32:10Z</time></trkpt><trkpt lat="43.636242066508885" lon="10.819858408723313"><ele>119.0</ele><time>2026-05-04T09:32:11Z</time></trkpt><trkpt lat="43.636271804429164" lon="10.8197227826285"><ele>118.5</ele><time>2026-05-04T09:32:12Z</time></trkpt><trkpt lat="43.636279584534705" lon="10.819579974142552"><ele>118.0</ele><time>2026-05-04T09:32:13Z</time></trkpt><trkpt lat="43.636280515274116" lon="10.819423629319083"><ele>117.5</ele><time>2026-05-04T09:32:14Z</time></trkpt><trkpt lat="43.63628100387012" lon="10.819252055312758"><ele>117.0</ele><time>2026-05-04T09:32:15Z</time></trkpt><trkpt lat="43.63627548882079" lon="10.819078281686817"><ele>117.0</ele><time>2026-05-04T09:32:16Z</time></trkpt><trkpt lat="43.63626788055564" lon="10.818932191177032"><ele>116.99999999999999</ele><time>2026-05-04T09:32:17Z</time></trkpt><trkpt lat="43.63626408520052" lon="10.81879334069523"><ele>116.99999999999999</ele><time>2026-05-04T09:32:18Z</time></trkpt><trkpt lat="43.63626918035396" lon="10.81864505098392"><ele>117.0</ele><time>2026-05-04T09:32:19Z</time></trkpt><trkpt lat="43.63629637513973" lon="10.818506928565062"><ele>117.0</ele><time>2026-05-04T09:32:20Z</time></trkpt><trkpt lat="43.63634183038806" lon="10.818373850452389"><ele>116.39999999999999</ele><time>2026-05-04T09:32:21Z</time></trkpt><trkpt lat="43.63639932794247" lon="10.818231302477363"><ele>115.79999999999998</ele><time>2026-05-04T09:32:22Z</time></trkpt><trkpt lat="43.63645427047646" lon="10.818074082096029"><ele>115.2</ele><time>2026-05-04T09:32:23Z</time></trkpt><trkpt lat="43.636487091307096" lon="10.817942789480014"><ele>114.6</ele><time>2026-05-04T09:32:24Z</time></trkpt><trkpt lat="43.636520070462325" lon="10.817830584891867"><ele>114.0</ele><time>2026-05-04T09:32:25Z</time></trkpt><trkpt lat="43.63656896889473" lon="10.817725122534586"><ele>113.0</ele><time>2026-05-04T09:32:26Z</time></trkpt><trkpt lat="43.63664024905208" lon="10.817621594455744"><ele>112.0</ele><time>2026-05-04T09:32:27Z</time></trkpt><trkpt lat="43.63672986222721" lon="10.817526805753419"><ele>111.0</ele><time>2026-05-04T09:32:28Z</time></trkpt><trkpt lat="43.63683319703062" lon="10.817425772438652"><ele>110.0</ele><time>2026-05-04T09:32:29.001Z</time></trkpt><trkpt lat="43.63691815214665" lon="10.817344836030149"><ele>109.0</ele><time>2026-05-04T09:32:30Z</time></trkpt><trkpt lat="43.63698522886035" lon="10.817258088321113"><ele>108.25</ele><time>2026-05-04T09:32:31Z</time></trkpt><trkpt lat="43.63704344708358" lon="10.817159019886184"><ele>107.5</ele><time>2026-05-04T09:32:32Z</time></trkpt><trkpt lat="43.63710807048173" lon="10.817018920852735"><ele>106.75</ele><time>2026-05-04T09:32:33Z</time></trkpt><trkpt lat="43.63715207338454" lon="10.816879782880086"><ele>106.0</ele><time>2026-05-04T09:32:34Z</time></trkpt><trkpt lat="43.63726334028481" lon="10.816695504086775"><ele>106.0</ele><time>2026-05-04T09:32:35Z</time></trkpt><trkpt lat="43.63734954730188" lon="10.816514192617667"><ele>106.0</ele><time>2026-05-04T09:32:36Z</time></trkpt><trkpt lat="43.63744015634219" lon="10.816323662101775"><ele>106.0</ele><time>2026-05-04T09:32:37Z</time></trkpt><trkpt lat="43.63753047311534" lon="10.816128803205395"><ele>106.66666666666667</ele><time>2026-05-04T09:32:38Z</time></trkpt><trkpt lat="43.63762533756957" lon="10.815926432112429"><ele>107.33333333333334</ele><time>2026-05-04T09:32:39Z</time></trkpt><trkpt lat="43.637718724167364" lon="10.815731147532295"><ele>108.0</ele><time>2026-05-04T09:32:40Z</time></trkpt><trkpt lat="43.63781340878739" lon="10.815543484962172"><ele>108.0</ele><time>2026-05-04T09:32:41Z</time></trkpt><trkpt lat="43.637894258630226" lon="10.815366137831983"><ele>108.0</ele><time>2026-05-04T09:32:42Z</time></trkpt><trkpt lat="43.63797028969547" lon="10.815190274516137"><ele>108.0</ele><time>2026-05-04T09:32:43Z</time></trkpt><trkpt lat="43.63804424463854" lon="10.815032340690015"><ele>108.0</ele><time>2026-05-04T09:32:44Z</time></trkpt><trkpt lat="43.63810636817794" lon="10.814898337943957"><ele>104.0</ele><time>2026-05-04T09:32:45Z</time></trkpt><trkpt lat="43.63817418693164" lon="10.814774088809843"><ele>100.0</ele><time>2026-05-04T09:32:46Z</time></trkpt><trkpt lat="43.63825198439663" lon="10.81465810398089"><ele>96.0</ele><time>2026-05-04T09:32:47Z</time></trkpt><trkpt lat="43.63834254876194" lon="10.81456936746756"><ele>92.0</ele><time>2026-05-04T09:32:48Z</time></trkpt><trkpt lat="43.63845264990348" lon="10.814489440885081"><ele>92.0</ele><time>2026-05-04T09:32:49Z</time></trkpt><trkpt lat="43.638587441122894" lon="10.814394804778912"><ele>92.0</ele><time>2026-05-04T09:32:50Z</time></trkpt><trkpt lat="43.63873377788792" lon="10.814272098356563"><ele>92.0</ele><time>2026-05-04T09:32:51Z</time></trkpt><trkpt lat="43.63886387221049" lon="10.814147024198652"><ele>93.33333333333334</ele><time>2026-05-04T09:32:52Z</time></trkpt><trkpt lat="43.63899412731436" lon="10.814018551314502"><ele>94.66666666666667</ele><time>2026-05-04T09:32:53Z</time></trkpt><trkpt lat="43.63912490484543" lon="10.813860762447149"><ele>96.0</ele><time>2026-05-04T09:32:54Z</time></trkpt><trkpt lat="43.63924743229614" lon="10.813685850511442"><ele>96.0</ele><time>2026-05-04T09:32:55Z</time></trkpt><trkpt lat="43.63936617456415" lon="10.813500551768344"><ele>96.0</ele><time>2026-05-04T09:32:56Z</time></trkpt><trkpt lat="43.63947677456416" lon="10.813331651044518"><ele>96.0</ele><time>2026-05-04T09:32:57Z</time></trkpt><trkpt lat="43.63960044993971" lon="10.813172449160826"><ele>95.0</ele><time>2026-05-04T09:32:58Z</time></trkpt><trkpt lat="43.639732330102554" lon="10.813015639166325"><ele>94.0</ele><time>2026-05-04T09:32:59Z</time></trkpt><trkpt lat="43.63986574519503" lon="10.812868976493254"><ele>93.0</ele><time>2026-05-04T09:33:00Z</time></trkpt><trkpt lat="43.63999528187938" lon="10.812739199845867"><ele>92.75</ele><time>2026-05-04T09:33:01Z</time></trkpt><trkpt lat="43.64011546404362" lon="10.812610872963903"><ele>92.5</ele><time>2026-05-04T09:33:02Z</time></trkpt><trkpt lat="43.640222302782924" lon="10.812475963839674"><ele>92.25</ele><time>2026-05-04T09:33:03Z</time></trkpt><trkpt lat="43.64032066241426" lon="10.81233214572071"><ele>92.0</ele><time>2026-05-04T09:33:04Z</time></trkpt><trkpt lat="43.64041176191845" lon="10.812179390108"><ele>92.0</ele><time>2026-05-04T09:33:05Z</time></trkpt><trkpt lat="43.64050082086042" lon="10.812001500217354"><ele>92.0</ele><time>2026-05-04T09:33:06Z</time></trkpt><trkpt lat="43.640592486186286" lon="10.811799434923246"><ele>92.0</ele><time>2026-05-04T09:33:07Z</time></trkpt><trkpt lat="43.64069357300823" lon="10.811579405047153"><ele>89.66666666666667</ele><time>2026-05-04T09:33:08Z</time></trkpt><trkpt lat="43.640791337709835" lon="10.81136780642933"><ele>87.33333333333333</ele><time>2026-05-04T09:33:09Z</time></trkpt><trkpt lat="43.64086933453025" lon="10.811192519713849"><ele>85.0</ele><time>2026-05-04T09:33:10Z</time></trkpt><trkpt lat="43.640940666700594" lon="10.81103177771385"><ele>85.75</ele><time>2026-05-04T09:33:11Z</time></trkpt><trkpt lat="43.64100424864398" lon="10.810879916802953"><ele>86.5</ele><time>2026-05-04T09:33:12Z</time></trkpt><trkpt lat="43.641061843287474" lon="10.810714301330092"><ele>87.25</ele><time>2026-05-04T09:33:13Z</time></trkpt><trkpt lat="43.641102026608294" lon="10.810539619720597"><ele>88.0</ele><time>2026-05-04T09:33:14Z</time></trkpt><trkpt lat="43.641134968539745" lon="10.810350072832735"><ele>87.33333333333333</ele><time>2026-05-04T09:33:15Z</time></trkpt><trkpt lat="43.64116141386309" lon="10.810145540288831"><ele>86.66666666666667</ele><time>2026-05-04T09:33:16Z</time></trkpt><trkpt lat="43.6411908125964" lon="10.809929395473157"><ele>86.0</ele><time>2026-05-04T09:33:17Z</time></trkpt><trkpt lat="43.64121280751356" lon="10.809716429389857"><ele>86.0</ele><time>2026-05-04T09:33:18Z</time></trkpt><trkpt lat="43.641239223425956" lon="10.809487821871715"><ele>86.0</ele><time>2026-05-04T09:33:19Z</time></trkpt><trkpt lat="43.64126299786051" lon="10.809258151358001"><ele>86.0</ele><time>2026-05-04T09:33:20Z</time></trkpt><trkpt lat="43.64128265388535" lon="10.809032099936841"><ele>85.66666666666667</ele><time>2026-05-04T09:33:21Z</time></trkpt><trkpt lat="43.64129931800991" lon="10.808805882462455"><ele>85.33333333333333</ele><time>2026-05-04T09:33:22Z</time></trkpt><trkpt lat="43.641307680169405" lon="10.808589079293306"><ele>85.0</ele><time>2026-05-04T09:33:23Z</time></trkpt><trkpt lat="43.6413097891553" lon="10.808392041702751"><ele>84.2</ele><time>2026-05-04T09:33:24Z</time></trkpt><trkpt lat="43.64131553218325" lon="10.808222256939718"><ele>83.4</ele><time>2026-05-04T09:33:25Z</time></trkpt><trkpt lat="43.64132816949298" lon="10.808080387634877"><ele>82.6</ele><time>2026-05-04T09:33:26Z</time></trkpt><trkpt lat="43.641357676708246" lon="10.807940675893647"><ele>81.8</ele><time>2026-05-04T09:33:27Z</time></trkpt><trkpt lat="43.64139330705092" lon="10.807826697189931"><ele>81.0</ele><time>2026-05-04T09:33:29Z</time></trkpt><trkpt lat="43.641515738589305" lon="10.807746095383285"><ele>81.0</ele><time>2026-05-04T09:33:32Z</time></trkpt><trkpt lat="43.6416113948732" lon="10.807684886655435"><ele>81.0</ele><time>2026-05-04T09:33:33Z</time></trkpt><trkpt lat="43.641708421867385" lon="10.807610269123295"><ele>81.0</ele><time>2026-05-04T09:33:34Z</time></trkpt><trkpt lat="43.641812544477126" lon="10.80751646286737"><ele>81.0</ele><time>2026-05-04T09:33:35Z</time></trkpt><trkpt lat="43.641922564745606" lon="10.807406447413966"><ele>82.0</ele><time>2026-05-04T09:33:36Z</time></trkpt><trkpt lat="43.64202354649489" lon="10.807298937790028"><ele>83.0</ele><time>2026-05-04T09:33:37Z</time></trkpt><trkpt lat="43.64212041909219" lon="10.807181092989797"><ele>84.0</ele><time>2026-05-04T09:33:38Z</time></trkpt><trkpt lat="43.642217442445364" lon="10.807051709345995"><ele>85.0</ele><time>2026-05-04T09:33:39Z</time></trkpt><trkpt lat="43.64231437219789" lon="10.80693051030151"><ele>83.4</ele><time>2026-05-04T09:33:40Z</time></trkpt><trkpt lat="43.64240594585988" lon="10.806827697600923"><ele>81.8</ele><time>2026-05-04T09:33:41Z</time></trkpt><trkpt lat="43.64249906249763" lon="10.80673312087726"><ele>80.2</ele><time>2026-05-04T09:33:42Z</time></trkpt><trkpt lat="43.64258179101568" lon="10.806644186535577"><ele>78.6</ele><time>2026-05-04T09:33:43Z</time></trkpt><trkpt lat="43.642649783392024" lon="10.80656953341323"><ele>77.0</ele><time>2026-05-04T09:33:44Z</time></trkpt><trkpt lat="43.642737508440476" lon="10.806537434958614"><ele>77.0</ele><time>2026-05-04T09:33:48Z</time></trkpt><trkpt lat="43.64284770847979" lon="10.80665560280831"><ele>77.0</ele><time>2026-05-04T09:33:50Z</time></trkpt><trkpt lat="43.642911051913416" lon="10.806768356942115"><ele>77.0</ele><time>2026-05-04T09:33:51.001Z</time></trkpt><trkpt lat="43.643000286677626" lon="10.806861081156004"><ele>77.0</ele><time>2026-05-04T09:33:52.001Z</time></trkpt><trkpt lat="43.6431192748607" lon="10.80693680329121"><ele>77.0</ele><time>2026-05-04T09:33:53.001Z</time></trkpt><trkpt lat="43.64325363997969" lon="10.807005565624115"><ele>77.0</ele><time>2026-05-04T09:33:54.001Z</time></trkpt><trkpt lat="43.64339307924303" lon="10.80708167272544"><ele>77.0</ele><time>2026-05-04T09:33:55.001Z</time></trkpt><trkpt lat="43.64352975535898" lon="10.80715140385602"><ele>77.0</ele><time>2026-05-04T09:33:56.001Z</time></trkpt><trkpt lat="43.64367566927447" lon="10.807219035247616"><ele>72.33333333333334</ele><time>2026-05-04T09:33:57.001Z</time></trkpt><trkpt lat="43.64382257572331" lon="10.807296014556721"><ele>67.66666666666667</ele><time>2026-05-04T09:33:58.001Z</time></trkpt><trkpt lat="43.64398508330724" lon="10.80737144150147"><ele>63.0</ele><time>2026-05-04T09:33:59.001Z</time></trkpt><trkpt lat="43.64415407397529" lon="10.80745618838483"><ele>63.0</ele><time>2026-05-04T09:34:00.001Z</time></trkpt><trkpt lat="43.64432161814337" lon="10.807541799808389"><ele>63.0</ele><time>2026-05-04T09:34:01.001Z</time></trkpt><trkpt lat="43.644497879536864" lon="10.807630838149548"><ele>63.0</ele><time>2026-05-04T09:34:02.001Z</time></trkpt><trkpt lat="43.64467067269722" lon="10.807724811470635"><ele>61.66666666666667</ele><time>2026-05-04T09:34:03.001Z</time></trkpt><trkpt lat="43.644845483380074" lon="10.807843757910176"><ele>60.333333333333336</ele><time>2026-05-04T09:34:04.001Z</time></trkpt><trkpt lat="43.64501573826384" lon="10.807984552029605"><ele>59.0</ele><time>2026-05-04T09:34:05.001Z</time></trkpt><trkpt lat="43.645189965201226" lon="10.808140287119313"><ele>57.0</ele><time>2026-05-04T09:34:06.001Z</time></trkpt><trkpt lat="43.6453609408288" lon="10.808302121950472"><ele>55.0</ele><time>2026-05-04T09:34:07.001Z</time></trkpt><trkpt lat="43.6455266322456" lon="10.808466329992994"><ele>53.0</ele><time>2026-05-04T09:34:08.001Z</time></trkpt><trkpt lat="43.64568497208526" lon="10.808634756833971"><ele>52.66666666666667</ele><time>2026-05-04T09:34:09.001Z</time></trkpt><trkpt lat="43.64583458949716" lon="10.80879546763671"><ele>52.33333333333333</ele><time>2026-05-04T09:34:10.001Z</time></trkpt><trkpt lat="43.64597467839867" lon="10.808948497952349"><ele>52.0</ele><time>2026-05-04T09:34:11.001Z</time></trkpt><trkpt lat="43.64611420848203" lon="10.809123050466152"><ele>49.666666666666664</ele><time>2026-05-04T09:34:12.001Z</time></trkpt><trkpt lat="43.64626559947889" lon="10.809284538563979"><ele>47.33333333333333</ele><time>2026-05-04T09:34:13.001Z</time></trkpt><trkpt lat="43.64640912907913" lon="10.809415926180392"><ele>45.0</ele><time>2026-05-04T09:34:14.001Z</time></trkpt><trkpt lat="43.64655100973583" lon="10.809530628804431"><ele>44.25</ele><time>2026-05-04T09:34:15.001Z</time></trkpt><trkpt lat="43.6466894461107" lon="10.809641100870374"><ele>43.5</ele><time>2026-05-04T09:34:16.001Z</time></trkpt><trkpt lat="43.64680919249375" lon="10.809740041227561"><ele>42.75</ele><time>2026-05-04T09:34:17.001Z</time></trkpt><trkpt lat="43.64690941070939" lon="10.809829271804695"><ele>42.0</ele><time>2026-05-04T09:34:18.001Z</time></trkpt><trkpt lat="43.64696815810789" lon="10.809894199715568"><ele>42.0</ele><time>2026-05-04T09:34:19.001Z</time></trkpt><trkpt lat="43.64697629918523" lon="10.81000532613467"><ele>42.0</ele><time>2026-05-04T09:34:22.001Z</time></trkpt><trkpt lat="43.646918073233664" lon="10.81009544416538"><ele>42.0</ele><time>2026-05-04T09:34:23.001Z</time></trkpt><trkpt lat="43.64684054140833" lon="10.8101899206352"><ele>42.0</ele><time>2026-05-04T09:34:24.001Z</time></trkpt><trkpt lat="43.64675256792913" lon="10.810312495297422"><ele>42.0</ele><time>2026-05-04T09:34:25.001Z</time></trkpt><trkpt lat="43.64665095792966" lon="10.810456891327322"><ele>41.333333333333336</ele><time>2026-05-04T09:34:26.001Z</time></trkpt><trkpt lat="43.64653939129811" lon="10.810608473938583"><ele>40.66666666666667</ele><time>2026-05-04T09:34:27.001Z</time></trkpt><trkpt lat="43.64642319979673" lon="10.810772111781061"><ele>40.0</ele><time>2026-05-04T09:34:28.001Z</time></trkpt><trkpt lat="43.64630100600024" lon="10.810955007078432"><ele>39.66666666666667</ele><time>2026-05-04T09:34:29.001Z</time></trkpt><trkpt lat="43.646183711536956" lon="10.811149481500715"><ele>39.333333333333336</ele><time>2026-05-04T09:34:30.001Z</time></trkpt><trkpt lat="43.646073273705426" lon="10.811372891179932"><ele>39.0</ele><time>2026-05-04T09:34:31.001Z</time></trkpt><trkpt lat="43.645974739012715" lon="10.811616800813962"><ele>40.0</ele><time>2026-05-04T09:34:32.001Z</time></trkpt><trkpt lat="43.64589247019288" lon="10.811878969287593"><ele>41.0</ele><time>2026-05-04T09:34:33.001Z</time></trkpt><trkpt lat="43.64582436596147" lon="10.812157004493304"><ele>42.0</ele><time>2026-05-04T09:34:34.001Z</time></trkpt><trkpt lat="43.64575366075671" lon="10.812427028001037"><ele>41.333333333333336</ele><time>2026-05-04T09:34:35Z</time></trkpt><trkpt lat="43.64565997669935" lon="10.812684302128895"><ele>40.66666666666667</ele><time>2026-05-04T09:34:36Z</time></trkpt><trkpt lat="43.64554773564111" lon="10.812929895888901"><ele>40.0</ele><time>2026-05-04T09:34:37Z</time></trkpt><trkpt lat="43.645423335203716" lon="10.81315896917956"><ele>40.0</ele><time>2026-05-04T09:34:38Z</time></trkpt><trkpt lat="43.64530928784628" lon="10.813379517182685"><ele>40.0</ele><time>2026-05-04T09:34:39Z</time></trkpt><trkpt lat="43.64521674853281" lon="10.813612889468848"><ele>40.0</ele><time>2026-05-04T09:34:40Z</time></trkpt><trkpt lat="43.645143708583056" lon="10.813863302250647"><ele>40.66666666666667</ele><time>2026-05-04T09:34:41Z</time></trkpt><trkpt lat="43.645086397609376" lon="10.814123039620222"><ele>41.333333333333336</ele><time>2026-05-04T09:34:42Z</time></trkpt><trkpt lat="43.645046763585924" lon="10.81438119921086"><ele>42.0</ele><time>2026-05-04T09:34:43Z</time></trkpt><trkpt lat="43.64500629645177" lon="10.814634777120306"><ele>42.0</ele><time>2026-05-04T09:34:44Z</time></trkpt><trkpt lat="43.64494772206438" lon="10.814884537037573"><ele>42.0</ele><time>2026-05-04T09:34:45Z</time></trkpt><trkpt lat="43.64487640360852" lon="10.815126333601917"><ele>42.0</ele><time>2026-05-04T09:34:46Z</time></trkpt><trkpt lat="43.64479359709852" lon="10.815369898312891"><ele>41.666666666666664</ele><time>2026-05-04T09:34:47Z</time></trkpt><trkpt lat="43.64470952772602" lon="10.815610568242324"><ele>41.33333333333333</ele><time>2026-05-04T09:34:48Z</time></trkpt><trkpt lat="43.644627374946985" lon="10.815854319799296"><ele>41.0</ele><time>2026-05-04T09:34:49Z</time></trkpt><trkpt lat="43.64454943506081" lon="10.816092437056925"><ele>41.0</ele><time>2026-05-04T09:34:50Z</time></trkpt><trkpt lat="43.644471203384256" lon="10.81632512226579"><ele>41.0</ele><time>2026-05-04T09:34:51Z</time></trkpt><trkpt lat="43.64439350990046" lon="10.81655169191008"><ele>41.0</ele><time>2026-05-04T09:34:52Z</time></trkpt><trkpt lat="43.644327029612775" lon="10.816740260878825"><ele>41.0</ele><time>2026-05-04T09:34:53Z</time></trkpt><trkpt lat="43.6442658719176" lon="10.816906522950127"><ele>41.0</ele><time>2026-05-04T09:34:54Z</time></trkpt><trkpt lat="43.64419964441477" lon="10.817088360349386"><ele>41.0</ele><time>2026-05-04T09:34:55Z</time></trkpt><trkpt lat="43.6441567359101" lon="10.817223437154253"><ele>41.0</ele><time>2026-05-04T09:34:56Z</time></trkpt><trkpt lat="43.64407644723591" lon="10.817388799520902"><ele>41.0</ele><time>2026-05-04T09:34:57Z</time></trkpt><trkpt lat="43.64397364655883" lon="10.81755140377596"><ele>41.0</ele><time>2026-05-04T09:34:58Z</time></trkpt><trkpt lat="43.64385053801222" lon="10.817713746762003"><ele>41.0</ele><time>2026-05-04T09:34:59Z</time></trkpt><trkpt lat="43.64370825627973" lon="10.817856032616952"><ele>40.33333333333333</ele><time>2026-05-04T09:35:00Z</time></trkpt><trkpt lat="43.64355175376649" lon="10.817979969104172"><ele>39.666666666666664</ele><time>2026-05-04T09:35:01Z</time></trkpt><trkpt lat="43.64338397266554" lon="10.818091386020802"><ele>39.0</ele><time>2026-05-04T09:35:02Z</time></trkpt><trkpt lat="43.6432110986365" lon="10.818218560371097"><ele>39.0</ele><time>2026-05-04T09:35:03Z</time></trkpt><trkpt lat="43.64303752526381" lon="10.818369104072913"><ele>39.0</ele><time>2026-05-04T09:35:04Z</time></trkpt><trkpt lat="43.64286669178182" lon="10.818539930408072"><ele>39.0</ele><time>2026-05-04T09:35:05Z</time></trkpt><trkpt lat="43.64270592198636" lon="10.81873116105173"><ele>39.0</ele><time>2026-05-04T09:35:06Z</time></trkpt><trkpt lat="43.64255726559431" lon="10.818949770953012"><ele>39.0</ele><time>2026-05-04T09:35:07Z</time></trkpt><trkpt lat="43.6424073142119" lon="10.819186097598577"><ele>39.0</ele><time>2026-05-04T09:35:08Z</time></trkpt><trkpt lat="43.64225673405148" lon="10.819422902927084"><ele>39.0</ele><time>2026-05-04T09:35:09Z</time></trkpt><trkpt lat="43.6421005770044" lon="10.819660105878151"><ele>39.0</ele><time>2026-05-04T09:35:10Z</time></trkpt><trkpt lat="43.64193556119371" lon="10.819899462632879"><ele>39.5</ele><time>2026-05-04T09:35:11Z</time></trkpt><trkpt lat="43.64176788029945" lon="10.82014235830881"><ele>40.0</ele><time>2026-05-04T09:35:12Z</time></trkpt><trkpt lat="43.641600473033265" lon="10.820388202594259"><ele>40.0</ele><time>2026-05-04T09:35:13Z</time></trkpt><trkpt lat="43.6414358891768" lon="10.820636587649162"><ele>40.0</ele><time>2026-05-04T09:35:14Z</time></trkpt><trkpt lat="43.64127625651249" lon="10.820894537461717"><ele>40.5</ele><time>2026-05-04T09:35:15Z</time></trkpt><trkpt lat="43.64113290802726" lon="10.821169023853441"><ele>41.0</ele><time>2026-05-04T09:35:16Z</time></trkpt><trkpt lat="43.6410101661309" lon="10.821466683208575"><ele>40.5</ele><time>2026-05-04T09:35:17Z</time></trkpt><trkpt lat="43.64090912378626" lon="10.8217806825066"><ele>40.0</ele><time>2026-05-04T09:35:18Z</time></trkpt><trkpt lat="43.64082354284646" lon="10.822102643095903"><ele>40.0</ele><time>2026-05-04T09:35:19Z</time></trkpt><trkpt lat="43.64075942105347" lon="10.822432790296608"><ele>40.0</ele><time>2026-05-04T09:35:20Z</time></trkpt><trkpt lat="43.64072030050308" lon="10.822772667094005"><ele>40.5</ele><time>2026-05-04T09:35:21Z</time></trkpt><trkpt lat="43.64070692145076" lon="10.823116837467124"><ele>41.0</ele><time>2026-05-04T09:35:22Z</time></trkpt><trkpt lat="43.64070914094062" lon="10.823455873828944"><ele>41.0</ele><time>2026-05-04T09:35:23Z</time></trkpt><trkpt lat="43.640718677298615" lon="10.823800334325103"><ele>41.0</ele><time>2026-05-04T09:35:24Z</time></trkpt><trkpt lat="43.640728763035966" lon="10.824143027632132"><ele>41.5</ele><time>2026-05-04T09:35:25Z</time></trkpt><trkpt lat="43.64074921360471" lon="10.824481577901256"><ele>42.0</ele><time>2026-05-04T09:35:26Z</time></trkpt><trkpt lat="43.64076762237219" lon="10.82482981486068"><ele>42.0</ele><time>2026-05-04T09:35:27Z</time></trkpt><trkpt lat="43.640784463696434" lon="10.825171033107734"><ele>42.0</ele><time>2026-05-04T09:35:28Z</time></trkpt><trkpt lat="43.64079631428531" lon="10.825519296231231"><ele>42.0</ele><time>2026-05-04T09:35:29Z</time></trkpt><trkpt lat="43.640813431942306" lon="10.825866780832047"><ele>42.0</ele><time>2026-05-04T09:35:30Z</time></trkpt><trkpt lat="43.6408222332651" lon="10.826209029155859"><ele>41.5</ele><time>2026-05-04T09:35:31Z</time></trkpt><trkpt lat="43.64083786771259" lon="10.826555217789114"><ele>41.0</ele><time>2026-05-04T09:35:32Z</time></trkpt><trkpt lat="43.640838610890306" lon="10.826900355802481"><ele>41.0</ele><time>2026-05-04T09:35:33Z</time></trkpt><trkpt lat="43.64082497884816" lon="10.827244403778073"><ele>41.0</ele><time>2026-05-04T09:35:34Z</time></trkpt><trkpt lat="43.640801973230516" lon="10.827589399302443"><ele>40.5</ele><time>2026-05-04T09:35:35Z</time></trkpt><trkpt lat="43.6407548917211" lon="10.827928596041279"><ele>40.0</ele><time>2026-05-04T09:35:36Z</time></trkpt><trkpt lat="43.640686602780505" lon="10.828263077789353"><ele>40.5</ele><time>2026-05-04T09:35:37Z</time></trkpt><trkpt lat="43.64061513502475" lon="10.82859059500771"><ele>41.0</ele><time>2026-05-04T09:35:38Z</time></trkpt><trkpt lat="43.64054365903259" lon="10.82891935332513"><ele>41.0</ele><time>2026-05-04T09:35:39Z</time></trkpt><trkpt lat="43.64047628111687" lon="10.829244972798447"><ele>41.0</ele><time>2026-05-04T09:35:40Z</time></trkpt><trkpt lat="43.640399284500965" lon="10.829573280837897"><ele>40.5</ele><time>2026-05-04T09:35:41Z</time></trkpt><trkpt lat="43.64033621465935" lon="10.829897359991756"><ele>40.0</ele><time>2026-05-04T09:35:42Z</time></trkpt><trkpt lat="43.640280462510745" lon="10.830226487515967"><ele>41.5</ele><time>2026-05-04T09:35:43Z</time></trkpt><trkpt lat="43.64024226561309" lon="10.830556695087884"><ele>43.0</ele><time>2026-05-04T09:35:44Z</time></trkpt><trkpt lat="43.640220668347986" lon="10.830887545681176"><ele>43.0</ele><time>2026-05-04T09:35:45Z</time></trkpt><trkpt lat="43.640200878701734" lon="10.831219992982625"><ele>43.0</ele><time>2026-05-04T09:35:46Z</time></trkpt><trkpt lat="43.64017743092345" lon="10.831551123914053"><ele>43.0</ele><time>2026-05-04T09:35:47Z</time></trkpt><trkpt lat="43.640154779322906" lon="10.831876743272382"><ele>43.0</ele><time>2026-05-04T09:35:48Z</time></trkpt><trkpt lat="43.64014013297964" lon="10.832168227061828"><ele>43.0</ele><time>2026-05-04T09:35:49Z</time></trkpt><trkpt lat="43.64014168003506" lon="10.83241223678112"><ele>43.0</ele><time>2026-05-04T09:35:50Z</time></trkpt><trkpt lat="43.64015494325807" lon="10.832621217125627"><ele>43.0</ele><time>2026-05-04T09:35:51Z</time></trkpt><trkpt lat="43.640173533483434" lon="10.832776477720513"><ele>43.0</ele><time>2026-05-04T09:35:52Z</time></trkpt><trkpt lat="43.64018532327762" lon="10.8329076436068"><ele>43.0</ele><time>2026-05-04T09:35:53Z</time></trkpt><trkpt lat="43.64018100109508" lon="10.833023736425305"><ele>43.0</ele><time>2026-05-04T09:35:54Z</time></trkpt><trkpt lat="43.64016496446444" lon="10.833145207048622"><ele>43.0</ele><time>2026-05-04T09:35:55Z</time></trkpt><trkpt lat="43.640132545526015" lon="10.833276890748737"><ele>43.0</ele><time>2026-05-04T09:35:56Z</time></trkpt><trkpt lat="43.64006451112442" lon="10.833407515697102"><ele>43.0</ele><time>2026-05-04T09:35:57Z</time></trkpt><trkpt lat="43.63998405549808" lon="10.833547208192003"><ele>43.0</ele><time>2026-05-04T09:35:58Z</time></trkpt><trkpt lat="43.63990895893092" lon="10.833711756084469"><ele>43.0</ele><time>2026-05-04T09:35:59Z</time></trkpt><trkpt lat="43.639826394718135" lon="10.83388954582165"><ele>43.0</ele><time>2026-05-04T09:36:00Z</time></trkpt><trkpt lat="43.63974767722816" lon="10.834056093197091"><ele>43.0</ele><time>2026-05-04T09:36:01Z</time></trkpt><trkpt lat="43.6396905243852" lon="10.834199223444433"><ele>43.0</ele><time>2026-05-04T09:36:02Z</time></trkpt><trkpt lat="43.639634565395895" lon="10.834323940195809"><ele>43.2</ele><time>2026-05-04T09:36:03.001Z</time></trkpt><trkpt lat="43.639589568408375" lon="10.834422706241345"><ele>43.4</ele><time>2026-05-04T09:36:04.001Z</time></trkpt><trkpt lat="43.63955229812328" lon="10.834497583957248"><ele>43.6</ele><time>2026-05-04T09:36:05.001Z</time></trkpt><trkpt lat="43.63948310683317" lon="10.834630091736214"><ele>43.800000000000004</ele><time>2026-05-04T09:36:07.001Z</time></trkpt><trkpt lat="43.63943683284817" lon="10.834738750079724"><ele>44.0</ele><time>2026-05-04T09:36:08.001Z</time></trkpt><trkpt lat="43.639390905698406" lon="10.834860915603453"><ele>44.5</ele><time>2026-05-04T09:36:09.001Z</time></trkpt><trkpt lat="43.63933454310107" lon="10.834999306017236"><ele>45.0</ele><time>2026-05-04T09:36:10.001Z</time></trkpt><trkpt lat="43.63926751154106" lon="10.835150196622331"><ele>45.5</ele><time>2026-05-04T09:36:11.001Z</time></trkpt><trkpt lat="43.6391990946214" lon="10.835316580638635"><ele>46.0</ele><time>2026-05-04T09:36:12.001Z</time></trkpt><trkpt lat="43.63912541606058" lon="10.835498063000623"><ele>46.0</ele><time>2026-05-04T09:36:13.001Z</time></trkpt><trkpt lat="43.639055372361526" lon="10.83569489806923"><ele>46.0</ele><time>2026-05-04T09:36:14.001Z</time></trkpt><trkpt lat="43.6389934596092" lon="10.835913802199373"><ele>46.0</ele><time>2026-05-04T09:36:15.001Z</time></trkpt><trkpt lat="43.638927291479604" lon="10.83613989131081"><ele>45.333333333333336</ele><time>2026-05-04T09:36:16.001Z</time></trkpt><trkpt lat="43.638856927843804" lon="10.836377398119073"><ele>44.666666666666664</ele><time>2026-05-04T09:36:17.001Z</time></trkpt><trkpt lat="43.63878454840677" lon="10.836612143369702"><ele>44.0</ele><time>2026-05-04T09:36:18.001Z</time></trkpt><trkpt lat="43.638701384474466" lon="10.836862429278012"><ele>47.33333333333333</ele><time>2026-05-04T09:36:19.001Z</time></trkpt><trkpt lat="43.63861399248168" lon="10.83709211240409"><ele>50.666666666666664</ele><time>2026-05-04T09:36:20.001Z</time></trkpt><trkpt lat="43.63852440963749" lon="10.837316012141455"><ele>54.0</ele><time>2026-05-04T09:36:21.001Z</time></trkpt><trkpt lat="43.63843333509968" lon="10.8375378978357"><ele>52.33333333333333</ele><time>2026-05-04T09:36:22.001Z</time></trkpt><trkpt lat="43.63836031226569" lon="10.83774727728778"><ele>50.666666666666664</ele><time>2026-05-04T09:36:23.001Z</time></trkpt><trkpt lat="43.63828593895539" lon="10.837957542745194"><ele>49.0</ele><time>2026-05-04T09:36:24.001Z</time></trkpt><trkpt lat="43.63819197896527" lon="10.83816423123797"><ele>49.0</ele><time>2026-05-04T09:36:25.001Z</time></trkpt><trkpt lat="43.638084766913465" lon="10.838366710344754"><ele>49.0</ele><time>2026-05-04T09:36:26.001Z</time></trkpt><trkpt lat="43.63796870818701" lon="10.838561573632466"><ele>49.0</ele><time>2026-05-04T09:36:27.001Z</time></trkpt><trkpt lat="43.63785974256869" lon="10.838729797186721"><ele>48.666666666666664</ele><time>2026-05-04T09:36:28.001Z</time></trkpt><trkpt lat="43.6377376765857" lon="10.838880603643457"><ele>48.33333333333333</ele><time>2026-05-04T09:36:29.001Z</time></trkpt><trkpt lat="43.637595082207106" lon="10.83900501242924"><ele>48.0</ele><time>2026-05-04T09:36:30.001Z</time></trkpt><trkpt lat="43.63743620328023" lon="10.83912671569617"><ele>48.0</ele><time>2026-05-04T09:36:31.001Z</time></trkpt><trkpt lat="43.6372636483057" lon="10.839254816359816"><ele>48.0</ele><time>2026-05-04T09:36:32.001Z</time></trkpt><trkpt lat="43.637088173291595" lon="10.839390716837547"><ele>48.0</ele><time>2026-05-04T09:36:33.001Z</time></trkpt><trkpt lat="43.63690826753063" lon="10.83953184246044"><ele>47.333333333333336</ele><time>2026-05-04T09:36:34.001Z</time></trkpt><trkpt lat="43.63672175880833" lon="10.839678088797903"><ele>46.66666666666667</ele><time>2026-05-04T09:36:35.001Z</time></trkpt><trkpt lat="43.63653483495586" lon="10.839830423296469"><ele>46.0</ele><time>2026-05-04T09:36:36.001Z</time></trkpt><trkpt lat="43.63634679519529" lon="10.839994497455764"><ele>45.5</ele><time>2026-05-04T09:36:37.001Z</time></trkpt><trkpt lat="43.63616001619821" lon="10.840173399513333"><ele>45.0</ele><time>2026-05-04T09:36:38.001Z</time></trkpt><trkpt lat="43.63598352080504" lon="10.840367339821547"><ele>46.0</ele><time>2026-05-04T09:36:39.001Z</time></trkpt><trkpt lat="43.63580320046503" lon="10.840563588911701"><ele>47.0</ele><time>2026-05-04T09:36:40.001Z</time></trkpt><trkpt lat="43.635624088815355" lon="10.840753071889303"><ele>47.0</ele><time>2026-05-04T09:36:41Z</time></trkpt><trkpt lat="43.63544603111516" lon="10.840940277218595"><ele>47.0</ele><time>2026-05-04T09:36:42Z</time></trkpt><trkpt lat="43.63526826935638" lon="10.841126356025045"><ele>47.0</ele><time>2026-05-04T09:36:43Z</time></trkpt><trkpt lat="43.63509633856482" lon="10.841307989825108"><ele>47.0</ele><time>2026-05-04T09:36:44Z</time></trkpt><trkpt lat="43.634930846740666" lon="10.8414828081748"><ele>47.0</ele><time>2026-05-04T09:36:45Z</time></trkpt><trkpt lat="43.63477565494271" lon="10.841642710545383"><ele>47.0</ele><time>2026-05-04T09:36:46Z</time></trkpt><trkpt lat="43.634626462661025" lon="10.841775180879708"><ele>46.666666666666664</ele><time>2026-05-04T09:36:47Z</time></trkpt><trkpt lat="43.63447060262655" lon="10.841871329979945"><ele>46.333333333333336</ele><time>2026-05-04T09:36:48Z</time></trkpt><trkpt lat="43.634299194760864" lon="10.841937512016033"><ele>46.0</ele><time>2026-05-04T09:36:49Z</time></trkpt><trkpt lat="43.63412269375199" lon="10.84200236684005"><ele>46.0</ele><time>2026-05-04T09:36:50Z</time></trkpt><trkpt lat="43.633944577307666" lon="10.84209162681643"><ele>46.0</ele><time>2026-05-04T09:36:51Z</time></trkpt><trkpt lat="43.63377456413349" lon="10.842213675256017"><ele>46.0</ele><time>2026-05-04T09:36:52Z</time></trkpt><trkpt lat="43.63361470152934" lon="10.842362800862201"><ele>46.333333333333336</ele><time>2026-05-04T09:36:53Z</time></trkpt><trkpt lat="43.63345029534432" lon="10.842533268197233"><ele>46.666666666666664</ele><time>2026-05-04T09:36:54Z</time></trkpt><trkpt lat="43.6332818337024" lon="10.842711992650893"><ele>47.0</ele><time>2026-05-04T09:36:55Z</time></trkpt><trkpt lat="43.633113424652215" lon="10.842893087190792"><ele>47.0</ele><time>2026-05-04T09:36:56Z</time></trkpt><trkpt lat="43.6329364710486" lon="10.843075818780248"><ele>47.0</ele><time>2026-05-04T09:36:57Z</time></trkpt><trkpt lat="43.632759987605894" lon="10.843257931722986"><ele>47.0</ele><time>2026-05-04T09:36:58Z</time></trkpt><trkpt lat="43.632587811977174" lon="10.84342663785774"><ele>47.33333333333333</ele><time>2026-05-04T09:36:59Z</time></trkpt><trkpt lat="43.63243217324824" lon="10.843577013633169"><ele>47.666666666666664</ele><time>2026-05-04T09:37:00Z</time></trkpt><trkpt lat="43.632288252750996" lon="10.843710701834615"><ele>48.0</ele><time>2026-05-04T09:37:01Z</time></trkpt><trkpt lat="43.63215709520519" lon="10.84385587852518"><ele>48.0</ele><time>2026-05-04T09:37:02Z</time></trkpt><trkpt lat="43.63205248192535" lon="10.844035578818419"><ele>48.0</ele><time>2026-05-04T09:37:03Z</time></trkpt><trkpt lat="43.631967754249395" lon="10.844246012688167"><ele>48.0</ele><time>2026-05-04T09:37:04Z</time></trkpt><trkpt lat="43.63188021318256" lon="10.844484879002426"><ele>49.33333333333333</ele><time>2026-05-04T09:37:05Z</time></trkpt><trkpt lat="43.63179446631222" lon="10.844728839817984"><ele>50.666666666666664</ele><time>2026-05-04T09:37:06Z</time></trkpt><trkpt lat="43.6317090291916" lon="10.84498895098908"><ele>52.0</ele><time>2026-05-04T09:37:07Z</time></trkpt><trkpt lat="43.631639561046875" lon="10.845259957081186"><ele>52.0</ele><time>2026-05-04T09:37:08Z</time></trkpt><trkpt lat="43.63159658564396" lon="10.845548424023956"><ele>52.0</ele><time>2026-05-04T09:37:09Z</time></trkpt><trkpt lat="43.63158249923067" lon="10.845823912944377"><ele>52.0</ele><time>2026-05-04T09:37:10Z</time></trkpt><trkpt lat="43.63156768623168" lon="10.846067189049664"><ele>51.33333333333333</ele><time>2026-05-04T09:37:11Z</time></trkpt><trkpt lat="43.63152293538646" lon="10.846283398659132"><ele>50.66666666666667</ele><time>2026-05-04T09:37:12Z</time></trkpt><trkpt lat="43.631442177599226" lon="10.846462320894682"><ele>50.0</ele><time>2026-05-04T09:37:13Z</time></trkpt><trkpt lat="43.63133215434343" lon="10.846599612285118"><ele>50.0</ele><time>2026-05-04T09:37:14Z</time></trkpt><trkpt lat="43.63119807393351" lon="10.846718239968213"><ele>50.0</ele><time>2026-05-04T09:37:15Z</time></trkpt><trkpt lat="43.63105069237495" lon="10.846823294080943"><ele>50.0</ele><time>2026-05-04T09:37:16Z</time></trkpt><trkpt lat="43.63091836235811" lon="10.846915093739065"><ele>49.75</ele><time>2026-05-04T09:37:17Z</time></trkpt><trkpt lat="43.63079738925337" lon="10.846992395215283"><ele>49.5</ele><time>2026-05-04T09:37:18Z</time></trkpt><trkpt lat="43.63067701780811" lon="10.847033585984097"><ele>49.25</ele><time>2026-05-04T09:37:19Z</time></trkpt><trkpt lat="43.63053919238875" lon="10.84703162358044"><ele>49.0</ele><time>2026-05-04T09:37:20Z</time></trkpt><trkpt lat="43.63039363865753" lon="10.847004525829174"><ele>49.5</ele><time>2026-05-04T09:37:21Z</time></trkpt><trkpt lat="43.630249963199255" lon="10.846984006623565"><ele>50.0</ele><time>2026-05-04T09:37:22Z</time></trkpt><trkpt lat="43.63011282368649" lon="10.846997345846296"><ele>50.5</ele><time>2026-05-04T09:37:23Z</time></trkpt><trkpt lat="43.62998682148157" lon="10.847060478584345"><ele>51.0</ele><time>2026-05-04T09:37:24Z</time></trkpt><trkpt lat="43.62988243311146" lon="10.847145032064104"><ele>51.0</ele><time>2026-05-04T09:37:25Z</time></trkpt><trkpt lat="43.629791374388056" lon="10.847206139297981"><ele>51.0</ele><time>2026-05-04T09:37:26Z</time></trkpt><trkpt lat="43.62971727132534" lon="10.84725499902099"><ele>51.0</ele><time>2026-05-04T09:37:27Z</time></trkpt><trkpt lat="43.62964919344951" lon="10.847317854018469"><ele>51.0</ele><time>2026-05-04T09:37:28Z</time></trkpt><trkpt lat="43.62958620124079" lon="10.847413747632945"><ele>51.0</ele><time>2026-05-04T09:37:29Z</time></trkpt><trkpt lat="43.62952166935989" lon="10.847536137385331"><ele>51.5</ele><time>2026-05-04T09:37:30Z</time></trkpt><trkpt lat="43.62945103266029" lon="10.847665538959642"><ele>52.0</ele><time>2026-05-04T09:37:31Z</time></trkpt><trkpt lat="43.629362152270076" lon="10.847791831690403"><ele>52.5</ele><time>2026-05-04T09:37:32Z</time></trkpt><trkpt lat="43.62926607253585" lon="10.847890439386322"><ele>53.0</ele><time>2026-05-04T09:37:33Z</time></trkpt><trkpt lat="43.629155213810144" lon="10.847973237861806"><ele>53.0</ele><time>2026-05-04T09:37:34Z</time></trkpt><trkpt lat="43.62903407126582" lon="10.848061729474614"><ele>53.0</ele><time>2026-05-04T09:37:35Z</time></trkpt><trkpt lat="43.62890735058711" lon="10.848157250457602"><ele>53.0</ele><time>2026-05-04T09:37:36Z</time></trkpt><trkpt lat="43.628775457853735" lon="10.848257243425886"><ele>53.0</ele><time>2026-05-04T09:37:37Z</time></trkpt><trkpt lat="43.628639898229096" lon="10.84835696849109"><ele>52.5</ele><time>2026-05-04T09:37:38Z</time></trkpt><trkpt lat="43.62850614376729" lon="10.848454768310347"><ele>52.0</ele><time>2026-05-04T09:37:39Z</time></trkpt><trkpt lat="43.62836764285861" lon="10.84854960546844"><ele>51.5</ele><time>2026-05-04T09:37:40Z</time></trkpt><trkpt lat="43.62824534156567" lon="10.848630614693633"><ele>51.0</ele><time>2026-05-04T09:37:41Z</time></trkpt><trkpt lat="43.62812168821298" lon="10.848705833857013"><ele>51.0</ele><time>2026-05-04T09:37:42Z</time></trkpt><trkpt lat="43.62800194079889" lon="10.84876592595862"><ele>51.0</ele><time>2026-05-04T09:37:43Z</time></trkpt><trkpt lat="43.62788641081794" lon="10.848818420408065"><ele>51.0</ele><time>2026-05-04T09:37:44Z</time></trkpt><trkpt lat="43.62778337439096" lon="10.848874499489542"><ele>51.0</ele><time>2026-05-04T09:37:45Z</time></trkpt><trkpt lat="43.62768656732979" lon="10.848954680904809"><ele>51.25</ele><time>2026-05-04T09:37:46Z</time></trkpt><trkpt lat="43.627608090502086" lon="10.849066403384947"><ele>51.5</ele><time>2026-05-04T09:37:47Z</time></trkpt><trkpt lat="43.627544812932" lon="10.849207828036006"><ele>51.75</ele><time>2026-05-04T09:37:48Z</time></trkpt><trkpt lat="43.62749745160649" lon="10.849371437893083"><ele>52.0</ele><time>2026-05-04T09:37:49Z</time></trkpt><trkpt lat="43.627458508089894" lon="10.849548131981766"><ele>51.5</ele><time>2026-05-04T09:37:50Z</time></trkpt><trkpt lat="43.627413258992284" lon="10.84973455866325"><ele>51.0</ele><time>2026-05-04T09:37:51Z</time></trkpt><trkpt lat="43.62737377977137" lon="10.849892774037475"><ele>50.5</ele><time>2026-05-04T09:37:52Z</time></trkpt><trkpt lat="43.62733303454742" lon="10.85002792870865"><ele>50.0</ele><time>2026-05-04T09:37:53Z</time></trkpt><trkpt lat="43.62728996746956" lon="10.850136131954095"><ele>49.833333333333336</ele><time>2026-05-04T09:37:54Z</time></trkpt><trkpt lat="43.627235856028896" lon="10.850206825910771"><ele>49.66666666666667</ele><time>2026-05-04T09:37:55Z</time></trkpt><trkpt lat="43.627166622688634" lon="10.850250173277542"><ele>49.5</ele><time>2026-05-04T09:37:56Z</time></trkpt><trkpt lat="43.6270875059658" lon="10.850263054147455"><ele>49.33333333333333</ele><time>2026-05-04T09:37:57Z</time></trkpt><trkpt lat="43.62700478389362" lon="10.850248633636387"><ele>49.166666666666664</ele><time>2026-05-04T09:37:58Z</time></trkpt><trkpt lat="43.62691474243372" lon="10.850226640357574"><ele>49.0</ele><time>2026-05-04T09:37:59Z</time></trkpt><trkpt lat="43.62680097305677" lon="10.850189544063161"><ele>49.0</ele><time>2026-05-04T09:38:00Z</time></trkpt><trkpt lat="43.62666919614151" lon="10.850083995505216"><ele>49.0</ele><time>2026-05-04T09:38:01Z</time></trkpt><trkpt lat="43.626517607184546" lon="10.850013338230696"><ele>49.0</ele><time>2026-05-04T09:38:02Z</time></trkpt><trkpt lat="43.626366302704994" lon="10.849943702832983"><ele>49.0</ele><time>2026-05-04T09:38:03Z</time></trkpt><trkpt lat="43.6262288696303" lon="10.849886781990499"><ele>49.0</ele><time>2026-05-04T09:38:04Z</time></trkpt><trkpt lat="43.62611170810004" lon="10.849826004522695"><ele>49.0</ele><time>2026-05-04T09:38:05Z</time></trkpt><trkpt lat="43.626014090596456" lon="10.849777346214289"><ele>49.0</ele><time>2026-05-04T09:38:06Z</time></trkpt><trkpt lat="43.62592350350793" lon="10.849750833331058"><ele>49.400000000000006</ele><time>2026-05-04T09:38:07Z</time></trkpt><trkpt lat="43.62583349326019" lon="10.849747959458591"><ele>49.8</ele><time>2026-05-04T09:38:08Z</time></trkpt><trkpt lat="43.62574965499202" lon="10.84978063767726"><ele>50.2</ele><time>2026-05-04T09:38:09Z</time></trkpt><trkpt lat="43.62566273683293" lon="10.849844651557385"><ele>50.599999999999994</ele><time>2026-05-04T09:38:10Z</time></trkpt><trkpt lat="43.62556048912335" lon="10.84993727376435"><ele>51.0</ele><time>2026-05-04T09:38:11Z</time></trkpt><trkpt lat="43.62545462717802" lon="10.850048060227612"><ele>50.75</ele><time>2026-05-04T09:38:12Z</time></trkpt><trkpt lat="43.625345775970196" lon="10.850164123789101"><ele>50.5</ele><time>2026-05-04T09:38:13Z</time></trkpt><trkpt lat="43.62524925389882" lon="10.85027474405056"><ele>50.25</ele><time>2026-05-04T09:38:14Z</time></trkpt><trkpt lat="43.6251506370672" lon="10.850416061988756"><ele>50.0</ele><time>2026-05-04T09:38:15Z</time></trkpt><trkpt lat="43.62504483271874" lon="10.85059583591191"><ele>50.6</ele><time>2026-05-04T09:38:16Z</time></trkpt><trkpt lat="43.624950747369525" lon="10.850749488612086"><ele>51.2</ele><time>2026-05-04T09:38:17Z</time></trkpt><trkpt lat="43.62486050915479" lon="10.850872476640419"><ele>51.8</ele><time>2026-05-04T09:38:18Z</time></trkpt><trkpt lat="43.62478121230526" lon="10.850954096282114"><ele>52.4</ele><time>2026-05-04T09:38:19Z</time></trkpt><trkpt lat="43.62472515155811" lon="10.851005409302255"><ele>53.0</ele><time>2026-05-04T09:38:20Z</time></trkpt><trkpt lat="43.6246585389349" lon="10.851119929260634"><ele>53.0</ele><time>2026-05-04T09:38:22Z</time></trkpt><trkpt lat="43.62465098680878" lon="10.85120760438612"><ele>53.0</ele><time>2026-05-04T09:38:23Z</time></trkpt><trkpt lat="43.62466576154045" lon="10.851307672142319"><ele>53.0</ele><time>2026-05-04T09:38:24Z</time></trkpt><trkpt lat="43.624692887431316" lon="10.851436940894686"><ele>53.0</ele><time>2026-05-04T09:38:25Z</time></trkpt><trkpt lat="43.62472631242079" lon="10.851607558814823"><ele>53.0</ele><time>2026-05-04T09:38:26Z</time></trkpt><trkpt lat="43.62476109736079" lon="10.851803220073514"><ele>52.66666666666667</ele><time>2026-05-04T09:38:27Z</time></trkpt><trkpt lat="43.624807805389096" lon="10.852008484117043"><ele>52.33333333333333</ele><time>2026-05-04T09:38:28Z</time></trkpt><trkpt lat="43.62485866617127" lon="10.85223700442731"><ele>52.0</ele><time>2026-05-04T09:38:29Z</time></trkpt><trkpt lat="43.62490450441892" lon="10.852453351977692"><ele>51.5</ele><time>2026-05-04T09:38:30Z</time></trkpt><trkpt lat="43.624940595059755" lon="10.85264007024441"><ele>51.0</ele><time>2026-05-04T09:38:31Z</time></trkpt><trkpt lat="43.624959458961705" lon="10.852790789396824"><ele>50.5</ele><time>2026-05-04T09:38:32Z</time></trkpt><trkpt lat="43.62496853443656" lon="10.852944705700452"><ele>50.0</ele><time>2026-05-04T09:38:33Z</time></trkpt><trkpt lat="43.62497288389362" lon="10.853126382265799"><ele>50.00000000000001</ele><time>2026-05-04T09:38:34Z</time></trkpt><trkpt lat="43.624967972530364" lon="10.853293147690028"><ele>50.0</ele><time>2026-05-04T09:38:35Z</time></trkpt><trkpt lat="43.62496175633807" lon="10.853422732606267"><ele>50.0</ele><time>2026-05-04T09:38:36Z</time></trkpt><trkpt lat="43.624946097438574" lon="10.853522940013598"><ele>50.0</ele><time>2026-05-04T09:38:37Z</time></trkpt><trkpt lat="43.624917622530134" lon="10.853612721021554"><ele>50.00000000000001</ele><time>2026-05-04T09:38:38Z</time></trkpt><trkpt lat="43.624867319155896" lon="10.853714126651823"><ele>50.0</ele><time>2026-05-04T09:38:39Z</time></trkpt><trkpt lat="43.62479965867423" lon="10.853843739980539"><ele>50.0</ele><time>2026-05-04T09:38:40Z</time></trkpt><trkpt lat="43.6247193716091" lon="10.85399262895055"><ele>50.0</ele><time>2026-05-04T09:38:41Z</time></trkpt><trkpt lat="43.624638557801305" lon="10.854137480798121"><ele>50.0</ele><time>2026-05-04T09:38:42Z</time></trkpt><trkpt lat="43.62456098127882" lon="10.85428595640992"><ele>50.0</ele><time>2026-05-04T09:38:43Z</time></trkpt><trkpt lat="43.6244861882309" lon="10.85444378477456"><ele>50.0</ele><time>2026-05-04T09:38:44Z</time></trkpt><trkpt lat="43.62441677255447" lon="10.854611572097065"><ele>50.0</ele><time>2026-05-04T09:38:45Z</time></trkpt><trkpt lat="43.62435267838531" lon="10.854798085139098"><ele>50.0</ele><time>2026-05-04T09:38:46Z</time></trkpt><trkpt lat="43.62429083911286" lon="10.854970429540105"><ele>50.0</ele><time>2026-05-04T09:38:47Z</time></trkpt><trkpt lat="43.624224950534064" lon="10.855172093169777"><ele>50.0</ele><time>2026-05-04T09:38:48Z</time></trkpt><trkpt lat="43.62416315738641" lon="10.855372281850004"><ele>50.0</ele><time>2026-05-04T09:38:49Z</time></trkpt><trkpt lat="43.62410643192503" lon="10.85554332178663"><ele>50.0</ele><time>2026-05-04T09:38:50Z</time></trkpt><trkpt lat="43.62404746367994" lon="10.8556874290099"><ele>50.0</ele><time>2026-05-04T09:38:51Z</time></trkpt><trkpt lat="43.62399038181913" lon="10.85580404055208"><ele>50.0</ele><time>2026-05-04T09:38:52Z</time></trkpt><trkpt lat="43.623920592540784" lon="10.855918461284174"><ele>50.0</ele><time>2026-05-04T09:38:53Z</time></trkpt><trkpt lat="43.6238425940477" lon="10.856023426543022"><ele>50.0</ele><time>2026-05-04T09:38:54Z</time></trkpt><trkpt lat="43.623749029262854" lon="10.856106471051309"><ele>50.0</ele><time>2026-05-04T09:38:55Z</time></trkpt><trkpt lat="43.623636199218225" lon="10.856195999237963"><ele>50.333333333333336</ele><time>2026-05-04T09:38:56Z</time></trkpt><trkpt lat="43.623510562218236" lon="10.856302075519514"><ele>50.66666666666667</ele><time>2026-05-04T09:38:57Z</time></trkpt><trkpt lat="43.62337824580765" lon="10.85641380480298"><ele>51.0</ele><time>2026-05-04T09:38:58Z</time></trkpt><trkpt lat="43.6232356649206" lon="10.856530618596762"><ele>51.0</ele><time>2026-05-04T09:38:59Z</time></trkpt><trkpt lat="43.6230992914905" lon="10.856647669501415"><ele>51.0</ele><time>2026-05-04T09:39:00Z</time></trkpt><trkpt lat="43.622955757397094" lon="10.856770133428036"><ele>51.0</ele><time>2026-05-04T09:39:01Z</time></trkpt><trkpt lat="43.62282692717815" lon="10.856885130919979"><ele>51.66666666666667</ele><time>2026-05-04T09:39:02Z</time></trkpt><trkpt lat="43.622689058523754" lon="10.857002288523352"><ele>52.333333333333336</ele><time>2026-05-04T09:39:03Z</time></trkpt><trkpt lat="43.62254735700496" lon="10.857123329781658"><ele>53.0</ele><time>2026-05-04T09:39:04Z</time></trkpt><trkpt lat="43.62237887476566" lon="10.857260682853308"><ele>53.0</ele><time>2026-05-04T09:39:05Z</time></trkpt><trkpt lat="43.62221175578997" lon="10.857402549539454"><ele>53.0</ele><time>2026-05-04T09:39:06Z</time></trkpt><trkpt lat="43.62204868644092" lon="10.857541405915839"><ele>53.0</ele><time>2026-05-04T09:39:07Z</time></trkpt><trkpt lat="43.62191484895902" lon="10.85766044350182"><ele>53.25</ele><time>2026-05-04T09:39:08Z</time></trkpt><trkpt lat="43.6217926395169" lon="10.85776799061354"><ele>53.5</ele><time>2026-05-04T09:39:09Z</time></trkpt><trkpt lat="43.62169009245045" lon="10.857857302441166"><ele>53.75</ele><time>2026-05-04T09:39:10Z</time></trkpt><trkpt lat="43.62159095892955" lon="10.857940415687784"><ele>54.0</ele><time>2026-05-04T09:39:11Z</time></trkpt><trkpt lat="43.621491531614616" lon="10.858023502031202"><ele>54.0</ele><time>2026-05-04T09:39:12Z</time></trkpt><trkpt lat="43.62138890552513" lon="10.858111701247433"><ele>54.0</ele><time>2026-05-04T09:39:13Z</time></trkpt><trkpt lat="43.62129177452335" lon="10.858215099923475"><ele>54.0</ele><time>2026-05-04T09:39:14Z</time></trkpt><trkpt lat="43.621194635465244" lon="10.858330026076473"><ele>54.0</ele><time>2026-05-04T09:39:15Z</time></trkpt><trkpt lat="43.62111065999806" lon="10.85846183013104"><ele>54.5</ele><time>2026-05-04T09:39:16Z</time></trkpt><trkpt lat="43.62101063926294" lon="10.858612035641881"><ele>55.0</ele><time>2026-05-04T09:39:17Z</time></trkpt><trkpt lat="43.62092602522633" lon="10.858752675862915"><ele>55.5</ele><time>2026-05-04T09:39:18Z</time></trkpt><trkpt lat="43.62083200335137" lon="10.858897127487102"><ele>56.0</ele><time>2026-05-04T09:39:19Z</time></trkpt><trkpt lat="43.62073019916417" lon="10.859056005123458"><ele>56.0</ele><time>2026-05-04T09:39:20Z</time></trkpt><trkpt lat="43.62062566402822" lon="10.859208385097544"><ele>56.0</ele><time>2026-05-04T09:39:21Z</time></trkpt><trkpt lat="43.620533322529305" lon="10.859354648720439"><ele>56.0</ele><time>2026-05-04T09:39:22Z</time></trkpt><trkpt lat="43.62043737550651" lon="10.859508995183939"><ele>56.0</ele><time>2026-05-04T09:39:23Z</time></trkpt><trkpt lat="43.62034752014" lon="10.859652806067906"><ele>57.0</ele><time>2026-05-04T09:39:24Z</time></trkpt><trkpt lat="43.620267696283555" lon="10.859786275023058"><ele>58.0</ele><time>2026-05-04T09:39:25Z</time></trkpt><trkpt lat="43.62019236702014" lon="10.85990097335976"><ele>59.0</ele><time>2026-05-04T09:39:26Z</time></trkpt><trkpt lat="43.62011699017872" lon="10.860008212002644"><ele>60.0</ele><time>2026-05-04T09:39:27Z</time></trkpt><trkpt lat="43.62002702538883" lon="10.860125589726286"><ele>60.0</ele><time>2026-05-04T09:39:28Z</time></trkpt><trkpt lat="43.61992958038029" lon="10.860252827171717"><ele>60.0</ele><time>2026-05-04T09:39:29Z</time></trkpt><trkpt lat="43.61982597740746" lon="10.860358864288479"><ele>60.0</ele><time>2026-05-04T09:39:30Z</time></trkpt><trkpt lat="43.61972020653167" lon="10.86046699099166"><ele>60.0</ele><time>2026-05-04T09:39:31Z</time></trkpt><trkpt lat="43.61961878804306" lon="10.860572208406792"><ele>60.0</ele><time>2026-05-04T09:39:32Z</time></trkpt><trkpt lat="43.61952402141282" lon="10.860680575999822"><ele>60.0</ele><time>2026-05-04T09:39:33Z</time></trkpt><trkpt lat="43.619419810696556" lon="10.860781126306689"><ele>60.0</ele><time>2026-05-04T09:39:34Z</time></trkpt><trkpt lat="43.6193207263109" lon="10.860858288626538"><ele>60.0</ele><time>2026-05-04T09:39:35Z</time></trkpt><trkpt lat="43.61922745781998" lon="10.860926981786452"><ele>59.4</ele><time>2026-05-04T09:39:36Z</time></trkpt><trkpt lat="43.61913303334266" lon="10.860987496969567"><ele>58.8</ele><time>2026-05-04T09:39:37Z</time></trkpt><trkpt lat="43.61903754239651" lon="10.861026738276136"><ele>58.2</ele><time>2026-05-04T09:39:38Z</time></trkpt><trkpt lat="43.61894518067096" lon="10.861051054795178"><ele>57.6</ele><time>2026-05-04T09:39:39Z</time></trkpt><trkpt lat="43.61886656437651" lon="10.861093248369876"><ele>57.0</ele><time>2026-05-04T09:39:40Z</time></trkpt><trkpt lat="43.61880895628266" lon="10.861162310475933"><ele>57.0</ele><time>2026-05-04T09:39:41Z</time></trkpt><trkpt lat="43.6187674423514" lon="10.861245717056859"><ele>57.0</ele><time>2026-05-04T09:39:42Z</time></trkpt><trkpt lat="43.618732652682866" lon="10.861340662995579"><ele>57.0</ele><time>2026-05-04T09:39:43Z</time></trkpt><trkpt lat="43.618688037485995" lon="10.86145607235687"><ele>57.0</ele><time>2026-05-04T09:39:44Z</time></trkpt><trkpt lat="43.61863379369614" lon="10.861600771563763"><ele>57.0</ele><time>2026-05-04T09:39:45Z</time></trkpt><trkpt lat="43.61856016281278" lon="10.861767823591551"><ele>58.66666666666667</ele><time>2026-05-04T09:39:46Z</time></trkpt><trkpt lat="43.618482722813404" lon="10.861948413377103"><ele>60.333333333333336</ele><time>2026-05-04T09:39:47Z</time></trkpt><trkpt lat="43.61841733785734" lon="10.86213320266642"><ele>62.0</ele><time>2026-05-04T09:39:48Z</time></trkpt><trkpt lat="43.61834484635534" lon="10.862332035653088"><ele>62.0</ele><time>2026-05-04T09:39:49Z</time></trkpt><trkpt lat="43.618272684557596" lon="10.862526128674276"><ele>62.0</ele><time>2026-05-04T09:39:50Z</time></trkpt><trkpt lat="43.6182010070585" lon="10.862707533797604"><ele>62.0</ele><time>2026-05-04T09:39:51Z</time></trkpt><trkpt lat="43.61811415428118" lon="10.86289305201342"><ele>61.5</ele><time>2026-05-04T09:39:52Z</time></trkpt><trkpt lat="43.61803881401735" lon="10.863064113626653"><ele>61.0</ele><time>2026-05-04T09:39:53Z</time></trkpt><trkpt lat="43.617979211391564" lon="10.863210613632436"><ele>60.5</ele><time>2026-05-04T09:39:54Z</time></trkpt><trkpt lat="43.61792290464304" lon="10.863329909140543"><ele>60.0</ele><time>2026-05-04T09:39:55Z</time></trkpt><trkpt lat="43.61787254820132" lon="10.863432094403597"><ele>60.666666666666664</ele><time>2026-05-04T09:39:56Z</time></trkpt><trkpt lat="43.61781738645044" lon="10.86351501038069"><ele>61.33333333333333</ele><time>2026-05-04T09:39:57Z</time></trkpt><trkpt lat="43.617756254797804" lon="10.863572622761975"><ele>62.0</ele><time>2026-05-04T09:39:58Z</time></trkpt><trkpt lat="43.617703459341975" lon="10.86363738934918"><ele>62.666666666666664</ele><time>2026-05-04T09:39:59Z</time></trkpt><trkpt lat="43.617657315434315" lon="10.863722094307015"><ele>63.33333333333333</ele><time>2026-05-04T09:40:00Z</time></trkpt><trkpt lat="43.61762595509661" lon="10.86384832156405"><ele>64.0</ele><time>2026-05-04T09:40:01Z</time></trkpt><trkpt lat="43.61759508306113" lon="10.864007043530645"><ele>64.0</ele><time>2026-05-04T09:40:02Z</time></trkpt><trkpt lat="43.61756068807959" lon="10.864183053549542"><ele>64.0</ele><time>2026-05-04T09:40:03Z</time></trkpt><trkpt lat="43.61751730079586" lon="10.86436372748303"><ele>64.0</ele><time>2026-05-04T09:40:04Z</time></trkpt><trkpt lat="43.61747004538783" lon="10.864561671608213"><ele>64.0</ele><time>2026-05-04T09:40:05Z</time></trkpt><trkpt lat="43.617425322924795" lon="10.864785768679523"><ele>62.666666666666664</ele><time>2026-05-04T09:40:06Z</time></trkpt><trkpt lat="43.61738256604464" lon="10.86500555510022"><ele>61.33333333333333</ele><time>2026-05-04T09:40:07Z</time></trkpt><trkpt lat="43.617344431720824" lon="10.865208874394252"><ele>60.0</ele><time>2026-05-04T09:40:08Z</time></trkpt><trkpt lat="43.61730733078349" lon="10.865389414462896"><ele>59.8</ele><time>2026-05-04T09:40:09Z</time></trkpt><trkpt lat="43.617271693685076" lon="10.865545717166132"><ele>59.6</ele><time>2026-05-04T09:40:10Z</time></trkpt><trkpt lat="43.61723735510473" lon="10.865683682947367"><ele>59.400000000000006</ele><time>2026-05-04T09:40:11Z</time></trkpt><trkpt lat="43.6171997436761" lon="10.865781930735166"><ele>59.2</ele><time>2026-05-04T09:40:12Z</time></trkpt><trkpt lat="43.61714603454216" lon="10.865871666678089"><ele>59.0</ele><time>2026-05-04T09:40:13Z</time></trkpt><trkpt lat="43.6170643482233" lon="10.865989940113153"><ele>59.6</ele><time>2026-05-04T09:40:14Z</time></trkpt><trkpt lat="43.61697630263243" lon="10.866130097611585"><ele>60.2</ele><time>2026-05-04T09:40:15Z</time></trkpt><trkpt lat="43.61690301531956" lon="10.866262169557066"><ele>60.800000000000004</ele><time>2026-05-04T09:40:16Z</time></trkpt><trkpt lat="43.616852150263504" lon="10.866359189222152"><ele>61.400000000000006</ele><time>2026-05-04T09:40:17Z</time></trkpt><trkpt lat="43.616806162079115" lon="10.866441504776434"><ele>62.0</ele><time>2026-05-04T09:40:18Z</time></trkpt><trkpt lat="43.61678346990004" lon="10.866525787274533"><ele>62.0</ele><time>2026-05-04T09:40:19Z</time></trkpt><trkpt lat="43.61680021973644" lon="10.866681608163967"><ele>62.0</ele><time>2026-05-04T09:40:21Z</time></trkpt><trkpt lat="43.61684235866501" lon="10.866747657697543"><ele>62.0</ele><time>2026-05-04T09:40:22Z</time></trkpt><trkpt lat="43.61691168483278" lon="10.866830196480569"><ele>62.0</ele><time>2026-05-04T09:40:23Z</time></trkpt><trkpt lat="43.616990959496924" lon="10.866911184068956"><ele>62.0</ele><time>2026-05-04T09:40:24Z</time></trkpt><trkpt lat="43.61707897093608" lon="10.866982115710686"><ele>61.00000000000001</ele><time>2026-05-04T09:40:25Z</time></trkpt><trkpt lat="43.617170551519116" lon="10.867059814328263"><ele>60.0</ele><time>2026-05-04T09:40:26Z</time></trkpt><trkpt lat="43.61723690177834" lon="10.867130272624632"><ele>59.0</ele><time>2026-05-04T09:40:27Z</time></trkpt><trkpt lat="43.61729438898281" lon="10.86720017134594"><ele>58.0</ele><time>2026-05-04T09:40:28Z</time></trkpt><trkpt lat="43.61734237289397" lon="10.867302557372106"><ele>57.00000000000001</ele><time>2026-05-04T09:40:30Z</time></trkpt><trkpt lat="43.617330157810635" lon="10.867424171716683"><ele>56.0</ele><time>2026-05-04T09:40:32Z</time></trkpt><trkpt lat="43.61729057127812" lon="10.867521798283486"><ele>56.25</ele><time>2026-05-04T09:40:33Z</time></trkpt><trkpt lat="43.61722621163801" lon="10.867669334633021"><ele>56.5</ele><time>2026-05-04T09:40:34Z</time></trkpt><trkpt lat="43.61717033242764" lon="10.86785559435822"><ele>56.75</ele><time>2026-05-04T09:40:35Z</time></trkpt><trkpt lat="43.61712249551161" lon="10.868071748587878"><ele>57.0</ele><time>2026-05-04T09:40:36Z</time></trkpt><trkpt lat="43.6170861182297" lon="10.86823585432724"><ele>57.0</ele><time>2026-05-04T09:40:37Z</time></trkpt><trkpt lat="43.61705499292452" lon="10.86835858069309"><ele>57.0</ele><time>2026-05-04T09:40:38Z</time></trkpt><trkpt lat="43.616952107014015" lon="10.868500401804344"><ele>57.0</ele><time>2026-05-04T09:40:40Z</time></trkpt><trkpt lat="43.61685555656916" lon="10.86858012663787"><ele>57.0</ele><time>2026-05-04T09:40:41Z</time></trkpt><trkpt lat="43.61673406748138" lon="10.868656181963408"><ele>57.0</ele><time>2026-05-04T09:40:42Z</time></trkpt><trkpt lat="43.61659458515397" lon="10.868759075494898"><ele>57.0</ele><time>2026-05-04T09:40:43Z</time></trkpt><trkpt lat="43.61644832634704" lon="10.868870010030976"><ele>57.0</ele><time>2026-05-04T09:40:44Z</time></trkpt><trkpt lat="43.61627453467299" lon="10.869008852086122"><ele>57.0</ele><time>2026-05-04T09:40:45Z</time></trkpt><trkpt lat="43.616073234354175" lon="10.869170325849613"><ele>57.0</ele><time>2026-05-04T09:40:46Z</time></trkpt><trkpt lat="43.61586471675288" lon="10.869336126047228"><ele>57.0</ele><time>2026-05-04T09:40:47Z</time></trkpt><trkpt lat="43.6156788658798" lon="10.869484721165266"><ele>57.0</ele><time>2026-05-04T09:40:48Z</time></trkpt><trkpt lat="43.615485705186664" lon="10.869636791764709"><ele>57.0</ele><time>2026-05-04T09:40:49Z</time></trkpt><trkpt lat="43.61530262985559" lon="10.869780219143623"><ele>57.0</ele><time>2026-05-04T09:40:50Z</time></trkpt><trkpt lat="43.61514241963565" lon="10.86990586535642"><ele>57.0</ele><time>2026-05-04T09:40:51Z</time></trkpt><trkpt lat="43.61497975046933" lon="10.870032744224126"><ele>57.0</ele><time>2026-05-04T09:40:52Z</time></trkpt><trkpt lat="43.61480388684859" lon="10.870172730417607"><ele>57.0</ele><time>2026-05-04T09:40:53Z</time></trkpt><trkpt lat="43.61462614861382" lon="10.870288115452123"><ele>57.0</ele><time>2026-05-04T09:40:54Z</time></trkpt><trkpt lat="43.61446458608903" lon="10.870444126579645"><ele>57.0</ele><time>2026-05-04T09:40:55Z</time></trkpt><trkpt lat="43.61432067127387" lon="10.870563208900649"><ele>58.66666666666667</ele><time>2026-05-04T09:40:56Z</time></trkpt><trkpt lat="43.614171178645876" lon="10.870658382636465"><ele>60.333333333333336</ele><time>2026-05-04T09:40:57Z</time></trkpt><trkpt lat="43.61404370555289" lon="10.870760482403112"><ele>62.0</ele><time>2026-05-04T09:40:58Z</time></trkpt><trkpt lat="43.61391246161246" lon="10.870864309511841"><ele>61.5</ele><time>2026-05-04T09:40:59Z</time></trkpt><trkpt lat="43.61378057969119" lon="10.870966076652259"><ele>61.0</ele><time>2026-05-04T09:41:00Z</time></trkpt><trkpt lat="43.613668999750686" lon="10.87104849764886"><ele>60.5</ele><time>2026-05-04T09:41:01Z</time></trkpt><trkpt lat="43.61358590584901" lon="10.871133361917314"><ele>60.0</ele><time>2026-05-04T09:41:02Z</time></trkpt><trkpt lat="43.61350929195279" lon="10.871175028564783"><ele>60.8</ele><time>2026-05-04T09:41:03Z</time></trkpt><trkpt lat="43.613443627966454" lon="10.87122335122275"><ele>61.6</ele><time>2026-05-04T09:41:04Z</time></trkpt><trkpt lat="43.613357726875975" lon="10.87127151251965"><ele>62.400000000000006</ele><time>2026-05-04T09:41:06Z</time></trkpt><trkpt lat="43.61339522053699" lon="10.871442295010542"><ele>63.2</ele><time>2026-05-04T09:41:07Z</time></trkpt><trkpt lat="43.61339768100388" lon="10.871578410169358"><ele>64.0</ele><time>2026-05-04T09:41:08Z</time></trkpt><trkpt lat="43.61343255480912" lon="10.871769534167239"><ele>64.0</ele><time>2026-05-04T09:41:09Z</time></trkpt><trkpt lat="43.61344362309724" lon="10.871990403469164"><ele>64.0</ele><time>2026-05-04T09:41:10Z</time></trkpt><trkpt lat="43.61345638325301" lon="10.872172264666583"><ele>64.0</ele><time>2026-05-04T09:41:11Z</time></trkpt><trkpt lat="43.61345849880834" lon="10.87230688842004"><ele>64.0</ele><time>2026-05-04T09:41:12Z</time></trkpt><trkpt lat="43.61346295406956" lon="10.8724113969171"><ele>64.0</ele><time>2026-05-04T09:41:13Z</time></trkpt><trkpt lat="43.613474807533365" lon="10.872514201028288"><ele>64.0</ele><time>2026-05-04T09:41:14Z</time></trkpt><trkpt lat="43.61351047744497" lon="10.872640483835603"><ele>64.0</ele><time>2026-05-04T09:41:15Z</time></trkpt><trkpt lat="43.61356463060585" lon="10.872778591687055"><ele>64.0</ele><time>2026-05-04T09:41:16Z</time></trkpt><trkpt lat="43.61360596694408" lon="10.87289100739742"><ele>64.0</ele><time>2026-05-04T09:41:17Z</time></trkpt><trkpt lat="43.61365691588878" lon="10.873068921645991"><ele>62.0</ele><time>2026-05-04T09:41:19Z</time></trkpt><trkpt lat="43.61370187764532" lon="10.873204772477747"><ele>60.0</ele><time>2026-05-04T09:41:20Z</time></trkpt><trkpt lat="43.613762380930176" lon="10.873352615716245"><ele>58.0</ele><time>2026-05-04T09:41:21Z</time></trkpt><trkpt lat="43.613834444483466" lon="10.873512056829403"><ele>56.0</ele><time>2026-05-04T09:41:22Z</time></trkpt><trkpt lat="43.61391208042284" lon="10.87367976260805"><ele>56.0</ele><time>2026-05-04T09:41:23Z</time></trkpt><trkpt lat="43.613998783909075" lon="10.873861532422493"><ele>56.0</ele><time>2026-05-04T09:41:24Z</time></trkpt><trkpt lat="43.614091541416876" lon="10.874034404414243"><ele>56.0</ele><time>2026-05-04T09:41:25Z</time></trkpt><trkpt lat="43.6141864596812" lon="10.87423825254317"><ele>58.0</ele><time>2026-05-04T09:41:26Z</time></trkpt><trkpt lat="43.61429436054394" lon="10.874438167174088"><ele>60.0</ele><time>2026-05-04T09:41:27Z</time></trkpt><trkpt lat="43.61441189885452" lon="10.874660352531615"><ele>62.0</ele><time>2026-05-04T09:41:28Z</time></trkpt><trkpt lat="43.61453425286533" lon="10.874892931959234"><ele>62.0</ele><time>2026-05-04T09:41:29Z</time></trkpt><trkpt lat="43.61464182784335" lon="10.875089595872483"><ele>62.0</ele><time>2026-05-04T09:41:30Z</time></trkpt><trkpt lat="43.61473630591727" lon="10.875259611524381"><ele>62.0</ele><time>2026-05-04T09:41:31Z</time></trkpt><trkpt lat="43.61481572373026" lon="10.875398796609094"><ele>62.00000000000001</ele><time>2026-05-04T09:41:32Z</time></trkpt><trkpt lat="43.61488759683933" lon="10.87552787632122"><ele>62.0</ele><time>2026-05-04T09:41:33Z</time></trkpt><trkpt lat="43.61494594064531" lon="10.875630556390817"><ele>62.0</ele><time>2026-05-04T09:41:34Z</time></trkpt><trkpt lat="43.61499614478724" lon="10.875720943352984"><ele>62.0</ele><time>2026-05-04T09:41:35Z</time></trkpt><trkpt lat="43.61503930138212" lon="10.875795983323444"><ele>62.00000000000001</ele><time>2026-05-04T09:41:36Z</time></trkpt><trkpt lat="43.61508215190792" lon="10.875871181748034"><ele>62.0</ele><time>2026-05-04T09:41:37Z</time></trkpt><trkpt lat="43.61514979640723" lon="10.876012866117843"><ele>62.0</ele><time>2026-05-04T09:41:39Z</time></trkpt><trkpt lat="43.61506180525064" lon="10.876142747608974"><ele>62.0</ele><time>2026-05-04T09:41:43Z</time></trkpt><trkpt lat="43.614978177561554" lon="10.876200688574032"><ele>62.0</ele><time>2026-05-04T09:41:44Z</time></trkpt><trkpt lat="43.614877613567636" lon="10.876292235222563"><ele>62.0</ele><time>2026-05-04T09:41:45Z</time></trkpt><trkpt lat="43.6147546986614" lon="10.87638736098162"><ele>62.0</ele><time>2026-05-04T09:41:46Z</time></trkpt><trkpt lat="43.614613524236226" lon="10.87649249491283"><ele>62.0</ele><time>2026-05-04T09:41:47Z</time></trkpt><trkpt lat="43.61445957517647" lon="10.876609314012283"><ele>62.0</ele><time>2026-05-04T09:41:48Z</time></trkpt><trkpt lat="43.614283260691664" lon="10.876740100809329"><ele>61.66666666666667</ele><time>2026-05-04T09:41:49Z</time></trkpt><trkpt lat="43.614111975271506" lon="10.876869236648457"><ele>61.33333333333333</ele><time>2026-05-04T09:41:50Z</time></trkpt><trkpt lat="43.61392807589659" lon="10.876999628817897"><ele>61.0</ele><time>2026-05-04T09:41:51Z</time></trkpt><trkpt lat="43.6137384484463" lon="10.877138541891348"><ele>61.5</ele><time>2026-05-04T09:41:52Z</time></trkpt><trkpt lat="43.61353335079939" lon="10.8772619192572"><ele>62.0</ele><time>2026-05-04T09:41:53Z</time></trkpt><trkpt lat="43.613331734725" lon="10.877412438862796"><ele>62.0</ele><time>2026-05-04T09:41:54Z</time></trkpt><trkpt lat="43.61312832693034" lon="10.877567320814439"><ele>62.0</ele><time>2026-05-04T09:41:55Z</time></trkpt><trkpt lat="43.6129230881182" lon="10.877721566115138"><ele>61.0</ele><time>2026-05-04T09:41:56Z</time></trkpt><trkpt lat="43.61271275560265" lon="10.877877773959433"><ele>60.0</ele><time>2026-05-04T09:41:57Z</time></trkpt><trkpt lat="43.61249761621835" lon="10.878031498336178"><ele>60.0</ele><time>2026-05-04T09:41:58Z</time></trkpt><trkpt lat="43.61227933994817" lon="10.878182163074133"><ele>60.0</ele><time>2026-05-04T09:41:59Z</time></trkpt><trkpt lat="43.61207075328002" lon="10.878341681021356"><ele>60.5</ele><time>2026-05-04T09:42:00Z</time></trkpt><trkpt lat="43.611842936530024" lon="10.878476914343366"><ele>61.0</ele><time>2026-05-04T09:42:01Z</time></trkpt><trkpt lat="43.611626244132445" lon="10.878604082967042"><ele>61.0</ele><time>2026-05-04T09:42:02Z</time></trkpt><trkpt lat="43.61140353135861" lon="10.87870626104962"><ele>61.0</ele><time>2026-05-04T09:42:03Z</time></trkpt><trkpt lat="43.611189625602925" lon="10.87882187192562"><ele>61.0</ele><time>2026-05-04T09:42:04Z</time></trkpt><trkpt lat="43.61098614206091" lon="10.878927258150854"><ele>61.0</ele><time>2026-05-04T09:42:05Z</time></trkpt><trkpt lat="43.61078133215825" lon="10.879045697310952"><ele>61.0</ele><time>2026-05-04T09:42:06Z</time></trkpt><trkpt lat="43.610586118463615" lon="10.879174580930892"><ele>65.66666666666666</ele><time>2026-05-04T09:42:07Z</time></trkpt><trkpt lat="43.61040842267494" lon="10.879350361312563"><ele>70.33333333333333</ele><time>2026-05-04T09:42:08Z</time></trkpt><trkpt lat="43.61020466155936" lon="10.87946247560989"><ele>75.0</ele><time>2026-05-04T09:42:09Z</time></trkpt><trkpt lat="43.610006410093725" lon="10.879587030436344"><ele>75.66666666666667</ele><time>2026-05-04T09:42:10Z</time></trkpt><trkpt lat="43.609801387215484" lon="10.879706942578505"><ele>76.33333333333334</ele><time>2026-05-04T09:42:11Z</time></trkpt><trkpt lat="43.6095799921084" lon="10.879762749194995"><ele>77.0</ele><time>2026-05-04T09:42:12Z</time></trkpt><trkpt lat="43.60935059693667" lon="10.879781013472991"><ele>72.5</ele><time>2026-05-04T09:42:13Z</time></trkpt><trkpt lat="43.60911685913186" lon="10.879782079359774"><ele>68.0</ele><time>2026-05-04T09:42:14Z</time></trkpt><trkpt lat="43.608885439170706" lon="10.879768936426961"><ele>72.0</ele><time>2026-05-04T09:42:15Z</time></trkpt><trkpt lat="43.60865065129262" lon="10.879736400200539"><ele>76.0</ele><time>2026-05-04T09:42:16Z</time></trkpt><trkpt lat="43.60841841909846" lon="10.879698255015537"><ele>76.0</ele><time>2026-05-04T09:42:17Z</time></trkpt><trkpt lat="43.6081840386006" lon="10.879655054852316"><ele>76.0</ele><time>2026-05-04T09:42:18Z</time></trkpt><trkpt lat="43.60795554275186" lon="10.87958326935392"><ele>71.5</ele><time>2026-05-04T09:42:19Z</time></trkpt><trkpt lat="43.60772278808052" lon="10.879536423724309"><ele>67.0</ele><time>2026-05-04T09:42:20Z</time></trkpt><trkpt lat="43.607504453633396" lon="10.879435128265786"><ele>67.0</ele><time>2026-05-04T09:42:21Z</time></trkpt><trkpt lat="43.60729712057312" lon="10.879292686041131"><ele>67.0</ele><time>2026-05-04T09:42:22Z</time></trkpt><trkpt lat="43.607100165901514" lon="10.879122345334007"><ele>66.0</ele><time>2026-05-04T09:42:23Z</time></trkpt><trkpt lat="43.60690075432057" lon="10.878953690820595"><ele>65.0</ele><time>2026-05-04T09:42:24Z</time></trkpt><trkpt lat="43.60669024156719" lon="10.878781819466777"><ele>65.0</ele><time>2026-05-04T09:42:25Z</time></trkpt><trkpt lat="43.60646874664381" lon="10.878598329627515"><ele>65.0</ele><time>2026-05-04T09:42:26Z</time></trkpt><trkpt lat="43.60624238543151" lon="10.878413468547707"><ele>67.0</ele><time>2026-05-04T09:42:27Z</time></trkpt><trkpt lat="43.606023609960175" lon="10.878240631466957"><ele>69.0</ele><time>2026-05-04T09:42:28Z</time></trkpt><trkpt lat="43.60582318753525" lon="10.878074128062707"><ele>69.0</ele><time>2026-05-04T09:42:29Z</time></trkpt><trkpt lat="43.60563867776304" lon="10.877921273809028"><ele>69.0</ele><time>2026-05-04T09:42:30Z</time></trkpt><trkpt lat="43.6054684989942" lon="10.877789363045649"><ele>69.0</ele><time>2026-05-04T09:42:31Z</time></trkpt><trkpt lat="43.605292539719485" lon="10.877658653236223"><ele>69.33333333333333</ele><time>2026-05-04T09:42:32Z</time></trkpt><trkpt lat="43.60509859526473" lon="10.87756928899726"><ele>69.66666666666666</ele><time>2026-05-04T09:42:33Z</time></trkpt><trkpt lat="43.604906714896785" lon="10.877480874042035"><ele>70.0</ele><time>2026-05-04T09:42:34Z</time></trkpt><trkpt lat="43.604670490840086" lon="10.877616956214986"><ele>69.66666666666666</ele><time>2026-05-04T09:42:35Z</time></trkpt><trkpt lat="43.60446079903404" lon="10.877694057567808"><ele>69.33333333333333</ele><time>2026-05-04T09:42:36.001Z</time></trkpt><trkpt lat="43.60424017735395" lon="10.877782165894452"><ele>69.0</ele><time>2026-05-04T09:42:37.001Z</time></trkpt><trkpt lat="43.60401450183146" lon="10.877862532077371"><ele>69.0</ele><time>2026-05-04T09:42:38.001Z</time></trkpt><trkpt lat="43.603785072172776" lon="10.87794189711865"><ele>69.0</ele><time>2026-05-04T09:42:39.001Z</time></trkpt><trkpt lat="43.6035519188017" lon="10.877996874242744"><ele>67.5</ele><time>2026-05-04T09:42:40.001Z</time></trkpt><trkpt lat="43.60331150919336" lon="10.87801962915525"><ele>66.0</ele><time>2026-05-04T09:42:41.001Z</time></trkpt><trkpt lat="43.60306496328525" lon="10.87801475841855"><ele>67.0</ele><time>2026-05-04T09:42:42.001Z</time></trkpt><trkpt lat="43.60282122252572" lon="10.877988274369613"><ele>68.0</ele><time>2026-05-04T09:42:43.001Z</time></trkpt><trkpt lat="43.60256857765377" lon="10.877962899938195"><ele>68.0</ele><time>2026-05-04T09:42:44.001Z</time></trkpt><trkpt lat="43.60231171464943" lon="10.877945029267098"><ele>68.0</ele><time>2026-05-04T09:42:45.001Z</time></trkpt><trkpt lat="43.602054055430656" lon="10.8779274647905"><ele>68.0</ele><time>2026-05-04T09:42:46.001Z</time></trkpt><trkpt lat="43.60179627603211" lon="10.877907652779061"><ele>68.0</ele><time>2026-05-04T09:42:47.001Z</time></trkpt><trkpt lat="43.601538834198294" lon="10.877887000904925"><ele>68.0</ele><time>2026-05-04T09:42:48.001Z</time></trkpt><trkpt lat="43.60127676793758" lon="10.877866886137802"><ele>68.0</ele><time>2026-05-04T09:42:49.001Z</time></trkpt><trkpt lat="43.60101245494006" lon="10.877855520660384"><ele>69.0</ele><time>2026-05-04T09:42:50.001Z</time></trkpt><trkpt lat="43.60074917061014" lon="10.877861218392352"><ele>70.0</ele><time>2026-05-04T09:42:51.001Z</time></trkpt><trkpt lat="43.60048817846883" lon="10.877891870689357"><ele>70.5</ele><time>2026-05-04T09:42:52.001Z</time></trkpt><trkpt lat="43.600232841123336" lon="10.87795819883386"><ele>71.0</ele><time>2026-05-04T09:42:53.001Z</time></trkpt><trkpt lat="43.599991247619805" lon="10.878052050306993"><ele>71.0</ele><time>2026-05-04T09:42:54.001Z</time></trkpt><trkpt lat="43.599749142057775" lon="10.878158989021117"><ele>71.0</ele><time>2026-05-04T09:42:55.001Z</time></trkpt><trkpt lat="43.59949953768135" lon="10.878278253595628"><ele>71.0</ele><time>2026-05-04T09:42:56.001Z</time></trkpt><trkpt lat="43.599256193263805" lon="10.87839029784751"><ele>71.0</ele><time>2026-05-04T09:42:57.001Z</time></trkpt><trkpt lat="43.59903852199843" lon="10.87849182474427"><ele>70.33333333333334</ele><time>2026-05-04T09:42:58.001Z</time></trkpt><trkpt lat="43.59883139820046" lon="10.878576490531795"><ele>69.66666666666667</ele><time>2026-05-04T09:42:59Z</time></trkpt><trkpt lat="43.59861605769197" lon="10.878619921395972"><ele>69.0</ele><time>2026-05-04T09:43:00Z</time></trkpt><trkpt lat="43.598393600920915" lon="10.87862105246928"><ele>69.0</ele><time>2026-05-04T09:43:01Z</time></trkpt><trkpt lat="43.59818120774275" lon="10.87858334411774"><ele>69.0</ele><time>2026-05-04T09:43:02Z</time></trkpt><trkpt lat="43.5979655613641" lon="10.878498141187347"><ele>69.0</ele><time>2026-05-04T09:43:03Z</time></trkpt><trkpt lat="43.59776334321886" lon="10.878373441717192"><ele>70.66666666666667</ele><time>2026-05-04T09:43:04Z</time></trkpt><trkpt lat="43.59755643497329" lon="10.878247446871777"><ele>72.33333333333334</ele><time>2026-05-04T09:43:05Z</time></trkpt><trkpt lat="43.597408037304405" lon="10.878129622864188"><ele>74.0</ele><time>2026-05-04T09:43:06Z</time></trkpt><trkpt lat="43.597223742294524" lon="10.877952977355385"><ele>74.0</ele><time>2026-05-04T09:43:07Z</time></trkpt><trkpt lat="43.59704987740643" lon="10.877755775054807"><ele>74.0</ele><time>2026-05-04T09:43:08Z</time></trkpt><trkpt lat="43.59688570313159" lon="10.877533964286567"><ele>75.33333333333334</ele><time>2026-05-04T09:43:09Z</time></trkpt><trkpt lat="43.59671743240296" lon="10.87731580553158"><ele>76.66666666666667</ele><time>2026-05-04T09:43:10Z</time></trkpt><trkpt lat="43.59656021501044" lon="10.87711237967456"><ele>78.0</ele><time>2026-05-04T09:43:11Z</time></trkpt><trkpt lat="43.59642667380327" lon="10.876933275084328"><ele>79.33333333333333</ele><time>2026-05-04T09:43:12Z</time></trkpt><trkpt lat="43.59627952594885" lon="10.876746895325017"><ele>80.66666666666666</ele><time>2026-05-04T09:43:13Z</time></trkpt><trkpt lat="43.596098385803344" lon="10.87656735229861"><ele>82.0</ele><time>2026-05-04T09:43:14Z</time></trkpt><trkpt lat="43.59589257187133" lon="10.876377271279244"><ele>77.5</ele><time>2026-05-04T09:43:15Z</time></trkpt><trkpt lat="43.59568220260111" lon="10.876187144099994"><ele>73.0</ele><time>2026-05-04T09:43:16Z</time></trkpt><trkpt lat="43.59548170155239" lon="10.875999858498945"><ele>73.33333333333333</ele><time>2026-05-04T09:43:17Z</time></trkpt><trkpt lat="43.59530332182791" lon="10.875830023597793"><ele>73.66666666666667</ele><time>2026-05-04T09:43:18Z</time></trkpt><trkpt lat="43.59513631883489" lon="10.875672160038242"><ele>74.0</ele><time>2026-05-04T09:43:19Z</time></trkpt><trkpt lat="43.594968349659666" lon="10.87552935404163"><ele>74.0</ele><time>2026-05-04T09:43:20Z</time></trkpt><trkpt lat="43.5947931570157" lon="10.875415787437975"><ele>74.0</ele><time>2026-05-04T09:43:21Z</time></trkpt><trkpt lat="43.594604787861975" lon="10.875333996864867"><ele>74.0</ele><time>2026-05-04T09:43:22Z</time></trkpt><trkpt lat="43.59440974046354" lon="10.875256012943908"><ele>75.0</ele><time>2026-05-04T09:43:23Z</time></trkpt><trkpt lat="43.594204796210065" lon="10.875180172582374"><ele>76.0</ele><time>2026-05-04T09:43:24Z</time></trkpt><trkpt lat="43.593993534419866" lon="10.875100139256741"><ele>77.0</ele><time>2026-05-04T09:43:25Z</time></trkpt><trkpt lat="43.59377499361494" lon="10.875020575285234"><ele>76.5</ele><time>2026-05-04T09:43:26Z</time></trkpt><trkpt lat="43.593553629214775" lon="10.874929241478053"><ele>76.0</ele><time>2026-05-04T09:43:27Z</time></trkpt><trkpt lat="43.59332177780531" lon="10.874833912041064"><ele>76.0</ele><time>2026-05-04T09:43:28Z</time></trkpt><trkpt lat="43.59309144577426" lon="10.874738090937106"><ele>76.0</ele><time>2026-05-04T09:43:29Z</time></trkpt><trkpt lat="43.592855918097605" lon="10.87464316037759"><ele>77.0</ele><time>2026-05-04T09:43:30Z</time></trkpt><trkpt lat="43.59262559369649" lon="10.874554460842537"><ele>78.0</ele><time>2026-05-04T09:43:31Z</time></trkpt><trkpt lat="43.59239078173918" lon="10.874453823661332"><ele>78.0</ele><time>2026-05-04T09:43:32Z</time></trkpt><trkpt lat="43.592164142833276" lon="10.874355138170523"><ele>78.0</ele><time>2026-05-04T09:43:33Z</time></trkpt><trkpt lat="43.59193824482099" lon="10.87425771232047"><ele>78.0</ele><time>2026-05-04T09:43:34Z</time></trkpt><trkpt lat="43.5917091419895" lon="10.874158703903019"><ele>78.0</ele><time>2026-05-04T09:43:35Z</time></trkpt><trkpt lat="43.59148267145856" lon="10.874058955525093"><ele>78.0</ele><time>2026-05-04T09:43:36Z</time></trkpt><trkpt lat="43.591262150547884" lon="10.873965669982077"><ele>78.0</ele><time>2026-05-04T09:43:37Z</time></trkpt><trkpt lat="43.59104429059476" lon="10.873872629201319"><ele>79.0</ele><time>2026-05-04T09:43:38Z</time></trkpt><trkpt lat="43.59083456052141" lon="10.873789890339"><ele>80.0</ele><time>2026-05-04T09:43:39Z</time></trkpt><trkpt lat="43.59062872361634" lon="10.873700563961107"><ele>81.0</ele><time>2026-05-04T09:43:40Z</time></trkpt><trkpt lat="43.59042560267577" lon="10.873609248163751"><ele>81.0</ele><time>2026-05-04T09:43:41Z</time></trkpt><trkpt lat="43.590219839505615" lon="10.873520845290606"><ele>81.0</ele><time>2026-05-04T09:43:42Z</time></trkpt><trkpt lat="43.590008494431466" lon="10.873435039717835"><ele>81.0</ele><time>2026-05-04T09:43:43Z</time></trkpt><trkpt lat="43.58979775202501" lon="10.873360309520077"><ele>82.33333333333333</ele><time>2026-05-04T09:43:44Z</time></trkpt><trkpt lat="43.58958944146994" lon="10.873305363117375"><ele>83.66666666666666</ele><time>2026-05-04T09:43:45Z</time></trkpt><trkpt lat="43.5893724687898" lon="10.87327787740505"><ele>85.0</ele><time>2026-05-04T09:43:46Z</time></trkpt><trkpt lat="43.589164955486716" lon="10.873262425907544"><ele>85.33333333333333</ele><time>2026-05-04T09:43:47Z</time></trkpt><trkpt lat="43.58897096125653" lon="10.873225715724585"><ele>85.66666666666667</ele><time>2026-05-04T09:43:48Z</time></trkpt><trkpt lat="43.58879885889104" lon="10.873157982150467"><ele>86.0</ele><time>2026-05-04T09:43:49Z</time></trkpt><trkpt lat="43.5886486935054" lon="10.873071898746607"><ele>86.0</ele><time>2026-05-04T09:43:50Z</time></trkpt><trkpt lat="43.58851025456938" lon="10.872996911087316"><ele>86.0</ele><time>2026-05-04T09:43:51Z</time></trkpt><trkpt lat="43.588370720722075" lon="10.87295315967295"><ele>86.0</ele><time>2026-05-04T09:43:52Z</time></trkpt><trkpt lat="43.58823001237628" lon="10.872935033237548"><ele>86.0</ele><time>2026-05-04T09:43:53Z</time></trkpt><trkpt lat="43.58808549439058" lon="10.872946897896341"><ele>86.0</ele><time>2026-05-04T09:43:54Z</time></trkpt><trkpt lat="43.58792846406722" lon="10.8729782875542"><ele>86.0</ele><time>2026-05-04T09:43:55Z</time></trkpt><trkpt lat="43.58775753146762" lon="10.873020821389037"><ele>86.0</ele><time>2026-05-04T09:43:56Z</time></trkpt><trkpt lat="43.58757965136937" lon="10.873077769093102"><ele>86.0</ele><time>2026-05-04T09:43:57Z</time></trkpt><trkpt lat="43.58739342189003" lon="10.87314265241588"><ele>86.0</ele><time>2026-05-04T09:43:58Z</time></trkpt><trkpt lat="43.587198980246384" lon="10.873218945660211"><ele>86.0</ele><time>2026-05-04T09:43:59Z</time></trkpt><trkpt lat="43.587014903965965" lon="10.873311256571187"><ele>87.0</ele><time>2026-05-04T09:44:00Z</time></trkpt><trkpt lat="43.58682986453728" lon="10.87342282262006"><ele>88.0</ele><time>2026-05-04T09:44:01Z</time></trkpt><trkpt lat="43.586647751693356" lon="10.873546759955213"><ele>89.0</ele><time>2026-05-04T09:44:02Z</time></trkpt><trkpt lat="43.586454393360036" lon="10.873686344451805"><ele>89.0</ele><time>2026-05-04T09:44:03Z</time></trkpt><trkpt lat="43.58625805503516" lon="10.87382776377866"><ele>89.0</ele><time>2026-05-04T09:44:04Z</time></trkpt><trkpt lat="43.58605461605581" lon="10.873971727909556"><ele>91.5</ele><time>2026-05-04T09:44:05Z</time></trkpt><trkpt lat="43.5858445473654" lon="10.874120860586185"><ele>94.0</ele><time>2026-05-04T09:44:06Z</time></trkpt><trkpt lat="43.58562760326592" lon="10.87426818342094"><ele>94.0</ele><time>2026-05-04T09:44:07Z</time></trkpt><trkpt lat="43.58542289422222" lon="10.874410875948774"><ele>94.0</ele><time>2026-05-04T09:44:08Z</time></trkpt><trkpt lat="43.58521001411393" lon="10.87455377240798"><ele>94.0</ele><time>2026-05-04T09:44:09Z</time></trkpt><trkpt lat="43.58502037478034" lon="10.874689744724103"><ele>94.0</ele><time>2026-05-04T09:44:10Z</time></trkpt><trkpt lat="43.5848537442688" lon="10.874830694720819"><ele>94.0</ele><time>2026-05-04T09:44:11Z</time></trkpt><trkpt lat="43.584720703754314" lon="10.874987218659353"><ele>94.33333333333333</ele><time>2026-05-04T09:44:12Z</time></trkpt><trkpt lat="43.5846037626575" lon="10.875174140155288"><ele>94.66666666666667</ele><time>2026-05-04T09:44:13Z</time></trkpt><trkpt lat="43.58450760731407" lon="10.875392364453708"><ele>95.0</ele><time>2026-05-04T09:44:14Z</time></trkpt><trkpt lat="43.58442739231129" lon="10.8756344865152"><ele>95.0</ele><time>2026-05-04T09:44:15Z</time></trkpt><trkpt lat="43.58433836271349" lon="10.875855532029771"><ele>95.0</ele><time>2026-05-04T09:44:16Z</time></trkpt><trkpt lat="43.58420718913766" lon="10.876054866524733"><ele>95.0</ele><time>2026-05-04T09:44:17Z</time></trkpt><trkpt lat="43.58404384262953" lon="10.876209168668218"><ele>95.0</ele><time>2026-05-04T09:44:18Z</time></trkpt><trkpt lat="43.583863021179695" lon="10.87632652146983"><ele>95.0</ele><time>2026-05-04T09:44:19Z</time></trkpt><trkpt lat="43.58369794137449" lon="10.876391151643654"><ele>95.0</ele><time>2026-05-04T09:44:20Z</time></trkpt><trkpt lat="43.583565231724734" lon="10.87644902127092"><ele>95.0</ele><time>2026-05-04T09:44:21Z</time></trkpt><trkpt lat="43.58346541490715" lon="10.876508024725606"><ele>95.0</ele><time>2026-05-04T09:44:22Z</time></trkpt><trkpt lat="43.583385756053566" lon="10.876573484265377"><ele>95.0</ele><time>2026-05-04T09:44:23Z</time></trkpt><trkpt lat="43.583338450027505" lon="10.876650152842494"><ele>95.0</ele><time>2026-05-04T09:44:24Z</time></trkpt><trkpt lat="43.58332125715623" lon="10.876755520069356"><ele>95.0</ele><time>2026-05-04T09:44:25Z</time></trkpt><trkpt lat="43.583331475464874" lon="10.876895377813925"><ele>94.25</ele><time>2026-05-04T09:44:26Z</time></trkpt><trkpt lat="43.58334933114185" lon="10.877046241051675"><ele>93.5</ele><time>2026-05-04T09:44:27Z</time></trkpt><trkpt lat="43.583358962761494" lon="10.87720860170434"><ele>92.75</ele><time>2026-05-04T09:44:28Z</time></trkpt><trkpt lat="43.58336388187732" lon="10.877382988316684"><ele>92.0</ele><time>2026-05-04T09:44:29Z</time></trkpt><trkpt lat="43.58338394027985" lon="10.877573214203252"><ele>92.66666666666667</ele><time>2026-05-04T09:44:30Z</time></trkpt><trkpt lat="43.583436149192835" lon="10.87777048630325"><ele>93.33333333333333</ele><time>2026-05-04T09:44:31Z</time></trkpt><trkpt lat="43.58351295844212" lon="10.877982541257083"><ele>94.0</ele><time>2026-05-04T09:44:32Z</time></trkpt><trkpt lat="43.58359935792817" lon="10.878191901677452"><ele>94.0</ele><time>2026-05-04T09:44:33Z</time></trkpt><trkpt lat="43.58367189834782" lon="10.87842418267948"><ele>94.0</ele><time>2026-05-04T09:44:34Z</time></trkpt><trkpt lat="43.58370243941197" lon="10.878668734877285"><ele>94.0</ele><time>2026-05-04T09:44:35Z</time></trkpt><trkpt lat="43.58369444497659" lon="10.878916505539594"><ele>95.33333333333333</ele><time>2026-05-04T09:44:36Z</time></trkpt><trkpt lat="43.58364799995303" lon="10.879166011485319"><ele>96.66666666666666</ele><time>2026-05-04T09:44:37Z</time></trkpt><trkpt lat="43.58356473710363" lon="10.879390008073335"><ele>98.0</ele><time>2026-05-04T09:44:38Z</time></trkpt><trkpt lat="43.58344113343309" lon="10.879598456809926"><ele>100.66666666666666</ele><time>2026-05-04T09:44:39Z</time></trkpt><trkpt lat="43.58328816788239" lon="10.879775951416088"><ele>103.33333333333334</ele><time>2026-05-04T09:44:40Z</time></trkpt><trkpt lat="43.58312241664916" lon="10.87994933322341"><ele>106.0</ele><time>2026-05-04T09:44:41Z</time></trkpt><trkpt lat="43.58295737788465" lon="10.880133401579842"><ele>108.0</ele><time>2026-05-04T09:44:42Z</time></trkpt><trkpt lat="43.58280031710505" lon="10.880334461962"><ele>110.0</ele><time>2026-05-04T09:44:43Z</time></trkpt><trkpt lat="43.58262805084353" lon="10.880535338316253"><ele>112.0</ele><time>2026-05-04T09:44:44Z</time></trkpt><trkpt lat="43.58246473040358" lon="10.88073272915691"><ele>112.0</ele><time>2026-05-04T09:44:45Z</time></trkpt><trkpt lat="43.582301667205805" lon="10.880923974694896"><ele>112.0</ele><time>2026-05-04T09:44:46Z</time></trkpt><trkpt lat="43.582139388303105" lon="10.881119147517031"><ele>112.0</ele><time>2026-05-04T09:44:47Z</time></trkpt><trkpt lat="43.58199444635703" lon="10.881325045387731"><ele>112.66666666666667</ele><time>2026-05-04T09:44:48Z</time></trkpt><trkpt lat="43.581869337645465" lon="10.881558982994726"><ele>113.33333333333334</ele><time>2026-05-04T09:44:49Z</time></trkpt><trkpt lat="43.5817693270264" lon="10.881824428943933"><ele>114.0</ele><time>2026-05-04T09:44:50Z</time></trkpt><trkpt lat="43.581678449064405" lon="10.882101629817864"><ele>119.0</ele><time>2026-05-04T09:44:51Z</time></trkpt><trkpt lat="43.581583900790484" lon="10.882384443196019"><ele>124.0</ele><time>2026-05-04T09:44:52Z</time></trkpt><trkpt lat="43.581483710672686" lon="10.882675287884643"><ele>129.0</ele><time>2026-05-04T09:44:53Z</time></trkpt><trkpt lat="43.581382287354394" lon="10.88296180744274"><ele>134.0</ele><time>2026-05-04T09:44:54Z</time></trkpt><trkpt lat="43.58128437294843" lon="10.883235474076468"><ele>136.33333333333331</ele><time>2026-05-04T09:44:55Z</time></trkpt><trkpt lat="43.58120421317937" lon="10.883498748977132"><ele>138.66666666666666</ele><time>2026-05-04T09:44:56Z</time></trkpt><trkpt lat="43.581150702076485" lon="10.883747657415158"><ele>141.0</ele><time>2026-05-04T09:44:57Z</time></trkpt><trkpt lat="43.58112793492038" lon="10.884011517739872"><ele>142.66666666666666</ele><time>2026-05-04T09:44:58Z</time></trkpt><trkpt lat="43.581140528709405" lon="10.884285040691852"><ele>144.33333333333331</ele><time>2026-05-04T09:44:59Z</time></trkpt><trkpt lat="43.581188540201715" lon="10.884561434796865"><ele>146.0</ele><time>2026-05-04T09:45:00Z</time></trkpt><trkpt lat="43.58124774671313" lon="10.884831487893452"><ele>146.66666666666666</ele><time>2026-05-04T09:45:01Z</time></trkpt><trkpt lat="43.58127337948906" lon="10.885078073612434"><ele>147.33333333333334</ele><time>2026-05-04T09:45:02Z</time></trkpt><trkpt lat="43.58125654109122" lon="10.8853316923773"><ele>148.0</ele><time>2026-05-04T09:45:03Z</time></trkpt><trkpt lat="43.58120011195014" lon="10.88557270090721"><ele>149.33333333333334</ele><time>2026-05-04T09:45:04Z</time></trkpt><trkpt lat="43.58110631088324" lon="10.885810176772383"><ele>150.66666666666666</ele><time>2026-05-04T09:45:05Z</time></trkpt><trkpt lat="43.58097836736705" lon="10.88600762108864"><ele>152.0</ele><time>2026-05-04T09:45:06Z</time></trkpt><trkpt lat="43.58083305344318" lon="10.886188609286608"><ele>153.0</ele><time>2026-05-04T09:45:07Z</time></trkpt><trkpt lat="43.580687121642015" lon="10.886374255850875"><ele>154.0</ele><time>2026-05-04T09:45:08Z</time></trkpt><trkpt lat="43.58054709181271" lon="10.88656191636723"><ele>155.0</ele><time>2026-05-04T09:45:09Z</time></trkpt><trkpt lat="43.58042501364825" lon="10.886723029693515"><ele>155.33333333333331</ele><time>2026-05-04T09:45:10Z</time></trkpt><trkpt lat="43.58029592333783" lon="10.886860530213447"><ele>155.66666666666666</ele><time>2026-05-04T09:45:11Z</time></trkpt><trkpt lat="43.58014733569888" lon="10.886975933548252"><ele>156.0</ele><time>2026-05-04T09:45:12Z</time></trkpt><trkpt lat="43.57998267766787" lon="10.88706852936988"><ele>156.0</ele><time>2026-05-04T09:45:13Z</time></trkpt><trkpt lat="43.57981101359111" lon="10.887142861959484"><ele>156.0</ele><time>2026-05-04T09:45:14Z</time></trkpt><trkpt lat="43.57963910725976" lon="10.887218523915834"><ele>156.0</ele><time>2026-05-04T09:45:15Z</time></trkpt><trkpt lat="43.579460754274514" lon="10.88729829960584"><ele>160.0</ele><time>2026-05-04T09:45:16Z</time></trkpt><trkpt lat="43.579281497587935" lon="10.88737431503833"><ele>164.0</ele><time>2026-05-04T09:45:17Z</time></trkpt><trkpt lat="43.5790990312079" lon="10.887451040813497"><ele>168.0</ele><time>2026-05-04T09:45:18Z</time></trkpt><trkpt lat="43.57891636192515" lon="10.88754280293019"><ele>168.66666666666666</ele><time>2026-05-04T09:45:19Z</time></trkpt><trkpt lat="43.57873970301784" lon="10.887661606396684"><ele>169.33333333333331</ele><time>2026-05-04T09:45:20Z</time></trkpt><trkpt lat="43.578575748951145" lon="10.887819037248132"><ele>170.0</ele><time>2026-05-04T09:45:21Z</time></trkpt><trkpt lat="43.578429091003954" lon="10.888011686261251"><ele>171.66666666666666</ele><time>2026-05-04T09:45:22Z</time></trkpt><trkpt lat="43.57828929297318" lon="10.888211558578035"><ele>173.33333333333334</ele><time>2026-05-04T09:45:23Z</time></trkpt><trkpt lat="43.578131556939034" lon="10.888391379086544"><ele>175.0</ele><time>2026-05-04T09:45:24Z</time></trkpt><trkpt lat="43.577948600224964" lon="10.888541505733324"><ele>176.33333333333334</ele><time>2026-05-04T09:45:25Z</time></trkpt><trkpt lat="43.577750723711866" lon="10.888663106822962"><ele>177.66666666666666</ele><time>2026-05-04T09:45:26Z</time></trkpt><trkpt lat="43.577538084518885" lon="10.888758053055868"><ele>179.0</ele><time>2026-05-04T09:45:27Z</time></trkpt><trkpt lat="43.577318926309594" lon="10.888821770367997"><ele>179.0</ele><time>2026-05-04T09:45:28Z</time></trkpt><trkpt lat="43.577096060651265" lon="10.888875805172578"><ele>179.0</ele><time>2026-05-04T09:45:29Z</time></trkpt><trkpt lat="43.57687315778257" lon="10.888936407211414"><ele>180.0</ele><time>2026-05-04T09:45:30Z</time></trkpt><trkpt lat="43.57665209557813" lon="10.889006548370542"><ele>181.0</ele><time>2026-05-04T09:45:31Z</time></trkpt><trkpt lat="43.57642644972146" lon="10.889080877204545"><ele>181.0</ele><time>2026-05-04T09:45:32Z</time></trkpt><trkpt lat="43.57622604019025" lon="10.889147064895285"><ele>181.0</ele><time>2026-05-04T09:45:33Z</time></trkpt><trkpt lat="43.57606719454692" lon="10.889200905273139"><ele>181.0</ele><time>2026-05-04T09:45:34Z</time></trkpt><trkpt lat="43.57594676420473" lon="10.8892385390783"><ele>180.75</ele><time>2026-05-04T09:45:35Z</time></trkpt><trkpt lat="43.57583803960723" lon="10.889269751014654"><ele>180.5</ele><time>2026-05-04T09:45:36Z</time></trkpt><trkpt lat="43.57572793668219" lon="10.88930183795182"><ele>180.25</ele><time>2026-05-04T09:45:37Z</time></trkpt><trkpt lat="43.57561696797711" lon="10.88933631492444"><ele>180.0</ele><time>2026-05-04T09:45:38Z</time></trkpt><trkpt lat="43.57550135889313" lon="10.88937235550248"><ele>180.0</ele><time>2026-05-04T09:45:39Z</time></trkpt><trkpt lat="43.57538360256583" lon="10.889407693103218"><ele>180.0</ele><time>2026-05-04T09:45:40Z</time></trkpt><trkpt lat="43.575268434696675" lon="10.88944052214303"><ele>180.0</ele><time>2026-05-04T09:45:41Z</time></trkpt><trkpt lat="43.57514351451558" lon="10.889473706072478"><ele>180.0</ele><time>2026-05-04T09:45:42Z</time></trkpt><trkpt lat="43.57501704385863" lon="10.889508207136194"><ele>181.75</ele><time>2026-05-04T09:45:43Z</time></trkpt><trkpt lat="43.57488652623421" lon="10.889545740607444"><ele>183.5</ele><time>2026-05-04T09:45:44Z</time></trkpt><trkpt lat="43.574750471631575" lon="10.88958930710519"><ele>185.25</ele><time>2026-05-04T09:45:45Z</time></trkpt><trkpt lat="43.57461462444115" lon="10.88964695985572"><ele>187.0</ele><time>2026-05-04T09:45:46Z</time></trkpt><trkpt lat="43.57447853018587" lon="10.889723505225831"><ele>187.66666666666669</ele><time>2026-05-04T09:45:47Z</time></trkpt><trkpt lat="43.57434631297454" lon="10.889817636037254"><ele>188.33333333333334</ele><time>2026-05-04T09:45:48Z</time></trkpt><trkpt lat="43.57421736162957" lon="10.889931363398892"><ele>189.0</ele><time>2026-05-04T09:45:49Z</time></trkpt><trkpt lat="43.57409658392632" lon="10.89005733643589"><ele>187.66666666666666</ele><time>2026-05-04T09:45:50Z</time></trkpt><trkpt lat="43.57397877780774" lon="10.890198559284292"><ele>186.33333333333331</ele><time>2026-05-04T09:45:51Z</time></trkpt><trkpt lat="43.573873532749374" lon="10.890347636016415"><ele>185.0</ele><time>2026-05-04T09:45:52Z</time></trkpt><trkpt lat="43.573771996058625" lon="10.890507235868029"><ele>186.5</ele><time>2026-05-04T09:45:53Z</time></trkpt><trkpt lat="43.57368194372236" lon="10.890657233266325"><ele>188.0</ele><time>2026-05-04T09:45:54Z</time></trkpt><trkpt lat="43.573597785260766" lon="10.890797327378039"><ele>189.5</ele><time>2026-05-04T09:45:55Z</time></trkpt><trkpt lat="43.573503833255664" lon="10.890912503694127"><ele>191.0</ele><time>2026-05-04T09:45:56Z</time></trkpt><trkpt lat="43.573426679719404" lon="10.89102805556214"><ele>191.0</ele><time>2026-05-04T09:45:57Z</time></trkpt><trkpt lat="43.5733647823056" lon="10.891146519388213"><ele>191.0</ele><time>2026-05-04T09:45:58Z</time></trkpt><trkpt lat="43.57329054051113" lon="10.891228668938995"><ele>191.0</ele><time>2026-05-04T09:45:59Z</time></trkpt><trkpt lat="43.57320961588017" lon="10.891301412381292"><ele>191.0</ele><time>2026-05-04T09:46:00Z</time></trkpt><trkpt lat="43.57312159304724" lon="10.891367920853277"><ele>191.0</ele><time>2026-05-04T09:46:01Z</time></trkpt><trkpt lat="43.573025154141604" lon="10.891432928869747"><ele>191.0</ele><time>2026-05-04T09:46:02Z</time></trkpt><trkpt lat="43.57290642206165" lon="10.891454723071373"><ele>191.0</ele><time>2026-05-04T09:46:03Z</time></trkpt><trkpt lat="43.572784041429685" lon="10.891502930102218"><ele>191.0</ele><time>2026-05-04T09:46:04Z</time></trkpt><trkpt lat="43.572656540602104" lon="10.891569416140795"><ele>191.0</ele><time>2026-05-04T09:46:05Z</time></trkpt><trkpt lat="43.572519810177674" lon="10.89162312391086"><ele>193.75</ele><time>2026-05-04T09:46:06Z</time></trkpt><trkpt lat="43.57238020752985" lon="10.891675742953534"><ele>196.5</ele><time>2026-05-04T09:46:07Z</time></trkpt><trkpt lat="43.5722382651747" lon="10.891709747521393"><ele>199.25</ele><time>2026-05-04T09:46:08Z</time></trkpt><trkpt lat="43.572103646868065" lon="10.891800194933435"><ele>202.0</ele><time>2026-05-04T09:46:09Z</time></trkpt><trkpt lat="43.57196127095861" lon="10.891879741966788"><ele>204.0</ele><time>2026-05-04T09:46:10Z</time></trkpt><trkpt lat="43.57181820989414" lon="10.891974028007434"><ele>206.0</ele><time>2026-05-04T09:46:11Z</time></trkpt><trkpt lat="43.5716650494764" lon="10.892050167539876"><ele>208.0</ele><time>2026-05-04T09:46:12Z</time></trkpt><trkpt lat="43.5715159112619" lon="10.892158356343646"><ele>208.0</ele><time>2026-05-04T09:46:13Z</time></trkpt><trkpt lat="43.57136555670895" lon="10.892197068242057"><ele>208.0</ele><time>2026-05-04T09:46:14Z</time></trkpt><trkpt lat="43.57121643694172" lon="10.892158144122204"><ele>208.0</ele><time>2026-05-04T09:46:15Z</time></trkpt><trkpt lat="43.57107162448016" lon="10.892083476466398"><ele>207.0</ele><time>2026-05-04T09:46:16Z</time></trkpt><trkpt lat="43.57090716664504" lon="10.892019803995383"><ele>206.0</ele><time>2026-05-04T09:46:17Z</time></trkpt><trkpt lat="43.57075002253792" lon="10.891915967237965"><ele>205.0</ele><time>2026-05-04T09:46:18Z</time></trkpt><trkpt lat="43.570585486493925" lon="10.891849346126651"><ele>205.0</ele><time>2026-05-04T09:46:19Z</time></trkpt><trkpt lat="43.57040315242177" lon="10.891821294986634"><ele>205.0</ele><time>2026-05-04T09:46:20Z</time></trkpt><trkpt lat="43.570225680838234" lon="10.891861196106579"><ele>205.0</ele><time>2026-05-04T09:46:21Z</time></trkpt><trkpt lat="43.57004521252994" lon="10.891954639463766"><ele>208.33333333333331</ele><time>2026-05-04T09:46:22Z</time></trkpt><trkpt lat="43.569866070867675" lon="10.892061431176725"><ele>211.66666666666669</ele><time>2026-05-04T09:46:23Z</time></trkpt><trkpt lat="43.56966627923102" lon="10.89213907622535"><ele>215.0</ele><time>2026-05-04T09:46:24Z</time></trkpt><trkpt lat="43.569470577228074" lon="10.892257288362998"><ele>215.33333333333334</ele><time>2026-05-04T09:46:25Z</time></trkpt><trkpt lat="43.56926531610479" lon="10.892361723362715"><ele>215.66666666666669</ele><time>2026-05-04T09:46:26Z</time></trkpt><trkpt lat="43.569056832958175" lon="10.892465476696358"><ele>216.0</ele><time>2026-05-04T09:46:27Z</time></trkpt><trkpt lat="43.56883831430861" lon="10.892567746697297"><ele>215.5</ele><time>2026-05-04T09:46:28Z</time></trkpt><trkpt lat="43.56862378914357" lon="10.892665079942299"><ele>215.0</ele><time>2026-05-04T09:46:29Z</time></trkpt><trkpt lat="43.568404162623494" lon="10.892766992383372"><ele>215.0</ele><time>2026-05-04T09:46:30Z</time></trkpt><trkpt lat="43.568182940629875" lon="10.892874390616315"><ele>215.0</ele><time>2026-05-04T09:46:31Z</time></trkpt><trkpt lat="43.56798004902763" lon="10.892978950611152"><ele>218.0</ele><time>2026-05-04T09:46:32Z</time></trkpt><trkpt lat="43.567793957448664" lon="10.893093610199344"><ele>221.0</ele><time>2026-05-04T09:46:33Z</time></trkpt><trkpt lat="43.56763114746336" lon="10.893240440553129"><ele>224.0</ele><time>2026-05-04T09:46:34Z</time></trkpt><trkpt lat="43.567492981321465" lon="10.893428030055011"><ele>224.0</ele><time>2026-05-04T09:46:35Z</time></trkpt><trkpt lat="43.567382179814636" lon="10.893645553429296"><ele>224.0</ele><time>2026-05-04T09:46:36Z</time></trkpt><trkpt lat="43.56725726439958" lon="10.89385929130561"><ele>224.0</ele><time>2026-05-04T09:46:37Z</time></trkpt><trkpt lat="43.56714065101699" lon="10.894074842801402"><ele>223.66666666666669</ele><time>2026-05-04T09:46:38Z</time></trkpt><trkpt lat="43.56702013465708" lon="10.89429376800164"><ele>223.33333333333331</ele><time>2026-05-04T09:46:39Z</time></trkpt><trkpt lat="43.5668945685108" lon="10.894521718093372"><ele>223.0</ele><time>2026-05-04T09:46:40Z</time></trkpt><trkpt lat="43.56676846040331" lon="10.8947486324707"><ele>223.0</ele><time>2026-05-04T09:46:41Z</time></trkpt><trkpt lat="43.56664197600884" lon="10.894979322518232"><ele>223.0</ele><time>2026-05-04T09:46:42Z</time></trkpt><trkpt lat="43.56652477833001" lon="10.895195999407715"><ele>223.0</ele><time>2026-05-04T09:46:43Z</time></trkpt><trkpt lat="43.56641121694374" lon="10.895392360023974"><ele>223.66666666666666</ele><time>2026-05-04T09:46:44Z</time></trkpt><trkpt lat="43.56628436980288" lon="10.895575890168995"><ele>224.33333333333331</ele><time>2026-05-04T09:46:45Z</time></trkpt><trkpt lat="43.566134999736285" lon="10.89576046730624"><ele>225.0</ele><time>2026-05-04T09:46:46Z</time></trkpt><trkpt lat="43.56595217528256" lon="10.89589700534097"><ele>225.0</ele><time>2026-05-04T09:46:47Z</time></trkpt><trkpt lat="43.56576409490046" lon="10.89601093427776"><ele>225.0</ele><time>2026-05-04T09:46:48Z</time></trkpt><trkpt lat="43.565573635037104" lon="10.896120357864953"><ele>225.0</ele><time>2026-05-04T09:46:49Z</time></trkpt><trkpt lat="43.56540771457156" lon="10.896208213015571"><ele>224.0</ele><time>2026-05-04T09:46:50Z</time></trkpt><trkpt lat="43.565241964214145" lon="10.896275061604399"><ele>223.0</ele><time>2026-05-04T09:46:51Z</time></trkpt><trkpt lat="43.56505981843978" lon="10.896316118585506"><ele>222.0</ele><time>2026-05-04T09:46:52Z</time></trkpt><trkpt lat="43.56487232387281" lon="10.896338118752753"><ele>222.0</ele><time>2026-05-04T09:46:53Z</time></trkpt><trkpt lat="43.564680339347866" lon="10.896338567699514"><ele>222.0</ele><time>2026-05-04T09:46:54Z</time></trkpt><trkpt lat="43.5644953966177" lon="10.896329413976092"><ele>222.0</ele><time>2026-05-04T09:46:55Z</time></trkpt><trkpt lat="43.56430951552526" lon="10.896330272139801"><ele>226.33333333333331</ele><time>2026-05-04T09:46:56Z</time></trkpt><trkpt lat="43.56412901839207" lon="10.89634455460747"><ele>230.66666666666666</ele><time>2026-05-04T09:46:57Z</time></trkpt><trkpt lat="43.56395336888836" lon="10.896368105058835"><ele>235.0</ele><time>2026-05-04T09:46:58Z</time></trkpt><trkpt lat="43.56378217175994" lon="10.896422554757399"><ele>241.0</ele><time>2026-05-04T09:46:59Z</time></trkpt><trkpt lat="43.56362416838681" lon="10.896529113679543"><ele>247.0</ele><time>2026-05-04T09:47:00Z</time></trkpt><trkpt lat="43.56348882695902" lon="10.896684686107612"><ele>253.0</ele><time>2026-05-04T09:47:01Z</time></trkpt><trkpt lat="43.5633693999507" lon="10.896864727935483"><ele>253.33333333333331</ele><time>2026-05-04T09:47:02Z</time></trkpt><trkpt lat="43.56330741909242" lon="10.897107661237255"><ele>253.66666666666669</ele><time>2026-05-04T09:47:03Z</time></trkpt><trkpt lat="43.563266905870414" lon="10.897351799480878"><ele>254.0</ele><time>2026-05-04T09:47:04Z</time></trkpt><trkpt lat="43.56327148920491" lon="10.897598524130943"><ele>254.66666666666669</ele><time>2026-05-04T09:47:05Z</time></trkpt><trkpt lat="43.56331644691331" lon="10.897840999738754"><ele>255.33333333333331</ele><time>2026-05-04T09:47:06Z</time></trkpt><trkpt lat="43.563359493257636" lon="10.898091425047516"><ele>256.0</ele><time>2026-05-04T09:47:07Z</time></trkpt><trkpt lat="43.56339473523638" lon="10.898343634085533"><ele>254.66666666666666</ele><time>2026-05-04T09:47:08Z</time></trkpt><trkpt lat="43.56340104982607" lon="10.898574210980922"><ele>253.33333333333331</ele><time>2026-05-04T09:47:09Z</time></trkpt><trkpt lat="43.56337680781387" lon="10.898793910996247"><ele>252.0</ele><time>2026-05-04T09:47:10Z</time></trkpt><trkpt lat="43.563314179690494" lon="10.898992612027246"><ele>252.0</ele><time>2026-05-04T09:47:10.999Z</time></trkpt><trkpt lat="43.563222440353684" lon="10.899167746932354"><ele>252.0</ele><time>2026-05-04T09:47:11.999Z</time></trkpt><trkpt lat="43.56311390445258" lon="10.899315408937978"><ele>252.0</ele><time>2026-05-04T09:47:12.999Z</time></trkpt><trkpt lat="43.56298660240343" lon="10.89947123698474"><ele>254.0</ele><time>2026-05-04T09:47:13.999Z</time></trkpt><trkpt lat="43.56286204024424" lon="10.899623172072628"><ele>256.0</ele><time>2026-05-04T09:47:14.999Z</time></trkpt><trkpt lat="43.56274627496679" lon="10.899797895411341"><ele>258.0</ele><time>2026-05-04T09:47:15.999Z</time></trkpt><trkpt lat="43.562627527358224" lon="10.899944350913398"><ele>258.0</ele><time>2026-05-04T09:47:16.999Z</time></trkpt><trkpt lat="43.56249548939226" lon="10.900083703014078"><ele>258.0</ele><time>2026-05-04T09:47:17.999Z</time></trkpt><trkpt lat="43.56237602790518" lon="10.900232211078086"><ele>258.0</ele><time>2026-05-04T09:47:18.999Z</time></trkpt><trkpt lat="43.562253868102346" lon="10.900381646316012"><ele>258.0</ele><time>2026-05-04T09:47:19.999Z</time></trkpt><trkpt lat="43.562132938697594" lon="10.900526802049985"><ele>258.0</ele><time>2026-05-04T09:47:20.999Z</time></trkpt><trkpt lat="43.56202161540343" lon="10.900690464034414"><ele>258.0</ele><time>2026-05-04T09:47:21.999Z</time></trkpt><trkpt lat="43.56189603961723" lon="10.900845944793208"><ele>257.3333333333333</ele><time>2026-05-04T09:47:22.999Z</time></trkpt><trkpt lat="43.56176727453248" lon="10.901009872215173"><ele>256.66666666666663</ele><time>2026-05-04T09:47:23.999Z</time></trkpt><trkpt lat="43.56162704244068" lon="10.90114862260362"><ele>256.0</ele><time>2026-05-04T09:47:24.999Z</time></trkpt><trkpt lat="43.56150798410955" lon="10.901326309100105"><ele>256.0</ele><time>2026-05-04T09:47:25.999Z</time></trkpt><trkpt lat="43.56137470048829" lon="10.901486138116658"><ele>256.0</ele><time>2026-05-04T09:47:26.999Z</time></trkpt><trkpt lat="43.56124916285188" lon="10.90163965998762"><ele>256.0</ele><time>2026-05-04T09:47:27.999Z</time></trkpt><trkpt lat="43.56113148481628" lon="10.901791487254505"><ele>256.3333333333333</ele><time>2026-05-04T09:47:28.999Z</time></trkpt><trkpt lat="43.56101198077471" lon="10.901950704999217"><ele>256.6666666666667</ele><time>2026-05-04T09:47:29.999Z</time></trkpt><trkpt lat="43.56089140748734" lon="10.90210914894636"><ele>257.0</ele><time>2026-05-04T09:47:30.999Z</time></trkpt><trkpt lat="43.56074846085791" lon="10.902234400317488"><ele>257.0</ele><time>2026-05-04T09:47:32Z</time></trkpt><trkpt lat="43.560602905254875" lon="10.902361265364064"><ele>257.0</ele><time>2026-05-04T09:47:33Z</time></trkpt><trkpt lat="43.560448269334806" lon="10.90246399944128"><ele>257.0</ele><time>2026-05-04T09:47:34Z</time></trkpt><trkpt lat="43.56028865273205" lon="10.902563761912097"><ele>258.33333333333337</ele><time>2026-05-04T09:47:35Z</time></trkpt><trkpt lat="43.5601163064631" lon="10.902633046849067"><ele>259.6666666666667</ele><time>2026-05-04T09:47:36Z</time></trkpt><trkpt lat="43.55995150331189" lon="10.902719034543425"><ele>261.0</ele><time>2026-05-04T09:47:37Z</time></trkpt><trkpt lat="43.55979733231151" lon="10.902834251117064"><ele>261.0</ele><time>2026-05-04T09:47:38Z</time></trkpt><trkpt lat="43.559650550970716" lon="10.9029766628373"><ele>261.0</ele><time>2026-05-04T09:47:39Z</time></trkpt><trkpt lat="43.5595153487067" lon="10.903160708572642"><ele>261.0</ele><time>2026-05-04T09:47:40Z</time></trkpt><trkpt lat="43.55940065395228" lon="10.90334112809404"><ele>263.0</ele><time>2026-05-04T09:47:41Z</time></trkpt><trkpt lat="43.55926960255971" lon="10.903513288239557"><ele>265.0</ele><time>2026-05-04T09:47:42Z</time></trkpt><trkpt lat="43.55914863593285" lon="10.90368817227019"><ele>267.0</ele><time>2026-05-04T09:47:43Z</time></trkpt><trkpt lat="43.55902469583936" lon="10.903857616068322"><ele>267.0</ele><time>2026-05-04T09:47:44Z</time></trkpt><trkpt lat="43.55888538795897" lon="10.90398073869483"><ele>267.0</ele><time>2026-05-04T09:47:45Z</time></trkpt><trkpt lat="43.5587335158075" lon="10.904097192102165"><ele>267.0</ele><time>2026-05-04T09:47:46Z</time></trkpt><trkpt lat="43.55858765089564" lon="10.904226056642285"><ele>269.0</ele><time>2026-05-04T09:47:47Z</time></trkpt><trkpt lat="43.5584391525688" lon="10.90433143933136"><ele>271.0</ele><time>2026-05-04T09:47:48Z</time></trkpt><trkpt lat="43.55828013707484" lon="10.904466360719033"><ele>273.0</ele><time>2026-05-04T09:47:49Z</time></trkpt><trkpt lat="43.55816869404436" lon="10.9046674539875"><ele>273.0</ele><time>2026-05-04T09:47:50Z</time></trkpt><trkpt lat="43.55805731117942" lon="10.904885538110255"><ele>273.0</ele><time>2026-05-04T09:47:51Z</time></trkpt><trkpt lat="43.55796099535076" lon="10.905124320268802"><ele>273.0</ele><time>2026-05-04T09:47:52Z</time></trkpt><trkpt lat="43.55787265452402" lon="10.905375511239697"><ele>272.3333333333333</ele><time>2026-05-04T09:47:53Z</time></trkpt><trkpt lat="43.55778339092933" lon="10.905634983076236"><ele>271.66666666666663</ele><time>2026-05-04T09:47:54Z</time></trkpt><trkpt lat="43.55769050846216" lon="10.905904536185806"><ele>271.0</ele><time>2026-05-04T09:47:55Z</time></trkpt><trkpt lat="43.55759833935049" lon="10.90617830200316"><ele>271.0</ele><time>2026-05-04T09:47:56Z</time></trkpt><trkpt lat="43.55751268831116" lon="10.906442356276816"><ele>271.0</ele><time>2026-05-04T09:47:57Z</time></trkpt><trkpt lat="43.55743838047194" lon="10.906725986235893"><ele>271.0</ele><time>2026-05-04T09:47:58Z</time></trkpt><trkpt lat="43.55737940391095" lon="10.907004761482545"><ele>271.3333333333333</ele><time>2026-05-04T09:47:59Z</time></trkpt><trkpt lat="43.55733495996433" lon="10.907296904638207"><ele>271.6666666666667</ele><time>2026-05-04T09:48:00Z</time></trkpt><trkpt lat="43.55727783915326" lon="10.907567478104255"><ele>272.0</ele><time>2026-05-04T09:48:01Z</time></trkpt><trkpt lat="43.55722808293474" lon="10.907831444756091"><ele>273.33333333333337</ele><time>2026-05-04T09:48:02Z</time></trkpt><trkpt lat="43.557172441901535" lon="10.90807057138763"><ele>274.6666666666667</ele><time>2026-05-04T09:48:03Z</time></trkpt><trkpt lat="43.5570704341522" lon="10.90827018384661"><ele>276.0</ele><time>2026-05-04T09:48:04Z</time></trkpt><trkpt lat="43.55695776141234" lon="10.908441358718193"><ele>280.0</ele><time>2026-05-04T09:48:05Z</time></trkpt><trkpt lat="43.556817127707255" lon="10.908590104259401"><ele>284.0</ele><time>2026-05-04T09:48:06Z</time></trkpt><trkpt lat="43.556654253397895" lon="10.908720362003601"><ele>288.0</ele><time>2026-05-04T09:48:07Z</time></trkpt><trkpt lat="43.556492311251844" lon="10.908856214513687"><ele>288.0</ele><time>2026-05-04T09:48:08Z</time></trkpt><trkpt lat="43.55632599856811" lon="10.908975188587732"><ele>288.0</ele><time>2026-05-04T09:48:09Z</time></trkpt><trkpt lat="43.556163527021994" lon="10.909103884294678"><ele>288.0</ele><time>2026-05-04T09:48:10Z</time></trkpt><trkpt lat="43.55598733945097" lon="10.909217044330566"><ele>290.0</ele><time>2026-05-04T09:48:11Z</time></trkpt><trkpt lat="43.55582021703496" lon="10.90933717405446"><ele>292.0</ele><time>2026-05-04T09:48:12Z</time></trkpt><trkpt lat="43.55565075414843" lon="10.909444669724712"><ele>294.0</ele><time>2026-05-04T09:48:13Z</time></trkpt><trkpt lat="43.555472651829135" lon="10.909506793573739"><ele>299.0</ele><time>2026-05-04T09:48:14Z</time></trkpt><trkpt lat="43.55529212026583" lon="10.909541576165633"><ele>304.0</ele><time>2026-05-04T09:48:15Z</time></trkpt><trkpt lat="43.555113220834734" lon="10.909478551425895"><ele>309.0</ele><time>2026-05-04T09:48:16Z</time></trkpt><trkpt lat="43.55495238503092" lon="10.909395002672577"><ele>309.0</ele><time>2026-05-04T09:48:17Z</time></trkpt><trkpt lat="43.55481508491738" lon="10.909285102908736"><ele>309.0</ele><time>2026-05-04T09:48:18Z</time></trkpt><trkpt lat="43.55466492990649" lon="10.90916424552888"><ele>309.0</ele><time>2026-05-04T09:48:19Z</time></trkpt><trkpt lat="43.55452861860524" lon="10.909047838421492"><ele>311.25</ele><time>2026-05-04T09:48:20Z</time></trkpt><trkpt lat="43.55439134086988" lon="10.908994076439587"><ele>313.5</ele><time>2026-05-04T09:48:21Z</time></trkpt><trkpt lat="43.554239595435305" lon="10.908998891163527"><ele>315.75</ele><time>2026-05-04T09:48:22Z</time></trkpt><trkpt lat="43.55409804382625" lon="10.909070211126611"><ele>318.0</ele><time>2026-05-04T09:48:23Z</time></trkpt><trkpt lat="43.553983390080425" lon="10.90920068460936"><ele>319.0</ele><time>2026-05-04T09:48:24Z</time></trkpt><trkpt lat="43.553902009632814" lon="10.909391758790468"><ele>320.0</ele><time>2026-05-04T09:48:25Z</time></trkpt><trkpt lat="43.553862582235446" lon="10.909621294395173"><ele>321.0</ele><time>2026-05-04T09:48:26Z</time></trkpt><trkpt lat="43.553875229410686" lon="10.909852844658019"><ele>321.0</ele><time>2026-05-04T09:48:27Z</time></trkpt><trkpt lat="43.553936736879926" lon="10.91007266428776"><ele>321.0</ele><time>2026-05-04T09:48:28Z</time></trkpt><trkpt lat="43.55400400066863" lon="10.910276472321417"><ele>321.0</ele><time>2026-05-04T09:48:29Z</time></trkpt><trkpt lat="43.55405649958894" lon="10.910427695488648"><ele>323.25</ele><time>2026-05-04T09:48:30Z</time></trkpt><trkpt lat="43.554067779171284" lon="10.910612411192368"><ele>325.5</ele><time>2026-05-04T09:48:31Z</time></trkpt><trkpt lat="43.554052310637566" lon="10.910782549256917"><ele>327.75</ele><time>2026-05-04T09:48:32Z</time></trkpt><trkpt lat="43.55402189500494" lon="10.910956384104203"><ele>330.0</ele><time>2026-05-04T09:48:33Z</time></trkpt><trkpt lat="43.55398643211865" lon="10.911125506276516"><ele>330.4</ele><time>2026-05-04T09:48:34Z</time></trkpt><trkpt lat="43.5539516592016" lon="10.911256935639516"><ele>330.8</ele><time>2026-05-04T09:48:35Z</time></trkpt><trkpt lat="43.553923982640946" lon="10.91135461064085"><ele>331.20000000000005</ele><time>2026-05-04T09:48:36Z</time></trkpt><trkpt lat="43.55388226021926" lon="10.911502882375176"><ele>331.6</ele><time>2026-05-04T09:48:38Z</time></trkpt><trkpt lat="43.55385963116666" lon="10.911612976939983"><ele>332.0</ele><time>2026-05-04T09:48:39Z</time></trkpt><trkpt lat="43.55383217336787" lon="10.911743260723476"><ele>329.5</ele><time>2026-05-04T09:48:40Z</time></trkpt><trkpt lat="43.55377432662015" lon="10.91188895653932"><ele>327.0</ele><time>2026-05-04T09:48:41Z</time></trkpt><trkpt lat="43.55372427519032" lon="10.912056441762022"><ele>324.5</ele><time>2026-05-04T09:48:42Z</time></trkpt><trkpt lat="43.553673017615836" lon="10.912240794616375"><ele>322.0</ele><time>2026-05-04T09:48:43Z</time></trkpt><trkpt lat="43.55362886215254" lon="10.912438372325946"><ele>328.3333333333333</ele><time>2026-05-04T09:48:44Z</time></trkpt><trkpt lat="43.55359134608737" lon="10.912652567129376"><ele>334.6666666666667</ele><time>2026-05-04T09:48:45Z</time></trkpt><trkpt lat="43.553559098351755" lon="10.912874039444631"><ele>341.0</ele><time>2026-05-04T09:48:46Z</time></trkpt><trkpt lat="43.55351457888296" lon="10.913085196887508"><ele>341.0</ele><time>2026-05-04T09:48:47Z</time></trkpt><trkpt lat="43.55346582124407" lon="10.913301196631815"><ele>341.0</ele><time>2026-05-04T09:48:48Z</time></trkpt><trkpt lat="43.553401437908995" lon="10.91350505267817"><ele>341.0</ele><time>2026-05-04T09:48:49Z</time></trkpt><trkpt lat="43.55333407386654" lon="10.913678314808484"><ele>340.0</ele><time>2026-05-04T09:48:50Z</time></trkpt><trkpt lat="43.55329079392646" lon="10.913819001163473"><ele>339.0</ele><time>2026-05-04T09:48:51Z</time></trkpt><trkpt lat="43.55324967752453" lon="10.913936339993601"><ele>338.0</ele><time>2026-05-04T09:48:52Z</time></trkpt><trkpt lat="43.553202544762506" lon="10.914020632335763"><ele>337.0</ele><time>2026-05-04T09:48:53Z</time></trkpt><trkpt lat="43.553129230198486" lon="10.914038561711921"><ele>336.0</ele><time>2026-05-04T09:48:54Z</time></trkpt><trkpt lat="43.55305620412437" lon="10.914011195103708"><ele>335.0</ele><time>2026-05-04T09:48:55Z</time></trkpt><trkpt lat="43.55298246341593" lon="10.91394681483384"><ele>335.0</ele><time>2026-05-04T09:48:56Z</time></trkpt><trkpt lat="43.552898740256744" lon="10.913911975024163"><ele>335.0</ele><time>2026-05-04T09:48:57Z</time></trkpt><trkpt lat="43.5528066580386" lon="10.913889871028115"><ele>335.0</ele><time>2026-05-04T09:48:58Z</time></trkpt><trkpt lat="43.55271232314712" lon="10.913884965245307"><ele>335.0</ele><time>2026-05-04T09:48:59Z</time></trkpt><trkpt lat="43.55263539089011" lon="10.913897817988989"><ele>335.0</ele><time>2026-05-04T09:49:00Z</time></trkpt><trkpt lat="43.55256520418421" lon="10.913923545355471"><ele>335.0</ele><time>2026-05-04T09:49:04Z</time></trkpt><trkpt lat="43.55249475926257" lon="10.913917660184525"><ele>334.83333333333337</ele><time>2026-05-04T09:49:07Z</time></trkpt><trkpt lat="43.552429603259675" lon="10.91392237642052"><ele>334.6666666666667</ele><time>2026-05-04T09:49:09Z</time></trkpt><trkpt lat="43.55233297378008" lon="10.913939774790919"><ele>334.5</ele><time>2026-05-04T09:49:13Z</time></trkpt><trkpt lat="43.55222447672213" lon="10.913944326006408"><ele>334.3333333333333</ele><time>2026-05-04T09:49:15Z</time></trkpt><trkpt lat="43.55215958177654" lon="10.913945256526386"><ele>334.16666666666663</ele><time>2026-05-04T09:49:15.999Z</time></trkpt><trkpt lat="43.55209146129964" lon="10.913948992166423"><ele>334.0</ele><time>2026-05-04T09:49:16.999Z</time></trkpt><trkpt lat="43.55201790951141" lon="10.913948798596575"><ele>334.0</ele><time>2026-05-04T09:49:17.999Z</time></trkpt><trkpt lat="43.551939464395716" lon="10.91394214065992"><ele>334.0</ele><time>2026-05-04T09:49:18.999Z</time></trkpt><trkpt lat="43.55185236938334" lon="10.913940307821354"><ele>334.0</ele><time>2026-05-04T09:49:19.999Z</time></trkpt><trkpt lat="43.55176230893536" lon="10.913930981809381"><ele>334.0</ele><time>2026-05-04T09:49:20.999Z</time></trkpt><trkpt lat="43.55167668276911" lon="10.913961950156839"><ele>334.0</ele><time>2026-05-04T09:49:21.999Z</time></trkpt><trkpt lat="43.5515964898" lon="10.913969718540363"><ele>334.0</ele><time>2026-05-04T09:49:22.999Z</time></trkpt><trkpt lat="43.551504986213835" lon="10.91401526756743"><ele>334.0</ele><time>2026-05-04T09:49:23.999Z</time></trkpt><trkpt lat="43.55141040998813" lon="10.914026481427987"><ele>334.0</ele><time>2026-05-04T09:49:24.999Z</time></trkpt><trkpt lat="43.55130664086159" lon="10.914043390100064"><ele>334.0</ele><time>2026-05-04T09:49:25.999Z</time></trkpt><trkpt lat="43.55118881569045" lon="10.914059060324929"><ele>334.0</ele><time>2026-05-04T09:49:26.999Z</time></trkpt><trkpt lat="43.55106533055914" lon="10.914074319521244"><ele>334.0</ele><time>2026-05-04T09:49:27.999Z</time></trkpt><trkpt lat="43.55093112771268" lon="10.914086363963921"><ele>332.25</ele><time>2026-05-04T09:49:28.999Z</time></trkpt><trkpt lat="43.550795563979115" lon="10.914097090874046"><ele>330.5</ele><time>2026-05-04T09:49:29.999Z</time></trkpt><trkpt lat="43.5506584162852" lon="10.914114787162578"><ele>328.75</ele><time>2026-05-04T09:49:30.999Z</time></trkpt><trkpt lat="43.55051620147054" lon="10.914134052773328"><ele>327.0</ele><time>2026-05-04T09:49:31.999Z</time></trkpt><trkpt lat="43.55036678424089" lon="10.91415404345365"><ele>326.5</ele><time>2026-05-04T09:49:32.999Z</time></trkpt><trkpt lat="43.550219675525824" lon="10.914173344606171"><ele>326.0</ele><time>2026-05-04T09:49:33.999Z</time></trkpt><trkpt lat="43.55007020971782" lon="10.914188200647901"><ele>325.5</ele><time>2026-05-04T09:49:35Z</time></trkpt><trkpt lat="43.549923849490106" lon="10.914207064823907"><ele>325.0</ele><time>2026-05-04T09:49:36Z</time></trkpt><trkpt lat="43.54977686670951" lon="10.914218037476243"><ele>323.0</ele><time>2026-05-04T09:49:37Z</time></trkpt><trkpt lat="43.54963837468887" lon="10.914239742173823"><ele>321.0</ele><time>2026-05-04T09:49:38Z</time></trkpt><trkpt lat="43.549519791466146" lon="10.914266457700869"><ele>319.0</ele><time>2026-05-04T09:49:39Z</time></trkpt><trkpt lat="43.54941428103698" lon="10.914314407791371"><ele>317.0</ele><time>2026-05-04T09:49:40Z</time></trkpt><trkpt lat="43.54930959285055" lon="10.9144101540448"><ele>317.0</ele><time>2026-05-04T09:49:41Z</time></trkpt><trkpt lat="43.54920912969889" lon="10.914545371482497"><ele>317.0</ele><time>2026-05-04T09:49:42Z</time></trkpt><trkpt lat="43.54912233193205" lon="10.914718461281844"><ele>317.0</ele><time>2026-05-04T09:49:43Z</time></trkpt><trkpt lat="43.54904661454392" lon="10.914919005458028"><ele>315.0</ele><time>2026-05-04T09:49:44Z</time></trkpt><trkpt lat="43.54898292597822" lon="10.915134071547591"><ele>313.0</ele><time>2026-05-04T09:49:45Z</time></trkpt><trkpt lat="43.54893969887495" lon="10.915377634642661"><ele>311.0</ele><time>2026-05-04T09:49:46Z</time></trkpt><trkpt lat="43.54886419150448" lon="10.915576752552548"><ele>311.0</ele><time>2026-05-04T09:49:47Z</time></trkpt><trkpt lat="43.54879197377387" lon="10.915754137153472"><ele>311.0</ele><time>2026-05-04T09:49:48Z</time></trkpt><trkpt lat="43.548732917670655" lon="10.915917481223518"><ele>311.0</ele><time>2026-05-04T09:49:49Z</time></trkpt><trkpt lat="43.5486768543483" lon="10.91607887543547"><ele>311.0</ele><time>2026-05-04T09:49:50Z</time></trkpt><trkpt lat="43.5486241874213" lon="10.916229164845994"><ele>311.6</ele><time>2026-05-04T09:49:51Z</time></trkpt><trkpt lat="43.54857366918968" lon="10.916387257886923"><ele>312.20000000000005</ele><time>2026-05-04T09:49:52Z</time></trkpt><trkpt lat="43.54852338983052" lon="10.91653757252448"><ele>312.79999999999995</ele><time>2026-05-04T09:49:53Z</time></trkpt><trkpt lat="43.548475060610464" lon="10.916670115578247"><ele>313.4</ele><time>2026-05-04T09:49:54Z</time></trkpt><trkpt lat="43.54843573548052" lon="10.916786895271388"><ele>314.0</ele><time>2026-05-04T09:49:55Z</time></trkpt><trkpt lat="43.54840217796217" lon="10.916892188197316"><ele>314.0</ele><time>2026-05-04T09:49:56Z</time></trkpt><trkpt lat="43.54837500035084" lon="10.916984706371894"><ele>314.0</ele><time>2026-05-04T09:49:57Z</time></trkpt><trkpt lat="43.548348821988306" lon="10.917070583570512"><ele>314.0</ele><time>2026-05-04T09:49:58Z</time></trkpt><trkpt lat="43.54829459012587" lon="10.917208254224589"><ele>314.0</ele><time>2026-05-04T09:50:00Z</time></trkpt><trkpt lat="43.54824311430603" lon="10.91728695196876"><ele>314.0</ele><time>2026-05-04T09:50:02Z</time></trkpt><trkpt lat="43.54814571591934" lon="10.917303674100461"><ele>314.0</ele><time>2026-05-04T09:50:04Z</time></trkpt><trkpt lat="43.5480355994965" lon="10.91738368660445"><ele>314.0</ele><time>2026-05-04T09:50:06Z</time></trkpt><trkpt lat="43.54801185780384" lon="10.917486652168286"><ele>314.0</ele><time>2026-05-04T09:50:07Z</time></trkpt><trkpt lat="43.54804697947961" lon="10.91760679618825"><ele>314.0</ele><time>2026-05-04T09:50:08Z</time></trkpt><trkpt lat="43.54807106480934" lon="10.917744337073481"><ele>314.0</ele><time>2026-05-04T09:50:09Z</time></trkpt><trkpt lat="43.548075777579655" lon="10.917899469321025"><ele>314.0</ele><time>2026-05-04T09:50:10Z</time></trkpt><trkpt lat="43.548034928352365" lon="10.918055125587903"><ele>314.75</ele><time>2026-05-04T09:50:11Z</time></trkpt><trkpt lat="43.54799581274352" lon="10.91822238364352"><ele>315.5</ele><time>2026-05-04T09:50:12Z</time></trkpt><trkpt lat="43.54794782618761" lon="10.918404633565029"><ele>316.25</ele><time>2026-05-04T09:50:13Z</time></trkpt><trkpt lat="43.547899613155465" lon="10.918598022634775"><ele>317.0</ele><time>2026-05-04T09:50:14Z</time></trkpt><trkpt lat="43.54784901848346" lon="10.91880096513932"><ele>317.0</ele><time>2026-05-04T09:50:15Z</time></trkpt><trkpt lat="43.54779646214115" lon="10.91901177590422"><ele>317.0</ele><time>2026-05-04T09:50:16Z</time></trkpt><trkpt lat="43.54773870733101" lon="10.919234943167526"><ele>317.0</ele><time>2026-05-04T09:50:17Z</time></trkpt><trkpt lat="43.547679829495536" lon="10.919456982214784"><ele>316.6666666666667</ele><time>2026-05-04T09:50:18Z</time></trkpt><trkpt lat="43.54763965511249" lon="10.919713943072658"><ele>316.3333333333333</ele><time>2026-05-04T09:50:19Z</time></trkpt><trkpt lat="43.5476006610556" lon="10.919960095820276"><ele>316.0</ele><time>2026-05-04T09:50:20Z</time></trkpt><trkpt lat="43.54756620046426" lon="10.9202153441228"><ele>317.0</ele><time>2026-05-04T09:50:21Z</time></trkpt><trkpt lat="43.54752515117183" lon="10.920478390369349"><ele>318.0</ele><time>2026-05-04T09:50:22Z</time></trkpt><trkpt lat="43.547485718540706" lon="10.920741786338862"><ele>319.0</ele><time>2026-05-04T09:50:23Z</time></trkpt><trkpt lat="43.547442725726825" lon="10.921011755198931"><ele>319.66666666666663</ele><time>2026-05-04T09:50:24Z</time></trkpt><trkpt lat="43.547398659569524" lon="10.921287414467033"><ele>320.3333333333333</ele><time>2026-05-04T09:50:25Z</time></trkpt><trkpt lat="43.547357189115786" lon="10.921562597318317"><ele>321.0</ele><time>2026-05-04T09:50:26Z</time></trkpt><trkpt lat="43.5472971213873" lon="10.921823546864022"><ele>322.6666666666667</ele><time>2026-05-04T09:50:27Z</time></trkpt><trkpt lat="43.54725403392326" lon="10.922080814013475"><ele>324.33333333333337</ele><time>2026-05-04T09:50:28Z</time></trkpt><trkpt lat="43.54722252182772" lon="10.922342413490997"><ele>326.0</ele><time>2026-05-04T09:50:29Z</time></trkpt><trkpt lat="43.547167116909804" lon="10.922589835404668"><ele>327.0</ele><time>2026-05-04T09:50:30Z</time></trkpt><trkpt lat="43.547112230199104" lon="10.92282977435945"><ele>328.0</ele><time>2026-05-04T09:50:31Z</time></trkpt><trkpt lat="43.547053058339586" lon="10.923095910609671"><ele>329.0</ele><time>2026-05-04T09:50:32Z</time></trkpt><trkpt lat="43.54699636396041" lon="10.923365700027727"><ele>331.33333333333337</ele><time>2026-05-04T09:50:33Z</time></trkpt><trkpt lat="43.54692159094224" lon="10.923626415867972"><ele>333.6666666666667</ele><time>2026-05-04T09:50:34Z</time></trkpt><trkpt lat="43.546858176153336" lon="10.923906544829391"><ele>336.0</ele><time>2026-05-04T09:50:35Z</time></trkpt><trkpt lat="43.54682091268897" lon="10.924176243821362"><ele>335.6666666666667</ele><time>2026-05-04T09:50:36Z</time></trkpt><trkpt lat="43.546760851150694" lon="10.924422161649906"><ele>335.33333333333337</ele><time>2026-05-04T09:50:37Z</time></trkpt><trkpt lat="43.54669143088612" lon="10.924632775410808"><ele>335.0</ele><time>2026-05-04T09:50:38Z</time></trkpt><trkpt lat="43.54659052464539" lon="10.924803652354719"><ele>335.0</ele><time>2026-05-04T09:50:39Z</time></trkpt><trkpt lat="43.54646176412645" lon="10.924952505311609"><ele>335.0</ele><time>2026-05-04T09:50:40Z</time></trkpt><trkpt lat="43.546325446107964" lon="10.925101618687028"><ele>335.0</ele><time>2026-05-04T09:50:41Z</time></trkpt><trkpt lat="43.5461753486003" lon="10.925239834103946"><ele>337.0</ele><time>2026-05-04T09:50:42Z</time></trkpt><trkpt lat="43.54604148649064" lon="10.925405684831395"><ele>339.0</ele><time>2026-05-04T09:50:43Z</time></trkpt><trkpt lat="43.545919233722955" lon="10.925557151117365"><ele>341.0</ele><time>2026-05-04T09:50:44Z</time></trkpt><trkpt lat="43.54580832168451" lon="10.925695257853283"><ele>341.0</ele><time>2026-05-04T09:50:45Z</time></trkpt><trkpt lat="43.545706758572116" lon="10.925821646115542"><ele>341.0</ele><time>2026-05-04T09:50:46Z</time></trkpt><trkpt lat="43.54560685634517" lon="10.925976776648136"><ele>341.0</ele><time>2026-05-04T09:50:47Z</time></trkpt><trkpt lat="43.54548682886822" lon="10.926091256704062"><ele>341.0</ele><time>2026-05-04T09:50:48Z</time></trkpt><trkpt lat="43.54536717893882" lon="10.92622526209791"><ele>340.0</ele><time>2026-05-04T09:50:49Z</time></trkpt><trkpt lat="43.54523897908283" lon="10.926354229713569"><ele>339.0</ele><time>2026-05-04T09:50:50Z</time></trkpt><trkpt lat="43.54509853019227" lon="10.926470155346054"><ele>338.0</ele><time>2026-05-04T09:50:51Z</time></trkpt><trkpt lat="43.544953156772785" lon="10.926572189147135"><ele>338.0</ele><time>2026-05-04T09:50:52Z</time></trkpt><trkpt lat="43.54481790143597" lon="10.926647479002524"><ele>338.0</ele><time>2026-05-04T09:50:53Z</time></trkpt><trkpt lat="43.54469682052743" lon="10.926729493588534"><ele>338.0</ele><time>2026-05-04T09:50:54Z</time></trkpt><trkpt lat="43.5445720660705" lon="10.92678442597625"><ele>338.0</ele><time>2026-05-04T09:50:55Z</time></trkpt><trkpt lat="43.5444502573603" lon="10.926809324907891"><ele>337.2</ele><time>2026-05-04T09:50:56Z</time></trkpt><trkpt lat="43.544338192783584" lon="10.926843275614747"><ele>336.4</ele><time>2026-05-04T09:50:57Z</time></trkpt><trkpt lat="43.54423361687466" lon="10.926871361743745"><ele>335.59999999999997</ele><time>2026-05-04T09:50:58Z</time></trkpt><trkpt lat="43.54414534191674" lon="10.926892585022072"><ele>334.79999999999995</ele><time>2026-05-04T09:50:59Z</time></trkpt><trkpt lat="43.5440757314518" lon="10.926909204833683"><ele>334.0</ele><time>2026-05-04T09:51:00Z</time></trkpt><trkpt lat="43.54408756673383" lon="10.9270831062485"><ele>334.0</ele><time>2026-05-04T09:51:03Z</time></trkpt><trkpt lat="43.54418719358756" lon="10.927029774590379"><ele>334.0</ele><time>2026-05-04T09:51:06Z</time></trkpt><trkpt lat="43.54425016190686" lon="10.927034560269892"><ele>334.0</ele><time>2026-05-04T09:52:40Z</time></trkpt><trkpt lat="43.54431526720982" lon="10.927010623899822"><ele>334.0</ele><time>2026-05-04T09:52:49Z</time></trkpt><trkpt lat="43.5443658432051" lon="10.927198876366209"><ele>334.0</ele><time>2026-05-04T09:52:51Z</time></trkpt><trkpt lat="43.54441730557185" lon="10.927250473414897"><ele>334.0</ele><time>2026-05-04T09:52:58Z</time></trkpt><trkpt lat="43.544479961709655" lon="10.927282801246504"><ele>334.0</ele><time>2026-05-04T09:53:15.074Z</time></trkpt><trkpt lat="43.544403904632844" lon="10.927225372387841"><ele>334.0</ele><time>2026-05-04T09:53:31.001Z</time></trkpt><trkpt lat="43.54434082518725" lon="10.927202348651859"><ele>334.0</ele><time>2026-05-04T09:53:41.001Z</time></trkpt><trkpt lat="43.544304566561976" lon="10.927116966831287"><ele>334.0</ele><time>2026-05-04T09:53:48.001Z</time></trkpt><trkpt lat="43.544256280770185" lon="10.92704400492741"><ele>334.0</ele><time>2026-05-04T09:53:54.001Z</time></trkpt><trkpt lat="43.54435303023125" lon="10.926950045644485"><ele>334.0</ele><time>2026-05-04T09:54:49.001Z</time></trkpt><trkpt lat="43.544416901739645" lon="10.926905608122851"><ele>334.0</ele><time>2026-05-04T09:54:50.001Z</time></trkpt><trkpt lat="43.544495326054715" lon="10.926814660647043"><ele>334.0</ele><time>2026-05-04T09:54:52.001Z</time></trkpt><trkpt lat="43.54458080404603" lon="10.92677945396643"><ele>334.0</ele><time>2026-05-04T09:54:53.001Z</time></trkpt><trkpt lat="43.54468068985197" lon="10.92674543986423"><ele>334.0</ele><time>2026-05-04T09:54:54.001Z</time></trkpt><trkpt lat="43.544781358285576" lon="10.926702369391329"><ele>334.0</ele><time>2026-05-04T09:54:55.001Z</time></trkpt><trkpt lat="43.544882296945964" lon="10.92665165285238"><ele>335.0</ele><time>2026-05-04T09:54:56.001Z</time></trkpt><trkpt lat="43.544990531715094" lon="10.926579469985445"><ele>336.0</ele><time>2026-05-04T09:54:57.001Z</time></trkpt><trkpt lat="43.54510817734234" lon="10.926503363290095"><ele>337.0</ele><time>2026-05-04T09:54:58.001Z</time></trkpt><trkpt lat="43.545231175734486" lon="10.926405418981712"><ele>338.0</ele><time>2026-05-04T09:54:59.001Z</time></trkpt><trkpt lat="43.545358154577976" lon="10.926277503930214"><ele>337.0</ele><time>2026-05-04T09:55:00.001Z</time></trkpt><trkpt lat="43.545480546795666" lon="10.92614655241547"><ele>336.0</ele><time>2026-05-04T09:55:01.001Z</time></trkpt><trkpt lat="43.545609088810714" lon="10.925995127510284"><ele>335.0</ele><time>2026-05-04T09:55:02.001Z</time></trkpt><trkpt lat="43.5457335968435" lon="10.9258348485097"><ele>337.0</ele><time>2026-05-04T09:55:03.001Z</time></trkpt><trkpt lat="43.54587578285314" lon="10.92566234216788"><ele>339.0</ele><time>2026-05-04T09:55:04.001Z</time></trkpt><trkpt lat="43.546017469429344" lon="10.925482513237844"><ele>341.0</ele><time>2026-05-04T09:55:05.001Z</time></trkpt><trkpt lat="43.54616879280266" lon="10.925295693566435"><ele>339.0</ele><time>2026-05-04T09:55:06.001Z</time></trkpt><trkpt lat="43.54632941052805" lon="10.9251032571716"><ele>337.0</ele><time>2026-05-04T09:55:07.001Z</time></trkpt><trkpt lat="43.54648578414985" lon="10.924907562641952"><ele>335.0</ele><time>2026-05-04T09:55:08.001Z</time></trkpt><trkpt lat="43.54660047133149" lon="10.924753738146977"><ele>335.0</ele><time>2026-05-04T09:55:09.001Z</time></trkpt><trkpt lat="43.54671164723568" lon="10.924586241842784"><ele>335.0</ele><time>2026-05-04T09:55:10.001Z</time></trkpt><trkpt lat="43.54679948616283" lon="10.924393268183584"><ele>335.0</ele><time>2026-05-04T09:55:11.001Z</time></trkpt><trkpt lat="43.54685934606822" lon="10.924158525026138"><ele>335.33333333333337</ele><time>2026-05-04T09:55:12.001Z</time></trkpt><trkpt lat="43.54689718069064" lon="10.923925073754836"><ele>335.6666666666667</ele><time>2026-05-04T09:55:13.001Z</time></trkpt><trkpt lat="43.546940529590195" lon="10.923700326548952"><ele>336.0</ele><time>2026-05-04T09:55:14.001Z</time></trkpt><trkpt lat="43.5469914376042" lon="10.923479593918803"><ele>335.0</ele><time>2026-05-04T09:55:15.001Z</time></trkpt><trkpt lat="43.54704243889344" lon="10.92325995589806"><ele>334.0</ele><time>2026-05-04T09:55:16.001Z</time></trkpt><trkpt lat="43.54708861587257" lon="10.923051586088988"><ele>333.0</ele><time>2026-05-04T09:55:17.001Z</time></trkpt><trkpt lat="43.547130320342355" lon="10.922863841156694"><ele>332.0</ele><time>2026-05-04T09:55:18.001Z</time></trkpt><trkpt lat="43.547168338251154" lon="10.922677741698822"><ele>331.0</ele><time>2026-05-04T09:55:19.001Z</time></trkpt><trkpt lat="43.54721087702604" lon="10.922485941287235"><ele>330.0</ele><time>2026-05-04T09:55:20.001Z</time></trkpt><trkpt lat="43.54725328036444" lon="10.922278997565185"><ele>329.0</ele><time>2026-05-04T09:55:21.001Z</time></trkpt><trkpt lat="43.547290885873345" lon="10.922070366646242"><ele>328.0</ele><time>2026-05-04T09:55:22.001Z</time></trkpt><trkpt lat="43.54732685322754" lon="10.921840924811207"><ele>327.0</ele><time>2026-05-04T09:55:23.001Z</time></trkpt><trkpt lat="43.54736626500681" lon="10.921602116239452"><ele>326.0</ele><time>2026-05-04T09:55:24.001Z</time></trkpt><trkpt lat="43.54739987464091" lon="10.921378204668416"><ele>324.75</ele><time>2026-05-04T09:55:25.001Z</time></trkpt><trkpt lat="43.54743060713866" lon="10.921180731728791"><ele>323.5</ele><time>2026-05-04T09:55:26.001Z</time></trkpt><trkpt lat="43.5474606796925" lon="10.920991706492028"><ele>322.25</ele><time>2026-05-04T09:55:27.001Z</time></trkpt><trkpt lat="43.5474858546138" lon="10.92083449575209"><ele>321.0</ele><time>2026-05-04T09:55:28.001Z</time></trkpt><trkpt lat="43.547508000552405" lon="10.920708355787182"><ele>320.6</ele><time>2026-05-04T09:55:29.001Z</time></trkpt><trkpt lat="43.54752971560789" lon="10.920582030156153"><ele>320.20000000000005</ele><time>2026-05-04T09:55:30.001Z</time></trkpt><trkpt lat="43.54755194990812" lon="10.92044782637877"><ele>319.79999999999995</ele><time>2026-05-04T09:55:31.001Z</time></trkpt><trkpt lat="43.547578310917515" lon="10.9202925053306"><ele>319.4</ele><time>2026-05-04T09:55:32.001Z</time></trkpt><trkpt lat="43.54760360041028" lon="10.920127438263172"><ele>319.0</ele><time>2026-05-04T09:55:33.001Z</time></trkpt><trkpt lat="43.54762717616851" lon="10.919955510795544"><ele>318.4</ele><time>2026-05-04T09:55:34.001Z</time></trkpt><trkpt lat="43.54764721502255" lon="10.919797351953072"><ele>317.79999999999995</ele><time>2026-05-04T09:55:35.001Z</time></trkpt><trkpt lat="43.54766644424672" lon="10.919664514584499"><ele>317.20000000000005</ele><time>2026-05-04T09:55:36.001Z</time></trkpt><trkpt lat="43.54769474410279" lon="10.919572378082904"><ele>316.6</ele><time>2026-05-04T09:55:37.001Z</time></trkpt><trkpt lat="43.54775798865751" lon="10.919552258920078"><ele>316.0</ele><time>2026-05-04T09:55:39.001Z</time></trkpt><trkpt lat="43.54782296439997" lon="10.91966603545689"><ele>313.8</ele><time>2026-05-04T09:55:40.001Z</time></trkpt><trkpt lat="43.5478820015391" lon="10.919771810705644"><ele>311.6</ele><time>2026-05-04T09:55:41.001Z</time></trkpt><trkpt lat="43.5479359221037" lon="10.919883223861364"><ele>309.4</ele><time>2026-05-04T09:55:42.001Z</time></trkpt><trkpt lat="43.54800611866251" lon="10.920009238012186"><ele>307.2</ele><time>2026-05-04T09:55:43.001Z</time></trkpt><trkpt lat="43.54808355659163" lon="10.920146542102177"><ele>305.0</ele><time>2026-05-04T09:55:44.001Z</time></trkpt><trkpt lat="43.54816806236198" lon="10.920303049331503"><ele>305.0</ele><time>2026-05-04T09:55:45.001Z</time></trkpt><trkpt lat="43.54825181908594" lon="10.920458672679766"><ele>305.0</ele><time>2026-05-04T09:55:46.001Z</time></trkpt><trkpt lat="43.548338837537585" lon="10.920631433665635"><ele>305.0</ele><time>2026-05-04T09:55:47.001Z</time></trkpt><trkpt lat="43.548432403146464" lon="10.920816917617326"><ele>306.0</ele><time>2026-05-04T09:55:48.001Z</time></trkpt><trkpt lat="43.54847870326464" lon="10.921015271426128"><ele>307.0</ele><time>2026-05-04T09:55:49.001Z</time></trkpt><trkpt lat="43.54848817456156" lon="10.921222400415427"><ele>308.0</ele><time>2026-05-04T09:55:50.001Z</time></trkpt><trkpt lat="43.5485027986792" lon="10.921428836526953"><ele>308.0</ele><time>2026-05-04T09:55:51.001Z</time></trkpt><trkpt lat="43.548516935794815" lon="10.921622150274752"><ele>308.0</ele><time>2026-05-04T09:55:52.001Z</time></trkpt><trkpt lat="43.54855720840984" lon="10.92181529329974"><ele>308.0</ele><time>2026-05-04T09:55:53.001Z</time></trkpt><trkpt lat="43.54863487112017" lon="10.92198388080872"><ele>308.0</ele><time>2026-05-04T09:55:54.001Z</time></trkpt><trkpt lat="43.54874617931862" lon="10.922123092154623"><ele>303.75</ele><time>2026-05-04T09:55:55.001Z</time></trkpt><trkpt lat="43.54884714784237" lon="10.922296628973701"><ele>299.5</ele><time>2026-05-04T09:55:56.001Z</time></trkpt><trkpt lat="43.54894810910992" lon="10.922393800772083"><ele>295.25</ele><time>2026-05-04T09:55:57.001Z</time></trkpt><trkpt lat="43.54903478064938" lon="10.922523239547292"><ele>291.0</ele><time>2026-05-04T09:55:58.001Z</time></trkpt><trkpt lat="43.549087925035536" lon="10.922734373541367"><ele>290.75</ele><time>2026-05-04T09:55:59.001Z</time></trkpt><trkpt lat="43.54908615945512" lon="10.92293049415814"><ele>290.5</ele><time>2026-05-04T09:56:00.001Z</time></trkpt><trkpt lat="43.54906878966024" lon="10.923128267707803"><ele>290.25</ele><time>2026-05-04T09:56:01.001Z</time></trkpt><trkpt lat="43.549069782373984" lon="10.923343272573112"><ele>290.0</ele><time>2026-05-04T09:56:02.001Z</time></trkpt><trkpt lat="43.54910056414137" lon="10.9235758997996"><ele>290.0</ele><time>2026-05-04T09:56:03.001Z</time></trkpt><trkpt lat="43.54915236775334" lon="10.923824532718507"><ele>290.0</ele><time>2026-05-04T09:56:04.001Z</time></trkpt><trkpt lat="43.54920471265951" lon="10.924082191544457"><ele>290.0</ele><time>2026-05-04T09:56:05.001Z</time></trkpt><trkpt lat="43.5492792222899" lon="10.924340746638519"><ele>291.33333333333337</ele><time>2026-05-04T09:56:06.001Z</time></trkpt><trkpt lat="43.54937770137354" lon="10.924579728747394"><ele>292.6666666666667</ele><time>2026-05-04T09:56:07.001Z</time></trkpt><trkpt lat="43.54948545875703" lon="10.924777799550224"><ele>294.0</ele><time>2026-05-04T09:56:08.001Z</time></trkpt><trkpt lat="43.54956090704272" lon="10.924958132860151"><ele>293.0</ele><time>2026-05-04T09:56:09.001Z</time></trkpt><trkpt lat="43.549600442104314" lon="10.925118359297677"><ele>292.0</ele><time>2026-05-04T09:56:10.001Z</time></trkpt><trkpt lat="43.54960916614194" lon="10.925298207806943"><ele>291.0</ele><time>2026-05-04T09:56:11.001Z</time></trkpt><trkpt lat="43.54958531151736" lon="10.925492751554518"><ele>290.0</ele><time>2026-05-04T09:56:12.001Z</time></trkpt><trkpt lat="43.54952571199291" lon="10.925680147780673"><ele>290.0</ele><time>2026-05-04T09:56:13.001Z</time></trkpt><trkpt lat="43.549429189594605" lon="10.925867458304262"><ele>290.0</ele><time>2026-05-04T09:56:14.001Z</time></trkpt><trkpt lat="43.5493171917693" lon="10.926070869385443"><ele>290.0</ele><time>2026-05-04T09:56:15.001Z</time></trkpt><trkpt lat="43.549197276234985" lon="10.926281010963006"><ele>286.6666666666667</ele><time>2026-05-04T09:56:16.001Z</time></trkpt><trkpt lat="43.5490958223915" lon="10.926480489105561"><ele>283.3333333333333</ele><time>2026-05-04T09:56:17.001Z</time></trkpt><trkpt lat="43.54900476332037" lon="10.926655203272842"><ele>280.0</ele><time>2026-05-04T09:56:18.001Z</time></trkpt><trkpt lat="43.548941659284424" lon="10.926823991587936"><ele>280.0</ele><time>2026-05-04T09:56:19.001Z</time></trkpt><trkpt lat="43.548922377835055" lon="10.926996974727837"><ele>280.0</ele><time>2026-05-04T09:56:20.001Z</time></trkpt><trkpt lat="43.54896292495457" lon="10.927187605438505"><ele>280.0</ele><time>2026-05-04T09:56:21.001Z</time></trkpt><trkpt lat="43.54906324951569" lon="10.927373178498547"><ele>280.0</ele><time>2026-05-04T09:56:22.001Z</time></trkpt><trkpt lat="43.54920672485773" lon="10.92753937791947"><ele>281.66666666666663</ele><time>2026-05-04T09:56:23.001Z</time></trkpt><trkpt lat="43.54935879234968" lon="10.927708108880248"><ele>283.3333333333333</ele><time>2026-05-04T09:56:24.001Z</time></trkpt><trkpt lat="43.549439970403796" lon="10.927930641694347"><ele>285.0</ele><time>2026-05-04T09:56:25.001Z</time></trkpt><trkpt lat="43.54951881348158" lon="10.928155123386421"><ele>278.3333333333333</ele><time>2026-05-04T09:56:26.001Z</time></trkpt><trkpt lat="43.54959872288766" lon="10.928401977773854"><ele>271.66666666666663</ele><time>2026-05-04T09:56:27.001Z</time></trkpt><trkpt lat="43.54968091589532" lon="10.928652839742568"><ele>265.0</ele><time>2026-05-04T09:56:28.001Z</time></trkpt><trkpt lat="43.54977798341843" lon="10.92891180141592"><ele>265.0</ele><time>2026-05-04T09:56:29.001Z</time></trkpt><trkpt lat="43.54986945585697" lon="10.929187237114865"><ele>265.0</ele><time>2026-05-04T09:56:30.001Z</time></trkpt><trkpt lat="43.549968321482694" lon="10.929458502247364"><ele>265.0</ele><time>2026-05-04T09:56:31.001Z</time></trkpt><trkpt lat="43.55008261565834" lon="10.92971791049788"><ele>266.0</ele><time>2026-05-04T09:56:32.001Z</time></trkpt><trkpt lat="43.55023465584067" lon="10.929965705084282"><ele>267.0</ele><time>2026-05-04T09:56:33.001Z</time></trkpt><trkpt lat="43.550380259987016" lon="10.930208897467296"><ele>263.5</ele><time>2026-05-04T09:56:34.001Z</time></trkpt><trkpt lat="43.55052658689758" lon="10.93046000206784"><ele>260.0</ele><time>2026-05-04T09:56:35.001Z</time></trkpt><trkpt lat="43.55065533072334" lon="10.930709540593416"><ele>260.6666666666667</ele><time>2026-05-04T09:56:36.001Z</time></trkpt><trkpt lat="43.55077087523251" lon="10.930937110109651"><ele>261.3333333333333</ele><time>2026-05-04T09:56:37.001Z</time></trkpt><trkpt lat="43.55087836168462" lon="10.931131794247623"><ele>262.0</ele><time>2026-05-04T09:56:38.001Z</time></trkpt><trkpt lat="43.5509979053307" lon="10.931283987238677"><ele>262.0</ele><time>2026-05-04T09:56:39.001Z</time></trkpt><trkpt lat="43.551134512037756" lon="10.931389554024916"><ele>262.0</ele><time>2026-05-04T09:56:40.001Z</time></trkpt><trkpt lat="43.55125960434751" lon="10.931470136198184"><ele>262.0</ele><time>2026-05-04T09:56:41.001Z</time></trkpt><trkpt lat="43.55134740217625" lon="10.931563429876205"><ele>262.0</ele><time>2026-05-04T09:56:42.001Z</time></trkpt><trkpt lat="43.55138428770699" lon="10.931649414136814"><ele>259.5</ele><time>2026-05-04T09:56:43.001Z</time></trkpt><trkpt lat="43.55145314422749" lon="10.931809412857529"><ele>257.0</ele><time>2026-05-04T09:56:46.001Z</time></trkpt><trkpt lat="43.55154739181254" lon="10.931905739685751"><ele>254.5</ele><time>2026-05-04T09:56:47.001Z</time></trkpt><trkpt lat="43.551606454929455" lon="10.932102445375822"><ele>252.0</ele><time>2026-05-04T09:56:48.001Z</time></trkpt><trkpt lat="43.55169897336843" lon="10.932278957465963"><ele>252.0</ele><time>2026-05-04T09:56:49.001Z</time></trkpt><trkpt lat="43.551790491722286" lon="10.932480375185415"><ele>252.0</ele><time>2026-05-04T09:56:50.001Z</time></trkpt><trkpt lat="43.55187807354212" lon="10.932708417570428"><ele>252.0</ele><time>2026-05-04T09:56:51.001Z</time></trkpt><trkpt lat="43.551962634531456" lon="10.932949818284351"><ele>250.66666666666669</ele><time>2026-05-04T09:56:52.001Z</time></trkpt><trkpt lat="43.55204626012705" lon="10.93320887725991"><ele>249.33333333333334</ele><time>2026-05-04T09:56:53.001Z</time></trkpt><trkpt lat="43.55213166006216" lon="10.933464894115899"><ele>248.0</ele><time>2026-05-04T09:56:54.001Z</time></trkpt><trkpt lat="43.55223677772071" lon="10.933717055198212"><ele>248.0</ele><time>2026-05-04T09:56:55.001Z</time></trkpt><trkpt lat="43.552370611128175" lon="10.933942390587706"><ele>248.0</ele><time>2026-05-04T09:56:56.001Z</time></trkpt><trkpt lat="43.552531112931746" lon="10.934152076207585"><ele>248.0</ele><time>2026-05-04T09:56:57.001Z</time></trkpt><trkpt lat="43.55271312496973" lon="10.93433769933121"><ele>245.33333333333334</ele><time>2026-05-04T09:56:58.001Z</time></trkpt><trkpt lat="43.552902885945905" lon="10.934496135057882"><ele>242.66666666666669</ele><time>2026-05-04T09:56:59.001Z</time></trkpt><trkpt lat="43.553078145433425" lon="10.934608199445238"><ele>240.0</ele><time>2026-05-04T09:57:00.001Z</time></trkpt><trkpt lat="43.553205325319475" lon="10.934668952068487"><ele>240.0</ele><time>2026-05-04T09:57:01.001Z</time></trkpt><trkpt lat="43.55328895538742" lon="10.934708437769919"><ele>240.0</ele><time>2026-05-04T09:57:02.001Z</time></trkpt><trkpt lat="43.553395855143656" lon="10.93475033688365"><ele>240.0</ele><time>2026-05-04T09:57:04.001Z</time></trkpt><trkpt lat="43.553459397051974" lon="10.934770289575715"><ele>240.0</ele><time>2026-05-04T09:57:05.001Z</time></trkpt><trkpt lat="43.553557821896554" lon="10.934788334050573"><ele>240.0</ele><time>2026-05-04T09:57:06.001Z</time></trkpt><trkpt lat="43.553685688697506" lon="10.934800916231266"><ele>239.75</ele><time>2026-05-04T09:57:07.001Z</time></trkpt><trkpt lat="43.55381798229637" lon="10.934815141796257"><ele>239.5</ele><time>2026-05-04T09:57:08.001Z</time></trkpt><trkpt lat="43.55396237779355" lon="10.934829002149957"><ele>239.25</ele><time>2026-05-04T09:57:09.001Z</time></trkpt><trkpt lat="43.554120959679615" lon="10.93483508743948"><ele>239.0</ele><time>2026-05-04T09:57:10.001Z</time></trkpt><trkpt lat="43.55429517895545" lon="10.934829960160036"><ele>239.0</ele><time>2026-05-04T09:57:11.001Z</time></trkpt><trkpt lat="43.55449004911016" lon="10.934838815443694"><ele>239.0</ele><time>2026-05-04T09:57:12.001Z</time></trkpt><trkpt lat="43.55468344621874" lon="10.934841089834425"><ele>239.0</ele><time>2026-05-04T09:57:13.001Z</time></trkpt><trkpt lat="43.554890004818446" lon="10.9348489154667"><ele>239.0</ele><time>2026-05-04T09:57:14.001Z</time></trkpt><trkpt lat="43.55510283878779" lon="10.934857414193045"><ele>239.0</ele><time>2026-05-04T09:57:15.001Z</time></trkpt><trkpt lat="43.55531930831824" lon="10.934867293692138"><ele>239.0</ele><time>2026-05-04T09:57:16.001Z</time></trkpt><trkpt lat="43.55553687004076" lon="10.934903548739141"><ele>239.5</ele><time>2026-05-04T09:57:17.001Z</time></trkpt><trkpt lat="43.55575089705883" lon="10.935014361938924"><ele>240.0</ele><time>2026-05-04T09:57:18.001Z</time></trkpt><trkpt lat="43.55595298724879" lon="10.935146447159072"><ele>240.0</ele><time>2026-05-04T09:57:19.001Z</time></trkpt><trkpt lat="43.55613196970869" lon="10.935329679282134"><ele>240.0</ele><time>2026-05-04T09:57:20.001Z</time></trkpt><trkpt lat="43.55628318975161" lon="10.935554534027734"><ele>240.0</ele><time>2026-05-04T09:57:21.001Z</time></trkpt><trkpt lat="43.55639329978425" lon="10.935808184778827"><ele>237.0</ele><time>2026-05-04T09:57:22.001Z</time></trkpt><trkpt lat="43.556469162168824" lon="10.936072084113507"><ele>234.0</ele><time>2026-05-04T09:57:23.001Z</time></trkpt><trkpt lat="43.5565112674322" lon="10.93635480299114"><ele>231.0</ele><time>2026-05-04T09:57:24.001Z</time></trkpt><trkpt lat="43.556551288873735" lon="10.936651381587614"><ele>231.0</ele><time>2026-05-04T09:57:25.001Z</time></trkpt><trkpt lat="43.55657297540972" lon="10.936929691123531"><ele>231.0</ele><time>2026-05-04T09:57:26.001Z</time></trkpt><trkpt lat="43.5565950632274" lon="10.937171024517795"><ele>231.0</ele><time>2026-05-04T09:57:27.001Z</time></trkpt><trkpt lat="43.556623591433414" lon="10.9373747438803"><ele>230.75</ele><time>2026-05-04T09:57:28.001Z</time></trkpt><trkpt lat="43.556662376357" lon="10.937552973880587"><ele>230.5</ele><time>2026-05-04T09:57:29.001Z</time></trkpt><trkpt lat="43.55672201731846" lon="10.937719661851247"><ele>230.25</ele><time>2026-05-04T09:57:30.001Z</time></trkpt><trkpt lat="43.556802070143114" lon="10.937878783227218"><ele>230.0</ele><time>2026-05-04T09:57:31.001Z</time></trkpt><trkpt lat="43.55689044075063" lon="10.93806450284163"><ele>230.0</ele><time>2026-05-04T09:57:32.001Z</time></trkpt><trkpt lat="43.55699482377015" lon="10.938245898500044"><ele>230.0</ele><time>2026-05-04T09:57:33.001Z</time></trkpt><trkpt lat="43.5571300724828" lon="10.938417282365771"><ele>230.0</ele><time>2026-05-04T09:57:34.001Z</time></trkpt><trkpt lat="43.55728014841224" lon="10.93857381093183"><ele>229.33333333333334</ele><time>2026-05-04T09:57:35.001Z</time></trkpt><trkpt lat="43.55743414011403" lon="10.938702349421241"><ele>228.66666666666669</ele><time>2026-05-04T09:57:36.001Z</time></trkpt><trkpt lat="43.55759533058055" lon="10.938797547814369"><ele>228.0</ele><time>2026-05-04T09:57:37.001Z</time></trkpt><trkpt lat="43.557762975272865" lon="10.938866361695379"><ele>227.33333333333331</ele><time>2026-05-04T09:57:38.001Z</time></trkpt><trkpt lat="43.55793718951321" lon="10.938916445580649"><ele>226.66666666666666</ele><time>2026-05-04T09:57:39.001Z</time></trkpt><trkpt lat="43.558120194609465" lon="10.93895029789783"><ele>226.0</ele><time>2026-05-04T09:57:40Z</time></trkpt><trkpt lat="43.55831754328497" lon="10.938954803946576"><ele>226.0</ele><time>2026-05-04T09:57:41Z</time></trkpt><trkpt lat="43.55851593359946" lon="10.938937393217296"><ele>226.0</ele><time>2026-05-04T09:57:42Z</time></trkpt><trkpt lat="43.5587182212157" lon="10.938908929375014"><ele>226.0</ele><time>2026-05-04T09:57:43Z</time></trkpt><trkpt lat="43.55892607105808" lon="10.938887608209352"><ele>224.33333333333331</ele><time>2026-05-04T09:57:44Z</time></trkpt><trkpt lat="43.559136017959595" lon="10.938877426273256"><ele>222.66666666666669</ele><time>2026-05-04T09:57:45Z</time></trkpt><trkpt lat="43.55934326083523" lon="10.93887082403789"><ele>221.0</ele><time>2026-05-04T09:57:46Z</time></trkpt><trkpt lat="43.55955410601589" lon="10.938875020401866"><ele>218.66666666666669</ele><time>2026-05-04T09:57:47Z</time></trkpt><trkpt lat="43.55976788636434" lon="10.938896781095915"><ele>216.33333333333331</ele><time>2026-05-04T09:57:48Z</time></trkpt><trkpt lat="43.55998535788502" lon="10.938945877719874"><ele>214.0</ele><time>2026-05-04T09:57:49Z</time></trkpt><trkpt lat="43.560195761165815" lon="10.939017987921426"><ele>213.66666666666666</ele><time>2026-05-04T09:57:50Z</time></trkpt><trkpt lat="43.56040534358072" lon="10.939106390685644"><ele>213.33333333333331</ele><time>2026-05-04T09:57:51Z</time></trkpt><trkpt lat="43.56061357589052" lon="10.9392076563102"><ele>213.0</ele><time>2026-05-04T09:57:52Z</time></trkpt><trkpt lat="43.56081348643803" lon="10.939311727406233"><ele>210.66666666666669</ele><time>2026-05-04T09:57:53Z</time></trkpt><trkpt lat="43.561002724320275" lon="10.93940595222734"><ele>208.33333333333334</ele><time>2026-05-04T09:57:54Z</time></trkpt><trkpt lat="43.561194657083064" lon="10.93948054542896"><ele>206.0</ele><time>2026-05-04T09:57:55Z</time></trkpt><trkpt lat="43.56140598923022" lon="10.93952823645806"><ele>203.0</ele><time>2026-05-04T09:57:56Z</time></trkpt><trkpt lat="43.56161444537758" lon="10.93954476872487"><ele>200.0</ele><time>2026-05-04T09:57:57Z</time></trkpt><trkpt lat="43.56183733058973" lon="10.939539433380128"><ele>197.0</ele><time>2026-05-04T09:57:58Z</time></trkpt><trkpt lat="43.56205123981558" lon="10.93951342553154"><ele>194.33333333333334</ele><time>2026-05-04T09:57:59Z</time></trkpt><trkpt lat="43.56227278047912" lon="10.93948193303625"><ele>191.66666666666669</ele><time>2026-05-04T09:58:00Z</time></trkpt><trkpt lat="43.56249205453086" lon="10.939452031465486"><ele>189.0</ele><time>2026-05-04T09:58:01Z</time></trkpt><trkpt lat="43.56272088116904" lon="10.93943462417615"><ele>189.0</ele><time>2026-05-04T09:58:02Z</time></trkpt><trkpt lat="43.5629435931472" lon="10.93943296165665"><ele>189.0</ele><time>2026-05-04T09:58:03Z</time></trkpt><trkpt lat="43.56317112075711" lon="10.939445897152634"><ele>189.0</ele><time>2026-05-04T09:58:04Z</time></trkpt><trkpt lat="43.56340244925276" lon="10.939457979423473"><ele>189.0</ele><time>2026-05-04T09:58:05Z</time></trkpt><trkpt lat="43.56363113411297" lon="10.939464093673006"><ele>188.33333333333334</ele><time>2026-05-04T09:58:06Z</time></trkpt><trkpt lat="43.563849554408066" lon="10.93946722516706"><ele>187.66666666666669</ele><time>2026-05-04T09:58:07Z</time></trkpt><trkpt lat="43.564072226034625" lon="10.9394598203122"><ele>187.0</ele><time>2026-05-04T09:58:08Z</time></trkpt><trkpt lat="43.56429044820024" lon="10.939438408654024"><ele>187.0</ele><time>2026-05-04T09:58:09Z</time></trkpt><trkpt lat="43.56451741419759" lon="10.93939745414515"><ele>187.0</ele><time>2026-05-04T09:58:10Z</time></trkpt><trkpt lat="43.56474496681299" lon="10.939326412858266"><ele>188.5</ele><time>2026-05-04T09:58:11Z</time></trkpt><trkpt lat="43.56498346207152" lon="10.939238654183363"><ele>190.0</ele><time>2026-05-04T09:58:12Z</time></trkpt><trkpt lat="43.5652329527109" lon="10.939153602704549"><ele>188.5</ele><time>2026-05-04T09:58:13Z</time></trkpt><trkpt lat="43.56548676322455" lon="10.939055537522744"><ele>187.0</ele><time>2026-05-04T09:58:14Z</time></trkpt><trkpt lat="43.565743143027404" lon="10.938923916298549"><ele>187.0</ele><time>2026-05-04T09:58:15Z</time></trkpt><trkpt lat="43.56599660593615" lon="10.938784330984639"><ele>187.0</ele><time>2026-05-04T09:58:16Z</time></trkpt><trkpt lat="43.56625267794937" lon="10.938679529689352"><ele>185.0</ele><time>2026-05-04T09:58:17Z</time></trkpt><trkpt lat="43.56650845436704" lon="10.93863217978115"><ele>183.0</ele><time>2026-05-04T09:58:18Z</time></trkpt><trkpt lat="43.56676932511686" lon="10.93862179189872"><ele>183.0</ele><time>2026-05-04T09:58:19Z</time></trkpt><trkpt lat="43.56702269961467" lon="10.93862150018496"><ele>183.0</ele><time>2026-05-04T09:58:20Z</time></trkpt><trkpt lat="43.5672622229813" lon="10.938574832441365"><ele>179.5</ele><time>2026-05-04T09:58:21Z</time></trkpt><trkpt lat="43.56751017619991" lon="10.938458581516318"><ele>176.0</ele><time>2026-05-04T09:58:22Z</time></trkpt><trkpt lat="43.56775403653373" lon="10.938283186833793"><ele>170.0</ele><time>2026-05-04T09:58:23Z</time></trkpt><trkpt lat="43.567973732142235" lon="10.938045603737773"><ele>164.0</ele><time>2026-05-04T09:58:24Z</time></trkpt><trkpt lat="43.5681487750286" lon="10.937827650973562"><ele>164.0</ele><time>2026-05-04T09:58:25Z</time></trkpt><trkpt lat="43.568304920068805" lon="10.937662200729008"><ele>164.0</ele><time>2026-05-04T09:58:26Z</time></trkpt><trkpt lat="43.56847921464222" lon="10.937554383198473"><ele>164.0</ele><time>2026-05-04T09:58:27Z</time></trkpt><trkpt lat="43.56868643451211" lon="10.937500346052403"><ele>160.66666666666666</ele><time>2026-05-04T09:58:28Z</time></trkpt><trkpt lat="43.568916475303126" lon="10.937504003032643"><ele>157.33333333333334</ele><time>2026-05-04T09:58:29Z</time></trkpt><trkpt lat="43.569118078759125" lon="10.937589820665101"><ele>154.0</ele><time>2026-05-04T09:58:30Z</time></trkpt><trkpt lat="43.569294253356844" lon="10.937706052829851"><ele>150.5</ele><time>2026-05-04T09:58:31Z</time></trkpt><trkpt lat="43.569522731220324" lon="10.937849783567806"><ele>147.0</ele><time>2026-05-04T09:58:32Z</time></trkpt><trkpt lat="43.56978793237132" lon="10.93802798160817"><ele>143.5</ele><time>2026-05-04T09:58:33Z</time></trkpt><trkpt lat="43.570081441390165" lon="10.938213173171135"><ele>140.0</ele><time>2026-05-04T09:58:34Z</time></trkpt><trkpt lat="43.57035067039325" lon="10.938379720892756"><ele>138.0</ele><time>2026-05-04T09:58:35Z</time></trkpt><trkpt lat="43.57058192844185" lon="10.938523962940579"><ele>136.0</ele><time>2026-05-04T09:58:36Z</time></trkpt><trkpt lat="43.570773079629284" lon="10.93865478763789"><ele>136.0</ele><time>2026-05-04T09:58:37Z</time></trkpt><trkpt lat="43.57093376849464" lon="10.938812626144529"><ele>136.0</ele><time>2026-05-04T09:58:38Z</time></trkpt><trkpt lat="43.57107230502919" lon="10.93902258887357"><ele>136.0</ele><time>2026-05-04T09:58:39Z</time></trkpt><trkpt lat="43.57122972129499" lon="10.939212036702127"><ele>135.5</ele><time>2026-05-04T09:58:40Z</time></trkpt><trkpt lat="43.57130694663973" lon="10.939517530266333"><ele>135.0</ele><time>2026-05-04T09:58:41Z</time></trkpt><trkpt lat="43.57138342156162" lon="10.939795608032153"><ele>128.5</ele><time>2026-05-04T09:58:42Z</time></trkpt><trkpt lat="43.571464141329706" lon="10.94008537145248"><ele>122.0</ele><time>2026-05-04T09:58:43Z</time></trkpt><trkpt lat="43.57157323746624" lon="10.940359614698304"><ele>122.0</ele><time>2026-05-04T09:58:44Z</time></trkpt><trkpt lat="43.57171610865203" lon="10.940600051628675"><ele>122.0</ele><time>2026-05-04T09:58:45Z</time></trkpt><trkpt lat="43.57189392149055" lon="10.940816542398881"><ele>118.0</ele><time>2026-05-04T09:58:46Z</time></trkpt><trkpt lat="43.57209725462872" lon="10.94100774953075"><ele>114.0</ele><time>2026-05-04T09:58:47Z</time></trkpt><trkpt lat="43.57232014646607" lon="10.941199727440052"><ele>114.0</ele><time>2026-05-04T09:58:48Z</time></trkpt><trkpt lat="43.57255524171574" lon="10.941398505887731"><ele>114.0</ele><time>2026-05-04T09:58:49Z</time></trkpt><trkpt lat="43.572799097782216" lon="10.941616508304273"><ele>109.0</ele><time>2026-05-04T09:58:50Z</time></trkpt><trkpt lat="43.5730263985087" lon="10.941839332618205"><ele>104.0</ele><time>2026-05-04T09:58:51Z</time></trkpt><trkpt lat="43.57322576740961" lon="10.942043540576982"><ele>104.0</ele><time>2026-05-04T09:58:52Z</time></trkpt><trkpt lat="43.5733970617289" lon="10.9422410324229"><ele>104.0</ele><time>2026-05-04T09:58:53Z</time></trkpt><trkpt lat="43.57354396428876" lon="10.942438164144397"><ele>104.0</ele><time>2026-05-04T09:58:54Z</time></trkpt><trkpt lat="43.57366262798311" lon="10.942661161706525"><ele>100.5</ele><time>2026-05-04T09:58:55Z</time></trkpt><trkpt lat="43.573748712347545" lon="10.942930710763562"><ele>97.0</ele><time>2026-05-04T09:58:56Z</time></trkpt><trkpt lat="43.5738221928522" lon="10.943250935021982"><ele>94.5</ele><time>2026-05-04T09:58:57Z</time></trkpt><trkpt lat="43.5738773224861" lon="10.943593632924406"><ele>92.0</ele><time>2026-05-04T09:58:58Z</time></trkpt><trkpt lat="43.5739499392036" lon="10.943920968300619"><ele>89.5</ele><time>2026-05-04T09:58:59Z</time></trkpt><trkpt lat="43.57407306949998" lon="10.944227259980835"><ele>87.0</ele><time>2026-05-04T09:59:00Z</time></trkpt><trkpt lat="43.57424834646244" lon="10.944510159858101"><ele>87.0</ele><time>2026-05-04T09:59:01Z</time></trkpt><trkpt lat="43.574455797696785" lon="10.944757121136336"><ele>87.0</ele><time>2026-05-04T09:59:02Z</time></trkpt><trkpt lat="43.57468378841031" lon="10.944944683829991"><ele>86.0</ele><time>2026-05-04T09:59:03Z</time></trkpt><trkpt lat="43.57492436351004" lon="10.945132926689622"><ele>85.0</ele><time>2026-05-04T09:59:04Z</time></trkpt><trkpt lat="43.575143731700976" lon="10.945363160540204"><ele>85.0</ele><time>2026-05-04T09:59:05Z</time></trkpt><trkpt lat="43.5753509659011" lon="10.945628013445381"><ele>85.0</ele><time>2026-05-04T09:59:06Z</time></trkpt><trkpt lat="43.57556236013483" lon="10.945907740508526"><ele>85.0</ele><time>2026-05-04T09:59:07Z</time></trkpt><trkpt lat="43.575776634888605" lon="10.946199862086104"><ele>85.0</ele><time>2026-05-04T09:59:08Z</time></trkpt><trkpt lat="43.57599581337397" lon="10.946503034493027"><ele>83.5</ele><time>2026-05-04T09:59:09Z</time></trkpt><trkpt lat="43.576220957434394" lon="10.946808101876657"><ele>82.0</ele><time>2026-05-04T09:59:10Z</time></trkpt><trkpt lat="43.57643863251504" lon="10.947094725379193"><ele>82.0</ele><time>2026-05-04T09:59:11Z</time></trkpt><trkpt lat="43.576647631389726" lon="10.947385951850848"><ele>82.0</ele><time>2026-05-04T09:59:12Z</time></trkpt><trkpt lat="43.576844123067644" lon="10.947697925940059"><ele>81.0</ele><time>2026-05-04T09:59:13Z</time></trkpt><trkpt lat="43.57701503604187" lon="10.94803264601581"><ele>80.0</ele><time>2026-05-04T09:59:14Z</time></trkpt><trkpt lat="43.57714973624718" lon="10.948384175422062"><ele>82.0</ele><time>2026-05-04T09:59:15Z</time></trkpt><trkpt lat="43.57725897709613" lon="10.948754256943046"><ele>84.0</ele><time>2026-05-04T09:59:16Z</time></trkpt><trkpt lat="43.57735859583822" lon="10.949111570967919"><ele>82.0</ele><time>2026-05-04T09:59:17Z</time></trkpt><trkpt lat="43.577455958297314" lon="10.949447057466351"><ele>80.0</ele><time>2026-05-04T09:59:18Z</time></trkpt><trkpt lat="43.57756972686135" lon="10.9497380109303"><ele>80.0</ele><time>2026-05-04T09:59:19Z</time></trkpt><trkpt lat="43.57772510120614" lon="10.950003174932407"><ele>80.0</ele><time>2026-05-04T09:59:20Z</time></trkpt><trkpt lat="43.57791653337844" lon="10.950230663581014"><ele>82.0</ele><time>2026-05-04T09:59:21Z</time></trkpt><trkpt lat="43.57814381370695" lon="10.950438381734617"><ele>84.0</ele><time>2026-05-04T09:59:22Z</time></trkpt><trkpt lat="43.578390056439716" lon="10.950611298559194"><ele>84.0</ele><time>2026-05-04T09:59:23Z</time></trkpt><trkpt lat="43.578641771334006" lon="10.95077094615084"><ele>84.0</ele><time>2026-05-04T09:59:24Z</time></trkpt><trkpt lat="43.57886613032589" lon="10.95092690303484"><ele>86.33333333333333</ele><time>2026-05-04T09:59:25Z</time></trkpt><trkpt lat="43.57904952276394" lon="10.951087311494934"><ele>88.66666666666666</ele><time>2026-05-04T09:59:26Z</time></trkpt><trkpt lat="43.579206633987056" lon="10.951263920280434"><ele>91.0</ele><time>2026-05-04T09:59:27Z</time></trkpt><trkpt lat="43.579342869910896" lon="10.9514636133802"><ele>91.0</ele><time>2026-05-04T09:59:28Z</time></trkpt><trkpt lat="43.57946330063587" lon="10.951697048564908"><ele>91.0</ele><time>2026-05-04T09:59:29Z</time></trkpt><trkpt lat="43.57957317155525" lon="10.951948168509098"><ele>91.0</ele><time>2026-05-04T09:59:30Z</time></trkpt><trkpt lat="43.579686303944925" lon="10.952203699355806"><ele>87.0</ele><time>2026-05-04T09:59:31Z</time></trkpt><trkpt lat="43.57980667034319" lon="10.952457956290703"><ele>83.0</ele><time>2026-05-04T09:59:32Z</time></trkpt><trkpt lat="43.579927937628746" lon="10.952701719523375"><ele>79.0</ele><time>2026-05-04T09:59:33Z</time></trkpt><trkpt lat="43.58005604397203" lon="10.95291978014563"><ele>77.0</ele><time>2026-05-04T09:59:34Z</time></trkpt><trkpt lat="43.5802027863091" lon="10.953093205112372"><ele>75.0</ele><time>2026-05-04T09:59:35Z</time></trkpt><trkpt lat="43.58038846320686" lon="10.953261351586468"><ele>73.0</ele><time>2026-05-04T09:59:36Z</time></trkpt><trkpt lat="43.58061493849931" lon="10.95343198843409"><ele>71.5</ele><time>2026-05-04T09:59:37Z</time></trkpt><trkpt lat="43.58085179974532" lon="10.95360087420263"><ele>70.0</ele><time>2026-05-04T09:59:38Z</time></trkpt><trkpt lat="43.58106878843154" lon="10.953743686475033"><ele>68.66666666666666</ele><time>2026-05-04T09:59:39Z</time></trkpt><trkpt lat="43.58125990568474" lon="10.95387720562813"><ele>67.33333333333333</ele><time>2026-05-04T09:59:40Z</time></trkpt><trkpt lat="43.581427485692856" lon="10.954027448408528"><ele>66.0</ele><time>2026-05-04T09:59:41Z</time></trkpt><trkpt lat="43.5815870994311" lon="10.954217518497568"><ele>65.33333333333333</ele><time>2026-05-04T09:59:42Z</time></trkpt><trkpt lat="43.58171874224969" lon="10.954449495314165"><ele>64.66666666666666</ele><time>2026-05-04T09:59:43Z</time></trkpt><trkpt lat="43.581818829573635" lon="10.954720601551214"><ele>64.0</ele><time>2026-05-04T09:59:44Z</time></trkpt><trkpt lat="43.58189137919742" lon="10.955019974330428"><ele>64.0</ele><time>2026-05-04T09:59:45Z</time></trkpt><trkpt lat="43.58196710627265" lon="10.955328004557131"><ele>64.0</ele><time>2026-05-04T09:59:46Z</time></trkpt><trkpt lat="43.582052443600624" lon="10.955630819175635"><ele>64.0</ele><time>2026-05-04T09:59:46.999Z</time></trkpt><trkpt lat="43.58212778759344" lon="10.955894509541839"><ele>64.0</ele><time>2026-05-04T09:59:48Z</time></trkpt><trkpt lat="43.58217604445836" lon="10.956079570329031"><ele>64.0</ele><time>2026-05-04T09:59:48.999Z</time></trkpt><trkpt lat="43.58220416350337" lon="10.956212262218548"><ele>64.0</ele><time>2026-05-04T09:59:49.999Z</time></trkpt><trkpt lat="43.5821929066194" lon="10.956325007500999"><ele>64.0</ele><time>2026-05-04T09:59:51.999Z</time></trkpt><trkpt lat="43.58219429341993" lon="10.956426017842908"><ele>64.0</ele><time>2026-05-04T09:59:54Z</time></trkpt><trkpt lat="43.58201028581221" lon="10.95662307286991"><ele>64.0</ele><time>2026-05-04T09:59:55Z</time></trkpt><trkpt lat="43.58191490928778" lon="10.95676985724351"><ele>64.0</ele><time>2026-05-04T09:59:56Z</time></trkpt><trkpt lat="43.581827093599394" lon="10.956908098910828"><ele>63.400000000000006</ele><time>2026-05-04T09:59:57Z</time></trkpt><trkpt lat="43.58172755097085" lon="10.956991816087099"><ele>62.800000000000004</ele><time>2026-05-04T09:59:58Z</time></trkpt><trkpt lat="43.58165618937404" lon="10.957100970292391"><ele>62.199999999999996</ele><time>2026-05-04T09:59:59Z</time></trkpt><trkpt lat="43.581598695215256" lon="10.957204894165166"><ele>61.599999999999994</ele><time>2026-05-04T10:00:00Z</time></trkpt><trkpt lat="43.5815317799385" lon="10.957288013989652"><ele>61.0</ele><time>2026-05-04T10:00:01Z</time></trkpt><trkpt lat="43.581480567845915" lon="10.957364987947095"><ele>60.99999999999999</ele><time>2026-05-04T10:00:02Z</time></trkpt><trkpt lat="43.581426994570606" lon="10.957444540905458"><ele>61.0</ele><time>2026-05-04T10:00:03Z</time></trkpt><trkpt lat="43.58136072633529" lon="10.957571216374557"><ele>61.0</ele><time>2026-05-04T10:00:05Z</time></trkpt><trkpt lat="43.58127896266888" lon="10.957658478605865"><ele>61.0</ele><time>2026-05-04T10:00:07Z</time></trkpt><trkpt lat="43.58124498791331" lon="10.957740306032855"><ele>60.99999999999999</ele><time>2026-05-04T10:00:08Z</time></trkpt><trkpt lat="43.5811941118729" lon="10.95781322597043"><ele>61.0</ele><time>2026-05-04T10:00:09Z</time></trkpt><trkpt lat="43.58113387711439" lon="10.957882954369923"><ele>61.33333333333333</ele><time>2026-05-04T10:00:10Z</time></trkpt><trkpt lat="43.58108824581402" lon="10.9579757720483"><ele>61.666666666666664</ele><time>2026-05-04T10:00:11Z</time></trkpt><trkpt lat="43.58105209297034" lon="10.958062192203093"><ele>62.0</ele><time>2026-05-04T10:00:12Z</time></trkpt><trkpt lat="43.58104841548162" lon="10.958171920890026"><ele>62.33333333333333</ele><time>2026-05-04T10:00:13Z</time></trkpt><trkpt lat="43.58103675489616" lon="10.958262019591348"><ele>62.666666666666664</ele><time>2026-05-04T10:00:14Z</time></trkpt><trkpt lat="43.58104538923903" lon="10.958349631944246"><ele>63.0</ele><time>2026-05-04T10:00:15Z</time></trkpt><trkpt lat="43.58106349239459" lon="10.958524604422099"><ele>63.0</ele><time>2026-05-04T10:00:17Z</time></trkpt><trkpt lat="43.581062018498756" lon="10.95865528067845"><ele>63.0</ele><time>2026-05-04T10:00:18Z</time></trkpt><trkpt lat="43.58105656516831" lon="10.958789055329648"><ele>63.0</ele><time>2026-05-04T10:00:19Z</time></trkpt><trkpt lat="43.58064052216754" lon="10.958976780857117"><ele>63.0</ele><time>2026-05-04T10:00:20Z</time></trkpt><trkpt lat="43.580563246468714" lon="10.959106935453308"><ele>63.0</ele><time>2026-05-04T10:00:21Z</time></trkpt><trkpt lat="43.580497844786635" lon="10.959219161252465"><ele>63.0</ele><time>2026-05-04T10:00:22Z</time></trkpt><trkpt lat="43.58042513037774" lon="10.959334482650837"><ele>63.0</ele><time>2026-05-04T10:00:23Z</time></trkpt><trkpt lat="43.58035831565269" lon="10.959452805503922"><ele>63.0</ele><time>2026-05-04T10:00:24Z</time></trkpt><trkpt lat="43.58029501893889" lon="10.959573673469757"><ele>63.333333333333336</ele><time>2026-05-04T10:00:25Z</time></trkpt><trkpt lat="43.58023253701413" lon="10.959693393074323"><ele>63.66666666666667</ele><time>2026-05-04T10:00:26Z</time></trkpt><trkpt lat="43.58017088396502" lon="10.959803634038837"><ele>64.0</ele><time>2026-05-04T10:00:27Z</time></trkpt><trkpt lat="43.58012027690409" lon="10.959901583836434"><ele>64.33333333333334</ele><time>2026-05-04T10:00:28Z</time></trkpt><trkpt lat="43.58007545915031" lon="10.959997361514962"><ele>64.66666666666667</ele><time>2026-05-04T10:00:29Z</time></trkpt><trkpt lat="43.580036103969896" lon="10.960065432394796"><ele>65.0</ele><time>2026-05-04T10:00:30Z</time></trkpt><trkpt lat="43.57997121823089" lon="10.960171479275312"><ele>65.0</ele><time>2026-05-04T10:00:32Z</time></trkpt><trkpt lat="43.580051468776254" lon="10.960305273814594"><ele>65.0</ele><time>2026-05-04T10:00:33Z</time></trkpt><trkpt lat="43.580029216571944" lon="10.96038760346641"><ele>65.0</ele><time>2026-05-04T10:00:36Z</time></trkpt><trkpt lat="43.58015620280319" lon="10.960557436315597"><ele>65.0</ele><time>2026-05-04T10:00:38Z</time></trkpt><trkpt lat="43.580198755299286" lon="10.96065807174792"><ele>65.0</ele><time>2026-05-04T10:00:39Z</time></trkpt><trkpt lat="43.58020889084474" lon="10.960775398166696"><ele>65.0</ele><time>2026-05-04T10:00:40Z</time></trkpt><trkpt lat="43.58018213619316" lon="10.9608965443958"><ele>65.0</ele><time>2026-05-04T10:00:41Z</time></trkpt><trkpt lat="43.5801237722426" lon="10.961033625240749"><ele>65.0</ele><time>2026-05-04T10:00:42Z</time></trkpt><trkpt lat="43.58005004967285" lon="10.961194883910048"><ele>65.0</ele><time>2026-05-04T10:00:43Z</time></trkpt><trkpt lat="43.579977429273384" lon="10.961380571604705"><ele>64.8</ele><time>2026-05-04T10:00:44Z</time></trkpt><trkpt lat="43.5799051921268" lon="10.961544248152698"><ele>64.6</ele><time>2026-05-04T10:00:45Z</time></trkpt><trkpt lat="43.5798523884027" lon="10.961682465115922"><ele>64.4</ele><time>2026-05-04T10:00:46Z</time></trkpt><trkpt lat="43.57982068600538" lon="10.9617901976604"><ele>64.2</ele><time>2026-05-04T10:00:47Z</time></trkpt><trkpt lat="43.57978689715711" lon="10.961871284046415"><ele>64.0</ele><time>2026-05-04T10:00:49Z</time></trkpt><trkpt lat="43.579845581653565" lon="10.961959832853061"><ele>63.800000000000004</ele><time>2026-05-04T10:01:01Z</time></trkpt><trkpt lat="43.57991733256919" lon="10.96203229293642"><ele>63.60000000000001</ele><time>2026-05-04T10:01:02Z</time></trkpt><trkpt lat="43.58000026866962" lon="10.962106575171518"><ele>63.4</ele><time>2026-05-04T10:01:03Z</time></trkpt><trkpt lat="43.58010118558277" lon="10.962168896353408"><ele>63.2</ele><time>2026-05-04T10:01:04Z</time></trkpt><trkpt lat="43.58020583515605" lon="10.962258029866355"><ele>63.0</ele><time>2026-05-04T10:01:05Z</time></trkpt><trkpt lat="43.58031867779308" lon="10.9623494272522"><ele>63.0</ele><time>2026-05-04T10:01:06Z</time></trkpt><trkpt lat="43.58043271723388" lon="10.962436622693488"><ele>63.0</ele><time>2026-05-04T10:01:07Z</time></trkpt><trkpt lat="43.580536348812835" lon="10.96252418990651"><ele>63.0</ele><time>2026-05-04T10:01:08Z</time></trkpt><trkpt lat="43.58062517144039" lon="10.962613252186403"><ele>63.0</ele><time>2026-05-04T10:01:09Z</time></trkpt><trkpt lat="43.5807094112546" lon="10.9627389858458"><ele>62.5</ele><time>2026-05-04T10:01:10Z</time></trkpt><trkpt lat="43.58079360962391" lon="10.962886303427796"><ele>62.0</ele><time>2026-05-04T10:01:11Z</time></trkpt><trkpt lat="43.58087925088196" lon="10.96303753655796"><ele>61.5</ele><time>2026-05-04T10:01:12Z</time></trkpt><trkpt lat="43.580971219210795" lon="10.963183065201893"><ele>61.0</ele><time>2026-05-04T10:01:13Z</time></trkpt><trkpt lat="43.581060598911215" lon="10.963322138896189"><ele>60.8</ele><time>2026-05-04T10:01:14Z</time></trkpt><trkpt lat="43.581146626275775" lon="10.963451190495277"><ele>60.599999999999994</ele><time>2026-05-04T10:01:15Z</time></trkpt><trkpt lat="43.58121518551477" lon="10.963553919920873"><ele>60.4</ele><time>2026-05-04T10:01:16Z</time></trkpt><trkpt lat="43.58125650077082" lon="10.963649439832293"><ele>60.2</ele><time>2026-05-04T10:01:17Z</time></trkpt><trkpt lat="43.58119458399902" lon="10.963809588473033"><ele>60.0</ele><time>2026-05-04T10:01:19Z</time></trkpt><trkpt lat="43.581183596321715" lon="10.963917243659003"><ele>60.0</ele><time>2026-05-04T10:01:20Z</time></trkpt><trkpt lat="43.581148013704194" lon="10.964047366329753"><ele>60.0</ele><time>2026-05-04T10:01:21Z</time></trkpt><trkpt lat="43.58112101612691" lon="10.964198990728654"><ele>60.0</ele><time>2026-05-04T10:01:22Z</time></trkpt><trkpt lat="43.58110063592039" lon="10.964371535351782"><ele>60.0</ele><time>2026-05-04T10:01:23Z</time></trkpt><trkpt lat="43.581051142498424" lon="10.964547104086906"><ele>60.0</ele><time>2026-05-04T10:01:24Z</time></trkpt><trkpt lat="43.58103138800664" lon="10.964703278795175"><ele>60.0</ele><time>2026-05-04T10:01:25Z</time></trkpt><trkpt lat="43.581005374473705" lon="10.964810970713826"><ele>60.0</ele><time>2026-05-04T10:01:26Z</time></trkpt><trkpt lat="43.580977417468965" lon="10.96489324629149"><ele>60.0</ele><time>2026-05-04T10:01:27Z</time></trkpt><trkpt lat="43.58083270860606" lon="10.964889566562505"><ele>60.0</ele><time>2026-05-04T10:01:30Z</time></trkpt><trkpt lat="43.580718860349435" lon="10.964846032916402"><ele>60.0</ele><time>2026-05-04T10:01:31Z</time></trkpt><trkpt lat="43.580565663740394" lon="10.964806948899547"><ele>60.0</ele><time>2026-05-04T10:01:32Z</time></trkpt><trkpt lat="43.58038310375277" lon="10.9647282748092"><ele>60.0</ele><time>2026-05-04T10:01:33Z</time></trkpt><trkpt lat="43.580165966059894" lon="10.964644772472885"><ele>61.0</ele><time>2026-05-04T10:01:34Z</time></trkpt><trkpt lat="43.579929389709356" lon="10.964553704778247"><ele>62.0</ele><time>2026-05-04T10:01:35Z</time></trkpt><trkpt lat="43.57967586957117" lon="10.96445770013374"><ele>62.5</ele><time>2026-05-04T10:01:36Z</time></trkpt><trkpt lat="43.57940070560183" lon="10.964353739282638"><ele>63.0</ele><time>2026-05-04T10:01:37Z</time></trkpt><trkpt lat="43.57909492106431" lon="10.964241204690033"><ele>63.0</ele><time>2026-05-04T10:01:38Z</time></trkpt><trkpt lat="43.57876532788593" lon="10.964121686879444"><ele>63.0</ele><time>2026-05-04T10:01:39Z</time></trkpt><trkpt lat="43.578404093031" lon="10.963990315660102"><ele>62.5</ele><time>2026-05-04T10:01:40Z</time></trkpt><trkpt lat="43.57802559299406" lon="10.96383625073416"><ele>62.0</ele><time>2026-05-04T10:01:41Z</time></trkpt><trkpt lat="43.577625847820734" lon="10.963742272968918"><ele>64.0</ele><time>2026-05-04T10:01:42Z</time></trkpt><trkpt lat="43.57721288831019" lon="10.963640441078576"><ele>66.0</ele><time>2026-05-04T10:01:43Z</time></trkpt><trkpt lat="43.57679070668817" lon="10.963542159194573"><ele>70.0</ele><time>2026-05-04T10:01:44Z</time></trkpt><trkpt lat="43.57637263100679" lon="10.963445747016603"><ele>74.0</ele><time>2026-05-04T10:01:45Z</time></trkpt><trkpt lat="43.57598261210401" lon="10.963352990670783"><ele>78.0</ele><time>2026-05-04T10:01:46Z</time></trkpt><trkpt lat="43.575658111905234" lon="10.96327545590689"><ele>82.0</ele><time>2026-05-04T10:01:47Z</time></trkpt><trkpt lat="43.57539970363002" lon="10.963212618222922"><ele>85.0</ele><time>2026-05-04T10:01:48Z</time></trkpt><trkpt lat="43.575188557816844" lon="10.96316480632908"><ele>88.0</ele><time>2026-05-04T10:01:49Z</time></trkpt><trkpt lat="43.57499315586286" lon="10.963121074951799"><ele>91.0</ele><time>2026-05-04T10:01:50Z</time></trkpt><trkpt lat="43.57481672427222" lon="10.963082948908907"><ele>91.0</ele><time>2026-05-04T10:01:51Z</time></trkpt><trkpt lat="43.574638523623705" lon="10.963024221256587"><ele>91.0</ele><time>2026-05-04T10:01:51.999Z</time></trkpt><trkpt lat="43.57444205326549" lon="10.962977577715769"><ele>91.0</ele><time>2026-05-04T10:01:52.999Z</time></trkpt><trkpt lat="43.57425158399808" lon="10.96293228379031"><ele>94.0</ele><time>2026-05-04T10:01:53.999Z</time></trkpt><trkpt lat="43.57404922800867" lon="10.962884163183492"><ele>97.0</ele><time>2026-05-04T10:01:54.999Z</time></trkpt><trkpt lat="43.57383097627907" lon="10.962832262539767"><ele>100.0</ele><time>2026-05-04T10:01:55.999Z</time></trkpt><trkpt lat="43.57360677566207" lon="10.962778947239707"><ele>103.0</ele><time>2026-05-04T10:01:56.999Z</time></trkpt><trkpt lat="43.5733781238176" lon="10.962743784448168"><ele>106.0</ele><time>2026-05-04T10:01:57.999Z</time></trkpt><trkpt lat="43.57314183600576" lon="10.962674857933974"><ele>106.0</ele><time>2026-05-04T10:01:58.999Z</time></trkpt><trkpt lat="43.572914779141826" lon="10.962618238264238"><ele>106.0</ele><time>2026-05-04T10:01:59.999Z</time></trkpt><trkpt lat="43.572695104434416" lon="10.962567835212326"><ele>108.5</ele><time>2026-05-04T10:02:00.999Z</time></trkpt><trkpt lat="43.57247457370366" lon="10.96253728627832"><ele>111.0</ele><time>2026-05-04T10:02:01.999Z</time></trkpt><trkpt lat="43.57224355851415" lon="10.962544635942916"><ele>114.5</ele><time>2026-05-04T10:02:02.999Z</time></trkpt><trkpt lat="43.57199925861219" lon="10.962587942234208"><ele>118.0</ele><time>2026-05-04T10:02:03.999Z</time></trkpt><trkpt lat="43.57177108398276" lon="10.962645680907507"><ele>118.0</ele><time>2026-05-04T10:02:04.999Z</time></trkpt><trkpt lat="43.57156382763753" lon="10.962725049001307"><ele>118.0</ele><time>2026-05-04T10:02:05.999Z</time></trkpt><trkpt lat="43.57135244460222" lon="10.962846651641462"><ele>118.0</ele><time>2026-05-04T10:02:06.999Z</time></trkpt><trkpt lat="43.571136363549954" lon="10.963008023059993"><ele>123.5</ele><time>2026-05-04T10:02:07.999Z</time></trkpt><trkpt lat="43.57090217624255" lon="10.96315415615973"><ele>129.0</ele><time>2026-05-04T10:02:08.999Z</time></trkpt><trkpt lat="43.57071067938063" lon="10.963285073612923"><ele>125.0</ele><time>2026-05-04T10:02:09.999Z</time></trkpt><trkpt lat="43.57055190558119" lon="10.963395139251208"><ele>121.0</ele><time>2026-05-04T10:02:10.999Z</time></trkpt><trkpt lat="43.57040986906164" lon="10.963488545651593"><ele>117.0</ele><time>2026-05-04T10:02:11.999Z</time></trkpt><trkpt lat="43.570257093308925" lon="10.963472232611368"><ele>116.33333333333334</ele><time>2026-05-04T10:02:13Z</time></trkpt><trkpt lat="43.5701171950172" lon="10.963428113224602"><ele>115.66666666666667</ele><time>2026-05-04T10:02:14Z</time></trkpt><trkpt lat="43.56997298307828" lon="10.963311610145832"><ele>115.0</ele><time>2026-05-04T10:02:15Z</time></trkpt><trkpt lat="43.56987666099049" lon="10.963141521325378"><ele>121.0</ele><time>2026-05-04T10:02:16Z</time></trkpt><trkpt lat="43.56980481561612" lon="10.962912701808255"><ele>127.0</ele><time>2026-05-04T10:02:17Z</time></trkpt><trkpt lat="43.5697244538248" lon="10.962654495496865"><ele>133.0</ele><time>2026-05-04T10:02:18Z</time></trkpt><trkpt lat="43.56965561891915" lon="10.962377471693992"><ele>133.66666666666669</ele><time>2026-05-04T10:02:19Z</time></trkpt><trkpt lat="43.569567703568595" lon="10.962135887245651"><ele>134.33333333333334</ele><time>2026-05-04T10:02:20Z</time></trkpt><trkpt lat="43.56943671137656" lon="10.961909204244998"><ele>135.0</ele><time>2026-05-04T10:02:21Z</time></trkpt><trkpt lat="43.56926199573856" lon="10.961692027679852"><ele>135.0</ele><time>2026-05-04T10:02:22Z</time></trkpt><trkpt lat="43.569061186966834" lon="10.961504812307448"><ele>135.0</ele><time>2026-05-04T10:02:23Z</time></trkpt><trkpt lat="43.56884401144357" lon="10.961337686696487"><ele>134.5</ele><time>2026-05-04T10:02:24Z</time></trkpt><trkpt lat="43.56862355458708" lon="10.961153042333052"><ele>134.0</ele><time>2026-05-04T10:02:25Z</time></trkpt><trkpt lat="43.56841419247015" lon="10.960961195886181"><ele>138.0</ele><time>2026-05-04T10:02:26Z</time></trkpt><trkpt lat="43.5682274397656" lon="10.96079446282273"><ele>142.0</ele><time>2026-05-04T10:02:27Z</time></trkpt><trkpt lat="43.56804895547539" lon="10.96063679713575"><ele>146.0</ele><time>2026-05-04T10:02:28Z</time></trkpt><trkpt lat="43.567876179559775" lon="10.960514661399047"><ele>143.33333333333331</ele><time>2026-05-04T10:02:29Z</time></trkpt><trkpt lat="43.56771323198672" lon="10.960431566054154"><ele>140.66666666666666</ele><time>2026-05-04T10:02:30Z</time></trkpt><trkpt lat="43.56757374122451" lon="10.96037003116618"><ele>138.0</ele><time>2026-05-04T10:02:31Z</time></trkpt><trkpt lat="43.567441794215526" lon="10.960301795466716"><ele>138.0</ele><time>2026-05-04T10:02:32Z</time></trkpt><trkpt lat="43.56733102487797" lon="10.960220818638955"><ele>138.0</ele><time>2026-05-04T10:02:33Z</time></trkpt><trkpt lat="43.56720523043193" lon="10.960151836293871"><ele>138.0</ele><time>2026-05-04T10:02:34Z</time></trkpt><trkpt lat="43.56704952333511" lon="10.960085727249165"><ele>138.0</ele><time>2026-05-04T10:02:35Z</time></trkpt><trkpt lat="43.56689894366937" lon="10.959956353474613"><ele>139.0</ele><time>2026-05-04T10:02:36Z</time></trkpt><trkpt lat="43.56676730198099" lon="10.9597919764508"><ele>140.0</ele><time>2026-05-04T10:02:37Z</time></trkpt><trkpt lat="43.56665897561541" lon="10.959613248985804"><ele>141.0</ele><time>2026-05-04T10:02:38Z</time></trkpt><trkpt lat="43.56657483458152" lon="10.959456211442133"><ele>141.0</ele><time>2026-05-04T10:02:39Z</time></trkpt><trkpt lat="43.56650413707607" lon="10.959334614346059"><ele>141.0</ele><time>2026-05-04T10:02:40Z</time></trkpt><trkpt lat="43.566437467009706" lon="10.959230257992552"><ele>141.0</ele><time>2026-05-04T10:02:41Z</time></trkpt><trkpt lat="43.56636405601421" lon="10.959122084070227"><ele>141.0</ele><time>2026-05-04T10:02:42Z</time></trkpt><trkpt lat="43.56627885366453" lon="10.959005376521237"><ele>141.0</ele><time>2026-05-04T10:02:43Z</time></trkpt><trkpt lat="43.5661833724526" lon="10.958880709556365"><ele>144.0</ele><time>2026-05-04T10:02:44Z</time></trkpt><trkpt lat="43.56607326078434" lon="10.958760792609667"><ele>147.0</ele><time>2026-05-04T10:02:45Z</time></trkpt><trkpt lat="43.56593941763715" lon="10.958636363440009"><ele>150.0</ele><time>2026-05-04T10:02:46Z</time></trkpt><trkpt lat="43.56580332397514" lon="10.958507838135807"><ele>149.66666666666666</ele><time>2026-05-04T10:02:47Z</time></trkpt><trkpt lat="43.56567507874732" lon="10.958350759072852"><ele>149.33333333333331</ele><time>2026-05-04T10:02:48Z</time></trkpt><trkpt lat="43.56551743544798" lon="10.958215675048418"><ele>149.0</ele><time>2026-05-04T10:02:49Z</time></trkpt><trkpt lat="43.56538145351401" lon="10.958060200756671"><ele>150.66666666666666</ele><time>2026-05-04T10:02:50Z</time></trkpt><trkpt lat="43.56524637131032" lon="10.95788447377736"><ele>152.33333333333334</ele><time>2026-05-04T10:02:51Z</time></trkpt><trkpt lat="43.56512656977037" lon="10.957700487929966"><ele>154.0</ele><time>2026-05-04T10:02:52Z</time></trkpt><trkpt lat="43.565005944286355" lon="10.957487889554185"><ele>155.66666666666669</ele><time>2026-05-04T10:02:53Z</time></trkpt><trkpt lat="43.56489197879996" lon="10.957274453493017"><ele>157.33333333333334</ele><time>2026-05-04T10:02:54Z</time></trkpt><trkpt lat="43.564792275656835" lon="10.957071177258902"><ele>159.0</ele><time>2026-05-04T10:02:55Z</time></trkpt><trkpt lat="43.564703019937895" lon="10.956893865830446"><ele>159.0</ele><time>2026-05-04T10:02:56Z</time></trkpt><trkpt lat="43.5646196439243" lon="10.956739635139849"><ele>159.0</ele><time>2026-05-04T10:02:57Z</time></trkpt><trkpt lat="43.564533244112965" lon="10.95658366120064"><ele>159.0</ele><time>2026-05-04T10:02:58Z</time></trkpt><trkpt lat="43.564431269069075" lon="10.956419055054202"><ele>159.0</ele><time>2026-05-04T10:02:59Z</time></trkpt><trkpt lat="43.56431339851071" lon="10.956258230637289"><ele>161.33333333333334</ele><time>2026-05-04T10:03:00Z</time></trkpt><trkpt lat="43.564177205937675" lon="10.956091147210428"><ele>163.66666666666669</ele><time>2026-05-04T10:03:01Z</time></trkpt><trkpt lat="43.564055094814144" lon="10.95590621659138"><ele>166.0</ele><time>2026-05-04T10:03:02Z</time></trkpt><trkpt lat="43.56392652922625" lon="10.95572579845759"><ele>166.0</ele><time>2026-05-04T10:03:03Z</time></trkpt><trkpt lat="43.56381393837284" lon="10.955525407170427"><ele>166.0</ele><time>2026-05-04T10:03:04Z</time></trkpt><trkpt lat="43.563724575061194" lon="10.955320447315756"><ele>166.0</ele><time>2026-05-04T10:03:05Z</time></trkpt><trkpt lat="43.56365069217843" lon="10.955114477703043"><ele>166.66666666666669</ele><time>2026-05-04T10:03:06Z</time></trkpt><trkpt lat="43.56356844617905" lon="10.954908347233925"><ele>167.33333333333334</ele><time>2026-05-04T10:03:07Z</time></trkpt><trkpt lat="43.563500557034175" lon="10.954693709730178"><ele>168.0</ele><time>2026-05-04T10:03:08Z</time></trkpt><trkpt lat="43.56343344710874" lon="10.954489472896313"><ele>168.0</ele><time>2026-05-04T10:03:09Z</time></trkpt><trkpt lat="43.56336251659308" lon="10.954263171859568"><ele>168.0</ele><time>2026-05-04T10:03:10Z</time></trkpt><trkpt lat="43.56329211611816" lon="10.954047477826718"><ele>168.0</ele><time>2026-05-04T10:03:11Z</time></trkpt><trkpt lat="43.563216144278805" lon="10.953812976167018"><ele>168.0</ele><time>2026-05-04T10:03:12Z</time></trkpt><trkpt lat="43.56314041669099" lon="10.953575892198916"><ele>168.0</ele><time>2026-05-04T10:03:13Z</time></trkpt><trkpt lat="43.563060077908965" lon="10.953321481251916"><ele>168.0</ele><time>2026-05-04T10:03:14Z</time></trkpt><trkpt lat="43.562976916008104" lon="10.95306509577354"><ele>167.33333333333334</ele><time>2026-05-04T10:03:15Z</time></trkpt><trkpt lat="43.562887247973634" lon="10.952808143360176"><ele>166.66666666666669</ele><time>2026-05-04T10:03:16Z</time></trkpt><trkpt lat="43.56278920116435" lon="10.952554431139797"><ele>166.0</ele><time>2026-05-04T10:03:17Z</time></trkpt><trkpt lat="43.56267485771792" lon="10.952304952112067"><ele>167.33333333333334</ele><time>2026-05-04T10:03:18Z</time></trkpt><trkpt lat="43.56254381367028" lon="10.952074705250816"><ele>168.66666666666666</ele><time>2026-05-04T10:03:19Z</time></trkpt><trkpt lat="43.56239504990132" lon="10.951853061656452"><ele>170.0</ele><time>2026-05-04T10:03:20Z</time></trkpt><trkpt lat="43.56224942947702" lon="10.95164235888658"><ele>172.66666666666666</ele><time>2026-05-04T10:03:21Z</time></trkpt><trkpt lat="43.56211691175366" lon="10.951440115768955"><ele>175.33333333333334</ele><time>2026-05-04T10:03:22Z</time></trkpt><trkpt lat="43.56198838528816" lon="10.951251270403247"><ele>178.0</ele><time>2026-05-04T10:03:23Z</time></trkpt><trkpt lat="43.56184037695608" lon="10.951093072484332"><ele>178.0</ele><time>2026-05-04T10:03:24Z</time></trkpt><trkpt lat="43.56166543388154" lon="10.950997089652944"><ele>178.0</ele><time>2026-05-04T10:03:25Z</time></trkpt><trkpt lat="43.56146642266814" lon="10.950972018446873"><ele>178.0</ele><time>2026-05-04T10:03:26Z</time></trkpt><trkpt lat="43.561244835654456" lon="10.951000509770543"><ele>181.0</ele><time>2026-05-04T10:03:27Z</time></trkpt><trkpt lat="43.56098791100329" lon="10.951006606573353"><ele>184.0</ele><time>2026-05-04T10:03:28Z</time></trkpt><trkpt lat="43.560697077922164" lon="10.951018576057638"><ele>184.0</ele><time>2026-05-04T10:03:29Z</time></trkpt><trkpt lat="43.56038343998819" lon="10.951034718164388"><ele>184.0</ele><time>2026-05-04T10:03:30Z</time></trkpt><trkpt lat="43.56005374119154" lon="10.951042888693104"><ele>188.0</ele><time>2026-05-04T10:03:31Z</time></trkpt><trkpt lat="43.55972444905353" lon="10.951030066854315"><ele>192.0</ele><time>2026-05-04T10:03:32Z</time></trkpt><trkpt lat="43.55942616295344" lon="10.950998975323136"><ele>193.5</ele><time>2026-05-04T10:03:33Z</time></trkpt><trkpt lat="43.559156716349875" lon="10.95098494351802"><ele>195.0</ele><time>2026-05-04T10:03:34Z</time></trkpt><trkpt lat="43.55891512093693" lon="10.950947487594455"><ele>195.0</ele><time>2026-05-04T10:03:35Z</time></trkpt><trkpt lat="43.558704863423756" lon="10.950918833625128"><ele>195.0</ele><time>2026-05-04T10:03:36Z</time></trkpt><trkpt lat="43.558507125292756" lon="10.950896398401314"><ele>195.0</ele><time>2026-05-04T10:03:37Z</time></trkpt><trkpt lat="43.558318751760744" lon="10.950907994739454"><ele>194.66666666666669</ele><time>2026-05-04T10:03:38Z</time></trkpt><trkpt lat="43.55812748325998" lon="10.950983536140946"><ele>194.33333333333334</ele><time>2026-05-04T10:03:39Z</time></trkpt><trkpt lat="43.55793014679035" lon="10.951114009722316"><ele>194.0</ele><time>2026-05-04T10:03:40Z</time></trkpt><trkpt lat="43.5577335523194" lon="10.951271953192498"><ele>194.0</ele><time>2026-05-04T10:03:41Z</time></trkpt><trkpt lat="43.55752979138603" lon="10.951364164567318"><ele>194.0</ele><time>2026-05-04T10:03:42Z</time></trkpt><trkpt lat="43.55730911918132" lon="10.951480454458933"><ele>194.0</ele><time>2026-05-04T10:03:43Z</time></trkpt><trkpt lat="43.55707323826267" lon="10.951551755275144"><ele>194.0</ele><time>2026-05-04T10:03:44Z</time></trkpt><trkpt lat="43.556826973293056" lon="10.951633980363436"><ele>193.0</ele><time>2026-05-04T10:03:45Z</time></trkpt><trkpt lat="43.55658973967893" lon="10.95171984715241"><ele>192.0</ele><time>2026-05-04T10:03:46Z</time></trkpt><trkpt lat="43.55634677218176" lon="10.951801792623808"><ele>198.5</ele><time>2026-05-04T10:03:47Z</time></trkpt><trkpt lat="43.55610096905189" lon="10.951876754578718"><ele>205.0</ele><time>2026-05-04T10:03:48Z</time></trkpt><trkpt lat="43.55585261373857" lon="10.951983370921631"><ele>205.0</ele><time>2026-05-04T10:03:49Z</time></trkpt><trkpt lat="43.5555977561352" lon="10.952100696884823"><ele>205.0</ele><time>2026-05-04T10:03:50Z</time></trkpt><trkpt lat="43.55533264323903" lon="10.952258207195385"><ele>210.0</ele><time>2026-05-04T10:03:51Z</time></trkpt><trkpt lat="43.55510299857669" lon="10.952398609011095"><ele>215.0</ele><time>2026-05-04T10:03:52Z</time></trkpt><trkpt lat="43.55490180412185" lon="10.952517160352143"><ele>216.66666666666669</ele><time>2026-05-04T10:03:53Z</time></trkpt><trkpt lat="43.55470558553945" lon="10.952618489567225"><ele>218.33333333333331</ele><time>2026-05-04T10:03:54Z</time></trkpt><trkpt lat="43.55449629757799" lon="10.952680844828041"><ele>220.0</ele><time>2026-05-04T10:03:55Z</time></trkpt><trkpt lat="43.55429448321235" lon="10.952718589994824"><ele>221.33333333333331</ele><time>2026-05-04T10:03:56Z</time></trkpt><trkpt lat="43.554109329300196" lon="10.952755186174164"><ele>222.66666666666669</ele><time>2026-05-04T10:03:57Z</time></trkpt><trkpt lat="43.55394426523237" lon="10.952791115841524"><ele>224.0</ele><time>2026-05-04T10:03:57.999Z</time></trkpt><trkpt lat="43.55376795269579" lon="10.952856478366563"><ele>225.33333333333334</ele><time>2026-05-04T10:03:58.999Z</time></trkpt><trkpt lat="43.553567877585316" lon="10.952898167069913"><ele>226.66666666666669</ele><time>2026-05-04T10:03:59.999Z</time></trkpt><trkpt lat="43.553366626852124" lon="10.952958958909964"><ele>228.0</ele><time>2026-05-04T10:04:00.999Z</time></trkpt><trkpt lat="43.55315933253111" lon="10.953020422581625"><ele>228.0</ele><time>2026-05-04T10:04:01.999Z</time></trkpt><trkpt lat="43.55294589338528" lon="10.953107064600289"><ele>228.0</ele><time>2026-05-04T10:04:02.999Z</time></trkpt><trkpt lat="43.55271523196508" lon="10.953153985656106"><ele>228.33333333333331</ele><time>2026-05-04T10:04:03.999Z</time></trkpt><trkpt lat="43.552515035429884" lon="10.95321854177327"><ele>228.66666666666666</ele><time>2026-05-04T10:04:04.999Z</time></trkpt><trkpt lat="43.552352970951404" lon="10.953285599870604"><ele>229.0</ele><time>2026-05-04T10:04:05.999Z</time></trkpt><trkpt lat="43.55218534640172" lon="10.953375000768496"><ele>229.66666666666666</ele><time>2026-05-04T10:04:06.999Z</time></trkpt><trkpt lat="43.55203105179919" lon="10.953517130903975"><ele>230.33333333333331</ele><time>2026-05-04T10:04:07.999Z</time></trkpt><trkpt lat="43.55189923808683" lon="10.95368794504065"><ele>231.0</ele><time>2026-05-04T10:04:08.999Z</time></trkpt><trkpt lat="43.551762765592734" lon="10.953827631461369"><ele>231.0</ele><time>2026-05-04T10:04:09.999Z</time></trkpt><trkpt lat="43.55163454573683" lon="10.95397650170827"><ele>231.0</ele><time>2026-05-04T10:04:10.999Z</time></trkpt><trkpt lat="43.55149809859015" lon="10.954123764727886"><ele>231.0</ele><time>2026-05-04T10:04:11.999Z</time></trkpt><trkpt lat="43.55134399405487" lon="10.95427152537585"><ele>231.0</ele><time>2026-05-04T10:04:12.999Z</time></trkpt><trkpt lat="43.551173117702454" lon="10.954405476017037"><ele>231.0</ele><time>2026-05-04T10:04:13.999Z</time></trkpt><trkpt lat="43.55098075606326" lon="10.95453585228596"><ele>231.0</ele><time>2026-05-04T10:04:14.999Z</time></trkpt><trkpt lat="43.55078710086442" lon="10.954681393787238"><ele>231.0</ele><time>2026-05-04T10:04:15.999Z</time></trkpt><trkpt lat="43.55057820525198" lon="10.95480257444391"><ele>231.0</ele><time>2026-05-04T10:04:16.999Z</time></trkpt><trkpt lat="43.55039714121977" lon="10.954930144281604"><ele>231.0</ele><time>2026-05-04T10:04:17.999Z</time></trkpt><trkpt lat="43.55023174240522" lon="10.955093299175745"><ele>232.66666666666669</ele><time>2026-05-04T10:04:18.999Z</time></trkpt><trkpt lat="43.55009108242113" lon="10.955317515628236"><ele>234.33333333333334</ele><time>2026-05-04T10:04:19.999Z</time></trkpt><trkpt lat="43.54997565037567" lon="10.955584933362905"><ele>236.0</ele><time>2026-05-04T10:04:20.999Z</time></trkpt><trkpt lat="43.54985746010883" lon="10.955887213028081"><ele>236.0</ele><time>2026-05-04T10:04:22Z</time></trkpt><trkpt lat="43.54973523731792" lon="10.95620230807301"><ele>236.0</ele><time>2026-05-04T10:04:23Z</time></trkpt><trkpt lat="43.54961081781562" lon="10.956523295128136"><ele>242.0</ele><time>2026-05-04T10:04:24Z</time></trkpt><trkpt lat="43.54946908311492" lon="10.956833341219536"><ele>248.0</ele><time>2026-05-04T10:04:25Z</time></trkpt><trkpt lat="43.54935677882242" lon="10.957109479691923"><ele>248.0</ele><time>2026-05-04T10:04:26Z</time></trkpt><trkpt lat="43.549277151967786" lon="10.95734372799614"><ele>248.0</ele><time>2026-05-04T10:04:27Z</time></trkpt><trkpt lat="43.54919699430535" lon="10.957527175767005"><ele>248.0</ele><time>2026-05-04T10:04:28Z</time></trkpt><trkpt lat="43.54910446074686" lon="10.957656399924709"><ele>249.0</ele><time>2026-05-04T10:04:29Z</time></trkpt><trkpt lat="43.54900008408635" lon="10.957717849393374"><ele>250.0</ele><time>2026-05-04T10:04:30Z</time></trkpt><trkpt lat="43.5489002728181" lon="10.957694874081207"><ele>251.0</ele><time>2026-05-04T10:04:31Z</time></trkpt><trkpt lat="43.54879537206127" lon="10.95767510730677"><ele>252.0</ele><time>2026-05-04T10:04:32Z</time></trkpt><trkpt lat="43.5486742579359" lon="10.95770271994375"><ele>253.0</ele><time>2026-05-04T10:04:33Z</time></trkpt><trkpt lat="43.54853859148275" lon="10.957722659463325"><ele>257.0</ele><time>2026-05-04T10:04:34Z</time></trkpt><trkpt lat="43.548296640559684" lon="10.957101615589162"><ele>257.0</ele><time>2026-05-04T10:04:35Z</time></trkpt><trkpt lat="43.5481380910831" lon="10.956977256542443"><ele>257.0</ele><time>2026-05-04T10:04:36Z</time></trkpt><trkpt lat="43.54799121376409" lon="10.95690567522602"><ele>257.0</ele><time>2026-05-04T10:04:37Z</time></trkpt><trkpt lat="43.547824689856334" lon="10.956883195262618"><ele>259.0</ele><time>2026-05-04T10:04:38Z</time></trkpt><trkpt lat="43.547642481652176" lon="10.956936632006933"><ele>261.0</ele><time>2026-05-04T10:04:39Z</time></trkpt><trkpt lat="43.54745544827038" lon="10.957054750563127"><ele>263.0</ele><time>2026-05-04T10:04:40Z</time></trkpt><trkpt lat="43.54723776102763" lon="10.95718877453337"><ele>263.0</ele><time>2026-05-04T10:04:41Z</time></trkpt><trkpt lat="43.54701835660164" lon="10.957325194509488"><ele>263.0</ele><time>2026-05-04T10:04:42Z</time></trkpt><trkpt lat="43.54682795258139" lon="10.957435049627987"><ele>263.0</ele><time>2026-05-04T10:04:43Z</time></trkpt><trkpt lat="43.54667988771774" lon="10.95751670711018"><ele>262.75</ele><time>2026-05-04T10:04:44Z</time></trkpt><trkpt lat="43.54656278438915" lon="10.957570502120312"><ele>262.5</ele><time>2026-05-04T10:04:45Z</time></trkpt><trkpt lat="43.546437672600234" lon="10.957603263912837"><ele>262.25</ele><time>2026-05-04T10:04:46Z</time></trkpt><trkpt lat="43.546288824950906" lon="10.957581551143507"><ele>262.0</ele><time>2026-05-04T10:04:47Z</time></trkpt><trkpt lat="43.546125662685" lon="10.957539887947725"><ele>262.0</ele><time>2026-05-04T10:04:48Z</time></trkpt><trkpt lat="43.54595626618656" lon="10.957487163463043"><ele>262.0</ele><time>2026-05-04T10:04:49Z</time></trkpt><trkpt lat="43.54578157097628" lon="10.957431721949897"><ele>262.0</ele><time>2026-05-04T10:04:50Z</time></trkpt><trkpt lat="43.54559651671393" lon="10.957355590575615"><ele>262.0</ele><time>2026-05-04T10:04:51Z</time></trkpt><trkpt lat="43.545411390713106" lon="10.957263587113403"><ele>262.0</ele><time>2026-05-04T10:04:52Z</time></trkpt><trkpt lat="43.545226789713816" lon="10.957166368042001"><ele>262.0</ele><time>2026-05-04T10:04:53Z</time></trkpt><trkpt lat="43.54503826086615" lon="10.957069144410024"><ele>261.66666666666663</ele><time>2026-05-04T10:04:54Z</time></trkpt><trkpt lat="43.54484574287256" lon="10.956964671917424"><ele>261.3333333333333</ele><time>2026-05-04T10:04:55Z</time></trkpt><trkpt lat="43.54464957258756" lon="10.956850253911128"><ele>261.0</ele><time>2026-05-04T10:04:56Z</time></trkpt><trkpt lat="43.54446180019258" lon="10.956722424892957"><ele>264.0</ele><time>2026-05-04T10:04:57Z</time></trkpt><trkpt lat="43.54427608695411" lon="10.956573969324845"><ele>267.0</ele><time>2026-05-04T10:04:58Z</time></trkpt><trkpt lat="43.54409375799367" lon="10.95641928342354"><ele>270.0</ele><time>2026-05-04T10:04:59Z</time></trkpt><trkpt lat="43.54390861079013" lon="10.956258669785814"><ele>270.0</ele><time>2026-05-04T10:05:00Z</time></trkpt><trkpt lat="43.54372471522352" lon="10.95610086023215"><ele>270.0</ele><time>2026-05-04T10:05:01Z</time></trkpt><trkpt lat="43.543533806572995" lon="10.955942465789509"><ele>270.0</ele><time>2026-05-04T10:05:02Z</time></trkpt><trkpt lat="43.543350475833456" lon="10.955792079005446"><ele>274.0</ele><time>2026-05-04T10:05:03Z</time></trkpt><trkpt lat="43.54316411443447" lon="10.955645104630202"><ele>278.0</ele><time>2026-05-04T10:05:04Z</time></trkpt><trkpt lat="43.54297420498361" lon="10.9555007563932"><ele>282.0</ele><time>2026-05-04T10:05:05Z</time></trkpt><trkpt lat="43.542804388012236" lon="10.95538873431941"><ele>283.25</ele><time>2026-05-04T10:05:06Z</time></trkpt><trkpt lat="43.542656831570895" lon="10.955307796992107"><ele>284.5</ele><time>2026-05-04T10:05:07Z</time></trkpt><trkpt lat="43.54253637166971" lon="10.955253721757447"><ele>285.75</ele><time>2026-05-04T10:05:08Z</time></trkpt><trkpt lat="43.54243738367879" lon="10.955208945663422"><ele>287.0</ele><time>2026-05-04T10:05:09Z</time></trkpt><trkpt lat="43.54235457225511" lon="10.955167011939078"><ele>287.0</ele><time>2026-05-04T10:05:10Z</time></trkpt><trkpt lat="43.54228316406294" lon="10.95513430276738"><ele>287.0</ele><time>2026-05-04T10:05:11Z</time></trkpt><trkpt lat="43.54220545894008" lon="10.955130773317464"><ele>287.0</ele><time>2026-05-04T10:05:12Z</time></trkpt><trkpt lat="43.542105775426734" lon="10.955168199393386"><ele>287.0</ele><time>2026-05-04T10:05:13Z</time></trkpt><trkpt lat="43.54199900826762" lon="10.955243982486644"><ele>287.0</ele><time>2026-05-04T10:05:14Z</time></trkpt><trkpt lat="43.54188168984943" lon="10.955333347997685"><ele>290.0</ele><time>2026-05-04T10:05:15Z</time></trkpt><trkpt lat="43.54175070963845" lon="10.955417329604728"><ele>293.0</ele><time>2026-05-04T10:05:16Z</time></trkpt><trkpt lat="43.541607168516215" lon="10.955465219377789"><ele>296.0</ele><time>2026-05-04T10:05:17Z</time></trkpt><trkpt lat="43.54146661444835" lon="10.955491442423797"><ele>299.0</ele><time>2026-05-04T10:05:18Z</time></trkpt><trkpt lat="43.54135515077277" lon="10.955494530005492"><ele>299.0</ele><time>2026-05-04T10:05:19Z</time></trkpt><trkpt lat="43.54128182491214" lon="10.955500960344354"><ele>299.0</ele><time>2026-05-04T10:05:20Z</time></trkpt><trkpt lat="43.54118824066492" lon="10.955489350604928"><ele>299.0</ele><time>2026-05-04T10:05:22Z</time></trkpt><trkpt lat="43.54112241198706" lon="10.955371523198474"><ele>299.0</ele><time>2026-05-04T10:05:24Z</time></trkpt><trkpt lat="43.54109653249756" lon="10.955253858342514"><ele>299.0</ele><time>2026-05-04T10:05:25Z</time></trkpt><trkpt lat="43.54107206150357" lon="10.95510997357615"><ele>301.6666666666667</ele><time>2026-05-04T10:05:26Z</time></trkpt><trkpt lat="43.54104672345311" lon="10.954989208247177"><ele>304.33333333333337</ele><time>2026-05-04T10:05:27Z</time></trkpt><trkpt lat="43.54102029751681" lon="10.954883161269548"><ele>307.0</ele><time>2026-05-04T10:05:28Z</time></trkpt><trkpt lat="43.540979763333496" lon="10.954768941199372"><ele>309.6666666666667</ele><time>2026-05-04T10:05:30Z</time></trkpt><trkpt lat="43.540937616184415" lon="10.954852069276512"><ele>312.3333333333333</ele><time>2026-05-04T10:05:33Z</time></trkpt><trkpt lat="43.54097062261822" lon="10.954946771278843"><ele>315.0</ele><time>2026-05-04T10:05:34Z</time></trkpt><trkpt lat="43.54104493144306" lon="10.955101998815225"><ele>315.0</ele><time>2026-05-04T10:05:35Z</time></trkpt><trkpt lat="43.54106235573753" lon="10.955261140117244"><ele>315.0</ele><time>2026-05-04T10:05:36Z</time></trkpt><trkpt lat="43.541103889316744" lon="10.955419501242817"><ele>315.0</ele><time>2026-05-04T10:05:37Z</time></trkpt><trkpt lat="43.54116241400118" lon="10.955528190434064"><ele>315.0</ele><time>2026-05-04T10:05:38Z</time></trkpt><trkpt lat="43.54123528168857" lon="10.955571009792925"><ele>315.0</ele><time>2026-05-04T10:05:39Z</time></trkpt><trkpt lat="43.541315608100206" lon="10.955558303304684"><ele>311.8</ele><time>2026-05-04T10:05:40Z</time></trkpt><trkpt lat="43.54139085854705" lon="10.955532238633843"><ele>308.6</ele><time>2026-05-04T10:05:41Z</time></trkpt><trkpt lat="43.54148602786591" lon="10.955510742823686"><ele>305.4</ele><time>2026-05-04T10:05:42Z</time></trkpt><trkpt lat="43.541597459535936" lon="10.95548058888271"><ele>302.2</ele><time>2026-05-04T10:05:43Z</time></trkpt><trkpt lat="43.54172157533914" lon="10.955439372480763"><ele>299.0</ele><time>2026-05-04T10:05:44Z</time></trkpt><trkpt lat="43.541852779150894" lon="10.955384511265423"><ele>299.0</ele><time>2026-05-04T10:05:45Z</time></trkpt><trkpt lat="43.54198439985195" lon="10.955324000398766"><ele>299.0</ele><time>2026-05-04T10:05:46Z</time></trkpt><trkpt lat="43.542105403539445" lon="10.955282233674994"><ele>299.0</ele><time>2026-05-04T10:05:47Z</time></trkpt><trkpt lat="43.54221195182986" lon="10.955263199856068"><ele>299.0</ele><time>2026-05-04T10:05:48Z</time></trkpt><trkpt lat="43.54231121554313" lon="10.955266256710209"><ele>296.59999999999997</ele><time>2026-05-04T10:05:49Z</time></trkpt><trkpt lat="43.54240496395512" lon="10.955281512140381"><ele>294.2</ele><time>2026-05-04T10:05:50Z</time></trkpt><trkpt lat="43.542501456818904" lon="10.955308751872106"><ele>291.79999999999995</ele><time>2026-05-04T10:05:51Z</time></trkpt><trkpt lat="43.54260091128611" lon="10.955353743487896"><ele>289.4</ele><time>2026-05-04T10:05:52Z</time></trkpt><trkpt lat="43.54270814887961" lon="10.955411247947561"><ele>287.0</ele><time>2026-05-04T10:05:53Z</time></trkpt><trkpt lat="43.54281960015674" lon="10.955480410857685"><ele>286.0</ele><time>2026-05-04T10:05:54Z</time></trkpt><trkpt lat="43.542930679016465" lon="10.95555291367415"><ele>285.0</ele><time>2026-05-04T10:05:55Z</time></trkpt><trkpt lat="43.54303514263657" lon="10.955621805362908"><ele>284.0</ele><time>2026-05-04T10:05:56Z</time></trkpt><trkpt lat="43.54311807178581" lon="10.955679585870284"><ele>283.0</ele><time>2026-05-04T10:05:57Z</time></trkpt><trkpt lat="43.54317157284112" lon="10.955726304969959"><ele>282.0</ele><time>2026-05-04T10:05:58Z</time></trkpt><trkpt lat="43.54322200021991" lon="10.955797272629866"><ele>282.0</ele><time>2026-05-04T10:06:00Z</time></trkpt><trkpt lat="43.54329631796842" lon="10.955783332723309"><ele>282.0</ele><time>2026-05-04T10:06:15Z</time></trkpt><trkpt lat="43.54320519036613" lon="10.955723916302691"><ele>282.0</ele><time>2026-05-04T10:06:18Z</time></trkpt><trkpt lat="43.543073075754826" lon="10.9555744219547"><ele>282.0</ele><time>2026-05-04T10:06:19Z</time></trkpt><trkpt lat="43.54293300420064" lon="10.955479781057825"><ele>283.6666666666667</ele><time>2026-05-04T10:06:20Z</time></trkpt><trkpt lat="43.542774911056576" lon="10.955379101182185"><ele>285.33333333333337</ele><time>2026-05-04T10:06:21Z</time></trkpt><trkpt lat="43.54261842062553" lon="10.955278383296797"><ele>287.0</ele><time>2026-05-04T10:06:22Z</time></trkpt><trkpt lat="43.542457438179255" lon="10.95520407074344"><ele>287.0</ele><time>2026-05-04T10:06:23Z</time></trkpt><trkpt lat="43.54234577668167" lon="10.955154871630468"><ele>287.0</ele><time>2026-05-04T10:06:24Z</time></trkpt><trkpt lat="43.54227716203536" lon="10.955085706085493"><ele>287.0</ele><time>2026-05-04T10:06:25Z</time></trkpt><trkpt lat="43.542217953579375" lon="10.95503680290685"><ele>287.0</ele><time>2026-05-04T10:06:26Z</time></trkpt><trkpt lat="43.54209851368429" lon="10.955134215333558"><ele>287.0</ele><time>2026-05-04T10:06:27Z</time></trkpt><trkpt lat="43.54198828612889" lon="10.95523604007435"><ele>291.0</ele><time>2026-05-04T10:06:28Z</time></trkpt><trkpt lat="43.54181868476241" lon="10.955368899065432"><ele>295.0</ele><time>2026-05-04T10:06:29Z</time></trkpt><trkpt lat="43.541627246821044" lon="10.955436262712693"><ele>299.0</ele><time>2026-05-04T10:06:30Z</time></trkpt><trkpt lat="43.54148955168828" lon="10.95546194036945"><ele>299.0</ele><time>2026-05-04T10:06:31Z</time></trkpt><trkpt lat="43.54137996901999" lon="10.955483578912956"><ele>299.0</ele><time>2026-05-04T10:06:32Z</time></trkpt><trkpt lat="43.54129640318751" lon="10.955498113685948"><ele>299.0</ele><time>2026-05-04T10:06:33Z</time></trkpt><trkpt lat="43.54120980938207" lon="10.955533723993431"><ele>299.0</ele><time>2026-05-04T10:06:34Z</time></trkpt><trkpt lat="43.54113905015464" lon="10.955459399625349"><ele>299.0</ele><time>2026-05-04T10:06:35Z</time></trkpt><trkpt lat="43.541079614979324" lon="10.955391896145205"><ele>301.6666666666667</ele><time>2026-05-04T10:06:36Z</time></trkpt><trkpt lat="43.54105288414647" lon="10.955280799438963"><ele>304.33333333333337</ele><time>2026-05-04T10:06:37Z</time></trkpt><trkpt lat="43.54104601576297" lon="10.955157336865152"><ele>307.0</ele><time>2026-05-04T10:06:38Z</time></trkpt><trkpt lat="43.54104282066004" lon="10.955047669145971"><ele>309.6666666666667</ele><time>2026-05-04T10:06:39Z</time></trkpt><trkpt lat="43.5410253619189" lon="10.954939992195413"><ele>312.3333333333333</ele><time>2026-05-04T10:06:40Z</time></trkpt><trkpt lat="43.54100318797207" lon="10.954834750966562"><ele>315.0</ele><time>2026-05-04T10:06:41Z</time></trkpt><trkpt lat="43.54096027852227" lon="10.954753909914574"><ele>315.0</ele><time>2026-05-04T10:06:42Z</time></trkpt><trkpt lat="43.54089419465286" lon="10.954729457952384"><ele>315.0</ele><time>2026-05-04T10:06:43Z</time></trkpt><trkpt lat="43.54077807126928" lon="10.954743304807232"><ele>315.0</ele><time>2026-05-04T10:06:45Z</time></trkpt><trkpt lat="43.54067550133474" lon="10.954741912279509"><ele>315.0</ele><time>2026-05-04T10:06:47Z</time></trkpt><trkpt lat="43.540652175201856" lon="10.954958006859787"><ele>315.0</ele><time>2026-05-04T10:06:51Z</time></trkpt><trkpt lat="43.54068006934558" lon="10.955047251040178"><ele>315.0</ele><time>2026-05-04T10:06:52Z</time></trkpt><trkpt lat="43.54071340441627" lon="10.955158991454388"><ele>315.0</ele><time>2026-05-04T10:06:53Z</time></trkpt><trkpt lat="43.54073806826402" lon="10.955269184796661"><ele>315.0</ele><time>2026-05-04T10:06:54Z</time></trkpt><trkpt lat="43.540742824465255" lon="10.955391489836783"><ele>315.0</ele><time>2026-05-04T10:06:55Z</time></trkpt><trkpt lat="43.54076243818656" lon="10.955516814439706"><ele>315.0</ele><time>2026-05-04T10:06:56Z</time></trkpt><trkpt lat="43.540786517300326" lon="10.955628386050105"><ele>315.0</ele><time>2026-05-04T10:06:57Z</time></trkpt><trkpt lat="43.54081310286972" lon="10.955731861971781"><ele>315.0</ele><time>2026-05-04T10:06:58Z</time></trkpt><trkpt lat="43.54086016520251" lon="10.955844062984616"><ele>315.0</ele><time>2026-05-04T10:06:59Z</time></trkpt><trkpt lat="43.54090372231287" lon="10.955966479281322"><ele>315.0</ele><time>2026-05-04T10:07:00Z</time></trkpt><trkpt lat="43.540948003252154" lon="10.956107151828554"><ele>315.0</ele><time>2026-05-04T10:07:01Z</time></trkpt><trkpt lat="43.54098769802142" lon="10.956258188204329"><ele>315.0</ele><time>2026-05-04T10:07:02Z</time></trkpt><trkpt lat="43.54100771958422" lon="10.956445627243712"><ele>314.25</ele><time>2026-05-04T10:07:03Z</time></trkpt><trkpt lat="43.54104045243565" lon="10.956639993304018"><ele>313.5</ele><time>2026-05-04T10:07:04Z</time></trkpt><trkpt lat="43.54107346879083" lon="10.956834599508674"><ele>312.75</ele><time>2026-05-04T10:07:05Z</time></trkpt><trkpt lat="43.54112214589821" lon="10.957034280534264"><ele>312.0</ele><time>2026-05-04T10:07:06Z</time></trkpt><trkpt lat="43.541137530891504" lon="10.957229329437412"><ele>310.75</ele><time>2026-05-04T10:07:07Z</time></trkpt><trkpt lat="43.54111491226639" lon="10.957426089328585"><ele>309.5</ele><time>2026-05-04T10:07:08Z</time></trkpt><trkpt lat="43.54107218227816" lon="10.957599286136572"><ele>308.25</ele><time>2026-05-04T10:07:09Z</time></trkpt><trkpt lat="43.541006280103126" lon="10.957770978116798"><ele>307.0</ele><time>2026-05-04T10:07:10Z</time></trkpt><trkpt lat="43.54092281954531" lon="10.957932256480568"><ele>304.0</ele><time>2026-05-04T10:07:11Z</time></trkpt><trkpt lat="43.54085436513771" lon="10.958100156681255"><ele>301.0</ele><time>2026-05-04T10:07:12Z</time></trkpt><trkpt lat="43.54077209799936" lon="10.958240498473756"><ele>298.0</ele><time>2026-05-04T10:07:13Z</time></trkpt><trkpt lat="43.54069600206729" lon="10.958366170739007"><ele>295.0</ele><time>2026-05-04T10:07:14Z</time></trkpt><trkpt lat="43.5406281202565" lon="10.958480293724824"><ele>293.6</ele><time>2026-05-04T10:07:15Z</time></trkpt><trkpt lat="43.54057922396185" lon="10.958594779576668"><ele>292.2</ele><time>2026-05-04T10:07:16Z</time></trkpt><trkpt lat="43.54055677020708" lon="10.95871781502921"><ele>290.8</ele><time>2026-05-04T10:07:17Z</time></trkpt><trkpt lat="43.54056788912898" lon="10.958847777259905"><ele>289.4</ele><time>2026-05-04T10:07:18Z</time></trkpt><trkpt lat="43.540621959932764" lon="10.95897232158826"><ele>288.0</ele><time>2026-05-04T10:07:19Z</time></trkpt><trkpt lat="43.54072511121144" lon="10.95909953493079"><ele>287.25</ele><time>2026-05-04T10:07:20Z</time></trkpt><trkpt lat="43.54081874172273" lon="10.95926743838499"><ele>286.5</ele><time>2026-05-04T10:07:21Z</time></trkpt><trkpt lat="43.540856647578" lon="10.959455365004686"><ele>285.75</ele><time>2026-05-04T10:07:22Z</time></trkpt><trkpt lat="43.54086556012557" lon="10.959660559287414"><ele>285.0</ele><time>2026-05-04T10:07:23Z</time></trkpt><trkpt lat="43.540834351131736" lon="10.959868724756973"><ele>284.6666666666667</ele><time>2026-05-04T10:07:24Z</time></trkpt><trkpt lat="43.540748603036256" lon="10.960070039027125"><ele>284.33333333333337</ele><time>2026-05-04T10:07:25Z</time></trkpt><trkpt lat="43.54064318482644" lon="10.96028710151487"><ele>284.0</ele><time>2026-05-04T10:07:26Z</time></trkpt><trkpt lat="43.54053042164964" lon="10.960497028163154"><ele>284.0</ele><time>2026-05-04T10:07:27Z</time></trkpt><trkpt lat="43.54041244518397" lon="10.960722502681843"><ele>284.0</ele><time>2026-05-04T10:07:28Z</time></trkpt><trkpt lat="43.54029135436337" lon="10.960937035713982"><ele>284.0</ele><time>2026-05-04T10:07:29Z</time></trkpt><trkpt lat="43.5401637965158" lon="10.96116774808514"><ele>281.6666666666667</ele><time>2026-05-04T10:07:30Z</time></trkpt><trkpt lat="43.54004147040935" lon="10.9613979846627"><ele>279.3333333333333</ele><time>2026-05-04T10:07:31Z</time></trkpt><trkpt lat="43.53994222232235" lon="10.961642406453882"><ele>277.0</ele><time>2026-05-04T10:07:32Z</time></trkpt><trkpt lat="43.53983432301321" lon="10.961874357181832"><ele>274.0</ele><time>2026-05-04T10:07:33Z</time></trkpt><trkpt lat="43.539716087373236" lon="10.9620594123872"><ele>271.0</ele><time>2026-05-04T10:07:34Z</time></trkpt><trkpt lat="43.539609323171106" lon="10.96224277815187"><ele>268.0</ele><time>2026-05-04T10:07:35Z</time></trkpt><trkpt lat="43.53953037939318" lon="10.962394122810048"><ele>268.0</ele><time>2026-05-04T10:07:36Z</time></trkpt><trkpt lat="43.53948401044621" lon="10.962523336831214"><ele>268.0</ele><time>2026-05-04T10:07:37Z</time></trkpt><trkpt lat="43.53943771145906" lon="10.962607272239076"><ele>268.0</ele><time>2026-05-04T10:07:38Z</time></trkpt><trkpt lat="43.5393851438075" lon="10.962710162816201"><ele>268.0</ele><time>2026-05-04T10:07:39Z</time></trkpt><trkpt lat="43.53946595791353" lon="10.962898939620823"><ele>268.0</ele><time>2026-05-04T10:07:40Z</time></trkpt><trkpt lat="43.53946827971022" lon="10.963039799858544"><ele>267.5</ele><time>2026-05-04T10:07:41.001Z</time></trkpt><trkpt lat="43.539474833405485" lon="10.963189829203941"><ele>267.0</ele><time>2026-05-04T10:07:42.001Z</time></trkpt><trkpt lat="43.53947069829159" lon="10.963380636056646"><ele>266.5</ele><time>2026-05-04T10:07:43.001Z</time></trkpt><trkpt lat="43.53944486586053" lon="10.963576485874931"><ele>266.0</ele><time>2026-05-04T10:07:44.001Z</time></trkpt><trkpt lat="43.539442931159755" lon="10.963769610325695"><ele>266.0</ele><time>2026-05-04T10:07:45.001Z</time></trkpt><trkpt lat="43.53943247956591" lon="10.963926563605728"><ele>266.0</ele><time>2026-05-04T10:07:46.001Z</time></trkpt><trkpt lat="43.539384508551514" lon="10.964113425624335"><ele>266.0</ele><time>2026-05-04T10:07:47.001Z</time></trkpt><trkpt lat="43.539334246122365" lon="10.96432814977305"><ele>266.0</ele><time>2026-05-04T10:07:48.001Z</time></trkpt><trkpt lat="43.53929917005126" lon="10.964547748542937"><ele>264.0</ele><time>2026-05-04T10:07:49.001Z</time></trkpt><trkpt lat="43.539274285967124" lon="10.964745446099423"><ele>262.0</ele><time>2026-05-04T10:07:50.001Z</time></trkpt><trkpt lat="43.53925054594838" lon="10.964912234927091"><ele>260.0</ele><time>2026-05-04T10:07:51.001Z</time></trkpt><trkpt lat="43.539221517831756" lon="10.965035773248946"><ele>258.0</ele><time>2026-05-04T10:07:52.001Z</time></trkpt><trkpt lat="43.539176873587834" lon="10.965151414976592"><ele>255.25</ele><time>2026-05-04T10:07:53.001Z</time></trkpt><trkpt lat="43.53911764740341" lon="10.965270986114469"><ele>252.5</ele><time>2026-05-04T10:07:54.001Z</time></trkpt><trkpt lat="43.5390411201367" lon="10.965380272596905"><ele>249.75</ele><time>2026-05-04T10:07:55.001Z</time></trkpt><trkpt lat="43.5389358007984" lon="10.965474413991352"><ele>247.0</ele><time>2026-05-04T10:07:56.001Z</time></trkpt><trkpt lat="43.53882288687374" lon="10.965565991120425"><ele>245.66666666666666</ele><time>2026-05-04T10:07:57.001Z</time></trkpt><trkpt lat="43.53870724123541" lon="10.965676467527187"><ele>244.33333333333331</ele><time>2026-05-04T10:07:58.001Z</time></trkpt><trkpt lat="43.53858286247388" lon="10.965813209128052"><ele>243.0</ele><time>2026-05-04T10:07:59.001Z</time></trkpt><trkpt lat="43.5384453581204" lon="10.965930390543432"><ele>238.66666666666669</ele><time>2026-05-04T10:08:00.001Z</time></trkpt><trkpt lat="43.538311325034" lon="10.966068518521674"><ele>234.33333333333334</ele><time>2026-05-04T10:08:01.001Z</time></trkpt><trkpt lat="43.53817910430525" lon="10.966232374508412"><ele>230.0</ele><time>2026-05-04T10:08:02.001Z</time></trkpt><trkpt lat="43.53802893192111" lon="10.966380415053068"><ele>230.33333333333334</ele><time>2026-05-04T10:08:03.001Z</time></trkpt><trkpt lat="43.53786963435018" lon="10.966541617431721"><ele>230.66666666666669</ele><time>2026-05-04T10:08:04.001Z</time></trkpt><trkpt lat="43.53770679032312" lon="10.966711649945625"><ele>231.0</ele><time>2026-05-04T10:08:05.001Z</time></trkpt><trkpt lat="43.53752912003416" lon="10.966863374088934"><ele>228.0</ele><time>2026-05-04T10:08:06.001Z</time></trkpt><trkpt lat="43.53736796800972" lon="10.9670251890635"><ele>225.0</ele><time>2026-05-04T10:08:07.001Z</time></trkpt><trkpt lat="43.537189539448825" lon="10.96720435164789"><ele>222.0</ele><time>2026-05-04T10:08:08.001Z</time></trkpt><trkpt lat="43.53701834724415" lon="10.967377425592545"><ele>219.0</ele><time>2026-05-04T10:08:09.001Z</time></trkpt><trkpt lat="43.53687019357262" lon="10.967527624516627"><ele>216.0</ele><time>2026-05-04T10:08:10Z</time></trkpt><trkpt lat="43.5367195106564" lon="10.967680387607375"><ele>213.0</ele><time>2026-05-04T10:08:11Z</time></trkpt><trkpt lat="43.536574538752426" lon="10.96782736254637"><ele>213.0</ele><time>2026-05-04T10:08:12Z</time></trkpt><trkpt lat="43.536427164895684" lon="10.967970419424354"><ele>213.0</ele><time>2026-05-04T10:08:13Z</time></trkpt><trkpt lat="43.53630136903542" lon="10.96809290084516"><ele>213.0</ele><time>2026-05-04T10:08:14Z</time></trkpt><trkpt lat="43.5362029678374" lon="10.968215408275398"><ele>212.66666666666666</ele><time>2026-05-04T10:08:15Z</time></trkpt><trkpt lat="43.53610578513698" lon="10.968278082479754"><ele>212.33333333333331</ele><time>2026-05-04T10:08:16Z</time></trkpt><trkpt lat="43.536030934253006" lon="10.96835385867531"><ele>212.0</ele><time>2026-05-04T10:08:17Z</time></trkpt><trkpt lat="43.53597626486763" lon="10.96842085443661"><ele>211.66666666666666</ele><time>2026-05-04T10:08:18Z</time></trkpt><trkpt lat="43.53592086861033" lon="10.968491933088787"><ele>211.33333333333331</ele><time>2026-05-04T10:08:19Z</time></trkpt><trkpt lat="43.535896255033954" lon="10.968611932844274"><ele>211.0</ele><time>2026-05-04T10:08:20Z</time></trkpt><trkpt lat="43.53587281537452" lon="10.968754258641132"><ele>210.5</ele><time>2026-05-04T10:08:21Z</time></trkpt><trkpt lat="43.535852156936556" lon="10.96893524715919"><ele>210.0</ele><time>2026-05-04T10:08:22Z</time></trkpt><trkpt lat="43.53580451364957" lon="10.969116503695092"><ele>209.5</ele><time>2026-05-04T10:08:23Z</time></trkpt><trkpt lat="43.53574850312085" lon="10.969299213203284"><ele>209.0</ele><time>2026-05-04T10:08:24Z</time></trkpt><trkpt lat="43.5356952056871" lon="10.969499949485222"><ele>207.25</ele><time>2026-05-04T10:08:25Z</time></trkpt><trkpt lat="43.535638414826444" lon="10.969698802495952"><ele>205.5</ele><time>2026-05-04T10:08:26Z</time></trkpt><trkpt lat="43.53558179623935" lon="10.969882946299599"><ele>203.75</ele><time>2026-05-04T10:08:27Z</time></trkpt><trkpt lat="43.535518785411945" lon="10.970068824527424"><ele>202.0</ele><time>2026-05-04T10:08:28Z</time></trkpt><trkpt lat="43.53546880455247" lon="10.970251133907341"><ele>202.25</ele><time>2026-05-04T10:08:29Z</time></trkpt><trkpt lat="43.53541839952429" lon="10.970437462678404"><ele>202.5</ele><time>2026-05-04T10:08:30Z</time></trkpt><trkpt lat="43.53536737037664" lon="10.97062832142592"><ele>202.75</ele><time>2026-05-04T10:08:31Z</time></trkpt><trkpt lat="43.53531805409849" lon="10.97081587430558"><ele>203.0</ele><time>2026-05-04T10:08:32Z</time></trkpt><trkpt lat="43.53526900462579" lon="10.971003980426838"><ele>200.75</ele><time>2026-05-04T10:08:33Z</time></trkpt><trkpt lat="43.53522590176207" lon="10.971189691175448"><ele>198.5</ele><time>2026-05-04T10:08:34Z</time></trkpt><trkpt lat="43.53519880366073" lon="10.971349070602404"><ele>196.25</ele><time>2026-05-04T10:08:35Z</time></trkpt><trkpt lat="43.535118642709726" lon="10.971484917817953"><ele>194.0</ele><time>2026-05-04T10:08:36Z</time></trkpt><trkpt lat="43.53503143199551" lon="10.971636211639419"><ele>190.33333333333334</ele><time>2026-05-04T10:08:37Z</time></trkpt><trkpt lat="43.534927972628225" lon="10.97179914226869"><ele>186.66666666666669</ele><time>2026-05-04T10:08:38Z</time></trkpt><trkpt lat="43.534829498138066" lon="10.971985836562919"><ele>183.0</ele><time>2026-05-04T10:08:39Z</time></trkpt><trkpt lat="43.534714701071046" lon="10.972127445735635"><ele>183.0</ele><time>2026-05-04T10:08:40Z</time></trkpt><trkpt lat="43.53461661247325" lon="10.972283850142807"><ele>183.0</ele><time>2026-05-04T10:08:41Z</time></trkpt><trkpt lat="43.534511801980635" lon="10.972459495275645"><ele>183.0</ele><time>2026-05-04T10:08:42Z</time></trkpt><trkpt lat="43.534407982683284" lon="10.972655098274739"><ele>179.66666666666666</ele><time>2026-05-04T10:08:43Z</time></trkpt><trkpt lat="43.534305976623145" lon="10.972873709075717"><ele>176.33333333333331</ele><time>2026-05-04T10:08:44Z</time></trkpt><trkpt lat="43.534206923533816" lon="10.973121419404446"><ele>173.0</ele><time>2026-05-04T10:08:45Z</time></trkpt><trkpt lat="43.53411832411511" lon="10.973392372710714"><ele>171.66666666666666</ele><time>2026-05-04T10:08:46Z</time></trkpt><trkpt lat="43.534031315397755" lon="10.973664004239165"><ele>170.33333333333334</ele><time>2026-05-04T10:08:47Z</time></trkpt><trkpt lat="43.53396501332326" lon="10.97390378298945"><ele>169.0</ele><time>2026-05-04T10:08:48Z</time></trkpt><trkpt lat="43.53387393716368" lon="10.97408694655905"><ele>168.0</ele><time>2026-05-04T10:08:49Z</time></trkpt><trkpt lat="43.53381050758455" lon="10.974223735276718"><ele>167.0</ele><time>2026-05-04T10:08:50Z</time></trkpt><trkpt lat="43.533747596670395" lon="10.974347184206687"><ele>166.0</ele><time>2026-05-04T10:08:51Z</time></trkpt><trkpt lat="43.53365722926587" lon="10.974506491035896"><ele>165.0</ele><time>2026-05-04T10:08:52Z</time></trkpt><trkpt lat="43.5335559628628" lon="10.97468195616872"><ele>165.0</ele><time>2026-05-04T10:08:53Z</time></trkpt><trkpt lat="43.533493665233934" lon="10.974842649402683"><ele>165.0</ele><time>2026-05-04T10:08:54Z</time></trkpt><trkpt lat="43.53341942766138" lon="10.974977834514979"><ele>165.0</ele><time>2026-05-04T10:08:55Z</time></trkpt><trkpt lat="43.53331808437949" lon="10.975076379925056"><ele>165.0</ele><time>2026-05-04T10:08:56Z</time></trkpt><trkpt lat="43.533206117776814" lon="10.975161946554197"><ele>163.33333333333334</ele><time>2026-05-04T10:08:57Z</time></trkpt><trkpt lat="43.533059058585096" lon="10.975260191974067"><ele>161.66666666666669</ele><time>2026-05-04T10:08:58Z</time></trkpt><trkpt lat="43.532870865326245" lon="10.975382349405823"><ele>160.0</ele><time>2026-05-04T10:08:59Z</time></trkpt><trkpt lat="43.53268726493423" lon="10.975499978647862"><ele>160.0</ele><time>2026-05-04T10:09:00Z</time></trkpt><trkpt lat="43.532508646123" lon="10.97559979025271"><ele>160.0</ele><time>2026-05-04T10:09:01Z</time></trkpt><trkpt lat="43.53238170839602" lon="10.975679768519552"><ele>160.0</ele><time>2026-05-04T10:09:02Z</time></trkpt><trkpt lat="43.532272836767675" lon="10.975743196062881"><ele>160.0</ele><time>2026-05-04T10:09:03Z</time></trkpt><trkpt lat="43.53213862932802" lon="10.975796689176889"><ele>160.0</ele><time>2026-05-04T10:09:04Z</time></trkpt><trkpt lat="43.53201868650539" lon="10.97588693547707"><ele>160.0</ele><time>2026-05-04T10:09:05Z</time></trkpt><trkpt lat="43.53189212527476" lon="10.975986810413694"><ele>160.0</ele><time>2026-05-04T10:09:06Z</time></trkpt><trkpt lat="43.531765407577126" lon="10.97609343513618"><ele>158.5</ele><time>2026-05-04T10:09:07Z</time></trkpt><trkpt lat="43.53164989240922" lon="10.976198182636583"><ele>157.0</ele><time>2026-05-04T10:09:08Z</time></trkpt><trkpt lat="43.53154307079195" lon="10.976302056064995"><ele>155.5</ele><time>2026-05-04T10:09:09Z</time></trkpt><trkpt lat="43.53143992865192" lon="10.976406646654581"><ele>154.0</ele><time>2026-05-04T10:09:10Z</time></trkpt><trkpt lat="43.53133707996035" lon="10.9765205327087"><ele>154.0</ele><time>2026-05-04T10:09:11Z</time></trkpt><trkpt lat="43.531244987361184" lon="10.976656755111561"><ele>154.0</ele><time>2026-05-04T10:09:12Z</time></trkpt><trkpt lat="43.53117702503792" lon="10.976783019642614"><ele>154.0</ele><time>2026-05-04T10:09:13Z</time></trkpt><trkpt lat="43.531121620716384" lon="10.976890813677215"><ele>154.0</ele><time>2026-05-04T10:09:14Z</time></trkpt><trkpt lat="43.53108495748394" lon="10.977009226479407"><ele>154.0</ele><time>2026-05-04T10:09:15Z</time></trkpt><trkpt lat="43.53110044919096" lon="10.97714738072866"><ele>150.4</ele><time>2026-05-04T10:09:16Z</time></trkpt><trkpt lat="43.531145408363756" lon="10.977267542387054"><ele>146.8</ele><time>2026-05-04T10:09:17Z</time></trkpt><trkpt lat="43.53118074239768" lon="10.977385990789093"><ele>143.2</ele><time>2026-05-04T10:09:18.001Z</time></trkpt><trkpt lat="43.53119796116007" lon="10.977512550159805"><ele>139.6</ele><time>2026-05-04T10:09:19.001Z</time></trkpt><trkpt lat="43.53122533068636" lon="10.977623949949496"><ele>136.0</ele><time>2026-05-04T10:09:20.001Z</time></trkpt><trkpt lat="43.531256354230074" lon="10.977747478617792"><ele>135.83333333333334</ele><time>2026-05-04T10:09:21.001Z</time></trkpt><trkpt lat="43.5312806137076" lon="10.977844073634742"><ele>135.66666666666669</ele><time>2026-05-04T10:09:22.001Z</time></trkpt><trkpt lat="43.53130824691215" lon="10.977936646229391"><ele>135.5</ele><time>2026-05-04T10:09:23.001Z</time></trkpt><trkpt lat="43.53134722643617" lon="10.978016086907196"><ele>135.33333333333334</ele><time>2026-05-04T10:09:24.001Z</time></trkpt><trkpt lat="43.53135784837141" lon="10.978102967338625"><ele>135.16666666666666</ele><time>2026-05-04T10:09:25.001Z</time></trkpt><trkpt lat="43.531318320035695" lon="10.978231891631827"><ele>135.0</ele><time>2026-05-04T10:09:27.001Z</time></trkpt><trkpt lat="43.53119614686752" lon="10.978323648563185"><ele>132.8</ele><time>2026-05-04T10:09:29.001Z</time></trkpt><trkpt lat="43.531112908830515" lon="10.978385287692657"><ele>130.6</ele><time>2026-05-04T10:09:30.001Z</time></trkpt><trkpt lat="43.531025235604496" lon="10.97845966724228"><ele>128.4</ele><time>2026-05-04T10:09:31.001Z</time></trkpt><trkpt lat="43.53093977956543" lon="10.978543398105076"><ele>126.2</ele><time>2026-05-04T10:09:32.001Z</time></trkpt><trkpt lat="43.53085554100049" lon="10.978632260458074"><ele>124.0</ele><time>2026-05-04T10:09:33.001Z</time></trkpt><trkpt lat="43.530756161501834" lon="10.978731563715556"><ele>124.0</ele><time>2026-05-04T10:09:34.001Z</time></trkpt><trkpt lat="43.53063486929118" lon="10.97882877226644"><ele>124.0</ele><time>2026-05-04T10:09:35.001Z</time></trkpt><trkpt lat="43.530519886611756" lon="10.97896897226893"><ele>124.0</ele><time>2026-05-04T10:09:36.001Z</time></trkpt><trkpt lat="43.53038148086422" lon="10.979094359075225"><ele>122.33333333333334</ele><time>2026-05-04T10:09:37.001Z</time></trkpt><trkpt lat="43.530245859027985" lon="10.97922124504489"><ele>120.66666666666666</ele><time>2026-05-04T10:09:38.001Z</time></trkpt><trkpt lat="43.530109420942885" lon="10.97934584518928"><ele>119.0</ele><time>2026-05-04T10:09:39.001Z</time></trkpt><trkpt lat="43.529973315363456" lon="10.979481706762572"><ele>119.0</ele><time>2026-05-04T10:09:40.001Z</time></trkpt><trkpt lat="43.529837794016764" lon="10.979608477922877"><ele>119.0</ele><time>2026-05-04T10:09:41.001Z</time></trkpt><trkpt lat="43.529700021482974" lon="10.979707520478117"><ele>119.0</ele><time>2026-05-04T10:09:42.001Z</time></trkpt><trkpt lat="43.52958013318077" lon="10.979850248159952"><ele>119.0</ele><time>2026-05-04T10:09:43.001Z</time></trkpt><trkpt lat="43.529465022456364" lon="10.979963880027382"><ele>119.0</ele><time>2026-05-04T10:09:44.001Z</time></trkpt><trkpt lat="43.52936082030349" lon="10.980088926385116"><ele>119.0</ele><time>2026-05-04T10:09:45.001Z</time></trkpt><trkpt lat="43.529242795103016" lon="10.980264801920505"><ele>119.0</ele><time>2026-05-04T10:09:46.001Z</time></trkpt><trkpt lat="43.529123831688935" lon="10.980399517198741"><ele>119.0</ele><time>2026-05-04T10:09:47.001Z</time></trkpt><trkpt lat="43.528993487759685" lon="10.980570501805655"><ele>119.0</ele><time>2026-05-04T10:09:48.001Z</time></trkpt><trkpt lat="43.52886328259646" lon="10.980718279757054"><ele>119.0</ele><time>2026-05-04T10:09:49.001Z</time></trkpt><trkpt lat="43.52872674586182" lon="10.980869094836292"><ele>119.0</ele><time>2026-05-04T10:09:50.001Z</time></trkpt><trkpt lat="43.52860321941283" lon="10.981029577546266"><ele>119.0</ele><time>2026-05-04T10:09:51.001Z</time></trkpt><trkpt lat="43.52846943046667" lon="10.981176620546544"><ele>120.5</ele><time>2026-05-04T10:09:52.001Z</time></trkpt><trkpt lat="43.52835562366041" lon="10.981311795873962"><ele>122.0</ele><time>2026-05-04T10:09:53.001Z</time></trkpt><trkpt lat="43.52825295952168" lon="10.981433966976704"><ele>123.5</ele><time>2026-05-04T10:09:54.001Z</time></trkpt><trkpt lat="43.52814418362778" lon="10.98155721575697"><ele>125.0</ele><time>2026-05-04T10:09:55.001Z</time></trkpt><trkpt lat="43.528039117491005" lon="10.981656371961638"><ele>124.4</ele><time>2026-05-04T10:09:56.001Z</time></trkpt><trkpt lat="43.52795729589808" lon="10.981734961649385"><ele>123.8</ele><time>2026-05-04T10:09:57.001Z</time></trkpt><trkpt lat="43.52788408343261" lon="10.981801535169966"><ele>123.19999999999999</ele><time>2026-05-04T10:09:58.001Z</time></trkpt><trkpt lat="43.5278184169352" lon="10.981860519105851"><ele>122.6</ele><time>2026-05-04T10:09:59.001Z</time></trkpt><trkpt lat="43.52775982082309" lon="10.981914195670036"><ele>122.0</ele><time>2026-05-04T10:10:00.001Z</time></trkpt><trkpt lat="43.527654817735446" lon="10.982008862419143"><ele>124.39999999999999</ele><time>2026-05-04T10:10:02.001Z</time></trkpt><trkpt lat="43.527597310416795" lon="10.98205809518598"><ele>126.79999999999998</ele><time>2026-05-04T10:10:03.001Z</time></trkpt><trkpt lat="43.5274869891278" lon="10.982160493193573"><ele>129.2</ele><time>2026-05-04T10:10:05.001Z</time></trkpt><trkpt lat="43.527384753383934" lon="10.982263213243918"><ele>131.6</ele><time>2026-05-04T10:10:07.001Z</time></trkpt><trkpt lat="43.5272923764775" lon="10.982361498858618"><ele>134.0</ele><time>2026-05-04T10:10:09.001Z</time></trkpt><trkpt lat="43.527209739670525" lon="10.982472463231367"><ele>132.8</ele><time>2026-05-04T10:10:11.001Z</time></trkpt><trkpt lat="43.527124679684725" lon="10.982572379990126"><ele>131.60000000000002</ele><time>2026-05-04T10:10:13.001Z</time></trkpt><trkpt lat="43.527059296567515" lon="10.98267189119057"><ele>130.4</ele><time>2026-05-04T10:10:15.001Z</time></trkpt><trkpt lat="43.52699678189545" lon="10.98277311505805"><ele>129.20000000000002</ele><time>2026-05-04T10:10:17Z</time></trkpt><trkpt lat="43.526939610281865" lon="10.982903398937433"><ele>128.0</ele><time>2026-05-04T10:10:19Z</time></trkpt><trkpt lat="43.52689578729032" lon="10.98296720975078"><ele>129.6</ele><time>2026-05-04T10:10:20Z</time></trkpt><trkpt lat="43.526827830302686" lon="10.983088011754715"><ele>131.20000000000002</ele><time>2026-05-04T10:10:22Z</time></trkpt><trkpt lat="43.52676627930201" lon="10.983201882649343"><ele>132.8</ele><time>2026-05-04T10:10:24Z</time></trkpt><trkpt lat="43.52671867586104" lon="10.983307021636412"><ele>134.4</ele><time>2026-05-04T10:10:27Z</time></trkpt><trkpt lat="43.526655801314014" lon="10.98343113880887"><ele>136.0</ele><time>2026-05-04T10:10:29Z</time></trkpt><trkpt lat="43.526613939559134" lon="10.983502137087054"><ele>136.0</ele><time>2026-05-04T10:10:30Z</time></trkpt><trkpt lat="43.52656851901032" lon="10.983563955472116"><ele>136.0</ele><time>2026-05-04T10:10:31Z</time></trkpt><trkpt lat="43.52646364436709" lon="10.983621641236903"><ele>136.0</ele><time>2026-05-04T10:10:33Z</time></trkpt><trkpt lat="43.526401682522" lon="10.983591041614496"><ele>136.0</ele><time>2026-05-04T10:10:34Z</time></trkpt><trkpt lat="43.52634749268527" lon="10.983509534932553"><ele>136.0</ele><time>2026-05-04T10:10:35Z</time></trkpt><trkpt lat="43.52625917383663" lon="10.983445312137189"><ele>136.0</ele><time>2026-05-04T10:10:36Z</time></trkpt><trkpt lat="43.52618311202941" lon="10.983326057817688"><ele>138.25</ele><time>2026-05-04T10:10:37Z</time></trkpt><trkpt lat="43.52606369658163" lon="10.983234929854289"><ele>140.5</ele><time>2026-05-04T10:10:38Z</time></trkpt><trkpt lat="43.52597353566443" lon="10.983143788835905"><ele>142.75</ele><time>2026-05-04T10:10:39Z</time></trkpt><trkpt lat="43.52590784533957" lon="10.983073263822506"><ele>145.0</ele><time>2026-05-04T10:10:40Z</time></trkpt><trkpt lat="43.52576313673295" lon="10.983053071192687"><ele>145.0</ele><time>2026-05-04T10:10:42Z</time></trkpt><trkpt lat="43.52564646196854" lon="10.983096999296379"><ele>145.0</ele><time>2026-05-04T10:10:43Z</time></trkpt><trkpt lat="43.52552716871734" lon="10.983163117812675"><ele>145.0</ele><time>2026-05-04T10:10:44Z</time></trkpt><trkpt lat="43.52541065138759" lon="10.983254577001075"><ele>145.0</ele><time>2026-05-04T10:10:45Z</time></trkpt><trkpt lat="43.525332150646484" lon="10.983378089855014"><ele>145.5</ele><time>2026-05-04T10:10:46Z</time></trkpt><trkpt lat="43.525246516619795" lon="10.983494895762671"><ele>146.0</ele><time>2026-05-04T10:10:47Z</time></trkpt><trkpt lat="43.525181090667445" lon="10.98357500624531"><ele>146.5</ele><time>2026-05-04T10:10:48Z</time></trkpt><trkpt lat="43.52512072574765" lon="10.983621307925889"><ele>147.0</ele><time>2026-05-04T10:10:49Z</time></trkpt><trkpt lat="43.525046219798185" lon="10.983613573714173"><ele>147.5</ele><time>2026-05-04T10:10:50Z</time></trkpt><trkpt lat="43.52497135044115" lon="10.983631007737259"><ele>148.0</ele><time>2026-05-04T10:10:51Z</time></trkpt><trkpt lat="43.52489695111853" lon="10.983668635763653"><ele>148.0</ele><time>2026-05-04T10:10:52Z</time></trkpt><trkpt lat="43.52478935394603" lon="10.983692881626348"><ele>148.0</ele><time>2026-05-04T10:10:54Z</time></trkpt><trkpt lat="43.5247198422842" lon="10.983712832617961"><ele>148.0</ele><time>2026-05-04T10:10:56Z</time></trkpt><trkpt lat="43.52463910426143" lon="10.983719588415456"><ele>148.0</ele><time>2026-05-04T10:10:59Z</time></trkpt><trkpt lat="43.52452458991841" lon="10.983769869749896"><ele>148.0</ele><time>2026-05-04T10:11:01Z</time></trkpt><trkpt lat="43.52445260797964" lon="10.983758265289275"><ele>146.33333333333334</ele><time>2026-05-04T10:11:02Z</time></trkpt><trkpt lat="43.524389178957" lon="10.983750766203855"><ele>144.66666666666669</ele><time>2026-05-04T10:11:03Z</time></trkpt><trkpt lat="43.52432386271863" lon="10.983741309423394"><ele>143.0</ele><time>2026-05-04T10:11:04Z</time></trkpt><trkpt lat="43.52425244327298" lon="10.983753131119265"><ele>141.33333333333334</ele><time>2026-05-04T10:11:05Z</time></trkpt><trkpt lat="43.52417694501342" lon="10.983730010925282"><ele>139.66666666666666</ele><time>2026-05-04T10:11:06Z</time></trkpt><trkpt lat="43.52404720204363" lon="10.983716924177772"><ele>138.0</ele><time>2026-05-04T10:11:08.001Z</time></trkpt><trkpt lat="43.523978809711345" lon="10.98372008790729"><ele>138.0</ele><time>2026-05-04T10:11:09.001Z</time></trkpt><trkpt lat="43.52391436719643" lon="10.983726884672928"><ele>138.0</ele><time>2026-05-04T10:11:10.001Z</time></trkpt><trkpt lat="43.523824040850876" lon="10.983769776560841"><ele>138.0</ele><time>2026-05-04T10:11:12.001Z</time></trkpt><trkpt lat="43.52373525083572" lon="10.983863373323889"><ele>138.0</ele><time>2026-05-04T10:11:14.001Z</time></trkpt><trkpt lat="43.52367945507244" lon="10.98392512716946"><ele>138.0</ele><time>2026-05-04T10:11:15.001Z</time></trkpt><trkpt lat="43.52362121523342" lon="10.983982677819794"><ele>138.0</ele><time>2026-05-04T10:11:16.001Z</time></trkpt><trkpt lat="43.52356960852043" lon="10.984040452239295"><ele>136.0</ele><time>2026-05-04T10:11:17.001Z</time></trkpt><trkpt lat="43.52352072634488" lon="10.984102082670299"><ele>134.0</ele><time>2026-05-04T10:11:18.001Z</time></trkpt><trkpt lat="43.523465702071704" lon="10.984155311894241"><ele>132.0</ele><time>2026-05-04T10:11:19.001Z</time></trkpt><trkpt lat="43.523412126571834" lon="10.984217849947951"><ele>130.0</ele><time>2026-05-04T10:11:20.001Z</time></trkpt><trkpt lat="43.5233125444241" lon="10.984294636937872"><ele>128.0</ele><time>2026-05-04T10:11:22.001Z</time></trkpt><trkpt lat="43.523225278123554" lon="10.984386396728855"><ele>126.0</ele><time>2026-05-04T10:11:24.001Z</time></trkpt><trkpt lat="43.52312773317543" lon="10.984488964471884"><ele>124.83333333333333</ele><time>2026-05-04T10:11:26.001Z</time></trkpt><trkpt lat="43.523069131286384" lon="10.984550583904932"><ele>123.66666666666666</ele><time>2026-05-04T10:11:27.001Z</time></trkpt><trkpt lat="43.522999635487345" lon="10.984623658183926"><ele>122.5</ele><time>2026-05-04T10:11:28.001Z</time></trkpt><trkpt lat="43.52293091790497" lon="10.984695765316198"><ele>121.33333333333333</ele><time>2026-05-04T10:11:29.001Z</time></trkpt><trkpt lat="43.522865195279834" lon="10.984764720638415"><ele>120.16666666666666</ele><time>2026-05-04T10:11:30.001Z</time></trkpt><trkpt lat="43.5228067620474" lon="10.984826027987946"><ele>119.0</ele><time>2026-05-04T10:11:31.001Z</time></trkpt><trkpt lat="43.52274957311726" lon="10.984913251817005"><ele>118.0</ele><time>2026-05-04T10:11:32.001Z</time></trkpt><trkpt lat="43.52267488244394" lon="10.984986569636844"><ele>117.0</ele><time>2026-05-04T10:11:33.001Z</time></trkpt><trkpt lat="43.522583482926834" lon="10.98508394861006"><ele>116.0</ele><time>2026-05-04T10:11:34.001Z</time></trkpt><trkpt lat="43.522496171747314" lon="10.985178505855849"><ele>115.0</ele><time>2026-05-04T10:11:35.001Z</time></trkpt><trkpt lat="43.522411857680204" lon="10.98526875218725"><ele>114.0</ele><time>2026-05-04T10:11:36.001Z</time></trkpt><trkpt lat="43.52231825606578" lon="10.985338010308535"><ele>113.66666666666667</ele><time>2026-05-04T10:11:37.001Z</time></trkpt><trkpt lat="43.52224125445104" lon="10.985418097306754"><ele>113.33333333333334</ele><time>2026-05-04T10:11:38.001Z</time></trkpt><trkpt lat="43.52217229574228" lon="10.985489524670308"><ele>113.0</ele><time>2026-05-04T10:11:39.001Z</time></trkpt><trkpt lat="43.52211347436077" lon="10.985550674784204"><ele>112.66666666666667</ele><time>2026-05-04T10:11:40.001Z</time></trkpt><trkpt lat="43.52202773954486" lon="10.985639598029028"><ele>112.33333333333334</ele><time>2026-05-04T10:11:42.001Z</time></trkpt><trkpt lat="43.5219765647008" lon="10.98572993407489"><ele>112.0</ele><time>2026-05-04T10:11:44.001Z</time></trkpt><trkpt lat="43.52200961952819" lon="10.98584205030728"><ele>112.00000000000001</ele><time>2026-05-04T10:11:46.001Z</time></trkpt><trkpt lat="43.5220188563163" lon="10.985941691530034"><ele>112.0</ele><time>2026-05-04T10:11:47.001Z</time></trkpt><trkpt lat="43.52206633545315" lon="10.986038898519592"><ele>112.0</ele><time>2026-05-04T10:11:48.001Z</time></trkpt><trkpt lat="43.52209156967474" lon="10.98614684799178"><ele>112.0</ele><time>2026-05-04T10:11:49.001Z</time></trkpt><trkpt lat="43.5221239886704" lon="10.986233287986611"><ele>112.00000000000001</ele><time>2026-05-04T10:11:50.001Z</time></trkpt><trkpt lat="43.522160284257176" lon="10.98634950680763"><ele>112.0</ele><time>2026-05-04T10:11:51.001Z</time></trkpt><trkpt lat="43.52219045424601" lon="10.986458178771036"><ele>111.8</ele><time>2026-05-04T10:11:52.001Z</time></trkpt><trkpt lat="43.52222478936086" lon="10.986565170688504"><ele>111.6</ele><time>2026-05-04T10:11:53.001Z</time></trkpt><trkpt lat="43.522256502315734" lon="10.986709584145542"><ele>111.39999999999999</ele><time>2026-05-04T10:11:54.001Z</time></trkpt><trkpt lat="43.52229823241247" lon="10.986841618914074"><ele>111.19999999999999</ele><time>2026-05-04T10:11:55.001Z</time></trkpt><trkpt lat="43.52233932565099" lon="10.98698936360495"><ele>111.0</ele><time>2026-05-04T10:11:56.001Z</time></trkpt><trkpt lat="43.522375875513504" lon="10.987135350572942"><ele>110.8</ele><time>2026-05-04T10:11:57.001Z</time></trkpt><trkpt lat="43.522411826369115" lon="10.987258323801921"><ele>110.6</ele><time>2026-05-04T10:11:58.001Z</time></trkpt><trkpt lat="43.522442814997795" lon="10.98738065411095"><ele>110.4</ele><time>2026-05-04T10:11:59.001Z</time></trkpt><trkpt lat="43.52247489633718" lon="10.987506022608464"><ele>110.2</ele><time>2026-05-04T10:12:00.001Z</time></trkpt><trkpt lat="43.52251137454609" lon="10.987621934990331"><ele>110.0</ele><time>2026-05-04T10:12:01.001Z</time></trkpt><trkpt lat="43.5225448632982" lon="10.987746550795391"><ele>110.99999999999999</ele><time>2026-05-04T10:12:02.001Z</time></trkpt><trkpt lat="43.52258585276856" lon="10.987859640240433"><ele>112.0</ele><time>2026-05-04T10:12:03.001Z</time></trkpt><trkpt lat="43.52262274663262" lon="10.98795493104151"><ele>113.0</ele><time>2026-05-04T10:12:04.001Z</time></trkpt><trkpt lat="43.522647163346335" lon="10.988048467353853"><ele>114.0</ele><time>2026-05-04T10:12:05.001Z</time></trkpt><trkpt lat="43.52267666709246" lon="10.98814452404864"><ele>114.99999999999999</ele><time>2026-05-04T10:12:06.001Z</time></trkpt><trkpt lat="43.522717813978645" lon="10.988255441038076"><ele>116.0</ele><time>2026-05-04T10:12:07.001Z</time></trkpt><trkpt lat="43.52274904882438" lon="10.988356090920014"><ele>117.0</ele><time>2026-05-04T10:12:08.001Z</time></trkpt><trkpt lat="43.52277962579488" lon="10.988436892094324"><ele>118.0</ele><time>2026-05-04T10:12:09.001Z</time></trkpt><trkpt lat="43.52284053019776" lon="10.988569205243161"><ele>119.0</ele><time>2026-05-04T10:12:11.001Z</time></trkpt><trkpt lat="43.5229082980265" lon="10.988716255662615"><ele>120.0</ele><time>2026-05-04T10:12:13.001Z</time></trkpt><trkpt lat="43.52295268317245" lon="10.988824970988258"><ele>121.0</ele><time>2026-05-04T10:12:14.001Z</time></trkpt><trkpt lat="43.52299315304474" lon="10.9889231204614"><ele>118.8</ele><time>2026-05-04T10:12:15.001Z</time></trkpt><trkpt lat="43.523041975078726" lon="10.989026401374964"><ele>116.6</ele><time>2026-05-04T10:12:16.001Z</time></trkpt><trkpt lat="43.52308888136346" lon="10.989123611769653"><ele>114.4</ele><time>2026-05-04T10:12:17.001Z</time></trkpt><trkpt lat="43.523138651903864" lon="10.989234474015028"><ele>112.2</ele><time>2026-05-04T10:12:18.001Z</time></trkpt><trkpt lat="43.52319033074379" lon="10.989350160012437"><ele>110.0</ele><time>2026-05-04T10:12:19.001Z</time></trkpt><trkpt lat="43.523238251807456" lon="10.989476267802717"><ele>110.0</ele><time>2026-05-04T10:12:20.001Z</time></trkpt><trkpt lat="43.52328486694191" lon="10.989593470247017"><ele>110.0</ele><time>2026-05-04T10:12:21.001Z</time></trkpt><trkpt lat="43.523332800367655" lon="10.989708067690051"><ele>110.0</ele><time>2026-05-04T10:12:22Z</time></trkpt><trkpt lat="43.52337587337062" lon="10.98980393559444"><ele>110.0</ele><time>2026-05-04T10:12:23Z</time></trkpt><trkpt lat="43.523442490910035" lon="10.989943813530678"><ele>110.0</ele><time>2026-05-04T10:12:25Z</time></trkpt><trkpt lat="43.52349217563255" lon="10.990048487912087"><ele>110.2</ele><time>2026-05-04T10:12:27Z</time></trkpt><trkpt lat="43.52353112377849" lon="10.990133501585852"><ele>110.4</ele><time>2026-05-04T10:12:29Z</time></trkpt><trkpt lat="43.5235605961346" lon="10.990249306592801"><ele>110.6</ele><time>2026-05-04T10:12:31Z</time></trkpt><trkpt lat="43.523589315209605" lon="10.990390985921927"><ele>110.8</ele><time>2026-05-04T10:12:33Z</time></trkpt><trkpt lat="43.52360667024751" lon="10.990476723068413"><ele>111.0</ele><time>2026-05-04T10:12:34Z</time></trkpt><trkpt lat="43.523643508031945" lon="10.990649652335833"><ele>111.0</ele><time>2026-05-04T10:12:36Z</time></trkpt><trkpt lat="43.523664743344796" lon="10.990735221122899"><ele>111.0</ele><time>2026-05-04T10:12:37Z</time></trkpt><trkpt lat="43.5236986649005" lon="10.99084159538245"><ele>111.0</ele><time>2026-05-04T10:12:39Z</time></trkpt><trkpt lat="43.523748856184696" lon="10.990940166604505"><ele>111.0</ele><time>2026-05-04T10:12:42Z</time></trkpt><trkpt lat="43.52381431148038" lon="10.991030078820827"><ele>111.0</ele><time>2026-05-04T10:12:44Z</time></trkpt><trkpt lat="43.523878828567504" lon="10.991090280645723"><ele>111.0</ele><time>2026-05-04T10:12:46Z</time></trkpt><trkpt lat="43.52391955628833" lon="10.99119854362596"><ele>109.6</ele><time>2026-05-04T10:12:48Z</time></trkpt><trkpt lat="43.52396820004671" lon="10.991302780054857"><ele>108.19999999999999</ele><time>2026-05-04T10:12:50Z</time></trkpt><trkpt lat="43.52398760325708" lon="10.991401278343247"><ele>106.80000000000001</ele><time>2026-05-04T10:12:52Z</time></trkpt><trkpt lat="43.52399932050437" lon="10.991490971692526"><ele>105.4</ele><time>2026-05-04T10:12:53Z</time></trkpt><trkpt lat="43.524012343922465" lon="10.991624872773784"><ele>104.0</ele><time>2026-05-04T10:12:55Z</time></trkpt><trkpt lat="43.52400169544393" lon="10.991793360997903"><ele>103.49999999999999</ele><time>2026-05-04T10:12:57Z</time></trkpt><trkpt lat="43.523988019620695" lon="10.99197835768616"><ele>103.0</ele><time>2026-05-04T10:12:59Z</time></trkpt><trkpt lat="43.52398568043673" lon="10.992076609615461"><ele>102.5</ele><time>2026-05-04T10:13:00Z</time></trkpt><trkpt lat="43.52399056183764" lon="10.992176355258197"><ele>102.0</ele><time>2026-05-04T10:13:02Z</time></trkpt><trkpt lat="43.52399564892704" lon="10.992270953950786"><ele>101.49999999999999</ele><time>2026-05-04T10:13:06Z</time></trkpt><trkpt lat="43.52399195209729" lon="10.99235938370111"><ele>101.0</ele><time>2026-05-04T10:13:17Z</time></trkpt><trkpt lat="43.523957945853674" lon="10.992460892902743"><ele>100.99999999999999</ele><time>2026-05-04T10:13:24.001Z</time></trkpt><trkpt lat="43.52396561437013" lon="10.992578979652418"><ele>101.0</ele><time>2026-05-04T10:13:25.001Z</time></trkpt><trkpt lat="43.52397995128167" lon="10.99267260150885"><ele>101.0</ele><time>2026-05-04T10:13:26.001Z</time></trkpt><trkpt lat="43.523976639627165" lon="10.992762726459915"><ele>101.0</ele><time>2026-05-04T10:13:27.001Z</time></trkpt><trkpt lat="43.52396966235816" lon="10.992849343611153"><ele>100.99999999999999</ele><time>2026-05-04T10:13:28.001Z</time></trkpt><trkpt lat="43.52396146606677" lon="10.992938612075147"><ele>101.0</ele><time>2026-05-04T10:13:29.001Z</time></trkpt><trkpt lat="43.52396577306054" lon="10.993080923954238"><ele>100.99999999999999</ele><time>2026-05-04T10:13:31.001Z</time></trkpt><trkpt lat="43.5239611250674" lon="10.993207848270567"><ele>101.0</ele><time>2026-05-04T10:13:33.001Z</time></trkpt><trkpt lat="43.52395696933656" lon="10.993312696904109"><ele>101.0</ele><time>2026-05-04T10:13:34.001Z</time></trkpt><trkpt lat="43.523951663529516" lon="10.993410188855977"><ele>101.0</ele><time>2026-05-04T10:13:35.001Z</time></trkpt><trkpt lat="43.523945617202315" lon="10.993502571701587"><ele>100.99999999999999</ele><time>2026-05-04T10:13:38.001Z</time></trkpt><trkpt lat="43.523954453126365" lon="10.993604044012264"><ele>101.0</ele><time>2026-05-04T10:13:40.001Z</time></trkpt><trkpt lat="43.52394156713372" lon="10.9937550042233"><ele>100.8</ele><time>2026-05-04T10:13:42.001Z</time></trkpt><trkpt lat="43.523937436429826" lon="10.993903790045673"><ele>100.6</ele><time>2026-05-04T10:13:44.001Z</time></trkpt><trkpt lat="43.52393119740498" lon="10.994056251190209"><ele>100.4</ele><time>2026-05-04T10:13:46.001Z</time></trkpt><trkpt lat="43.523934746411534" lon="10.99419839446978"><ele>100.2</ele><time>2026-05-04T10:13:48.001Z</time></trkpt><trkpt lat="43.52392690260128" lon="10.994337403866036"><ele>100.0</ele><time>2026-05-04T10:13:50.001Z</time></trkpt><trkpt lat="43.523931913857304" lon="10.994451561516144"><ele>100.0</ele><time>2026-05-04T10:13:52.001Z</time></trkpt><trkpt lat="43.52391990373911" lon="10.994594530444685"><ele>100.0</ele><time>2026-05-04T10:13:54.001Z</time></trkpt><trkpt lat="43.52391897400563" lon="10.994726854206714"><ele>100.0</ele><time>2026-05-04T10:13:56.001Z</time></trkpt><trkpt lat="43.523908899454966" lon="10.994814507697093"><ele>100.0</ele><time>2026-05-04T10:15:19.001Z</time></trkpt><trkpt lat="43.52390733833564" lon="10.99495064704421"><ele>100.0</ele><time>2026-05-04T10:15:21.001Z</time></trkpt><trkpt lat="43.52390373584033" lon="10.995115061358355"><ele>99.8</ele><time>2026-05-04T10:15:23.001Z</time></trkpt><trkpt lat="43.5239110225415" lon="10.995269819007618"><ele>99.6</ele><time>2026-05-04T10:15:25.001Z</time></trkpt><trkpt lat="43.523917191455716" lon="10.995390391522331"><ele>99.4</ele><time>2026-05-04T10:15:27.001Z</time></trkpt><trkpt lat="43.52391551148531" lon="10.995482363618144"><ele>99.2</ele><time>2026-05-04T10:15:29.001Z</time></trkpt><trkpt lat="43.52391470679561" lon="10.995613343183798"><ele>99.0</ele><time>2026-05-04T10:15:31.001Z</time></trkpt><trkpt lat="43.52391556194004" lon="10.995745432590024"><ele>99.0</ele><time>2026-05-04T10:15:33.001Z</time></trkpt><trkpt lat="43.52394125312374" lon="10.995827802616185"><ele>99.0</ele><time>2026-05-04T10:15:36.001Z</time></trkpt><trkpt lat="43.523947910975124" lon="10.995954358118706"><ele>99.0</ele><time>2026-05-04T10:15:39.001Z</time></trkpt><trkpt lat="43.52397435389017" lon="10.996102816335144"><ele>99.0</ele><time>2026-05-04T10:15:41.001Z</time></trkpt><trkpt lat="43.52402107848765" lon="10.996212877162877"><ele>99.0</ele><time>2026-05-04T10:15:43.001Z</time></trkpt><trkpt lat="43.524040637799224" lon="10.996297012470478"><ele>99.0</ele><time>2026-05-04T10:15:45.001Z</time></trkpt><trkpt lat="43.52407115288868" lon="10.996390245988435"><ele>99.0</ele><time>2026-05-04T10:15:48.001Z</time></trkpt><trkpt lat="43.52409504495681" lon="10.99648348708113"><ele>99.0</ele><time>2026-05-04T10:15:50.001Z</time></trkpt><trkpt lat="43.52413451067768" lon="10.996569523207581"><ele>99.0</ele><time>2026-05-04T10:15:52.001Z</time></trkpt><trkpt lat="43.52417209350028" lon="10.996665247900914"><ele>99.0</ele><time>2026-05-04T10:15:53.001Z</time></trkpt><trkpt lat="43.524207766683126" lon="10.99675720622317"><ele>99.0</ele><time>2026-05-04T10:15:54.001Z</time></trkpt><trkpt lat="43.52425417153912" lon="10.9968868142903"><ele>99.0</ele><time>2026-05-04T10:15:56.001Z</time></trkpt><trkpt lat="43.524301731086446" lon="10.996982137749772"><ele>99.6</ele><time>2026-05-04T10:15:58.001Z</time></trkpt><trkpt lat="43.524368864416104" lon="10.997119732115712"><ele>100.2</ele><time>2026-05-04T10:16:00.001Z</time></trkpt><trkpt lat="43.52440275338279" lon="10.997210363096746"><ele>100.8</ele><time>2026-05-04T10:16:01.001Z</time></trkpt><trkpt lat="43.524445613195105" lon="10.99731357667515"><ele>101.39999999999999</ele><time>2026-05-04T10:16:02.001Z</time></trkpt><trkpt lat="43.52450017648025" lon="10.99743362987939"><ele>102.0</ele><time>2026-05-04T10:16:03.001Z</time></trkpt><trkpt lat="43.524550039380436" lon="10.997556350800211"><ele>101.6</ele><time>2026-05-04T10:16:04.001Z</time></trkpt><trkpt lat="43.524599762235724" lon="10.997672337658678"><ele>101.19999999999999</ele><time>2026-05-04T10:16:05.001Z</time></trkpt><trkpt lat="43.52465467209652" lon="10.997806525747611"><ele>100.8</ele><time>2026-05-04T10:16:06.001Z</time></trkpt><trkpt lat="43.52469132556328" lon="10.997948455081108"><ele>100.4</ele><time>2026-05-04T10:16:07.001Z</time></trkpt><trkpt lat="43.5247443827892" lon="10.998087484715859"><ele>100.0</ele><time>2026-05-04T10:16:08.001Z</time></trkpt><trkpt lat="43.524793614283745" lon="10.998225635068984"><ele>99.2</ele><time>2026-05-04T10:16:09.001Z</time></trkpt><trkpt lat="43.52483586576579" lon="10.998354471095533"><ele>98.4</ele><time>2026-05-04T10:16:10.001Z</time></trkpt><trkpt lat="43.52487032909444" lon="10.998471363829854"><ele>97.6</ele><time>2026-05-04T10:16:11.001Z</time></trkpt><trkpt lat="43.52490115761819" lon="10.99860960613136"><ele>96.8</ele><time>2026-05-04T10:16:13.001Z</time></trkpt><trkpt lat="43.524842407184714" lon="10.99873302297062"><ele>96.0</ele><time>2026-05-04T10:16:17.001Z</time></trkpt><trkpt lat="43.52474517344261" lon="10.998820259184663"><ele>96.0</ele><time>2026-05-04T10:16:18.001Z</time></trkpt><trkpt lat="43.52463436465681" lon="10.998904083138788"><ele>96.0</ele><time>2026-05-04T10:16:19.001Z</time></trkpt><trkpt lat="43.52451975637502" lon="10.99899704286416"><ele>96.0</ele><time>2026-05-04T10:16:20.001Z</time></trkpt><trkpt lat="43.524432500403584" lon="10.99909208274052"><ele>96.0</ele><time>2026-05-04T10:16:21.001Z</time></trkpt><trkpt lat="43.52435352705833" lon="10.999145817852382"><ele>97.66666666666667</ele><time>2026-05-04T10:16:22.001Z</time></trkpt><trkpt lat="43.524288493597695" lon="10.999212661167764"><ele>99.33333333333334</ele><time>2026-05-04T10:16:23.001Z</time></trkpt><trkpt lat="43.524227353279066" lon="10.999260790930501"><ele>101.0</ele><time>2026-05-04T10:16:24.001Z</time></trkpt><trkpt lat="43.524166956313955" lon="10.99928920000641"><ele>102.66666666666667</ele><time>2026-05-04T10:16:28.001Z</time></trkpt><trkpt lat="43.524086797123005" lon="10.999375201255983"><ele>104.33333333333334</ele><time>2026-05-04T10:16:30.001Z</time></trkpt><trkpt lat="43.52397226399671" lon="10.999463931239157"><ele>106.0</ele><time>2026-05-04T10:16:32.001Z</time></trkpt><trkpt lat="43.52390975796895" lon="10.999484938727312"><ele>106.0</ele><time>2026-05-04T10:16:33.001Z</time></trkpt><trkpt lat="43.5238421056106" lon="10.999533577689474"><ele>106.0</ele><time>2026-05-04T10:16:34.001Z</time></trkpt><trkpt lat="43.523757100754075" lon="10.999594692289332"><ele>106.0</ele><time>2026-05-04T10:16:35.001Z</time></trkpt><trkpt lat="43.52366594060098" lon="10.999693056730022"><ele>106.0</ele><time>2026-05-04T10:16:37.001Z</time></trkpt><trkpt lat="43.52355011351747" lon="10.99978212208526"><ele>106.0</ele><time>2026-05-04T10:16:39.001Z</time></trkpt><trkpt lat="43.52347916564195" lon="10.99985301862104"><ele>105.83333333333334</ele><time>2026-05-04T10:16:40.001Z</time></trkpt><trkpt lat="43.52340687078148" lon="10.999923841912409"><ele>105.66666666666667</ele><time>2026-05-04T10:16:41.001Z</time></trkpt><trkpt lat="43.5233394191236" lon="10.999989920601548"><ele>105.5</ele><time>2026-05-04T10:16:42.001Z</time></trkpt><trkpt lat="43.52329290439938" lon="11.000057066874508"><ele>105.33333333333334</ele><time>2026-05-04T10:16:43.001Z</time></trkpt><trkpt lat="43.52323465287389" lon="11.000117278876832"><ele>105.16666666666667</ele><time>2026-05-04T10:16:45.001Z</time></trkpt><trkpt lat="43.52317150259478" lon="11.000168058542018"><ele>105.0</ele><time>2026-05-04T10:16:46.001Z</time></trkpt><trkpt lat="43.52311946886182" lon="11.000230623205677"><ele>105.0</ele><time>2026-05-04T10:16:47.001Z</time></trkpt><trkpt lat="43.523054372466675" lon="11.000328769534123"><ele>105.0</ele><time>2026-05-04T10:16:49.001Z</time></trkpt><trkpt lat="43.52300037451687" lon="11.000451609429664"><ele>105.0</ele><time>2026-05-04T10:16:51.001Z</time></trkpt><trkpt lat="43.52296041112056" lon="11.000598455970776"><ele>105.0</ele><time>2026-05-04T10:16:53.001Z</time></trkpt><trkpt lat="43.52295362818115" lon="11.000685640099524"><ele>105.0</ele><time>2026-05-04T10:16:54.001Z</time></trkpt><trkpt lat="43.522945882778615" lon="11.000784285275891"><ele>107.71428571428572</ele><time>2026-05-04T10:16:55.001Z</time></trkpt><trkpt lat="43.522942805440636" lon="11.00087460276664"><ele>110.42857142857143</ele><time>2026-05-04T10:16:56.001Z</time></trkpt><trkpt lat="43.52293950309111" lon="11.000964510729988"><ele>113.14285714285714</ele><time>2026-05-04T10:16:57.001Z</time></trkpt><trkpt lat="43.52293524043051" lon="11.001060701037614"><ele>115.85714285714286</ele><time>2026-05-04T10:16:58.001Z</time></trkpt><trkpt lat="43.522929369656104" lon="11.001148159416593"><ele>118.57142857142858</ele><time>2026-05-04T10:16:59.001Z</time></trkpt><trkpt lat="43.52292208890663" lon="11.001238756020996"><ele>121.28571428571429</ele><time>2026-05-04T10:17:00.001Z</time></trkpt><trkpt lat="43.52291221289272" lon="11.001361660411588"><ele>124.0</ele><time>2026-05-04T10:17:02.001Z</time></trkpt><trkpt lat="43.52291934111869" lon="11.00148508185299"><ele>124.00000000000001</ele><time>2026-05-04T10:17:04.001Z</time></trkpt><trkpt lat="43.522911460335386" lon="11.001571915631645"><ele>124.0</ele><time>2026-05-04T10:17:05.001Z</time></trkpt><trkpt lat="43.5229091677266" lon="11.001662293747131"><ele>124.0</ele><time>2026-05-04T10:17:06.001Z</time></trkpt><trkpt lat="43.5228982772758" lon="11.001760263686425"><ele>124.0</ele><time>2026-05-04T10:17:07.001Z</time></trkpt><trkpt lat="43.522893440026365" lon="11.001860810356899"><ele>124.00000000000001</ele><time>2026-05-04T10:17:08.001Z</time></trkpt><trkpt lat="43.52287476297266" lon="11.002035991805094"><ele>124.0</ele><time>2026-05-04T10:17:10.001Z</time></trkpt><trkpt lat="43.52288132895342" lon="11.002142801060895"><ele>123.28571428571429</ele><time>2026-05-04T10:17:11.001Z</time></trkpt><trkpt lat="43.52286191069214" lon="11.002230100529255"><ele>122.57142857142858</ele><time>2026-05-04T10:17:12.001Z</time></trkpt><trkpt lat="43.52286805519902" lon="11.002334655535412"><ele>121.85714285714286</ele><time>2026-05-04T10:17:13.001Z</time></trkpt><trkpt lat="43.52284908221074" lon="11.002428891159672"><ele>121.14285714285714</ele><time>2026-05-04T10:17:14.001Z</time></trkpt><trkpt lat="43.522843888045045" lon="11.002516597549214"><ele>120.42857142857143</ele><time>2026-05-04T10:17:15.001Z</time></trkpt><trkpt lat="43.52283872634657" lon="11.002603755638894"><ele>119.71428571428572</ele><time>2026-05-04T10:17:16.001Z</time></trkpt><trkpt lat="43.522845508628436" lon="11.002706872805394"><ele>119.0</ele><time>2026-05-04T10:17:17.001Z</time></trkpt><trkpt lat="43.52284326568933" lon="11.002815377277214"><ele>121.0</ele><time>2026-05-04T10:17:18.001Z</time></trkpt><trkpt lat="43.52283398146843" lon="11.002937665406316"><ele>123.0</ele><time>2026-05-04T10:17:19.001Z</time></trkpt><trkpt lat="43.52282364947944" lon="11.003041013674945"><ele>125.0</ele><time>2026-05-04T10:17:20.001Z</time></trkpt><trkpt lat="43.52281624627155" lon="11.00317529179297"><ele>127.0</ele><time>2026-05-04T10:17:21.001Z</time></trkpt><trkpt lat="43.522812218662075" lon="11.00331062509696"><ele>129.0</ele><time>2026-05-04T10:17:22.001Z</time></trkpt><trkpt lat="43.52280346526896" lon="11.003459441297618"><ele>130.4</ele><time>2026-05-04T10:17:23.001Z</time></trkpt><trkpt lat="43.52279923538263" lon="11.003603891005193"><ele>131.8</ele><time>2026-05-04T10:17:24.001Z</time></trkpt><trkpt lat="43.52279525776062" lon="11.003749538582294"><ele>133.2</ele><time>2026-05-04T10:17:25.001Z</time></trkpt><trkpt lat="43.52278977048914" lon="11.003903264286777"><ele>134.6</ele><time>2026-05-04T10:17:26.001Z</time></trkpt><trkpt lat="43.52278105114447" lon="11.00406109854627"><ele>136.0</ele><time>2026-05-04T10:17:27.001Z</time></trkpt><trkpt lat="43.52277073138393" lon="11.004206782005653"><ele>137.8</ele><time>2026-05-04T10:17:28.001Z</time></trkpt><trkpt lat="43.52276495705925" lon="11.004356375815586"><ele>139.6</ele><time>2026-05-04T10:17:29.001Z</time></trkpt><trkpt lat="43.522748113613765" lon="11.004482100138736"><ele>141.4</ele><time>2026-05-04T10:17:30.001Z</time></trkpt><trkpt lat="43.52274519580174" lon="11.004610613518487"><ele>143.2</ele><time>2026-05-04T10:17:31.001Z</time></trkpt><trkpt lat="43.52274356649604" lon="11.004742164975783"><ele>145.0</ele><time>2026-05-04T10:17:32.001Z</time></trkpt><trkpt lat="43.52273885749977" lon="11.00484502263706"><ele>145.0</ele><time>2026-05-04T10:17:33.001Z</time></trkpt><trkpt lat="43.522737144103566" lon="11.004933339011039"><ele>145.0</ele><time>2026-05-04T10:17:34.001Z</time></trkpt><trkpt lat="43.522716739888885" lon="11.005022511523816"><ele>145.0</ele><time>2026-05-04T10:17:35.001Z</time></trkpt><trkpt lat="43.52268327954316" lon="11.005149724436874"><ele>145.0</ele><time>2026-05-04T10:17:37.001Z</time></trkpt><trkpt lat="43.52261620665893" lon="11.005159262845865"><ele>145.0</ele><time>2026-05-04T10:17:40.001Z</time></trkpt><trkpt lat="43.52254115088425" lon="11.005130751879676"><ele>145.0</ele><time>2026-05-04T10:17:42.001Z</time></trkpt><trkpt lat="43.52241959658682" lon="11.005097558477518"><ele>146.4</ele><time>2026-05-04T10:17:44.001Z</time></trkpt><trkpt lat="43.52229305842364" lon="11.005149977019743"><ele>147.8</ele><time>2026-05-04T10:17:46.001Z</time></trkpt><trkpt lat="43.52220628262682" lon="11.005184655239498"><ele>149.2</ele><time>2026-05-04T10:17:47.001Z</time></trkpt><trkpt lat="43.52211942447029" lon="11.0051758850978"><ele>150.6</ele><time>2026-05-04T10:17:48.001Z</time></trkpt><trkpt lat="43.52201007012161" lon="11.005164487262567"><ele>152.0</ele><time>2026-05-04T10:17:49.001Z</time></trkpt><trkpt lat="43.52191743861875" lon="11.00516073051312"><ele>152.66666666666666</ele><time>2026-05-04T10:17:50.001Z</time></trkpt><trkpt lat="43.52185470217814" lon="11.005175724238462"><ele>153.33333333333331</ele><time>2026-05-04T10:17:51.001Z</time></trkpt><trkpt lat="43.52179021437271" lon="11.005260650074117"><ele>154.0</ele><time>2026-05-04T10:17:53.001Z</time></trkpt><trkpt lat="43.521801449207636" lon="11.005364840990541"><ele>154.66666666666666</ele><time>2026-05-04T10:17:54.001Z</time></trkpt><trkpt lat="43.52191483379677" lon="11.005451981610708"><ele>155.33333333333334</ele><time>2026-05-04T10:17:56.001Z</time></trkpt><trkpt lat="43.52198178636262" lon="11.005510911422128"><ele>156.0</ele><time>2026-05-04T10:17:57.001Z</time></trkpt><trkpt lat="43.522064446300845" lon="11.005573300768193"><ele>155.0</ele><time>2026-05-04T10:17:58.001Z</time></trkpt><trkpt lat="43.522137437857566" lon="11.005670496556789"><ele>154.0</ele><time>2026-05-04T10:17:59.001Z</time></trkpt><trkpt lat="43.52222483086716" lon="11.00575864926805"><ele>153.0</ele><time>2026-05-04T10:18:00.001Z</time></trkpt><trkpt lat="43.522330290071345" lon="11.00586812394661"><ele>152.0</ele><time>2026-05-04T10:18:01.001Z</time></trkpt><trkpt lat="43.52242782371433" lon="11.005976632380245"><ele>154.8</ele><time>2026-05-04T10:18:02.001Z</time></trkpt><trkpt lat="43.52253888025807" lon="11.006080626266382"><ele>157.6</ele><time>2026-05-04T10:18:03.001Z</time></trkpt><trkpt lat="43.52261677262221" lon="11.006182649451908"><ele>160.4</ele><time>2026-05-04T10:18:04.001Z</time></trkpt><trkpt lat="43.522714007601856" lon="11.006252813900844"><ele>163.20000000000002</ele><time>2026-05-04T10:18:05.001Z</time></trkpt><trkpt lat="43.522794775804925" lon="11.006296848418442"><ele>166.0</ele><time>2026-05-04T10:18:06.001Z</time></trkpt><trkpt lat="43.522890038366754" lon="11.006337224693015"><ele>166.0</ele><time>2026-05-04T10:18:07.001Z</time></trkpt><trkpt lat="43.52294844344843" lon="11.006421120168106"><ele>166.0</ele><time>2026-05-04T10:18:09.001Z</time></trkpt><trkpt lat="43.5229239412913" lon="11.00655121521029"><ele>166.0</ele><time>2026-05-04T10:18:11.001Z</time></trkpt><trkpt lat="43.522841140489774" lon="11.006580824487092"><ele>166.0</ele><time>2026-05-04T10:18:13.001Z</time></trkpt><trkpt lat="43.522790847233445" lon="11.00651652828111"><ele>166.0</ele><time>2026-05-04T10:18:14.001Z</time></trkpt><trkpt lat="43.522720498693545" lon="11.006484176808716"><ele>166.0</ele><time>2026-05-04T10:18:15.001Z</time></trkpt><trkpt lat="43.52263691399175" lon="11.006483255998397"><ele>166.0</ele><time>2026-05-04T10:18:16.001Z</time></trkpt><trkpt lat="43.522539150194056" lon="11.006486528790624"><ele>166.0</ele><time>2026-05-04T10:18:18.001Z</time></trkpt><trkpt lat="43.52255767610406" lon="11.006646286780207"><ele>166.0</ele><time>2026-05-04T10:18:20.001Z</time></trkpt><trkpt lat="43.52263532935415" lon="11.006796170753478"><ele>166.0</ele><time>2026-05-04T10:18:22.001Z</time></trkpt><trkpt lat="43.522650745247184" lon="11.00691018735707"><ele>166.0</ele><time>2026-05-04T10:18:23.001Z</time></trkpt><trkpt lat="43.52265795396817" lon="11.007029323247082"><ele>168.20000000000002</ele><time>2026-05-04T10:18:24.001Z</time></trkpt><trkpt lat="43.52265227825815" lon="11.007141335905992"><ele>170.4</ele><time>2026-05-04T10:18:25.001Z</time></trkpt><trkpt lat="43.52263304051154" lon="11.007275575211086"><ele>172.6</ele><time>2026-05-04T10:18:26.001Z</time></trkpt><trkpt lat="43.522602973401575" lon="11.007426388908149"><ele>174.8</ele><time>2026-05-04T10:18:27.001Z</time></trkpt><trkpt lat="43.522565819860766" lon="11.007593899587706"><ele>177.0</ele><time>2026-05-04T10:18:28.001Z</time></trkpt><trkpt lat="43.52253742075302" lon="11.007766702505199"><ele>178.75</ele><time>2026-05-04T10:18:29.001Z</time></trkpt><trkpt lat="43.5225331882777" lon="11.007935852940351"><ele>180.5</ele><time>2026-05-04T10:18:30.001Z</time></trkpt><trkpt lat="43.522512178193686" lon="11.008105419596093"><ele>182.25</ele><time>2026-05-04T10:18:31.001Z</time></trkpt><trkpt lat="43.52249477375437" lon="11.008306334177702"><ele>184.0</ele><time>2026-05-04T10:18:32.001Z</time></trkpt><trkpt lat="43.52248082044168" lon="11.008471559029386"><ele>184.5</ele><time>2026-05-04T10:18:33.001Z</time></trkpt><trkpt lat="43.52246108777652" lon="11.00862357654551"><ele>185.0</ele><time>2026-05-04T10:18:34.001Z</time></trkpt><trkpt lat="43.5224815368995" lon="11.008794055820015"><ele>185.5</ele><time>2026-05-04T10:18:35.001Z</time></trkpt><trkpt lat="43.5224801164425" lon="11.00896338515365"><ele>186.0</ele><time>2026-05-04T10:18:36.001Z</time></trkpt><trkpt lat="43.522486731179036" lon="11.009118243906002"><ele>186.33333333333334</ele><time>2026-05-04T10:18:37.001Z</time></trkpt><trkpt lat="43.52249004928717" lon="11.009255858004023"><ele>186.66666666666666</ele><time>2026-05-04T10:18:38.001Z</time></trkpt><trkpt lat="43.52248074564067" lon="11.009368141514333"><ele>187.0</ele><time>2026-05-04T10:18:39Z</time></trkpt><trkpt lat="43.52246368652622" lon="11.009483471962618"><ele>187.33333333333331</ele><time>2026-05-04T10:18:40Z</time></trkpt><trkpt lat="43.522444037566274" lon="11.00956884567569"><ele>187.66666666666666</ele><time>2026-05-04T10:18:41Z</time></trkpt><trkpt lat="43.522428418397844" lon="11.00968106961404"><ele>188.0</ele><time>2026-05-04T10:18:43Z</time></trkpt><trkpt lat="43.52242303050535" lon="11.009842558226682"><ele>188.0</ele><time>2026-05-04T10:18:46Z</time></trkpt><trkpt lat="43.522588495637216" lon="11.009890575011694"><ele>188.0</ele><time>2026-05-04T10:18:47Z</time></trkpt><trkpt lat="43.52268657181563" lon="11.01003289820912"><ele>188.0</ele><time>2026-05-04T10:18:48Z</time></trkpt><trkpt lat="43.52279530121657" lon="11.010178257863688"><ele>184.66666666666666</ele><time>2026-05-04T10:18:49Z</time></trkpt><trkpt lat="43.52290974699855" lon="11.010328489163662"><ele>181.33333333333334</ele><time>2026-05-04T10:18:50Z</time></trkpt><trkpt lat="43.52303485539193" lon="11.010496788094494"><ele>178.0</ele><time>2026-05-04T10:18:51Z</time></trkpt><trkpt lat="43.52316173366767" lon="11.010666147380155"><ele>183.66666666666669</ele><time>2026-05-04T10:18:52Z</time></trkpt><trkpt lat="43.523298604966264" lon="11.010843397361276"><ele>189.33333333333334</ele><time>2026-05-04T10:18:53Z</time></trkpt><trkpt lat="43.523434416527856" lon="11.011022760114033"><ele>195.0</ele><time>2026-05-04T10:18:54Z</time></trkpt><trkpt lat="43.52355995869556" lon="11.01118796392276"><ele>195.0</ele><time>2026-05-04T10:18:55Z</time></trkpt><trkpt lat="43.52366406507294" lon="11.011332004993818"><ele>195.0</ele><time>2026-05-04T10:18:56Z</time></trkpt><trkpt lat="43.523735762992544" lon="11.01143358426939"><ele>195.0</ele><time>2026-05-04T10:18:57Z</time></trkpt><trkpt lat="43.52378163678138" lon="11.011512418906728"><ele>195.0</ele><time>2026-05-04T10:18:59Z</time></trkpt><trkpt lat="43.523720691349666" lon="11.01164266146505"><ele>195.0</ele><time>2026-05-04T10:19:02Z</time></trkpt><trkpt lat="43.52365414421608" lon="11.011647329490241"><ele>196.0</ele><time>2026-05-04T10:19:03Z</time></trkpt><trkpt lat="43.52356231146916" lon="11.011706748643837"><ele>197.0</ele><time>2026-05-04T10:19:04Z</time></trkpt><trkpt lat="43.523437243795854" lon="11.011786198885758"><ele>198.0</ele><time>2026-05-04T10:19:05Z</time></trkpt><trkpt lat="43.52332099423676" lon="11.011883065003598"><ele>199.0</ele><time>2026-05-04T10:19:06Z</time></trkpt><trkpt lat="43.52321922511321" lon="11.011948627463525"><ele>199.0</ele><time>2026-05-04T10:19:07Z</time></trkpt><trkpt lat="43.52313694116791" lon="11.011974370473178"><ele>199.0</ele><time>2026-05-04T10:19:08Z</time></trkpt><trkpt lat="43.52306825926833" lon="11.01200601697096"><ele>199.0</ele><time>2026-05-04T10:19:09Z</time></trkpt><trkpt lat="43.522963352715585" lon="11.01208547585114"><ele>199.0</ele><time>2026-05-04T10:19:11Z</time></trkpt><trkpt lat="43.52289653362591" lon="11.012268238948847"><ele>199.0</ele><time>2026-05-04T10:19:13Z</time></trkpt><trkpt lat="43.52285992943251" lon="11.012415518184815"><ele>196.6</ele><time>2026-05-04T10:19:14Z</time></trkpt><trkpt lat="43.52282045461543" lon="11.012581155460245"><ele>194.2</ele><time>2026-05-04T10:19:15Z</time></trkpt><trkpt lat="43.5227665794603" lon="11.012714353368235"><ele>191.79999999999998</ele><time>2026-05-04T10:19:16Z</time></trkpt><trkpt lat="43.52273428771037" lon="11.012828157545998"><ele>189.39999999999998</ele><time>2026-05-04T10:19:17Z</time></trkpt><trkpt lat="43.52271322875867" lon="11.012935580742774"><ele>187.0</ele><time>2026-05-04T10:19:18Z</time></trkpt><trkpt lat="43.522716649280156" lon="11.013044439767116"><ele>187.0</ele><time>2026-05-04T10:19:19Z</time></trkpt><trkpt lat="43.52274298558047" lon="11.013162344166863"><ele>187.0</ele><time>2026-05-04T10:19:20Z</time></trkpt><trkpt lat="43.522794338229794" lon="11.01327488789535"><ele>187.0</ele><time>2026-05-04T10:19:21Z</time></trkpt><trkpt lat="43.52284608157016" lon="11.013382605113772"><ele>187.0</ele><time>2026-05-04T10:19:22Z</time></trkpt><trkpt lat="43.522906427054835" lon="11.013497675266454"><ele>187.0</ele><time>2026-05-04T10:19:23Z</time></trkpt><trkpt lat="43.52297867100922" lon="11.013587815196004"><ele>187.6</ele><time>2026-05-04T10:19:24Z</time></trkpt><trkpt lat="43.52303404287258" lon="11.013695416389735"><ele>188.2</ele><time>2026-05-04T10:19:25Z</time></trkpt><trkpt lat="43.52306581772931" lon="11.013795877541078"><ele>188.8</ele><time>2026-05-04T10:19:26Z</time></trkpt><trkpt lat="43.52311338518127" lon="11.013884777265634"><ele>189.4</ele><time>2026-05-04T10:19:27Z</time></trkpt><trkpt lat="43.523168267081715" lon="11.013983977169632"><ele>190.0</ele><time>2026-05-04T10:19:28Z</time></trkpt><trkpt lat="43.523241137848366" lon="11.0141036005971"><ele>189.75</ele><time>2026-05-04T10:19:29Z</time></trkpt><trkpt lat="43.523328435968736" lon="11.014206382977703"><ele>189.5</ele><time>2026-05-04T10:19:30Z</time></trkpt><trkpt lat="43.52340383886919" lon="11.014333814070975"><ele>189.25</ele><time>2026-05-04T10:19:31Z</time></trkpt><trkpt lat="43.52348054527569" lon="11.014454372103588"><ele>189.0</ele><time>2026-05-04T10:19:32Z</time></trkpt><trkpt lat="43.5235700365927" lon="11.01460181019176"><ele>189.0</ele><time>2026-05-04T10:19:33Z</time></trkpt><trkpt lat="43.523665529376856" lon="11.014747425491958"><ele>189.0</ele><time>2026-05-04T10:19:34Z</time></trkpt><trkpt lat="43.523754205147384" lon="11.014888071385768"><ele>189.0</ele><time>2026-05-04T10:19:35Z</time></trkpt><trkpt lat="43.5238558809552" lon="11.0150463226459"><ele>189.0</ele><time>2026-05-04T10:19:36Z</time></trkpt><trkpt lat="43.523964665327924" lon="11.015222440987587"><ele>185.66666666666666</ele><time>2026-05-04T10:19:37Z</time></trkpt><trkpt lat="43.524072378984165" lon="11.015401736310697"><ele>182.33333333333331</ele><time>2026-05-04T10:19:38Z</time></trkpt><trkpt lat="43.5241741266921" lon="11.01556691136592"><ele>179.0</ele><time>2026-05-04T10:19:39Z</time></trkpt><trkpt lat="43.52427917233755" lon="11.015728730814152"><ele>176.66666666666666</ele><time>2026-05-04T10:19:40Z</time></trkpt><trkpt lat="43.52438740566835" lon="11.015913848760196"><ele>174.33333333333334</ele><time>2026-05-04T10:19:41Z</time></trkpt><trkpt lat="43.524490325852845" lon="11.016090952206966"><ele>172.0</ele><time>2026-05-04T10:19:42Z</time></trkpt><trkpt lat="43.524594388185214" lon="11.016265429367222"><ele>172.25</ele><time>2026-05-04T10:19:43Z</time></trkpt><trkpt lat="43.524695421368875" lon="11.01641750648469"><ele>172.5</ele><time>2026-05-04T10:19:44Z</time></trkpt><trkpt lat="43.5247906434192" lon="11.016557451571881"><ele>172.75</ele><time>2026-05-04T10:19:45Z</time></trkpt><trkpt lat="43.52486551502858" lon="11.016671857417872"><ele>173.0</ele><time>2026-05-04T10:19:46.001Z</time></trkpt><trkpt lat="43.52491869435078" lon="11.016761239192945"><ele>173.0</ele><time>2026-05-04T10:19:47.001Z</time></trkpt><trkpt lat="43.52495545032866" lon="11.016846810409037"><ele>173.0</ele><time>2026-05-04T10:19:48.001Z</time></trkpt><trkpt lat="43.52499084624248" lon="11.016968212455149"><ele>173.0</ele><time>2026-05-04T10:19:49.001Z</time></trkpt><trkpt lat="43.52502891830585" lon="11.017139561341047"><ele>173.0</ele><time>2026-05-04T10:19:50.001Z</time></trkpt><trkpt lat="43.52508289648882" lon="11.01734158230213"><ele>173.0</ele><time>2026-05-04T10:19:51.001Z</time></trkpt><trkpt lat="43.525141836320216" lon="11.017557971260018"><ele>173.0</ele><time>2026-05-04T10:19:52.001Z</time></trkpt><trkpt lat="43.52520466572208" lon="11.017785599511637"><ele>173.0</ele><time>2026-05-04T10:19:53.001Z</time></trkpt><trkpt lat="43.52526535306479" lon="11.018002813756024"><ele>173.0</ele><time>2026-05-04T10:19:54.001Z</time></trkpt><trkpt lat="43.52532080334976" lon="11.01819826065074"><ele>173.0</ele><time>2026-05-04T10:19:55.001Z</time></trkpt><trkpt lat="43.52536543932146" lon="11.018374212816337"><ele>173.0</ele><time>2026-05-04T10:19:56.001Z</time></trkpt><trkpt lat="43.525409740116004" lon="11.018534458630725"><ele>173.0</ele><time>2026-05-04T10:19:57.001Z</time></trkpt><trkpt lat="43.52544119588281" lon="11.018653208651807"><ele>172.60000000000002</ele><time>2026-05-04T10:19:58.001Z</time></trkpt><trkpt lat="43.52546334018523" lon="11.018759357110346"><ele>172.20000000000002</ele><time>2026-05-04T10:19:59.001Z</time></trkpt><trkpt lat="43.52547274002143" lon="11.018858999080761"><ele>171.8</ele><time>2026-05-04T10:20:00.001Z</time></trkpt><trkpt lat="43.52546346140086" lon="11.018972664761256"><ele>171.4</ele><time>2026-05-04T10:20:01.001Z</time></trkpt><trkpt lat="43.52544802302968" lon="11.019128542483026"><ele>171.0</ele><time>2026-05-04T10:20:02.001Z</time></trkpt><trkpt lat="43.52543421064374" lon="11.019313211382618"><ele>170.75</ele><time>2026-05-04T10:20:03.001Z</time></trkpt><trkpt lat="43.525417053548935" lon="11.019496123485483"><ele>170.5</ele><time>2026-05-04T10:20:04.001Z</time></trkpt><trkpt lat="43.52540690194473" lon="11.019677837355903"><ele>170.25</ele><time>2026-05-04T10:20:05.001Z</time></trkpt><trkpt lat="43.52539734998375" lon="11.019855491135122"><ele>170.0</ele><time>2026-05-04T10:20:06.001Z</time></trkpt><trkpt lat="43.525387327948046" lon="11.020031792644236"><ele>170.0</ele><time>2026-05-04T10:20:07.001Z</time></trkpt><trkpt lat="43.52537606607265" lon="11.020211689498758"><ele>170.0</ele><time>2026-05-04T10:20:08.001Z</time></trkpt><trkpt lat="43.525364300250125" lon="11.020373564775218"><ele>170.0</ele><time>2026-05-04T10:20:09.001Z</time></trkpt><trkpt lat="43.52535055180835" lon="11.020535645769911"><ele>170.0</ele><time>2026-05-04T10:20:10.001Z</time></trkpt><trkpt lat="43.52533353401028" lon="11.020693083329473"><ele>170.0</ele><time>2026-05-04T10:20:11.001Z</time></trkpt><trkpt lat="43.52532541355363" lon="11.02081311385437"><ele>170.0</ele><time>2026-05-04T10:20:12.001Z</time></trkpt><trkpt lat="43.52531408088148" lon="11.020936073476134"><ele>170.0</ele><time>2026-05-04T10:20:13.001Z</time></trkpt><trkpt lat="43.52530472617399" lon="11.021047403040301"><ele>170.0</ele><time>2026-05-04T10:20:14.001Z</time></trkpt><trkpt lat="43.52530257172148" lon="11.021173022787139"><ele>170.0</ele><time>2026-05-04T10:20:15.001Z</time></trkpt><trkpt lat="43.52530548619906" lon="11.021290281942658"><ele>170.0</ele><time>2026-05-04T10:20:16.001Z</time></trkpt><trkpt lat="43.525316915434686" lon="11.021417906780867"><ele>169.83333333333331</ele><time>2026-05-04T10:20:17.001Z</time></trkpt><trkpt lat="43.525324809071456" lon="11.02153944897241"><ele>169.66666666666666</ele><time>2026-05-04T10:20:18.001Z</time></trkpt><trkpt lat="43.52533390066786" lon="11.021651275122748"><ele>169.5</ele><time>2026-05-04T10:20:19.001Z</time></trkpt><trkpt lat="43.52536034612965" lon="11.021740698537476"><ele>169.33333333333334</ele><time>2026-05-04T10:20:20.001Z</time></trkpt><trkpt lat="43.52539357951046" lon="11.021823524744612"><ele>169.16666666666669</ele><time>2026-05-04T10:20:21.001Z</time></trkpt><trkpt lat="43.52544062954873" lon="11.021902270405427"><ele>169.0</ele><time>2026-05-04T10:20:22.001Z</time></trkpt><trkpt lat="43.525515889239394" lon="11.022003720300708"><ele>168.66666666666669</ele><time>2026-05-04T10:20:23.001Z</time></trkpt><trkpt lat="43.52561881059002" lon="11.02214750959039"><ele>168.33333333333334</ele><time>2026-05-04T10:20:24.001Z</time></trkpt><trkpt lat="43.525727704114644" lon="11.022313101093227"><ele>168.0</ele><time>2026-05-04T10:20:25.001Z</time></trkpt><trkpt lat="43.525828660347265" lon="11.022469618038926"><ele>168.25</ele><time>2026-05-04T10:20:26.001Z</time></trkpt><trkpt lat="43.52591420405891" lon="11.022602836039885"><ele>168.5</ele><time>2026-05-04T10:20:27.001Z</time></trkpt><trkpt lat="43.52599702943633" lon="11.022722482758404"><ele>168.75</ele><time>2026-05-04T10:20:28.001Z</time></trkpt><trkpt lat="43.52608063345092" lon="11.022826464492013"><ele>169.0</ele><time>2026-05-04T10:20:29.001Z</time></trkpt><trkpt lat="43.526170405202386" lon="11.022927222957986"><ele>168.79999999999998</ele><time>2026-05-04T10:20:30.001Z</time></trkpt><trkpt lat="43.52626701839552" lon="11.023026364543039"><ele>168.6</ele><time>2026-05-04T10:20:31.001Z</time></trkpt><trkpt lat="43.52636085655515" lon="11.023124354467313"><ele>168.4</ele><time>2026-05-04T10:20:32.001Z</time></trkpt><trkpt lat="43.526436820341154" lon="11.023198725323748"><ele>168.2</ele><time>2026-05-04T10:20:33.001Z</time></trkpt><trkpt lat="43.526527560906715" lon="11.023279086621987"><ele>168.0</ele><time>2026-05-04T10:20:34.001Z</time></trkpt><trkpt lat="43.52661223469601" lon="11.0233756930699"><ele>168.8</ele><time>2026-05-04T10:20:35.001Z</time></trkpt><trkpt lat="43.52667397518368" lon="11.023439010038144"><ele>169.60000000000002</ele><time>2026-05-04T10:20:36.001Z</time></trkpt><trkpt lat="43.52674084759935" lon="11.023479607043306"><ele>170.39999999999998</ele><time>2026-05-04T10:20:37.001Z</time></trkpt><trkpt lat="43.52682355606233" lon="11.023513541569292"><ele>171.2</ele><time>2026-05-04T10:20:38.001Z</time></trkpt><trkpt lat="43.526931338973604" lon="11.02354429615793"><ele>172.0</ele><time>2026-05-04T10:20:40.001Z</time></trkpt><trkpt lat="43.52702835882517" lon="11.023629762617224"><ele>170.5</ele><time>2026-05-04T10:20:42.001Z</time></trkpt><trkpt lat="43.52709780840184" lon="11.023710628530203"><ele>169.0</ele><time>2026-05-04T10:20:44.001Z</time></trkpt><trkpt lat="43.52716523964706" lon="11.023784005218449"><ele>167.5</ele><time>2026-05-04T10:20:46Z</time></trkpt><trkpt lat="43.527230308401585" lon="11.023830806316194"><ele>166.0</ele><time>2026-05-04T10:20:48Z</time></trkpt><trkpt lat="43.52731775353233" lon="11.023822980594261"><ele>164.5</ele><time>2026-05-04T10:20:50Z</time></trkpt><trkpt lat="43.52739191510053" lon="11.023761701565075"><ele>163.0</ele><time>2026-05-04T10:20:52Z</time></trkpt><trkpt lat="43.52745089596983" lon="11.023680602329229"><ele>163.0</ele><time>2026-05-04T10:20:54Z</time></trkpt><trkpt lat="43.52747246154193" lon="11.023591532000648"><ele>163.0</ele><time>2026-05-04T10:20:56Z</time></trkpt><trkpt lat="43.52753696602563" lon="11.023557538061933"><ele>163.0</ele><time>2026-05-04T10:21:00Z</time></trkpt><trkpt lat="43.52761316558441" lon="11.02363919429503"><ele>163.0</ele><time>2026-05-04T10:21:03Z</time></trkpt><trkpt lat="43.52768281002593" lon="11.023751813512469"><ele>163.0</ele><time>2026-05-04T10:21:05Z</time></trkpt><trkpt lat="43.527760549905594" lon="11.02387300996644"><ele>163.0</ele><time>2026-05-04T10:21:07Z</time></trkpt><trkpt lat="43.52780181774573" lon="11.023941390601179"><ele>163.0</ele><time>2026-05-04T10:21:08Z</time></trkpt><trkpt lat="43.5278727006021" lon="11.02407888186064"><ele>163.0</ele><time>2026-05-04T10:21:10Z</time></trkpt><trkpt lat="43.52793768768737" lon="11.02424557743616"><ele>163.0</ele><time>2026-05-04T10:21:12Z</time></trkpt><trkpt lat="43.527969040951035" lon="11.024360131232157"><ele>163.0</ele><time>2026-05-04T10:21:13Z</time></trkpt><trkpt lat="43.52799368861912" lon="11.024474897690858"><ele>159.83333333333334</ele><time>2026-05-04T10:21:14Z</time></trkpt><trkpt lat="43.528017492053976" lon="11.02459032074153"><ele>156.66666666666669</ele><time>2026-05-04T10:21:15Z</time></trkpt><trkpt lat="43.528039185186564" lon="11.024696505534655"><ele>153.5</ele><time>2026-05-04T10:21:16Z</time></trkpt><trkpt lat="43.5280614947148" lon="11.024808879321208"><ele>150.33333333333334</ele><time>2026-05-04T10:21:17Z</time></trkpt><trkpt lat="43.52808651088307" lon="11.024938173810913"><ele>147.16666666666666</ele><time>2026-05-04T10:21:18Z</time></trkpt><trkpt lat="43.528112204917086" lon="11.025068730613688"><ele>144.0</ele><time>2026-05-04T10:21:19Z</time></trkpt><trkpt lat="43.52813816070492" lon="11.025201778897348"><ele>143.0</ele><time>2026-05-04T10:21:20Z</time></trkpt><trkpt lat="43.52816167521396" lon="11.02532362507238"><ele>142.0</ele><time>2026-05-04T10:21:21Z</time></trkpt><trkpt lat="43.52818610276429" lon="11.025444236101523"><ele>141.0</ele><time>2026-05-04T10:21:22Z</time></trkpt><trkpt lat="43.52821300141759" lon="11.025570428231426"><ele>140.0</ele><time>2026-05-04T10:21:23Z</time></trkpt><trkpt lat="43.52823668036641" lon="11.025688272783258"><ele>139.0</ele><time>2026-05-04T10:21:24Z</time></trkpt><trkpt lat="43.5282594966155" lon="11.025810420526282"><ele>137.83333333333334</ele><time>2026-05-04T10:21:25Z</time></trkpt><trkpt lat="43.528280748296964" lon="11.025919290574963"><ele>136.66666666666669</ele><time>2026-05-04T10:21:26Z</time></trkpt><trkpt lat="43.52829803320707" lon="11.026018194808103"><ele>135.5</ele><time>2026-05-04T10:21:27Z</time></trkpt><trkpt lat="43.52832160950907" lon="11.026139835872629"><ele>134.33333333333334</ele><time>2026-05-04T10:21:28Z</time></trkpt><trkpt lat="43.52833832064706" lon="11.02624084453935"><ele>133.16666666666666</ele><time>2026-05-04T10:21:29Z</time></trkpt><trkpt lat="43.528361616620934" lon="11.026340336679578"><ele>132.0</ele><time>2026-05-04T10:21:30Z</time></trkpt><trkpt lat="43.528389041868394" lon="11.026466522546858"><ele>132.0</ele><time>2026-05-04T10:21:31Z</time></trkpt><trkpt lat="43.52842157951088" lon="11.026586452074879"><ele>132.0</ele><time>2026-05-04T10:21:32Z</time></trkpt><trkpt lat="43.52846040688629" lon="11.026705773023348"><ele>132.0</ele><time>2026-05-04T10:21:33Z</time></trkpt><trkpt lat="43.528518866556176" lon="11.026836750541207"><ele>132.0</ele><time>2026-05-04T10:21:34Z</time></trkpt><trkpt lat="43.528593555456965" lon="11.026965542735521"><ele>132.0</ele><time>2026-05-04T10:21:35Z</time></trkpt><trkpt lat="43.52867409078528" lon="11.027108623951142"><ele>127.5</ele><time>2026-05-04T10:21:36Z</time></trkpt><trkpt lat="43.528756244745516" lon="11.027259296812051"><ele>123.0</ele><time>2026-05-04T10:21:37Z</time></trkpt><trkpt lat="43.52883748508015" lon="11.027411596239926"><ele>118.5</ele><time>2026-05-04T10:21:38Z</time></trkpt><trkpt lat="43.52891294437727" lon="11.027558700444056"><ele>114.0</ele><time>2026-05-04T10:21:39Z</time></trkpt><trkpt lat="43.528995385096415" lon="11.027712161210667"><ele>113.25</ele><time>2026-05-04T10:21:40Z</time></trkpt><trkpt lat="43.529077744155096" lon="11.027862319851204"><ele>112.5</ele><time>2026-05-04T10:21:41Z</time></trkpt><trkpt lat="43.52916000956398" lon="11.028014361103684"><ele>111.75</ele><time>2026-05-04T10:21:42Z</time></trkpt><trkpt lat="43.52924122519092" lon="11.02816697937189"><ele>111.0</ele><time>2026-05-04T10:21:43Z</time></trkpt><trkpt lat="43.52932461642556" lon="11.02831304560471"><ele>109.5</ele><time>2026-05-04T10:21:44Z</time></trkpt><trkpt lat="43.52940396126014" lon="11.028459412427418"><ele>108.0</ele><time>2026-05-04T10:21:45Z</time></trkpt><trkpt lat="43.529484281409616" lon="11.028610789986885"><ele>106.5</ele><time>2026-05-04T10:21:46Z</time></trkpt><trkpt lat="43.529568082634725" lon="11.0287594346874"><ele>105.0</ele><time>2026-05-04T10:21:47Z</time></trkpt><trkpt lat="43.529641977123774" lon="11.028909311849661"><ele>104.25</ele><time>2026-05-04T10:21:48Z</time></trkpt><trkpt lat="43.529706566978426" lon="11.029061217426833"><ele>103.5</ele><time>2026-05-04T10:21:49Z</time></trkpt><trkpt lat="43.529762030277105" lon="11.029232519982473"><ele>102.75</ele><time>2026-05-04T10:21:50Z</time></trkpt><trkpt lat="43.52980952227472" lon="11.029437430362641"><ele>102.0</ele><time>2026-05-04T10:21:51Z</time></trkpt><trkpt lat="43.52985811339309" lon="11.029644558600701"><ele>102.0</ele><time>2026-05-04T10:21:52Z</time></trkpt><trkpt lat="43.52990756073935" lon="11.029835705258817"><ele>102.0</ele><time>2026-05-04T10:21:53Z</time></trkpt><trkpt lat="43.52994589191026" lon="11.02998575731951"><ele>102.0</ele><time>2026-05-04T10:21:54Z</time></trkpt><trkpt lat="43.529970127974124" lon="11.03011246387125"><ele>102.0</ele><time>2026-05-04T10:21:55Z</time></trkpt><trkpt lat="43.529980323001325" lon="11.030228722634314"><ele>102.0</ele><time>2026-05-04T10:21:56Z</time></trkpt><trkpt lat="43.52998259036333" lon="11.030339166685097"><ele>101.75</ele><time>2026-05-04T10:21:57Z</time></trkpt><trkpt lat="43.52999398643964" lon="11.030466130371806"><ele>101.5</ele><time>2026-05-04T10:21:58Z</time></trkpt><trkpt lat="43.530029008279655" lon="11.030618773545445"><ele>101.25</ele><time>2026-05-04T10:21:59Z</time></trkpt><trkpt lat="43.530065587191984" lon="11.030772371192867"><ele>101.0</ele><time>2026-05-04T10:22:00Z</time></trkpt><trkpt lat="43.53010520735051" lon="11.03094002501168"><ele>101.0</ele><time>2026-05-04T10:22:01Z</time></trkpt><trkpt lat="43.530152019734054" lon="11.031102112284474"><ele>101.0</ele><time>2026-05-04T10:22:02Z</time></trkpt><trkpt lat="43.53019669868982" lon="11.031275694312678"><ele>101.0</ele><time>2026-05-04T10:22:03Z</time></trkpt><trkpt lat="43.53024093924403" lon="11.031443131920382"><ele>101.0</ele><time>2026-05-04T10:22:04Z</time></trkpt><trkpt lat="43.530283677621924" lon="11.031607448858727"><ele>100.4</ele><time>2026-05-04T10:22:05Z</time></trkpt><trkpt lat="43.53032144614847" lon="11.03176910068215"><ele>99.8</ele><time>2026-05-04T10:22:06Z</time></trkpt><trkpt lat="43.53034634748866" lon="11.031911837678468"><ele>99.2</ele><time>2026-05-04T10:22:07Z</time></trkpt><trkpt lat="43.53036602124567" lon="11.032041785521864"><ele>98.60000000000001</ele><time>2026-05-04T10:22:08Z</time></trkpt><trkpt lat="43.530378378384896" lon="11.032161133272188"><ele>98.0</ele><time>2026-05-04T10:22:09Z</time></trkpt><trkpt lat="43.53038228554878" lon="11.032276908734856"><ele>98.0</ele><time>2026-05-04T10:22:10Z</time></trkpt><trkpt lat="43.53038637228522" lon="11.032389173036494"><ele>98.0</ele><time>2026-05-04T10:22:11Z</time></trkpt><trkpt lat="43.530403583422405" lon="11.032481311019838"><ele>98.0</ele><time>2026-05-04T10:22:12Z</time></trkpt><trkpt lat="43.53043183808723" lon="11.032562070703559"><ele>98.0</ele><time>2026-05-04T10:22:13Z</time></trkpt><trkpt lat="43.53047711850314" lon="11.032635372056925"><ele>98.0</ele><time>2026-05-04T10:22:14Z</time></trkpt><trkpt lat="43.53052441470434" lon="11.032699371874344"><ele>98.0</ele><time>2026-05-04T10:22:15Z</time></trkpt><trkpt lat="43.53057354104275" lon="11.032757662042656"><ele>98.0</ele><time>2026-05-04T10:22:16Z</time></trkpt><trkpt lat="43.53062547597389" lon="11.032822277642282"><ele>97.33333333333333</ele><time>2026-05-04T10:22:17Z</time></trkpt><trkpt lat="43.53067766348506" lon="11.032890896575658"><ele>96.66666666666666</ele><time>2026-05-04T10:22:18Z</time></trkpt><trkpt lat="43.53073375969148" lon="11.032962097617093"><ele>96.0</ele><time>2026-05-04T10:22:19Z</time></trkpt><trkpt lat="43.53079624108467" lon="11.03303723673158"><ele>95.33333333333333</ele><time>2026-05-04T10:22:20Z</time></trkpt><trkpt lat="43.530864230900285" lon="11.033106538324144"><ele>94.66666666666666</ele><time>2026-05-04T10:22:21Z</time></trkpt><trkpt lat="43.53094230754825" lon="11.033168702323518"><ele>94.0</ele><time>2026-05-04T10:22:22.001Z</time></trkpt><trkpt lat="43.531021228418275" lon="11.033223434140229"><ele>94.0</ele><time>2026-05-04T10:22:23.001Z</time></trkpt><trkpt lat="43.53110408969807" lon="11.03328778097688"><ele>94.0</ele><time>2026-05-04T10:22:24.001Z</time></trkpt><trkpt lat="43.531177562214374" lon="11.033352595616938"><ele>94.0</ele><time>2026-05-04T10:22:25.001Z</time></trkpt><trkpt lat="43.53125662087501" lon="11.033410414740073"><ele>94.0</ele><time>2026-05-04T10:22:26.001Z</time></trkpt><trkpt lat="43.531343665212546" lon="11.03347278535768"><ele>94.0</ele><time>2026-05-04T10:22:27.001Z</time></trkpt><trkpt lat="43.53141759451412" lon="11.033530983849325"><ele>91.0</ele><time>2026-05-04T10:22:28.001Z</time></trkpt><trkpt lat="43.531500626771034" lon="11.033596483013476"><ele>88.0</ele><time>2026-05-04T10:22:29.001Z</time></trkpt><trkpt lat="43.53158531877013" lon="11.033660452268485"><ele>85.0</ele><time>2026-05-04T10:22:30.001Z</time></trkpt><trkpt lat="43.5316624457622" lon="11.033722094508125"><ele>82.0</ele><time>2026-05-04T10:22:31.001Z</time></trkpt><trkpt lat="43.53175124114584" lon="11.03378909605445"><ele>79.0</ele><time>2026-05-04T10:22:32.001Z</time></trkpt><trkpt lat="43.5318244811795" lon="11.033854022031443"><ele>79.0</ele><time>2026-05-04T10:22:33.001Z</time></trkpt><trkpt lat="43.531908987050606" lon="11.03392272385182"><ele>79.0</ele><time>2026-05-04T10:22:34.001Z</time></trkpt><trkpt lat="43.53199361544196" lon="11.03398884784317"><ele>79.0</ele><time>2026-05-04T10:22:35.001Z</time></trkpt><trkpt lat="43.532080927704136" lon="11.034058608711153"><ele>79.0</ele><time>2026-05-04T10:22:36.001Z</time></trkpt><trkpt lat="43.53216252979024" lon="11.03412429508866"><ele>79.0</ele><time>2026-05-04T10:22:37.001Z</time></trkpt><trkpt lat="43.53224154451843" lon="11.034186957229332"><ele>77.83333333333333</ele><time>2026-05-04T10:22:38.001Z</time></trkpt><trkpt lat="43.532314535844144" lon="11.034244567664317"><ele>76.66666666666666</ele><time>2026-05-04T10:22:39.001Z</time></trkpt><trkpt lat="43.53238113620595" lon="11.034297530704205"><ele>75.5</ele><time>2026-05-04T10:22:40.001Z</time></trkpt><trkpt lat="43.5324407987166" lon="11.034343457260634"><ele>74.33333333333333</ele><time>2026-05-04T10:22:41.001Z</time></trkpt><trkpt lat="43.532528324978045" lon="11.03441438312544"><ele>73.16666666666667</ele><time>2026-05-04T10:22:43.001Z</time></trkpt><trkpt lat="43.53253895990017" lon="11.03450576472956"><ele>72.0</ele><time>2026-05-04T10:22:46.001Z</time></trkpt><trkpt lat="43.53245484812193" lon="11.03465548091457"><ele>72.0</ele><time>2026-05-04T10:22:48.001Z</time></trkpt><trkpt lat="43.53237667373309" lon="11.034745931048974"><ele>72.0</ele><time>2026-05-04T10:22:49.001Z</time></trkpt><trkpt lat="43.53230239609172" lon="11.0348541029035"><ele>72.0</ele><time>2026-05-04T10:22:50.001Z</time></trkpt><trkpt lat="43.53221606503558" lon="11.034986524001788"><ele>72.0</ele><time>2026-05-04T10:22:51Z</time></trkpt><trkpt lat="43.532117656182706" lon="11.03513543184006"><ele>72.66666666666667</ele><time>2026-05-04T10:22:52Z</time></trkpt><trkpt lat="43.53200752882544" lon="11.035295656601624"><ele>73.33333333333334</ele><time>2026-05-04T10:22:53Z</time></trkpt><trkpt lat="43.53189253559491" lon="11.035467846651692"><ele>74.0</ele><time>2026-05-04T10:22:54Z</time></trkpt><trkpt lat="43.53176426089627" lon="11.03565616042943"><ele>73.33333333333334</ele><time>2026-05-04T10:22:55Z</time></trkpt><trkpt lat="43.531641170324406" lon="11.035840579246406"><ele>72.66666666666667</ele><time>2026-05-04T10:22:56Z</time></trkpt><trkpt lat="43.53150864027654" lon="11.036038659599274"><ele>72.0</ele><time>2026-05-04T10:22:57Z</time></trkpt><trkpt lat="43.531366970673574" lon="11.0362466776634"><ele>72.0</ele><time>2026-05-04T10:22:58Z</time></trkpt><trkpt lat="43.53122420471383" lon="11.036460306224622"><ele>72.0</ele><time>2026-05-04T10:22:59Z</time></trkpt><trkpt lat="43.5310862603355" lon="11.036669932229954"><ele>72.0</ele><time>2026-05-04T10:23:00Z</time></trkpt><trkpt lat="43.53094233563832" lon="11.036880737574702"><ele>72.66666666666667</ele><time>2026-05-04T10:23:01Z</time></trkpt><trkpt lat="43.53080952229267" lon="11.037066057517182"><ele>73.33333333333334</ele><time>2026-05-04T10:23:02Z</time></trkpt><trkpt lat="43.53068917815576" lon="11.03722876832137"><ele>74.0</ele><time>2026-05-04T10:23:03Z</time></trkpt><trkpt lat="43.5305674471729" lon="11.037367885801066"><ele>74.25</ele><time>2026-05-04T10:23:04Z</time></trkpt><trkpt lat="43.530447023797734" lon="11.03747024823173"><ele>74.5</ele><time>2026-05-04T10:23:05Z</time></trkpt><trkpt lat="43.53032056877076" lon="11.037521931708858"><ele>74.75</ele><time>2026-05-04T10:23:06Z</time></trkpt><trkpt lat="43.53019604315079" lon="11.037509307284644"><ele>75.0</ele><time>2026-05-04T10:23:07Z</time></trkpt><trkpt lat="43.530086817412375" lon="11.037445350653892"><ele>75.0</ele><time>2026-05-04T10:23:08Z</time></trkpt><trkpt lat="43.530001483579575" lon="11.037316730770293"><ele>75.0</ele><time>2026-05-04T10:23:09Z</time></trkpt><trkpt lat="43.529924722551144" lon="11.037152311487638"><ele>75.0</ele><time>2026-05-04T10:23:10Z</time></trkpt><trkpt lat="43.52983662357367" lon="11.036972822520708"><ele>75.0</ele><time>2026-05-04T10:23:11Z</time></trkpt><trkpt lat="43.52974904878709" lon="11.036780081717414"><ele>75.33333333333333</ele><time>2026-05-04T10:23:12Z</time></trkpt><trkpt lat="43.529659521647574" lon="11.036574737257236"><ele>75.66666666666666</ele><time>2026-05-04T10:23:13Z</time></trkpt><trkpt lat="43.52956512363321" lon="11.036375831291027"><ele>76.0</ele><time>2026-05-04T10:23:14Z</time></trkpt><trkpt lat="43.52947805145282" lon="11.03616083482577"><ele>76.0</ele><time>2026-05-04T10:23:15Z</time></trkpt><trkpt lat="43.52940960911604" lon="11.035919434060594"><ele>76.0</ele><time>2026-05-04T10:23:16Z</time></trkpt><trkpt lat="43.52936381772239" lon="11.035661179585073"><ele>76.0</ele><time>2026-05-04T10:23:17Z</time></trkpt><trkpt lat="43.529318518229054" lon="11.0353897479338"><ele>76.0</ele><time>2026-05-04T10:23:18Z</time></trkpt><trkpt lat="43.529267862865886" lon="11.035114118659914"><ele>76.0</ele><time>2026-05-04T10:23:19Z</time></trkpt><trkpt lat="43.52921778952677" lon="11.034820897132574"><ele>76.0</ele><time>2026-05-04T10:23:20Z</time></trkpt><trkpt lat="43.5291637166641" lon="11.034525723349342"><ele>77.0</ele><time>2026-05-04T10:23:21Z</time></trkpt><trkpt lat="43.52910270137923" lon="11.034232905115207"><ele>78.0</ele><time>2026-05-04T10:23:22Z</time></trkpt><trkpt lat="43.529042780783115" lon="11.033915361304002"><ele>79.0</ele><time>2026-05-04T10:23:23Z</time></trkpt><trkpt lat="43.52898073777673" lon="11.0336118263601"><ele>80.0</ele><time>2026-05-04T10:23:24Z</time></trkpt><trkpt lat="43.52892178320689" lon="11.033290062870593"><ele>81.0</ele><time>2026-05-04T10:23:25Z</time></trkpt><trkpt lat="43.5288629241874" lon="11.032976624486649"><ele>82.0</ele><time>2026-05-04T10:23:26Z</time></trkpt><trkpt lat="43.52879840991515" lon="11.032664037191966"><ele>83.0</ele><time>2026-05-04T10:23:27Z</time></trkpt><trkpt lat="43.52873419664942" lon="11.032343148483863"><ele>84.0</ele><time>2026-05-04T10:23:28Z</time></trkpt><trkpt lat="43.52867107525754" lon="11.032030840253299"><ele>80.5</ele><time>2026-05-04T10:23:29Z</time></trkpt><trkpt lat="43.528607868816515" lon="11.03172364237004"><ele>77.0</ele><time>2026-05-04T10:23:30Z</time></trkpt><trkpt lat="43.52853461482478" lon="11.031424029829852"><ele>77.0</ele><time>2026-05-04T10:23:31Z</time></trkpt><trkpt lat="43.528423761219834" lon="11.031161578474329"><ele>77.0</ele><time>2026-05-04T10:23:32Z</time></trkpt><trkpt lat="43.528275782987905" lon="11.030921920122974"><ele>77.0</ele><time>2026-05-04T10:23:33Z</time></trkpt><trkpt lat="43.52811176828572" lon="11.030679345170007"><ele>76.5</ele><time>2026-05-04T10:23:34Z</time></trkpt><trkpt lat="43.52794418937157" lon="11.030426038012255"><ele>76.0</ele><time>2026-05-04T10:23:35Z</time></trkpt><trkpt lat="43.52778215310014" lon="11.03016933729228"><ele>78.0</ele><time>2026-05-04T10:23:36Z</time></trkpt><trkpt lat="43.527616077022444" lon="11.029901561633624"><ele>80.0</ele><time>2026-05-04T10:23:37Z</time></trkpt><trkpt lat="43.52745156934712" lon="11.029636265448792"><ele>80.0</ele><time>2026-05-04T10:23:38Z</time></trkpt><trkpt lat="43.52728746090076" lon="11.029370251080211"><ele>80.0</ele><time>2026-05-04T10:23:39Z</time></trkpt><trkpt lat="43.52712208660778" lon="11.02910169762878"><ele>79.5</ele><time>2026-05-04T10:23:40Z</time></trkpt><trkpt lat="43.52695130041505" lon="11.028843491993847"><ele>79.0</ele><time>2026-05-04T10:23:41Z</time></trkpt><trkpt lat="43.52676284824897" lon="11.028613219656469"><ele>79.0</ele><time>2026-05-04T10:23:42Z</time></trkpt><trkpt lat="43.52655444694793" lon="11.028413764312814"><ele>79.0</ele><time>2026-05-04T10:23:43Z</time></trkpt><trkpt lat="43.526333891290086" lon="11.028240612543117"><ele>80.0</ele><time>2026-05-04T10:23:44Z</time></trkpt><trkpt lat="43.526109919697" lon="11.028088125690987"><ele>81.0</ele><time>2026-05-04T10:23:45Z</time></trkpt><trkpt lat="43.52587735563105" lon="11.027941476435835"><ele>81.0</ele><time>2026-05-04T10:23:46Z</time></trkpt><trkpt lat="43.52564686775413" lon="11.027786172378102"><ele>81.0</ele><time>2026-05-04T10:23:47Z</time></trkpt><trkpt lat="43.52542242726926" lon="11.027623430840038"><ele>82.5</ele><time>2026-05-04T10:23:48Z</time></trkpt><trkpt lat="43.525198298107085" lon="11.02744778493446"><ele>84.0</ele><time>2026-05-04T10:23:49Z</time></trkpt><trkpt lat="43.524977267277016" lon="11.027270385239568"><ele>84.0</ele><time>2026-05-04T10:23:50Z</time></trkpt><trkpt lat="43.5247607366965" lon="11.027101422147709"><ele>84.0</ele><time>2026-05-04T10:23:51Z</time></trkpt><trkpt lat="43.52455829057722" lon="11.026974131550881"><ele>82.33333333333333</ele><time>2026-05-04T10:23:52Z</time></trkpt><trkpt lat="43.52436039072838" lon="11.026908547568613"><ele>80.66666666666666</ele><time>2026-05-04T10:23:53Z</time></trkpt><trkpt lat="43.524167362342034" lon="11.026863575338247"><ele>79.0</ele><time>2026-05-04T10:23:54Z</time></trkpt><trkpt lat="43.523983652877845" lon="11.02676161038331"><ele>81.0</ele><time>2026-05-04T10:23:55Z</time></trkpt><trkpt lat="43.523798654010236" lon="11.0266051032105"><ele>83.0</ele><time>2026-05-04T10:23:56Z</time></trkpt><trkpt lat="43.52360941319147" lon="11.026438866374654"><ele>85.0</ele><time>2026-05-04T10:23:57Z</time></trkpt><trkpt lat="43.52341460383351" lon="11.026271596191133"><ele>85.0</ele><time>2026-05-04T10:23:58Z</time></trkpt><trkpt lat="43.52321656837639" lon="11.026106067587834"><ele>85.0</ele><time>2026-05-04T10:23:59Z</time></trkpt><trkpt lat="43.52301621375102" lon="11.025936938533109"><ele>85.0</ele><time>2026-05-04T10:24:00Z</time></trkpt><trkpt lat="43.52282450046671" lon="11.025761836083738"><ele>85.0</ele><time>2026-05-04T10:24:01Z</time></trkpt><trkpt lat="43.52266353766972" lon="11.02557033020699"><ele>85.0</ele><time>2026-05-04T10:24:02Z</time></trkpt><trkpt lat="43.522524962768635" lon="11.02535030254533"><ele>85.0</ele><time>2026-05-04T10:24:03Z</time></trkpt><trkpt lat="43.52240186988841" lon="11.025140944922857"><ele>85.0</ele><time>2026-05-04T10:24:04Z</time></trkpt><trkpt lat="43.522264293500484" lon="11.024986215924269"><ele>85.0</ele><time>2026-05-04T10:24:05Z</time></trkpt><trkpt lat="43.522103105099674" lon="11.024878097572804"><ele>82.66666666666666</ele><time>2026-05-04T10:24:06Z</time></trkpt><trkpt lat="43.5219161985417" lon="11.0248174308028"><ele>80.33333333333333</ele><time>2026-05-04T10:24:07Z</time></trkpt><trkpt lat="43.52171364683718" lon="11.024820587712618"><ele>78.0</ele><time>2026-05-04T10:24:08Z</time></trkpt><trkpt lat="43.52150585514056" lon="11.024892916975382"><ele>77.5</ele><time>2026-05-04T10:24:09Z</time></trkpt><trkpt lat="43.52129359357257" lon="11.025013002162847"><ele>77.0</ele><time>2026-05-04T10:24:10Z</time></trkpt><trkpt lat="43.52107390916296" lon="11.025136828201099"><ele>79.5</ele><time>2026-05-04T10:24:11Z</time></trkpt><trkpt lat="43.520844936586876" lon="11.025249245018186"><ele>82.0</ele><time>2026-05-04T10:24:12Z</time></trkpt><trkpt lat="43.52063751932159" lon="11.02533998076168"><ele>82.0</ele><time>2026-05-04T10:24:13Z</time></trkpt><trkpt lat="43.52043883310011" lon="11.025405988681934"><ele>82.0</ele><time>2026-05-04T10:24:14Z</time></trkpt><trkpt lat="43.52022553635073" lon="11.025430554783787"><ele>82.0</ele><time>2026-05-04T10:24:15Z</time></trkpt><trkpt lat="43.52000042880858" lon="11.025422326894484"><ele>85.5</ele><time>2026-05-04T10:24:16Z</time></trkpt><trkpt lat="43.51976864681172" lon="11.025396038317167"><ele>89.0</ele><time>2026-05-04T10:24:17Z</time></trkpt><trkpt lat="43.51952945265127" lon="11.025373880744606"><ele>90.0</ele><time>2026-05-04T10:24:18Z</time></trkpt><trkpt lat="43.51928756995022" lon="11.025374169407536"><ele>91.0</ele><time>2026-05-04T10:24:19Z</time></trkpt><trkpt lat="43.51903614803771" lon="11.025393647296607"><ele>91.0</ele><time>2026-05-04T10:24:20Z</time></trkpt><trkpt lat="43.518780664431425" lon="11.025413690478853"><ele>91.0</ele><time>2026-05-04T10:24:21Z</time></trkpt><trkpt lat="43.51851767994882" lon="11.025414578090803"><ele>91.5</ele><time>2026-05-04T10:24:22Z</time></trkpt><trkpt lat="43.518262736421825" lon="11.025399068469863"><ele>92.0</ele><time>2026-05-04T10:24:23Z</time></trkpt><trkpt lat="43.51799551593064" lon="11.025378644837414"><ele>91.5</ele><time>2026-05-04T10:24:24Z</time></trkpt><trkpt lat="43.5177363092872" lon="11.025356647929057"><ele>91.0</ele><time>2026-05-04T10:24:25Z</time></trkpt><trkpt lat="43.517473973735584" lon="11.025332679164952"><ele>91.0</ele><time>2026-05-04T10:24:26Z</time></trkpt><trkpt lat="43.517222997207185" lon="11.025310449161934"><ele>91.0</ele><time>2026-05-04T10:24:27Z</time></trkpt><trkpt lat="43.516974049415786" lon="11.025289772791885"><ele>89.0</ele><time>2026-05-04T10:24:28Z</time></trkpt><trkpt lat="43.51672489773738" lon="11.025284691935116"><ele>87.0</ele><time>2026-05-04T10:24:29Z</time></trkpt><trkpt lat="43.516482910747094" lon="11.025317317536674"><ele>87.0</ele><time>2026-05-04T10:24:30Z</time></trkpt><trkpt lat="43.516274022680335" lon="11.025366773714541"><ele>87.0</ele><time>2026-05-04T10:24:31Z</time></trkpt><trkpt lat="43.516084416551735" lon="11.025405347150965"><ele>87.0</ele><time>2026-05-04T10:24:32Z</time></trkpt><trkpt lat="43.51590496663654" lon="11.0254391757252"><ele>86.33333333333333</ele><time>2026-05-04T10:24:33Z</time></trkpt><trkpt lat="43.515735257345725" lon="11.025502330259942"><ele>85.66666666666666</ele><time>2026-05-04T10:24:34Z</time></trkpt><trkpt lat="43.51558754500935" lon="11.025630879683428"><ele>85.0</ele><time>2026-05-04T10:24:35Z</time></trkpt><trkpt lat="43.51545431768856" lon="11.025793485423595"><ele>86.0</ele><time>2026-05-04T10:24:36.001Z</time></trkpt><trkpt lat="43.515325639623896" lon="11.02591811953249"><ele>87.0</ele><time>2026-05-04T10:24:37.001Z</time></trkpt><trkpt lat="43.51516836428745" lon="11.02597783848894"><ele>88.0</ele><time>2026-05-04T10:24:38.001Z</time></trkpt><trkpt lat="43.51499544853035" lon="11.025977557085836"><ele>88.0</ele><time>2026-05-04T10:24:39.001Z</time></trkpt><trkpt lat="43.5148114248192" lon="11.025933460269618"><ele>88.0</ele><time>2026-05-04T10:24:40.001Z</time></trkpt><trkpt lat="43.514632513062125" lon="11.025867786363335"><ele>88.0</ele><time>2026-05-04T10:24:41.001Z</time></trkpt><trkpt lat="43.51444802626692" lon="11.02580673823808"><ele>90.66666666666666</ele><time>2026-05-04T10:24:42.001Z</time></trkpt><trkpt lat="43.51425707082622" lon="11.025751479395359"><ele>93.33333333333333</ele><time>2026-05-04T10:24:43.001Z</time></trkpt><trkpt lat="43.51405800319537" lon="11.025695328102127"><ele>96.0</ele><time>2026-05-04T10:24:44.001Z</time></trkpt><trkpt lat="43.51386075671103" lon="11.025653892336615"><ele>99.66666666666666</ele><time>2026-05-04T10:24:45.001Z</time></trkpt><trkpt lat="43.51367431617359" lon="11.025634725160096"><ele>103.33333333333333</ele><time>2026-05-04T10:24:46.001Z</time></trkpt><trkpt lat="43.51349791241821" lon="11.025651733677549"><ele>107.0</ele><time>2026-05-04T10:24:47.001Z</time></trkpt><trkpt lat="43.51332100448386" lon="11.025689484934164"><ele>107.0</ele><time>2026-05-04T10:24:48.001Z</time></trkpt><trkpt lat="43.513163351512205" lon="11.025757031728347"><ele>107.0</ele><time>2026-05-04T10:24:49.001Z</time></trkpt><trkpt lat="43.513027503661775" lon="11.025814454209348"><ele>107.0</ele><time>2026-05-04T10:24:50.001Z</time></trkpt><trkpt lat="43.51290412051556" lon="11.025876739149348"><ele>107.0</ele><time>2026-05-04T10:24:51.001Z</time></trkpt><trkpt lat="43.51278935960031" lon="11.025936738112513"><ele>109.5</ele><time>2026-05-04T10:24:52.001Z</time></trkpt><trkpt lat="43.51268078915653" lon="11.025996555042665"><ele>112.0</ele><time>2026-05-04T10:24:53.001Z</time></trkpt><trkpt lat="43.512571017129744" lon="11.026050495471688"><ele>114.5</ele><time>2026-05-04T10:24:54.001Z</time></trkpt><trkpt lat="43.512459311073194" lon="11.026084567137769"><ele>117.0</ele><time>2026-05-04T10:24:55.001Z</time></trkpt><trkpt lat="43.51234577625476" lon="11.026107529594954"><ele>117.0</ele><time>2026-05-04T10:24:56.001Z</time></trkpt><trkpt lat="43.51222809400936" lon="11.026133301059119"><ele>117.0</ele><time>2026-05-04T10:24:57Z</time></trkpt><trkpt lat="43.512112938471354" lon="11.026155819387352"><ele>117.0</ele><time>2026-05-04T10:24:58Z</time></trkpt><trkpt lat="43.51199050091354" lon="11.026171385857415"><ele>117.0</ele><time>2026-05-04T10:24:59Z</time></trkpt><trkpt lat="43.51186524060704" lon="11.026182712192176"><ele>118.25</ele><time>2026-05-04T10:25:00Z</time></trkpt><trkpt lat="43.5117353876206" lon="11.026200995176602"><ele>119.5</ele><time>2026-05-04T10:25:01Z</time></trkpt><trkpt lat="43.51160410262127" lon="11.0262127738147"><ele>120.75</ele><time>2026-05-04T10:25:02Z</time></trkpt><trkpt lat="43.511468178007824" lon="11.026230272060866"><ele>122.0</ele><time>2026-05-04T10:25:03Z</time></trkpt><trkpt lat="43.51132997032019" lon="11.026244826700324"><ele>123.25</ele><time>2026-05-04T10:25:04Z</time></trkpt><trkpt lat="43.511202395426935" lon="11.026271417201722"><ele>124.5</ele><time>2026-05-04T10:25:05Z</time></trkpt><trkpt lat="43.51108785589034" lon="11.02630844241544"><ele>125.75</ele><time>2026-05-04T10:25:06Z</time></trkpt><trkpt lat="43.51096370196455" lon="11.026351142343922"><ele>127.0</ele><time>2026-05-04T10:25:07Z</time></trkpt><trkpt lat="43.51085191587319" lon="11.026398255071003"><ele>127.00000000000001</ele><time>2026-05-04T10:25:08Z</time></trkpt><trkpt lat="43.510743867744914" lon="11.02644130852265"><ele>127.0</ele><time>2026-05-04T10:25:09Z</time></trkpt><trkpt lat="43.51064887444177" lon="11.026474606176873"><ele>127.0</ele><time>2026-05-04T10:25:10Z</time></trkpt><trkpt lat="43.51057599157557" lon="11.026458357109437"><ele>127.0</ele><time>2026-05-04T10:25:12Z</time></trkpt><trkpt lat="43.51059709572485" lon="11.026371312972621"><ele>127.00000000000001</ele><time>2026-05-04T10:25:14Z</time></trkpt><trkpt lat="43.510681875599644" lon="11.026308733872632"><ele>127.0</ele><time>2026-05-04T10:25:16Z</time></trkpt><trkpt lat="43.510751552527886" lon="11.026282576185022"><ele>127.0</ele><time>2026-05-04T10:25:17Z</time></trkpt><trkpt lat="43.5108309583596" lon="11.026233276267211"><ele>126.99999999999999</ele><time>2026-05-04T10:25:18Z</time></trkpt><trkpt lat="43.510921962273045" lon="11.026168482445021"><ele>126.99999999999999</ele><time>2026-05-04T10:25:19Z</time></trkpt><trkpt lat="43.5110188594271" lon="11.026094166491326"><ele>127.0</ele><time>2026-05-04T10:25:20Z</time></trkpt><trkpt lat="43.51112142738811" lon="11.026015450312846"><ele>127.0</ele><time>2026-05-04T10:25:21Z</time></trkpt><trkpt lat="43.5112281910229" lon="11.025933854333987"><ele>127.5</ele><time>2026-05-04T10:25:22Z</time></trkpt><trkpt lat="43.51133073353473" lon="11.025860953310309"><ele>128.0</ele><time>2026-05-04T10:25:23Z</time></trkpt><trkpt lat="43.5114344628055" lon="11.025785142321585"><ele>128.5</ele><time>2026-05-04T10:25:24Z</time></trkpt><trkpt lat="43.51153990058846" lon="11.025709053069901"><ele>129.0</ele><time>2026-05-04T10:25:25Z</time></trkpt><trkpt lat="43.511641346157276" lon="11.02563529330711"><ele>129.0</ele><time>2026-05-04T10:25:26Z</time></trkpt><trkpt lat="43.51172904255372" lon="11.025564183905045"><ele>129.0</ele><time>2026-05-04T10:25:27Z</time></trkpt><trkpt lat="43.5118052376477" lon="11.025511176649468"><ele>129.0</ele><time>2026-05-04T10:25:28Z</time></trkpt><trkpt lat="43.51186439954525" lon="11.0254702048048"><ele>129.0</ele><time>2026-05-04T10:25:29Z</time></trkpt><trkpt lat="43.511920180508405" lon="11.025394722376747"><ele>129.0</ele><time>2026-05-04T10:25:31Z</time></trkpt><trkpt lat="43.51188428270739" lon="11.025297293388144"><ele>129.0</ele><time>2026-05-04T10:25:34Z</time></trkpt><trkpt lat="43.51179672982482" lon="11.02528491259724"><ele>129.0</ele><time>2026-05-04T10:25:36Z</time></trkpt><trkpt lat="43.51173169398356" lon="11.02529027277415"><ele>129.0</ele><time>2026-05-04T10:25:37Z</time></trkpt><trkpt lat="43.511655578070965" lon="11.025288997547602"><ele>129.0</ele><time>2026-05-04T10:25:38Z</time></trkpt><trkpt lat="43.51156690581999" lon="11.02527974851573"><ele>129.0</ele><time>2026-05-04T10:25:39Z</time></trkpt><trkpt lat="43.51146458823507" lon="11.02526952396662"><ele>129.0</ele><time>2026-05-04T10:25:40Z</time></trkpt><trkpt lat="43.51133711705077" lon="11.025256822661468"><ele>130.25</ele><time>2026-05-04T10:25:41Z</time></trkpt><trkpt lat="43.51119845135686" lon="11.02524163035204"><ele>131.5</ele><time>2026-05-04T10:25:42Z</time></trkpt><trkpt lat="43.511069003428794" lon="11.025233726169283"><ele>132.75</ele><time>2026-05-04T10:25:43Z</time></trkpt><trkpt lat="43.510939573702" lon="11.025221819517178"><ele>134.0</ele><time>2026-05-04T10:25:44Z</time></trkpt><trkpt lat="43.51081724508578" lon="11.025207733019416"><ele>134.0</ele><time>2026-05-04T10:25:45Z</time></trkpt><trkpt lat="43.5106904317652" lon="11.02519463469018"><ele>134.0</ele><time>2026-05-04T10:25:46Z</time></trkpt><trkpt lat="43.510566971837285" lon="11.025193726426854"><ele>134.0</ele><time>2026-05-04T10:25:47Z</time></trkpt><trkpt lat="43.51044189201578" lon="11.025204489326653"><ele>134.0</ele><time>2026-05-04T10:25:48Z</time></trkpt><trkpt lat="43.510316029097574" lon="11.025211914007098"><ele>138.5</ele><time>2026-05-04T10:25:49Z</time></trkpt><trkpt lat="43.510200418458915" lon="11.025206175671544"><ele>143.0</ele><time>2026-05-04T10:25:50Z</time></trkpt><trkpt lat="43.51009258061387" lon="11.025181789206442"><ele>147.5</ele><time>2026-05-04T10:25:51Z</time></trkpt><trkpt lat="43.50997969132699" lon="11.025172643477042"><ele>152.0</ele><time>2026-05-04T10:25:52Z</time></trkpt><trkpt lat="43.5098527567121" lon="11.025166766549692"><ele>152.0</ele><time>2026-05-04T10:25:53Z</time></trkpt><trkpt lat="43.509727435273916" lon="11.025155783997725"><ele>152.0</ele><time>2026-05-04T10:25:54Z</time></trkpt><trkpt lat="43.50960733037314" lon="11.025145335551157"><ele>152.0</ele><time>2026-05-04T10:25:55Z</time></trkpt><trkpt lat="43.509472755397645" lon="11.025141413193415"><ele>152.0</ele><time>2026-05-04T10:25:56Z</time></trkpt><trkpt lat="43.5093398228716" lon="11.025139686907531"><ele>153.0</ele><time>2026-05-04T10:25:57Z</time></trkpt><trkpt lat="43.50919688117941" lon="11.02513460813225"><ele>154.0</ele><time>2026-05-04T10:25:58Z</time></trkpt><trkpt lat="43.50905832679886" lon="11.02512184174577"><ele>155.0</ele><time>2026-05-04T10:25:59Z</time></trkpt><trkpt lat="43.508911258138006" lon="11.025108947963764"><ele>156.0</ele><time>2026-05-04T10:26:00Z</time></trkpt><trkpt lat="43.50877542511688" lon="11.02510318354644"><ele>158.25</ele><time>2026-05-04T10:26:01Z</time></trkpt><trkpt lat="43.508652254268306" lon="11.025087937477128"><ele>160.5</ele><time>2026-05-04T10:26:02Z</time></trkpt><trkpt lat="43.50851724812143" lon="11.025075050572623"><ele>162.75</ele><time>2026-05-04T10:26:03Z</time></trkpt><trkpt lat="43.50838146353945" lon="11.025064307745108"><ele>165.0</ele><time>2026-05-04T10:26:04Z</time></trkpt><trkpt lat="43.508243496236446" lon="11.02505132338992"><ele>165.0</ele><time>2026-05-04T10:26:05Z</time></trkpt><trkpt lat="43.50812068554915" lon="11.025046386097982"><ele>165.0</ele><time>2026-05-04T10:26:06Z</time></trkpt><trkpt lat="43.507986911565816" lon="11.025041956494535"><ele>165.0</ele><time>2026-05-04T10:26:07Z</time></trkpt><trkpt lat="43.50786210800879" lon="11.025051207199931"><ele>165.0</ele><time>2026-05-04T10:26:08Z</time></trkpt><trkpt lat="43.507770207320945" lon="11.025052271770715"><ele>166.0</ele><time>2026-05-04T10:26:09Z</time></trkpt><trkpt lat="43.507687101493126" lon="11.02503269743149"><ele>167.0</ele><time>2026-05-04T10:26:10Z</time></trkpt><trkpt lat="43.507607402753834" lon="11.025007946289609"><ele>168.0</ele><time>2026-05-04T10:26:11Z</time></trkpt><trkpt lat="43.507512727821236" lon="11.02498593914841"><ele>169.0</ele><time>2026-05-04T10:26:12Z</time></trkpt><trkpt lat="43.507402395148155" lon="11.024961515425396"><ele>170.0</ele><time>2026-05-04T10:26:13Z</time></trkpt><trkpt lat="43.50728408152515" lon="11.024927763764317"><ele>170.16666666666666</ele><time>2026-05-04T10:26:14Z</time></trkpt><trkpt lat="43.50718295124399" lon="11.024902360386022"><ele>170.33333333333331</ele><time>2026-05-04T10:26:15Z</time></trkpt><trkpt lat="43.50708595300202" lon="11.02487789804356"><ele>170.5</ele><time>2026-05-04T10:26:16Z</time></trkpt><trkpt lat="43.507001306739845" lon="11.024855191844523"><ele>170.66666666666666</ele><time>2026-05-04T10:26:17Z</time></trkpt><trkpt lat="43.50692534553122" lon="11.024841562490991"><ele>170.83333333333334</ele><time>2026-05-04T10:26:18Z</time></trkpt><trkpt lat="43.50685494196775" lon="11.024823646826"><ele>171.0</ele><time>2026-05-04T10:26:19.001Z</time></trkpt><trkpt lat="43.506786598599845" lon="11.024810729611017"><ele>169.8</ele><time>2026-05-04T10:26:20.001Z</time></trkpt><trkpt lat="43.50666396592933" lon="11.024777995267936"><ele>168.60000000000002</ele><time>2026-05-04T10:26:22.001Z</time></trkpt><trkpt lat="43.50655300219789" lon="11.024745637058485"><ele>167.4</ele><time>2026-05-04T10:26:24.001Z</time></trkpt><trkpt lat="43.50646556112177" lon="11.024719264468617"><ele>166.2</ele><time>2026-05-04T10:26:26.001Z</time></trkpt><trkpt lat="43.50638608290588" lon="11.024700425590437"><ele>165.0</ele><time>2026-05-04T10:26:28.001Z</time></trkpt><trkpt lat="43.50631201321505" lon="11.024669384928622"><ele>165.0</ele><time>2026-05-04T10:26:31.001Z</time></trkpt><trkpt lat="43.50624701507257" lon="11.024664768584653"><ele>165.0</ele><time>2026-05-04T10:26:40.001Z</time></trkpt><trkpt lat="43.50612344845694" lon="11.024671797741371"><ele>165.0</ele><time>2026-05-04T10:26:42.001Z</time></trkpt><trkpt lat="43.50603092396278" lon="11.024645372328864"><ele>165.0</ele><time>2026-05-04T10:26:43.001Z</time></trkpt><trkpt lat="43.505918347540614" lon="11.024618508366045"><ele>165.0</ele><time>2026-05-04T10:26:44.001Z</time></trkpt><trkpt lat="43.50579457774495" lon="11.02459334647302"><ele>165.25</ele><time>2026-05-04T10:26:45.001Z</time></trkpt><trkpt lat="43.505664728964526" lon="11.02456178555921"><ele>165.5</ele><time>2026-05-04T10:26:46.001Z</time></trkpt><trkpt lat="43.50553335986444" lon="11.024528764754631"><ele>165.75</ele><time>2026-05-04T10:26:47.001Z</time></trkpt><trkpt lat="43.5054048121631" lon="11.02449614213946"><ele>166.0</ele><time>2026-05-04T10:26:48.001Z</time></trkpt><trkpt lat="43.50528820978754" lon="11.024467020192537"><ele>166.20000000000002</ele><time>2026-05-04T10:26:49.001Z</time></trkpt><trkpt lat="43.505182805932236" lon="11.024436455818616"><ele>166.4</ele><time>2026-05-04T10:26:50.001Z</time></trkpt><trkpt lat="43.505078529376775" lon="11.02440222167698"><ele>166.6</ele><time>2026-05-04T10:26:51.001Z</time></trkpt><trkpt lat="43.50496894148877" lon="11.02435249996521"><ele>166.8</ele><time>2026-05-04T10:26:52.001Z</time></trkpt><trkpt lat="43.50486493663366" lon="11.024301699272291"><ele>167.0</ele><time>2026-05-04T10:26:53.001Z</time></trkpt><trkpt lat="43.50475345904747" lon="11.02426464758075"><ele>167.0</ele><time>2026-05-04T10:26:54.001Z</time></trkpt><trkpt lat="43.504645898446995" lon="11.024240763289601"><ele>167.0</ele><time>2026-05-04T10:26:55.001Z</time></trkpt><trkpt lat="43.50452936185866" lon="11.024234361812574"><ele>167.0</ele><time>2026-05-04T10:26:56.001Z</time></trkpt><trkpt lat="43.504411318453904" lon="11.02424529725568"><ele>167.0</ele><time>2026-05-04T10:26:57.001Z</time></trkpt><trkpt lat="43.50429071953021" lon="11.024259665982468"><ele>167.5</ele><time>2026-05-04T10:26:58.001Z</time></trkpt><trkpt lat="43.504179509117556" lon="11.024279811761211"><ele>168.0</ele><time>2026-05-04T10:26:59.001Z</time></trkpt><trkpt lat="43.504069498777476" lon="11.024311461214237"><ele>168.5</ele><time>2026-05-04T10:27:00.001Z</time></trkpt><trkpt lat="43.50395787332036" lon="11.024360671768614"><ele>169.0</ele><time>2026-05-04T10:27:01.001Z</time></trkpt><trkpt lat="43.50384078617037" lon="11.024418791541184"><ele>169.39999999999998</ele><time>2026-05-04T10:27:02.001Z</time></trkpt><trkpt lat="43.503744681023676" lon="11.024462113117627"><ele>169.8</ele><time>2026-05-04T10:27:03Z</time></trkpt><trkpt lat="43.503676318297636" lon="11.024484111085997"><ele>170.2</ele><time>2026-05-04T10:27:04Z</time></trkpt><trkpt lat="43.50359390667295" lon="11.024532995857019"><ele>170.60000000000002</ele><time>2026-05-04T10:27:06Z</time></trkpt><trkpt lat="43.503520458657086" lon="11.024662504905637"><ele>171.0</ele><time>2026-05-04T10:27:08Z</time></trkpt><trkpt lat="43.50345807260863" lon="11.024718918546025"><ele>171.0</ele><time>2026-05-04T10:27:09Z</time></trkpt><trkpt lat="43.503374286273036" lon="11.024752553413066"><ele>171.0</ele><time>2026-05-04T10:27:10Z</time></trkpt><trkpt lat="43.503269781355" lon="11.024764920271208"><ele>171.0</ele><time>2026-05-04T10:27:11Z</time></trkpt><trkpt lat="43.50315847469448" lon="11.024763853544863"><ele>171.0</ele><time>2026-05-04T10:27:12Z</time></trkpt><trkpt lat="43.50305138479131" lon="11.024763988804176"><ele>171.0</ele><time>2026-05-04T10:27:13Z</time></trkpt><trkpt lat="43.50295233241744" lon="11.024772290593166"><ele>170.5</ele><time>2026-05-04T10:27:14Z</time></trkpt><trkpt lat="43.50286785591699" lon="11.024780890252993"><ele>170.0</ele><time>2026-05-04T10:27:15Z</time></trkpt><trkpt lat="43.50278742312034" lon="11.024782209427434"><ele>169.5</ele><time>2026-05-04T10:27:16Z</time></trkpt><trkpt lat="43.502718922025636" lon="11.024784731673375"><ele>169.0</ele><time>2026-05-04T10:27:17Z</time></trkpt><trkpt lat="43.502616226015135" lon="11.024792488764053"><ele>168.5</ele><time>2026-05-04T10:27:19Z</time></trkpt><trkpt lat="43.50254770735997" lon="11.02481586990901"><ele>168.0</ele><time>2026-05-04T10:27:21Z</time></trkpt><trkpt lat="43.50247092332941" lon="11.024830342963527"><ele>168.0</ele><time>2026-05-04T10:27:22Z</time></trkpt><trkpt lat="43.502352914704005" lon="11.024832285959377"><ele>168.0</ele><time>2026-05-04T10:27:23Z</time></trkpt><trkpt lat="43.50220392867084" lon="11.024838567619657"><ele>168.0</ele><time>2026-05-04T10:27:24Z</time></trkpt><trkpt lat="43.5020281403955" lon="11.024864674343897"><ele>168.0</ele><time>2026-05-04T10:27:25Z</time></trkpt><trkpt lat="43.501832785810514" lon="11.024898924632781"><ele>170.0</ele><time>2026-05-04T10:27:26Z</time></trkpt><trkpt lat="43.50161964044029" lon="11.024928586299648"><ele>172.0</ele><time>2026-05-04T10:27:27Z</time></trkpt><trkpt lat="43.50139448414563" lon="11.024946794448812"><ele>174.0</ele><time>2026-05-04T10:27:28Z</time></trkpt><trkpt lat="43.501166261023506" lon="11.02491789411386"><ele>178.0</ele><time>2026-05-04T10:27:29Z</time></trkpt><trkpt lat="43.500946372201305" lon="11.024874134571515"><ele>182.0</ele><time>2026-05-04T10:27:30Z</time></trkpt><trkpt lat="43.50072208238105" lon="11.024816624943455"><ele>182.0</ele><time>2026-05-04T10:27:31Z</time></trkpt><trkpt lat="43.50051961129496" lon="11.024762698729882"><ele>182.0</ele><time>2026-05-04T10:27:32Z</time></trkpt><trkpt lat="43.500346098720954" lon="11.024712691502794"><ele>182.0</ele><time>2026-05-04T10:27:33Z</time></trkpt><trkpt lat="43.50019582333664" lon="11.024615207548832"><ele>184.0</ele><time>2026-05-04T10:27:34Z</time></trkpt><trkpt lat="43.500046880447435" lon="11.024471291965927"><ele>186.0</ele><time>2026-05-04T10:27:35Z</time></trkpt><trkpt lat="43.49988828557814" lon="11.024332254039592"><ele>188.0</ele><time>2026-05-04T10:27:36Z</time></trkpt><trkpt lat="43.49975375075867" lon="11.024248384439252"><ele>188.0</ele><time>2026-05-04T10:27:37Z</time></trkpt><trkpt lat="43.49961979451459" lon="11.024241504226408"><ele>188.0</ele><time>2026-05-04T10:27:38Z</time></trkpt><trkpt lat="43.49950547671549" lon="11.024318388272793"><ele>188.0</ele><time>2026-05-04T10:27:39Z</time></trkpt><trkpt lat="43.49941682555915" lon="11.024469272942007"><ele>188.0</ele><time>2026-05-04T10:27:40Z</time></trkpt><trkpt lat="43.499330534350484" lon="11.024687558079933"><ele>190.0</ele><time>2026-05-04T10:27:41Z</time></trkpt><trkpt lat="43.49920994477706" lon="11.024839556219202"><ele>192.0</ele><time>2026-05-04T10:27:42Z</time></trkpt><trkpt lat="43.499082938109495" lon="11.0249363746448"><ele>194.0</ele><time>2026-05-04T10:27:43Z</time></trkpt><trkpt lat="43.49893550545841" lon="11.024972155719137"><ele>194.0</ele><time>2026-05-04T10:27:44Z</time></trkpt><trkpt lat="43.49875682850666" lon="11.02495864571149"><ele>194.0</ele><time>2026-05-04T10:27:45Z</time></trkpt><trkpt lat="43.498552128879126" lon="11.024925915447684"><ele>194.0</ele><time>2026-05-04T10:27:46Z</time></trkpt><trkpt lat="43.498330529498375" lon="11.024911738291689"><ele>195.66666666666669</ele><time>2026-05-04T10:27:47Z</time></trkpt><trkpt lat="43.49811619414407" lon="11.024911809909495"><ele>197.33333333333331</ele><time>2026-05-04T10:27:48Z</time></trkpt><trkpt lat="43.49790191604983" lon="11.02496784603415"><ele>199.0</ele><time>2026-05-04T10:27:49Z</time></trkpt><trkpt lat="43.497691418639704" lon="11.025054729046557"><ele>199.0</ele><time>2026-05-04T10:27:50Z</time></trkpt><trkpt lat="43.49752874730939" lon="11.02512490736725"><ele>199.0</ele><time>2026-05-04T10:27:51.001Z</time></trkpt><trkpt lat="43.497359093735135" lon="11.025171488646826"><ele>199.0</ele><time>2026-05-04T10:27:52.001Z</time></trkpt><trkpt lat="43.49718818312798" lon="11.025161455848307"><ele>200.0</ele><time>2026-05-04T10:27:53.001Z</time></trkpt><trkpt lat="43.49700193587887" lon="11.025098904690985"><ele>201.0</ele><time>2026-05-04T10:27:54.001Z</time></trkpt><trkpt lat="43.49679820261231" lon="11.024961500099636"><ele>202.0</ele><time>2026-05-04T10:27:55.001Z</time></trkpt><trkpt lat="43.49662271181418" lon="11.024823172465045"><ele>203.5</ele><time>2026-05-04T10:27:56.001Z</time></trkpt><trkpt lat="43.496486286772836" lon="11.0247220851413"><ele>205.0</ele><time>2026-05-04T10:27:57.001Z</time></trkpt><trkpt lat="43.496354278935684" lon="11.024659332755927"><ele>206.5</ele><time>2026-05-04T10:27:58.001Z</time></trkpt><trkpt lat="43.4962190060296" lon="11.024648772015203"><ele>208.0</ele><time>2026-05-04T10:27:59.001Z</time></trkpt><trkpt lat="43.49608461388757" lon="11.024682362416684"><ele>208.33333333333331</ele><time>2026-05-04T10:28:00.001Z</time></trkpt><trkpt lat="43.49598769882901" lon="11.024869682599373"><ele>208.66666666666669</ele><time>2026-05-04T10:28:01.001Z</time></trkpt><trkpt lat="43.495926788506836" lon="11.02508661588518"><ele>209.0</ele><time>2026-05-04T10:28:02.001Z</time></trkpt><trkpt lat="43.49583533400324" lon="11.02531867409854"><ele>209.0</ele><time>2026-05-04T10:28:03.001Z</time></trkpt><trkpt lat="43.495766959304724" lon="11.025530172483021"><ele>209.0</ele><time>2026-05-04T10:28:04.001Z</time></trkpt><trkpt lat="43.49565273654557" lon="11.025649366715966"><ele>209.0</ele><time>2026-05-04T10:28:05.001Z</time></trkpt><trkpt lat="43.49550202301022" lon="11.025694332768452"><ele>211.0</ele><time>2026-05-04T10:28:06.001Z</time></trkpt><trkpt lat="43.49532585679874" lon="11.025661646396543"><ele>213.0</ele><time>2026-05-04T10:28:07.001Z</time></trkpt><trkpt lat="43.495154804501794" lon="11.025565660250919"><ele>215.0</ele><time>2026-05-04T10:28:08.001Z</time></trkpt><trkpt lat="43.49500152303857" lon="11.025418528945847"><ele>215.0</ele><time>2026-05-04T10:28:09.001Z</time></trkpt><trkpt lat="43.49490604774289" lon="11.025203797037891"><ele>215.0</ele><time>2026-05-04T10:28:10.001Z</time></trkpt><trkpt lat="43.49481113368041" lon="11.024956688015834"><ele>215.0</ele><time>2026-05-04T10:28:11.001Z</time></trkpt><trkpt lat="43.49469890099947" lon="11.024686722679833"><ele>216.0</ele><time>2026-05-04T10:28:12.001Z</time></trkpt><trkpt lat="43.494592305451775" lon="11.024400575039703"><ele>217.0</ele><time>2026-05-04T10:28:13.001Z</time></trkpt><trkpt lat="43.494496773839046" lon="11.024175910835288"><ele>218.0</ele><time>2026-05-04T10:28:14.001Z</time></trkpt><trkpt lat="43.49440777953716" lon="11.024017201411787"><ele>220.33333333333334</ele><time>2026-05-04T10:28:15.001Z</time></trkpt><trkpt lat="43.49428712949704" lon="11.023919658235673"><ele>222.66666666666669</ele><time>2026-05-04T10:28:16.001Z</time></trkpt><trkpt lat="43.49412294279495" lon="11.023885356452766"><ele>225.0</ele><time>2026-05-04T10:28:17.001Z</time></trkpt><trkpt lat="43.49394493539778" lon="11.023932548236825"><ele>225.0</ele><time>2026-05-04T10:28:18.001Z</time></trkpt><trkpt lat="43.49376907401111" lon="11.024057398570623"><ele>225.0</ele><time>2026-05-04T10:28:19.001Z</time></trkpt><trkpt lat="43.493593764001446" lon="11.024151743672292"><ele>225.0</ele><time>2026-05-04T10:28:20.001Z</time></trkpt><trkpt lat="43.4934611559428" lon="11.024196815534017"><ele>225.0</ele><time>2026-05-04T10:28:21.001Z</time></trkpt><trkpt lat="43.49334098794668" lon="11.024169223961792"><ele>225.0</ele><time>2026-05-04T10:28:22.001Z</time></trkpt><trkpt lat="43.49325904332345" lon="11.024056251834566"><ele>225.0</ele><time>2026-05-04T10:28:23.001Z</time></trkpt><trkpt lat="43.49321393955838" lon="11.023925132706578"><ele>225.0</ele><time>2026-05-04T10:28:24.001Z</time></trkpt><trkpt lat="43.49326919160748" lon="11.02375255125649"><ele>225.0</ele><time>2026-05-04T10:28:25.001Z</time></trkpt><trkpt lat="43.49336469789002" lon="11.023587459993207"><ele>225.0</ele><time>2026-05-04T10:28:26.001Z</time></trkpt><trkpt lat="43.493467919308365" lon="11.023388835866777"><ele>225.0</ele><time>2026-05-04T10:28:27.001Z</time></trkpt><trkpt lat="43.49353151832859" lon="11.023198193846026"><ele>226.75</ele><time>2026-05-04T10:28:28.001Z</time></trkpt><trkpt lat="43.49351035266479" lon="11.02301441635977"><ele>228.5</ele><time>2026-05-04T10:28:29.001Z</time></trkpt><trkpt lat="43.493432040835074" lon="11.022861798065051"><ele>230.25</ele><time>2026-05-04T10:28:30.001Z</time></trkpt><trkpt lat="43.49330912731366" lon="11.022754045833922"><ele>232.0</ele><time>2026-05-04T10:28:31.001Z</time></trkpt><trkpt lat="43.493160595353935" lon="11.022725224554437"><ele>232.0</ele><time>2026-05-04T10:28:32.001Z</time></trkpt><trkpt lat="43.49299247703435" lon="11.02275037040071"><ele>232.0</ele><time>2026-05-04T10:28:33.001Z</time></trkpt><trkpt lat="43.49285784204014" lon="11.022704064640541"><ele>232.0</ele><time>2026-05-04T10:28:34.001Z</time></trkpt><trkpt lat="43.492754055536274" lon="11.022632556471253"><ele>232.0</ele><time>2026-05-04T10:28:35.001Z</time></trkpt><trkpt lat="43.492714855910464" lon="11.022424008742933"><ele>233.0</ele><time>2026-05-04T10:28:36.001Z</time></trkpt><trkpt lat="43.49269444066551" lon="11.02219530268076"><ele>234.0</ele><time>2026-05-04T10:28:37.001Z</time></trkpt><trkpt lat="43.49266837080165" lon="11.02193869707981"><ele>235.0</ele><time>2026-05-04T10:28:38.001Z</time></trkpt><trkpt lat="43.492662906926306" lon="11.021715101421098"><ele>237.5</ele><time>2026-05-04T10:28:39.001Z</time></trkpt><trkpt lat="43.492610336215776" lon="11.021556606854354"><ele>240.0</ele><time>2026-05-04T10:28:40.001Z</time></trkpt><trkpt lat="43.49249402115127" lon="11.021443290887332"><ele>242.5</ele><time>2026-05-04T10:28:41.001Z</time></trkpt><trkpt lat="43.4923426436694" lon="11.02140677377365"><ele>245.0</ele><time>2026-05-04T10:28:42.001Z</time></trkpt><trkpt lat="43.49219351416995" lon="11.021457384328079"><ele>247.0</ele><time>2026-05-04T10:28:43.001Z</time></trkpt><trkpt lat="43.49206641966875" lon="11.02159207604975"><ele>249.0</ele><time>2026-05-04T10:28:44.001Z</time></trkpt><trkpt lat="43.49193201880777" lon="11.021774891842153"><ele>251.0</ele><time>2026-05-04T10:28:45.001Z</time></trkpt><trkpt lat="43.491805251128035" lon="11.021859449116327"><ele>247.75</ele><time>2026-05-04T10:28:46.001Z</time></trkpt><trkpt lat="43.491695194101425" lon="11.021888967757677"><ele>244.5</ele><time>2026-05-04T10:28:47.001Z</time></trkpt><trkpt lat="43.49156917430068" lon="11.021877796659188"><ele>241.25</ele><time>2026-05-04T10:28:48.001Z</time></trkpt><trkpt lat="43.491454448162344" lon="11.021790940813526"><ele>238.0</ele><time>2026-05-04T10:28:49.001Z</time></trkpt><trkpt lat="43.49138517457492" lon="11.021650215856374"><ele>235.33333333333331</ele><time>2026-05-04T10:28:50.001Z</time></trkpt><trkpt lat="43.491344867545536" lon="11.021443826795183"><ele>232.66666666666669</ele><time>2026-05-04T10:28:51.001Z</time></trkpt><trkpt lat="43.49128783423478" lon="11.021218195865025"><ele>230.0</ele><time>2026-05-04T10:28:52.001Z</time></trkpt><trkpt lat="43.49122650286617" lon="11.020967303691945"><ele>231.0</ele><time>2026-05-04T10:28:53.001Z</time></trkpt><trkpt lat="43.491187379385295" lon="11.020718504547377"><ele>232.0</ele><time>2026-05-04T10:28:54.001Z</time></trkpt><trkpt lat="43.49117361225614" lon="11.020461156362666"><ele>233.0</ele><time>2026-05-04T10:28:55.001Z</time></trkpt><trkpt lat="43.49114993063049" lon="11.020193357274955"><ele>234.33333333333334</ele><time>2026-05-04T10:28:56.001Z</time></trkpt><trkpt lat="43.49111996084439" lon="11.019918310569102"><ele>235.66666666666669</ele><time>2026-05-04T10:28:57.001Z</time></trkpt><trkpt lat="43.491083488479894" lon="11.019644994440391"><ele>237.0</ele><time>2026-05-04T10:28:58.001Z</time></trkpt><trkpt lat="43.49104573894349" lon="11.019407364811485"><ele>237.0</ele><time>2026-05-04T10:28:59.001Z</time></trkpt><trkpt lat="43.49102254364369" lon="11.019200008353367"><ele>237.0</ele><time>2026-05-04T10:29:00.001Z</time></trkpt><trkpt lat="43.491038652678576" lon="11.019009082298393"><ele>237.0</ele><time>2026-05-04T10:29:01.001Z</time></trkpt><trkpt lat="43.49112426996522" lon="11.018860823344507"><ele>237.0</ele><time>2026-05-04T10:29:02.001Z</time></trkpt><trkpt lat="43.49122776072332" lon="11.01867133165265"><ele>243.0</ele><time>2026-05-04T10:29:03.001Z</time></trkpt><trkpt lat="43.49135503547642" lon="11.01846893286199"><ele>249.0</ele><time>2026-05-04T10:29:04.001Z</time></trkpt><trkpt lat="43.49147421264261" lon="11.018243586495911"><ele>255.0</ele><time>2026-05-04T10:29:05.001Z</time></trkpt><trkpt lat="43.49154858882256" lon="11.018075590837773"><ele>255.5</ele><time>2026-05-04T10:29:06.001Z</time></trkpt><trkpt lat="43.49158199697227" lon="11.01790159353513"><ele>256.0</ele><time>2026-05-04T10:29:07.001Z</time></trkpt><trkpt lat="43.49156195347763" lon="11.017716123108917"><ele>256.5</ele><time>2026-05-04T10:29:08.001Z</time></trkpt><trkpt lat="43.49149408521915" lon="11.01754044952929"><ele>257.0</ele><time>2026-05-04T10:29:09.001Z</time></trkpt><trkpt lat="43.491387613329294" lon="11.017400412349168"><ele>257.0</ele><time>2026-05-04T10:29:10.001Z</time></trkpt><trkpt lat="43.491257517780696" lon="11.017331437037685"><ele>257.0</ele><time>2026-05-04T10:29:11.001Z</time></trkpt><trkpt lat="43.491121504565285" lon="11.017353595847714"><ele>257.0</ele><time>2026-05-04T10:29:12.001Z</time></trkpt><trkpt lat="43.490974124420994" lon="11.017423314565265"><ele>257.0</ele><time>2026-05-04T10:29:13.001Z</time></trkpt><trkpt lat="43.49081465896292" lon="11.017505069563605"><ele>257.0</ele><time>2026-05-04T10:29:14.001Z</time></trkpt><trkpt lat="43.490666229968" lon="11.017545708788012"><ele>257.0</ele><time>2026-05-04T10:29:15.001Z</time></trkpt><trkpt lat="43.49055753698632" lon="11.017585954205718"><ele>257.0</ele><time>2026-05-04T10:29:16.001Z</time></trkpt><trkpt lat="43.490446920349434" lon="11.017609811214099"><ele>257.0</ele><time>2026-05-04T10:29:17.001Z</time></trkpt><trkpt lat="43.49033841919384" lon="11.017622189377164"><ele>255.8</ele><time>2026-05-04T10:29:18.001Z</time></trkpt><trkpt lat="43.490243151025105" lon="11.0175436710885"><ele>254.6</ele><time>2026-05-04T10:29:19.001Z</time></trkpt><trkpt lat="43.490185170277115" lon="11.017435517659962"><ele>253.40000000000003</ele><time>2026-05-04T10:29:20.001Z</time></trkpt><trkpt lat="43.490158414025466" lon="11.0173117880751"><ele>252.20000000000002</ele><time>2026-05-04T10:29:21Z</time></trkpt><trkpt lat="43.49015689827089" lon="11.017187262608164"><ele>251.0</ele><time>2026-05-04T10:29:22Z</time></trkpt><trkpt lat="43.490190676095956" lon="11.017052723861772"><ele>251.0</ele><time>2026-05-04T10:29:23Z</time></trkpt><trkpt lat="43.49023378592647" lon="11.016927838562697"><ele>251.0</ele><time>2026-05-04T10:29:24Z</time></trkpt><trkpt lat="43.4902857640699" lon="11.016794372546874"><ele>251.0</ele><time>2026-05-04T10:29:25Z</time></trkpt><trkpt lat="43.49034218351093" lon="11.016641395291522"><ele>251.0</ele><time>2026-05-04T10:29:26Z</time></trkpt><trkpt lat="43.49041241423108" lon="11.01644793588882"><ele>255.66666666666669</ele><time>2026-05-04T10:29:27Z</time></trkpt><trkpt lat="43.4905022873738" lon="11.016238096173572"><ele>260.3333333333333</ele><time>2026-05-04T10:29:28Z</time></trkpt><trkpt lat="43.49060354201332" lon="11.016027330455762"><ele>265.0</ele><time>2026-05-04T10:29:29.001Z</time></trkpt><trkpt lat="43.490686438669954" lon="11.015818032767179"><ele>265.25</ele><time>2026-05-04T10:29:30.001Z</time></trkpt><trkpt lat="43.49074905242948" lon="11.015627825364195"><ele>265.5</ele><time>2026-05-04T10:29:31.001Z</time></trkpt><trkpt lat="43.490789912546454" lon="11.015445812522973"><ele>265.75</ele><time>2026-05-04T10:29:32.001Z</time></trkpt><trkpt lat="43.49080766698653" lon="11.015270283660922"><ele>266.0</ele><time>2026-05-04T10:29:33.001Z</time></trkpt><trkpt lat="43.490801159330445" lon="11.015096447997182"><ele>267.33333333333337</ele><time>2026-05-04T10:29:34.001Z</time></trkpt><trkpt lat="43.49076722931949" lon="11.01490230843899"><ele>268.6666666666667</ele><time>2026-05-04T10:29:35.001Z</time></trkpt><trkpt lat="43.490693642167706" lon="11.014715693501426"><ele>270.0</ele><time>2026-05-04T10:29:36.001Z</time></trkpt><trkpt lat="43.49058404909272" lon="11.014559252537111"><ele>270.0</ele><time>2026-05-04T10:29:37.001Z</time></trkpt><trkpt lat="43.49045159943629" lon="11.014448645173491"><ele>270.0</ele><time>2026-05-04T10:29:38.001Z</time></trkpt><trkpt lat="43.49031950417585" lon="11.014368938306413"><ele>270.0</ele><time>2026-05-04T10:29:39.001Z</time></trkpt><trkpt lat="43.49019393299171" lon="11.014322851699681"><ele>270.0</ele><time>2026-05-04T10:29:40.001Z</time></trkpt><trkpt lat="43.49005867162062" lon="11.014320338116136"><ele>269.75</ele><time>2026-05-04T10:29:41.001Z</time></trkpt><trkpt lat="43.48992253298382" lon="11.014343190063487"><ele>269.5</ele><time>2026-05-04T10:29:42.001Z</time></trkpt><trkpt lat="43.48979041137649" lon="11.014379349546873"><ele>269.25</ele><time>2026-05-04T10:29:43.001Z</time></trkpt><trkpt lat="43.489675937662774" lon="11.014413585312985"><ele>269.0</ele><time>2026-05-04T10:29:44.001Z</time></trkpt><trkpt lat="43.4895951820734" lon="11.014439181622627"><ele>269.8</ele><time>2026-05-04T10:29:45.001Z</time></trkpt><trkpt lat="43.48949645839427" lon="11.014470958419908"><ele>270.59999999999997</ele><time>2026-05-04T10:29:46.001Z</time></trkpt><trkpt lat="43.48939003726072" lon="11.014505212846322"><ele>271.4</ele><time>2026-05-04T10:29:47.001Z</time></trkpt><trkpt lat="43.48927946039372" lon="11.014539291860975"><ele>272.2</ele><time>2026-05-04T10:29:48.001Z</time></trkpt><trkpt lat="43.48916433431193" lon="11.014574601509493"><ele>273.0</ele><time>2026-05-04T10:29:49.001Z</time></trkpt><trkpt lat="43.48904826347074" lon="11.014606344360796"><ele>273.0</ele><time>2026-05-04T10:29:50.001Z</time></trkpt><trkpt lat="43.488936465447175" lon="11.014627063512696"><ele>273.0</ele><time>2026-05-04T10:29:51.001Z</time></trkpt><trkpt lat="43.48883023413553" lon="11.014641832084452"><ele>273.0</ele><time>2026-05-04T10:29:52.001Z</time></trkpt><trkpt lat="43.48871881599122" lon="11.014605738593131"><ele>273.0</ele><time>2026-05-04T10:29:53.001Z</time></trkpt><trkpt lat="43.488622313072064" lon="11.014534855472482"><ele>273.0</ele><time>2026-05-04T10:29:54.001Z</time></trkpt><trkpt lat="43.4885552916911" lon="11.014432296162076"><ele>272.2</ele><time>2026-05-04T10:29:55.001Z</time></trkpt><trkpt lat="43.4884861612649" lon="11.014331388327927"><ele>271.4</ele><time>2026-05-04T10:29:56.001Z</time></trkpt><trkpt lat="43.48842260916478" lon="11.014220340186867"><ele>270.59999999999997</ele><time>2026-05-04T10:29:57.001Z</time></trkpt><trkpt lat="43.48834202711217" lon="11.014126490788248"><ele>269.8</ele><time>2026-05-04T10:29:58.001Z</time></trkpt><trkpt lat="43.488279180285986" lon="11.014029075333669"><ele>269.0</ele><time>2026-05-04T10:29:59.001Z</time></trkpt><trkpt lat="43.488203985330976" lon="11.013945436959498"><ele>271.0</ele><time>2026-05-04T10:30:00.001Z</time></trkpt><trkpt lat="43.488112320927335" lon="11.013883720945739"><ele>273.0</ele><time>2026-05-04T10:30:01.001Z</time></trkpt><trkpt lat="43.488007870219356" lon="11.013855049255154"><ele>275.0</ele><time>2026-05-04T10:30:02.001Z</time></trkpt><trkpt lat="43.48790063435221" lon="11.013833348330934"><ele>277.0</ele><time>2026-05-04T10:30:03.001Z</time></trkpt><trkpt lat="43.48778017626283" lon="11.013815150154585"><ele>279.0</ele><time>2026-05-04T10:30:04.001Z</time></trkpt><trkpt lat="43.48763954090502" lon="11.013814205951054"><ele>279.0</ele><time>2026-05-04T10:30:05.001Z</time></trkpt><trkpt lat="43.487507136392644" lon="11.013844129269335"><ele>279.0</ele><time>2026-05-04T10:30:06.001Z</time></trkpt><trkpt lat="43.48739364788626" lon="11.013908675755985"><ele>279.0</ele><time>2026-05-04T10:30:07.001Z</time></trkpt><trkpt lat="43.48729308225289" lon="11.014005434434456"><ele>279.0</ele><time>2026-05-04T10:30:08.001Z</time></trkpt><trkpt lat="43.48721084973135" lon="11.014104823926731"><ele>279.0</ele><time>2026-05-04T10:30:09.001Z</time></trkpt><trkpt lat="43.48713302852711" lon="11.014212339000457"><ele>279.0</ele><time>2026-05-04T10:30:10.001Z</time></trkpt><trkpt lat="43.48707556893076" lon="11.014362686767173"><ele>279.0</ele><time>2026-05-04T10:30:11.001Z</time></trkpt><trkpt lat="43.48702898097083" lon="11.014591425606447"><ele>279.0</ele><time>2026-05-04T10:30:12.001Z</time></trkpt><trkpt lat="43.48697872670825" lon="11.014780389965862"><ele>279.0</ele><time>2026-05-04T10:30:13.001Z</time></trkpt><trkpt lat="43.48692942345976" lon="11.014907753725808"><ele>279.0</ele><time>2026-05-04T10:30:14.001Z</time></trkpt><trkpt lat="43.48688097706446" lon="11.015001835959723"><ele>279.0</ele><time>2026-05-04T10:30:15.001Z</time></trkpt><trkpt lat="43.486815353607874" lon="11.015056805954316"><ele>279.0</ele><time>2026-05-04T10:30:16.001Z</time></trkpt><trkpt lat="43.486731737959566" lon="11.01510195378134"><ele>279.0</ele><time>2026-05-04T10:30:17.001Z</time></trkpt><trkpt lat="43.48660623668892" lon="11.015145940993781"><ele>278.0</ele><time>2026-05-04T10:30:18.001Z</time></trkpt><trkpt lat="43.486443627249265" lon="11.015198986873967"><ele>277.0</ele><time>2026-05-04T10:30:19.001Z</time></trkpt><trkpt lat="43.486259528043455" lon="11.015271656916264"><ele>276.0</ele><time>2026-05-04T10:30:20.001Z</time></trkpt><trkpt lat="43.486064275035375" lon="11.01538346734045"><ele>276.0</ele><time>2026-05-04T10:30:21.001Z</time></trkpt><trkpt lat="43.48585287454214" lon="11.015537161189368"><ele>276.0</ele><time>2026-05-04T10:30:22.001Z</time></trkpt><trkpt lat="43.48564396426896" lon="11.01572198354818"><ele>275.0</ele><time>2026-05-04T10:30:23.001Z</time></trkpt><trkpt lat="43.485436749167434" lon="11.01590903071349"><ele>274.0</ele><time>2026-05-04T10:30:24.001Z</time></trkpt><trkpt lat="43.485217164658756" lon="11.016083683894712"><ele>274.0</ele><time>2026-05-04T10:30:25.001Z</time></trkpt><trkpt lat="43.485032716169805" lon="11.01630261521243"><ele>274.0</ele><time>2026-05-04T10:30:26.001Z</time></trkpt><trkpt lat="43.484848009271055" lon="11.016517439737248"><ele>276.5</ele><time>2026-05-04T10:30:27.001Z</time></trkpt><trkpt lat="43.484666943716455" lon="11.01677226201081"><ele>279.0</ele><time>2026-05-04T10:30:28.001Z</time></trkpt><trkpt lat="43.484472301063505" lon="11.017021112780927"><ele>279.0</ele><time>2026-05-04T10:30:29.001Z</time></trkpt><trkpt lat="43.484267969034796" lon="11.017298006274412"><ele>279.0</ele><time>2026-05-04T10:30:30.001Z</time></trkpt><trkpt lat="43.4840613528911" lon="11.017577791184374"><ele>279.5</ele><time>2026-05-04T10:30:31.001Z</time></trkpt><trkpt lat="43.48385166473428" lon="11.017860901115482"><ele>280.0</ele><time>2026-05-04T10:30:32.001Z</time></trkpt><trkpt lat="43.48365368247781" lon="11.018127219330752"><ele>277.3333333333333</ele><time>2026-05-04T10:30:33.001Z</time></trkpt><trkpt lat="43.48349365326537" lon="11.018347793030962"><ele>274.6666666666667</ele><time>2026-05-04T10:30:34.001Z</time></trkpt><trkpt lat="43.4833698420151" lon="11.018551096713166"><ele>272.0</ele><time>2026-05-04T10:30:35.001Z</time></trkpt><trkpt lat="43.48325129938234" lon="11.018722344355583"><ele>272.0</ele><time>2026-05-04T10:30:36.001Z</time></trkpt><trkpt lat="43.483123281343175" lon="11.018931310715754"><ele>272.0</ele><time>2026-05-04T10:30:37.001Z</time></trkpt><trkpt lat="43.4830114257436" lon="11.01916600507807"><ele>272.0</ele><time>2026-05-04T10:30:38.001Z</time></trkpt><trkpt lat="43.48293565167798" lon="11.019433259749768"><ele>275.0</ele><time>2026-05-04T10:30:39.001Z</time></trkpt><trkpt lat="43.482901919853916" lon="11.01973253261302"><ele>278.0</ele><time>2026-05-04T10:30:40.001Z</time></trkpt><trkpt lat="43.482907066086256" lon="11.020052113399995"><ele>273.33333333333337</ele><time>2026-05-04T10:30:41.001Z</time></trkpt><trkpt lat="43.48294442228925" lon="11.020342524155856"><ele>268.6666666666667</ele><time>2026-05-04T10:30:42.001Z</time></trkpt><trkpt lat="43.48295333226381" lon="11.020564183340293"><ele>264.0</ele><time>2026-05-04T10:30:43.001Z</time></trkpt><trkpt lat="43.48295202029259" lon="11.020721329370987"><ele>266.0</ele><time>2026-05-04T10:30:44.001Z</time></trkpt><trkpt lat="43.48292711381038" lon="11.020860655489205"><ele>268.0</ele><time>2026-05-04T10:30:45.001Z</time></trkpt><trkpt lat="43.48286482734585" lon="11.020970807932821"><ele>270.0</ele><time>2026-05-04T10:30:46.001Z</time></trkpt><trkpt lat="43.48277651474937" lon="11.021066413598325"><ele>272.0</ele><time>2026-05-04T10:30:47.001Z</time></trkpt><trkpt lat="43.48265216226166" lon="11.021136586983628"><ele>272.0</ele><time>2026-05-04T10:30:48.001Z</time></trkpt><trkpt lat="43.482503266423016" lon="11.0211473662058"><ele>272.0</ele><time>2026-05-04T10:30:49.001Z</time></trkpt><trkpt lat="43.482347640089976" lon="11.021128503813745"><ele>272.0</ele><time>2026-05-04T10:30:50.001Z</time></trkpt><trkpt lat="43.48221453758381" lon="11.021068069762004"><ele>272.0</ele><time>2026-05-04T10:30:51.001Z</time></trkpt><trkpt lat="43.482103631373754" lon="11.02096850785073"><ele>271.33333333333337</ele><time>2026-05-04T10:30:52.001Z</time></trkpt><trkpt lat="43.482004001499334" lon="11.020822258683356"><ele>270.6666666666667</ele><time>2026-05-04T10:30:53.001Z</time></trkpt><trkpt lat="43.48192560917075" lon="11.020626637474436"><ele>270.0</ele><time>2026-05-04T10:30:54.001Z</time></trkpt><trkpt lat="43.48184343173651" lon="11.02041373544068"><ele>270.0</ele><time>2026-05-04T10:30:55.001Z</time></trkpt><trkpt lat="43.481782017586156" lon="11.020185051101091"><ele>270.0</ele><time>2026-05-04T10:30:56.001Z</time></trkpt><trkpt lat="43.48170969473518" lon="11.01997249329428"><ele>270.0</ele><time>2026-05-04T10:30:57.001Z</time></trkpt><trkpt lat="43.48160570840101" lon="11.0197967251373"><ele>273.0</ele><time>2026-05-04T10:30:58.001Z</time></trkpt><trkpt lat="43.48146289068127" lon="11.019658454321617"><ele>276.0</ele><time>2026-05-04T10:30:59.001Z</time></trkpt><trkpt lat="43.481293544790574" lon="11.01957714013657"><ele>279.0</ele><time>2026-05-04T10:31:00.001Z</time></trkpt><trkpt lat="43.48108599849336" lon="11.0195192778314"><ele>279.0</ele><time>2026-05-04T10:31:01.001Z</time></trkpt><trkpt lat="43.480874245403164" lon="11.01949483033497"><ele>279.0</ele><time>2026-05-04T10:31:02.001Z</time></trkpt><trkpt lat="43.48070942933826" lon="11.01950293226381"><ele>279.0</ele><time>2026-05-04T10:31:03.001Z</time></trkpt><trkpt lat="43.48057241261208" lon="11.01954199127537"><ele>279.0</ele><time>2026-05-04T10:31:04.001Z</time></trkpt><trkpt lat="43.4804384930846" lon="11.019632554575166"><ele>279.0</ele><time>2026-05-04T10:31:05.001Z</time></trkpt><trkpt lat="43.48030357122103" lon="11.019782700583013"><ele>279.0</ele><time>2026-05-04T10:31:06.001Z</time></trkpt><trkpt lat="43.480163066161815" lon="11.019977041772428"><ele>277.6666666666667</ele><time>2026-05-04T10:31:07.001Z</time></trkpt><trkpt lat="43.479995864577525" lon="11.020170957942122"><ele>276.33333333333337</ele><time>2026-05-04T10:31:08.001Z</time></trkpt><trkpt lat="43.479826300564774" lon="11.020368115421672"><ele>275.0</ele><time>2026-05-04T10:31:09.001Z</time></trkpt><trkpt lat="43.47965282065707" lon="11.020522998824594"><ele>275.0</ele><time>2026-05-04T10:31:10.001Z</time></trkpt><trkpt lat="43.47949256041882" lon="11.020655673328417"><ele>275.0</ele><time>2026-05-04T10:31:11.001Z</time></trkpt><trkpt lat="43.4793685654702" lon="11.020785154356616"><ele>275.0</ele><time>2026-05-04T10:31:12.001Z</time></trkpt><trkpt lat="43.47926639660215" lon="11.020943321765197"><ele>275.0</ele><time>2026-05-04T10:31:13.001Z</time></trkpt><trkpt lat="43.47919945078719" lon="11.021172580478673"><ele>275.0</ele><time>2026-05-04T10:31:14.001Z</time></trkpt><trkpt lat="43.47916294569959" lon="11.02145156472516"><ele>275.0</ele><time>2026-05-04T10:31:15.001Z</time></trkpt><trkpt lat="43.47916888150532" lon="11.021750771252114"><ele>274.0</ele><time>2026-05-04T10:31:16.001Z</time></trkpt><trkpt lat="43.47921712299052" lon="11.022066893585716"><ele>273.0</ele><time>2026-05-04T10:31:17.001Z</time></trkpt><trkpt lat="43.47925864748896" lon="11.022360036710593"><ele>272.3333333333333</ele><time>2026-05-04T10:31:18.001Z</time></trkpt><trkpt lat="43.47922493735636" lon="11.02261552459136"><ele>271.66666666666663</ele><time>2026-05-04T10:31:19.001Z</time></trkpt><trkpt lat="43.479176406074046" lon="11.022880218772547"><ele>271.0</ele><time>2026-05-04T10:31:20.001Z</time></trkpt><trkpt lat="43.47911854855302" lon="11.023183000958335"><ele>270.5</ele><time>2026-05-04T10:31:21.001Z</time></trkpt><trkpt lat="43.479078274149806" lon="11.023525438575044"><ele>270.0</ele><time>2026-05-04T10:31:22.001Z</time></trkpt><trkpt lat="43.47907304148311" lon="11.02387221220249"><ele>269.3333333333333</ele><time>2026-05-04T10:31:23.001Z</time></trkpt><trkpt lat="43.47903533353316" lon="11.024149429619463"><ele>268.66666666666663</ele><time>2026-05-04T10:31:24.001Z</time></trkpt><trkpt lat="43.47900332865366" lon="11.024389326061089"><ele>268.0</ele><time>2026-05-04T10:31:25.001Z</time></trkpt><trkpt lat="43.47893666690223" lon="11.024618071656603"><ele>268.0</ele><time>2026-05-04T10:31:26.001Z</time></trkpt><trkpt lat="43.478830060625434" lon="11.02487150600091"><ele>268.0</ele><time>2026-05-04T10:31:27.001Z</time></trkpt><trkpt lat="43.47874411477192" lon="11.025149561772011"><ele>268.0</ele><time>2026-05-04T10:31:28.001Z</time></trkpt><trkpt lat="43.478700868940706" lon="11.0254429685287"><ele>275.0</ele><time>2026-05-04T10:31:29.001Z</time></trkpt><trkpt lat="43.47870748064703" lon="11.025749323592615"><ele>282.0</ele><time>2026-05-04T10:31:30.001Z</time></trkpt><trkpt lat="43.47875667933506" lon="11.02606471486815"><ele>275.0</ele><time>2026-05-04T10:31:31.001Z</time></trkpt><trkpt lat="43.47884656408729" lon="11.02637123343802"><ele>268.0</ele><time>2026-05-04T10:31:32.001Z</time></trkpt><trkpt lat="43.47896449849726" lon="11.026670501501394"><ele>268.0</ele><time>2026-05-04T10:31:33.001Z</time></trkpt><trkpt lat="43.47908508097388" lon="11.026949197089706"><ele>268.0</ele><time>2026-05-04T10:31:34.001Z</time></trkpt><trkpt lat="43.47915698787062" lon="11.027191603344646"><ele>268.0</ele><time>2026-05-04T10:31:35.001Z</time></trkpt><trkpt lat="43.47921854859447" lon="11.027427364944193"><ele>269.3333333333333</ele><time>2026-05-04T10:31:36.001Z</time></trkpt><trkpt lat="43.47924051356833" lon="11.027685318162606"><ele>270.6666666666667</ele><time>2026-05-04T10:31:37.001Z</time></trkpt><trkpt lat="43.47922983945715" lon="11.027968087016164"><ele>272.0</ele><time>2026-05-04T10:31:38.001Z</time></trkpt><trkpt lat="43.47924296272829" lon="11.028277203649164"><ele>272.0</ele><time>2026-05-04T10:31:39.001Z</time></trkpt><trkpt lat="43.47926399472331" lon="11.028616605195337"><ele>272.0</ele><time>2026-05-04T10:31:40.001Z</time></trkpt><trkpt lat="43.47931787758603" lon="11.028918771295277"><ele>272.0</ele><time>2026-05-04T10:31:41.001Z</time></trkpt><trkpt lat="43.47934330135862" lon="11.029155954599666"><ele>272.0</ele><time>2026-05-04T10:31:42.001Z</time></trkpt><trkpt lat="43.479367663563494" lon="11.02934888407562"><ele>272.0</ele><time>2026-05-04T10:31:43.001Z</time></trkpt><trkpt lat="43.47938079450908" lon="11.029519765859822"><ele>272.0</ele><time>2026-05-04T10:31:44.001Z</time></trkpt><trkpt lat="43.47935890008414" lon="11.029678289785641"><ele>272.0</ele><time>2026-05-04T10:31:45.001Z</time></trkpt><trkpt lat="43.47931573195043" lon="11.029826008084823"><ele>272.0</ele><time>2026-05-04T10:31:46.001Z</time></trkpt><trkpt lat="43.47918159079835" lon="11.029856824257134"><ele>272.0</ele><time>2026-05-04T10:31:47.001Z</time></trkpt><trkpt lat="43.47903020263139" lon="11.029873398325565"><ele>272.0</ele><time>2026-05-04T10:31:48.001Z</time></trkpt><trkpt lat="43.47882651329521" lon="11.029835741020936"><ele>271.5</ele><time>2026-05-04T10:31:49.001Z</time></trkpt><trkpt lat="43.47858201693581" lon="11.029751905166025"><ele>271.0</ele><time>2026-05-04T10:31:50.001Z</time></trkpt><trkpt lat="43.47830915793261" lon="11.029671468889411"><ele>271.0</ele><time>2026-05-04T10:31:51.001Z</time></trkpt><trkpt lat="43.478045081599255" lon="11.029568079985653"><ele>271.0</ele><time>2026-05-04T10:31:52.001Z</time></trkpt><trkpt lat="43.477790948787785" lon="11.029496471527835"><ele>269.66666666666663</ele><time>2026-05-04T10:31:53.001Z</time></trkpt><trkpt lat="43.47755708810538" lon="11.029453047139"><ele>268.3333333333333</ele><time>2026-05-04T10:31:54.001Z</time></trkpt><trkpt lat="43.4773537931271" lon="11.029441959375662"><ele>267.0</ele><time>2026-05-04T10:31:55.001Z</time></trkpt><trkpt lat="43.477184411508006" lon="11.02940822248852"><ele>266.5</ele><time>2026-05-04T10:31:56.001Z</time></trkpt><trkpt lat="43.47704669450186" lon="11.02938971469053"><ele>266.0</ele><time>2026-05-04T10:31:57.001Z</time></trkpt><trkpt lat="43.47693209536473" lon="11.02935647694319"><ele>265.5</ele><time>2026-05-04T10:31:58.001Z</time></trkpt><trkpt lat="43.476834352588796" lon="11.029295940417182"><ele>265.0</ele><time>2026-05-04T10:31:59.001Z</time></trkpt><trkpt lat="43.476765806246206" lon="11.029155012284855"><ele>265.0</ele><time>2026-05-04T10:32:00.001Z</time></trkpt><trkpt lat="43.476722133604326" lon="11.028988212422343"><ele>265.0</ele><time>2026-05-04T10:32:01.001Z</time></trkpt><trkpt lat="43.476673173997035" lon="11.028855164083412"><ele>265.0</ele><time>2026-05-04T10:32:02.001Z</time></trkpt><trkpt lat="43.47658157260039" lon="11.028790335730642"><ele>265.0</ele><time>2026-05-04T10:32:03.001Z</time></trkpt><trkpt lat="43.47647111734287" lon="11.028792339574126"><ele>265.0</ele><time>2026-05-04T10:32:04.001Z</time></trkpt><trkpt lat="43.47637555863803" lon="11.028870028076716"><ele>265.0</ele><time>2026-05-04T10:32:05.001Z</time></trkpt><trkpt lat="43.476314971794714" lon="11.029012549930084"><ele>265.0</ele><time>2026-05-04T10:32:06.001Z</time></trkpt><trkpt lat="43.476296312058174" lon="11.029199399579028"><ele>265.0</ele><time>2026-05-04T10:32:07.001Z</time></trkpt><trkpt lat="43.476274873855594" lon="11.029379986788207"><ele>263.3333333333333</ele><time>2026-05-04T10:32:08.001Z</time></trkpt><trkpt lat="43.476249851183006" lon="11.029527415978725"><ele>261.6666666666667</ele><time>2026-05-04T10:32:09.001Z</time></trkpt><trkpt lat="43.476046911718" lon="11.029592553760596"><ele>260.0</ele><time>2026-05-04T10:32:10.001Z</time></trkpt><trkpt lat="43.475906907521825" lon="11.029721169495328"><ele>260.0</ele><time>2026-05-04T10:32:11.001Z</time></trkpt><trkpt lat="43.475758866166814" lon="11.029857822807198"><ele>260.0</ele><time>2026-05-04T10:32:12.001Z</time></trkpt><trkpt lat="43.47561118489762" lon="11.029997213108244"><ele>260.0</ele><time>2026-05-04T10:32:13.001Z</time></trkpt><trkpt lat="43.475452264254706" lon="11.030147949488335"><ele>262.6666666666667</ele><time>2026-05-04T10:32:14.001Z</time></trkpt><trkpt lat="43.475290139805416" lon="11.030300806879714"><ele>265.3333333333333</ele><time>2026-05-04T10:32:15.001Z</time></trkpt><trkpt lat="43.47510771623652" lon="11.030470002870453"><ele>268.0</ele><time>2026-05-04T10:32:16.001Z</time></trkpt><trkpt lat="43.47493018387274" lon="11.0306339880588"><ele>268.0</ele><time>2026-05-04T10:32:17.001Z</time></trkpt><trkpt lat="43.47478245253632" lon="11.030768399373851"><ele>268.0</ele><time>2026-05-04T10:32:18.001Z</time></trkpt><trkpt lat="43.47465857731965" lon="11.030867558893931"><ele>268.0</ele><time>2026-05-04T10:32:19.001Z</time></trkpt><trkpt lat="43.474539461944175" lon="11.030952023235551"><ele>266.66666666666663</ele><time>2026-05-04T10:32:20.001Z</time></trkpt><trkpt lat="43.47439994212908" lon="11.031043392623708"><ele>265.3333333333333</ele><time>2026-05-04T10:32:21.001Z</time></trkpt><trkpt lat="43.4742436175877" lon="11.03114215027327"><ele>264.0</ele><time>2026-05-04T10:32:22.001Z</time></trkpt><trkpt lat="43.474095579868106" lon="11.031258672445398"><ele>264.0</ele><time>2026-05-04T10:32:23.001Z</time></trkpt><trkpt lat="43.47396124870377" lon="11.031346026334761"><ele>264.0</ele><time>2026-05-04T10:32:24.001Z</time></trkpt><trkpt lat="43.47383284377239" lon="11.0314233125437"><ele>264.0</ele><time>2026-05-04T10:32:25.001Z</time></trkpt><trkpt lat="43.47371473082197" lon="11.031495318305316"><ele>264.0</ele><time>2026-05-04T10:32:26.001Z</time></trkpt><trkpt lat="43.47359232510831" lon="11.03156945123712"><ele>263.25</ele><time>2026-05-04T10:32:27.001Z</time></trkpt><trkpt lat="43.47347837125796" lon="11.031639904984136"><ele>262.5</ele><time>2026-05-04T10:32:28.001Z</time></trkpt><trkpt lat="43.47336766234197" lon="11.031711017892851"><ele>261.75</ele><time>2026-05-04T10:32:29.001Z</time></trkpt><trkpt lat="43.47326177707694" lon="11.031751181665618"><ele>261.0</ele><time>2026-05-04T10:32:30.001Z</time></trkpt><trkpt lat="43.473172415856006" lon="11.031829173247518"><ele>261.0</ele><time>2026-05-04T10:32:31.001Z</time></trkpt><trkpt lat="43.47307737031649" lon="11.03187869011301"><ele>261.0</ele><time>2026-05-04T10:32:32.001Z</time></trkpt><trkpt lat="43.47299220503921" lon="11.031931618844336"><ele>261.0</ele><time>2026-05-04T10:32:33.001Z</time></trkpt><trkpt lat="43.4729106207178" lon="11.031986943690903"><ele>261.0</ele><time>2026-05-04T10:32:34.001Z</time></trkpt><trkpt lat="43.47281991853493" lon="11.032017108799373"><ele>261.0</ele><time>2026-05-04T10:32:35.001Z</time></trkpt><trkpt lat="43.47273061309613" lon="11.032070047397298"><ele>260.42857142857144</ele><time>2026-05-04T10:32:36.001Z</time></trkpt><trkpt lat="43.472652061070846" lon="11.032116661648484"><ele>259.85714285714283</ele><time>2026-05-04T10:32:37.001Z</time></trkpt><trkpt lat="43.472588457722026" lon="11.032203214940806"><ele>259.2857142857143</ele><time>2026-05-04T10:32:38.001Z</time></trkpt><trkpt lat="43.47252267931531" lon="11.032242817198764"><ele>258.7142857142857</ele><time>2026-05-04T10:32:39.001Z</time></trkpt><trkpt lat="43.472461318141974" lon="11.032281603378385"><ele>258.14285714285717</ele><time>2026-05-04T10:32:40.001Z</time></trkpt><trkpt lat="43.47240348356912" lon="11.032316698977588"><ele>257.57142857142856</ele><time>2026-05-04T10:32:41.001Z</time></trkpt><trkpt lat="43.47234400774302" lon="11.032348210245344"><ele>257.0</ele><time>2026-05-04T10:32:42.001Z</time></trkpt><trkpt lat="43.472244921759064" lon="11.032353672981618"><ele>257.0</ele><time>2026-05-04T10:32:43.001Z</time></trkpt><trkpt lat="43.472149681979595" lon="11.032408054104742"><ele>257.0</ele><time>2026-05-04T10:32:44.001Z</time></trkpt><trkpt lat="43.47204400114877" lon="11.032477960374012"><ele>257.0</ele><time>2026-05-04T10:32:45.001Z</time></trkpt><trkpt lat="43.471930878721686" lon="11.032562114429576"><ele>257.0</ele><time>2026-05-04T10:32:46.001Z</time></trkpt><trkpt lat="43.47186536948233" lon="11.032649449172224"><ele>257.0</ele><time>2026-05-04T10:32:47.001Z</time></trkpt><trkpt lat="43.47180662811119" lon="11.032688805025355"><ele>258.2857142857143</ele><time>2026-05-04T10:32:48.001Z</time></trkpt><trkpt lat="43.47174958926145" lon="11.032740375070134"><ele>259.57142857142856</ele><time>2026-05-04T10:32:49.001Z</time></trkpt><trkpt lat="43.471700714895434" lon="11.032810457359394"><ele>260.8571428571429</ele><time>2026-05-04T10:32:50.001Z</time></trkpt><trkpt lat="43.471645186004295" lon="11.032856232032453"><ele>262.1428571428571</ele><time>2026-05-04T10:32:51.001Z</time></trkpt><trkpt lat="43.471608103980216" lon="11.032935429593586"><ele>263.42857142857144</ele><time>2026-05-04T10:32:52.001Z</time></trkpt><trkpt lat="43.47155264799366" lon="11.033002821814305"><ele>264.7142857142857</ele><time>2026-05-04T10:32:53.001Z</time></trkpt><trkpt lat="43.47150337639246" lon="11.0330714691835"><ele>266.0</ele><time>2026-05-04T10:32:54.001Z</time></trkpt><trkpt lat="43.471459569399315" lon="11.033146514041105"><ele>266.0</ele><time>2026-05-04T10:32:55.001Z</time></trkpt><trkpt lat="43.47142172291007" lon="11.033230857423245"><ele>266.0</ele><time>2026-05-04T10:32:56.001Z</time></trkpt><trkpt lat="43.47136424968655" lon="11.03333556013346"><ele>266.0</ele><time>2026-05-04T10:32:57.001Z</time></trkpt><trkpt lat="43.47131260250829" lon="11.033483270121943"><ele>266.0</ele><time>2026-05-04T10:32:58.001Z</time></trkpt><trkpt lat="43.4712681127633" lon="11.033648330565581"><ele>266.0</ele><time>2026-05-04T10:32:59.001Z</time></trkpt><trkpt lat="43.47123081110589" lon="11.033838703943632"><ele>266.33333333333337</ele><time>2026-05-04T10:33:00.001Z</time></trkpt><trkpt lat="43.47120079074515" lon="11.034046082977822"><ele>266.6666666666667</ele><time>2026-05-04T10:33:01.001Z</time></trkpt><trkpt lat="43.471193157566574" lon="11.03425788353815"><ele>267.0</ele><time>2026-05-04T10:33:02.001Z</time></trkpt><trkpt lat="43.47117261666106" lon="11.034481075889438"><ele>267.0</ele><time>2026-05-04T10:33:03.001Z</time></trkpt><trkpt lat="43.47116443121852" lon="11.034709679901187"><ele>267.0</ele><time>2026-05-04T10:33:04.001Z</time></trkpt><trkpt lat="43.47116423014373" lon="11.034936721944257"><ele>267.0</ele><time>2026-05-04T10:33:05.001Z</time></trkpt><trkpt lat="43.47116274068766" lon="11.035154712441443"><ele>267.25</ele><time>2026-05-04T10:33:06.001Z</time></trkpt><trkpt lat="43.47116448707135" lon="11.035364816635122"><ele>267.5</ele><time>2026-05-04T10:33:07.001Z</time></trkpt><trkpt lat="43.47117144399733" lon="11.035558159756533"><ele>267.75</ele><time>2026-05-04T10:33:08.001Z</time></trkpt><trkpt lat="43.47117521032473" lon="11.035743419269767"><ele>268.0</ele><time>2026-05-04T10:33:09.001Z</time></trkpt><trkpt lat="43.47117580156154" lon="11.035898029013188"><ele>268.66666666666663</ele><time>2026-05-04T10:33:10.001Z</time></trkpt><trkpt lat="43.47117834490188" lon="11.03599991734132"><ele>269.3333333333333</ele><time>2026-05-04T10:33:11.001Z</time></trkpt><trkpt lat="43.47116623616292" lon="11.036086054933804"><ele>270.0</ele><time>2026-05-04T10:33:12.001Z</time></trkpt><trkpt lat="43.4711668233206" lon="11.036193844879856"><ele>270.6666666666667</ele><time>2026-05-04T10:33:13.001Z</time></trkpt><trkpt lat="43.471167614662164" lon="11.036339118309588"><ele>271.33333333333337</ele><time>2026-05-04T10:33:14.001Z</time></trkpt><trkpt lat="43.471166128567134" lon="11.03648729388867"><ele>272.0</ele><time>2026-05-04T10:33:15.001Z</time></trkpt><trkpt lat="43.47118311833021" lon="11.036641357883811"><ele>272.33333333333337</ele><time>2026-05-04T10:33:16.001Z</time></trkpt><trkpt lat="43.47117325650439" lon="11.036822765137721"><ele>272.6666666666667</ele><time>2026-05-04T10:33:17.001Z</time></trkpt><trkpt lat="43.47116845413246" lon="11.037051439910181"><ele>273.0</ele><time>2026-05-04T10:33:18.001Z</time></trkpt><trkpt lat="43.471160033896915" lon="11.037288439049066"><ele>273.0</ele><time>2026-05-04T10:33:19.001Z</time></trkpt><trkpt lat="43.47115013407318" lon="11.037500482207005"><ele>273.0</ele><time>2026-05-04T10:33:20.001Z</time></trkpt><trkpt lat="43.471151745212346" lon="11.037683439806065"><ele>273.0</ele><time>2026-05-04T10:33:21.001Z</time></trkpt><trkpt lat="43.47115675197695" lon="11.037866228331286"><ele>273.0</ele><time>2026-05-04T10:33:22.001Z</time></trkpt><trkpt lat="43.47116877025119" lon="11.038054694180119"><ele>273.0</ele><time>2026-05-04T10:33:23.001Z</time></trkpt><trkpt lat="43.47119012467249" lon="11.038245081798287"><ele>273.0</ele><time>2026-05-04T10:33:24.001Z</time></trkpt><trkpt lat="43.47122331316974" lon="11.03843923487609"><ele>273.0</ele><time>2026-05-04T10:33:25.001Z</time></trkpt><trkpt lat="43.47126370678554" lon="11.038646153560332"><ele>273.0</ele><time>2026-05-04T10:33:26.001Z</time></trkpt><trkpt lat="43.47131026128569" lon="11.03886172919526"><ele>272.6666666666667</ele><time>2026-05-04T10:33:27.001Z</time></trkpt><trkpt lat="43.47136283677858" lon="11.039083745616393"><ele>272.33333333333337</ele><time>2026-05-04T10:33:28.001Z</time></trkpt><trkpt lat="43.47142453010064" lon="11.039309035725042"><ele>272.0</ele><time>2026-05-04T10:33:29.001Z</time></trkpt><trkpt lat="43.471492876522106" lon="11.039539030842864"><ele>274.0</ele><time>2026-05-04T10:33:30.001Z</time></trkpt><trkpt lat="43.471565948953234" lon="11.039768405803681"><ele>276.0</ele><time>2026-05-04T10:33:31Z</time></trkpt><trkpt lat="43.47163652576674" lon="11.039979783461524"><ele>278.0</ele><time>2026-05-04T10:33:32Z</time></trkpt><trkpt lat="43.471682044399074" lon="11.040141284048392"><ele>276.25</ele><time>2026-05-04T10:33:33Z</time></trkpt><trkpt lat="43.471703947477856" lon="11.040229509800637"><ele>274.5</ele><time>2026-05-04T10:33:34Z</time></trkpt><trkpt lat="43.47184000724036" lon="11.040253845074382"><ele>272.75</ele><time>2026-05-04T10:33:36Z</time></trkpt><trkpt lat="43.47196984286355" lon="11.04027828268294"><ele>271.0</ele><time>2026-05-04T10:33:37Z</time></trkpt><trkpt lat="43.47212458521598" lon="11.04031766095364"><ele>271.0</ele><time>2026-05-04T10:33:38Z</time></trkpt><trkpt lat="43.47229819638195" lon="11.04038275646171"><ele>271.0</ele><time>2026-05-04T10:33:39Z</time></trkpt><trkpt lat="43.47247997137601" lon="11.040461668718038"><ele>271.0</ele><time>2026-05-04T10:33:40Z</time></trkpt><trkpt lat="43.472664283479425" lon="11.040559128098481"><ele>271.0</ele><time>2026-05-04T10:33:41Z</time></trkpt><trkpt lat="43.472843003894084" lon="11.040663721902794"><ele>271.0</ele><time>2026-05-04T10:33:42Z</time></trkpt><trkpt lat="43.47302805077014" lon="11.04077520815027"><ele>271.0</ele><time>2026-05-04T10:33:43Z</time></trkpt><trkpt lat="43.47320567354501" lon="11.040885186127865"><ele>270.66666666666663</ele><time>2026-05-04T10:33:44Z</time></trkpt><trkpt lat="43.47337431016482" lon="11.041001726237376"><ele>270.3333333333333</ele><time>2026-05-04T10:33:45Z</time></trkpt><trkpt lat="43.4735351573022" lon="11.041135568196058"><ele>270.0</ele><time>2026-05-04T10:33:46Z</time></trkpt><trkpt lat="43.47368713950139" lon="11.041270541225611"><ele>266.3333333333333</ele><time>2026-05-04T10:33:47Z</time></trkpt><trkpt lat="43.47385973926732" lon="11.04137979868241"><ele>262.66666666666663</ele><time>2026-05-04T10:33:48.001Z</time></trkpt><trkpt lat="43.474036817049566" lon="11.04147932376638"><ele>259.0</ele><time>2026-05-04T10:33:49.001Z</time></trkpt><trkpt lat="43.47422057839489" lon="11.041566020420388"><ele>257.66666666666663</ele><time>2026-05-04T10:33:50.001Z</time></trkpt><trkpt lat="43.474414348397765" lon="11.041650620070259"><ele>256.3333333333333</ele><time>2026-05-04T10:33:51.001Z</time></trkpt><trkpt lat="43.474615153283416" lon="11.04172518100576"><ele>255.0</ele><time>2026-05-04T10:33:52.001Z</time></trkpt><trkpt lat="43.474819344238036" lon="11.04180281433263"><ele>255.0</ele><time>2026-05-04T10:33:53.001Z</time></trkpt><trkpt lat="43.4750232574331" lon="11.041891676267133"><ele>255.0</ele><time>2026-05-04T10:33:54.001Z</time></trkpt><trkpt lat="43.47523033110423" lon="11.041991288779105"><ele>255.0</ele><time>2026-05-04T10:33:55.001Z</time></trkpt><trkpt lat="43.47544243359847" lon="11.042098549539295"><ele>255.66666666666669</ele><time>2026-05-04T10:33:56.001Z</time></trkpt><trkpt lat="43.475651950329464" lon="11.042210421325024"><ele>256.33333333333337</ele><time>2026-05-04T10:33:57.001Z</time></trkpt><trkpt lat="43.47585345185239" lon="11.04233184387132"><ele>257.0</ele><time>2026-05-04T10:33:58.001Z</time></trkpt><trkpt lat="43.47605175845605" lon="11.042455785194617"><ele>254.66666666666669</ele><time>2026-05-04T10:33:59.001Z</time></trkpt><trkpt lat="43.47624194822907" lon="11.04258033180857"><ele>252.33333333333331</ele><time>2026-05-04T10:34:00.001Z</time></trkpt><trkpt lat="43.476421201595834" lon="11.042742296803173"><ele>250.0</ele><time>2026-05-04T10:34:01.001Z</time></trkpt><trkpt lat="43.476612499544444" lon="11.04287113576448"><ele>249.66666666666666</ele><time>2026-05-04T10:34:02.001Z</time></trkpt><trkpt lat="43.47678011211939" lon="11.043015145076835"><ele>249.33333333333331</ele><time>2026-05-04T10:34:03.001Z</time></trkpt><trkpt lat="43.47693928095459" lon="11.043151673126662"><ele>249.0</ele><time>2026-05-04T10:34:04.001Z</time></trkpt><trkpt lat="43.477084145092235" lon="11.043312227959357"><ele>244.66666666666669</ele><time>2026-05-04T10:34:05.001Z</time></trkpt><trkpt lat="43.47721023113454" lon="11.043532774181973"><ele>240.33333333333334</ele><time>2026-05-04T10:34:06.001Z</time></trkpt><trkpt lat="43.47735486671498" lon="11.043778570528357"><ele>236.0</ele><time>2026-05-04T10:34:07.001Z</time></trkpt><trkpt lat="43.477516531805385" lon="11.044009768341972"><ele>238.5</ele><time>2026-05-04T10:34:08.001Z</time></trkpt><trkpt lat="43.477673955315964" lon="11.044240209239"><ele>241.0</ele><time>2026-05-04T10:34:09.001Z</time></trkpt><trkpt lat="43.47783993542523" lon="11.044466810474043"><ele>242.33333333333331</ele><time>2026-05-04T10:34:10.001Z</time></trkpt><trkpt lat="43.47800231234456" lon="11.044675839326537"><ele>243.66666666666669</ele><time>2026-05-04T10:34:11.001Z</time></trkpt><trkpt lat="43.47816239707204" lon="11.044845536296886"><ele>245.0</ele><time>2026-05-04T10:34:12.001Z</time></trkpt><trkpt lat="43.47831297222978" lon="11.044979037086035"><ele>245.0</ele><time>2026-05-04T10:34:13.001Z</time></trkpt><trkpt lat="43.47845808396742" lon="11.045097270700198"><ele>245.0</ele><time>2026-05-04T10:34:14.001Z</time></trkpt><trkpt lat="43.478591825005985" lon="11.045195215020946"><ele>245.0</ele><time>2026-05-04T10:34:15.001Z</time></trkpt><trkpt lat="43.47871023290691" lon="11.045284320046607"><ele>245.6</ele><time>2026-05-04T10:34:16.001Z</time></trkpt><trkpt lat="43.47880489512232" lon="11.045382146674228"><ele>246.2</ele><time>2026-05-04T10:34:17.001Z</time></trkpt><trkpt lat="43.47887430300747" lon="11.04550124358426"><ele>246.8</ele><time>2026-05-04T10:34:18.001Z</time></trkpt><trkpt lat="43.4789305601255" lon="11.045622643747869"><ele>247.4</ele><time>2026-05-04T10:34:19.001Z</time></trkpt><trkpt lat="43.47900046005848" lon="11.045739925870121"><ele>248.0</ele><time>2026-05-04T10:34:20.001Z</time></trkpt><trkpt lat="43.47908919032541" lon="11.045847384646446"><ele>249.25</ele><time>2026-05-04T10:34:21.001Z</time></trkpt><trkpt lat="43.47919176695189" lon="11.04595077593163"><ele>250.5</ele><time>2026-05-04T10:34:22.001Z</time></trkpt><trkpt lat="43.479297907889965" lon="11.046059195919154"><ele>251.75</ele><time>2026-05-04T10:34:23.001Z</time></trkpt><trkpt lat="43.4794077037042" lon="11.046174623211268"><ele>253.0</ele><time>2026-05-04T10:34:24.001Z</time></trkpt><trkpt lat="43.479497814404226" lon="11.04631039015714"><ele>253.0</ele><time>2026-05-04T10:34:25.001Z</time></trkpt><trkpt lat="43.47957729576556" lon="11.046425675617506"><ele>253.0</ele><time>2026-05-04T10:34:26.001Z</time></trkpt><trkpt lat="43.47965122832399" lon="11.046513970137767"><ele>253.0</ele><time>2026-05-04T10:34:27.001Z</time></trkpt><trkpt lat="43.47971538024751" lon="11.046607556020222"><ele>253.0</ele><time>2026-05-04T10:34:28.001Z</time></trkpt><trkpt lat="43.479788627443746" lon="11.046680490102263"><ele>253.0</ele><time>2026-05-04T10:34:29.001Z</time></trkpt><trkpt lat="43.47985418299657" lon="11.046747550348856"><ele>250.8</ele><time>2026-05-04T10:34:30.001Z</time></trkpt><trkpt lat="43.479905248614465" lon="11.046827709620622"><ele>248.60000000000002</ele><time>2026-05-04T10:34:31.001Z</time></trkpt><trkpt lat="43.47995423213984" lon="11.04694962717589"><ele>246.39999999999998</ele><time>2026-05-04T10:34:32.001Z</time></trkpt><trkpt lat="43.48000533168547" lon="11.047084345502437"><ele>244.2</ele><time>2026-05-04T10:34:33.001Z</time></trkpt><trkpt lat="43.48006954339476" lon="11.047242419663842"><ele>242.0</ele><time>2026-05-04T10:34:34.001Z</time></trkpt><trkpt lat="43.4801301599449" lon="11.04740480826135"><ele>241.0</ele><time>2026-05-04T10:34:35.001Z</time></trkpt><trkpt lat="43.480190743689654" lon="11.047557903152255"><ele>240.0</ele><time>2026-05-04T10:34:36.001Z</time></trkpt><trkpt lat="43.48024744413492" lon="11.047715091601491"><ele>239.0</ele><time>2026-05-04T10:34:37.001Z</time></trkpt><trkpt lat="43.48030591851326" lon="11.0478835403949"><ele>238.0</ele><time>2026-05-04T10:34:38.001Z</time></trkpt><trkpt lat="43.480354559916734" lon="11.048048183853243"><ele>238.0</ele><time>2026-05-04T10:34:39.001Z</time></trkpt><trkpt lat="43.48041661308705" lon="11.048203415212583"><ele>238.0</ele><time>2026-05-04T10:34:40.001Z</time></trkpt><trkpt lat="43.48048754323066" lon="11.048351519977288"><ele>238.0</ele><time>2026-05-04T10:34:41.001Z</time></trkpt><trkpt lat="43.48056273166141" lon="11.048491260134785"><ele>238.0</ele><time>2026-05-04T10:34:42.001Z</time></trkpt><trkpt lat="43.480644036717585" lon="11.048618966131512"><ele>234.16666666666666</ele><time>2026-05-04T10:34:43.001Z</time></trkpt><trkpt lat="43.480721285511294" lon="11.04873746624884"><ele>230.33333333333331</ele><time>2026-05-04T10:34:44.001Z</time></trkpt><trkpt lat="43.480787056847504" lon="11.048836605691898"><ele>226.5</ele><time>2026-05-04T10:34:45.001Z</time></trkpt><trkpt lat="43.48083966458534" lon="11.04891689038722"><ele>222.66666666666669</ele><time>2026-05-04T10:34:46.001Z</time></trkpt><trkpt lat="43.48088375118763" lon="11.048986863664918"><ele>218.83333333333334</ele><time>2026-05-04T10:34:47.001Z</time></trkpt><trkpt lat="43.48092705892424" lon="11.049058034223297"><ele>215.0</ele><time>2026-05-04T10:34:48.001Z</time></trkpt><trkpt lat="43.480967903868944" lon="11.04914520377488"><ele>214.83333333333334</ele><time>2026-05-04T10:34:49.001Z</time></trkpt><trkpt lat="43.48101121957188" lon="11.049226199117024"><ele>214.66666666666669</ele><time>2026-05-04T10:34:50.001Z</time></trkpt><trkpt lat="43.48106499300164" lon="11.049325992260872"><ele>214.5</ele><time>2026-05-04T10:34:51.001Z</time></trkpt><trkpt lat="43.481116615446155" lon="11.049410666335037"><ele>214.33333333333331</ele><time>2026-05-04T10:34:52.001Z</time></trkpt><trkpt lat="43.48117237637386" lon="11.049503762002715"><ele>214.16666666666666</ele><time>2026-05-04T10:34:53.001Z</time></trkpt><trkpt lat="43.48123089229445" lon="11.049604442796248"><ele>214.0</ele><time>2026-05-04T10:34:54.001Z</time></trkpt><trkpt lat="43.481286461257206" lon="11.049694873778094"><ele>214.0</ele><time>2026-05-04T10:34:55.001Z</time></trkpt><trkpt lat="43.481351633590236" lon="11.049797054730242"><ele>213.99999999999997</ele><time>2026-05-04T10:34:56.001Z</time></trkpt><trkpt lat="43.48140898469758" lon="11.049908601405187"><ele>213.99999999999997</ele><time>2026-05-04T10:34:57.001Z</time></trkpt><trkpt lat="43.48145119684158" lon="11.050025466265234"><ele>214.0</ele><time>2026-05-04T10:34:58.001Z</time></trkpt><trkpt lat="43.48149674281275" lon="11.050164210856519"><ele>214.0</ele><time>2026-05-04T10:34:59.001Z</time></trkpt><trkpt lat="43.481549990657946" lon="11.050320315015675"><ele>212.39999999999998</ele><time>2026-05-04T10:35:00.001Z</time></trkpt><trkpt lat="43.48160235196324" lon="11.050463669796914"><ele>210.79999999999998</ele><time>2026-05-04T10:35:01.001Z</time></trkpt><trkpt lat="43.481656782605036" lon="11.050592501250907"><ele>209.2</ele><time>2026-05-04T10:35:02.001Z</time></trkpt><trkpt lat="43.48171208047696" lon="11.050708214934971"><ele>207.60000000000002</ele><time>2026-05-04T10:35:03.001Z</time></trkpt><trkpt lat="43.48177929230015" lon="11.050837833296896"><ele>206.0</ele><time>2026-05-04T10:35:04.001Z</time></trkpt><trkpt lat="43.48185058435638" lon="11.050971464099097"><ele>203.0</ele><time>2026-05-04T10:35:05.001Z</time></trkpt><trkpt lat="43.48192024460533" lon="11.05111121123808"><ele>200.0</ele><time>2026-05-04T10:35:06.001Z</time></trkpt><trkpt lat="43.48198774336638" lon="11.051247453084828"><ele>197.0</ele><time>2026-05-04T10:35:07.001Z</time></trkpt><trkpt lat="43.482053309534116" lon="11.05138719372146"><ele>194.0</ele><time>2026-05-04T10:35:08.001Z</time></trkpt><trkpt lat="43.4821045552616" lon="11.05152069876106"><ele>190.0</ele><time>2026-05-04T10:35:09.001Z</time></trkpt><trkpt lat="43.48214695931859" lon="11.051663978626301"><ele>186.0</ele><time>2026-05-04T10:35:10.001Z</time></trkpt><trkpt lat="43.482180715015325" lon="11.051830690158221"><ele>182.0</ele><time>2026-05-04T10:35:11.001Z</time></trkpt><trkpt lat="43.48221075591657" lon="11.052002673085155"><ele>178.0</ele><time>2026-05-04T10:35:12.001Z</time></trkpt><trkpt lat="43.48223737961696" lon="11.052167753013563"><ele>178.0</ele><time>2026-05-04T10:35:13.001Z</time></trkpt><trkpt lat="43.48225939543009" lon="11.052331814325253"><ele>178.0</ele><time>2026-05-04T10:35:14.001Z</time></trkpt><trkpt lat="43.48229147770553" lon="11.052486212920002"><ele>178.0</ele><time>2026-05-04T10:35:15.001Z</time></trkpt><trkpt lat="43.48232093725358" lon="11.052643216780757"><ele>178.0</ele><time>2026-05-04T10:35:16.001Z</time></trkpt><trkpt lat="43.482349942174615" lon="11.052801755699049"><ele>175.5</ele><time>2026-05-04T10:35:17.001Z</time></trkpt><trkpt lat="43.482378724705406" lon="11.052964324741243"><ele>173.0</ele><time>2026-05-04T10:35:18.001Z</time></trkpt><trkpt lat="43.4824060791326" lon="11.053120723163696"><ele>170.5</ele><time>2026-05-04T10:35:19.001Z</time></trkpt><trkpt lat="43.4824397526722" lon="11.053280373131717"><ele>168.0</ele><time>2026-05-04T10:35:20.001Z</time></trkpt><trkpt lat="43.4824781789288" lon="11.053441283755207"><ele>166.5</ele><time>2026-05-04T10:35:21.001Z</time></trkpt><trkpt lat="43.48251801652864" lon="11.053597048184823"><ele>165.0</ele><time>2026-05-04T10:35:22.001Z</time></trkpt><trkpt lat="43.48256036044459" lon="11.053755341753266"><ele>163.5</ele><time>2026-05-04T10:35:23.001Z</time></trkpt><trkpt lat="43.482617323948006" lon="11.053899092136048"><ele>162.0</ele><time>2026-05-04T10:35:24.001Z</time></trkpt><trkpt lat="43.4826729393208" lon="11.054034546923376"><ele>160.79999999999998</ele><time>2026-05-04T10:35:25.001Z</time></trkpt><trkpt lat="43.482724814828025" lon="11.054159737247534"><ele>159.6</ele><time>2026-05-04T10:35:26.001Z</time></trkpt><trkpt lat="43.482780925922825" lon="11.054280458587437"><ele>158.39999999999998</ele><time>2026-05-04T10:35:27.001Z</time></trkpt><trkpt lat="43.482854077216714" lon="11.054391471184823"><ele>157.2</ele><time>2026-05-04T10:35:28.001Z</time></trkpt><trkpt lat="43.48294579506769" lon="11.054494130588294"><ele>156.0</ele><time>2026-05-04T10:35:29.001Z</time></trkpt><trkpt lat="43.48304751627298" lon="11.05458775460913"><ele>154.25</ele><time>2026-05-04T10:35:30.001Z</time></trkpt><trkpt lat="43.48315007119229" lon="11.054679493156918"><ele>152.5</ele><time>2026-05-04T10:35:31.001Z</time></trkpt><trkpt lat="43.48325025693912" lon="11.054775606783537"><ele>150.75</ele><time>2026-05-04T10:35:32.001Z</time></trkpt><trkpt lat="43.48334335826013" lon="11.05486776376587"><ele>149.0</ele><time>2026-05-04T10:35:33.001Z</time></trkpt><trkpt lat="43.48343788245563" lon="11.054959231423211"><ele>147.8</ele><time>2026-05-04T10:35:34.001Z</time></trkpt><trkpt lat="43.483529438573086" lon="11.055046422192754"><ele>146.60000000000002</ele><time>2026-05-04T10:35:35.001Z</time></trkpt><trkpt lat="43.48362368035284" lon="11.055130119231896"><ele>145.4</ele><time>2026-05-04T10:35:36.001Z</time></trkpt><trkpt lat="43.48372717108439" lon="11.05522061893667"><ele>144.20000000000002</ele><time>2026-05-04T10:35:37Z</time></trkpt><trkpt lat="43.48381133487978" lon="11.055297112862918"><ele>143.0</ele><time>2026-05-04T10:35:38Z</time></trkpt><trkpt lat="43.48388211950601" lon="11.055358527641692"><ele>141.33333333333331</ele><time>2026-05-04T10:35:39Z</time></trkpt><trkpt lat="43.483949084700505" lon="11.05541451995074"><ele>139.66666666666666</ele><time>2026-05-04T10:35:40Z</time></trkpt><trkpt lat="43.48401158161089" lon="11.055465556912992"><ele>138.0</ele><time>2026-05-04T10:35:41Z</time></trkpt><trkpt lat="43.484059382352285" lon="11.055543837888388"><ele>136.33333333333334</ele><time>2026-05-04T10:35:43Z</time></trkpt><trkpt lat="43.4840291682733" lon="11.055661984499698"><ele>134.66666666666669</ele><time>2026-05-04T10:35:47Z</time></trkpt><trkpt lat="43.48398039956133" lon="11.05581768239386"><ele>133.0</ele><time>2026-05-04T10:35:49Z</time></trkpt><trkpt lat="43.483961920970444" lon="11.055926497638103"><ele>132.16666666666669</ele><time>2026-05-04T10:35:50Z</time></trkpt><trkpt lat="43.483929149989876" lon="11.05602536419386"><ele>131.33333333333334</ele><time>2026-05-04T10:35:51Z</time></trkpt><trkpt lat="43.483907506860795" lon="11.056133994060552"><ele>130.5</ele><time>2026-05-04T10:35:52.001Z</time></trkpt><trkpt lat="43.48389430854993" lon="11.05622189558802"><ele>129.66666666666666</ele><time>2026-05-04T10:35:53.001Z</time></trkpt><trkpt lat="43.48395727552574" lon="11.056294960017256"><ele>128.83333333333331</ele><time>2026-05-04T10:35:54.001Z</time></trkpt><trkpt lat="43.48406635396231" lon="11.056334263397535"><ele>128.0</ele><time>2026-05-04T10:35:56.001Z</time></trkpt><trkpt lat="43.48413404266542" lon="11.056314810058602"><ele>128.0</ele><time>2026-05-04T10:35:57.001Z</time></trkpt><trkpt lat="43.484213774425086" lon="11.056255836527479"><ele>128.0</ele><time>2026-05-04T10:35:58.001Z</time></trkpt><trkpt lat="43.4842941090904" lon="11.056168294212329"><ele>128.0</ele><time>2026-05-04T10:35:59.001Z</time></trkpt><trkpt lat="43.48437452563221" lon="11.056078717421455"><ele>128.0</ele><time>2026-05-04T10:36:00.001Z</time></trkpt><trkpt lat="43.48445483896224" lon="11.056034814832842"><ele>128.0</ele><time>2026-05-04T10:36:01.001Z</time></trkpt><trkpt lat="43.48455087779079" lon="11.056033453168308"><ele>128.20000000000002</ele><time>2026-05-04T10:36:02.001Z</time></trkpt><trkpt lat="43.484620533138546" lon="11.056061978535002"><ele>128.4</ele><time>2026-05-04T10:36:03.001Z</time></trkpt><trkpt lat="43.48467503301149" lon="11.056146167104654"><ele>128.60000000000002</ele><time>2026-05-04T10:36:04.001Z</time></trkpt><trkpt lat="43.4847302829289" lon="11.05624514064317"><ele>128.8</ele><time>2026-05-04T10:36:05.001Z</time></trkpt><trkpt lat="43.48481827389363" lon="11.056368411969604"><ele>129.0</ele><time>2026-05-04T10:36:06.001Z</time></trkpt><trkpt lat="43.48488536952297" lon="11.056490676767625"><ele>129.0</ele><time>2026-05-04T10:36:07.001Z</time></trkpt><trkpt lat="43.48494017170586" lon="11.05657445687058"><ele>129.0</ele><time>2026-05-04T10:36:08.001Z</time></trkpt><trkpt lat="43.4849984663824" lon="11.056627604102522"><ele>129.0</ele><time>2026-05-04T10:36:09.001Z</time></trkpt><trkpt lat="43.48513491334265" lon="11.056624995825809"><ele>129.0</ele><time>2026-05-04T10:36:11.001Z</time></trkpt><trkpt lat="43.485208441828874" lon="11.056557707620842"><ele>129.0</ele><time>2026-05-04T10:36:12.001Z</time></trkpt><trkpt lat="43.4852840191872" lon="11.056493532627577"><ele>129.0</ele><time>2026-05-04T10:36:13.001Z</time></trkpt><trkpt lat="43.48535875723465" lon="11.05653203619912"><ele>129.0</ele><time>2026-05-04T10:36:14.001Z</time></trkpt><trkpt lat="43.4854333250065" lon="11.056619591682416"><ele>129.0</ele><time>2026-05-04T10:36:15.001Z</time></trkpt><trkpt lat="43.485514900831674" lon="11.056738685051918"><ele>129.0</ele><time>2026-05-04T10:36:16.001Z</time></trkpt><trkpt lat="43.48561662085891" lon="11.05683349831214"><ele>129.0</ele><time>2026-05-04T10:36:17.001Z</time></trkpt><trkpt lat="43.48573449396443" lon="11.056953079644678"><ele>131.33333333333334</ele><time>2026-05-04T10:36:18.001Z</time></trkpt><trkpt lat="43.48585628062556" lon="11.05712744840494"><ele>133.66666666666669</ele><time>2026-05-04T10:36:19.001Z</time></trkpt><trkpt lat="43.48599203017357" lon="11.057305644328492"><ele>136.0</ele><time>2026-05-04T10:36:20.001Z</time></trkpt><trkpt lat="43.486110734403866" lon="11.057514563237717"><ele>137.33333333333334</ele><time>2026-05-04T10:36:21.001Z</time></trkpt><trkpt lat="43.48623095538881" lon="11.05771935843303"><ele>138.66666666666666</ele><time>2026-05-04T10:36:22.001Z</time></trkpt><trkpt lat="43.48630021394431" lon="11.057936748028306"><ele>140.0</ele><time>2026-05-04T10:36:23.001Z</time></trkpt><trkpt lat="43.4863739315998" lon="11.058107255708084"><ele>140.0</ele><time>2026-05-04T10:36:24.001Z</time></trkpt><trkpt lat="43.4864747512263" lon="11.05823671169271"><ele>140.0</ele><time>2026-05-04T10:36:25.001Z</time></trkpt><trkpt lat="43.48655705066531" lon="11.058337152433714"><ele>140.0</ele><time>2026-05-04T10:36:26.001Z</time></trkpt><trkpt lat="43.4866329307665" lon="11.058412226829079"><ele>140.0</ele><time>2026-05-04T10:36:27.001Z</time></trkpt><trkpt lat="43.48670961718984" lon="11.058425185702815"><ele>140.0</ele><time>2026-05-04T10:36:28.001Z</time></trkpt><trkpt lat="43.486803151725915" lon="11.058408394187603"><ele>140.5</ele><time>2026-05-04T10:36:29.001Z</time></trkpt><trkpt lat="43.48693430872647" lon="11.05843392578093"><ele>141.0</ele><time>2026-05-04T10:36:30.001Z</time></trkpt><trkpt lat="43.487050447242396" lon="11.058475079324669"><ele>141.5</ele><time>2026-05-04T10:36:31.001Z</time></trkpt><trkpt lat="43.48716435939836" lon="11.058520710953328"><ele>142.0</ele><time>2026-05-04T10:36:32.001Z</time></trkpt><trkpt lat="43.48729201530481" lon="11.058550107501189"><ele>143.66666666666669</ele><time>2026-05-04T10:36:33.001Z</time></trkpt><trkpt lat="43.48743424329727" lon="11.05854572103835"><ele>145.33333333333334</ele><time>2026-05-04T10:36:34.001Z</time></trkpt><trkpt lat="43.487582336414825" lon="11.058515098456784"><ele>147.0</ele><time>2026-05-04T10:36:35.001Z</time></trkpt><trkpt lat="43.48773711281356" lon="11.058469032197662"><ele>147.0</ele><time>2026-05-04T10:36:36.001Z</time></trkpt><trkpt lat="43.48789528176581" lon="11.05841468691835"><ele>147.0</ele><time>2026-05-04T10:36:37.001Z</time></trkpt><trkpt lat="43.48805713094542" lon="11.05835683536087"><ele>147.0</ele><time>2026-05-04T10:36:38.001Z</time></trkpt><trkpt lat="43.48818627786976" lon="11.058305788790362"><ele>148.83333333333334</ele><time>2026-05-04T10:36:39.001Z</time></trkpt><trkpt lat="43.48826653041171" lon="11.058338102252682"><ele>150.66666666666666</ele><time>2026-05-04T10:36:40.001Z</time></trkpt><trkpt lat="43.48832597707115" lon="11.058388312282915"><ele>152.5</ele><time>2026-05-04T10:36:41.001Z</time></trkpt><trkpt lat="43.48837679823189" lon="11.058479082252166"><ele>154.33333333333331</ele><time>2026-05-04T10:36:42.001Z</time></trkpt><trkpt lat="43.488432656545655" lon="11.058573010345313"><ele>156.16666666666666</ele><time>2026-05-04T10:36:43.001Z</time></trkpt><trkpt lat="43.4885006248717" lon="11.058686375320336"><ele>158.0</ele><time>2026-05-04T10:36:44.001Z</time></trkpt><trkpt lat="43.48855412281604" lon="11.058849632297171"><ele>158.0</ele><time>2026-05-04T10:36:45.001Z</time></trkpt><trkpt lat="43.488596842301796" lon="11.059036650942286"><ele>158.0</ele><time>2026-05-04T10:36:46.001Z</time></trkpt><trkpt lat="43.48864013246514" lon="11.059229590234208"><ele>158.0</ele><time>2026-05-04T10:36:47.001Z</time></trkpt><trkpt lat="43.488685628828385" lon="11.059434806782866"><ele>158.0</ele><time>2026-05-04T10:36:48.001Z</time></trkpt><trkpt lat="43.488732921278164" lon="11.059652835269494"><ele>162.33333333333331</ele><time>2026-05-04T10:36:49.001Z</time></trkpt><trkpt lat="43.48879459766752" lon="11.059871763041977"><ele>166.66666666666666</ele><time>2026-05-04T10:36:50.001Z</time></trkpt><trkpt lat="43.488844397834086" lon="11.060114808877664"><ele>171.0</ele><time>2026-05-04T10:36:51.001Z</time></trkpt><trkpt lat="43.48890484871697" lon="11.060359079010956"><ele>172.33333333333334</ele><time>2026-05-04T10:36:52.001Z</time></trkpt><trkpt lat="43.48897056058033" lon="11.060594943990472"><ele>173.66666666666669</ele><time>2026-05-04T10:36:53.001Z</time></trkpt><trkpt lat="43.48902615376548" lon="11.060789243846921"><ele>175.0</ele><time>2026-05-04T10:36:54.001Z</time></trkpt><trkpt lat="43.48907841418944" lon="11.060975673106741"><ele>175.0</ele><time>2026-05-04T10:36:55.001Z</time></trkpt><trkpt lat="43.489117182682804" lon="11.061138089365555"><ele>175.0</ele><time>2026-05-04T10:36:56.001Z</time></trkpt><trkpt lat="43.48914514853382" lon="11.061286148135528"><ele>175.0</ele><time>2026-05-04T10:36:57.001Z</time></trkpt><trkpt lat="43.48916251475362" lon="11.061398917496037"><ele>175.0</ele><time>2026-05-04T10:36:58.001Z</time></trkpt><trkpt lat="43.48917673782548" lon="11.061501407292695"><ele>175.0</ele><time>2026-05-04T10:36:59.001Z</time></trkpt><trkpt lat="43.48916172285941" lon="11.06164417644294"><ele>175.0</ele><time>2026-05-04T10:37:00.001Z</time></trkpt><trkpt lat="43.4891881681273" lon="11.061831450086826"><ele>175.0</ele><time>2026-05-04T10:37:01.001Z</time></trkpt><trkpt lat="43.489235932642536" lon="11.062045660498894"><ele>175.0</ele><time>2026-05-04T10:37:02.001Z</time></trkpt><trkpt lat="43.489267034496" lon="11.062286159292384"><ele>175.66666666666669</ele><time>2026-05-04T10:37:03.001Z</time></trkpt><trkpt lat="43.48930608645706" lon="11.062541108212752"><ele>176.33333333333334</ele><time>2026-05-04T10:37:04.001Z</time></trkpt><trkpt lat="43.489322265270914" lon="11.062816176011378"><ele>177.0</ele><time>2026-05-04T10:37:05.001Z</time></trkpt><trkpt lat="43.48935234607693" lon="11.063107891747343"><ele>177.66666666666666</ele><time>2026-05-04T10:37:06.001Z</time></trkpt><trkpt lat="43.489382016550046" lon="11.063410876913167"><ele>178.33333333333331</ele><time>2026-05-04T10:37:07.001Z</time></trkpt><trkpt lat="43.48942453158035" lon="11.06370800486869"><ele>179.0</ele><time>2026-05-04T10:37:08.001Z</time></trkpt><trkpt lat="43.48945005699718" lon="11.063985266301176"><ele>179.0</ele><time>2026-05-04T10:37:09.001Z</time></trkpt><trkpt lat="43.48947696373398" lon="11.064236830412641"><ele>179.0</ele><time>2026-05-04T10:37:10.001Z</time></trkpt><trkpt lat="43.48948527364077" lon="11.064455432219097"><ele>179.0</ele><time>2026-05-04T10:37:11.001Z</time></trkpt><trkpt lat="43.48950380436068" lon="11.064635188432014"><ele>179.0</ele><time>2026-05-04T10:37:12.001Z</time></trkpt><trkpt lat="43.489526740905916" lon="11.064770156082368"><ele>179.0</ele><time>2026-05-04T10:37:13.001Z</time></trkpt><trkpt lat="43.4895116356319" lon="11.064875090179415"><ele>179.0</ele><time>2026-05-04T10:37:14.001Z</time></trkpt><trkpt lat="43.48949206157957" lon="11.064965076814085"><ele>179.0</ele><time>2026-05-04T10:37:16.001Z</time></trkpt><trkpt lat="43.48931653063359" lon="11.065015159311857"><ele>179.0</ele><time>2026-05-04T10:37:17.001Z</time></trkpt><trkpt lat="43.48921255030804" lon="11.065109604908297"><ele>180.2</ele><time>2026-05-04T10:37:18.001Z</time></trkpt><trkpt lat="43.48911267395007" lon="11.06520104125944"><ele>181.39999999999998</ele><time>2026-05-04T10:37:19.001Z</time></trkpt><trkpt lat="43.489019382879285" lon="11.065270652757992"><ele>182.6</ele><time>2026-05-04T10:37:20.001Z</time></trkpt><trkpt lat="43.488919879849185" lon="11.065282261034556"><ele>183.8</ele><time>2026-05-04T10:37:21.001Z</time></trkpt><trkpt lat="43.48880212713632" lon="11.065268771921298"><ele>185.0</ele><time>2026-05-04T10:37:22.001Z</time></trkpt><trkpt lat="43.48864473322282" lon="11.06526254598802"><ele>185.0</ele><time>2026-05-04T10:37:23.001Z</time></trkpt><trkpt lat="43.488480146792426" lon="11.065248319883894"><ele>185.0</ele><time>2026-05-04T10:37:24.001Z</time></trkpt><trkpt lat="43.48833755012999" lon="11.065210040623839"><ele>185.0</ele><time>2026-05-04T10:37:25.001Z</time></trkpt><trkpt lat="43.488209306281945" lon="11.065165123906366"><ele>185.0</ele><time>2026-05-04T10:37:26.001Z</time></trkpt><trkpt lat="43.48809212670789" lon="11.065133657355505"><ele>185.0</ele><time>2026-05-04T10:37:27.001Z</time></trkpt><trkpt lat="43.487972400124484" lon="11.065123645309512"><ele>185.0</ele><time>2026-05-04T10:37:28.001Z</time></trkpt><trkpt lat="43.48784938453043" lon="11.065122231400757"><ele>185.0</ele><time>2026-05-04T10:37:29.001Z</time></trkpt><trkpt lat="43.48773704863662" lon="11.065135231529345"><ele>185.0</ele><time>2026-05-04T10:37:30.001Z</time></trkpt><trkpt lat="43.48765085795491" lon="11.065151533300444"><ele>185.0</ele><time>2026-05-04T10:37:31.001Z</time></trkpt><trkpt lat="43.487589435626035" lon="11.065190224111142"><ele>186.6</ele><time>2026-05-04T10:37:32.001Z</time></trkpt><trkpt lat="43.48748865825706" lon="11.065293197553586"><ele>188.2</ele><time>2026-05-04T10:37:34.001Z</time></trkpt><trkpt lat="43.48743139260715" lon="11.065384289683127"><ele>189.8</ele><time>2026-05-04T10:37:35.001Z</time></trkpt><trkpt lat="43.487389805276166" lon="11.065511234037734"><ele>191.4</ele><time>2026-05-04T10:37:36.001Z</time></trkpt><trkpt lat="43.48736550376679" lon="11.065670441500806"><ele>193.0</ele><time>2026-05-04T10:37:37.001Z</time></trkpt><trkpt lat="43.48730473880791" lon="11.065801122994493"><ele>193.0</ele><time>2026-05-04T10:37:38.001Z</time></trkpt><trkpt lat="43.487265239258164" lon="11.065934547446545"><ele>193.0</ele><time>2026-05-04T10:37:39.001Z</time></trkpt><trkpt lat="43.48723273469621" lon="11.06607011691565"><ele>193.0</ele><time>2026-05-04T10:37:40.001Z</time></trkpt><trkpt lat="43.48722624293386" lon="11.066201397883653"><ele>193.0</ele><time>2026-05-04T10:37:41.001Z</time></trkpt><trkpt lat="43.48721353788198" lon="11.066345156165283"><ele>193.0</ele><time>2026-05-04T10:37:42.001Z</time></trkpt><trkpt lat="43.48721589024417" lon="11.06649490941408"><ele>191.25</ele><time>2026-05-04T10:37:43.001Z</time></trkpt><trkpt lat="43.48720297488474" lon="11.066657363855626"><ele>189.5</ele><time>2026-05-04T10:37:44.001Z</time></trkpt><trkpt lat="43.48720580310468" lon="11.066827162106222"><ele>187.75</ele><time>2026-05-04T10:37:45.001Z</time></trkpt><trkpt lat="43.48721331768813" lon="11.066993307716462"><ele>186.0</ele><time>2026-05-04T10:37:46.001Z</time></trkpt><trkpt lat="43.48722883162753" lon="11.067152971734892"><ele>186.0</ele><time>2026-05-04T10:37:47.001Z</time></trkpt><trkpt lat="43.48727074152629" lon="11.067303720257566"><ele>186.0</ele><time>2026-05-04T10:37:48.001Z</time></trkpt><trkpt lat="43.487292223838374" lon="11.067444217897103"><ele>186.0</ele><time>2026-05-04T10:37:49.001Z</time></trkpt><trkpt lat="43.487311147825125" lon="11.067585595735414"><ele>186.0</ele><time>2026-05-04T10:37:50.001Z</time></trkpt><trkpt lat="43.48732710496306" lon="11.067738067530847"><ele>186.0</ele><time>2026-05-04T10:37:51.001Z</time></trkpt><trkpt lat="43.48734643595589" lon="11.067887884493642"><ele>184.8</ele><time>2026-05-04T10:37:52.001Z</time></trkpt><trkpt lat="43.48735924745657" lon="11.068034004843263"><ele>183.60000000000002</ele><time>2026-05-04T10:37:53.001Z</time></trkpt><trkpt lat="43.48737108776734" lon="11.068175222843857"><ele>182.4</ele><time>2026-05-04T10:37:54.001Z</time></trkpt><trkpt lat="43.487381663980564" lon="11.068306962955605"><ele>181.2</ele><time>2026-05-04T10:37:55.001Z</time></trkpt><trkpt lat="43.487397850991954" lon="11.068427320083787"><ele>180.0</ele><time>2026-05-04T10:37:56.001Z</time></trkpt><trkpt lat="43.48742679436915" lon="11.068540757788188"><ele>179.8</ele><time>2026-05-04T10:37:57.001Z</time></trkpt><trkpt lat="43.48746287166342" lon="11.068657349904363"><ele>179.6</ele><time>2026-05-04T10:37:58.001Z</time></trkpt><trkpt lat="43.487493380617195" lon="11.068781907528496"><ele>179.39999999999998</ele><time>2026-05-04T10:37:59.001Z</time></trkpt><trkpt lat="43.48747960206771" lon="11.068921476479177"><ele>179.2</ele><time>2026-05-04T10:38:00.001Z</time></trkpt><trkpt lat="43.48746626841925" lon="11.06906252908845"><ele>179.0</ele><time>2026-05-04T10:38:01.001Z</time></trkpt><trkpt lat="43.48745277315082" lon="11.069176815395272"><ele>177.79999999999998</ele><time>2026-05-04T10:38:02.001Z</time></trkpt><trkpt lat="43.48742901339846" lon="11.069270007270692"><ele>176.6</ele><time>2026-05-04T10:38:03.001Z</time></trkpt><trkpt lat="43.48739007623107" lon="11.069347448722903"><ele>175.4</ele><time>2026-05-04T10:38:04.001Z</time></trkpt><trkpt lat="43.48729165921268" lon="11.069423191498082"><ele>174.2</ele><time>2026-05-04T10:38:06.001Z</time></trkpt><trkpt lat="43.48720586228485" lon="11.069361565998621"><ele>173.0</ele><time>2026-05-04T10:38:07.001Z</time></trkpt><trkpt lat="43.48707734482775" lon="11.069336322007585"><ele>171.8</ele><time>2026-05-04T10:38:08.001Z</time></trkpt><trkpt lat="43.48694106102923" lon="11.069324431298725"><ele>170.60000000000002</ele><time>2026-05-04T10:38:09.001Z</time></trkpt><trkpt lat="43.486839882112385" lon="11.069348990025933"><ele>169.39999999999998</ele><time>2026-05-04T10:38:10.001Z</time></trkpt><trkpt lat="43.48676008167492" lon="11.069359358084943"><ele>168.2</ele><time>2026-05-04T10:38:11.001Z</time></trkpt><trkpt lat="43.486686138972054" lon="11.069414750527361"><ele>167.0</ele><time>2026-05-04T10:38:12.001Z</time></trkpt><trkpt lat="43.48661447519363" lon="11.06951615750372"><ele>167.0</ele><time>2026-05-04T10:38:13.001Z</time></trkpt><trkpt lat="43.4865281665781" lon="11.069654816505953"><ele>167.0</ele><time>2026-05-04T10:38:14.001Z</time></trkpt><trkpt lat="43.486431489116825" lon="11.069802444150326"><ele>167.0</ele><time>2026-05-04T10:38:15.001Z</time></trkpt><trkpt lat="43.486330180859255" lon="11.06996907198413"><ele>167.0</ele><time>2026-05-04T10:38:16.001Z</time></trkpt><trkpt lat="43.48622563612937" lon="11.070144833957878"><ele>164.66666666666666</ele><time>2026-05-04T10:38:17.001Z</time></trkpt><trkpt lat="43.486102186792394" lon="11.070307803859949"><ele>162.33333333333334</ele><time>2026-05-04T10:38:18.001Z</time></trkpt><trkpt lat="43.486012339811396" lon="11.070480799993803"><ele>160.0</ele><time>2026-05-04T10:38:19.001Z</time></trkpt><trkpt lat="43.48591136766095" lon="11.070628361855281"><ele>160.0</ele><time>2026-05-04T10:38:20.001Z</time></trkpt><trkpt lat="43.485836882031535" lon="11.070772063444593"><ele>160.0</ele><time>2026-05-04T10:38:21.001Z</time></trkpt><trkpt lat="43.48578772688677" lon="11.070908223370324"><ele>160.0</ele><time>2026-05-04T10:38:22.001Z</time></trkpt><trkpt lat="43.485757616218756" lon="11.071043249149552"><ele>160.0</ele><time>2026-05-04T10:38:23.001Z</time></trkpt><trkpt lat="43.48575467581622" lon="11.071173615367252"><ele>160.0</ele><time>2026-05-04T10:38:24.001Z</time></trkpt><trkpt lat="43.48577415524866" lon="11.071318178411255"><ele>161.75</ele><time>2026-05-04T10:38:25.001Z</time></trkpt><trkpt lat="43.48580239481232" lon="11.071502576175158"><ele>163.5</ele><time>2026-05-04T10:38:26.001Z</time></trkpt><trkpt lat="43.48581441943229" lon="11.071678118799088"><ele>165.25</ele><time>2026-05-04T10:38:27.001Z</time></trkpt><trkpt lat="43.4857784013022" lon="11.071805824821299"><ele>167.0</ele><time>2026-05-04T10:38:28.001Z</time></trkpt><trkpt lat="43.48574522758881" lon="11.071917560709746"><ele>168.0</ele><time>2026-05-04T10:38:29.001Z</time></trkpt><trkpt lat="43.48568477197257" lon="11.07199540232986"><ele>169.0</ele><time>2026-05-04T10:38:30.001Z</time></trkpt><trkpt lat="43.48560774234049" lon="11.072056922813081"><ele>170.0</ele><time>2026-05-04T10:38:31.001Z</time></trkpt><trkpt lat="43.485490699073175" lon="11.072145207719979"><ele>171.0</ele><time>2026-05-04T10:38:32.001Z</time></trkpt><trkpt lat="43.48534929650602" lon="11.072299901473862"><ele>169.33333333333334</ele><time>2026-05-04T10:38:33.001Z</time></trkpt><trkpt lat="43.48517443798545" lon="11.072437323221026"><ele>167.66666666666669</ele><time>2026-05-04T10:38:34.001Z</time></trkpt><trkpt lat="43.48499514161136" lon="11.072553098627054"><ele>166.0</ele><time>2026-05-04T10:38:35.001Z</time></trkpt><trkpt lat="43.484822741369776" lon="11.072672787827326"><ele>166.0</ele><time>2026-05-04T10:38:36.001Z</time></trkpt><trkpt lat="43.48465580445686" lon="11.072792493244869"><ele>166.0</ele><time>2026-05-04T10:38:37.001Z</time></trkpt><trkpt lat="43.484480072113165" lon="11.072923731781124"><ele>166.0</ele><time>2026-05-04T10:38:38.001Z</time></trkpt><trkpt lat="43.48431616221261" lon="11.073045458358719"><ele>163.5</ele><time>2026-05-04T10:38:39.001Z</time></trkpt><trkpt lat="43.48416924059003" lon="11.073137985890732"><ele>161.0</ele><time>2026-05-04T10:38:40.001Z</time></trkpt><trkpt lat="43.48403331433072" lon="11.073174627385312"><ele>158.5</ele><time>2026-05-04T10:38:41.001Z</time></trkpt><trkpt lat="43.48390067938289" lon="11.073191196995303"><ele>156.0</ele><time>2026-05-04T10:38:42.001Z</time></trkpt><trkpt lat="43.483778780451686" lon="11.0731959761778"><ele>155.5</ele><time>2026-05-04T10:38:43.001Z</time></trkpt><trkpt lat="43.48366762359" lon="11.073221027786502"><ele>155.0</ele><time>2026-05-04T10:38:44.001Z</time></trkpt><trkpt lat="43.483555129741276" lon="11.073323237444095"><ele>154.5</ele><time>2026-05-04T10:38:45.001Z</time></trkpt><trkpt lat="43.48343852026397" lon="11.073432482831699"><ele>154.0</ele><time>2026-05-04T10:38:46.001Z</time></trkpt><trkpt lat="43.48332979659062" lon="11.07356697969775"><ele>156.25</ele><time>2026-05-04T10:38:47.001Z</time></trkpt><trkpt lat="43.48324306280693" lon="11.073692963266836"><ele>158.5</ele><time>2026-05-04T10:38:48.001Z</time></trkpt><trkpt lat="43.48318326571275" lon="11.073813794184707"><ele>160.75</ele><time>2026-05-04T10:38:49.001Z</time></trkpt><trkpt lat="43.48313323001622" lon="11.073940994432283"><ele>163.0</ele><time>2026-05-04T10:38:50.001Z</time></trkpt><trkpt lat="43.48315548481212" lon="11.074094626413105"><ele>164.0</ele><time>2026-05-04T10:38:51.001Z</time></trkpt><trkpt lat="43.483184191720596" lon="11.074261927587997"><ele>165.0</ele><time>2026-05-04T10:38:52.001Z</time></trkpt><trkpt lat="43.48321492772878" lon="11.074452203579263"><ele>166.0</ele><time>2026-05-04T10:38:53.001Z</time></trkpt><trkpt lat="43.483201383169884" lon="11.074638002922427"><ele>167.0</ele><time>2026-05-04T10:38:54.001Z</time></trkpt><trkpt lat="43.483165999500244" lon="11.074796818092164"><ele>166.75</ele><time>2026-05-04T10:38:55.001Z</time></trkpt><trkpt lat="43.483107548292246" lon="11.074962166765511"><ele>166.5</ele><time>2026-05-04T10:38:56.001Z</time></trkpt><trkpt lat="43.48303032675464" lon="11.075120871091203"><ele>166.25</ele><time>2026-05-04T10:38:57.001Z</time></trkpt><trkpt lat="43.48293894665507" lon="11.07526605436287"><ele>166.0</ele><time>2026-05-04T10:38:58.001Z</time></trkpt><trkpt lat="43.48284087601735" lon="11.075417050137213"><ele>166.75</ele><time>2026-05-04T10:38:59.001Z</time></trkpt><trkpt lat="43.48276218319869" lon="11.075563268142158"><ele>167.5</ele><time>2026-05-04T10:39:00.001Z</time></trkpt><trkpt lat="43.48270262982369" lon="11.075687934445076"><ele>168.25</ele><time>2026-05-04T10:39:01.001Z</time></trkpt><trkpt lat="43.48262005396552" lon="11.075875493283434"><ele>169.0</ele><time>2026-05-04T10:39:02.001Z</time></trkpt><trkpt lat="43.48250671321825" lon="11.076071820157058"><ele>169.0</ele><time>2026-05-04T10:39:03.001Z</time></trkpt><trkpt lat="43.48238299010087" lon="11.076264950546054"><ele>169.0</ele><time>2026-05-04T10:39:04.001Z</time></trkpt><trkpt lat="43.482300431124436" lon="11.076471219847447"><ele>169.0</ele><time>2026-05-04T10:39:05.001Z</time></trkpt><trkpt lat="43.48221097681699" lon="11.076680033454828"><ele>167.33333333333334</ele><time>2026-05-04T10:39:06.001Z</time></trkpt><trkpt lat="43.48212652132291" lon="11.076888362254278"><ele>165.66666666666666</ele><time>2026-05-04T10:39:07.001Z</time></trkpt><trkpt lat="43.48204438945706" lon="11.077069689637277"><ele>164.0</ele><time>2026-05-04T10:39:08.001Z</time></trkpt><trkpt lat="43.48196102598442" lon="11.077243550238979"><ele>165.33333333333331</ele><time>2026-05-04T10:39:09.001Z</time></trkpt><trkpt lat="43.48188270527957" lon="11.07742280287697"><ele>166.66666666666666</ele><time>2026-05-04T10:39:10.001Z</time></trkpt><trkpt lat="43.48178249237583" lon="11.077588295398419"><ele>168.0</ele><time>2026-05-04T10:39:11.001Z</time></trkpt><trkpt lat="43.481683101929136" lon="11.077763599633059"><ele>168.0</ele><time>2026-05-04T10:39:12.001Z</time></trkpt><trkpt lat="43.4815896332951" lon="11.07791925459606"><ele>168.0</ele><time>2026-05-04T10:39:13.001Z</time></trkpt><trkpt lat="43.481499255899195" lon="11.078053665692517"><ele>168.0</ele><time>2026-05-04T10:39:14.001Z</time></trkpt><trkpt lat="43.48139779134015" lon="11.078157534663404"><ele>168.0</ele><time>2026-05-04T10:39:15.001Z</time></trkpt><trkpt lat="43.48128582002247" lon="11.078275807432535"><ele>166.66666666666666</ele><time>2026-05-04T10:39:16.001Z</time></trkpt><trkpt lat="43.48115557984522" lon="11.07842867839749"><ele>165.33333333333331</ele><time>2026-05-04T10:39:17.001Z</time></trkpt><trkpt lat="43.481020388944906" lon="11.078606369941422"><ele>164.0</ele><time>2026-05-04T10:39:18.001Z</time></trkpt><trkpt lat="43.48087017405194" lon="11.078753309764986"><ele>164.0</ele><time>2026-05-04T10:39:19.001Z</time></trkpt><trkpt lat="43.48071148244592" lon="11.078881696440197"><ele>164.0</ele><time>2026-05-04T10:39:20.001Z</time></trkpt><trkpt lat="43.4805767455671" lon="11.079015508416436"><ele>164.0</ele><time>2026-05-04T10:39:21.001Z</time></trkpt><trkpt lat="43.48045017261589" lon="11.07914473514755"><ele>162.5</ele><time>2026-05-04T10:39:22.001Z</time></trkpt><trkpt lat="43.48033744643047" lon="11.079264462069037"><ele>161.0</ele><time>2026-05-04T10:39:23.001Z</time></trkpt><trkpt lat="43.48022726103606" lon="11.079391134093884"><ele>159.5</ele><time>2026-05-04T10:39:24.001Z</time></trkpt><trkpt lat="43.48011771574083" lon="11.079531600241218"><ele>158.0</ele><time>2026-05-04T10:39:25.001Z</time></trkpt><trkpt lat="43.48002802365243" lon="11.079692539077037"><ele>158.0</ele><time>2026-05-04T10:39:26.001Z</time></trkpt><trkpt lat="43.479966070342115" lon="11.079867966045834"><ele>158.0</ele><time>2026-05-04T10:39:27.001Z</time></trkpt><trkpt lat="43.479940150787094" lon="11.08005368639863"><ele>158.0</ele><time>2026-05-04T10:39:28.001Z</time></trkpt><trkpt lat="43.47989723980304" lon="11.080226322379442"><ele>158.0</ele><time>2026-05-04T10:39:29.001Z</time></trkpt><trkpt lat="43.47985622516803" lon="11.080362881354647"><ele>159.4</ele><time>2026-05-04T10:39:30.001Z</time></trkpt><trkpt lat="43.47980961144443" lon="11.08046710483539"><ele>160.8</ele><time>2026-05-04T10:39:31.001Z</time></trkpt><trkpt lat="43.4797475324905" lon="11.080542574866444"><ele>162.2</ele><time>2026-05-04T10:39:32.001Z</time></trkpt><trkpt lat="43.4796644259629" lon="11.080569432662069"><ele>163.6</ele><time>2026-05-04T10:39:33.001Z</time></trkpt><trkpt lat="43.47957211024062" lon="11.080584776597748"><ele>165.0</ele><time>2026-05-04T10:39:34.001Z</time></trkpt><trkpt lat="43.47945894492618" lon="11.08056866114372"><ele>166.0</ele><time>2026-05-04T10:39:35.001Z</time></trkpt><trkpt lat="43.47935962305005" lon="11.080528177759811"><ele>167.0</ele><time>2026-05-04T10:39:36.001Z</time></trkpt><trkpt lat="43.47924670673444" lon="11.080459597246035"><ele>168.0</ele><time>2026-05-04T10:39:37.001Z</time></trkpt><trkpt lat="43.47909590324398" lon="11.080372311075099"><ele>169.0</ele><time>2026-05-04T10:39:38.001Z</time></trkpt><trkpt lat="43.478938738905" lon="11.080260368359228"><ele>172.33333333333334</ele><time>2026-05-04T10:39:39.001Z</time></trkpt><trkpt lat="43.47876745992863" lon="11.08013964213072"><ele>175.66666666666666</ele><time>2026-05-04T10:39:40Z</time></trkpt><trkpt lat="43.478630281337765" lon="11.080043455828577"><ele>179.0</ele><time>2026-05-04T10:39:41.001Z</time></trkpt><trkpt lat="43.478516897275874" lon="11.079949211248845"><ele>179.39999999999998</ele><time>2026-05-04T10:39:42Z</time></trkpt><trkpt lat="43.478420725985885" lon="11.079897640697311"><ele>179.8</ele><time>2026-05-04T10:39:43Z</time></trkpt><trkpt lat="43.478338662700516" lon="11.079841927616986"><ele>180.2</ele><time>2026-05-04T10:39:44Z</time></trkpt><trkpt lat="43.478239684750655" lon="11.079819288672075"><ele>180.60000000000002</ele><time>2026-05-04T10:39:45Z</time></trkpt><trkpt lat="43.47812113203547" lon="11.07983471231655"><ele>181.0</ele><time>2026-05-04T10:39:46Z</time></trkpt><trkpt lat="43.47797472805616" lon="11.079868607627056"><ele>181.75</ele><time>2026-05-04T10:39:47Z</time></trkpt><trkpt lat="43.477807644114826" lon="11.079889587236991"><ele>182.5</ele><time>2026-05-04T10:39:48Z</time></trkpt><trkpt lat="43.47768692083556" lon="11.079959458751805"><ele>183.25</ele><time>2026-05-04T10:39:49Z</time></trkpt><trkpt lat="43.47757691508132" lon="11.08000885958687"><ele>184.0</ele><time>2026-05-04T10:39:50Z</time></trkpt><trkpt lat="43.477469194630025" lon="11.080044388145899"><ele>184.0</ele><time>2026-05-04T10:39:51Z</time></trkpt><trkpt lat="43.47737483693738" lon="11.08014543618982"><ele>184.0</ele><time>2026-05-04T10:39:52Z</time></trkpt><trkpt lat="43.47730483058714" lon="11.080277341621052"><ele>184.0</ele><time>2026-05-04T10:39:53Z</time></trkpt><trkpt lat="43.47722416668515" lon="11.080420198139457"><ele>184.0</ele><time>2026-05-04T10:39:54Z</time></trkpt><trkpt lat="43.47709887044322" lon="11.080584290040973"><ele>183.0</ele><time>2026-05-04T10:39:55Z</time></trkpt><trkpt lat="43.47696881855047" lon="11.080746589868426"><ele>182.0</ele><time>2026-05-04T10:39:56Z</time></trkpt><trkpt lat="43.47682448722597" lon="11.080892790395515"><ele>181.0</ele><time>2026-05-04T10:39:57Z</time></trkpt><trkpt lat="43.47670548121771" lon="11.081015391937344"><ele>183.75</ele><time>2026-05-04T10:39:58Z</time></trkpt><trkpt lat="43.476603355485075" lon="11.081138984445058"><ele>186.5</ele><time>2026-05-04T10:39:59Z</time></trkpt><trkpt lat="43.476516674510286" lon="11.081258078666819"><ele>189.25</ele><time>2026-05-04T10:40:00Z</time></trkpt><trkpt lat="43.47645066386082" lon="11.08137002222007"><ele>192.0</ele><time>2026-05-04T10:40:01Z</time></trkpt><trkpt lat="43.47641318623734" lon="11.081486525212334"><ele>191.25</ele><time>2026-05-04T10:40:02Z</time></trkpt><trkpt lat="43.476400133995504" lon="11.081629863467215"><ele>190.5</ele><time>2026-05-04T10:40:03Z</time></trkpt><trkpt lat="43.476380997348755" lon="11.081795284654133"><ele>189.75</ele><time>2026-05-04T10:40:04Z</time></trkpt><trkpt lat="43.476378147748854" lon="11.08199557175812"><ele>189.0</ele><time>2026-05-04T10:40:05Z</time></trkpt><trkpt lat="43.47637957080907" lon="11.08224177954854"><ele>189.5</ele><time>2026-05-04T10:40:06Z</time></trkpt><trkpt lat="43.47637978727329" lon="11.082465935589683"><ele>190.0</ele><time>2026-05-04T10:40:07Z</time></trkpt><trkpt lat="43.476372157540915" lon="11.082630174627358"><ele>190.5</ele><time>2026-05-04T10:40:08Z</time></trkpt><trkpt lat="43.47636074634425" lon="11.082774493298846"><ele>191.0</ele><time>2026-05-04T10:40:09Z</time></trkpt><trkpt lat="43.47634516130012" lon="11.082929477554062"><ele>191.0</ele><time>2026-05-04T10:40:10Z</time></trkpt><trkpt lat="43.47632429116994" lon="11.083105015832999"><ele>191.0</ele><time>2026-05-04T10:40:11Z</time></trkpt><trkpt lat="43.47630093153054" lon="11.083293849631227"><ele>191.0</ele><time>2026-05-04T10:40:12Z</time></trkpt><trkpt lat="43.47627513585883" lon="11.083487135749671"><ele>191.0</ele><time>2026-05-04T10:40:13Z</time></trkpt><trkpt lat="43.47625290546149" lon="11.083674860481898"><ele>186.75</ele><time>2026-05-04T10:40:14Z</time></trkpt><trkpt lat="43.476232634530525" lon="11.083854068414688"><ele>182.5</ele><time>2026-05-04T10:40:15Z</time></trkpt><trkpt lat="43.47621731130917" lon="11.084017846650656"><ele>178.25</ele><time>2026-05-04T10:40:16.001Z</time></trkpt><trkpt lat="43.47621701018018" lon="11.084200245346684"><ele>174.0</ele><time>2026-05-04T10:40:17.001Z</time></trkpt><trkpt lat="43.47622855214554" lon="11.084390671572265"><ele>173.25</ele><time>2026-05-04T10:40:18.001Z</time></trkpt><trkpt lat="43.476240819081546" lon="11.084583552854504"><ele>172.5</ele><time>2026-05-04T10:40:19.001Z</time></trkpt><trkpt lat="43.47623299887726" lon="11.084770406784664"><ele>171.75</ele><time>2026-05-04T10:40:20.001Z</time></trkpt><trkpt lat="43.47618447345155" lon="11.084922629848743"><ele>171.0</ele><time>2026-05-04T10:40:21.001Z</time></trkpt><trkpt lat="43.47616881031847" lon="11.08506434870835"><ele>170.8</ele><time>2026-05-04T10:40:22.001Z</time></trkpt><trkpt lat="43.476124160980575" lon="11.085191679741355"><ele>170.60000000000002</ele><time>2026-05-04T10:40:23.001Z</time></trkpt><trkpt lat="43.47607125462082" lon="11.085297286345233"><ele>170.4</ele><time>2026-05-04T10:40:24.001Z</time></trkpt><trkpt lat="43.47599563101116" lon="11.085396840186128"><ele>170.2</ele><time>2026-05-04T10:40:25.001Z</time></trkpt><trkpt lat="43.475877770397794" lon="11.085460478388057"><ele>170.0</ele><time>2026-05-04T10:40:26.001Z</time></trkpt><trkpt lat="43.47578837707976" lon="11.08558808330456"><ele>170.0</ele><time>2026-05-04T10:40:27.001Z</time></trkpt><trkpt lat="43.475684354800606" lon="11.085685942134978"><ele>170.0</ele><time>2026-05-04T10:40:28.001Z</time></trkpt><trkpt lat="43.475608587487976" lon="11.085837561258948"><ele>170.0</ele><time>2026-05-04T10:40:29.001Z</time></trkpt><trkpt lat="43.475553244804885" lon="11.085973926899015"><ele>170.0</ele><time>2026-05-04T10:40:30.001Z</time></trkpt><trkpt lat="43.47551265763463" lon="11.086080497717127"><ele>169.83333333333331</ele><time>2026-05-04T10:40:31.001Z</time></trkpt><trkpt lat="43.47547538593369" lon="11.086159992985653"><ele>169.66666666666666</ele><time>2026-05-04T10:40:32.001Z</time></trkpt><trkpt lat="43.475403028741745" lon="11.08629822964745"><ele>169.5</ele><time>2026-05-04T10:40:34.001Z</time></trkpt><trkpt lat="43.475337706156026" lon="11.086326831112316"><ele>169.33333333333334</ele><time>2026-05-04T10:40:35.001Z</time></trkpt><trkpt lat="43.4752684093351" lon="11.086281800926313"><ele>169.16666666666669</ele><time>2026-05-04T10:40:36.001Z</time></trkpt><trkpt lat="43.47518772665126" lon="11.086234993692178"><ele>169.0</ele><time>2026-05-04T10:40:37.001Z</time></trkpt><trkpt lat="43.47511528350127" lon="11.08609378590925"><ele>167.0</ele><time>2026-05-04T10:40:38.001Z</time></trkpt><trkpt lat="43.47502202407276" lon="11.086026353772326"><ele>165.0</ele><time>2026-05-04T10:40:39.001Z</time></trkpt><trkpt lat="43.47490987235722" lon="11.086019034503787"><ele>163.0</ele><time>2026-05-04T10:40:40.001Z</time></trkpt><trkpt lat="43.4747855315103" lon="11.086070001163222"><ele>161.0</ele><time>2026-05-04T10:40:41.001Z</time></trkpt><trkpt lat="43.47466070202214" lon="11.086125488948367"><ele>159.0</ele><time>2026-05-04T10:40:42.001Z</time></trkpt><trkpt lat="43.47450319082897" lon="11.086191074853225"><ele>157.0</ele><time>2026-05-04T10:40:43.001Z</time></trkpt><trkpt lat="43.47435416031622" lon="11.08628328700069"><ele>155.0</ele><time>2026-05-04T10:40:44.001Z</time></trkpt><trkpt lat="43.47422390705967" lon="11.08634206049854"><ele>155.0</ele><time>2026-05-04T10:40:45.001Z</time></trkpt><trkpt lat="43.47411056489119" lon="11.086366030190067"><ele>155.0</ele><time>2026-05-04T10:40:46.001Z</time></trkpt><trkpt lat="43.47400336678545" lon="11.086343185740471"><ele>155.0</ele><time>2026-05-04T10:40:47.001Z</time></trkpt><trkpt lat="43.47388590007437" lon="11.086311623197236"><ele>155.0</ele><time>2026-05-04T10:40:48.001Z</time></trkpt><trkpt lat="43.47373982952348" lon="11.086243521775692"><ele>159.5</ele><time>2026-05-04T10:40:49.001Z</time></trkpt><trkpt lat="43.47358560349938" lon="11.086163752173436"><ele>164.0</ele><time>2026-05-04T10:40:50.001Z</time></trkpt><trkpt lat="43.47346811465126" lon="11.08607354424448"><ele>168.5</ele><time>2026-05-04T10:40:51.001Z</time></trkpt><trkpt lat="43.473362931709836" lon="11.085940450606556"><ele>173.0</ele><time>2026-05-04T10:40:52.001Z</time></trkpt><trkpt lat="43.473233730326186" lon="11.085777049637304"><ele>173.25</ele><time>2026-05-04T10:40:53.001Z</time></trkpt><trkpt lat="43.473086967913424" lon="11.085624095086676"><ele>173.5</ele><time>2026-05-04T10:40:54.001Z</time></trkpt><trkpt lat="43.47298754520573" lon="11.085472644706044"><ele>173.75</ele><time>2026-05-04T10:40:55.001Z</time></trkpt><trkpt lat="43.4728985253852" lon="11.085376497743683"><ele>174.0</ele><time>2026-05-04T10:40:56.001Z</time></trkpt><trkpt lat="43.47281965557847" lon="11.08530382948014"><ele>174.0</ele><time>2026-05-04T10:40:57.001Z</time></trkpt><trkpt lat="43.47272719479706" lon="11.085242726266488"><ele>174.0</ele><time>2026-05-04T10:40:58.001Z</time></trkpt><trkpt lat="43.47260686326874" lon="11.085203643737584"><ele>174.0</ele><time>2026-05-04T10:40:59.001Z</time></trkpt><trkpt lat="43.472471201843916" lon="11.085231683107406"><ele>174.0</ele><time>2026-05-04T10:41:00.001Z</time></trkpt><trkpt lat="43.47235752609355" lon="11.085283225982705"><ele>174.0</ele><time>2026-05-04T10:41:01.001Z</time></trkpt><trkpt lat="43.4722792072123" lon="11.085384160636817"><ele>174.0</ele><time>2026-05-04T10:41:02.001Z</time></trkpt><trkpt lat="43.47221112728387" lon="11.085460327949862"><ele>174.0</ele><time>2026-05-04T10:41:03.001Z</time></trkpt><trkpt lat="43.472186096126016" lon="11.085550170742199"><ele>174.0</ele><time>2026-05-04T10:41:04.001Z</time></trkpt><trkpt lat="43.47224533404135" lon="11.08564155667874"><ele>174.0</ele><time>2026-05-04T10:41:05.001Z</time></trkpt><trkpt lat="43.472306643204206" lon="11.085697109062693"><ele>174.0</ele><time>2026-05-04T10:41:06.001Z</time></trkpt><trkpt lat="43.47235670626534" lon="11.085756244869376"><ele>177.0</ele><time>2026-05-04T10:41:07.001Z</time></trkpt><trkpt lat="43.47231615855943" lon="11.085903675735853"><ele>180.0</ele><time>2026-05-04T10:41:09.001Z</time></trkpt><trkpt lat="43.47224379041138" lon="11.08591956819462"><ele>183.0</ele><time>2026-05-04T10:41:10.001Z</time></trkpt><trkpt lat="43.472180981451615" lon="11.085975242066496"><ele>186.0</ele><time>2026-05-04T10:41:11.001Z</time></trkpt><trkpt lat="43.47207353597006" lon="11.086010915719884"><ele>189.0</ele><time>2026-05-04T10:41:12.001Z</time></trkpt><trkpt lat="43.47194797725894" lon="11.086066045900145"><ele>189.0</ele><time>2026-05-04T10:41:13.001Z</time></trkpt><trkpt lat="43.4718495540368" lon="11.08613076674538"><ele>189.0</ele><time>2026-05-04T10:41:14.001Z</time></trkpt><trkpt lat="43.47179197144871" lon="11.086186626988981"><ele>189.0</ele><time>2026-05-04T10:41:15.001Z</time></trkpt><trkpt lat="43.47175920747787" lon="11.086264963857163"><ele>189.0</ele><time>2026-05-04T10:41:17.001Z</time></trkpt><trkpt lat="43.471816886897784" lon="11.086385082783654"><ele>189.0</ele><time>2026-05-04T10:41:19.001Z</time></trkpt><trkpt lat="43.471895584964166" lon="11.086384737413336"><ele>189.0</ele><time>2026-05-04T10:41:20.001Z</time></trkpt><trkpt lat="43.47197706005748" lon="11.08638297295806"><ele>189.0</ele><time>2026-05-04T10:41:21.001Z</time></trkpt><trkpt lat="43.472092415177364" lon="11.08637703603843"><ele>189.0</ele><time>2026-05-04T10:41:22.001Z</time></trkpt><trkpt lat="43.4721873132266" lon="11.086367132364025"><ele>189.0</ele><time>2026-05-04T10:41:23.001Z</time></trkpt><trkpt lat="43.47227424066957" lon="11.086440500610511"><ele>189.0</ele><time>2026-05-04T10:41:25.001Z</time></trkpt><trkpt lat="43.47224347263337" lon="11.086616363571189"><ele>189.0</ele><time>2026-05-04T10:41:27.001Z</time></trkpt><trkpt lat="43.472174298520564" lon="11.086674892577532"><ele>192.2</ele><time>2026-05-04T10:41:28.001Z</time></trkpt><trkpt lat="43.472099551064154" lon="11.086757452668712"><ele>195.39999999999998</ele><time>2026-05-04T10:41:29.001Z</time></trkpt><trkpt lat="43.47201046933571" lon="11.086831532909942"><ele>198.6</ele><time>2026-05-04T10:41:30.001Z</time></trkpt><trkpt lat="43.47191967104851" lon="11.08689947044742"><ele>201.8</ele><time>2026-05-04T10:41:31.001Z</time></trkpt><trkpt lat="43.471814480151124" lon="11.086885457630492"><ele>205.0</ele><time>2026-05-04T10:41:32.001Z</time></trkpt><trkpt lat="43.471700746379035" lon="11.08686764830818"><ele>205.0</ele><time>2026-05-04T10:41:33.001Z</time></trkpt><trkpt lat="43.471577091379935" lon="11.086889043795482"><ele>205.0</ele><time>2026-05-04T10:41:34.001Z</time></trkpt><trkpt lat="43.47144967147804" lon="11.086940176502134"><ele>205.0</ele><time>2026-05-04T10:41:35.001Z</time></trkpt><trkpt lat="43.4713235800645" lon="11.087011874260448"><ele>205.0</ele><time>2026-05-04T10:41:36.001Z</time></trkpt><trkpt lat="43.471240564669465" lon="11.087093576409472"><ele>204.75</ele><time>2026-05-04T10:41:37.001Z</time></trkpt><trkpt lat="43.47120088024741" lon="11.087197345597856"><ele>204.5</ele><time>2026-05-04T10:41:38.001Z</time></trkpt><trkpt lat="43.47116160105886" lon="11.087342047606809"><ele>204.25</ele><time>2026-05-04T10:41:39.001Z</time></trkpt><trkpt lat="43.47111827307617" lon="11.087504556287875"><ele>204.0</ele><time>2026-05-04T10:41:40.001Z</time></trkpt><trkpt lat="43.47107189366056" lon="11.087677778243282"><ele>206.16666666666666</ele><time>2026-05-04T10:41:41.001Z</time></trkpt><trkpt lat="43.47102904439833" lon="11.08783123203267"><ele>208.33333333333331</ele><time>2026-05-04T10:41:42.001Z</time></trkpt><trkpt lat="43.47100460297198" lon="11.087952313497409"><ele>210.5</ele><time>2026-05-04T10:41:43.001Z</time></trkpt><trkpt lat="43.4709899306942" lon="11.088041533915646"><ele>212.66666666666666</ele><time>2026-05-04T10:41:44.001Z</time></trkpt><trkpt lat="43.47098098257281" lon="11.088146023382661"><ele>214.83333333333331</ele><time>2026-05-04T10:41:45Z</time></trkpt><trkpt lat="43.47099443438391" lon="11.08825473034713"><ele>217.0</ele><time>2026-05-04T10:41:46Z</time></trkpt><trkpt lat="43.47101132344845" lon="11.088370252509778"><ele>217.6</ele><time>2026-05-04T10:41:47Z</time></trkpt><trkpt lat="43.47102857108388" lon="11.088489214281191"><ele>218.2</ele><time>2026-05-04T10:41:48Z</time></trkpt><trkpt lat="43.471049119554394" lon="11.088632945027982"><ele>218.8</ele><time>2026-05-04T10:41:49Z</time></trkpt><trkpt lat="43.4710829653486" lon="11.088793714970842"><ele>219.4</ele><time>2026-05-04T10:41:50Z</time></trkpt><trkpt lat="43.47113282257975" lon="11.088952708352938"><ele>220.0</ele><time>2026-05-04T10:41:51Z</time></trkpt><trkpt lat="43.4712062625145" lon="11.089091017629851"><ele>217.5</ele><time>2026-05-04T10:41:52Z</time></trkpt><trkpt lat="43.47129946456332" lon="11.089222190698482"><ele>215.0</ele><time>2026-05-04T10:41:53Z</time></trkpt><trkpt lat="43.47137772363629" lon="11.089351482665528"><ele>212.5</ele><time>2026-05-04T10:41:54Z</time></trkpt><trkpt lat="43.47140699923681" lon="11.089499842515545"><ele>210.0</ele><time>2026-05-04T10:41:55Z</time></trkpt><trkpt lat="43.47144666584109" lon="11.089666165862763"><ele>210.0</ele><time>2026-05-04T10:41:56Z</time></trkpt><trkpt lat="43.47148767013012" lon="11.089846611908104"><ele>210.0</ele><time>2026-05-04T10:41:57Z</time></trkpt><trkpt lat="43.4715264194102" lon="11.09002325747711"><ele>210.0</ele><time>2026-05-04T10:41:58Z</time></trkpt><trkpt lat="43.47156577781639" lon="11.090171862293209"><ele>210.0</ele><time>2026-05-04T10:41:59Z</time></trkpt><trkpt lat="43.47158735311795" lon="11.090309308689251"><ele>211.5</ele><time>2026-05-04T10:42:00Z</time></trkpt><trkpt lat="43.47156924118178" lon="11.090467353108414"><ele>213.0</ele><time>2026-05-04T10:42:01Z</time></trkpt><trkpt lat="43.47156598195798" lon="11.090635907307183"><ele>214.5</ele><time>2026-05-04T10:42:02Z</time></trkpt><trkpt lat="43.47159246073774" lon="11.090785375910436"><ele>216.0</ele><time>2026-05-04T10:42:03Z</time></trkpt><trkpt lat="43.47162590883439" lon="11.090929939011161"><ele>217.0</ele><time>2026-05-04T10:42:04Z</time></trkpt><trkpt lat="43.47169343978871" lon="11.091074663994938"><ele>218.0</ele><time>2026-05-04T10:42:05Z</time></trkpt><trkpt lat="43.47176565037401" lon="11.091229595216781"><ele>219.0</ele><time>2026-05-04T10:42:06Z</time></trkpt><trkpt lat="43.47180203709255" lon="11.091403049561734"><ele>220.0</ele><time>2026-05-04T10:42:07Z</time></trkpt><trkpt lat="43.47184083543213" lon="11.091556963292938"><ele>221.25</ele><time>2026-05-04T10:42:08Z</time></trkpt><trkpt lat="43.47182191479297" lon="11.091732762129874"><ele>222.5</ele><time>2026-05-04T10:42:09Z</time></trkpt><trkpt lat="43.47182729569176" lon="11.091904367639785"><ele>223.75</ele><time>2026-05-04T10:42:10Z</time></trkpt><trkpt lat="43.471857192967896" lon="11.092057930633507"><ele>225.0</ele><time>2026-05-04T10:42:11Z</time></trkpt><trkpt lat="43.47187602722832" lon="11.092196645447265"><ele>225.0</ele><time>2026-05-04T10:42:12Z</time></trkpt><trkpt lat="43.47193677006975" lon="11.092295998011876"><ele>225.0</ele><time>2026-05-04T10:42:13Z</time></trkpt><trkpt lat="43.47198030057776" lon="11.092384216115654"><ele>225.0</ele><time>2026-05-04T10:42:14Z</time></trkpt><trkpt lat="43.47194636433706" lon="11.09254977869999"><ele>225.0</ele><time>2026-05-04T10:42:16Z</time></trkpt><trkpt lat="43.47191643109792" lon="11.092696143412896"><ele>225.0</ele><time>2026-05-04T10:42:17Z</time></trkpt><trkpt lat="43.47187918649888" lon="11.092858404458783"><ele>225.0</ele><time>2026-05-04T10:42:18.001Z</time></trkpt><trkpt lat="43.47183770128497" lon="11.092992216611227"><ele>225.0</ele><time>2026-05-04T10:42:19.001Z</time></trkpt><trkpt lat="43.47178048483036" lon="11.093096813665495"><ele>225.0</ele><time>2026-05-04T10:42:20.001Z</time></trkpt><trkpt lat="43.47169624389908" lon="11.09317755156833"><ele>225.0</ele><time>2026-05-04T10:42:21.001Z</time></trkpt><trkpt lat="43.4716087033013" lon="11.093236444965148"><ele>225.0</ele><time>2026-05-04T10:42:22.001Z</time></trkpt><trkpt lat="43.471506647155536" lon="11.093282851282412"><ele>224.66666666666669</ele><time>2026-05-04T10:42:23.001Z</time></trkpt><trkpt lat="43.47135582534182" lon="11.093335195744242"><ele>224.33333333333334</ele><time>2026-05-04T10:42:24.001Z</time></trkpt><trkpt lat="43.471186293079676" lon="11.093395544867235"><ele>224.0</ele><time>2026-05-04T10:42:25.001Z</time></trkpt><trkpt lat="43.47102769412812" lon="11.093453148309516"><ele>223.79999999999998</ele><time>2026-05-04T10:42:26.001Z</time></trkpt><trkpt lat="43.47090422094381" lon="11.093497995762547"><ele>223.59999999999997</ele><time>2026-05-04T10:42:27.001Z</time></trkpt><trkpt lat="43.47079784162702" lon="11.09353663293442"><ele>223.4</ele><time>2026-05-04T10:42:28.001Z</time></trkpt><trkpt lat="43.4706958351953" lon="11.093571744312776"><ele>223.2</ele><time>2026-05-04T10:42:29.001Z</time></trkpt><trkpt lat="43.47059883255372" lon="11.093606396381704"><ele>223.0</ele><time>2026-05-04T10:42:30.001Z</time></trkpt><trkpt lat="43.47050601276051" lon="11.09364782802576"><ele>220.5</ele><time>2026-05-04T10:42:31.001Z</time></trkpt><trkpt lat="43.47040863937553" lon="11.093704157010459"><ele>218.0</ele><time>2026-05-04T10:42:32.001Z</time></trkpt><trkpt lat="43.47029674054654" lon="11.093780321809023"><ele>215.5</ele><time>2026-05-04T10:42:33.001Z</time></trkpt><trkpt lat="43.47018748335714" lon="11.093858237596057"><ele>213.0</ele><time>2026-05-04T10:42:34.001Z</time></trkpt><trkpt lat="43.470078519064025" lon="11.093951928710313"><ele>213.0</ele><time>2026-05-04T10:42:35.001Z</time></trkpt><trkpt lat="43.470000596903915" lon="11.09406690084083"><ele>213.0</ele><time>2026-05-04T10:42:36.001Z</time></trkpt><trkpt lat="43.46992725706964" lon="11.094128867356895"><ele>213.0</ele><time>2026-05-04T10:42:37.001Z</time></trkpt><trkpt lat="43.46986266290839" lon="11.094240145147962"><ele>213.0</ele><time>2026-05-04T10:42:39.001Z</time></trkpt><trkpt lat="43.4697962394881" lon="11.094323656816153"><ele>213.0</ele><time>2026-05-04T10:42:41.001Z</time></trkpt><trkpt lat="43.46974715135446" lon="11.094387710453855"><ele>213.0</ele><time>2026-05-04T10:42:43.001Z</time></trkpt><trkpt lat="43.46978357924025" lon="11.094315598438332"><ele>213.0</ele><time>2026-05-04T10:42:48.001Z</time></trkpt><trkpt lat="43.46984324537194" lon="11.094245112657253"><ele>213.0</ele><time>2026-05-04T10:42:50.001Z</time></trkpt><trkpt lat="43.46993711959188" lon="11.094141096684192"><ele>213.0</ele><time>2026-05-04T10:42:52.001Z</time></trkpt><trkpt lat="43.47002752617566" lon="11.09406130049009"><ele>213.0</ele><time>2026-05-04T10:42:54.001Z</time></trkpt><trkpt lat="43.47011960765657" lon="11.094080718688568"><ele>214.0</ele><time>2026-05-04T10:42:57.001Z</time></trkpt><trkpt lat="43.470210200391236" lon="11.094178628511488"><ele>215.0</ele><time>2026-05-04T10:42:59.001Z</time></trkpt><trkpt lat="43.47029770857262" lon="11.094246049894185"><ele>216.0</ele><time>2026-05-04T10:43:01.001Z</time></trkpt><trkpt lat="43.470364898995385" lon="11.094290222883135"><ele>217.0</ele><time>2026-05-04T10:43:03.001Z</time></trkpt><trkpt lat="43.470446012799236" lon="11.094350807520495"><ele>218.0</ele><time>2026-05-04T10:43:06.001Z</time></trkpt><trkpt lat="43.47050662272432" lon="11.09439916172719"><ele>218.00000000000003</ele><time>2026-05-04T10:43:08.001Z</time></trkpt><trkpt lat="43.47056692906722" lon="11.09445783940485"><ele>218.0</ele><time>2026-05-04T10:43:10.001Z</time></trkpt><trkpt lat="43.47063544512631" lon="11.094529461184331"><ele>218.0</ele><time>2026-05-04T10:43:12.001Z</time></trkpt><trkpt lat="43.4707069808873" lon="11.094615618039313"><ele>218.0</ele><time>2026-05-04T10:43:14.001Z</time></trkpt><trkpt lat="43.47077631468999" lon="11.094683585788736"><ele>218.00000000000003</ele><time>2026-05-04T10:43:16.001Z</time></trkpt><trkpt lat="43.47084986613421" lon="11.094712047830754"><ele>218.0</ele><time>2026-05-04T10:43:18.001Z</time></trkpt><trkpt lat="43.470946494580524" lon="11.094722313215797"><ele>218.0</ele><time>2026-05-04T10:43:20.001Z</time></trkpt><trkpt lat="43.47104692496092" lon="11.094727901883545"><ele>218.0</ele><time>2026-05-04T10:43:22.001Z</time></trkpt><trkpt lat="43.47115312474469" lon="11.094728329501796"><ele>218.0</ele><time>2026-05-04T10:43:24.001Z</time></trkpt><trkpt lat="43.471254081164574" lon="11.094749201748135"><ele>218.0</ele><time>2026-05-04T10:43:26.001Z</time></trkpt><trkpt lat="43.47135816445814" lon="11.09480554016069"><ele>218.0</ele><time>2026-05-04T10:43:28.001Z</time></trkpt><trkpt lat="43.47146581292806" lon="11.094902900853219"><ele>213.4</ele><time>2026-05-04T10:43:30.001Z</time></trkpt><trkpt lat="43.4715397354977" lon="11.095012619467806"><ele>208.8</ele><time>2026-05-04T10:43:32.001Z</time></trkpt><trkpt lat="43.47158597358739" lon="11.095074628511185"><ele>204.2</ele><time>2026-05-04T10:43:33.001Z</time></trkpt><trkpt lat="43.47163724772512" lon="11.095146996917295"><ele>199.6</ele><time>2026-05-04T10:43:34.001Z</time></trkpt><trkpt lat="43.47171083382354" lon="11.095266890570631"><ele>195.0</ele><time>2026-05-04T10:43:36.001Z</time></trkpt><trkpt lat="43.471786074854165" lon="11.09537391604111"><ele>195.0</ele><time>2026-05-04T10:43:38.001Z</time></trkpt><trkpt lat="43.47186773093397" lon="11.095505466488085"><ele>195.0</ele><time>2026-05-04T10:43:40.001Z</time></trkpt><trkpt lat="43.47191317636519" lon="11.095579127506472"><ele>195.0</ele><time>2026-05-04T10:43:41.001Z</time></trkpt><trkpt lat="43.47196116158317" lon="11.095660197493064"><ele>195.0</ele><time>2026-05-04T10:43:42.001Z</time></trkpt><trkpt lat="43.47200278326024" lon="11.0957367023629"><ele>195.0</ele><time>2026-05-04T10:43:43.001Z</time></trkpt><trkpt lat="43.47204352641089" lon="11.095809422655286"><ele>195.0</ele><time>2026-05-04T10:43:44.001Z</time></trkpt><trkpt lat="43.47210007422555" lon="11.095928571277165"><ele>192.4</ele><time>2026-05-04T10:43:46.001Z</time></trkpt><trkpt lat="43.47215783924417" lon="11.096029128216518"><ele>189.8</ele><time>2026-05-04T10:43:48.001Z</time></trkpt><trkpt lat="43.47220755670017" lon="11.096132566124705"><ele>187.2</ele><time>2026-05-04T10:43:50.001Z</time></trkpt><trkpt lat="43.47226020497858" lon="11.096233815171885"><ele>184.6</ele><time>2026-05-04T10:43:52Z</time></trkpt><trkpt lat="43.47237619699076" lon="11.096354875277367"><ele>182.0</ele><time>2026-05-04T10:43:54Z</time></trkpt><trkpt lat="43.47244021746734" lon="11.09643169781323"><ele>182.0</ele><time>2026-05-04T10:43:55Z</time></trkpt><trkpt lat="43.4724978709625" lon="11.09651803314404"><ele>182.0</ele><time>2026-05-04T10:43:56Z</time></trkpt><trkpt lat="43.47254924432282" lon="11.096593181135566"><ele>182.0</ele><time>2026-05-04T10:43:57Z</time></trkpt><trkpt lat="43.472597807719914" lon="11.096665103887792"><ele>182.0</ele><time>2026-05-04T10:43:58Z</time></trkpt><trkpt lat="43.47265350556556" lon="11.096746659484559"><ele>182.0</ele><time>2026-05-04T10:43:59Z</time></trkpt><trkpt lat="43.47270600496975" lon="11.09682198328331"><ele>182.0</ele><time>2026-05-04T10:44:00Z</time></trkpt><trkpt lat="43.47276558077862" lon="11.096907601811997"><ele>181.16666666666666</ele><time>2026-05-04T10:44:01Z</time></trkpt><trkpt lat="43.472830251470114" lon="11.096996990738331"><ele>180.33333333333331</ele><time>2026-05-04T10:44:02Z</time></trkpt><trkpt lat="43.47287878233949" lon="11.097065810252031"><ele>179.5</ele><time>2026-05-04T10:44:03Z</time></trkpt><trkpt lat="43.472922899717425" lon="11.097130697847325"><ele>178.66666666666666</ele><time>2026-05-04T10:44:04Z</time></trkpt><trkpt lat="43.47299177113087" lon="11.097220312402879"><ele>177.83333333333334</ele><time>2026-05-04T10:44:06Z</time></trkpt><trkpt lat="43.472990116847626" lon="11.097348561464102"><ele>177.0</ele><time>2026-05-04T10:44:09Z</time></trkpt><trkpt lat="43.4729978206401" lon="11.097482229169206"><ele>179.6</ele><time>2026-05-04T10:44:11Z</time></trkpt><trkpt lat="43.47302469656942" lon="11.09757645662097"><ele>182.2</ele><time>2026-05-04T10:44:12Z</time></trkpt><trkpt lat="43.473057073750695" lon="11.097698311911198"><ele>184.8</ele><time>2026-05-04T10:44:13Z</time></trkpt><trkpt lat="43.47308682763766" lon="11.09784470635318"><ele>187.4</ele><time>2026-05-04T10:44:14Z</time></trkpt><trkpt lat="43.4730983797385" lon="11.09800522763223"><ele>190.0</ele><time>2026-05-04T10:44:15Z</time></trkpt><trkpt lat="43.47309984995903" lon="11.098145178216535"><ele>189.83333333333334</ele><time>2026-05-04T10:44:16Z</time></trkpt><trkpt lat="43.47310583531648" lon="11.098259043416872"><ele>189.66666666666669</ele><time>2026-05-04T10:44:17Z</time></trkpt><trkpt lat="43.47311473019063" lon="11.098392502090473"><ele>189.5</ele><time>2026-05-04T10:44:19Z</time></trkpt><trkpt lat="43.47318240318589" lon="11.09842160227753"><ele>189.33333333333334</ele><time>2026-05-04T10:44:33Z</time></trkpt><trkpt lat="43.4732121877206" lon="11.09851509769252"><ele>189.16666666666666</ele><time>2026-05-04T10:44:39Z</time></trkpt><trkpt lat="43.47322945314366" lon="11.098601389206616"><ele>189.0</ele><time>2026-05-04T10:44:40Z</time></trkpt><trkpt lat="43.473278960226594" lon="11.098774983004766"><ele>189.0</ele><time>2026-05-04T10:44:42Z</time></trkpt><trkpt lat="43.47330118212407" lon="11.09886702522662"><ele>189.0</ele><time>2026-05-04T10:44:43Z</time></trkpt><trkpt lat="43.47335277327373" lon="11.099038344868022"><ele>189.0</ele><time>2026-05-04T10:44:45Z</time></trkpt><trkpt lat="43.473379077029556" lon="11.09914775036521"><ele>189.0</ele><time>2026-05-04T10:44:46Z</time></trkpt><trkpt lat="43.473402502803346" lon="11.099273001108491"><ele>189.0</ele><time>2026-05-04T10:44:47Z</time></trkpt><trkpt lat="43.4734265689637" lon="11.09940639188823"><ele>189.2</ele><time>2026-05-04T10:44:48Z</time></trkpt><trkpt lat="43.473445342847675" lon="11.09952599828818"><ele>189.39999999999998</ele><time>2026-05-04T10:44:49.001Z</time></trkpt><trkpt lat="43.47345534246466" lon="11.099628312628598"><ele>189.6</ele><time>2026-05-04T10:44:50.001Z</time></trkpt><trkpt lat="43.47361638437934" lon="11.099794964290039"><ele>189.8</ele><time>2026-05-04T10:44:52.001Z</time></trkpt><trkpt lat="43.47361318524004" lon="11.099886972914309"><ele>190.0</ele><time>2026-05-04T10:44:53.001Z</time></trkpt><trkpt lat="43.4736160129056" lon="11.100044742229477"><ele>190.2</ele><time>2026-05-04T10:44:55.001Z</time></trkpt><trkpt lat="43.47361915907615" lon="11.10013178653122"><ele>190.4</ele><time>2026-05-04T10:44:56.001Z</time></trkpt><trkpt lat="43.473626288925345" lon="11.100259302800408"><ele>190.60000000000002</ele><time>2026-05-04T10:44:57.001Z</time></trkpt><trkpt lat="43.47363464410897" lon="11.1004087339909"><ele>190.8</ele><time>2026-05-04T10:44:58.001Z</time></trkpt><trkpt lat="43.4736426670685" lon="11.1005704558545"><ele>191.0</ele><time>2026-05-04T10:44:59.001Z</time></trkpt><trkpt lat="43.47365063272065" lon="11.100734978326232"><ele>191.20000000000002</ele><time>2026-05-04T10:45:00.001Z</time></trkpt><trkpt lat="43.47365812451271" lon="11.100889713647167"><ele>191.4</ele><time>2026-05-04T10:45:01.001Z</time></trkpt><trkpt lat="43.473664830109904" lon="11.101023207784458"><ele>191.6</ele><time>2026-05-04T10:45:02.001Z</time></trkpt><trkpt lat="43.47366809825828" lon="11.101147175950903"><ele>191.8</ele><time>2026-05-04T10:45:03.001Z</time></trkpt><trkpt lat="43.47365571551167" lon="11.101277925225913"><ele>192.0</ele><time>2026-05-04T10:45:04.001Z</time></trkpt><trkpt lat="43.47364423003424" lon="11.101370799900645"><ele>192.0</ele><time>2026-05-04T10:45:05.001Z</time></trkpt><trkpt lat="43.47361501099802" lon="11.101461309229439"><ele>192.0</ele><time>2026-05-04T10:45:06.001Z</time></trkpt><trkpt lat="43.47357798501009" lon="11.101546608975477"><ele>192.0</ele><time>2026-05-04T10:45:07.001Z</time></trkpt><trkpt lat="43.4735318230703" lon="11.101617884084915"><ele>192.0</ele><time>2026-05-04T10:45:08.001Z</time></trkpt><trkpt lat="43.473477697319716" lon="11.101719726043454"><ele>192.0</ele><time>2026-05-04T10:45:09.001Z</time></trkpt><trkpt lat="43.473388804897766" lon="11.10187275409096"><ele>192.0</ele><time>2026-05-04T10:45:10.001Z</time></trkpt><trkpt lat="43.47330842372396" lon="11.102058624889015"><ele>192.25</ele><time>2026-05-04T10:45:11.001Z</time></trkpt><trkpt lat="43.47324902157811" lon="11.10222238231701"><ele>192.5</ele><time>2026-05-04T10:45:12.001Z</time></trkpt><trkpt lat="43.47321616899879" lon="11.102398221896403"><ele>192.75</ele><time>2026-05-04T10:45:13.001Z</time></trkpt><trkpt lat="43.4732033007897" lon="11.1025926321611"><ele>193.0</ele><time>2026-05-04T10:45:14.001Z</time></trkpt><trkpt lat="43.47319701577968" lon="11.102823205068562"><ele>193.66666666666666</ele><time>2026-05-04T10:45:15.001Z</time></trkpt><trkpt lat="43.473182637405564" lon="11.103073734894751"><ele>194.33333333333331</ele><time>2026-05-04T10:45:16.001Z</time></trkpt><trkpt lat="43.47315902450697" lon="11.103292962070178"><ele>195.0</ele><time>2026-05-04T10:45:17.001Z</time></trkpt><trkpt lat="43.473129143264856" lon="11.10348714741376"><ele>195.25</ele><time>2026-05-04T10:45:18.001Z</time></trkpt><trkpt lat="43.47309594056441" lon="11.10367557029406"><ele>195.5</ele><time>2026-05-04T10:45:19.001Z</time></trkpt><trkpt lat="43.473067855047006" lon="11.103864642029974"><ele>195.75</ele><time>2026-05-04T10:45:20.001Z</time></trkpt><trkpt lat="43.47305051207207" lon="11.104064771345138"><ele>196.0</ele><time>2026-05-04T10:45:21.001Z</time></trkpt><trkpt lat="43.473059304920405" lon="11.104284268456256"><ele>196.0</ele><time>2026-05-04T10:45:22.001Z</time></trkpt><trkpt lat="43.47307874420325" lon="11.104506844546723"><ele>196.0</ele><time>2026-05-04T10:45:23.001Z</time></trkpt><trkpt lat="43.47310140355634" lon="11.104721720977592"><ele>196.0</ele><time>2026-05-04T10:45:24.001Z</time></trkpt><trkpt lat="43.473125703390366" lon="11.104880864207631"><ele>196.0</ele><time>2026-05-04T10:45:25.001Z</time></trkpt><trkpt lat="43.4731538731534" lon="11.105014494945436"><ele>196.60000000000002</ele><time>2026-05-04T10:45:26.001Z</time></trkpt><trkpt lat="43.47317335380373" lon="11.105102918296144"><ele>197.2</ele><time>2026-05-04T10:45:27.001Z</time></trkpt><trkpt lat="43.47306027818936" lon="11.10518984769926"><ele>197.8</ele><time>2026-05-04T10:45:30.001Z</time></trkpt><trkpt lat="43.47296937755159" lon="11.105240807713075"><ele>198.39999999999998</ele><time>2026-05-04T10:45:31.001Z</time></trkpt><trkpt lat="43.472856909301264" lon="11.105314375548199"><ele>199.0</ele><time>2026-05-04T10:45:32.001Z</time></trkpt><trkpt lat="43.472744834656595" lon="11.105390480021413"><ele>200.75</ele><time>2026-05-04T10:45:33.001Z</time></trkpt><trkpt lat="43.47264037124391" lon="11.105461523819372"><ele>202.5</ele><time>2026-05-04T10:45:34.001Z</time></trkpt><trkpt lat="43.47254635431861" lon="11.105550459431447"><ele>204.25</ele><time>2026-05-04T10:45:35.001Z</time></trkpt><trkpt lat="43.472447045545785" lon="11.105618514826592"><ele>206.0</ele><time>2026-05-04T10:45:36.001Z</time></trkpt><trkpt lat="43.47234126953951" lon="11.105665015390901"><ele>206.0</ele><time>2026-05-04T10:45:37.001Z</time></trkpt><trkpt lat="43.47224529392099" lon="11.105730311677698"><ele>206.0</ele><time>2026-05-04T10:45:38.001Z</time></trkpt><trkpt lat="43.472157463300874" lon="11.10581448398713"><ele>206.0</ele><time>2026-05-04T10:45:39.001Z</time></trkpt><trkpt lat="43.47207452659848" lon="11.10586751927263"><ele>206.0</ele><time>2026-05-04T10:45:40.001Z</time></trkpt><trkpt lat="43.471993291413064" lon="11.105916627799262"><ele>206.0</ele><time>2026-05-04T10:45:41.001Z</time></trkpt><trkpt lat="43.47190882397298" lon="11.105978088701846"><ele>204.60000000000002</ele><time>2026-05-04T10:45:42.001Z</time></trkpt><trkpt lat="43.471843712806084" lon="11.106059197328518"><ele>203.2</ele><time>2026-05-04T10:45:43.001Z</time></trkpt><trkpt lat="43.4717826542224" lon="11.106141661591247"><ele>201.8</ele><time>2026-05-04T10:45:44.001Z</time></trkpt><trkpt lat="43.47172976311977" lon="11.106236803912577"><ele>200.39999999999998</ele><time>2026-05-04T10:45:45.001Z</time></trkpt><trkpt lat="43.471674863499125" lon="11.106346771220737"><ele>199.0</ele><time>2026-05-04T10:45:46.001Z</time></trkpt><trkpt lat="43.47159029925128" lon="11.106451168722115"><ele>198.0</ele><time>2026-05-04T10:45:47.001Z</time></trkpt><trkpt lat="43.471513797444274" lon="11.106599424086896"><ele>197.0</ele><time>2026-05-04T10:45:48.001Z</time></trkpt><trkpt lat="43.47141312922251" lon="11.106748116547164"><ele>196.0</ele><time>2026-05-04T10:45:49.001Z</time></trkpt><trkpt lat="43.47131269917433" lon="11.106898600338985"><ele>195.0</ele><time>2026-05-04T10:45:50.001Z</time></trkpt><trkpt lat="43.471206353627956" lon="11.10705166831853"><ele>194.0</ele><time>2026-05-04T10:45:51.001Z</time></trkpt><trkpt lat="43.47109887120408" lon="11.107190418332321"><ele>193.0</ele><time>2026-05-04T10:45:52.001Z</time></trkpt><trkpt lat="43.47101204603338" lon="11.107324357036557"><ele>192.0</ele><time>2026-05-04T10:45:53.001Z</time></trkpt><trkpt lat="43.47092880872051" lon="11.107448443597347"><ele>191.0</ele><time>2026-05-04T10:45:54.001Z</time></trkpt><trkpt lat="43.47085243640675" lon="11.107569457526216"><ele>191.0</ele><time>2026-05-04T10:45:55.001Z</time></trkpt><trkpt lat="43.470784541370314" lon="11.107694694870982"><ele>191.0</ele><time>2026-05-04T10:45:56.001Z</time></trkpt><trkpt lat="43.47072561933409" lon="11.107828791871018"><ele>191.0</ele><time>2026-05-04T10:45:57Z</time></trkpt><trkpt lat="43.47067507665204" lon="11.107970547402182"><ele>191.0</ele><time>2026-05-04T10:45:58Z</time></trkpt><trkpt lat="43.47063227578274" lon="11.108113449471466"><ele>190.20000000000002</ele><time>2026-05-04T10:45:59Z</time></trkpt><trkpt lat="43.47060023191199" lon="11.10824757646146"><ele>189.4</ele><time>2026-05-04T10:46:00Z</time></trkpt><trkpt lat="43.47057412986776" lon="11.108369640915331"><ele>188.6</ele><time>2026-05-04T10:46:01Z</time></trkpt><trkpt lat="43.47057006058852" lon="11.108509517133024"><ele>187.8</ele><time>2026-05-04T10:46:02Z</time></trkpt><trkpt lat="43.47057316830002" lon="11.108648670709318"><ele>187.0</ele><time>2026-05-04T10:46:03Z</time></trkpt><trkpt lat="43.47058991134079" lon="11.108805299776924"><ele>187.0</ele><time>2026-05-04T10:46:04Z</time></trkpt><trkpt lat="43.4706007449516" lon="11.108952618098396"><ele>187.0</ele><time>2026-05-04T10:46:05Z</time></trkpt><trkpt lat="43.470610197375805" lon="11.10909323475859"><ele>187.0</ele><time>2026-05-04T10:46:06Z</time></trkpt><trkpt lat="43.47060336774187" lon="11.109235825396052"><ele>187.0</ele><time>2026-05-04T10:46:07Z</time></trkpt><trkpt lat="43.47057729618713" lon="11.109411770333248"><ele>187.0</ele><time>2026-05-04T10:46:08Z</time></trkpt><trkpt lat="43.47054467403618" lon="11.109580633783045"><ele>186.5</ele><time>2026-05-04T10:46:09Z</time></trkpt><trkpt lat="43.47051285639211" lon="11.109749996677076"><ele>186.0</ele><time>2026-05-04T10:46:10Z</time></trkpt><trkpt lat="43.47047258309769" lon="11.10990079919137"><ele>185.5</ele><time>2026-05-04T10:46:11Z</time></trkpt><trkpt lat="43.47040099647983" lon="11.1100068060012"><ele>185.0</ele><time>2026-05-04T10:46:12Z</time></trkpt><trkpt lat="43.47033808688714" lon="11.110122056728521"><ele>185.0</ele><time>2026-05-04T10:46:13Z</time></trkpt><trkpt lat="43.47025824243884" lon="11.110263371597865"><ele>185.0</ele><time>2026-05-04T10:46:14Z</time></trkpt><trkpt lat="43.4701727518308" lon="11.110414848088789"><ele>185.0</ele><time>2026-05-04T10:46:15Z</time></trkpt><trkpt lat="43.47008187310729" lon="11.110578939703764"><ele>185.0</ele><time>2026-05-04T10:46:16Z</time></trkpt><trkpt lat="43.470003655144666" lon="11.110753924726357"><ele>183.8</ele><time>2026-05-04T10:46:17Z</time></trkpt><trkpt lat="43.46992907022636" lon="11.11090786724209"><ele>182.6</ele><time>2026-05-04T10:46:18Z</time></trkpt><trkpt lat="43.4698628302921" lon="11.111034881927988"><ele>181.39999999999998</ele><time>2026-05-04T10:46:19Z</time></trkpt><trkpt lat="43.46981855022662" lon="11.111145940473662"><ele>180.2</ele><time>2026-05-04T10:46:20Z</time></trkpt><trkpt lat="43.46978447679369" lon="11.111255896938564"><ele>179.0</ele><time>2026-05-04T10:46:21Z</time></trkpt><trkpt lat="43.46975816244115" lon="11.11137239123547"><ele>179.0</ele><time>2026-05-04T10:46:22Z</time></trkpt><trkpt lat="43.46972825146827" lon="11.111486053054856"><ele>179.0</ele><time>2026-05-04T10:46:23Z</time></trkpt><trkpt lat="43.46969305386891" lon="11.111605242266188"><ele>179.0</ele><time>2026-05-04T10:46:24Z</time></trkpt><trkpt lat="43.46966857476745" lon="11.111727281113223"><ele>179.0</ele><time>2026-05-04T10:46:25Z</time></trkpt><trkpt lat="43.4696682415016" lon="11.111872918768267"><ele>179.0</ele><time>2026-05-04T10:46:26Z</time></trkpt><trkpt lat="43.46969082238692" lon="11.112040208696293"><ele>178.75</ele><time>2026-05-04T10:46:27Z</time></trkpt><trkpt lat="43.469714885054856" lon="11.112229906141764"><ele>178.5</ele><time>2026-05-04T10:46:28Z</time></trkpt><trkpt lat="43.46971312297249" lon="11.112425342377726"><ele>178.25</ele><time>2026-05-04T10:46:29Z</time></trkpt><trkpt lat="43.469734681991845" lon="11.112603799500903"><ele>178.0</ele><time>2026-05-04T10:46:30Z</time></trkpt><trkpt lat="43.46973413461607" lon="11.112761796797054"><ele>177.5</ele><time>2026-05-04T10:46:31Z</time></trkpt><trkpt lat="43.46971748300979" lon="11.112908248811989"><ele>177.0</ele><time>2026-05-04T10:46:32Z</time></trkpt><trkpt lat="43.46968088996824" lon="11.113051537593053"><ele>176.5</ele><time>2026-05-04T10:46:33Z</time></trkpt><trkpt lat="43.4696272677041" lon="11.113206216992092"><ele>176.0</ele><time>2026-05-04T10:46:34Z</time></trkpt><trkpt lat="43.46957049473527" lon="11.113366930122284"><ele>176.0</ele><time>2026-05-04T10:46:35Z</time></trkpt><trkpt lat="43.469520547708846" lon="11.113523082404546"><ele>176.0</ele><time>2026-05-04T10:46:36Z</time></trkpt><trkpt lat="43.46948853417965" lon="11.113657396796665"><ele>176.0</ele><time>2026-05-04T10:46:37Z</time></trkpt><trkpt lat="43.46946567253392" lon="11.113752811629075"><ele>176.0</ele><time>2026-05-04T10:46:38Z</time></trkpt><trkpt lat="43.46946476684215" lon="11.113922836094455"><ele>176.0</ele><time>2026-05-04T10:46:40Z</time></trkpt><trkpt lat="43.4694217401037" lon="11.114067982593262"><ele>176.20000000000002</ele><time>2026-05-04T10:46:42Z</time></trkpt><trkpt lat="43.46934988294202" lon="11.114134860890086"><ele>176.4</ele><time>2026-05-04T10:46:43Z</time></trkpt><trkpt lat="43.469270687285054" lon="11.114209706316029"><ele>176.6</ele><time>2026-05-04T10:46:44Z</time></trkpt><trkpt lat="43.46917969258773" lon="11.11431221985102"><ele>176.8</ele><time>2026-05-04T10:46:45Z</time></trkpt><trkpt lat="43.46908698212833" lon="11.114445144522293"><ele>177.0</ele><time>2026-05-04T10:46:46Z</time></trkpt><trkpt lat="43.46899202522873" lon="11.114584303258601"><ele>177.0</ele><time>2026-05-04T10:46:47Z</time></trkpt><trkpt lat="43.46889734750257" lon="11.114719929420028"><ele>177.0</ele><time>2026-05-04T10:46:48Z</time></trkpt><trkpt lat="43.46879130868064" lon="11.114833762014996"><ele>177.0</ele><time>2026-05-04T10:46:49Z</time></trkpt><trkpt lat="43.46869479927359" lon="11.114951563718625"><ele>177.0</ele><time>2026-05-04T10:46:50Z</time></trkpt><trkpt lat="43.46860731875733" lon="11.11506823361288"><ele>176.5</ele><time>2026-05-04T10:46:51Z</time></trkpt><trkpt lat="43.46854046423792" lon="11.115193966109697"><ele>176.0</ele><time>2026-05-04T10:46:52Z</time></trkpt><trkpt lat="43.468475345993646" lon="11.115319539810955"><ele>175.5</ele><time>2026-05-04T10:46:53Z</time></trkpt><trkpt lat="43.46841689336005" lon="11.115455233602633"><ele>175.0</ele><time>2026-05-04T10:46:54Z</time></trkpt><trkpt lat="43.468367980845464" lon="11.115597416841856"><ele>175.0</ele><time>2026-05-04T10:46:55Z</time></trkpt><trkpt lat="43.468325835901865" lon="11.115733576258192"><ele>175.0</ele><time>2026-05-04T10:46:56Z</time></trkpt><trkpt lat="43.4682837355269" lon="11.115854084000116"><ele>175.0</ele><time>2026-05-04T10:46:57Z</time></trkpt><trkpt lat="43.46824542495414" lon="11.115981272163534"><ele>175.0</ele><time>2026-05-04T10:46:58Z</time></trkpt><trkpt lat="43.46821181062496" lon="11.116124535487883"><ele>175.0</ele><time>2026-05-04T10:46:59Z</time></trkpt><trkpt lat="43.468181470721454" lon="11.116274279295574"><ele>170.5</ele><time>2026-05-04T10:47:00Z</time></trkpt><trkpt lat="43.46815728772161" lon="11.11642895561946"><ele>166.0</ele><time>2026-05-04T10:47:01Z</time></trkpt><trkpt lat="43.468133817817254" lon="11.116581575103762"><ele>161.5</ele><time>2026-05-04T10:47:02Z</time></trkpt><trkpt lat="43.46811117788961" lon="11.116734672504489"><ele>157.0</ele><time>2026-05-04T10:47:03.001Z</time></trkpt><trkpt lat="43.468087284280486" lon="11.11688017409604"><ele>155.0</ele><time>2026-05-04T10:47:04.001Z</time></trkpt><trkpt lat="43.46806274161996" lon="11.117015826379566"><ele>153.0</ele><time>2026-05-04T10:47:05.001Z</time></trkpt><trkpt lat="43.46804646467765" lon="11.117136905678707"><ele>151.0</ele><time>2026-05-04T10:47:06.001Z</time></trkpt><trkpt lat="43.46802726287016" lon="11.117257801874283"><ele>149.0</ele><time>2026-05-04T10:47:07.001Z</time></trkpt><trkpt lat="43.46801450557962" lon="11.117368723486644"><ele>147.0</ele><time>2026-05-04T10:47:08.001Z</time></trkpt><trkpt lat="43.46801310506635" lon="11.117458732160257"><ele>145.0</ele><time>2026-05-04T10:47:09.001Z</time></trkpt><trkpt lat="43.46808637695853" lon="11.117565314417073"><ele>145.0</ele><time>2026-05-04T10:47:11.001Z</time></trkpt><trkpt lat="43.468213448539956" lon="11.117538931827191"><ele>145.0</ele><time>2026-05-04T10:47:13.001Z</time></trkpt><trkpt lat="43.46827055065804" lon="11.117478718612842"><ele>145.0</ele><time>2026-05-04T10:47:14.001Z</time></trkpt><trkpt lat="43.46833469026413" lon="11.117438913042038"><ele>145.0</ele><time>2026-05-04T10:47:15.001Z</time></trkpt><trkpt lat="43.468389896237426" lon="11.117386410917716"><ele>145.0</ele><time>2026-05-04T10:47:16.001Z</time></trkpt><trkpt lat="43.468445805780874" lon="11.11733243302353"><ele>145.0</ele><time>2026-05-04T10:47:17.001Z</time></trkpt><trkpt lat="43.468508762023646" lon="11.117274862526513"><ele>145.0</ele><time>2026-05-04T10:47:18.001Z</time></trkpt><trkpt lat="43.46857437962157" lon="11.117228863356976"><ele>145.0</ele><time>2026-05-04T10:47:19.001Z</time></trkpt><trkpt lat="43.46864302159896" lon="11.117195712400246"><ele>145.0</ele><time>2026-05-04T10:47:20.001Z</time></trkpt><trkpt lat="43.468714037909585" lon="11.117178370197404"><ele>145.0</ele><time>2026-05-04T10:47:21.001Z</time></trkpt><trkpt lat="43.468799613822235" lon="11.117159111906824"><ele>145.0</ele><time>2026-05-04T10:47:22.001Z</time></trkpt><trkpt lat="43.46888001663355" lon="11.117120503942207"><ele>145.0</ele><time>2026-05-04T10:47:23.001Z</time></trkpt><trkpt lat="43.468976663894" lon="11.117109182744924"><ele>143.5</ele><time>2026-05-04T10:47:24.001Z</time></trkpt><trkpt lat="43.469071805222036" lon="11.117085300742124"><ele>142.0</ele><time>2026-05-04T10:47:25.001Z</time></trkpt><trkpt lat="43.46915786807275" lon="11.117039067902352"><ele>140.5</ele><time>2026-05-04T10:47:26.001Z</time></trkpt><trkpt lat="43.469228919888565" lon="11.116972844897141"><ele>139.0</ele><time>2026-05-04T10:47:27.001Z</time></trkpt><trkpt lat="43.46929593856207" lon="11.116907035966353"><ele>137.5</ele><time>2026-05-04T10:47:28.001Z</time></trkpt><trkpt lat="43.469356342668576" lon="11.116818748629663"><ele>136.0</ele><time>2026-05-04T10:47:29.001Z</time></trkpt><trkpt lat="43.469418521796506" lon="11.116760871894483"><ele>136.0</ele><time>2026-05-04T10:47:30.001Z</time></trkpt><trkpt lat="43.46949335074412" lon="11.11672552899343"><ele>136.0</ele><time>2026-05-04T10:47:31.001Z</time></trkpt><trkpt lat="43.46960042975171" lon="11.116777154700877"><ele>136.0</ele><time>2026-05-04T10:47:33.001Z</time></trkpt><trkpt lat="43.46965396869076" lon="11.116826587561983"><ele>136.0</ele><time>2026-05-04T10:47:34.001Z</time></trkpt><trkpt lat="43.469687921876265" lon="11.116924862441735"><ele>136.0</ele><time>2026-05-04T10:47:35.001Z</time></trkpt><trkpt lat="43.469719586548536" lon="11.117046756182635"><ele>136.0</ele><time>2026-05-04T10:47:36.001Z</time></trkpt><trkpt lat="43.46974887176191" lon="11.117165872170723"><ele>136.8</ele><time>2026-05-04T10:47:37.001Z</time></trkpt><trkpt lat="43.46978521246877" lon="11.117276824064446"><ele>137.6</ele><time>2026-05-04T10:47:38.001Z</time></trkpt><trkpt lat="43.46983236346382" lon="11.117385997031247"><ele>138.4</ele><time>2026-05-04T10:47:39.001Z</time></trkpt><trkpt lat="43.469888585004014" lon="11.117488112117133"><ele>139.2</ele><time>2026-05-04T10:47:40.001Z</time></trkpt><trkpt lat="43.469942024096916" lon="11.117589091577011"><ele>140.0</ele><time>2026-05-04T10:47:41.001Z</time></trkpt><trkpt lat="43.46998229124154" lon="11.117700359073915"><ele>140.0</ele><time>2026-05-04T10:47:42.001Z</time></trkpt><trkpt lat="43.469984539242766" lon="11.117807084522099"><ele>140.0</ele><time>2026-05-04T10:47:43.001Z</time></trkpt><trkpt lat="43.4699417495446" lon="11.117901617598593"><ele>140.0</ele><time>2026-05-04T10:47:44.001Z</time></trkpt><trkpt lat="43.469933554140795" lon="11.118009442862176"><ele>140.0</ele><time>2026-05-04T10:47:45.001Z</time></trkpt><trkpt lat="43.46993003174652" lon="11.118102095466126"><ele>140.0</ele><time>2026-05-04T10:47:46.001Z</time></trkpt><trkpt lat="43.46993625104729" lon="11.118197455725923"><ele>140.0</ele><time>2026-05-04T10:47:47.001Z</time></trkpt><trkpt lat="43.46999174129795" lon="11.118270634270166"><ele>138.0</ele><time>2026-05-04T10:47:48.001Z</time></trkpt><trkpt lat="43.47006661572287" lon="11.118319678188545"><ele>136.0</ele><time>2026-05-04T10:47:49.001Z</time></trkpt><trkpt lat="43.470149883299996" lon="11.118319205802905"><ele>134.0</ele><time>2026-05-04T10:47:50.001Z</time></trkpt><trkpt lat="43.47022203371985" lon="11.118288133743205"><ele>132.0</ele><time>2026-05-04T10:47:51.001Z</time></trkpt><trkpt lat="43.47029147983952" lon="11.11829144159396"><ele>130.0</ele><time>2026-05-04T10:47:52.001Z</time></trkpt><trkpt lat="43.47036750910024" lon="11.118269740381246"><ele>128.0</ele><time>2026-05-04T10:47:53.001Z</time></trkpt><trkpt lat="43.470444305648776" lon="11.118245867894801"><ele>133.4</ele><time>2026-05-04T10:47:54.001Z</time></trkpt><trkpt lat="43.470517315573474" lon="11.118203977533295"><ele>138.8</ele><time>2026-05-04T10:47:55.001Z</time></trkpt><trkpt lat="43.47059811978391" lon="11.118187473774993"><ele>144.2</ele><time>2026-05-04T10:47:56.001Z</time></trkpt><trkpt lat="43.470683375502176" lon="11.118175319196263"><ele>149.6</ele><time>2026-05-04T10:47:57.001Z</time></trkpt><trkpt lat="43.47078889461087" lon="11.118177974698234"><ele>155.0</ele><time>2026-05-04T10:47:58.001Z</time></trkpt><trkpt lat="43.47088979752874" lon="11.118185234993572"><ele>155.0</ele><time>2026-05-04T10:47:59.001Z</time></trkpt><trkpt lat="43.470996309093664" lon="11.11819916353914"><ele>155.0</ele><time>2026-05-04T10:48:00.001Z</time></trkpt><trkpt lat="43.47110053858411" lon="11.118210803327452"><ele>155.0</ele><time>2026-05-04T10:48:01.001Z</time></trkpt><trkpt lat="43.47120432437309" lon="11.118221228970889"><ele>155.0</ele><time>2026-05-04T10:48:02.001Z</time></trkpt><trkpt lat="43.47130352307704" lon="11.118238264580496"><ele>155.0</ele><time>2026-05-04T10:48:03Z</time></trkpt><trkpt lat="43.4714005283271" lon="11.118260780094257"><ele>149.83333333333331</ele><time>2026-05-04T10:48:04Z</time></trkpt><trkpt lat="43.471498693714764" lon="11.118278032527899"><ele>144.66666666666666</ele><time>2026-05-04T10:48:05Z</time></trkpt><trkpt lat="43.47158995579812" lon="11.118294470175604"><ele>139.5</ele><time>2026-05-04T10:48:06Z</time></trkpt><trkpt lat="43.47167395249654" lon="11.118312695734549"><ele>134.33333333333334</ele><time>2026-05-04T10:48:07Z</time></trkpt><trkpt lat="43.47175550676764" lon="11.118349082604034"><ele>129.16666666666669</ele><time>2026-05-04T10:48:08Z</time></trkpt><trkpt lat="43.47183431532526" lon="11.118386213379909"><ele>124.0</ele><time>2026-05-04T10:48:09Z</time></trkpt><trkpt lat="43.471909540569655" lon="11.118407838805954"><ele>124.00000000000001</ele><time>2026-05-04T10:48:10Z</time></trkpt><trkpt lat="43.47198092811556" lon="11.118434767357364"><ele>124.0</ele><time>2026-05-04T10:48:11Z</time></trkpt><trkpt lat="43.47206381643719" lon="11.118480070035337"><ele>124.0</ele><time>2026-05-04T10:48:12Z</time></trkpt><trkpt lat="43.472146268210324" lon="11.118527984625452"><ele>124.0</ele><time>2026-05-04T10:48:13Z</time></trkpt><trkpt lat="43.47222943205028" lon="11.118583173624785"><ele>124.00000000000001</ele><time>2026-05-04T10:48:14Z</time></trkpt><trkpt lat="43.47230016034229" lon="11.11865140596218"><ele>124.0</ele><time>2026-05-04T10:48:15Z</time></trkpt><trkpt lat="43.47236580317107" lon="11.118735912326478"><ele>121.2</ele><time>2026-05-04T10:48:16Z</time></trkpt><trkpt lat="43.47241437276684" lon="11.118830020562225"><ele>118.4</ele><time>2026-05-04T10:48:17Z</time></trkpt><trkpt lat="43.47245083581645" lon="11.11895360468135"><ele>115.6</ele><time>2026-05-04T10:48:18Z</time></trkpt><trkpt lat="43.472450262769414" lon="11.119071667990685"><ele>112.8</ele><time>2026-05-04T10:48:19Z</time></trkpt><trkpt lat="43.47246989707166" lon="11.119188905178316"><ele>110.0</ele><time>2026-05-04T10:48:20Z</time></trkpt><trkpt lat="43.472510526038896" lon="11.119309575917972"><ele>110.0</ele><time>2026-05-04T10:48:21Z</time></trkpt><trkpt lat="43.4725270992244" lon="11.119436968827149"><ele>110.0</ele><time>2026-05-04T10:48:22Z</time></trkpt><trkpt lat="43.47255805587532" lon="11.119548855729496"><ele>110.0</ele><time>2026-05-04T10:48:23Z</time></trkpt><trkpt lat="43.47259154621901" lon="11.119667597854606"><ele>110.0</ele><time>2026-05-04T10:48:24Z</time></trkpt><trkpt lat="43.47263494650369" lon="11.119781534443444"><ele>110.0</ele><time>2026-05-04T10:48:25Z</time></trkpt><trkpt lat="43.47268424574779" lon="11.119892533472997"><ele>107.66666666666666</ele><time>2026-05-04T10:48:26Z</time></trkpt><trkpt lat="43.47272825549571" lon="11.119992660779475"><ele>105.33333333333333</ele><time>2026-05-04T10:48:27Z</time></trkpt><trkpt lat="43.47276762835958" lon="11.120084439511174"><ele>103.0</ele><time>2026-05-04T10:48:28Z</time></trkpt><trkpt lat="43.47280726598442" lon="11.120174395234306"><ele>100.66666666666666</ele><time>2026-05-04T10:48:29Z</time></trkpt><trkpt lat="43.47283488296926" lon="11.120263442696608"><ele>98.33333333333333</ele><time>2026-05-04T10:48:30Z</time></trkpt><trkpt lat="43.472851715400324" lon="11.12036634526084"><ele>96.0</ele><time>2026-05-04T10:48:31Z</time></trkpt><trkpt lat="43.47283051922886" lon="11.120489669587755"><ele>96.0</ele><time>2026-05-04T10:48:32Z</time></trkpt><trkpt lat="43.4728198780211" lon="11.120652752106082"><ele>96.0</ele><time>2026-05-04T10:48:33Z</time></trkpt><trkpt lat="43.47282686509313" lon="11.12084753945282"><ele>96.0</ele><time>2026-05-04T10:48:34Z</time></trkpt><trkpt lat="43.472815282684074" lon="11.121059427985825"><ele>96.0</ele><time>2026-05-04T10:48:35Z</time></trkpt><trkpt lat="43.47280391383952" lon="11.12129166263701"><ele>94.33333333333333</ele><time>2026-05-04T10:48:36Z</time></trkpt><trkpt lat="43.47276066767616" lon="11.121527016260242"><ele>92.66666666666666</ele><time>2026-05-04T10:48:37Z</time></trkpt><trkpt lat="43.47270708801227" lon="11.121764338061316"><ele>91.0</ele><time>2026-05-04T10:48:38Z</time></trkpt><trkpt lat="43.472626625092396" lon="11.12196562961364"><ele>91.0</ele><time>2026-05-04T10:48:39Z</time></trkpt><trkpt lat="43.47255230262914" lon="11.122181141148928"><ele>91.0</ele><time>2026-05-04T10:48:40Z</time></trkpt><trkpt lat="43.47242880009782" lon="11.122354690819211"><ele>91.0</ele><time>2026-05-04T10:48:41Z</time></trkpt><trkpt lat="43.472298034597536" lon="11.12252705737981"><ele>90.66666666666666</ele><time>2026-05-04T10:48:42Z</time></trkpt><trkpt lat="43.47216175452735" lon="11.12265926613212"><ele>90.33333333333333</ele><time>2026-05-04T10:48:43Z</time></trkpt><trkpt lat="43.472001427476265" lon="11.12270108000758"><ele>90.0</ele><time>2026-05-04T10:48:44Z</time></trkpt><trkpt lat="43.47184312597708" lon="11.122786022288514"><ele>90.0</ele><time>2026-05-04T10:48:45Z</time></trkpt><trkpt lat="43.47168267910931" lon="11.122883205083925"><ele>90.0</ele><time>2026-05-04T10:48:46Z</time></trkpt><trkpt lat="43.47153505744982" lon="11.122971614081266"><ele>90.0</ele><time>2026-05-04T10:48:47Z</time></trkpt><trkpt lat="43.47140867014178" lon="11.123111851425948"><ele>90.66666666666667</ele><time>2026-05-04T10:48:48Z</time></trkpt><trkpt lat="43.47129297290817" lon="11.123297893502254"><ele>91.33333333333334</ele><time>2026-05-04T10:48:49Z</time></trkpt><trkpt lat="43.47120135557612" lon="11.123505724308878"><ele>92.0</ele><time>2026-05-04T10:48:50Z</time></trkpt><trkpt lat="43.47109859429677" lon="11.123727477763524"><ele>92.0</ele><time>2026-05-04T10:48:51Z</time></trkpt><trkpt lat="43.47098683796213" lon="11.123955632311457"><ele>92.0</ele><time>2026-05-04T10:48:52Z</time></trkpt><trkpt lat="43.47087653129434" lon="11.124179521780352"><ele>92.0</ele><time>2026-05-04T10:48:53Z</time></trkpt><trkpt lat="43.47076509382701" lon="11.124424369930095"><ele>91.66666666666667</ele><time>2026-05-04T10:48:54Z</time></trkpt><trkpt lat="43.47066610913812" lon="11.124672143998293"><ele>91.33333333333333</ele><time>2026-05-04T10:48:55Z</time></trkpt><trkpt lat="43.47057108866837" lon="11.124933872714827"><ele>91.0</ele><time>2026-05-04T10:48:56Z</time></trkpt><trkpt lat="43.47048129790695" lon="11.125200332722608"><ele>91.33333333333333</ele><time>2026-05-04T10:48:57Z</time></trkpt><trkpt lat="43.470394626883106" lon="11.125470020142131"><ele>91.66666666666667</ele><time>2026-05-04T10:48:58Z</time></trkpt><trkpt lat="43.470314958567705" lon="11.125722786449224"><ele>92.0</ele><time>2026-05-04T10:48:59Z</time></trkpt><trkpt lat="43.47023249469329" lon="11.125967695103506"><ele>92.33333333333334</ele><time>2026-05-04T10:49:00Z</time></trkpt><trkpt lat="43.47015449152355" lon="11.126195949617074"><ele>92.66666666666667</ele><time>2026-05-04T10:49:01Z</time></trkpt><trkpt lat="43.47008078765624" lon="11.126395448341844"><ele>93.0</ele><time>2026-05-04T10:49:02Z</time></trkpt><trkpt lat="43.470017803228394" lon="11.126572393443286"><ele>93.33333333333333</ele><time>2026-05-04T10:49:03Z</time></trkpt><trkpt lat="43.46996495114514" lon="11.126730204727899"><ele>93.66666666666667</ele><time>2026-05-04T10:49:04Z</time></trkpt><trkpt lat="43.469919102037345" lon="11.126854846069243"><ele>94.0</ele><time>2026-05-04T10:49:05Z</time></trkpt><trkpt lat="43.46986880479267" lon="11.126923847733725"><ele>94.33333333333334</ele><time>2026-05-04T10:49:06Z</time></trkpt><trkpt lat="43.46980846948201" lon="11.12697901619714"><ele>94.66666666666667</ele><time>2026-05-04T10:49:08Z</time></trkpt><trkpt lat="43.469749785432384" lon="11.126938082788216"><ele>95.0</ele><time>2026-05-04T10:49:10Z</time></trkpt><trkpt lat="43.46967907339981" lon="11.126936671265705"><ele>95.0</ele><time>2026-05-04T10:49:12Z</time></trkpt><trkpt lat="43.46959694180679" lon="11.126878996922711"><ele>95.0</ele><time>2026-05-04T10:49:14Z</time></trkpt><trkpt lat="43.46955539171177" lon="11.127102622834716"><ele>95.0</ele><time>2026-05-04T10:49:16Z</time></trkpt><trkpt lat="43.469588688514165" lon="11.127228918632374"><ele>95.0</ele><time>2026-05-04T10:49:17Z</time></trkpt><trkpt lat="43.46968134528746" lon="11.12733905662933"><ele>95.0</ele><time>2026-05-04T10:49:18Z</time></trkpt><trkpt lat="43.46975954949825" lon="11.12744485745602"><ele>95.0</ele><time>2026-05-04T10:49:19Z</time></trkpt><trkpt lat="43.46983331940293" lon="11.127546448237172"><ele>95.0</ele><time>2026-05-04T10:49:20Z</time></trkpt><trkpt lat="43.46990279754806" lon="11.127646074178868"><ele>95.0</ele><time>2026-05-04T10:49:21Z</time></trkpt><trkpt lat="43.469973131997044" lon="11.12774935005053"><ele>95.0</ele><time>2026-05-04T10:49:22Z</time></trkpt><trkpt lat="43.470043022776125" lon="11.127843400614685"><ele>95.0</ele><time>2026-05-04T10:49:23Z</time></trkpt><trkpt lat="43.47010296311606" lon="11.12793122873763"><ele>95.0</ele><time>2026-05-04T10:49:24Z</time></trkpt><trkpt lat="43.47016063577224" lon="11.12800808714329"><ele>95.0</ele><time>2026-05-04T10:49:25Z</time></trkpt><trkpt lat="43.47020922756117" lon="11.128075915124978"><ele>95.0</ele><time>2026-05-04T10:49:26Z</time></trkpt><trkpt lat="43.47025231501115" lon="11.128257278775537"><ele>95.0</ele><time>2026-05-04T10:49:28Z</time></trkpt><trkpt lat="43.470233487000556" lon="11.12837446920653"><ele>95.4</ele><time>2026-05-04T10:49:29Z</time></trkpt><trkpt lat="43.47025516532238" lon="11.128469091520074"><ele>95.8</ele><time>2026-05-04T10:49:30Z</time></trkpt><trkpt lat="43.47013897784481" lon="11.12857418043481"><ele>96.19999999999999</ele><time>2026-05-04T10:49:31Z</time></trkpt><trkpt lat="43.470061696671976" lon="11.128620244332392"><ele>96.6</ele><time>2026-05-04T10:49:32Z</time></trkpt><trkpt lat="43.46998478626811" lon="11.128704970471695"><ele>97.0</ele><time>2026-05-04T10:49:33Z</time></trkpt><trkpt lat="43.46989614473909" lon="11.128768514432373"><ele>97.0</ele><time>2026-05-04T10:49:34.001Z</time></trkpt><trkpt lat="43.46981335159024" lon="11.128857373429954"><ele>97.0</ele><time>2026-05-04T10:49:35.001Z</time></trkpt><trkpt lat="43.469743385158395" lon="11.128982645960292"><ele>97.0</ele><time>2026-05-04T10:49:36.001Z</time></trkpt><trkpt lat="43.46968709809989" lon="11.129142188403543"><ele>97.0</ele><time>2026-05-04T10:49:37.001Z</time></trkpt><trkpt lat="43.469657360576335" lon="11.129322604747882"><ele>96.0</ele><time>2026-05-04T10:49:38.001Z</time></trkpt><trkpt lat="43.4696548909465" lon="11.129502824712553"><ele>95.0</ele><time>2026-05-04T10:49:39.001Z</time></trkpt><trkpt lat="43.46967167152987" lon="11.129701418398518"><ele>94.0</ele><time>2026-05-04T10:49:40.001Z</time></trkpt><trkpt lat="43.46967024309791" lon="11.129942275825828"><ele>94.0</ele><time>2026-05-04T10:49:41.001Z</time></trkpt><trkpt lat="43.46967678399513" lon="11.13020607561421"><ele>94.0</ele><time>2026-05-04T10:49:42.001Z</time></trkpt><trkpt lat="43.469684405288284" lon="11.13047972179316"><ele>94.0</ele><time>2026-05-04T10:49:43.001Z</time></trkpt><trkpt lat="43.46969154938902" lon="11.130763195004672"><ele>94.0</ele><time>2026-05-04T10:49:44.001Z</time></trkpt><trkpt lat="43.4696981941354" lon="11.131054614565107"><ele>94.0</ele><time>2026-05-04T10:49:45.001Z</time></trkpt><trkpt lat="43.469697434172744" lon="11.131349448482586"><ele>94.0</ele><time>2026-05-04T10:49:46.001Z</time></trkpt><trkpt lat="43.469674958528586" lon="11.131654709564021"><ele>93.66666666666666</ele><time>2026-05-04T10:49:47.001Z</time></trkpt><trkpt lat="43.469655034759406" lon="11.131961094324419"><ele>93.33333333333333</ele><time>2026-05-04T10:49:48.001Z</time></trkpt><trkpt lat="43.46961108733536" lon="11.132258832123753"><ele>93.0</ele><time>2026-05-04T10:49:49.001Z</time></trkpt><trkpt lat="43.46956467745373" lon="11.132562277031434"><ele>93.0</ele><time>2026-05-04T10:49:50.001Z</time></trkpt><trkpt lat="43.469522037788245" lon="11.132865937375835"><ele>93.0</ele><time>2026-05-04T10:49:51.001Z</time></trkpt><trkpt lat="43.469482791791854" lon="11.133171118313962"><ele>93.0</ele><time>2026-05-04T10:49:52.001Z</time></trkpt><trkpt lat="43.46942482042299" lon="11.13346340197511"><ele>93.0</ele><time>2026-05-04T10:49:53.001Z</time></trkpt><trkpt lat="43.46940082610144" lon="11.133748402959103"><ele>93.0</ele><time>2026-05-04T10:49:54.001Z</time></trkpt><trkpt lat="43.46936541644398" lon="11.134002998719138"><ele>93.0</ele><time>2026-05-04T10:49:55.001Z</time></trkpt><trkpt lat="43.46932669524049" lon="11.13425514816297"><ele>92.75</ele><time>2026-05-04T10:49:56.001Z</time></trkpt><trkpt lat="43.46929461704433" lon="11.134474864956328"><ele>92.5</ele><time>2026-05-04T10:49:57.001Z</time></trkpt><trkpt lat="43.46924087521765" lon="11.134660727705246"><ele>92.25</ele><time>2026-05-04T10:49:58.001Z</time></trkpt><trkpt lat="43.46920349233478" lon="11.134833408183194"><ele>92.0</ele><time>2026-05-04T10:49:59.001Z</time></trkpt><trkpt lat="43.469174159888404" lon="11.135011331749167"><ele>92.0</ele><time>2026-05-04T10:50:00.001Z</time></trkpt><trkpt lat="43.46912065031227" lon="11.13519294332868"><ele>92.0</ele><time>2026-05-04T10:50:01.001Z</time></trkpt><trkpt lat="43.46907090593797" lon="11.135371394633173"><ele>92.0</ele><time>2026-05-04T10:50:02.001Z</time></trkpt><trkpt lat="43.46901656956337" lon="11.135549131698784"><ele>92.0</ele><time>2026-05-04T10:50:03.001Z</time></trkpt><trkpt lat="43.46895653727974" lon="11.135744558816022"><ele>92.0</ele><time>2026-05-04T10:50:04.001Z</time></trkpt><trkpt lat="43.46888806678555" lon="11.13595514130334"><ele>92.0</ele><time>2026-05-04T10:50:05.001Z</time></trkpt><trkpt lat="43.46881213452415" lon="11.136179683366592"><ele>92.0</ele><time>2026-05-04T10:50:06.001Z</time></trkpt><trkpt lat="43.468732297051666" lon="11.136412060972106"><ele>93.0</ele><time>2026-05-04T10:50:07.001Z</time></trkpt><trkpt lat="43.46864348685594" lon="11.136659925416561"><ele>94.0</ele><time>2026-05-04T10:50:08.001Z</time></trkpt><trkpt lat="43.46856246737085" lon="11.136910125332651"><ele>95.0</ele><time>2026-05-04T10:50:08.999Z</time></trkpt><trkpt lat="43.46845913211232" lon="11.137161351732319"><ele>95.33333333333334</ele><time>2026-05-04T10:50:09.999Z</time></trkpt><trkpt lat="43.468373523164296" lon="11.137429417202894"><ele>95.66666666666667</ele><time>2026-05-04T10:50:10.999Z</time></trkpt><trkpt lat="43.46828636420194" lon="11.137702232194014"><ele>96.0</ele><time>2026-05-04T10:50:11.999Z</time></trkpt><trkpt lat="43.468195248144575" lon="11.137977849291024"><ele>95.66666666666667</ele><time>2026-05-04T10:50:12.999Z</time></trkpt><trkpt lat="43.46812375393808" lon="11.13823365950526"><ele>95.33333333333334</ele><time>2026-05-04T10:50:13.999Z</time></trkpt><trkpt lat="43.468000585460956" lon="11.138460386906619"><ele>95.0</ele><time>2026-05-04T10:50:14.999Z</time></trkpt><trkpt lat="43.46786295986101" lon="11.13867637232711"><ele>95.0</ele><time>2026-05-04T10:50:15.999Z</time></trkpt><trkpt lat="43.467722810030146" lon="11.138886674544468"><ele>95.0</ele><time>2026-05-04T10:50:16.999Z</time></trkpt><trkpt lat="43.46757872641943" lon="11.139110189398503"><ele>95.0</ele><time>2026-05-04T10:50:17.999Z</time></trkpt><trkpt lat="43.46744714345586" lon="11.139326691304687"><ele>95.0</ele><time>2026-05-04T10:50:18.999Z</time></trkpt><trkpt lat="43.46734148405677" lon="11.139512834492653"><ele>95.0</ele><time>2026-05-04T10:50:20Z</time></trkpt><trkpt lat="43.46725476851632" lon="11.139686248233645"><ele>95.0</ele><time>2026-05-04T10:50:21Z</time></trkpt><trkpt lat="43.467193639498355" lon="11.139858163442163"><ele>95.25</ele><time>2026-05-04T10:50:22Z</time></trkpt><trkpt lat="43.46716406708171" lon="11.140039798781478"><ele>95.5</ele><time>2026-05-04T10:50:23Z</time></trkpt><trkpt lat="43.467150686355254" lon="11.140235059423167"><ele>95.75</ele><time>2026-05-04T10:50:24Z</time></trkpt><trkpt lat="43.467144902658134" lon="11.140404238131156"><ele>96.0</ele><time>2026-05-04T10:50:25Z</time></trkpt><trkpt lat="43.4671314255902" lon="11.140551607374872"><ele>96.0</ele><time>2026-05-04T10:50:26Z</time></trkpt><trkpt lat="43.46710462061634" lon="11.140665053939653"><ele>96.0</ele><time>2026-05-04T10:50:27Z</time></trkpt><trkpt lat="43.467061139790744" lon="11.140741182042131"><ele>96.0</ele><time>2026-05-04T10:50:28Z</time></trkpt><trkpt lat="43.467026061694085" lon="11.140849429047691"><ele>96.0</ele><time>2026-05-04T10:50:30Z</time></trkpt><trkpt lat="43.46709196420454" lon="11.141017505686253"><ele>96.0</ele><time>2026-05-04T10:50:32Z</time></trkpt><trkpt lat="43.46713705453952" lon="11.14111663132258"><ele>96.0</ele><time>2026-05-04T10:50:33Z</time></trkpt><trkpt lat="43.467192312760965" lon="11.14122779009306"><ele>96.0</ele><time>2026-05-04T10:50:34Z</time></trkpt><trkpt lat="43.46725343737913" lon="11.141355313610278"><ele>96.0</ele><time>2026-05-04T10:50:35Z</time></trkpt><trkpt lat="43.46731521982386" lon="11.141488093489714"><ele>96.0</ele><time>2026-05-04T10:50:36Z</time></trkpt><trkpt lat="43.4673809403393" lon="11.141628658543608"><ele>96.0</ele><time>2026-05-04T10:50:37Z</time></trkpt><trkpt lat="43.467441215868675" lon="11.141760921594534"><ele>96.0</ele><time>2026-05-04T10:50:38Z</time></trkpt><trkpt lat="43.467469694454664" lon="11.141924750128283"><ele>96.0</ele><time>2026-05-04T10:50:39Z</time></trkpt><trkpt lat="43.46752817547218" lon="11.142088774712617"><ele>96.0</ele><time>2026-05-04T10:50:40Z</time></trkpt><trkpt lat="43.46756327767542" lon="11.142273981710401"><ele>96.0</ele><time>2026-05-04T10:50:41Z</time></trkpt><trkpt lat="43.46760789272826" lon="11.142444866539254"><ele>96.0</ele><time>2026-05-04T10:50:42Z</time></trkpt><trkpt lat="43.4676506566219" lon="11.142602333010402"><ele>96.0</ele><time>2026-05-04T10:50:43Z</time></trkpt><trkpt lat="43.467688559544776" lon="11.142746267118607"><ele>96.0</ele><time>2026-05-04T10:50:44Z</time></trkpt><trkpt lat="43.467719034899496" lon="11.142871057842752"><ele>96.0</ele><time>2026-05-04T10:50:45Z</time></trkpt><trkpt lat="43.46775004708577" lon="11.142992265572301"><ele>96.0</ele><time>2026-05-04T10:50:46Z</time></trkpt><trkpt lat="43.46777704756418" lon="11.143092077006703"><ele>96.0</ele><time>2026-05-04T10:50:47Z</time></trkpt><trkpt lat="43.46779907998951" lon="11.143187372572191"><ele>96.0</ele><time>2026-05-04T10:50:48Z</time></trkpt><trkpt lat="43.46782201946573" lon="11.143288930875277"><ele>96.0</ele><time>2026-05-04T10:50:49Z</time></trkpt><trkpt lat="43.4678056306799" lon="11.143438808089934"><ele>96.0</ele><time>2026-05-04T10:50:51Z</time></trkpt><trkpt lat="43.46772114247304" lon="11.143528907369843"><ele>96.0</ele><time>2026-05-04T10:50:53Z</time></trkpt><trkpt lat="43.4676518308272" lon="11.143574341168542"><ele>96.0</ele><time>2026-05-04T10:50:54Z</time></trkpt><trkpt lat="43.4675692925643" lon="11.143625223219784"><ele>97.0</ele><time>2026-05-04T10:50:55Z</time></trkpt><trkpt lat="43.46747070622169" lon="11.14369308450914"><ele>98.0</ele><time>2026-05-04T10:50:56Z</time></trkpt><trkpt lat="43.46736040544125" lon="11.143763613821069"><ele>99.0</ele><time>2026-05-04T10:50:57Z</time></trkpt><trkpt lat="43.467256714544924" lon="11.143831530419867"><ele>100.0</ele><time>2026-05-04T10:50:58Z</time></trkpt><trkpt lat="43.467160196604084" lon="11.143900475434618"><ele>99.8</ele><time>2026-05-04T10:50:59Z</time></trkpt><trkpt lat="43.46706475769874" lon="11.143969768905713"><ele>99.6</ele><time>2026-05-04T10:51:00Z</time></trkpt><trkpt lat="43.46696763567123" lon="11.144032898221765"><ele>99.4</ele><time>2026-05-04T10:51:01Z</time></trkpt><trkpt lat="43.4668696474193" lon="11.144092922641109"><ele>99.2</ele><time>2026-05-04T10:51:02Z</time></trkpt><trkpt lat="43.46677112522956" lon="11.144152718014242"><ele>99.0</ele><time>2026-05-04T10:51:03Z</time></trkpt><trkpt lat="43.466671237431406" lon="11.144210873451067"><ele>99.5</ele><time>2026-05-04T10:51:04Z</time></trkpt><trkpt lat="43.46656560850793" lon="11.144263207105448"><ele>100.0</ele><time>2026-05-04T10:51:05Z</time></trkpt><trkpt lat="43.466461597078435" lon="11.144312766911852"><ele>100.5</ele><time>2026-05-04T10:51:06Z</time></trkpt><trkpt lat="43.46635118531408" lon="11.144363147973008"><ele>101.0</ele><time>2026-05-04T10:51:07Z</time></trkpt><trkpt lat="43.46623777832964" lon="11.144411142026591"><ele>101.5</ele><time>2026-05-04T10:51:08Z</time></trkpt><trkpt lat="43.466117556343015" lon="11.14446549325768"><ele>102.0</ele><time>2026-05-04T10:51:09Z</time></trkpt><trkpt lat="43.465988037968174" lon="11.144530198870605"><ele>102.5</ele><time>2026-05-04T10:51:10Z</time></trkpt><trkpt lat="43.4658526127975" lon="11.144594451845109"><ele>103.0</ele><time>2026-05-04T10:51:11Z</time></trkpt><trkpt lat="43.46571222718774" lon="11.144664409011208"><ele>103.0</ele><time>2026-05-04T10:51:12Z</time></trkpt><trkpt lat="43.4655557022305" lon="11.14472115703506"><ele>103.0</ele><time>2026-05-04T10:51:13Z</time></trkpt><trkpt lat="43.46540300197764" lon="11.144791888129417"><ele>103.0</ele><time>2026-05-04T10:51:14Z</time></trkpt><trkpt lat="43.465253898037574" lon="11.144881881766599"><ele>106.0</ele><time>2026-05-04T10:51:15Z</time></trkpt><trkpt lat="43.465107137704706" lon="11.144933715244086"><ele>109.0</ele><time>2026-05-04T10:51:16Z</time></trkpt><trkpt lat="43.464976780223516" lon="11.144996021193954"><ele>112.0</ele><time>2026-05-04T10:51:17Z</time></trkpt><trkpt lat="43.464798448850956" lon="11.145052606762121"><ele>117.33333333333334</ele><time>2026-05-04T10:51:18Z</time></trkpt><trkpt lat="43.46460970441938" lon="11.145125298864613"><ele>122.66666666666666</ele><time>2026-05-04T10:51:19Z</time></trkpt><trkpt lat="43.464412124944474" lon="11.1452068204403"><ele>128.0</ele><time>2026-05-04T10:51:20Z</time></trkpt><trkpt lat="43.464200417210954" lon="11.145273409347846"><ele>128.0</ele><time>2026-05-04T10:51:21Z</time></trkpt><trkpt lat="43.46397974896697" lon="11.145351540660654"><ele>128.0</ele><time>2026-05-04T10:51:22Z</time></trkpt><trkpt lat="43.4637570381614" lon="11.14543377862593"><ele>139.5</ele><time>2026-05-04T10:51:23Z</time></trkpt><trkpt lat="43.46352780230076" lon="11.145523249429443"><ele>151.0</ele><time>2026-05-04T10:51:24Z</time></trkpt><trkpt lat="43.46330320757441" lon="11.145610645876605"><ele>151.0</ele><time>2026-05-04T10:51:25Z</time></trkpt><trkpt lat="43.463069777025645" lon="11.145697203136574"><ele>151.0</ele><time>2026-05-04T10:51:26Z</time></trkpt><trkpt lat="43.46284474954909" lon="11.145781486626186"><ele>144.0</ele><time>2026-05-04T10:51:27Z</time></trkpt><trkpt lat="43.462618294682485" lon="11.145860832665251"><ele>137.0</ele><time>2026-05-04T10:51:28Z</time></trkpt><trkpt lat="43.46239971117691" lon="11.14593874730374"><ele>137.0</ele><time>2026-05-04T10:51:29Z</time></trkpt><trkpt lat="43.462183885187414" lon="11.146017905303365"><ele>137.0</ele><time>2026-05-04T10:51:30Z</time></trkpt><trkpt lat="43.4619831200121" lon="11.146096501102672"><ele>137.0</ele><time>2026-05-04T10:51:31Z</time></trkpt><trkpt lat="43.46177024492934" lon="11.146179252660724"><ele>139.66666666666666</ele><time>2026-05-04T10:51:32Z</time></trkpt><trkpt lat="43.46157174001769" lon="11.146266708886555"><ele>142.33333333333334</ele><time>2026-05-04T10:51:33Z</time></trkpt><trkpt lat="43.461366793820396" lon="11.146316103500173"><ele>145.0</ele><time>2026-05-04T10:51:34Z</time></trkpt><trkpt lat="43.461172268497634" lon="11.146388416198393"><ele>149.0</ele><time>2026-05-04T10:51:35Z</time></trkpt><trkpt lat="43.460988697520975" lon="11.146480564392292"><ele>153.0</ele><time>2026-05-04T10:51:36Z</time></trkpt><trkpt lat="43.46082326758507" lon="11.146540640717108"><ele>157.0</ele><time>2026-05-04T10:51:37Z</time></trkpt><trkpt lat="43.460667083822216" lon="11.146630973724847"><ele>157.0</ele><time>2026-05-04T10:51:38Z</time></trkpt><trkpt lat="43.4605408637802" lon="11.14672796034835"><ele>157.0</ele><time>2026-05-04T10:51:39Z</time></trkpt><trkpt lat="43.460424725163435" lon="11.146810359402773"><ele>157.0</ele><time>2026-05-04T10:51:40Z</time></trkpt><trkpt lat="43.46031535000972" lon="11.14691278668134"><ele>157.0</ele><time>2026-05-04T10:51:41Z</time></trkpt><trkpt lat="43.4601769460371" lon="11.1470153307242"><ele>156.33333333333334</ele><time>2026-05-04T10:51:42Z</time></trkpt><trkpt lat="43.460024232155554" lon="11.147147434205037"><ele>155.66666666666666</ele><time>2026-05-04T10:51:43Z</time></trkpt><trkpt lat="43.459856061111935" lon="11.147292908724996"><ele>155.0</ele><time>2026-05-04T10:51:44.001Z</time></trkpt><trkpt lat="43.45968329102786" lon="11.14746005246638"><ele>159.0</ele><time>2026-05-04T10:51:45.001Z</time></trkpt><trkpt lat="43.45949978536862" lon="11.147619707455561"><ele>163.0</ele><time>2026-05-04T10:51:46.001Z</time></trkpt><trkpt lat="43.45931850157418" lon="11.14779419500818"><ele>167.0</ele><time>2026-05-04T10:51:47.001Z</time></trkpt><trkpt lat="43.45914719992807" lon="11.14798007654828"><ele>167.0</ele><time>2026-05-04T10:51:48.001Z</time></trkpt><trkpt lat="43.45899428889579" lon="11.14819866071973"><ele>167.0</ele><time>2026-05-04T10:51:49.001Z</time></trkpt><trkpt lat="43.45885119415683" lon="11.148431009413503"><ele>167.0</ele><time>2026-05-04T10:51:50.001Z</time></trkpt><trkpt lat="43.458716196530354" lon="11.14867623234001"><ele>171.5</ele><time>2026-05-04T10:51:51.001Z</time></trkpt><trkpt lat="43.45857305555876" lon="11.148930784676345"><ele>176.0</ele><time>2026-05-04T10:51:52.001Z</time></trkpt><trkpt lat="43.458427009197024" lon="11.149181188624356"><ele>176.0</ele><time>2026-05-04T10:51:53.001Z</time></trkpt><trkpt lat="43.458278151691665" lon="11.149414965749044"><ele>176.0</ele><time>2026-05-04T10:51:54.001Z</time></trkpt><trkpt lat="43.45814412725316" lon="11.149639228909349"><ele>176.0</ele><time>2026-05-04T10:51:55.001Z</time></trkpt><trkpt lat="43.45802055912895" lon="11.149844578096314"><ele>175.33333333333331</ele><time>2026-05-04T10:51:56.001Z</time></trkpt><trkpt lat="43.45789856312732" lon="11.150042003196733"><ele>174.66666666666666</ele><time>2026-05-04T10:51:57.001Z</time></trkpt><trkpt lat="43.45778279869476" lon="11.150231479884786"><ele>174.0</ele><time>2026-05-04T10:51:58.001Z</time></trkpt><trkpt lat="43.457663754662356" lon="11.15042712986657"><ele>174.0</ele><time>2026-05-04T10:51:59.001Z</time></trkpt><trkpt lat="43.45755332237101" lon="11.150612856496721"><ele>174.0</ele><time>2026-05-04T10:52:00.001Z</time></trkpt><trkpt lat="43.45744426303768" lon="11.150802893692651"><ele>174.0</ele><time>2026-05-04T10:52:01.001Z</time></trkpt><trkpt lat="43.457343252264955" lon="11.150982026175017"><ele>173.75</ele><time>2026-05-04T10:52:02.001Z</time></trkpt><trkpt lat="43.457238958402534" lon="11.151151946737123"><ele>173.5</ele><time>2026-05-04T10:52:03.001Z</time></trkpt><trkpt lat="43.45714606190895" lon="11.151305783062183"><ele>173.25</ele><time>2026-05-04T10:52:04.001Z</time></trkpt><trkpt lat="43.457056129593845" lon="11.151448146307343"><ele>173.0</ele><time>2026-05-04T10:52:05.001Z</time></trkpt><trkpt lat="43.456976036249806" lon="11.151586982354813"><ele>168.5</ele><time>2026-05-04T10:52:06.001Z</time></trkpt><trkpt lat="43.45689262066273" lon="11.151719169855252"><ele>164.0</ele><time>2026-05-04T10:52:07.001Z</time></trkpt><trkpt lat="43.45679710850337" lon="11.151839347954146"><ele>159.5</ele><time>2026-05-04T10:52:08.001Z</time></trkpt><trkpt lat="43.45667466451158" lon="11.151929607647459"><ele>155.0</ele><time>2026-05-04T10:52:09.001Z</time></trkpt><trkpt lat="43.45652033132758" lon="11.151938178211225"><ele>155.0</ele><time>2026-05-04T10:52:10.001Z</time></trkpt><trkpt lat="43.456382537145025" lon="11.151896828435708"><ele>155.0</ele><time>2026-05-04T10:52:11.001Z</time></trkpt><trkpt lat="43.45623598156699" lon="11.151792013486578"><ele>155.0</ele><time>2026-05-04T10:52:12.001Z</time></trkpt><trkpt lat="43.456082330020934" lon="11.151668735239873"><ele>158.0</ele><time>2026-05-04T10:52:13.001Z</time></trkpt><trkpt lat="43.455921579544025" lon="11.15153262501526"><ele>161.0</ele><time>2026-05-04T10:52:14.001Z</time></trkpt><trkpt lat="43.45575849290569" lon="11.151401064692191"><ele>164.0</ele><time>2026-05-04T10:52:14.999Z</time></trkpt><trkpt lat="43.455594855628185" lon="11.151280138047277"><ele>156.33333333333331</ele><time>2026-05-04T10:52:15.999Z</time></trkpt><trkpt lat="43.45543232966049" lon="11.151160751492071"><ele>148.66666666666666</ele><time>2026-05-04T10:52:16.999Z</time></trkpt><trkpt lat="43.45526821753396" lon="11.151039273212563"><ele>141.0</ele><time>2026-05-04T10:52:17.999Z</time></trkpt><trkpt lat="43.45510560153708" lon="11.15091740797902"><ele>141.0</ele><time>2026-05-04T10:52:18.999Z</time></trkpt><trkpt lat="43.454942681990744" lon="11.150770672096932"><ele>141.0</ele><time>2026-05-04T10:52:19.999Z</time></trkpt><trkpt lat="43.45475794315376" lon="11.150627460875063"><ele>141.0</ele><time>2026-05-04T10:52:20.999Z</time></trkpt><trkpt lat="43.454563496465006" lon="11.150476723968902"><ele>143.0</ele><time>2026-05-04T10:52:21.999Z</time></trkpt><trkpt lat="43.454383989077186" lon="11.15033592090998"><ele>145.0</ele><time>2026-05-04T10:52:22.999Z</time></trkpt><trkpt lat="43.45421286648224" lon="11.150217964274097"><ele>147.0</ele><time>2026-05-04T10:52:23.999Z</time></trkpt><trkpt lat="43.454068953568765" lon="11.15009810703634"><ele>147.0</ele><time>2026-05-04T10:52:24.999Z</time></trkpt><trkpt lat="43.45393243032281" lon="11.150016145676473"><ele>147.0</ele><time>2026-05-04T10:52:25.999Z</time></trkpt><trkpt lat="43.45379360598194" lon="11.149991367900142"><ele>147.0</ele><time>2026-05-04T10:52:26.999Z</time></trkpt><trkpt lat="43.45366390291502" lon="11.15003838884457"><ele>147.0</ele><time>2026-05-04T10:52:27.999Z</time></trkpt><trkpt lat="43.4535566132763" lon="11.150143089949573"><ele>143.25</ele><time>2026-05-04T10:52:28.999Z</time></trkpt><trkpt lat="43.45346348228875" lon="11.150289672875878"><ele>139.5</ele><time>2026-05-04T10:52:29.999Z</time></trkpt><trkpt lat="43.45337287396768" lon="11.150458635688555"><ele>135.75</ele><time>2026-05-04T10:52:30.999Z</time></trkpt><trkpt lat="43.453305889834844" lon="11.150645382942221"><ele>132.0</ele><time>2026-05-04T10:52:31.999Z</time></trkpt><trkpt lat="43.45323810084115" lon="11.150800303292316"><ele>130.79999999999998</ele><time>2026-05-04T10:52:32.999Z</time></trkpt><trkpt lat="43.453170121776786" lon="11.150935332447027"><ele>129.6</ele><time>2026-05-04T10:52:33.999Z</time></trkpt><trkpt lat="43.45310078442589" lon="11.151040496495968"><ele>128.39999999999998</ele><time>2026-05-04T10:52:34.999Z</time></trkpt><trkpt lat="43.45302052004168" lon="11.151106474658969"><ele>127.19999999999999</ele><time>2026-05-04T10:52:35.999Z</time></trkpt><trkpt lat="43.452951414353684" lon="11.15116955196452"><ele>126.0</ele><time>2026-05-04T10:52:36.999Z</time></trkpt><trkpt lat="43.45289362728544" lon="11.15131038695198"><ele>125.0</ele><time>2026-05-04T10:52:38.999Z</time></trkpt><trkpt lat="43.452836025839915" lon="11.151383499925084"><ele>124.0</ele><time>2026-05-04T10:52:39.999Z</time></trkpt><trkpt lat="43.45290077469649" lon="11.151563454770278"><ele>123.0</ele><time>2026-05-04T10:52:40.999Z</time></trkpt><trkpt lat="43.45293592874725" lon="11.151710520663245"><ele>122.0</ele><time>2026-05-04T10:52:42Z</time></trkpt><trkpt lat="43.45299736488885" lon="11.151857436870598"><ele>122.0</ele><time>2026-05-04T10:52:43Z</time></trkpt><trkpt lat="43.45308908154747" lon="11.152003229449742"><ele>122.0</ele><time>2026-05-04T10:52:44Z</time></trkpt><trkpt lat="43.45319495366219" lon="11.152145092121788"><ele>122.0</ele><time>2026-05-04T10:52:45Z</time></trkpt><trkpt lat="43.453318164910456" lon="11.152282196992072"><ele>122.0</ele><time>2026-05-04T10:52:46Z</time></trkpt><trkpt lat="43.45345061064792" lon="11.152392682197075"><ele>121.0</ele><time>2026-05-04T10:52:47Z</time></trkpt><trkpt lat="43.453571973866815" lon="11.152472228464568"><ele>119.99999999999999</ele><time>2026-05-04T10:52:48Z</time></trkpt><trkpt lat="43.45366894353449" lon="11.152556177182154"><ele>118.99999999999999</ele><time>2026-05-04T10:52:49Z</time></trkpt><trkpt lat="43.453726306044814" lon="11.152664735531006"><ele>118.0</ele><time>2026-05-04T10:52:50Z</time></trkpt><trkpt lat="43.45373696331342" lon="11.152770111995409"><ele>117.0</ele><time>2026-05-04T10:52:51Z</time></trkpt><trkpt lat="43.4537086273978" lon="11.152848928294759"><ele>117.0</ele><time>2026-05-04T10:52:52Z</time></trkpt><trkpt lat="43.453623169547114" lon="11.152982641752413"><ele>116.99999999999999</ele><time>2026-05-04T10:52:54Z</time></trkpt><trkpt lat="43.4535491453409" lon="11.153007684907731"><ele>116.99999999999999</ele><time>2026-05-04T10:52:55Z</time></trkpt><trkpt lat="43.4534688240498" lon="11.152979067481638"><ele>117.0</ele><time>2026-05-04T10:52:56Z</time></trkpt><trkpt lat="43.453382910058274" lon="11.15297124460726"><ele>117.0</ele><time>2026-05-04T10:52:57Z</time></trkpt><trkpt lat="43.4533075501127" lon="11.15282684594533"><ele>117.0</ele><time>2026-05-04T10:52:58Z</time></trkpt><trkpt lat="43.453245858194485" lon="11.15273491834166"><ele>117.0</ele><time>2026-05-04T10:52:59Z</time></trkpt><trkpt lat="43.45318758014421" lon="11.152655474056662"><ele>117.0</ele><time>2026-05-04T10:53:00Z</time></trkpt><trkpt lat="43.453127290186465" lon="11.152588730284906"><ele>117.0</ele><time>2026-05-04T10:53:01Z</time></trkpt><trkpt lat="43.45306704585699" lon="11.152522955841555"><ele>117.0</ele><time>2026-05-04T10:53:02Z</time></trkpt><trkpt lat="43.453014439694485" lon="11.152456349294651"><ele>117.0</ele><time>2026-05-04T10:53:03Z</time></trkpt><trkpt lat="43.45293352331068" lon="11.152356024820497"><ele>116.66666666666667</ele><time>2026-05-04T10:53:05Z</time></trkpt><trkpt lat="43.45286819127994" lon="11.15228845150257"><ele>116.33333333333334</ele><time>2026-05-04T10:53:07Z</time></trkpt><trkpt lat="43.452810657852446" lon="11.152248873358907"><ele>116.0</ele><time>2026-05-04T10:53:38Z</time></trkpt><trkpt lat="43.452742653502256" lon="11.152202828041467"><ele>115.66666666666667</ele><time>2026-05-04T10:53:39Z</time></trkpt><trkpt lat="43.45264943210148" lon="11.152165537977565"><ele>115.33333333333334</ele><time>2026-05-04T10:53:40Z</time></trkpt><trkpt lat="43.45254372448557" lon="11.152150648819648"><ele>115.0</ele><time>2026-05-04T10:53:41Z</time></trkpt><trkpt lat="43.45244249333227" lon="11.152153932751846"><ele>115.00000000000001</ele><time>2026-05-04T10:53:42Z</time></trkpt><trkpt lat="43.452349638245934" lon="11.15216319252315"><ele>115.0</ele><time>2026-05-04T10:53:43Z</time></trkpt><trkpt lat="43.45226509849343" lon="11.152172543773872"><ele>115.0</ele><time>2026-05-04T10:53:44Z</time></trkpt><trkpt lat="43.45218426179411" lon="11.15218122930542"><ele>115.0</ele><time>2026-05-04T10:53:45Z</time></trkpt><trkpt lat="43.45209524628981" lon="11.152191766558477"><ele>115.00000000000001</ele><time>2026-05-04T10:53:46Z</time></trkpt><trkpt lat="43.452004101109935" lon="11.15220186161287"><ele>115.0</ele><time>2026-05-04T10:53:47Z</time></trkpt><trkpt lat="43.45191382619642" lon="11.152210367822727"><ele>114.8</ele><time>2026-05-04T10:53:48Z</time></trkpt><trkpt lat="43.451820654371254" lon="11.152211537067746"><ele>114.6</ele><time>2026-05-04T10:53:49Z</time></trkpt><trkpt lat="43.45171418792934" lon="11.152197388726142"><ele>114.4</ele><time>2026-05-04T10:53:50Z</time></trkpt><trkpt lat="43.451614439953175" lon="11.152132472359707"><ele>114.2</ele><time>2026-05-04T10:53:51Z</time></trkpt><trkpt lat="43.45152182599697" lon="11.152046366777551"><ele>114.0</ele><time>2026-05-04T10:53:52Z</time></trkpt><trkpt lat="43.45144542033928" lon="11.15194619444101"><ele>114.0</ele><time>2026-05-04T10:53:53Z</time></trkpt><trkpt lat="43.451375514927136" lon="11.15185083884127"><ele>114.0</ele><time>2026-05-04T10:53:54.001Z</time></trkpt><trkpt lat="43.451302760952885" lon="11.1517717405085"><ele>114.0</ele><time>2026-05-04T10:53:55.001Z</time></trkpt><trkpt lat="43.451210829817406" lon="11.151709669292837"><ele>114.0</ele><time>2026-05-04T10:53:56.001Z</time></trkpt><trkpt lat="43.451113139874565" lon="11.151677750446538"><ele>114.0</ele><time>2026-05-04T10:53:57.001Z</time></trkpt><trkpt lat="43.45101494180557" lon="11.151675606240465"><ele>114.4</ele><time>2026-05-04T10:53:58.001Z</time></trkpt><trkpt lat="43.450920238037256" lon="11.151709807712363"><ele>114.80000000000001</ele><time>2026-05-04T10:53:59.001Z</time></trkpt><trkpt lat="43.45083300032961" lon="11.151782384946758"><ele>115.19999999999999</ele><time>2026-05-04T10:54:00.001Z</time></trkpt><trkpt lat="43.45076802644465" lon="11.151885539433168"><ele>115.6</ele><time>2026-05-04T10:54:01.001Z</time></trkpt><trkpt lat="43.45071985987183" lon="11.152005058791014"><ele>116.0</ele><time>2026-05-04T10:54:02.001Z</time></trkpt><trkpt lat="43.450696688715155" lon="11.152124688108593"><ele>116.0</ele><time>2026-05-04T10:54:03.001Z</time></trkpt><trkpt lat="43.450700099732856" lon="11.152252001355752"><ele>116.0</ele><time>2026-05-04T10:54:04.001Z</time></trkpt><trkpt lat="43.450728178106445" lon="11.152375064496045"><ele>116.0</ele><time>2026-05-04T10:54:05.001Z</time></trkpt><trkpt lat="43.45077462406888" lon="11.152486376376979"><ele>116.0</ele><time>2026-05-04T10:54:06.001Z</time></trkpt><trkpt lat="43.45083793358422" lon="11.152582812159611"><ele>116.0</ele><time>2026-05-04T10:54:07.001Z</time></trkpt><trkpt lat="43.4509141941731" lon="11.152661745082483"><ele>117.4</ele><time>2026-05-04T10:54:08.001Z</time></trkpt><trkpt lat="43.45099692895265" lon="11.152743040961045"><ele>118.8</ele><time>2026-05-04T10:54:09.001Z</time></trkpt><trkpt lat="43.4510655318074" lon="11.152847040232432"><ele>120.20000000000002</ele><time>2026-05-04T10:54:10.001Z</time></trkpt><trkpt lat="43.451099047540055" lon="11.152978031298623"><ele>121.60000000000001</ele><time>2026-05-04T10:54:11.001Z</time></trkpt><trkpt lat="43.451105114654034" lon="11.15312243729155"><ele>123.0</ele><time>2026-05-04T10:54:12.001Z</time></trkpt><trkpt lat="43.45108606479242" lon="11.153261510513001"><ele>123.80000000000001</ele><time>2026-05-04T10:54:13.001Z</time></trkpt><trkpt lat="43.45104260531682" lon="11.153390670109403"><ele>124.60000000000001</ele><time>2026-05-04T10:54:14.001Z</time></trkpt><trkpt lat="43.45098362271349" lon="11.153514797009388"><ele>125.39999999999999</ele><time>2026-05-04T10:54:15.001Z</time></trkpt><trkpt lat="43.45092098259617" lon="11.153631088716173"><ele>126.19999999999999</ele><time>2026-05-04T10:54:16.001Z</time></trkpt><trkpt lat="43.450858109297805" lon="11.153758033693535"><ele>127.0</ele><time>2026-05-04T10:54:17.001Z</time></trkpt><trkpt lat="43.45079617977136" lon="11.153903629155023"><ele>125.5</ele><time>2026-05-04T10:54:18.001Z</time></trkpt><trkpt lat="43.450731880389014" lon="11.154047938589184"><ele>124.0</ele><time>2026-05-04T10:54:19.001Z</time></trkpt><trkpt lat="43.4506492511074" lon="11.154177405193568"><ele>122.5</ele><time>2026-05-04T10:54:20.001Z</time></trkpt><trkpt lat="43.45058590963413" lon="11.154311086747635"><ele>121.0</ele><time>2026-05-04T10:54:21Z</time></trkpt><trkpt lat="43.45052688926217" lon="11.15442917577739"><ele>121.0</ele><time>2026-05-04T10:54:22Z</time></trkpt><trkpt lat="43.45047231448305" lon="11.154535470192693"><ele>121.0</ele><time>2026-05-04T10:54:23Z</time></trkpt><trkpt lat="43.45041366913617" lon="11.154632390316465"><ele>121.0</ele><time>2026-05-04T10:54:24Z</time></trkpt><trkpt lat="43.450399814864774" lon="11.154799273839588"><ele>121.0</ele><time>2026-05-04T10:54:25Z</time></trkpt><trkpt lat="43.45034329195526" lon="11.154935935955363"><ele>121.0</ele><time>2026-05-04T10:54:26Z</time></trkpt><trkpt lat="43.45024646407161" lon="11.155071984392679"><ele>125.66666666666667</ele><time>2026-05-04T10:54:27Z</time></trkpt><trkpt lat="43.450170047633826" lon="11.155230650178014"><ele>130.33333333333334</ele><time>2026-05-04T10:54:28Z</time></trkpt><trkpt lat="43.45006896463563" lon="11.15539632617961"><ele>135.0</ele><time>2026-05-04T10:54:29Z</time></trkpt><trkpt lat="43.44996236535093" lon="11.155576276870507"><ele>136.33333333333334</ele><time>2026-05-04T10:54:30Z</time></trkpt><trkpt lat="43.44984138224558" lon="11.155776567945843"><ele>137.66666666666669</ele><time>2026-05-04T10:54:31Z</time></trkpt><trkpt lat="43.4497277842735" lon="11.155969227461615"><ele>139.0</ele><time>2026-05-04T10:54:32Z</time></trkpt><trkpt lat="43.44960457934482" lon="11.156180397889388"><ele>140.0</ele><time>2026-05-04T10:54:33Z</time></trkpt><trkpt lat="43.44948048207626" lon="11.156394336649468"><ele>141.0</ele><time>2026-05-04T10:54:34Z</time></trkpt><trkpt lat="43.449361806796524" lon="11.15659853947178"><ele>142.0</ele><time>2026-05-04T10:54:35Z</time></trkpt><trkpt lat="43.449257340606025" lon="11.156767980568503"><ele>145.0</ele><time>2026-05-04T10:54:36Z</time></trkpt><trkpt lat="43.449140794338184" lon="11.156896429144124"><ele>148.0</ele><time>2026-05-04T10:54:37Z</time></trkpt><trkpt lat="43.44902676868085" lon="11.157021612144028"><ele>151.0</ele><time>2026-05-04T10:54:38Z</time></trkpt><trkpt lat="43.44891796649015" lon="11.157129296942738"><ele>154.0</ele><time>2026-05-04T10:54:39Z</time></trkpt><trkpt lat="43.44882757568109" lon="11.15723899537108"><ele>155.5</ele><time>2026-05-04T10:54:40Z</time></trkpt><trkpt lat="43.44873902659752" lon="11.157334238000127"><ele>157.0</ele><time>2026-05-04T10:54:41Z</time></trkpt><trkpt lat="43.448662045727986" lon="11.157447887886269"><ele>158.5</ele><time>2026-05-04T10:54:42Z</time></trkpt><trkpt lat="43.44859798705735" lon="11.15759222636361"><ele>160.0</ele><time>2026-05-04T10:54:43Z</time></trkpt><trkpt lat="43.44852212022097" lon="11.157756621072085"><ele>160.0</ele><time>2026-05-04T10:54:44Z</time></trkpt><trkpt lat="43.448465776866975" lon="11.157956241996438"><ele>160.0</ele><time>2026-05-04T10:54:45Z</time></trkpt><trkpt lat="43.448383333142715" lon="11.158121972123798"><ele>160.0</ele><time>2026-05-04T10:54:46Z</time></trkpt><trkpt lat="43.44827060131324" lon="11.158214097550438"><ele>160.0</ele><time>2026-05-04T10:54:47Z</time></trkpt><trkpt lat="43.448161276195215" lon="11.158316054984962"><ele>161.66666666666669</ele><time>2026-05-04T10:54:48Z</time></trkpt><trkpt lat="43.44802909994189" lon="11.158430736234777"><ele>163.33333333333334</ele><time>2026-05-04T10:54:49Z</time></trkpt><trkpt lat="43.44788882010749" lon="11.158546100202784"><ele>165.0</ele><time>2026-05-04T10:54:50Z</time></trkpt><trkpt lat="43.44774269465647" lon="11.158658092289375"><ele>165.0</ele><time>2026-05-04T10:54:51Z</time></trkpt><trkpt lat="43.44759356325605" lon="11.158792138162982"><ele>165.0</ele><time>2026-05-04T10:54:52Z</time></trkpt><trkpt lat="43.44743466494977" lon="11.158912186953556"><ele>165.0</ele><time>2026-05-04T10:54:53Z</time></trkpt><trkpt lat="43.447278579963196" lon="11.159028326286968"><ele>168.75</ele><time>2026-05-04T10:54:54Z</time></trkpt><trkpt lat="43.447129645902365" lon="11.159135792946302"><ele>172.5</ele><time>2026-05-04T10:54:55Z</time></trkpt><trkpt lat="43.44700815217503" lon="11.159219424226816"><ele>176.25</ele><time>2026-05-04T10:54:56Z</time></trkpt><trkpt lat="43.446904514001396" lon="11.159294704857414"><ele>180.0</ele><time>2026-05-04T10:54:57Z</time></trkpt><trkpt lat="43.446822992728386" lon="11.159369709232445"><ele>180.0</ele><time>2026-05-04T10:54:58Z</time></trkpt><trkpt lat="43.44674488426693" lon="11.159473817230651"><ele>180.0</ele><time>2026-05-04T10:54:59Z</time></trkpt><trkpt lat="43.446661521304435" lon="11.159595968068606"><ele>180.0</ele><time>2026-05-04T10:55:00Z</time></trkpt><trkpt lat="43.44655433164681" lon="11.159708145370965"><ele>180.0</ele><time>2026-05-04T10:55:01Z</time></trkpt><trkpt lat="43.44644952914078" lon="11.15983137840463"><ele>182.25</ele><time>2026-05-04T10:55:02Z</time></trkpt><trkpt lat="43.44632706639746" lon="11.159910408835843"><ele>184.5</ele><time>2026-05-04T10:55:03Z</time></trkpt><trkpt lat="43.44619948272442" lon="11.159967420653803"><ele>186.75</ele><time>2026-05-04T10:55:04Z</time></trkpt><trkpt lat="43.446066294401284" lon="11.160020827475755"><ele>189.0</ele><time>2026-05-04T10:55:05Z</time></trkpt><trkpt lat="43.44594832390265" lon="11.160075935215296"><ele>189.0</ele><time>2026-05-04T10:55:06Z</time></trkpt><trkpt lat="43.44585458656416" lon="11.160123153320415"><ele>189.0</ele><time>2026-05-04T10:55:07Z</time></trkpt><trkpt lat="43.445778475851476" lon="11.160200815748047"><ele>189.0</ele><time>2026-05-04T10:55:08Z</time></trkpt><trkpt lat="43.44571718082954" lon="11.160307731730423"><ele>189.0</ele><time>2026-05-04T10:55:09.001Z</time></trkpt><trkpt lat="43.44567158978848" lon="11.160433498184275"><ele>189.0</ele><time>2026-05-04T10:55:10.001Z</time></trkpt><trkpt lat="43.44563164667461" lon="11.160585737409585"><ele>191.75</ele><time>2026-05-04T10:55:11.001Z</time></trkpt><trkpt lat="43.44560738371858" lon="11.160744919218907"><ele>194.5</ele><time>2026-05-04T10:55:12.001Z</time></trkpt><trkpt lat="43.445603630643255" lon="11.160922598198836"><ele>197.25</ele><time>2026-05-04T10:55:13.001Z</time></trkpt><trkpt lat="43.445598950151435" lon="11.161099616790313"><ele>200.0</ele><time>2026-05-04T10:55:14.001Z</time></trkpt><trkpt lat="43.445588324072254" lon="11.161279083601578"><ele>200.0</ele><time>2026-05-04T10:55:15.001Z</time></trkpt><trkpt lat="43.445582655960855" lon="11.161457896475909"><ele>200.0</ele><time>2026-05-04T10:55:16.001Z</time></trkpt><trkpt lat="43.44557299415775" lon="11.161637797080509"><ele>200.0</ele><time>2026-05-04T10:55:17.001Z</time></trkpt><trkpt lat="43.44556507119609" lon="11.16180276852088"><ele>200.0</ele><time>2026-05-04T10:55:18.001Z</time></trkpt><trkpt lat="43.44555844711273" lon="11.161944335390784"><ele>200.00000000000003</ele><time>2026-05-04T10:55:19.001Z</time></trkpt><trkpt lat="43.44555696700311" lon="11.162046427018486"><ele>200.0</ele><time>2026-05-04T10:55:20.001Z</time></trkpt><trkpt lat="43.44555948006072" lon="11.162139956643049"><ele>200.0</ele><time>2026-05-04T10:55:21.001Z</time></trkpt><trkpt lat="43.44557850198936" lon="11.162235952381144"><ele>200.0</ele><time>2026-05-04T10:55:22.001Z</time></trkpt><trkpt lat="43.44557766327027" lon="11.162337789146811"><ele>200.00000000000003</ele><time>2026-05-04T10:55:23.001Z</time></trkpt><trkpt lat="43.44558199770682" lon="11.162455846952733"><ele>200.0</ele><time>2026-05-04T10:55:24.001Z</time></trkpt><trkpt lat="43.44559724639337" lon="11.162577801058987"><ele>200.0</ele><time>2026-05-04T10:55:25.001Z</time></trkpt><trkpt lat="43.445585965730416" lon="11.162718930355263"><ele>200.0</ele><time>2026-05-04T10:55:26.001Z</time></trkpt><trkpt lat="43.44557970883581" lon="11.162866365241165"><ele>200.0</ele><time>2026-05-04T10:55:27.001Z</time></trkpt><trkpt lat="43.44559892670197" lon="11.163016976973582"><ele>200.0</ele><time>2026-05-04T10:55:28.001Z</time></trkpt><trkpt lat="43.44564567414002" lon="11.16315695266135"><ele>200.0</ele><time>2026-05-04T10:55:29.001Z</time></trkpt><trkpt lat="43.44570808398109" lon="11.16330523613876"><ele>200.5</ele><time>2026-05-04T10:55:30.001Z</time></trkpt><trkpt lat="43.445773762416266" lon="11.163462629091255"><ele>201.0</ele><time>2026-05-04T10:55:31.001Z</time></trkpt><trkpt lat="43.4458339417427" lon="11.163634612031736"><ele>201.5</ele><time>2026-05-04T10:55:32.001Z</time></trkpt><trkpt lat="43.44588992641423" lon="11.163817198159142"><ele>202.0</ele><time>2026-05-04T10:55:33.001Z</time></trkpt><trkpt lat="43.44594165099649" lon="11.164006888506727"><ele>204.5</ele><time>2026-05-04T10:55:34.001Z</time></trkpt><trkpt lat="43.44596353202614" lon="11.16420440034295"><ele>207.0</ele><time>2026-05-04T10:55:35.001Z</time></trkpt><trkpt lat="43.44598559931027" lon="11.164396320291837"><ele>209.5</ele><time>2026-05-04T10:55:36.001Z</time></trkpt><trkpt lat="43.44599560394726" lon="11.1645713261206"><ele>212.0</ele><time>2026-05-04T10:55:37.001Z</time></trkpt><trkpt lat="43.44599397392217" lon="11.164729180948852"><ele>212.6</ele><time>2026-05-04T10:55:38.001Z</time></trkpt><trkpt lat="43.4459897184392" lon="11.164889561952517"><ele>213.2</ele><time>2026-05-04T10:55:39.001Z</time></trkpt><trkpt lat="43.44598549165649" lon="11.165042158550776"><ele>213.8</ele><time>2026-05-04T10:55:40.001Z</time></trkpt><trkpt lat="43.445977272834305" lon="11.165188799501571"><ele>214.4</ele><time>2026-05-04T10:55:41.001Z</time></trkpt><trkpt lat="43.44597059305391" lon="11.16533016262661"><ele>215.0</ele><time>2026-05-04T10:55:42.001Z</time></trkpt><trkpt lat="43.44597467867039" lon="11.165501697632315"><ele>215.0</ele><time>2026-05-04T10:55:43.001Z</time></trkpt><trkpt lat="43.44598858472784" lon="11.165656066110328"><ele>215.0</ele><time>2026-05-04T10:55:44.001Z</time></trkpt><trkpt lat="43.44601344511266" lon="11.165801159627435"><ele>215.0</ele><time>2026-05-04T10:55:45.001Z</time></trkpt><trkpt lat="43.446066870069444" lon="11.165941448191491"><ele>215.0</ele><time>2026-05-04T10:55:46.001Z</time></trkpt><trkpt lat="43.44612106746706" lon="11.166094036650911"><ele>213.75</ele><time>2026-05-04T10:55:47.001Z</time></trkpt><trkpt lat="43.446176244277254" lon="11.16624887830649"><ele>212.5</ele><time>2026-05-04T10:55:48.001Z</time></trkpt><trkpt lat="43.446244839439906" lon="11.16640795514719"><ele>211.25</ele><time>2026-05-04T10:55:49.001Z</time></trkpt><trkpt lat="43.4463084686747" lon="11.166570866514999"><ele>210.0</ele><time>2026-05-04T10:55:50.001Z</time></trkpt><trkpt lat="43.446359313352964" lon="11.16672868291754"><ele>208.0</ele><time>2026-05-04T10:55:51.001Z</time></trkpt><trkpt lat="43.44640213973194" lon="11.16687179934804"><ele>206.0</ele><time>2026-05-04T10:55:52.001Z</time></trkpt><trkpt lat="43.44644184694273" lon="11.167020637624299"><ele>204.0</ele><time>2026-05-04T10:55:53.001Z</time></trkpt><trkpt lat="43.44648668932791" lon="11.167182944911454"><ele>202.0</ele><time>2026-05-04T10:55:54.001Z</time></trkpt><trkpt lat="43.44652388905707" lon="11.167333247652753"><ele>203.0</ele><time>2026-05-04T10:55:55.001Z</time></trkpt><trkpt lat="43.44656097547387" lon="11.167459252588845"><ele>204.0</ele><time>2026-05-04T10:55:56.001Z</time></trkpt><trkpt lat="43.44660896236933" lon="11.167555762954413"><ele>205.0</ele><time>2026-05-04T10:55:57.001Z</time></trkpt><trkpt lat="43.446660453656285" lon="11.167643195661634"><ele>206.0</ele><time>2026-05-04T10:55:58.001Z</time></trkpt><trkpt lat="43.4467826446262" lon="11.167655366069845"><ele>207.0</ele><time>2026-05-04T10:55:59.001Z</time></trkpt><trkpt lat="43.44691101815833" lon="11.167684782415426"><ele>207.0</ele><time>2026-05-04T10:56:00.001Z</time></trkpt><trkpt lat="43.44706188952821" lon="11.167733251838083"><ele>207.0</ele><time>2026-05-04T10:56:01.001Z</time></trkpt><trkpt lat="43.447236560618805" lon="11.167786866147186"><ele>207.0</ele><time>2026-05-04T10:56:02.001Z</time></trkpt><trkpt lat="43.44739523177048" lon="11.167841859533857"><ele>207.6</ele><time>2026-05-04T10:56:03.001Z</time></trkpt><trkpt lat="43.44753435536526" lon="11.16789053704298"><ele>208.2</ele><time>2026-05-04T10:56:04.001Z</time></trkpt><trkpt lat="43.447642625265196" lon="11.167935109220561"><ele>208.8</ele><time>2026-05-04T10:56:05.001Z</time></trkpt><trkpt lat="43.44771434771825" lon="11.167974455748846"><ele>209.4</ele><time>2026-05-04T10:56:06.001Z</time></trkpt><trkpt lat="43.44778418630234" lon="11.168015865232066"><ele>210.0</ele><time>2026-05-04T10:56:07.001Z</time></trkpt><trkpt lat="43.44785904869556" lon="11.168083155321423"><ele>210.0</ele><time>2026-05-04T10:56:08.001Z</time></trkpt><trkpt lat="43.447952688596345" lon="11.168172018633953"><ele>210.0</ele><time>2026-05-04T10:56:09.001Z</time></trkpt><trkpt lat="43.44805201189875" lon="11.168280285824455"><ele>210.0</ele><time>2026-05-04T10:56:10.001Z</time></trkpt><trkpt lat="43.44812707546792" lon="11.168381676279498"><ele>210.0</ele><time>2026-05-04T10:56:11.001Z</time></trkpt><trkpt lat="43.448173904083426" lon="11.168484171677523"><ele>210.0</ele><time>2026-05-04T10:56:12.001Z</time></trkpt><trkpt lat="43.448204738575505" lon="11.168594577365823"><ele>209.4</ele><time>2026-05-04T10:56:13.001Z</time></trkpt><trkpt lat="43.44822422530186" lon="11.168711614644755"><ele>208.8</ele><time>2026-05-04T10:56:14.001Z</time></trkpt><trkpt lat="43.44820815120774" lon="11.1688131106969"><ele>208.2</ele><time>2026-05-04T10:56:15.001Z</time></trkpt><trkpt lat="43.44820469882161" lon="11.168934084095593"><ele>207.6</ele><time>2026-05-04T10:56:16.001Z</time></trkpt><trkpt lat="43.44817332237269" lon="11.169069170226132"><ele>207.0</ele><time>2026-05-04T10:56:17.001Z</time></trkpt><trkpt lat="43.44812462614744" lon="11.169200998323761"><ele>206.39999999999998</ele><time>2026-05-04T10:56:18.001Z</time></trkpt><trkpt lat="43.44807930974135" lon="11.16929921531864"><ele>205.79999999999998</ele><time>2026-05-04T10:56:19.001Z</time></trkpt><trkpt lat="43.44803658502123" lon="11.16938721613274"><ele>205.2</ele><time>2026-05-04T10:56:20.001Z</time></trkpt><trkpt lat="43.44798001388171" lon="11.169488534188176"><ele>204.6</ele><time>2026-05-04T10:56:21.001Z</time></trkpt><trkpt lat="43.44791003162932" lon="11.16961936323521"><ele>204.0</ele><time>2026-05-04T10:56:22.001Z</time></trkpt><trkpt lat="43.44780052985879" lon="11.169741836113836"><ele>203.25</ele><time>2026-05-04T10:56:23.001Z</time></trkpt><trkpt lat="43.44769699977148" lon="11.169879095874368"><ele>202.5</ele><time>2026-05-04T10:56:24.001Z</time></trkpt><trkpt lat="43.44762224900586" lon="11.169992539130662"><ele>201.75</ele><time>2026-05-04T10:56:25.001Z</time></trkpt><trkpt lat="43.44755247005874" lon="11.170094709532915"><ele>201.0</ele><time>2026-05-04T10:56:26.001Z</time></trkpt><trkpt lat="43.44750354152003" lon="11.170209658350547"><ele>201.0</ele><time>2026-05-04T10:56:27Z</time></trkpt><trkpt lat="43.447467283539" lon="11.170346040025313"><ele>201.0</ele><time>2026-05-04T10:56:28Z</time></trkpt><trkpt lat="43.44743448212933" lon="11.170471951813008"><ele>201.0</ele><time>2026-05-04T10:56:29Z</time></trkpt><trkpt lat="43.44739701069392" lon="11.170593770414182"><ele>201.0</ele><time>2026-05-04T10:56:30Z</time></trkpt><trkpt lat="43.44734275340891" lon="11.170729786067142"><ele>201.0</ele><time>2026-05-04T10:56:31Z</time></trkpt><trkpt lat="43.447262863481356" lon="11.170874690584034"><ele>202.25</ele><time>2026-05-04T10:56:32Z</time></trkpt><trkpt lat="43.44718421097599" lon="11.17101649564776"><ele>203.5</ele><time>2026-05-04T10:56:33Z</time></trkpt><trkpt lat="43.44711065530315" lon="11.171157267282084"><ele>204.75</ele><time>2026-05-04T10:56:34Z</time></trkpt><trkpt lat="43.44703770709323" lon="11.171297314953218"><ele>206.0</ele><time>2026-05-04T10:56:35Z</time></trkpt><trkpt lat="43.44697248217433" lon="11.17142214640028"><ele>204.33333333333334</ele><time>2026-05-04T10:56:36Z</time></trkpt><trkpt lat="43.4469262770847" lon="11.171536820195584"><ele>202.66666666666669</ele><time>2026-05-04T10:56:37Z</time></trkpt><trkpt lat="43.44688938924401" lon="11.171648212675308"><ele>201.0</ele><time>2026-05-04T10:56:38Z</time></trkpt><trkpt lat="43.44686564221398" lon="11.171765493103525"><ele>199.33333333333331</ele><time>2026-05-04T10:56:39Z</time></trkpt><trkpt lat="43.446849670007346" lon="11.171878682755027"><ele>197.66666666666666</ele><time>2026-05-04T10:56:40Z</time></trkpt><trkpt lat="43.4468196640769" lon="11.171998488440645"><ele>196.0</ele><time>2026-05-04T10:56:41Z</time></trkpt><trkpt lat="43.44677518103713" lon="11.172095296588857"><ele>196.0</ele><time>2026-05-04T10:56:42Z</time></trkpt><trkpt lat="43.446719516577545" lon="11.172189980468652"><ele>196.0</ele><time>2026-05-04T10:56:43Z</time></trkpt><trkpt lat="43.44665868972833" lon="11.172275962293531"><ele>196.0</ele><time>2026-05-04T10:56:44Z</time></trkpt><trkpt lat="43.44659251550625" lon="11.172352634872242"><ele>196.0</ele><time>2026-05-04T10:56:45Z</time></trkpt><trkpt lat="43.44652541801298" lon="11.17246201857424"><ele>196.0</ele><time>2026-05-04T10:56:46Z</time></trkpt><trkpt lat="43.44644740845871" lon="11.172559164583971"><ele>194.0</ele><time>2026-05-04T10:56:47Z</time></trkpt><trkpt lat="43.44636925892628" lon="11.172671180952344"><ele>192.0</ele><time>2026-05-04T10:56:48Z</time></trkpt><trkpt lat="43.44630501956628" lon="11.172774511437765"><ele>190.0</ele><time>2026-05-04T10:56:49Z</time></trkpt><trkpt lat="43.446251639501035" lon="11.172865235356577"><ele>188.0</ele><time>2026-05-04T10:56:50Z</time></trkpt><trkpt lat="43.44619269938878" lon="11.172932013396599"><ele>186.0</ele><time>2026-05-04T10:56:51Z</time></trkpt><trkpt lat="43.44607607478779" lon="11.172927599862465"><ele>185.83333333333334</ele><time>2026-05-04T10:56:53.001Z</time></trkpt><trkpt lat="43.446018248813054" lon="11.172858870966556"><ele>185.66666666666666</ele><time>2026-05-04T10:56:54.001Z</time></trkpt><trkpt lat="43.445928675556885" lon="11.172827623006354"><ele>185.5</ele><time>2026-05-04T10:56:55.001Z</time></trkpt><trkpt lat="43.44585643831129" lon="11.172777637171537"><ele>185.33333333333331</ele><time>2026-05-04T10:56:56.001Z</time></trkpt><trkpt lat="43.44577910743175" lon="11.172725819678236"><ele>185.16666666666666</ele><time>2026-05-04T10:56:57.001Z</time></trkpt><trkpt lat="43.44571188744811" lon="11.17268593640496"><ele>185.0</ele><time>2026-05-04T10:56:58.001Z</time></trkpt><trkpt lat="43.44562274842596" lon="11.172719729858729"><ele>185.0</ele><time>2026-05-04T10:56:59.001Z</time></trkpt><trkpt lat="43.4455524342437" lon="11.172769858601654"><ele>185.0</ele><time>2026-05-04T10:57:00.001Z</time></trkpt><trkpt lat="43.44549401982725" lon="11.17285152599726"><ele>185.0</ele><time>2026-05-04T10:57:01.001Z</time></trkpt><trkpt lat="43.44542553998893" lon="11.17294343932758"><ele>185.0</ele><time>2026-05-04T10:57:02.001Z</time></trkpt><trkpt lat="43.44535780888927" lon="11.173063313340466"><ele>185.0</ele><time>2026-05-04T10:57:03.001Z</time></trkpt><trkpt lat="43.445284884281335" lon="11.173203058598714"><ele>182.8</ele><time>2026-05-04T10:57:04.001Z</time></trkpt><trkpt lat="43.44522808140362" lon="11.173351488351692"><ele>180.6</ele><time>2026-05-04T10:57:05.001Z</time></trkpt><trkpt lat="43.44516786493826" lon="11.1734768647913"><ele>178.39999999999998</ele><time>2026-05-04T10:57:06.001Z</time></trkpt><trkpt lat="43.4451168882393" lon="11.173565889525909"><ele>176.2</ele><time>2026-05-04T10:57:07.001Z</time></trkpt><trkpt lat="43.445053477127374" lon="11.17370234303875"><ele>174.0</ele><time>2026-05-04T10:57:09.001Z</time></trkpt><trkpt lat="43.445061617941946" lon="11.173841016448538"><ele>174.0</ele><time>2026-05-04T10:57:10.001Z</time></trkpt><trkpt lat="43.4450365962803" lon="11.173985362973925"><ele>174.0</ele><time>2026-05-04T10:57:11.001Z</time></trkpt><trkpt lat="43.44501726089674" lon="11.17414833538803"><ele>174.0</ele><time>2026-05-04T10:57:12.001Z</time></trkpt><trkpt lat="43.444981472795746" lon="11.174335290447491"><ele>174.0</ele><time>2026-05-04T10:57:13.001Z</time></trkpt><trkpt lat="43.44492523199987" lon="11.174529513246961"><ele>175.0</ele><time>2026-05-04T10:57:14.001Z</time></trkpt><trkpt lat="43.4448674382004" lon="11.174741066252812"><ele>176.0</ele><time>2026-05-04T10:57:15.001Z</time></trkpt><trkpt lat="43.44481054871362" lon="11.174972452655009"><ele>177.0</ele><time>2026-05-04T10:57:16.001Z</time></trkpt><trkpt lat="43.444722039543144" lon="11.17518446844642"><ele>176.66666666666666</ele><time>2026-05-04T10:57:17.001Z</time></trkpt><trkpt lat="43.44462218245857" lon="11.175393266644946"><ele>176.33333333333331</ele><time>2026-05-04T10:57:18.001Z</time></trkpt><trkpt lat="43.44453093073023" lon="11.175609456247935"><ele>176.0</ele><time>2026-05-04T10:57:19.001Z</time></trkpt><trkpt lat="43.44442322486416" lon="11.175816704323053"><ele>176.0</ele><time>2026-05-04T10:57:20.001Z</time></trkpt><trkpt lat="43.44432173860841" lon="11.176038834710992"><ele>176.0</ele><time>2026-05-04T10:57:21.001Z</time></trkpt><trkpt lat="43.44421205276622" lon="11.176253385219631"><ele>176.0</ele><time>2026-05-04T10:57:22.001Z</time></trkpt><trkpt lat="43.44407945078627" lon="11.176439617312859"><ele>177.0</ele><time>2026-05-04T10:57:23.001Z</time></trkpt><trkpt lat="43.44399135970218" lon="11.176618980547802"><ele>178.0</ele><time>2026-05-04T10:57:24.001Z</time></trkpt><trkpt lat="43.443918663200286" lon="11.176774840526072"><ele>179.0</ele><time>2026-05-04T10:57:25.001Z</time></trkpt><trkpt lat="43.44384647347421" lon="11.176961541960933"><ele>180.0</ele><time>2026-05-04T10:57:26.001Z</time></trkpt><trkpt lat="43.443752530718236" lon="11.177165873151091"><ele>181.66666666666666</ele><time>2026-05-04T10:57:27.001Z</time></trkpt><trkpt lat="43.443641386253745" lon="11.177372289293013"><ele>183.33333333333331</ele><time>2026-05-04T10:57:28.001Z</time></trkpt><trkpt lat="43.4435229208134" lon="11.177575728377857"><ele>185.0</ele><time>2026-05-04T10:57:29.001Z</time></trkpt><trkpt lat="43.443394527370195" lon="11.177788475410152"><ele>185.0</ele><time>2026-05-04T10:57:30.001Z</time></trkpt><trkpt lat="43.44326874248349" lon="11.177987793959693"><ele>185.0</ele><time>2026-05-04T10:57:31.001Z</time></trkpt><trkpt lat="43.44315092287597" lon="11.178164630122442"><ele>185.0</ele><time>2026-05-04T10:57:32.001Z</time></trkpt><trkpt lat="43.44304478639351" lon="11.178311163711285"><ele>182.5</ele><time>2026-05-04T10:57:33.001Z</time></trkpt><trkpt lat="43.44295761826388" lon="11.178451532519672"><ele>180.0</ele><time>2026-05-04T10:57:34.001Z</time></trkpt><trkpt lat="43.442900415460876" lon="11.178610852512932"><ele>177.5</ele><time>2026-05-04T10:57:35.001Z</time></trkpt><trkpt lat="43.44288106980304" lon="11.178790839217795"><ele>175.0</ele><time>2026-05-04T10:57:36.001Z</time></trkpt><trkpt lat="43.44287985977223" lon="11.178981065096293"><ele>175.75</ele><time>2026-05-04T10:57:37.001Z</time></trkpt><trkpt lat="43.44288325636811" lon="11.179150751841266"><ele>176.5</ele><time>2026-05-04T10:57:38.001Z</time></trkpt><trkpt lat="43.44288385448957" lon="11.179248538595418"><ele>177.25</ele><time>2026-05-04T10:57:39.001Z</time></trkpt><trkpt lat="43.44305515253612" lon="11.179176538903155"><ele>178.0</ele><time>2026-05-04T10:57:43.001Z</time></trkpt><trkpt lat="43.44315118558511" lon="11.17914931251425"><ele>178.2</ele><time>2026-05-04T10:57:44.001Z</time></trkpt><trkpt lat="43.44323178762823" lon="11.179117927532944"><ele>178.4</ele><time>2026-05-04T10:57:45.001Z</time></trkpt><trkpt lat="43.44333055189396" lon="11.17915718584116"><ele>178.6</ele><time>2026-05-04T10:57:47.001Z</time></trkpt><trkpt lat="43.44335773956277" lon="11.179287852633415"><ele>178.79999999999998</ele><time>2026-05-04T10:57:48.001Z</time></trkpt><trkpt lat="43.44338283667119" lon="11.179446020350923"><ele>179.0</ele><time>2026-05-04T10:57:49.001Z</time></trkpt><trkpt lat="43.44338770400417" lon="11.179609954477552"><ele>179.0</ele><time>2026-05-04T10:57:50.001Z</time></trkpt><trkpt lat="43.44341318297264" lon="11.17978125003689"><ele>179.0</ele><time>2026-05-04T10:57:51.001Z</time></trkpt><trkpt lat="43.44347159452534" lon="11.179947016269884"><ele>179.0</ele><time>2026-05-04T10:57:52.001Z</time></trkpt><trkpt lat="43.44355357565963" lon="11.180117589673014"><ele>179.0</ele><time>2026-05-04T10:57:53.001Z</time></trkpt><trkpt lat="43.443622287299874" lon="11.180306967125402"><ele>177.25</ele><time>2026-05-04T10:57:54.001Z</time></trkpt><trkpt lat="43.443694800894065" lon="11.180497887007746"><ele>175.5</ele><time>2026-05-04T10:57:55.001Z</time></trkpt><trkpt lat="43.44377292289316" lon="11.1806745601277"><ele>173.75</ele><time>2026-05-04T10:57:56.001Z</time></trkpt><trkpt lat="43.4438445129173" lon="11.18083893352738"><ele>172.0</ele><time>2026-05-04T10:57:57.001Z</time></trkpt><trkpt lat="43.44390195462415" lon="11.180994475872456"><ele>168.5</ele><time>2026-05-04T10:57:58.001Z</time></trkpt><trkpt lat="43.443937669865036" lon="11.181167697318903"><ele>165.0</ele><time>2026-05-04T10:57:59.001Z</time></trkpt><trkpt lat="43.443955823590905" lon="11.181350846926238"><ele>161.5</ele><time>2026-05-04T10:58:00.001Z</time></trkpt><trkpt lat="43.44395675386473" lon="11.181513444918636"><ele>158.0</ele><time>2026-05-04T10:58:01.001Z</time></trkpt><trkpt lat="43.44395767866917" lon="11.181653593536637"><ele>157.0</ele><time>2026-05-04T10:58:02.001Z</time></trkpt><trkpt lat="43.443995701424804" lon="11.181784848604195"><ele>156.0</ele><time>2026-05-04T10:58:03.001Z</time></trkpt><trkpt lat="43.44408347489834" lon="11.181906454524519"><ele>155.0</ele><time>2026-05-04T10:58:04.001Z</time></trkpt><trkpt lat="43.444176143302414" lon="11.182019784230112"><ele>154.0</ele><time>2026-05-04T10:58:05.001Z</time></trkpt><trkpt lat="43.44425766536231" lon="11.182130975622558"><ele>154.0</ele><time>2026-05-04T10:58:06.001Z</time></trkpt><trkpt lat="43.44434421275385" lon="11.182213522353047"><ele>154.0</ele><time>2026-05-04T10:58:07.001Z</time></trkpt><trkpt lat="43.44440204730659" lon="11.182343673540196"><ele>154.0</ele><time>2026-05-04T10:58:08.001Z</time></trkpt><trkpt lat="43.4443967228465" lon="11.182519345701536"><ele>154.0</ele><time>2026-05-04T10:58:09.001Z</time></trkpt><trkpt lat="43.444455515705044" lon="11.182658700297038"><ele>153.4</ele><time>2026-05-04T10:58:10.001Z</time></trkpt><trkpt lat="43.44451816340037" lon="11.182781299026587"><ele>152.8</ele><time>2026-05-04T10:58:11.001Z</time></trkpt><trkpt lat="43.44462082656446" lon="11.182864757024689"><ele>152.2</ele><time>2026-05-04T10:58:12.001Z</time></trkpt><trkpt lat="43.444727052492745" lon="11.18292293372709"><ele>151.6</ele><time>2026-05-04T10:58:13.001Z</time></trkpt><trkpt lat="43.44481668067629" lon="11.18294203102543"><ele>151.0</ele><time>2026-05-04T10:58:14.001Z</time></trkpt><trkpt lat="43.44488173079321" lon="11.182906702142338"><ele>148.0</ele><time>2026-05-04T10:58:15.001Z</time></trkpt><trkpt lat="43.44496543351439" lon="11.182820535185098"><ele>145.0</ele><time>2026-05-04T10:58:16.002Z</time></trkpt><trkpt lat="43.445064878831396" lon="11.182699964153825"><ele>142.0</ele><time>2026-05-04T10:58:17.002Z</time></trkpt><trkpt lat="43.445171889727604" lon="11.182557859943234"><ele>139.0</ele><time>2026-05-04T10:58:18.002Z</time></trkpt><trkpt lat="43.44528256257137" lon="11.182410841501603"><ele>140.4</ele><time>2026-05-04T10:58:19.002Z</time></trkpt><trkpt lat="43.44538207564741" lon="11.182272559161724"><ele>141.8</ele><time>2026-05-04T10:58:20.002Z</time></trkpt><trkpt lat="43.44547922319715" lon="11.182184981532746"><ele>143.2</ele><time>2026-05-04T10:58:21.002Z</time></trkpt><trkpt lat="43.44556534305194" lon="11.18211850505847"><ele>144.6</ele><time>2026-05-04T10:58:22.002Z</time></trkpt><trkpt lat="43.44565200846892" lon="11.18209853405595"><ele>146.0</ele><time>2026-05-04T10:58:23.002Z</time></trkpt><trkpt lat="43.445725957958366" lon="11.182196342179555"><ele>142.5</ele><time>2026-05-04T10:58:24.002Z</time></trkpt><trkpt lat="43.445816364403235" lon="11.182262813348498"><ele>139.0</ele><time>2026-05-04T10:58:25.002Z</time></trkpt><trkpt lat="43.44590398080836" lon="11.18236594128775"><ele>135.5</ele><time>2026-05-04T10:58:26.002Z</time></trkpt><trkpt lat="43.446012532893974" lon="11.18246149173513"><ele>132.0</ele><time>2026-05-04T10:58:27.002Z</time></trkpt><trkpt lat="43.44612768678521" lon="11.1825696828596"><ele>132.0</ele><time>2026-05-04T10:58:28.002Z</time></trkpt><trkpt lat="43.44624937536542" lon="11.182618892311146"><ele>132.0</ele><time>2026-05-04T10:58:29.002Z</time></trkpt><trkpt lat="43.44632558738247" lon="11.182677930094194"><ele>132.0</ele><time>2026-05-04T10:58:30.002Z</time></trkpt><trkpt lat="43.446310397039" lon="11.18288198621958"><ele>132.0</ele><time>2026-05-04T10:58:33.001Z</time></trkpt><trkpt lat="43.44626259437041" lon="11.183018583206078"><ele>132.0</ele><time>2026-05-04T10:58:34.001Z</time></trkpt><trkpt lat="43.446225498883265" lon="11.183177949889734"><ele>132.0</ele><time>2026-05-04T10:58:35.001Z</time></trkpt><trkpt lat="43.44619982082151" lon="11.18335062369602"><ele>132.0</ele><time>2026-05-04T10:58:36.001Z</time></trkpt><trkpt lat="43.446175941435655" lon="11.183535213097441"><ele>132.0</ele><time>2026-05-04T10:58:37.001Z</time></trkpt><trkpt lat="43.4461298926933" lon="11.183730442824027"><ele>132.33333333333334</ele><time>2026-05-04T10:58:38.001Z</time></trkpt><trkpt lat="43.446096459110194" lon="11.183959309647106"><ele>132.66666666666669</ele><time>2026-05-04T10:58:39.001Z</time></trkpt><trkpt lat="43.44606254998412" lon="11.184197931773454"><ele>133.0</ele><time>2026-05-04T10:58:40.001Z</time></trkpt><trkpt lat="43.44602694526632" lon="11.18444979820307"><ele>134.66666666666669</ele><time>2026-05-04T10:58:41.001Z</time></trkpt><trkpt lat="43.44599174232611" lon="11.18469882279814"><ele>136.33333333333334</ele><time>2026-05-04T10:58:42.001Z</time></trkpt><trkpt lat="43.44595633015264" lon="11.18494932777586"><ele>138.0</ele><time>2026-05-04T10:58:43.001Z</time></trkpt><trkpt lat="43.44591997659416" lon="11.185211349349732"><ele>140.66666666666666</ele><time>2026-05-04T10:58:44.001Z</time></trkpt><trkpt lat="43.44589860314079" lon="11.185465525580607"><ele>143.33333333333331</ele><time>2026-05-04T10:58:45.001Z</time></trkpt><trkpt lat="43.445866605700076" lon="11.185709586708091"><ele>146.0</ele><time>2026-05-04T10:58:46.001Z</time></trkpt><trkpt lat="43.44584229835793" lon="11.185935735060289"><ele>148.25</ele><time>2026-05-04T10:58:47.001Z</time></trkpt><trkpt lat="43.445815008060144" lon="11.186140716522708"><ele>150.5</ele><time>2026-05-04T10:58:48.001Z</time></trkpt><trkpt lat="43.44579678858941" lon="11.186325817451532"><ele>152.75</ele><time>2026-05-04T10:58:49.001Z</time></trkpt><trkpt lat="43.4457741991929" lon="11.186529220269739"><ele>155.0</ele><time>2026-05-04T10:58:50.001Z</time></trkpt><trkpt lat="43.44574843295134" lon="11.18674471860286"><ele>156.75</ele><time>2026-05-04T10:58:51.001Z</time></trkpt><trkpt lat="43.44572060807843" lon="11.186969418519842"><ele>158.5</ele><time>2026-05-04T10:58:52.001Z</time></trkpt><trkpt lat="43.44569860441936" lon="11.187162674741174"><ele>160.25</ele><time>2026-05-04T10:58:53.001Z</time></trkpt><trkpt lat="43.44566850392079" lon="11.187324171924356"><ele>162.0</ele><time>2026-05-04T10:58:54.001Z</time></trkpt><trkpt lat="43.44566113189278" lon="11.187491598737052"><ele>162.5</ele><time>2026-05-04T10:58:55.001Z</time></trkpt><trkpt lat="43.44566363187067" lon="11.187680453065324"><ele>163.0</ele><time>2026-05-04T10:58:56.001Z</time></trkpt><trkpt lat="43.44567440374169" lon="11.187880682957974"><ele>163.5</ele><time>2026-05-04T10:58:57.001Z</time></trkpt><trkpt lat="43.44565557513031" lon="11.188076045851258"><ele>164.0</ele><time>2026-05-04T10:58:58.001Z</time></trkpt><trkpt lat="43.445608053666575" lon="11.188287228089843"><ele>165.33333333333331</ele><time>2026-05-04T10:58:59.001Z</time></trkpt><trkpt lat="43.445569315204246" lon="11.188513468975936"><ele>166.66666666666666</ele><time>2026-05-04T10:59:00.001Z</time></trkpt><trkpt lat="43.44555105428908" lon="11.188748207409645"><ele>168.0</ele><time>2026-05-04T10:59:01.001Z</time></trkpt><trkpt lat="43.44551531439727" lon="11.188979420381756"><ele>168.66666666666666</ele><time>2026-05-04T10:59:02.001Z</time></trkpt><trkpt lat="43.44548482896923" lon="11.189190611938251"><ele>169.33333333333331</ele><time>2026-05-04T10:59:03.001Z</time></trkpt><trkpt lat="43.44544210637951" lon="11.189407391538008"><ele>170.0</ele><time>2026-05-04T10:59:04.001Z</time></trkpt><trkpt lat="43.4453890156596" lon="11.189621230798455"><ele>173.0</ele><time>2026-05-04T10:59:05.001Z</time></trkpt><trkpt lat="43.44530451639096" lon="11.189855243612039"><ele>176.0</ele><time>2026-05-04T10:59:06.001Z</time></trkpt><trkpt lat="43.445243164388735" lon="11.190091007596921"><ele>179.0</ele><time>2026-05-04T10:59:07.001Z</time></trkpt><trkpt lat="43.445181495944105" lon="11.190338083345116"><ele>179.0</ele><time>2026-05-04T10:59:08.001Z</time></trkpt><trkpt lat="43.44512237437862" lon="11.190607474994112"><ele>179.0</ele><time>2026-05-04T10:59:09.001Z</time></trkpt><trkpt lat="43.44509047779207" lon="11.19086762962431"><ele>179.0</ele><time>2026-05-04T10:59:10.001Z</time></trkpt><trkpt lat="43.44503899756643" lon="11.191132077999024"><ele>180.66666666666666</ele><time>2026-05-04T10:59:11.001Z</time></trkpt><trkpt lat="43.44499256128685" lon="11.19140004480715"><ele>182.33333333333334</ele><time>2026-05-04T10:59:12.001Z</time></trkpt><trkpt lat="43.444951265005145" lon="11.191670686299274"><ele>184.0</ele><time>2026-05-04T10:59:13.001Z</time></trkpt><trkpt lat="43.444911890022965" lon="11.191955595251168"><ele>184.0</ele><time>2026-05-04T10:59:14.001Z</time></trkpt><trkpt lat="43.44488644058469" lon="11.192216926632772"><ele>184.0</ele><time>2026-05-04T10:59:15.001Z</time></trkpt><trkpt lat="43.44486834964515" lon="11.192428391069848"><ele>184.0</ele><time>2026-05-04T10:59:16.001Z</time></trkpt><trkpt lat="43.44485375777691" lon="11.19260334995609"><ele>184.25</ele><time>2026-05-04T10:59:17.001Z</time></trkpt><trkpt lat="43.444825175657854" lon="11.19277633605596"><ele>184.5</ele><time>2026-05-04T10:59:18.001Z</time></trkpt><trkpt lat="43.44474798028713" lon="11.192946842785954"><ele>184.75</ele><time>2026-05-04T10:59:19.001Z</time></trkpt><trkpt lat="43.444673739545536" lon="11.19314518579538"><ele>185.0</ele><time>2026-05-04T10:59:20.001Z</time></trkpt><trkpt lat="43.44461347202773" lon="11.193359698372998"><ele>187.66666666666666</ele><time>2026-05-04T10:59:21.001Z</time></trkpt><trkpt lat="43.44456161972478" lon="11.193566218067168"><ele>190.33333333333331</ele><time>2026-05-04T10:59:22.001Z</time></trkpt><trkpt lat="43.44451915263752" lon="11.193767483901581"><ele>193.0</ele><time>2026-05-04T10:59:23.001Z</time></trkpt><trkpt lat="43.44449282909218" lon="11.19398562751715"><ele>194.0</ele><time>2026-05-04T10:59:24.001Z</time></trkpt><trkpt lat="43.44448235213287" lon="11.194202912005691"><ele>195.0</ele><time>2026-05-04T10:59:25.001Z</time></trkpt><trkpt lat="43.44449099991845" lon="11.194402089279505"><ele>196.0</ele><time>2026-05-04T10:59:26.001Z</time></trkpt><trkpt lat="43.4444853957526" lon="11.194555615379015"><ele>197.0</ele><time>2026-05-04T10:59:27.001Z</time></trkpt><trkpt lat="43.4444900407134" lon="11.194696426063993"><ele>196.25</ele><time>2026-05-04T10:59:28.001Z</time></trkpt><trkpt lat="43.444493284906216" lon="11.19485453127486"><ele>195.5</ele><time>2026-05-04T10:59:29.001Z</time></trkpt><trkpt lat="43.444561409919686" lon="11.195004311133374"><ele>194.75</ele><time>2026-05-04T10:59:30.001Z</time></trkpt><trkpt lat="43.44462178619634" lon="11.195197219744356"><ele>194.0</ele><time>2026-05-04T10:59:31.001Z</time></trkpt><trkpt lat="43.44467435076358" lon="11.195431952584714"><ele>196.66666666666669</ele><time>2026-05-04T10:59:32.001Z</time></trkpt><trkpt lat="43.44470895703722" lon="11.19568009093909"><ele>199.33333333333331</ele><time>2026-05-04T10:59:33.001Z</time></trkpt><trkpt lat="43.44474153497245" lon="11.19592195508478"><ele>202.0</ele><time>2026-05-04T10:59:34.001Z</time></trkpt><trkpt lat="43.444771967958275" lon="11.196132532961117"><ele>202.0</ele><time>2026-05-04T10:59:35.001Z</time></trkpt><trkpt lat="43.4448033279838" lon="11.19634316352381"><ele>202.0</ele><time>2026-05-04T10:59:36.001Z</time></trkpt><trkpt lat="43.444845361041736" lon="11.196528955477334"><ele>202.0</ele><time>2026-05-04T10:59:37.001Z</time></trkpt><trkpt lat="43.4448880670199" lon="11.196695922916314"><ele>202.0</ele><time>2026-05-04T10:59:38.001Z</time></trkpt><trkpt lat="43.44493999360482" lon="11.196864444146412"><ele>204.25</ele><time>2026-05-04T10:59:39.001Z</time></trkpt><trkpt lat="43.4449965044039" lon="11.197031943177349"><ele>206.5</ele><time>2026-05-04T10:59:40.001Z</time></trkpt><trkpt lat="43.445063739902636" lon="11.19720174769798"><ele>208.75</ele><time>2026-05-04T10:59:41.001Z</time></trkpt><trkpt lat="43.4451159230707" lon="11.19737383086963"><ele>211.0</ele><time>2026-05-04T10:59:42.001Z</time></trkpt><trkpt lat="43.44514231331962" lon="11.197551214287904"><ele>212.5</ele><time>2026-05-04T10:59:43.001Z</time></trkpt><trkpt lat="43.44515217844451" lon="11.197751373262607"><ele>214.0</ele><time>2026-05-04T10:59:44.001Z</time></trkpt><trkpt lat="43.44515008894391" lon="11.197955453113757"><ele>215.5</ele><time>2026-05-04T10:59:45.001Z</time></trkpt><trkpt lat="43.44513248979696" lon="11.198149055085697"><ele>217.0</ele><time>2026-05-04T10:59:46.001Z</time></trkpt><trkpt lat="43.44508334768169" lon="11.198279216292526"><ele>217.2</ele><time>2026-05-04T10:59:47.001Z</time></trkpt><trkpt lat="43.44502473072649" lon="11.198377450199624"><ele>217.39999999999998</ele><time>2026-05-04T10:59:48.001Z</time></trkpt><trkpt lat="43.44495561066049" lon="11.198467286401787"><ele>217.60000000000002</ele><time>2026-05-04T10:59:49.001Z</time></trkpt><trkpt lat="43.444880264459265" lon="11.19852730673814"><ele>217.8</ele><time>2026-05-04T10:59:50.001Z</time></trkpt><trkpt lat="43.44476867537815" lon="11.198618932002114"><ele>218.0</ele><time>2026-05-04T10:59:51.001Z</time></trkpt><trkpt lat="43.44466509353471" lon="11.198744414942555"><ele>219.4</ele><time>2026-05-04T10:59:52.001Z</time></trkpt><trkpt lat="43.444575985880924" lon="11.198855611404717"><ele>220.8</ele><time>2026-05-04T10:59:53.002Z</time></trkpt><trkpt lat="43.44450980446937" lon="11.198971919406722"><ele>222.2</ele><time>2026-05-04T10:59:54.002Z</time></trkpt><trkpt lat="43.44446178281919" lon="11.199101820419665"><ele>223.6</ele><time>2026-05-04T10:59:55.002Z</time></trkpt><trkpt lat="43.44443443532427" lon="11.199255469714354"><ele>225.0</ele><time>2026-05-04T10:59:56.002Z</time></trkpt><trkpt lat="43.44443062504291" lon="11.199414850291468"><ele>225.0</ele><time>2026-05-04T10:59:57.002Z</time></trkpt><trkpt lat="43.44445028078771" lon="11.19959173010958"><ele>225.0</ele><time>2026-05-04T10:59:58.002Z</time></trkpt><trkpt lat="43.44448530284852" lon="11.199809197192094"><ele>225.0</ele><time>2026-05-04T10:59:59.002Z</time></trkpt><trkpt lat="43.44453111806847" lon="11.20003394149492"><ele>225.0</ele><time>2026-05-04T11:00:00.002Z</time></trkpt><trkpt lat="43.44457318539793" lon="11.200263965916362"><ele>225.0</ele><time>2026-05-04T11:00:01.002Z</time></trkpt><trkpt lat="43.44460215251312" lon="11.200489501646516"><ele>225.0</ele><time>2026-05-04T11:00:02.002Z</time></trkpt><trkpt lat="43.44462059863289" lon="11.200691960005061"><ele>225.66666666666669</ele><time>2026-05-04T11:00:03.002Z</time></trkpt><trkpt lat="43.44465388901851" lon="11.200901918353317"><ele>226.33333333333334</ele><time>2026-05-04T11:00:04.002Z</time></trkpt><trkpt lat="43.44470969560098" lon="11.201110077214627"><ele>227.0</ele><time>2026-05-04T11:00:05.002Z</time></trkpt><trkpt lat="43.44473144190808" lon="11.20131489867939"><ele>227.0</ele><time>2026-05-04T11:00:06.002Z</time></trkpt><trkpt lat="43.444765361094596" lon="11.20148603891532"><ele>227.0</ele><time>2026-05-04T11:00:07.002Z</time></trkpt><trkpt lat="43.444789456525704" lon="11.201652220284402"><ele>227.0</ele><time>2026-05-04T11:00:08.002Z</time></trkpt><trkpt lat="43.444815252844656" lon="11.201830364259374"><ele>227.0</ele><time>2026-05-04T11:00:09.002Z</time></trkpt><trkpt lat="43.444816707078616" lon="11.202021710472343"><ele>226.75</ele><time>2026-05-04T11:00:10.002Z</time></trkpt><trkpt lat="43.44478409639251" lon="11.202212109735637"><ele>226.5</ele><time>2026-05-04T11:00:11.002Z</time></trkpt><trkpt lat="43.44474747466457" lon="11.202385756276685"><ele>226.25</ele><time>2026-05-04T11:00:12.002Z</time></trkpt><trkpt lat="43.44468595576908" lon="11.202548788493306"><ele>226.0</ele><time>2026-05-04T11:00:13.002Z</time></trkpt><trkpt lat="43.44460684880139" lon="11.202708142003205"><ele>225.60000000000002</ele><time>2026-05-04T11:00:14.002Z</time></trkpt><trkpt lat="43.44454467576559" lon="11.202858480096767"><ele>225.20000000000002</ele><time>2026-05-04T11:00:15.002Z</time></trkpt><trkpt lat="43.44451922104737" lon="11.203017429285808"><ele>224.79999999999998</ele><time>2026-05-04T11:00:16.002Z</time></trkpt><trkpt lat="43.4445021227655" lon="11.203157563476003"><ele>224.39999999999998</ele><time>2026-05-04T11:00:17.002Z</time></trkpt><trkpt lat="43.444501905357555" lon="11.203291431017162"><ele>224.0</ele><time>2026-05-04T11:00:18.002Z</time></trkpt><trkpt lat="43.44452165397618" lon="11.203418530437347"><ele>224.0</ele><time>2026-05-04T11:00:19.002Z</time></trkpt><trkpt lat="43.44456282624287" lon="11.203558567657257"><ele>224.0</ele><time>2026-05-04T11:00:20.002Z</time></trkpt><trkpt lat="43.444618608925346" lon="11.20371838778455"><ele>224.0</ele><time>2026-05-04T11:00:21.002Z</time></trkpt><trkpt lat="43.44465291028502" lon="11.203911233585181"><ele>224.0</ele><time>2026-05-04T11:00:22.002Z</time></trkpt><trkpt lat="43.44469749783569" lon="11.20409267145516"><ele>223.5</ele><time>2026-05-04T11:00:23.002Z</time></trkpt><trkpt lat="43.44472410169651" lon="11.20426776071075"><ele>223.0</ele><time>2026-05-04T11:00:24.002Z</time></trkpt><trkpt lat="43.444726649149786" lon="11.204456454777363"><ele>222.5</ele><time>2026-05-04T11:00:25.002Z</time></trkpt><trkpt lat="43.44471413702602" lon="11.20461929913771"><ele>222.0</ele><time>2026-05-04T11:00:26.002Z</time></trkpt><trkpt lat="43.44470639263555" lon="11.204731145710895"><ele>222.16666666666666</ele><time>2026-05-04T11:00:27.002Z</time></trkpt><trkpt lat="43.4446979608144" lon="11.204837809672794"><ele>222.33333333333331</ele><time>2026-05-04T11:00:28.002Z</time></trkpt><trkpt lat="43.44468842671757" lon="11.204946371645951"><ele>222.5</ele><time>2026-05-04T11:00:29.002Z</time></trkpt><trkpt lat="43.444679564982394" lon="11.205047277592167"><ele>222.66666666666666</ele><time>2026-05-04T11:00:30.002Z</time></trkpt><trkpt lat="43.44467043073827" lon="11.205151286514498"><ele>222.83333333333331</ele><time>2026-05-04T11:00:31.002Z</time></trkpt><trkpt lat="43.44466278679729" lon="11.205253854582487"><ele>223.0</ele><time>2026-05-04T11:00:32.002Z</time></trkpt><trkpt lat="43.44465346854645" lon="11.205385990492784"><ele>223.0</ele><time>2026-05-04T11:00:33.002Z</time></trkpt><trkpt lat="43.44464338824054" lon="11.205528932851902"><ele>223.0</ele><time>2026-05-04T11:00:34.002Z</time></trkpt><trkpt lat="43.44463754286589" lon="11.205685179045648"><ele>223.0</ele><time>2026-05-04T11:00:35.002Z</time></trkpt><trkpt lat="43.444653942520084" lon="11.20584366475513"><ele>223.0</ele><time>2026-05-04T11:00:36.002Z</time></trkpt><trkpt lat="43.44467667910551" lon="11.205999234187647"><ele>223.0</ele><time>2026-05-04T11:00:37.002Z</time></trkpt><trkpt lat="43.4447140173704" lon="11.20615665126312"><ele>223.75</ele><time>2026-05-04T11:00:38.002Z</time></trkpt><trkpt lat="43.44476657938321" lon="11.20631518920951"><ele>224.5</ele><time>2026-05-04T11:00:39.001Z</time></trkpt><trkpt lat="43.44483606313838" lon="11.20648636438677"><ele>225.25</ele><time>2026-05-04T11:00:40.001Z</time></trkpt><trkpt lat="43.44489476432041" lon="11.206681020469734"><ele>226.0</ele><time>2026-05-04T11:00:41.001Z</time></trkpt><trkpt lat="43.444987118691955" lon="11.206867860970453"><ele>226.66666666666666</ele><time>2026-05-04T11:00:42.001Z</time></trkpt><trkpt lat="43.44506557678219" lon="11.207086189166784"><ele>227.33333333333331</ele><time>2026-05-04T11:00:43.001Z</time></trkpt><trkpt lat="43.445146289239574" lon="11.207299510156346"><ele>228.0</ele><time>2026-05-04T11:00:44.001Z</time></trkpt><trkpt lat="43.44520472266718" lon="11.207488610886454"><ele>228.0</ele><time>2026-05-04T11:00:45.001Z</time></trkpt><trkpt lat="43.445230661550525" lon="11.207638893362912"><ele>228.0</ele><time>2026-05-04T11:00:46.001Z</time></trkpt><trkpt lat="43.44522661534847" lon="11.20777359739936"><ele>228.0</ele><time>2026-05-04T11:00:47.001Z</time></trkpt><trkpt lat="43.445216317102386" lon="11.207921878540727"><ele>228.0</ele><time>2026-05-04T11:00:48.001Z</time></trkpt><trkpt lat="43.445200101553795" lon="11.208086688274669"><ele>228.0</ele><time>2026-05-04T11:00:49.001Z</time></trkpt><trkpt lat="43.445188244575554" lon="11.208249840240084"><ele>227.25</ele><time>2026-05-04T11:00:50.001Z</time></trkpt><trkpt lat="43.44515713966265" lon="11.208409919805492"><ele>226.5</ele><time>2026-05-04T11:00:51.001Z</time></trkpt><trkpt lat="43.44512663394564" lon="11.20857641637475"><ele>225.75</ele><time>2026-05-04T11:00:52.001Z</time></trkpt><trkpt lat="43.445088788855045" lon="11.208764758621157"><ele>225.0</ele><time>2026-05-04T11:00:53.001Z</time></trkpt><trkpt lat="43.44505811443097" lon="11.20900080638656"><ele>224.33333333333331</ele><time>2026-05-04T11:00:54.001Z</time></trkpt><trkpt lat="43.44500144505498" lon="11.209259317836077"><ele>223.66666666666666</ele><time>2026-05-04T11:00:55.001Z</time></trkpt><trkpt lat="43.444945248576694" lon="11.209522701658795"><ele>223.0</ele><time>2026-05-04T11:00:56.001Z</time></trkpt><trkpt lat="43.44488439416955" lon="11.209787940584793"><ele>221.66666666666666</ele><time>2026-05-04T11:00:57.001Z</time></trkpt><trkpt lat="43.44482049931853" lon="11.210069702372255"><ele>220.33333333333331</ele><time>2026-05-04T11:00:58.001Z</time></trkpt><trkpt lat="43.444758521297075" lon="11.210344773475189"><ele>219.0</ele><time>2026-05-04T11:00:59.001Z</time></trkpt><trkpt lat="43.444680133248966" lon="11.21060887322202"><ele>218.33333333333331</ele><time>2026-05-04T11:01:00.001Z</time></trkpt><trkpt lat="43.44463445900667" lon="11.210875606965962"><ele>217.66666666666666</ele><time>2026-05-04T11:01:01.001Z</time></trkpt><trkpt lat="43.44457802752174" lon="11.211100476694337"><ele>217.0</ele><time>2026-05-04T11:01:02.001Z</time></trkpt><trkpt lat="43.44451804881402" lon="11.211313755491988"><ele>217.33333333333331</ele><time>2026-05-04T11:01:03.001Z</time></trkpt><trkpt lat="43.44445254132938" lon="11.21151155767401"><ele>217.66666666666669</ele><time>2026-05-04T11:01:04.001Z</time></trkpt><trkpt lat="43.444376742465266" lon="11.211679550303892"><ele>218.0</ele><time>2026-05-04T11:01:05.001Z</time></trkpt><trkpt lat="43.44431770207648" lon="11.211872112935172"><ele>218.0</ele><time>2026-05-04T11:01:06.001Z</time></trkpt><trkpt lat="43.44429882871" lon="11.212080428238002"><ele>218.0</ele><time>2026-05-04T11:01:07.001Z</time></trkpt><trkpt lat="43.44428639076608" lon="11.212287433062524"><ele>218.0</ele><time>2026-05-04T11:01:08.001Z</time></trkpt><trkpt lat="43.444302347167906" lon="11.212495086499112"><ele>219.75</ele><time>2026-05-04T11:01:09.001Z</time></trkpt><trkpt lat="43.44432537869088" lon="11.212719561813605"><ele>221.5</ele><time>2026-05-04T11:01:10.001Z</time></trkpt><trkpt lat="43.44434201450165" lon="11.212900933963114"><ele>223.25</ele><time>2026-05-04T11:01:11.001Z</time></trkpt><trkpt lat="43.44431645104627" lon="11.213039260830083"><ele>225.0</ele><time>2026-05-04T11:01:12.001Z</time></trkpt><trkpt lat="43.4442897853128" lon="11.213130043061497"><ele>225.6</ele><time>2026-05-04T11:01:13.001Z</time></trkpt><trkpt lat="43.444244419913794" lon="11.213229157546174"><ele>226.2</ele><time>2026-05-04T11:01:14.001Z</time></trkpt><trkpt lat="43.444188629504076" lon="11.213370112836106"><ele>226.8</ele><time>2026-05-04T11:01:15.001Z</time></trkpt><trkpt lat="43.44409208307144" lon="11.213489288987361"><ele>227.4</ele><time>2026-05-04T11:01:16.001Z</time></trkpt><trkpt lat="43.44401092186382" lon="11.213591928187379"><ele>228.0</ele><time>2026-05-04T11:01:17.001Z</time></trkpt><trkpt lat="43.44392034719441" lon="11.213673180922111"><ele>228.0</ele><time>2026-05-04T11:01:18.001Z</time></trkpt><trkpt lat="43.44381321324738" lon="11.213731019489853"><ele>228.0</ele><time>2026-05-04T11:01:19.001Z</time></trkpt><trkpt lat="43.44371930541546" lon="11.213847448501921"><ele>228.0</ele><time>2026-05-04T11:01:20.001Z</time></trkpt><trkpt lat="43.443625840549345" lon="11.213975387253948"><ele>228.0</ele><time>2026-05-04T11:01:21.001Z</time></trkpt><trkpt lat="43.44353730145598" lon="11.214144531453726"><ele>228.66666666666669</ele><time>2026-05-04T11:01:22.001Z</time></trkpt><trkpt lat="43.44345282117209" lon="11.214333682979461"><ele>229.33333333333334</ele><time>2026-05-04T11:01:23.001Z</time></trkpt><trkpt lat="43.44337256183378" lon="11.2145289173494"><ele>230.0</ele><time>2026-05-04T11:01:24.001Z</time></trkpt><trkpt lat="43.44328517476752" lon="11.214717736429142"><ele>231.66666666666669</ele><time>2026-05-04T11:01:25.001Z</time></trkpt><trkpt lat="43.44321766392854" lon="11.214935719492175"><ele>233.33333333333331</ele><time>2026-05-04T11:01:26.001Z</time></trkpt><trkpt lat="43.443180851320754" lon="11.215159509140312"><ele>235.0</ele><time>2026-05-04T11:01:27.001Z</time></trkpt><trkpt lat="43.44313289238956" lon="11.215396297424977"><ele>235.0</ele><time>2026-05-04T11:01:28.001Z</time></trkpt><trkpt lat="43.44309927864225" lon="11.215622097765403"><ele>235.0</ele><time>2026-05-04T11:01:29.001Z</time></trkpt><trkpt lat="43.44305689969864" lon="11.215830422598506"><ele>235.0</ele><time>2026-05-04T11:01:30.001Z</time></trkpt><trkpt lat="43.44301334371126" lon="11.216019452084545"><ele>236.25</ele><time>2026-05-04T11:01:31.001Z</time></trkpt><trkpt lat="43.44297435861452" lon="11.216201723253596"><ele>237.5</ele><time>2026-05-04T11:01:32.001Z</time></trkpt><trkpt lat="43.44294990366333" lon="11.216380557366808"><ele>238.75</ele><time>2026-05-04T11:01:33.001Z</time></trkpt><trkpt lat="43.442945397298125" lon="11.216540045592325"><ele>240.0</ele><time>2026-05-04T11:01:34.001Z</time></trkpt><trkpt lat="43.442939716268924" lon="11.216703055258865"><ele>240.75</ele><time>2026-05-04T11:01:35.001Z</time></trkpt><trkpt lat="43.44295302218955" lon="11.216887632370872"><ele>241.5</ele><time>2026-05-04T11:01:36.001Z</time></trkpt><trkpt lat="43.442975535477636" lon="11.21708515063456"><ele>242.25</ele><time>2026-05-04T11:01:37.001Z</time></trkpt><trkpt lat="43.4430215059402" lon="11.217300103482085"><ele>243.0</ele><time>2026-05-04T11:01:38.001Z</time></trkpt><trkpt lat="43.443045173761085" lon="11.217540494696962"><ele>243.0</ele><time>2026-05-04T11:01:39.001Z</time></trkpt><trkpt lat="43.44309697947808" lon="11.217774879849086"><ele>243.0</ele><time>2026-05-04T11:01:40.001Z</time></trkpt><trkpt lat="43.443137598174204" lon="11.218017704334649"><ele>243.0</ele><time>2026-05-04T11:01:41.001Z</time></trkpt><trkpt lat="43.443175383694616" lon="11.218240088550061"><ele>241.66666666666669</ele><time>2026-05-04T11:01:42.001Z</time></trkpt><trkpt lat="43.443214811072295" lon="11.218465193527212"><ele>240.33333333333334</ele><time>2026-05-04T11:01:43.001Z</time></trkpt><trkpt lat="43.44325685361294" lon="11.218672073712195"><ele>239.0</ele><time>2026-05-04T11:01:44.001Z</time></trkpt><trkpt lat="43.44329954553913" lon="11.21888127556102"><ele>237.75</ele><time>2026-05-04T11:01:45.001Z</time></trkpt><trkpt lat="43.44334284220301" lon="11.219090295767769"><ele>236.5</ele><time>2026-05-04T11:01:46.001Z</time></trkpt><trkpt lat="43.44337756267998" lon="11.219272722777761"><ele>235.25</ele><time>2026-05-04T11:01:47.001Z</time></trkpt><trkpt lat="43.44340197575686" lon="11.219463431483964"><ele>234.0</ele><time>2026-05-04T11:01:48.001Z</time></trkpt><trkpt lat="43.443392317964914" lon="11.219651923147161"><ele>232.66666666666669</ele><time>2026-05-04T11:01:49.002Z</time></trkpt><trkpt lat="43.443378965064525" lon="11.219853931222879"><ele>231.33333333333334</ele><time>2026-05-04T11:01:50.002Z</time></trkpt><trkpt lat="43.443372115935034" lon="11.220077893812226"><ele>230.0</ele><time>2026-05-04T11:01:51.002Z</time></trkpt><trkpt lat="43.44335545581128" lon="11.220307854829084"><ele>230.0</ele><time>2026-05-04T11:01:52.002Z</time></trkpt><trkpt lat="43.4433404427303" lon="11.220554942123464"><ele>230.0</ele><time>2026-05-04T11:01:53.002Z</time></trkpt><trkpt lat="43.44332694163162" lon="11.22082019627428"><ele>230.0</ele><time>2026-05-04T11:01:54.002Z</time></trkpt><trkpt lat="43.443312470665624" lon="11.221100377011771"><ele>229.33333333333334</ele><time>2026-05-04T11:01:55.002Z</time></trkpt><trkpt lat="43.44329589524069" lon="11.221396904119874"><ele>228.66666666666669</ele><time>2026-05-04T11:01:56.002Z</time></trkpt><trkpt lat="43.44328162765594" lon="11.221689848068577"><ele>228.0</ele><time>2026-05-04T11:01:57.002Z</time></trkpt><trkpt lat="43.44324844134551" lon="11.221989830135575"><ele>226.5</ele><time>2026-05-04T11:01:58.002Z</time></trkpt><trkpt lat="43.44323159157186" lon="11.222302354338133"><ele>225.0</ele><time>2026-05-04T11:01:59.002Z</time></trkpt><trkpt lat="43.443216546510016" lon="11.222613319005097"><ele>225.0</ele><time>2026-05-04T11:02:00.002Z</time></trkpt><trkpt lat="43.44320303072531" lon="11.22293767238373"><ele>225.0</ele><time>2026-05-04T11:02:01.002Z</time></trkpt><trkpt lat="43.443202621787044" lon="11.223248115762818"><ele>225.0</ele><time>2026-05-04T11:02:02.002Z</time></trkpt><trkpt lat="43.4431731601983" lon="11.22354643327184"><ele>225.0</ele><time>2026-05-04T11:02:03.002Z</time></trkpt><trkpt lat="43.44314841022542" lon="11.223795955539481"><ele>225.0</ele><time>2026-05-04T11:02:04.002Z</time></trkpt><trkpt lat="43.44310552503449" lon="11.2240268758077"><ele>226.25</ele><time>2026-05-04T11:02:05.002Z</time></trkpt><trkpt lat="43.44308197177209" lon="11.22423893971637"><ele>227.5</ele><time>2026-05-04T11:02:06.002Z</time></trkpt><trkpt lat="43.44308288863299" lon="11.224417370285526"><ele>228.75</ele><time>2026-05-04T11:02:07.002Z</time></trkpt><trkpt lat="43.443059794501124" lon="11.224572354082774"><ele>230.0</ele><time>2026-05-04T11:02:08.002Z</time></trkpt><trkpt lat="43.44301531745854" lon="11.224696486499159"><ele>230.4</ele><time>2026-05-04T11:02:09.002Z</time></trkpt><trkpt lat="43.442985919934955" lon="11.224832906111613"><ele>230.8</ele><time>2026-05-04T11:02:10.002Z</time></trkpt><trkpt lat="43.44294904439332" lon="11.224964791359566"><ele>231.2</ele><time>2026-05-04T11:02:11.002Z</time></trkpt><trkpt lat="43.44293030266823" lon="11.225106721370574"><ele>231.6</ele><time>2026-05-04T11:02:12.002Z</time></trkpt><trkpt lat="43.442917654573634" lon="11.225250898706786"><ele>232.0</ele><time>2026-05-04T11:02:13.002Z</time></trkpt><trkpt lat="43.44288501558764" lon="11.225388093585186"><ele>231.49999999999997</ele><time>2026-05-04T11:02:14.002Z</time></trkpt><trkpt lat="43.44285966488437" lon="11.225519222823086"><ele>231.0</ele><time>2026-05-04T11:02:15.002Z</time></trkpt><trkpt lat="43.442831987277074" lon="11.225635747555318"><ele>230.5</ele><time>2026-05-04T11:02:16.002Z</time></trkpt><trkpt lat="43.44280275480156" lon="11.225731807290293"><ele>230.0</ele><time>2026-05-04T11:02:17.002Z</time></trkpt><trkpt lat="43.442773334313806" lon="11.225835423825938"><ele>229.49999999999997</ele><time>2026-05-04T11:02:18.002Z</time></trkpt><trkpt lat="43.442744102015396" lon="11.22595210174297"><ele>229.0</ele><time>2026-05-04T11:02:19.002Z</time></trkpt><trkpt lat="43.44273250611732" lon="11.22609615870817"><ele>229.0</ele><time>2026-05-04T11:02:20.002Z</time></trkpt><trkpt lat="43.44268864244183" lon="11.226234376681335"><ele>228.99999999999997</ele><time>2026-05-04T11:02:21.002Z</time></trkpt><trkpt lat="43.44266064131562" lon="11.226370854836546"><ele>228.99999999999997</ele><time>2026-05-04T11:02:22.002Z</time></trkpt><trkpt lat="43.44263378449837" lon="11.226495918956752"><ele>229.0</ele><time>2026-05-04T11:02:23.002Z</time></trkpt><trkpt lat="43.44260597498325" lon="11.22662541940379"><ele>229.0</ele><time>2026-05-04T11:02:24.002Z</time></trkpt><trkpt lat="43.44257530778034" lon="11.226773890938661"><ele>229.0</ele><time>2026-05-04T11:02:25.002Z</time></trkpt><trkpt lat="43.44254355223563" lon="11.226932373852732"><ele>229.0</ele><time>2026-05-04T11:02:26.002Z</time></trkpt><trkpt lat="43.44251377473972" lon="11.227087379956004"><ele>229.0</ele><time>2026-05-04T11:02:27.002Z</time></trkpt><trkpt lat="43.44248891084963" lon="11.227229901416662"><ele>229.0</ele><time>2026-05-04T11:02:28.002Z</time></trkpt><trkpt lat="43.442465877745" lon="11.2273819597787"><ele>229.33333333333331</ele><time>2026-05-04T11:02:29.002Z</time></trkpt><trkpt lat="43.442460814250765" lon="11.227551522085452"><ele>229.66666666666669</ele><time>2026-05-04T11:02:30.002Z</time></trkpt><trkpt lat="43.442430709235765" lon="11.227765430510322"><ele>230.0</ele><time>2026-05-04T11:02:31.002Z</time></trkpt><trkpt lat="43.44241991147436" lon="11.22801984639275"><ele>230.66666666666669</ele><time>2026-05-04T11:02:32.002Z</time></trkpt><trkpt lat="43.44241352901954" lon="11.228307044191785"><ele>231.33333333333331</ele><time>2026-05-04T11:02:33.002Z</time></trkpt><trkpt lat="43.44240688341726" lon="11.228611178179046"><ele>232.0</ele><time>2026-05-04T11:02:34.002Z</time></trkpt><trkpt lat="43.44240121684642" lon="11.228937556042212"><ele>233.5</ele><time>2026-05-04T11:02:35.002Z</time></trkpt><trkpt lat="43.44241143903313" lon="11.229293780026593"><ele>235.0</ele><time>2026-05-04T11:02:36.002Z</time></trkpt><trkpt lat="43.44240370399139" lon="11.229646004471507"><ele>239.0</ele><time>2026-05-04T11:02:37.002Z</time></trkpt><trkpt lat="43.442395720573536" lon="11.229983309910695"><ele>243.0</ele><time>2026-05-04T11:02:38.002Z</time></trkpt><trkpt lat="43.44238838805052" lon="11.2303017322811"><ele>243.0</ele><time>2026-05-04T11:02:39.002Z</time></trkpt><trkpt lat="43.44237908516976" lon="11.230584476572826"><ele>243.0</ele><time>2026-05-04T11:02:40.002Z</time></trkpt><trkpt lat="43.44235357807905" lon="11.230829021821341"><ele>243.0</ele><time>2026-05-04T11:02:41.002Z</time></trkpt><trkpt lat="43.44237127804444" lon="11.231022422523392"><ele>245.2</ele><time>2026-05-04T11:02:42.002Z</time></trkpt><trkpt lat="43.44237230110603" lon="11.231176443220969"><ele>247.4</ele><time>2026-05-04T11:02:43.002Z</time></trkpt><trkpt lat="43.44234593350703" lon="11.231298977223457"><ele>249.59999999999997</ele><time>2026-05-04T11:02:44.002Z</time></trkpt><trkpt lat="43.4423223867744" lon="11.231448318966109"><ele>251.79999999999998</ele><time>2026-05-04T11:02:45.001Z</time></trkpt><trkpt lat="43.442308632775756" lon="11.231587712827082"><ele>254.0</ele><time>2026-05-04T11:02:46.001Z</time></trkpt><trkpt lat="43.442279203346814" lon="11.231679007750703"><ele>256.0</ele><time>2026-05-04T11:02:47.001Z</time></trkpt><trkpt lat="43.44216903104318" lon="11.231756268725569"><ele>258.0</ele><time>2026-05-04T11:02:49.001Z</time></trkpt><trkpt lat="43.44210519892778" lon="11.231767660422905"><ele>260.0</ele><time>2026-05-04T11:02:50.001Z</time></trkpt><trkpt lat="43.44202753617444" lon="11.231791025446547"><ele>262.0</ele><time>2026-05-04T11:02:51.001Z</time></trkpt><trkpt lat="43.44193568173107" lon="11.231813670055953"><ele>264.0</ele><time>2026-05-04T11:02:52.001Z</time></trkpt><trkpt lat="43.44183271344698" lon="11.231847273805508"><ele>266.0</ele><time>2026-05-04T11:02:53.001Z</time></trkpt><trkpt lat="43.4417064316503" lon="11.231890651743612"><ele>268.0</ele><time>2026-05-04T11:02:54.001Z</time></trkpt><trkpt lat="43.44159987574218" lon="11.231942673004363"><ele>270.0</ele><time>2026-05-04T11:02:55.001Z</time></trkpt><trkpt lat="43.44153358442793" lon="11.232006006783756"><ele>272.0</ele><time>2026-05-04T11:02:56.001Z</time></trkpt><trkpt lat="43.44145363894871" lon="11.232068511423389"><ele>274.0</ele><time>2026-05-04T11:02:57.001Z</time></trkpt><trkpt lat="43.44135604348725" lon="11.232176898871845"><ele>273.3333333333333</ele><time>2026-05-04T11:02:58.001Z</time></trkpt><trkpt lat="43.441228903018285" lon="11.232321231172682"><ele>272.6666666666667</ele><time>2026-05-04T11:02:59.001Z</time></trkpt><trkpt lat="43.44109114626826" lon="11.23246409341978"><ele>272.0</ele><time>2026-05-04T11:03:00.001Z</time></trkpt><trkpt lat="43.440966228812854" lon="11.232590391404836"><ele>272.0</ele><time>2026-05-04T11:03:01.001Z</time></trkpt><trkpt lat="43.440838385681126" lon="11.232712802916659"><ele>272.0</ele><time>2026-05-04T11:03:02.001Z</time></trkpt><trkpt lat="43.44072019802028" lon="11.232839618429665"><ele>272.0</ele><time>2026-05-04T11:03:03.001Z</time></trkpt><trkpt lat="43.44060491013123" lon="11.232968946415818"><ele>272.0</ele><time>2026-05-04T11:03:04.001Z</time></trkpt><trkpt lat="43.44050713069034" lon="11.23309317667657"><ele>272.0</ele><time>2026-05-04T11:03:05.001Z</time></trkpt><trkpt lat="43.44041803286201" lon="11.2332329620557"><ele>272.0</ele><time>2026-05-04T11:03:06.001Z</time></trkpt><trkpt lat="43.440340137543295" lon="11.233385647896526"><ele>272.0</ele><time>2026-05-04T11:03:07.001Z</time></trkpt><trkpt lat="43.44025920856196" lon="11.233531629913395"><ele>272.75</ele><time>2026-05-04T11:03:08.001Z</time></trkpt><trkpt lat="43.440189114231536" lon="11.233674333127713"><ele>273.5</ele><time>2026-05-04T11:03:09.001Z</time></trkpt><trkpt lat="43.440119075332" lon="11.233816923524296"><ele>274.25</ele><time>2026-05-04T11:03:10.001Z</time></trkpt><trkpt lat="43.44004314007403" lon="11.233966883564605"><ele>275.0</ele><time>2026-05-04T11:03:11.001Z</time></trkpt><trkpt lat="43.439960590209495" lon="11.234117413938737"><ele>275.75</ele><time>2026-05-04T11:03:12.001Z</time></trkpt><trkpt lat="43.43988012514603" lon="11.234247750073916"><ele>276.5</ele><time>2026-05-04T11:03:13.001Z</time></trkpt><trkpt lat="43.43977961733438" lon="11.234356188292953"><ele>277.25</ele><time>2026-05-04T11:03:14.001Z</time></trkpt><trkpt lat="43.4396429773535" lon="11.234480906813692"><ele>278.0</ele><time>2026-05-04T11:03:15.001Z</time></trkpt><trkpt lat="43.43949067528569" lon="11.234640157259083"><ele>278.0</ele><time>2026-05-04T11:03:16.001Z</time></trkpt><trkpt lat="43.43935087780007" lon="11.234800570811071"><ele>278.0</ele><time>2026-05-04T11:03:17.001Z</time></trkpt><trkpt lat="43.439231424513466" lon="11.234970009642833"><ele>278.0</ele><time>2026-05-04T11:03:18.001Z</time></trkpt><trkpt lat="43.43910750737315" lon="11.235124333718192"><ele>281.33333333333337</ele><time>2026-05-04T11:03:19.001Z</time></trkpt><trkpt lat="43.438979844403114" lon="11.23529624863924"><ele>284.6666666666667</ele><time>2026-05-04T11:03:20.001Z</time></trkpt><trkpt lat="43.43884987665399" lon="11.235486940061705"><ele>288.0</ele><time>2026-05-04T11:03:21.001Z</time></trkpt><trkpt lat="43.43871456190545" lon="11.235689698915452"><ele>290.6666666666667</ele><time>2026-05-04T11:03:22.001Z</time></trkpt><trkpt lat="43.438592140107474" lon="11.235874340591637"><ele>293.33333333333337</ele><time>2026-05-04T11:03:23.001Z</time></trkpt><trkpt lat="43.43846728375985" lon="11.23606398751521"><ele>296.0</ele><time>2026-05-04T11:03:24.001Z</time></trkpt><trkpt lat="43.43833912892837" lon="11.236257251685661"><ele>296.0</ele><time>2026-05-04T11:03:25.001Z</time></trkpt><trkpt lat="43.43822180458954" lon="11.236429675406155"><ele>296.0</ele><time>2026-05-04T11:03:26.001Z</time></trkpt><trkpt lat="43.43810788162165" lon="11.236581872163795"><ele>296.0</ele><time>2026-05-04T11:03:27.001Z</time></trkpt><trkpt lat="43.437993265032496" lon="11.236714045241603"><ele>296.33333333333337</ele><time>2026-05-04T11:03:28.001Z</time></trkpt><trkpt lat="43.43787047483791" lon="11.236829369574012"><ele>296.6666666666667</ele><time>2026-05-04T11:03:29.001Z</time></trkpt><trkpt lat="43.43772747495066" lon="11.236898856995964"><ele>297.0</ele><time>2026-05-04T11:03:30.001Z</time></trkpt><trkpt lat="43.43757649536801" lon="11.236987086091839"><ele>297.0</ele><time>2026-05-04T11:03:31.001Z</time></trkpt><trkpt lat="43.43740652684742" lon="11.237085773636124"><ele>297.0</ele><time>2026-05-04T11:03:32.001Z</time></trkpt><trkpt lat="43.43723779189377" lon="11.237158620389444"><ele>297.0</ele><time>2026-05-04T11:03:33.001Z</time></trkpt><trkpt lat="43.43709644424221" lon="11.237222710650531"><ele>296.75</ele><time>2026-05-04T11:03:34.001Z</time></trkpt><trkpt lat="43.43697852609381" lon="11.237294188003675"><ele>296.5</ele><time>2026-05-04T11:03:35.001Z</time></trkpt><trkpt lat="43.43687470260047" lon="11.23738702043956"><ele>296.25</ele><time>2026-05-04T11:03:36.001Z</time></trkpt><trkpt lat="43.43679302233904" lon="11.237496841945665"><ele>296.0</ele><time>2026-05-04T11:03:37.001Z</time></trkpt><trkpt lat="43.43671622217034" lon="11.237636737370243"><ele>296.0</ele><time>2026-05-04T11:03:38.001Z</time></trkpt><trkpt lat="43.436644253401774" lon="11.237806321052565"><ele>296.0</ele><time>2026-05-04T11:03:39.001Z</time></trkpt><trkpt lat="43.43655977223754" lon="11.23801256675513"><ele>296.0</ele><time>2026-05-04T11:03:40.001Z</time></trkpt><trkpt lat="43.43647662771343" lon="11.238222871441337"><ele>295.0</ele><time>2026-05-04T11:03:41.001Z</time></trkpt><trkpt lat="43.43638113635711" lon="11.238401237491079"><ele>294.0</ele><time>2026-05-04T11:03:42.001Z</time></trkpt><trkpt lat="43.43630645172911" lon="11.238576508133882"><ele>293.0</ele><time>2026-05-04T11:03:43.001Z</time></trkpt><trkpt lat="43.43622854618338" lon="11.238743810903886"><ele>291.0</ele><time>2026-05-04T11:03:44.001Z</time></trkpt><trkpt lat="43.43612349595416" lon="11.238914912549129"><ele>289.0</ele><time>2026-05-04T11:03:45.001Z</time></trkpt><trkpt lat="43.43600798063893" lon="11.239104241363853"><ele>287.0</ele><time>2026-05-04T11:03:46.001Z</time></trkpt><trkpt lat="43.435898265204266" lon="11.23930307420495"><ele>287.0</ele><time>2026-05-04T11:03:47.001Z</time></trkpt><trkpt lat="43.43578486049856" lon="11.239494420143323"><ele>287.0</ele><time>2026-05-04T11:03:48.001Z</time></trkpt><trkpt lat="43.435694668307654" lon="11.239657538665211"><ele>287.0</ele><time>2026-05-04T11:03:49.001Z</time></trkpt><trkpt lat="43.43560844785433" lon="11.239817277601004"><ele>286.75</ele><time>2026-05-04T11:03:50.001Z</time></trkpt><trkpt lat="43.43551378774079" lon="11.239965089053477"><ele>286.5</ele><time>2026-05-04T11:03:51.001Z</time></trkpt><trkpt lat="43.435445224185216" lon="11.240127878808362"><ele>286.25</ele><time>2026-05-04T11:03:52.001Z</time></trkpt><trkpt lat="43.435409652153815" lon="11.240313972831107"><ele>286.0</ele><time>2026-05-04T11:03:53.001Z</time></trkpt><trkpt lat="43.43538827461485" lon="11.240500198936457"><ele>287.0</ele><time>2026-05-04T11:03:54.001Z</time></trkpt><trkpt lat="43.435387101608555" lon="11.240713536087554"><ele>288.0</ele><time>2026-05-04T11:03:55.001Z</time></trkpt><trkpt lat="43.43540235761344" lon="11.240953017133313"><ele>289.0</ele><time>2026-05-04T11:03:56.001Z</time></trkpt><trkpt lat="43.43540488254346" lon="11.241194383984315"><ele>289.0</ele><time>2026-05-04T11:03:57.001Z</time></trkpt><trkpt lat="43.43541004443689" lon="11.2413751312695"><ele>289.0</ele><time>2026-05-04T11:03:58.001Z</time></trkpt><trkpt lat="43.435422281826874" lon="11.241537046844142"><ele>289.0</ele><time>2026-05-04T11:03:59.001Z</time></trkpt><trkpt lat="43.43544215482212" lon="11.24166085004134"><ele>289.0</ele><time>2026-05-04T11:04:00.001Z</time></trkpt><trkpt lat="43.43545181756632" lon="11.241761864487875"><ele>289.0</ele><time>2026-05-04T11:04:01.001Z</time></trkpt><trkpt lat="43.43552016128418" lon="11.241846480934223"><ele>288.75</ele><time>2026-05-04T11:04:02.001Z</time></trkpt><trkpt lat="43.43560239470224" lon="11.24198422491901"><ele>288.5</ele><time>2026-05-04T11:04:03.001Z</time></trkpt><trkpt lat="43.43568645774102" lon="11.242138316298526"><ele>288.25</ele><time>2026-05-04T11:04:04.002Z</time></trkpt><trkpt lat="43.43579677290166" lon="11.242301807027205"><ele>288.0</ele><time>2026-05-04T11:04:05.002Z</time></trkpt><trkpt lat="43.43591447484252" lon="11.242484050346514"><ele>288.0</ele><time>2026-05-04T11:04:06.002Z</time></trkpt><trkpt lat="43.43603000199296" lon="11.242670159046867"><ele>288.0</ele><time>2026-05-04T11:04:07.002Z</time></trkpt><trkpt lat="43.43614982074491" lon="11.24287202030418"><ele>288.0</ele><time>2026-05-04T11:04:08.002Z</time></trkpt><trkpt lat="43.43627205619407" lon="11.243087305607851"><ele>286.6666666666667</ele><time>2026-05-04T11:04:09.002Z</time></trkpt><trkpt lat="43.43640053145132" lon="11.243295461663907"><ele>285.33333333333337</ele><time>2026-05-04T11:04:10.002Z</time></trkpt><trkpt lat="43.436535888657346" lon="11.24350669900127"><ele>284.0</ele><time>2026-05-04T11:04:11.002Z</time></trkpt><trkpt lat="43.43668142924149" lon="11.243704439458234"><ele>284.0</ele><time>2026-05-04T11:04:12.002Z</time></trkpt><trkpt lat="43.43682136566473" lon="11.243913977648534"><ele>284.0</ele><time>2026-05-04T11:04:13.002Z</time></trkpt><trkpt lat="43.43695601391671" lon="11.244114535274614"><ele>284.0</ele><time>2026-05-04T11:04:14.002Z</time></trkpt><trkpt lat="43.43708254692651" lon="11.244315634016306"><ele>284.0</ele><time>2026-05-04T11:04:15.002Z</time></trkpt><trkpt lat="43.43721419869972" lon="11.244517654043623"><ele>284.0</ele><time>2026-05-04T11:04:16.002Z</time></trkpt><trkpt lat="43.43733886278673" lon="11.244711754799315"><ele>284.0</ele><time>2026-05-04T11:04:17.002Z</time></trkpt><trkpt lat="43.43745928378899" lon="11.244899522593332"><ele>286.0</ele><time>2026-05-04T11:04:18.002Z</time></trkpt><trkpt lat="43.43757655589847" lon="11.245074900382617"><ele>288.0</ele><time>2026-05-04T11:04:19.002Z</time></trkpt><trkpt lat="43.43769245673301" lon="11.24524811665194"><ele>290.0</ele><time>2026-05-04T11:04:20.002Z</time></trkpt><trkpt lat="43.437814693787146" lon="11.245445832533347"><ele>290.0</ele><time>2026-05-04T11:04:21.002Z</time></trkpt><trkpt lat="43.43792912982634" lon="11.245632403236327"><ele>290.0</ele><time>2026-05-04T11:04:22.002Z</time></trkpt><trkpt lat="43.438028469310574" lon="11.245822553028223"><ele>290.0</ele><time>2026-05-04T11:04:23.002Z</time></trkpt><trkpt lat="43.43813564116955" lon="11.245993179976974"><ele>290.0</ele><time>2026-05-04T11:04:24.002Z</time></trkpt><trkpt lat="43.43823073666556" lon="11.246140394566954"><ele>290.0</ele><time>2026-05-04T11:04:25.001Z</time></trkpt><trkpt lat="43.43832804865467" lon="11.246264624670639"><ele>290.0</ele><time>2026-05-04T11:04:26.001Z</time></trkpt><trkpt lat="43.43839461687072" lon="11.246382277735961"><ele>290.0</ele><time>2026-05-04T11:04:27.001Z</time></trkpt><trkpt lat="43.4384401932427" lon="11.246492970062056"><ele>290.5</ele><time>2026-05-04T11:04:28.001Z</time></trkpt><trkpt lat="43.43846220112009" lon="11.246608320268763"><ele>291.0</ele><time>2026-05-04T11:04:29.001Z</time></trkpt><trkpt lat="43.43846692528165" lon="11.246736755212348"><ele>291.5</ele><time>2026-05-04T11:04:30.001Z</time></trkpt><trkpt lat="43.43847458173422" lon="11.246912078780914"><ele>292.0</ele><time>2026-05-04T11:04:31.001Z</time></trkpt><trkpt lat="43.4384887261693" lon="11.2471199532448"><ele>291.3333333333333</ele><time>2026-05-04T11:04:32.001Z</time></trkpt><trkpt lat="43.43849654485279" lon="11.247346266160635"><ele>290.6666666666667</ele><time>2026-05-04T11:04:33.001Z</time></trkpt><trkpt lat="43.43850787008348" lon="11.247578313188708"><ele>290.0</ele><time>2026-05-04T11:04:34.001Z</time></trkpt><trkpt lat="43.4385195703441" lon="11.247808775939163"><ele>290.0</ele><time>2026-05-04T11:04:35.001Z</time></trkpt><trkpt lat="43.438544004466394" lon="11.248030417839553"><ele>290.0</ele><time>2026-05-04T11:04:36.001Z</time></trkpt><trkpt lat="43.43853843058553" lon="11.248253505227597"><ele>290.0</ele><time>2026-05-04T11:04:37.001Z</time></trkpt><trkpt lat="43.43855686706793" lon="11.248448495708036"><ele>290.0</ele><time>2026-05-04T11:04:38.001Z</time></trkpt><trkpt lat="43.438556652600326" lon="11.248614903485638"><ele>290.0</ele><time>2026-05-04T11:04:39.001Z</time></trkpt><trkpt lat="43.4385640117914" lon="11.248786309740034"><ele>290.0</ele><time>2026-05-04T11:04:40.001Z</time></trkpt><trkpt lat="43.43857249603757" lon="11.248965760366739"><ele>290.0</ele><time>2026-05-04T11:04:41.001Z</time></trkpt><trkpt lat="43.438581206309685" lon="11.249168739092948"><ele>290.0</ele><time>2026-05-04T11:04:42.001Z</time></trkpt><trkpt lat="43.43859445561638" lon="11.249369145306757"><ele>290.0</ele><time>2026-05-04T11:04:43.001Z</time></trkpt><trkpt lat="43.438608981168706" lon="11.249580157566939"><ele>290.0</ele><time>2026-05-04T11:04:44.001Z</time></trkpt><trkpt lat="43.43862982816407" lon="11.249795565811821"><ele>290.0</ele><time>2026-05-04T11:04:45.001Z</time></trkpt><trkpt lat="43.438640515378594" lon="11.250028577515762"><ele>290.0</ele><time>2026-05-04T11:04:46.001Z</time></trkpt><trkpt lat="43.43865871460477" lon="11.250228338344401"><ele>290.0</ele><time>2026-05-04T11:04:47.001Z</time></trkpt><trkpt lat="43.438676880004714" lon="11.250415426216609"><ele>290.0</ele><time>2026-05-04T11:04:48.001Z</time></trkpt><trkpt lat="43.43868803049761" lon="11.250610592172409"><ele>290.0</ele><time>2026-05-04T11:04:49.001Z</time></trkpt><trkpt lat="43.438697257209924" lon="11.250771740536248"><ele>290.0</ele><time>2026-05-04T11:04:50.001Z</time></trkpt><trkpt lat="43.43868595524649" lon="11.2509183102535"><ele>290.0</ele><time>2026-05-04T11:04:51.001Z</time></trkpt><trkpt lat="43.43867145264654" lon="11.251048691965714"><ele>290.0</ele><time>2026-05-04T11:04:52Z</time></trkpt><trkpt lat="43.43864585156327" lon="11.251185231920358"><ele>290.0</ele><time>2026-05-04T11:04:53Z</time></trkpt><trkpt lat="43.43862503124095" lon="11.251353894600669"><ele>290.0</ele><time>2026-05-04T11:04:54Z</time></trkpt><trkpt lat="43.438582293198436" lon="11.251549756999522"><ele>290.0</ele><time>2026-05-04T11:04:55Z</time></trkpt><trkpt lat="43.43853925443001" lon="11.251740882778353"><ele>290.0</ele><time>2026-05-04T11:04:56Z</time></trkpt><trkpt lat="43.438516818356774" lon="11.251928622389375"><ele>290.0</ele><time>2026-05-04T11:04:57Z</time></trkpt><trkpt lat="43.43847713610002" lon="11.25209338985261"><ele>290.0</ele><time>2026-05-04T11:04:58Z</time></trkpt><trkpt lat="43.4384082990108" lon="11.25223628427573"><ele>290.0</ele><time>2026-05-04T11:04:59Z</time></trkpt><trkpt lat="43.43831868817791" lon="11.25240209458734"><ele>291.0</ele><time>2026-05-04T11:05:00Z</time></trkpt><trkpt lat="43.438282578065596" lon="11.252579497856713"><ele>292.0</ele><time>2026-05-04T11:05:01Z</time></trkpt><trkpt lat="43.43824033357462" lon="11.252760683377032"><ele>293.0</ele><time>2026-05-04T11:05:02Z</time></trkpt><trkpt lat="43.43816371906944" lon="11.25294639545027"><ele>294.0</ele><time>2026-05-04T11:05:03Z</time></trkpt><trkpt lat="43.43808929408632" lon="11.253143126060696"><ele>293.3333333333333</ele><time>2026-05-04T11:05:04Z</time></trkpt><trkpt lat="43.43803187427989" lon="11.253345896288796"><ele>292.66666666666663</ele><time>2026-05-04T11:05:05Z</time></trkpt><trkpt lat="43.437952761676854" lon="11.253534571857392"><ele>292.0</ele><time>2026-05-04T11:05:06Z</time></trkpt><trkpt lat="43.43787392657743" lon="11.253695460551231"><ele>292.0</ele><time>2026-05-04T11:05:07Z</time></trkpt><trkpt lat="43.43778809500648" lon="11.253816535993396"><ele>292.0</ele><time>2026-05-04T11:05:08Z</time></trkpt><trkpt lat="43.437728560850644" lon="11.253946674849596"><ele>292.0</ele><time>2026-05-04T11:05:09Z</time></trkpt><trkpt lat="43.43764883089561" lon="11.254026877717353"><ele>292.0</ele><time>2026-05-04T11:05:10Z</time></trkpt><trkpt lat="43.43755157834947" lon="11.254043749616992"><ele>292.0</ele><time>2026-05-04T11:05:11Z</time></trkpt><trkpt lat="43.437435821624604" lon="11.25408493422347"><ele>293.0</ele><time>2026-05-04T11:05:12Z</time></trkpt><trkpt lat="43.43731238169684" lon="11.254157053033104"><ele>294.0</ele><time>2026-05-04T11:05:13Z</time></trkpt><trkpt lat="43.437181098110834" lon="11.254206973386724"><ele>295.0</ele><time>2026-05-04T11:05:14Z</time></trkpt><trkpt lat="43.437062448020654" lon="11.25425537261042"><ele>296.0</ele><time>2026-05-04T11:05:15Z</time></trkpt><trkpt lat="43.436951490779045" lon="11.254306325879783"><ele>296.0</ele><time>2026-05-04T11:05:16Z</time></trkpt><trkpt lat="43.436857346205706" lon="11.254353000043137"><ele>296.0</ele><time>2026-05-04T11:05:17Z</time></trkpt><trkpt lat="43.436808806818114" lon="11.254408932526514"><ele>296.0</ele><time>2026-05-04T11:05:18Z</time></trkpt><trkpt lat="43.43678317919236" lon="11.254586991083965"><ele>296.0</ele><time>2026-05-04T11:05:20Z</time></trkpt><trkpt lat="43.43671601160117" lon="11.25465903504605"><ele>296.0</ele><time>2026-05-04T11:05:22Z</time></trkpt><trkpt lat="43.43661883601896" lon="11.254667916152423"><ele>296.0</ele><time>2026-05-04T11:05:23Z</time></trkpt><trkpt lat="43.43650850467694" lon="11.25463128947325"><ele>296.0</ele><time>2026-05-04T11:05:24Z</time></trkpt><trkpt lat="43.4363978971137" lon="11.254614488048622"><ele>296.0</ele><time>2026-05-04T11:05:25Z</time></trkpt><trkpt lat="43.43622795141729" lon="11.25458702826695"><ele>296.0</ele><time>2026-05-04T11:05:26Z</time></trkpt><trkpt lat="43.436052212722764" lon="11.254557289245398"><ele>292.6666666666667</ele><time>2026-05-04T11:05:27Z</time></trkpt><trkpt lat="43.43587478172072" lon="11.254527782049108"><ele>289.3333333333333</ele><time>2026-05-04T11:05:28Z</time></trkpt><trkpt lat="43.43569494080808" lon="11.254500273572678"><ele>286.0</ele><time>2026-05-04T11:05:29Z</time></trkpt><trkpt lat="43.43551512714741" lon="11.254498105688864"><ele>283.3333333333333</ele><time>2026-05-04T11:05:30Z</time></trkpt><trkpt lat="43.43532731942688" lon="11.254456256277107"><ele>280.6666666666667</ele><time>2026-05-04T11:05:31Z</time></trkpt><trkpt lat="43.43513535066147" lon="11.2544317195437"><ele>278.0</ele><time>2026-05-04T11:05:32Z</time></trkpt><trkpt lat="43.43494350076883" lon="11.254426262728167"><ele>278.0</ele><time>2026-05-04T11:05:33Z</time></trkpt><trkpt lat="43.43475090523885" lon="11.254376616326253"><ele>278.0</ele><time>2026-05-04T11:05:34Z</time></trkpt><trkpt lat="43.434550693950825" lon="11.254345800132183"><ele>278.0</ele><time>2026-05-04T11:05:35Z</time></trkpt><trkpt lat="43.43434328942267" lon="11.254312044413973"><ele>274.6666666666667</ele><time>2026-05-04T11:05:36Z</time></trkpt><trkpt lat="43.43413324742155" lon="11.254277859435227"><ele>271.3333333333333</ele><time>2026-05-04T11:05:37Z</time></trkpt><trkpt lat="43.43393280875842" lon="11.254246607798148"><ele>268.0</ele><time>2026-05-04T11:05:38Z</time></trkpt><trkpt lat="43.43373611422687" lon="11.254218741814691"><ele>264.66666666666663</ele><time>2026-05-04T11:05:39Z</time></trkpt><trkpt lat="43.433545700336424" lon="11.254194562224793"><ele>261.3333333333333</ele><time>2026-05-04T11:05:40Z</time></trkpt><trkpt lat="43.43336010689707" lon="11.254175791074385"><ele>258.0</ele><time>2026-05-04T11:05:41Z</time></trkpt><trkpt lat="43.433192107970996" lon="11.254162376445343"><ele>258.0</ele><time>2026-05-04T11:05:42Z</time></trkpt><trkpt lat="43.43305121948074" lon="11.254171150969722"><ele>258.0</ele><time>2026-05-04T11:05:43Z</time></trkpt><trkpt lat="43.43291976841196" lon="11.254182799668333"><ele>258.0</ele><time>2026-05-04T11:05:44Z</time></trkpt><trkpt lat="43.43280885856025" lon="11.254149486591048"><ele>258.0</ele><time>2026-05-04T11:05:45Z</time></trkpt><trkpt lat="43.432707069735336" lon="11.254139673987233"><ele>256.0</ele><time>2026-05-04T11:05:46Z</time></trkpt><trkpt lat="43.43261925437635" lon="11.254134191739027"><ele>254.0</ele><time>2026-05-04T11:05:47Z</time></trkpt><trkpt lat="43.43251192532184" lon="11.254206766957111"><ele>252.0</ele><time>2026-05-04T11:05:49Z</time></trkpt><trkpt lat="43.43247061002914" lon="11.254314494063273"><ele>250.0</ele><time>2026-05-04T11:05:51Z</time></trkpt><trkpt lat="43.43239327719673" lon="11.254456330078007"><ele>248.0</ele><time>2026-05-04T11:05:53Z</time></trkpt><trkpt lat="43.432329500195664" lon="11.254568508754033"><ele>248.0</ele><time>2026-05-04T11:05:54Z</time></trkpt><trkpt lat="43.43223434251285" lon="11.254613767775105"><ele>248.0</ele><time>2026-05-04T11:05:55Z</time></trkpt><trkpt lat="43.432135506195245" lon="11.254680770400885"><ele>248.0</ele><time>2026-05-04T11:05:56Z</time></trkpt><trkpt lat="43.43202839981405" lon="11.254763113390883"><ele>248.0</ele><time>2026-05-04T11:05:57Z</time></trkpt><trkpt lat="43.43191144249851" lon="11.254869221523986"><ele>245.33333333333334</ele><time>2026-05-04T11:05:58Z</time></trkpt><trkpt lat="43.431783589331715" lon="11.25497723516296"><ele>242.66666666666669</ele><time>2026-05-04T11:05:59Z</time></trkpt><trkpt lat="43.43164397430485" lon="11.255087792565373"><ele>240.0</ele><time>2026-05-04T11:06:00Z</time></trkpt><trkpt lat="43.43149793626193" lon="11.255202673654653"><ele>240.0</ele><time>2026-05-04T11:06:01Z</time></trkpt><trkpt lat="43.431340206297534" lon="11.255321978606453"><ele>240.0</ele><time>2026-05-04T11:06:02Z</time></trkpt><trkpt lat="43.431181348669156" lon="11.255437801255052"><ele>240.0</ele><time>2026-05-04T11:06:03Z</time></trkpt><trkpt lat="43.43101751033617" lon="11.255558195583523"><ele>238.33333333333331</ele><time>2026-05-04T11:06:04Z</time></trkpt><trkpt lat="43.43085296532413" lon="11.255680042030294"><ele>236.66666666666666</ele><time>2026-05-04T11:06:05Z</time></trkpt><trkpt lat="43.43068443452273" lon="11.255796780768666"><ele>235.0</ele><time>2026-05-04T11:06:06Z</time></trkpt><trkpt lat="43.43052514474521" lon="11.255883545759733"><ele>233.66666666666666</ele><time>2026-05-04T11:06:07Z</time></trkpt><trkpt lat="43.43037674252089" lon="11.255982839243705"><ele>232.33333333333331</ele><time>2026-05-04T11:06:08Z</time></trkpt><trkpt lat="43.43023070169038" lon="11.256085126449236"><ele>231.0</ele><time>2026-05-04T11:06:09Z</time></trkpt><trkpt lat="43.430090577081344" lon="11.2562033538928"><ele>231.0</ele><time>2026-05-04T11:06:10Z</time></trkpt><trkpt lat="43.429934736330836" lon="11.256288962819934"><ele>231.0</ele><time>2026-05-04T11:06:11Z</time></trkpt><trkpt lat="43.429786109449125" lon="11.256350857025721"><ele>231.0</ele><time>2026-05-04T11:06:12Z</time></trkpt><trkpt lat="43.429631046686055" lon="11.256386753502454"><ele>231.0</ele><time>2026-05-04T11:06:13Z</time></trkpt><trkpt lat="43.42946999494584" lon="11.25637330180484"><ele>231.0</ele><time>2026-05-04T11:06:14Z</time></trkpt><trkpt lat="43.42928342661059" lon="11.256393646960609"><ele>231.0</ele><time>2026-05-04T11:06:15Z</time></trkpt><trkpt lat="43.42909235819243" lon="11.256394659004194"><ele>231.0</ele><time>2026-05-04T11:06:16Z</time></trkpt><trkpt lat="43.42891542731916" lon="11.2563810360218"><ele>231.0</ele><time>2026-05-04T11:06:17Z</time></trkpt><trkpt lat="43.42875490890958" lon="11.256395645981788"><ele>231.0</ele><time>2026-05-04T11:06:18Z</time></trkpt><trkpt lat="43.4286032477844" lon="11.256428827257803"><ele>232.0</ele><time>2026-05-04T11:06:19Z</time></trkpt><trkpt lat="43.42844642995903" lon="11.256418511445005"><ele>233.0</ele><time>2026-05-04T11:06:20Z</time></trkpt><trkpt lat="43.4282854368643" lon="11.256359549570774"><ele>234.0</ele><time>2026-05-04T11:06:21Z</time></trkpt><trkpt lat="43.42812013874323" lon="11.256305561019051"><ele>237.0</ele><time>2026-05-04T11:06:22Z</time></trkpt><trkpt lat="43.42794417232666" lon="11.256269861514664"><ele>240.0</ele><time>2026-05-04T11:06:23Z</time></trkpt><trkpt lat="43.4277917262315" lon="11.256234308186057"><ele>243.0</ele><time>2026-05-04T11:06:24Z</time></trkpt><trkpt lat="43.427660792436356" lon="11.256184644476974"><ele>243.0</ele><time>2026-05-04T11:06:25Z</time></trkpt><trkpt lat="43.427533541958454" lon="11.256182462793593"><ele>243.0</ele><time>2026-05-04T11:06:26Z</time></trkpt><trkpt lat="43.42740969933388" lon="11.256226391992042"><ele>243.0</ele><time>2026-05-04T11:06:27Z</time></trkpt><trkpt lat="43.42731452865478" lon="11.256258178182776"><ele>243.0</ele><time>2026-05-04T11:06:28Z</time></trkpt><trkpt lat="43.42723938912872" lon="11.256317910309438"><ele>243.0</ele><time>2026-05-04T11:06:30Z</time></trkpt><trkpt lat="43.42721726955006" lon="11.256415778425632"><ele>243.25</ele><time>2026-05-04T11:06:32Z</time></trkpt><trkpt lat="43.427169396214026" lon="11.25652618952644"><ele>243.5</ele><time>2026-05-04T11:06:33Z</time></trkpt><trkpt lat="43.42710951535549" lon="11.256661979995945"><ele>243.75</ele><time>2026-05-04T11:06:34Z</time></trkpt><trkpt lat="43.42703712451322" lon="11.256825852093872"><ele>244.0</ele><time>2026-05-04T11:06:35Z</time></trkpt><trkpt lat="43.426965866643826" lon="11.257027178441804"><ele>246.0</ele><time>2026-05-04T11:06:36Z</time></trkpt><trkpt lat="43.42685952461109" lon="11.257220141651729"><ele>248.0</ele><time>2026-05-04T11:06:37Z</time></trkpt><trkpt lat="43.426757308333386" lon="11.25744794637965"><ele>250.0</ele><time>2026-05-04T11:06:38Z</time></trkpt><trkpt lat="43.426667532449024" lon="11.257654185634069"><ele>251.0</ele><time>2026-05-04T11:06:39Z</time></trkpt><trkpt lat="43.426605416822575" lon="11.257842216483562"><ele>252.0</ele><time>2026-05-04T11:06:40.001Z</time></trkpt><trkpt lat="43.42654294131893" lon="11.258009478512221"><ele>253.0</ele><time>2026-05-04T11:06:41.001Z</time></trkpt><trkpt lat="43.42649631473434" lon="11.258168552543047"><ele>254.0</ele><time>2026-05-04T11:06:42.001Z</time></trkpt><trkpt lat="43.42646396471273" lon="11.258333645417206"><ele>254.6</ele><time>2026-05-04T11:06:43.001Z</time></trkpt><trkpt lat="43.42645598529083" lon="11.258479776127224"><ele>255.2</ele><time>2026-05-04T11:06:44.001Z</time></trkpt><trkpt lat="43.426434953905584" lon="11.25861776318049"><ele>255.79999999999998</ele><time>2026-05-04T11:06:45.001Z</time></trkpt><trkpt lat="43.426430703339214" lon="11.258767943697968"><ele>256.4</ele><time>2026-05-04T11:06:46.001Z</time></trkpt><trkpt lat="43.42642899584231" lon="11.258929263110982"><ele>257.0</ele><time>2026-05-04T11:06:47.001Z</time></trkpt><trkpt lat="43.4264442253482" lon="11.2591122096586"><ele>258.33333333333337</ele><time>2026-05-04T11:06:48.001Z</time></trkpt><trkpt lat="43.42644958307643" lon="11.259309231780914"><ele>259.6666666666667</ele><time>2026-05-04T11:06:49.001Z</time></trkpt><trkpt lat="43.42646879983637" lon="11.259516661932391"><ele>261.0</ele><time>2026-05-04T11:06:50.001Z</time></trkpt><trkpt lat="43.42649644396092" lon="11.259738787483874"><ele>262.3333333333333</ele><time>2026-05-04T11:06:51.001Z</time></trkpt><trkpt lat="43.42652733112742" lon="11.259974229727906"><ele>263.66666666666663</ele><time>2026-05-04T11:06:52.001Z</time></trkpt><trkpt lat="43.426558001657" lon="11.260230883327289"><ele>265.0</ele><time>2026-05-04T11:06:53.001Z</time></trkpt><trkpt lat="43.426583615200286" lon="11.260497638160016"><ele>266.66666666666663</ele><time>2026-05-04T11:06:54.001Z</time></trkpt><trkpt lat="43.42660530244935" lon="11.26077986898907"><ele>268.3333333333333</ele><time>2026-05-04T11:06:55.001Z</time></trkpt><trkpt lat="43.4266225437651" lon="11.261039400118834"><ele>270.0</ele><time>2026-05-04T11:06:56.001Z</time></trkpt><trkpt lat="43.42662259802662" lon="11.26130111247945"><ele>271.75</ele><time>2026-05-04T11:06:57Z</time></trkpt><trkpt lat="43.426638407802145" lon="11.261528308568414"><ele>273.5</ele><time>2026-05-04T11:06:58Z</time></trkpt><trkpt lat="43.42665662580982" lon="11.261713646008266"><ele>275.25</ele><time>2026-05-04T11:06:59Z</time></trkpt><trkpt lat="43.42669995539968" lon="11.261879977424059"><ele>277.0</ele><time>2026-05-04T11:07:00Z</time></trkpt><trkpt lat="43.42674701310696" lon="11.262040875532492"><ele>277.0</ele><time>2026-05-04T11:07:01Z</time></trkpt><trkpt lat="43.42681291602734" lon="11.262193782940015"><ele>277.0</ele><time>2026-05-04T11:07:02Z</time></trkpt><trkpt lat="43.42686367798485" lon="11.26236323543508"><ele>277.0</ele><time>2026-05-04T11:07:03Z</time></trkpt><trkpt lat="43.42691878937627" lon="11.262514537432828"><ele>277.0</ele><time>2026-05-04T11:07:04Z</time></trkpt><trkpt lat="43.42697238594842" lon="11.262661680207977"><ele>278.75</ele><time>2026-05-04T11:07:05Z</time></trkpt><trkpt lat="43.42704189962531" lon="11.262834155851614"><ele>280.5</ele><time>2026-05-04T11:07:06Z</time></trkpt><trkpt lat="43.42712141496553" lon="11.263024670587471"><ele>282.25</ele><time>2026-05-04T11:07:07Z</time></trkpt><trkpt lat="43.42719386159627" lon="11.263194688417672"><ele>284.0</ele><time>2026-05-04T11:07:08Z</time></trkpt><trkpt lat="43.42726254071662" lon="11.263341624970558"><ele>284.75</ele><time>2026-05-04T11:07:09Z</time></trkpt><trkpt lat="43.427338900533584" lon="11.263490064274459"><ele>285.5</ele><time>2026-05-04T11:07:10Z</time></trkpt><trkpt lat="43.427431428361366" lon="11.263642743691204"><ele>286.25</ele><time>2026-05-04T11:07:11Z</time></trkpt><trkpt lat="43.42752288892913" lon="11.2637911591175"><ele>287.0</ele><time>2026-05-04T11:07:12Z</time></trkpt><trkpt lat="43.42761463459133" lon="11.263938297376432"><ele>286.75</ele><time>2026-05-04T11:07:13Z</time></trkpt><trkpt lat="43.42769467673593" lon="11.264071965075159"><ele>286.5</ele><time>2026-05-04T11:07:14Z</time></trkpt><trkpt lat="43.42776350610306" lon="11.26420309821235"><ele>286.25</ele><time>2026-05-04T11:07:15Z</time></trkpt><trkpt lat="43.427815963918604" lon="11.264333781488483"><ele>286.0</ele><time>2026-05-04T11:07:16Z</time></trkpt><trkpt lat="43.42784889061061" lon="11.264467777083738"><ele>286.0</ele><time>2026-05-04T11:07:17Z</time></trkpt><trkpt lat="43.42786328847436" lon="11.264594524226734"><ele>286.0</ele><time>2026-05-04T11:07:18Z</time></trkpt><trkpt lat="43.42786867743495" lon="11.264736637736592"><ele>286.0</ele><time>2026-05-04T11:07:19Z</time></trkpt><trkpt lat="43.427857890797696" lon="11.264886895140046"><ele>286.0</ele><time>2026-05-04T11:07:20Z</time></trkpt><trkpt lat="43.42783557378998" lon="11.265044442967401"><ele>286.0</ele><time>2026-05-04T11:07:21Z</time></trkpt><trkpt lat="43.427810020243534" lon="11.265204715527265"><ele>285.25</ele><time>2026-05-04T11:07:22Z</time></trkpt><trkpt lat="43.427759879770214" lon="11.26533531444087"><ele>284.5</ele><time>2026-05-04T11:07:23Z</time></trkpt><trkpt lat="43.427710804659995" lon="11.2654744210346"><ele>283.75</ele><time>2026-05-04T11:07:24Z</time></trkpt><trkpt lat="43.42765921587847" lon="11.265636046145737"><ele>283.0</ele><time>2026-05-04T11:07:25Z</time></trkpt><trkpt lat="43.42757436707321" lon="11.26580908349978"><ele>282.3333333333333</ele><time>2026-05-04T11:07:26Z</time></trkpt><trkpt lat="43.42748685730944" lon="11.26599398303462"><ele>281.6666666666667</ele><time>2026-05-04T11:07:27Z</time></trkpt><trkpt lat="43.427389788603946" lon="11.266188131900655"><ele>281.0</ele><time>2026-05-04T11:07:28Z</time></trkpt><trkpt lat="43.42728586934843" lon="11.266371328296229"><ele>279.6666666666667</ele><time>2026-05-04T11:07:29Z</time></trkpt><trkpt lat="43.42717875030816" lon="11.266567270730468"><ele>278.3333333333333</ele><time>2026-05-04T11:07:30Z</time></trkpt><trkpt lat="43.42707938434513" lon="11.266761128512515"><ele>277.0</ele><time>2026-05-04T11:07:31Z</time></trkpt><trkpt lat="43.42699348842808" lon="11.266969743280066"><ele>276.3333333333333</ele><time>2026-05-04T11:07:32Z</time></trkpt><trkpt lat="43.42689791670582" lon="11.267186504797465"><ele>275.6666666666667</ele><time>2026-05-04T11:07:33Z</time></trkpt><trkpt lat="43.42681519598135" lon="11.267401733287246"><ele>275.0</ele><time>2026-05-04T11:07:34Z</time></trkpt><trkpt lat="43.4267351857194" lon="11.267617683967199"><ele>276.33333333333337</ele><time>2026-05-04T11:07:35Z</time></trkpt><trkpt lat="43.42665278221821" lon="11.26783481320435"><ele>277.6666666666667</ele><time>2026-05-04T11:07:36Z</time></trkpt><trkpt lat="43.42658759770614" lon="11.268045635012008"><ele>279.0</ele><time>2026-05-04T11:07:37Z</time></trkpt><trkpt lat="43.42653763275087" lon="11.26825396298006"><ele>279.6666666666667</ele><time>2026-05-04T11:07:38Z</time></trkpt><trkpt lat="43.42648532196933" lon="11.2684738932203"><ele>280.33333333333337</ele><time>2026-05-04T11:07:39Z</time></trkpt><trkpt lat="43.42643723767219" lon="11.268694193015655"><ele>281.0</ele><time>2026-05-04T11:07:40Z</time></trkpt><trkpt lat="43.42639944153731" lon="11.268903900725"><ele>280.5</ele><time>2026-05-04T11:07:41Z</time></trkpt><trkpt lat="43.42638732709543" lon="11.269092197956141"><ele>280.0</ele><time>2026-05-04T11:07:42Z</time></trkpt><trkpt lat="43.42638457436758" lon="11.269283229507717"><ele>279.5</ele><time>2026-05-04T11:07:43Z</time></trkpt><trkpt lat="43.42638940975962" lon="11.269481634811852"><ele>279.0</ele><time>2026-05-04T11:07:44Z</time></trkpt><trkpt lat="43.426389445660284" lon="11.269683511823983"><ele>279.25</ele><time>2026-05-04T11:07:45Z</time></trkpt><trkpt lat="43.426389719708936" lon="11.269874105319587"><ele>279.5</ele><time>2026-05-04T11:07:46Z</time></trkpt><trkpt lat="43.426390664051446" lon="11.270043239881833"><ele>279.75</ele><time>2026-05-04T11:07:47Z</time></trkpt><trkpt lat="43.42638871236788" lon="11.27019304374241"><ele>280.0</ele><time>2026-05-04T11:07:48Z</time></trkpt><trkpt lat="43.42636976131828" lon="11.270343430827737"><ele>279.5</ele><time>2026-05-04T11:07:49Z</time></trkpt><trkpt lat="43.42630257059061" lon="11.270465556438708"><ele>279.0</ele><time>2026-05-04T11:07:50Z</time></trkpt><trkpt lat="43.42624441366051" lon="11.270608437587006"><ele>278.5</ele><time>2026-05-04T11:07:51Z</time></trkpt><trkpt lat="43.42618570228303" lon="11.270783679749782"><ele>278.0</ele><time>2026-05-04T11:07:52Z</time></trkpt><trkpt lat="43.42610856746088" lon="11.270969625964868"><ele>278.0</ele><time>2026-05-04T11:07:53Z</time></trkpt><trkpt lat="43.42603612977062" lon="11.271164014191658"><ele>278.0</ele><time>2026-05-04T11:07:54Z</time></trkpt><trkpt lat="43.42595131121096" lon="11.271376734669575"><ele>278.0</ele><time>2026-05-04T11:07:55Z</time></trkpt><trkpt lat="43.42587290647781" lon="11.271584766849573"><ele>278.0</ele><time>2026-05-04T11:07:56Z</time></trkpt><trkpt lat="43.425785817193685" lon="11.271815432390595"><ele>278.0</ele><time>2026-05-04T11:07:57Z</time></trkpt><trkpt lat="43.42570192335377" lon="11.272039399585264"><ele>278.0</ele><time>2026-05-04T11:07:58Z</time></trkpt><trkpt lat="43.42562010945237" lon="11.272252421987506"><ele>278.6666666666667</ele><time>2026-05-04T11:07:59Z</time></trkpt><trkpt lat="43.4255338214634" lon="11.272463172353097"><ele>279.3333333333333</ele><time>2026-05-04T11:08:00Z</time></trkpt><trkpt lat="43.42545290822769" lon="11.272645025665984"><ele>280.0</ele><time>2026-05-04T11:08:01Z</time></trkpt><trkpt lat="43.42537818743363" lon="11.27283218332838"><ele>278.66666666666663</ele><time>2026-05-04T11:08:02Z</time></trkpt><trkpt lat="43.42530534951253" lon="11.27303311850183"><ele>277.3333333333333</ele><time>2026-05-04T11:08:03Z</time></trkpt><trkpt lat="43.42523103479221" lon="11.273238788820514"><ele>276.0</ele><time>2026-05-04T11:08:04Z</time></trkpt><trkpt lat="43.42516095930658" lon="11.2734178627781"><ele>276.0</ele><time>2026-05-04T11:08:05Z</time></trkpt><trkpt lat="43.42509897637615" lon="11.27357374928147"><ele>276.0</ele><time>2026-05-04T11:08:06Z</time></trkpt><trkpt lat="43.4250364330286" lon="11.273723770979645"><ele>276.0</ele><time>2026-05-04T11:08:07Z</time></trkpt><trkpt lat="43.424988902706986" lon="11.27385557983171"><ele>276.0</ele><time>2026-05-04T11:08:08Z</time></trkpt><trkpt lat="43.424963654096125" lon="11.273977482926123"><ele>276.2</ele><time>2026-05-04T11:08:09Z</time></trkpt><trkpt lat="43.42495974244107" lon="11.27412246392143"><ele>276.40000000000003</ele><time>2026-05-04T11:08:10Z</time></trkpt><trkpt lat="43.42497319759441" lon="11.27427952198947"><ele>276.6</ele><time>2026-05-04T11:08:11Z</time></trkpt><trkpt lat="43.424992816378435" lon="11.274437717398005"><ele>276.8</ele><time>2026-05-04T11:08:12Z</time></trkpt><trkpt lat="43.42498133772472" lon="11.27457331258843"><ele>277.0</ele><time>2026-05-04T11:08:13Z</time></trkpt><trkpt lat="43.42499438174016" lon="11.274711050529916"><ele>277.0</ele><time>2026-05-04T11:08:14Z</time></trkpt><trkpt lat="43.4249812224678" lon="11.274840225250063"><ele>277.0</ele><time>2026-05-04T11:08:15Z</time></trkpt><trkpt lat="43.424950057111495" lon="11.274961759175119"><ele>277.0</ele><time>2026-05-04T11:08:16Z</time></trkpt><trkpt lat="43.42487894487071" lon="11.27501713471086"><ele>277.0</ele><time>2026-05-04T11:08:17Z</time></trkpt><trkpt lat="43.424802375623415" lon="11.275117319293262"><ele>277.0</ele><time>2026-05-04T11:08:18Z</time></trkpt><trkpt lat="43.42470740739058" lon="11.275235517139"><ele>277.0</ele><time>2026-05-04T11:08:19Z</time></trkpt><trkpt lat="43.42458259080943" lon="11.275385395603468"><ele>277.0</ele><time>2026-05-04T11:08:20Z</time></trkpt><trkpt lat="43.42445519666821" lon="11.275562760524105"><ele>277.0</ele><time>2026-05-04T11:08:21Z</time></trkpt><trkpt lat="43.42432269505261" lon="11.275687104332274"><ele>279.0</ele><time>2026-05-04T11:08:22Z</time></trkpt><trkpt lat="43.42421881019078" lon="11.275750206070818"><ele>281.0</ele><time>2026-05-04T11:08:23Z</time></trkpt><trkpt lat="43.42410800467587" lon="11.275808225772224"><ele>283.0</ele><time>2026-05-04T11:08:24Z</time></trkpt><trkpt lat="43.423982205611374" lon="11.275885734832286"><ele>285.0</ele><time>2026-05-04T11:08:25Z</time></trkpt><trkpt lat="43.42384134020213" lon="11.27594976488949"><ele>284.0</ele><time>2026-05-04T11:08:26Z</time></trkpt><trkpt lat="43.423707350566566" lon="11.276031386443226"><ele>283.0</ele><time>2026-05-04T11:08:27Z</time></trkpt><trkpt lat="43.42358640619054" lon="11.276138494304245"><ele>282.0</ele><time>2026-05-04T11:08:28Z</time></trkpt><trkpt lat="43.423460137408874" lon="11.276266051843505"><ele>281.0</ele><time>2026-05-04T11:08:29Z</time></trkpt><trkpt lat="43.42331846076317" lon="11.276405825350668"><ele>282.6666666666667</ele><time>2026-05-04T11:08:30Z</time></trkpt><trkpt lat="43.42314591180374" lon="11.276560806701836"><ele>284.3333333333333</ele><time>2026-05-04T11:08:31Z</time></trkpt><trkpt lat="43.42295580116123" lon="11.276728535194831"><ele>286.0</ele><time>2026-05-04T11:08:32Z</time></trkpt><trkpt lat="43.422767490640034" lon="11.276889695841517"><ele>286.0</ele><time>2026-05-04T11:08:33Z</time></trkpt><trkpt lat="43.42262168244704" lon="11.277023237978733"><ele>286.0</ele><time>2026-05-04T11:08:34Z</time></trkpt><trkpt lat="43.422485504961955" lon="11.277133962018082"><ele>286.0</ele><time>2026-05-04T11:08:35Z</time></trkpt><trkpt lat="43.42235391820244" lon="11.277205569989741"><ele>287.40000000000003</ele><time>2026-05-04T11:08:36Z</time></trkpt><trkpt lat="43.422247754649355" lon="11.277293317614"><ele>288.8</ele><time>2026-05-04T11:08:37Z</time></trkpt><trkpt lat="43.42218744967125" lon="11.277387041426344"><ele>290.20000000000005</ele><time>2026-05-04T11:08:38Z</time></trkpt><trkpt lat="43.42214360403001" lon="11.277462231440236"><ele>291.6</ele><time>2026-05-04T11:08:39Z</time></trkpt><trkpt lat="43.42207873262221" lon="11.277646641220617"><ele>293.0</ele><time>2026-05-04T11:08:41Z</time></trkpt><trkpt lat="43.422030729180904" lon="11.277761337894482"><ele>293.0</ele><time>2026-05-04T11:08:42Z</time></trkpt><trkpt lat="43.42195289229124" lon="11.27777733555603"><ele>293.0</ele><time>2026-05-04T11:08:43Z</time></trkpt><trkpt lat="43.42187777471145" lon="11.277753203747194"><ele>293.0</ele><time>2026-05-04T11:08:44Z</time></trkpt><trkpt lat="43.42178762920675" lon="11.277737862445385"><ele>293.0</ele><time>2026-05-04T11:08:45Z</time></trkpt><trkpt lat="43.421721785517704" lon="11.277747494656136"><ele>293.0</ele><time>2026-05-04T11:08:46Z</time></trkpt><trkpt lat="43.42173791693702" lon="11.277940831430378"><ele>293.0</ele><time>2026-05-04T11:08:50Z</time></trkpt><trkpt lat="43.421813555757254" lon="11.278011258800602"><ele>293.0</ele><time>2026-05-04T11:08:51Z</time></trkpt><trkpt lat="43.421897633608125" lon="11.27812349366486"><ele>293.0</ele><time>2026-05-04T11:08:52Z</time></trkpt><trkpt lat="43.42200556172256" lon="11.278235794574782"><ele>293.0</ele><time>2026-05-04T11:08:53Z</time></trkpt><trkpt lat="43.422107121505036" lon="11.278302895886382"><ele>293.75</ele><time>2026-05-04T11:08:54Z</time></trkpt><trkpt lat="43.42221126658606" lon="11.278312369511651"><ele>294.5</ele><time>2026-05-04T11:08:55Z</time></trkpt><trkpt lat="43.4223223007944" lon="11.278314904727564"><ele>295.25</ele><time>2026-05-04T11:08:56Z</time></trkpt><trkpt lat="43.422461615529336" lon="11.278300810871814"><ele>296.0</ele><time>2026-05-04T11:08:57Z</time></trkpt><trkpt lat="43.422626266529775" lon="11.278320287137056"><ele>296.0</ele><time>2026-05-04T11:08:58Z</time></trkpt><trkpt lat="43.42281310107192" lon="11.278289823056127"><ele>296.0</ele><time>2026-05-04T11:08:59Z</time></trkpt><trkpt lat="43.42299407868828" lon="11.278224287090763"><ele>296.0</ele><time>2026-05-04T11:09:00Z</time></trkpt><trkpt lat="43.42317679238624" lon="11.278215102692497"><ele>298.6666666666667</ele><time>2026-05-04T11:09:01Z</time></trkpt><trkpt lat="43.423343429567765" lon="11.278204589237538"><ele>301.3333333333333</ele><time>2026-05-04T11:09:02Z</time></trkpt><trkpt lat="43.42351381249238" lon="11.278209839801164"><ele>304.0</ele><time>2026-05-04T11:09:03Z</time></trkpt><trkpt lat="43.4236905128783" lon="11.278184067426992"><ele>308.0</ele><time>2026-05-04T11:09:04Z</time></trkpt><trkpt lat="43.42387131947084" lon="11.278125100599894"><ele>312.0</ele><time>2026-05-04T11:09:05Z</time></trkpt><trkpt lat="43.42404691670585" lon="11.278138544034492"><ele>316.0</ele><time>2026-05-04T11:09:06Z</time></trkpt><trkpt lat="43.424245740719684" lon="11.278145387074042"><ele>316.0</ele><time>2026-05-04T11:09:07Z</time></trkpt><trkpt lat="43.424423458361574" lon="11.278157238188038"><ele>316.0</ele><time>2026-05-04T11:09:08Z</time></trkpt><trkpt lat="43.424572484156904" lon="11.27816717598153"><ele>316.0</ele><time>2026-05-04T11:09:09Z</time></trkpt><trkpt lat="43.42470320417491" lon="11.278177354212927"><ele>317.4</ele><time>2026-05-04T11:09:10Z</time></trkpt><trkpt lat="43.424812889572955" lon="11.278187842488697"><ele>318.8</ele><time>2026-05-04T11:09:11Z</time></trkpt><trkpt lat="43.42492767429414" lon="11.278184063380664"><ele>320.2</ele><time>2026-05-04T11:09:12Z</time></trkpt><trkpt lat="43.425024293028216" lon="11.27826050682783"><ele>321.59999999999997</ele><time>2026-05-04T11:09:13Z</time></trkpt><trkpt lat="43.42509945066046" lon="11.278335911313883"><ele>323.0</ele><time>2026-05-04T11:09:14Z</time></trkpt><trkpt lat="43.42518883145078" lon="11.278411806325177"><ele>323.0</ele><time>2026-05-04T11:09:15Z</time></trkpt><trkpt lat="43.425298821139464" lon="11.278536557047826"><ele>323.0</ele><time>2026-05-04T11:09:16Z</time></trkpt><trkpt lat="43.425428743579204" lon="11.27866262452942"><ele>323.0</ele><time>2026-05-04T11:09:17Z</time></trkpt><trkpt lat="43.42553690273355" lon="11.278778778670178"><ele>323.0</ele><time>2026-05-04T11:09:18Z</time></trkpt><trkpt lat="43.42561942819988" lon="11.278870440847095"><ele>325.1666666666667</ele><time>2026-05-04T11:09:19Z</time></trkpt><trkpt lat="43.425675757098645" lon="11.278951930576799"><ele>327.33333333333337</ele><time>2026-05-04T11:09:20Z</time></trkpt><trkpt lat="43.425718411049886" lon="11.2790228756187"><ele>329.5</ele><time>2026-05-04T11:09:21Z</time></trkpt><trkpt lat="43.42573840783574" lon="11.279156805587204"><ele>331.6666666666667</ele><time>2026-05-04T11:09:23Z</time></trkpt><trkpt lat="43.42567639444958" lon="11.279256897373866"><ele>333.8333333333333</ele><time>2026-05-04T11:09:25Z</time></trkpt><trkpt lat="43.425646261751936" lon="11.279346081068967"><ele>336.0</ele><time>2026-05-04T11:09:26Z</time></trkpt><trkpt lat="43.42558022864089" lon="11.279442136280213"><ele>336.0</ele><time>2026-05-04T11:09:27Z</time></trkpt><trkpt lat="43.4255007015513" lon="11.27959065610433"><ele>336.0</ele><time>2026-05-04T11:09:28Z</time></trkpt><trkpt lat="43.4253962606662" lon="11.27977853232159"><ele>336.0</ele><time>2026-05-04T11:09:29Z</time></trkpt><trkpt lat="43.42527237328774" lon="11.279987539113044"><ele>335.6666666666667</ele><time>2026-05-04T11:09:30Z</time></trkpt><trkpt lat="43.425144167851045" lon="11.28020318976978"><ele>335.33333333333337</ele><time>2026-05-04T11:09:31Z</time></trkpt><trkpt lat="43.425013009052805" lon="11.280421551398055"><ele>335.0</ele><time>2026-05-04T11:09:32Z</time></trkpt><trkpt lat="43.4249106035483" lon="11.28061592957214"><ele>336.5</ele><time>2026-05-04T11:09:33Z</time></trkpt><trkpt lat="43.42481733806168" lon="11.280775082526889"><ele>338.0</ele><time>2026-05-04T11:09:34Z</time></trkpt><trkpt lat="43.42473330087413" lon="11.280906881502599"><ele>339.5</ele><time>2026-05-04T11:09:35Z</time></trkpt><trkpt lat="43.42467065398864" lon="11.281023991435337"><ele>341.0</ele><time>2026-05-04T11:09:36Z</time></trkpt><trkpt lat="43.424621009974366" lon="11.281114647285852"><ele>341.0</ele><time>2026-05-04T11:09:37Z</time></trkpt><trkpt lat="43.42457594123444" lon="11.281246481847303"><ele>341.0</ele><time>2026-05-04T11:09:39Z</time></trkpt><trkpt lat="43.42465681771321" lon="11.281372712705352"><ele>341.0</ele><time>2026-05-04T11:09:41Z</time></trkpt><trkpt lat="43.42472889328323" lon="11.281367396617384"><ele>341.0</ele><time>2026-05-04T11:09:42Z</time></trkpt><trkpt lat="43.42481489523945" lon="11.281308601401122"><ele>341.0</ele><time>2026-05-04T11:09:43Z</time></trkpt><trkpt lat="43.42492411215773" lon="11.28127218016342"><ele>342.0</ele><time>2026-05-04T11:09:44Z</time></trkpt><trkpt lat="43.42506695793816" lon="11.28122972466097"><ele>343.0</ele><time>2026-05-04T11:09:45Z</time></trkpt><trkpt lat="43.4252351339877" lon="11.28120464059964"><ele>344.0</ele><time>2026-05-04T11:09:46Z</time></trkpt><trkpt lat="43.42538366376078" lon="11.281158861008329"><ele>344.79999999999995</ele><time>2026-05-04T11:09:47Z</time></trkpt><trkpt lat="43.425499258282024" lon="11.281121887520998"><ele>345.59999999999997</ele><time>2026-05-04T11:09:48Z</time></trkpt><trkpt lat="43.4255918114448" lon="11.281099997399748"><ele>346.4</ele><time>2026-05-04T11:09:49Z</time></trkpt><trkpt lat="43.425686178294804" lon="11.281100441319497"><ele>347.2</ele><time>2026-05-04T11:09:50Z</time></trkpt><trkpt lat="43.42579323103278" lon="11.281099633453355"><ele>348.0</ele><time>2026-05-04T11:09:51Z</time></trkpt><trkpt lat="43.425931273464954" lon="11.281126676476852"><ele>348.0</ele><time>2026-05-04T11:09:52Z</time></trkpt><trkpt lat="43.42609004766665" lon="11.281145440185387"><ele>348.0</ele><time>2026-05-04T11:09:53Z</time></trkpt><trkpt lat="43.42626761577638" lon="11.281158241958968"><ele>348.0</ele><time>2026-05-04T11:09:54Z</time></trkpt><trkpt lat="43.42643968694132" lon="11.281187296998999"><ele>348.6666666666667</ele><time>2026-05-04T11:09:55Z</time></trkpt><trkpt lat="43.42663004303205" lon="11.28120127116847"><ele>349.33333333333337</ele><time>2026-05-04T11:09:56Z</time></trkpt><trkpt lat="43.4268468981726" lon="11.281212079927899"><ele>350.0</ele><time>2026-05-04T11:09:57Z</time></trkpt><trkpt lat="43.42706884189995" lon="11.281221322218757"><ele>350.6666666666667</ele><time>2026-05-04T11:09:58Z</time></trkpt><trkpt lat="43.42728087608252" lon="11.281230644573728"><ele>351.3333333333333</ele><time>2026-05-04T11:09:59Z</time></trkpt><trkpt lat="43.427484806987565" lon="11.28122245179053"><ele>352.0</ele><time>2026-05-04T11:10:00Z</time></trkpt><trkpt lat="43.427677830100876" lon="11.281259246050334"><ele>352.0</ele><time>2026-05-04T11:10:01Z</time></trkpt><trkpt lat="43.42786504840331" lon="11.28125281575877"><ele>352.0</ele><time>2026-05-04T11:10:02Z</time></trkpt><trkpt lat="43.428023918881905" lon="11.281266122368438"><ele>352.0</ele><time>2026-05-04T11:10:03Z</time></trkpt><trkpt lat="43.428189328458295" lon="11.281266463158891"><ele>351.66666666666663</ele><time>2026-05-04T11:10:04Z</time></trkpt><trkpt lat="43.42836683554019" lon="11.281256642772236"><ele>351.3333333333333</ele><time>2026-05-04T11:10:05Z</time></trkpt><trkpt lat="43.42853233587421" lon="11.2812455370478"><ele>351.0</ele><time>2026-05-04T11:10:06Z</time></trkpt><trkpt lat="43.42867389764486" lon="11.281243460969305"><ele>351.0</ele><time>2026-05-04T11:10:07Z</time></trkpt><trkpt lat="43.42878521701497" lon="11.281257151943139"><ele>351.0</ele><time>2026-05-04T11:10:08Z</time></trkpt><trkpt lat="43.428879042449076" lon="11.28125967250913"><ele>351.0</ele><time>2026-05-04T11:10:09Z</time></trkpt><trkpt lat="43.42896735047297" lon="11.281258492584195"><ele>351.0</ele><time>2026-05-04T11:10:10Z</time></trkpt><trkpt lat="43.42905481118441" lon="11.281205965808525"><ele>351.0</ele><time>2026-05-04T11:10:11Z</time></trkpt><trkpt lat="43.429129616291064" lon="11.281163998847587"><ele>350.6666666666667</ele><time>2026-05-04T11:10:12Z</time></trkpt><trkpt lat="43.42920303596839" lon="11.281164419838193"><ele>350.3333333333333</ele><time>2026-05-04T11:10:13Z</time></trkpt><trkpt lat="43.42926786974007" lon="11.281197322296803"><ele>350.0</ele><time>2026-05-04T11:10:14Z</time></trkpt><trkpt lat="43.42932808148743" lon="11.281249262710608"><ele>349.66666666666663</ele><time>2026-05-04T11:10:15Z</time></trkpt><trkpt lat="43.42938931584799" lon="11.281327952879835"><ele>349.3333333333333</ele><time>2026-05-04T11:10:16Z</time></trkpt><trkpt lat="43.4294244048276" lon="11.281427887732265"><ele>349.0</ele><time>2026-05-04T11:10:17Z</time></trkpt><trkpt lat="43.42949460102346" lon="11.281555117312985"><ele>350.3333333333333</ele><time>2026-05-04T11:10:18Z</time></trkpt><trkpt lat="43.42957100642262" lon="11.281682655541925"><ele>351.66666666666663</ele><time>2026-05-04T11:10:19Z</time></trkpt><trkpt lat="43.42962934557801" lon="11.281778450940752"><ele>353.0</ele><time>2026-05-04T11:10:20Z</time></trkpt><trkpt lat="43.42968168137014" lon="11.281827011263008"><ele>354.3333333333333</ele><time>2026-05-04T11:10:21Z</time></trkpt><trkpt lat="43.42975251598482" lon="11.281855478054611"><ele>355.6666666666667</ele><time>2026-05-04T11:10:22Z</time></trkpt><trkpt lat="43.429833269060296" lon="11.281889299492134"><ele>357.0</ele><time>2026-05-04T11:10:23Z</time></trkpt><trkpt lat="43.42992123814853" lon="11.281933825236031"><ele>357.0</ele><time>2026-05-04T11:10:24Z</time></trkpt><trkpt lat="43.42999412032635" lon="11.281988412055153"><ele>357.0</ele><time>2026-05-04T11:10:25Z</time></trkpt><trkpt lat="43.43006722701456" lon="11.282056456380898"><ele>357.0</ele><time>2026-05-04T11:10:26Z</time></trkpt><trkpt lat="43.43010923812458" lon="11.282158534218325"><ele>357.0</ele><time>2026-05-04T11:10:27Z</time></trkpt><trkpt lat="43.430139602049906" lon="11.282266980545682"><ele>357.0</ele><time>2026-05-04T11:10:28Z</time></trkpt><trkpt lat="43.43017220481141" lon="11.282379800532855"><ele>357.0</ele><time>2026-05-04T11:10:29Z</time></trkpt><trkpt lat="43.430219940616865" lon="11.28255740064883"><ele>357.8</ele><time>2026-05-04T11:10:30Z</time></trkpt><trkpt lat="43.43028226370581" lon="11.282711154195926"><ele>358.6</ele><time>2026-05-04T11:10:31Z</time></trkpt><trkpt lat="43.43032528190434" lon="11.282826409702249"><ele>359.40000000000003</ele><time>2026-05-04T11:10:32Z</time></trkpt><trkpt lat="43.43037263469887" lon="11.28289814965834"><ele>360.20000000000005</ele><time>2026-05-04T11:10:33Z</time></trkpt><trkpt lat="43.43043802059118" lon="11.282963147302645"><ele>361.0</ele><time>2026-05-04T11:10:34Z</time></trkpt><trkpt lat="43.43052768332696" lon="11.283043004020717"><ele>361.4</ele><time>2026-05-04T11:10:35Z</time></trkpt><trkpt lat="43.43058741111194" lon="11.28314170673328"><ele>361.8</ele><time>2026-05-04T11:10:36Z</time></trkpt><trkpt lat="43.43061177134615" lon="11.283269517724557"><ele>362.2</ele><time>2026-05-04T11:10:37Z</time></trkpt><trkpt lat="43.430645138315825" lon="11.28341737719331"><ele>362.59999999999997</ele><time>2026-05-04T11:10:38Z</time></trkpt><trkpt lat="43.430711902055045" lon="11.283563352793118"><ele>363.0</ele><time>2026-05-04T11:10:39Z</time></trkpt><trkpt lat="43.43075098265636" lon="11.283696803780535"><ele>363.0</ele><time>2026-05-04T11:10:40Z</time></trkpt><trkpt lat="43.43076191878485" lon="11.28380647488344"><ele>363.0</ele><time>2026-05-04T11:10:41Z</time></trkpt><trkpt lat="43.43072548604003" lon="11.283932078875361"><ele>363.0</ele><time>2026-05-04T11:10:42Z</time></trkpt><trkpt lat="43.430724870961086" lon="11.28409011444337"><ele>363.0</ele><time>2026-05-04T11:10:43Z</time></trkpt><trkpt lat="43.43070101236605" lon="11.284256125665515"><ele>363.0</ele><time>2026-05-04T11:10:44Z</time></trkpt><trkpt lat="43.43069181218509" lon="11.284418386913172"><ele>364.4</ele><time>2026-05-04T11:10:45Z</time></trkpt><trkpt lat="43.43070405923566" lon="11.284540115657023"><ele>365.79999999999995</ele><time>2026-05-04T11:10:46Z</time></trkpt><trkpt lat="43.43072470904236" lon="11.284673119454357"><ele>367.2</ele><time>2026-05-04T11:10:47Z</time></trkpt><trkpt lat="43.430762582125496" lon="11.284802551591108"><ele>368.6</ele><time>2026-05-04T11:10:48Z</time></trkpt><trkpt lat="43.430807695428086" lon="11.28492590108086"><ele>370.0</ele><time>2026-05-04T11:10:49Z</time></trkpt><trkpt lat="43.43087649420355" lon="11.285033292079362"><ele>371.6</ele><time>2026-05-04T11:10:50Z</time></trkpt><trkpt lat="43.43093068056774" lon="11.285142954086288"><ele>373.2</ele><time>2026-05-04T11:10:51Z</time></trkpt><trkpt lat="43.43099893598326" lon="11.285262391246928"><ele>374.79999999999995</ele><time>2026-05-04T11:10:52Z</time></trkpt><trkpt lat="43.431064993662915" lon="11.285365224142616"><ele>376.4</ele><time>2026-05-04T11:10:53Z</time></trkpt><trkpt lat="43.43113074734543" lon="11.2854552877619"><ele>378.0</ele><time>2026-05-04T11:10:54Z</time></trkpt><trkpt lat="43.43118766661844" lon="11.285537221824912"><ele>378.79999999999995</ele><time>2026-05-04T11:10:55Z</time></trkpt><trkpt lat="43.43120376682402" lon="11.285623578329567"><ele>379.6</ele><time>2026-05-04T11:10:56Z</time></trkpt><trkpt lat="43.43121890410295" lon="11.285761296842617"><ele>380.4</ele><time>2026-05-04T11:10:58Z</time></trkpt><trkpt lat="43.4312975360058" lon="11.285827363465318"><ele>381.20000000000005</ele><time>2026-05-04T11:10:59Z</time></trkpt><trkpt lat="43.43138119312444" lon="11.285917383828398"><ele>382.0</ele><time>2026-05-04T11:11:00Z</time></trkpt><trkpt lat="43.431472848680265" lon="11.286050001922966"><ele>383.25</ele><time>2026-05-04T11:11:01Z</time></trkpt><trkpt lat="43.43157295161277" lon="11.28618033240443"><ele>384.5</ele><time>2026-05-04T11:11:02Z</time></trkpt><trkpt lat="43.431652459382384" lon="11.286318763165267"><ele>385.75</ele><time>2026-05-04T11:11:03Z</time></trkpt><trkpt lat="43.43171271185604" lon="11.286449188177425"><ele>387.0</ele><time>2026-05-04T11:11:04Z</time></trkpt><trkpt lat="43.43179112464461" lon="11.286557610448428"><ele>388.5</ele><time>2026-05-04T11:11:05Z</time></trkpt><trkpt lat="43.43187287263586" lon="11.286696720796705"><ele>390.0</ele><time>2026-05-04T11:11:06Z</time></trkpt><trkpt lat="43.43195131135208" lon="11.286833191922764"><ele>391.5</ele><time>2026-05-04T11:11:07Z</time></trkpt><trkpt lat="43.43202860606961" lon="11.286965663318913"><ele>393.0</ele><time>2026-05-04T11:11:08Z</time></trkpt><trkpt lat="43.43208114255354" lon="11.287069879730023"><ele>393.0</ele><time>2026-05-04T11:11:09Z</time></trkpt><trkpt lat="43.432107839035105" lon="11.287176141613708"><ele>393.0</ele><time>2026-05-04T11:11:10Z</time></trkpt><trkpt lat="43.432118069751006" lon="11.287307040091767"><ele>393.0</ele><time>2026-05-04T11:11:11Z</time></trkpt><trkpt lat="43.432100600110445" lon="11.287474531391643"><ele>393.0</ele><time>2026-05-04T11:11:12Z</time></trkpt><trkpt lat="43.432081591570096" lon="11.28762628445149"><ele>393.0</ele><time>2026-05-04T11:11:13Z</time></trkpt><trkpt lat="43.43204856053049" lon="11.287730071827129"><ele>393.6666666666667</ele><time>2026-05-04T11:11:14Z</time></trkpt><trkpt lat="43.43199797902011" lon="11.287823878040298"><ele>394.33333333333337</ele><time>2026-05-04T11:11:15Z</time></trkpt><trkpt lat="43.431956656525216" lon="11.287929404113555"><ele>395.0</ele><time>2026-05-04T11:11:16Z</time></trkpt><trkpt lat="43.431906041666466" lon="11.288045363554245"><ele>395.6666666666667</ele><time>2026-05-04T11:11:17Z</time></trkpt><trkpt lat="43.431872879613735" lon="11.2881427035033"><ele>396.33333333333337</ele><time>2026-05-04T11:11:18Z</time></trkpt><trkpt lat="43.43185543052631" lon="11.288239238727938"><ele>397.0</ele><time>2026-05-04T11:11:19Z</time></trkpt><trkpt lat="43.43190030779069" lon="11.288382034814436"><ele>397.83333333333337</ele><time>2026-05-04T11:11:21Z</time></trkpt><trkpt lat="43.43201264365204" lon="11.28842872687694"><ele>398.6666666666667</ele><time>2026-05-04T11:11:23Z</time></trkpt><trkpt lat="43.43207003087922" lon="11.288376424295432"><ele>399.5</ele><time>2026-05-04T11:11:24Z</time></trkpt><trkpt lat="43.43213510155125" lon="11.288326578660968"><ele>400.33333333333337</ele><time>2026-05-04T11:11:25Z</time></trkpt><trkpt lat="43.43220133632303" lon="11.288267532998724"><ele>401.1666666666667</ele><time>2026-05-04T11:11:26Z</time></trkpt><trkpt lat="43.43229256258086" lon="11.288255050050886"><ele>402.0</ele><time>2026-05-04T11:11:27Z</time></trkpt><trkpt lat="43.43237912409916" lon="11.288253010357112"><ele>405.5</ele><time>2026-05-04T11:11:28Z</time></trkpt><trkpt lat="43.43247855020091" lon="11.288255259513553"><ele>409.0</ele><time>2026-05-04T11:11:29Z</time></trkpt><trkpt lat="43.4325808273243" lon="11.288348084972654"><ele>412.5</ele><time>2026-05-04T11:11:30Z</time></trkpt><trkpt lat="43.432696252109324" lon="11.288387967375165"><ele>416.0</ele><time>2026-05-04T11:11:31Z</time></trkpt><trkpt lat="43.43282750497686" lon="11.288454599675239"><ele>416.0</ele><time>2026-05-04T11:11:32Z</time></trkpt><trkpt lat="43.4329585512211" lon="11.28853270169928"><ele>416.0</ele><time>2026-05-04T11:11:33Z</time></trkpt><trkpt lat="43.43307102863794" lon="11.288615249733787"><ele>416.0</ele><time>2026-05-04T11:11:34Z</time></trkpt><trkpt lat="43.43318180948148" lon="11.288698585820008"><ele>416.0</ele><time>2026-05-04T11:11:35Z</time></trkpt><trkpt lat="43.43328403393508" lon="11.288786815719282"><ele>418.20000000000005</ele><time>2026-05-04T11:11:36Z</time></trkpt><trkpt lat="43.43338075033711" lon="11.288884883234662"><ele>420.40000000000003</ele><time>2026-05-04T11:11:37Z</time></trkpt><trkpt lat="43.433460657395734" lon="11.288977233035753"><ele>422.6</ele><time>2026-05-04T11:11:38Z</time></trkpt><trkpt lat="43.43354220444355" lon="11.289044804391025"><ele>424.8</ele><time>2026-05-04T11:11:39Z</time></trkpt><trkpt lat="43.433626457916866" lon="11.289105279622014"><ele>427.0</ele><time>2026-05-04T11:11:40Z</time></trkpt><trkpt lat="43.433717653763075" lon="11.289177066779091"><ele>427.0</ele><time>2026-05-04T11:11:41Z</time></trkpt><trkpt lat="43.43381231662775" lon="11.289284950691306"><ele>427.0</ele><time>2026-05-04T11:11:42Z</time></trkpt><trkpt lat="43.43390875698261" lon="11.289411333044532"><ele>427.0</ele><time>2026-05-04T11:11:43Z</time></trkpt><trkpt lat="43.43400661328832" lon="11.289533080079739"><ele>427.0</ele><time>2026-05-04T11:11:44Z</time></trkpt><trkpt lat="43.43408446724314" lon="11.289636984819047"><ele>427.0</ele><time>2026-05-04T11:11:45Z</time></trkpt><trkpt lat="43.43414387022772" lon="11.289746222318795"><ele>427.00000000000006</ele><time>2026-05-04T11:11:46Z</time></trkpt><trkpt lat="43.43416642248758" lon="11.289876611739688"><ele>427.00000000000006</ele><time>2026-05-04T11:11:47Z</time></trkpt><trkpt lat="43.434171879197606" lon="11.290011932651382"><ele>427.0</ele><time>2026-05-04T11:11:48Z</time></trkpt><trkpt lat="43.43417890703248" lon="11.290187419063466"><ele>427.0</ele><time>2026-05-04T11:11:49Z</time></trkpt><trkpt lat="43.43419829391298" lon="11.29038836366688"><ele>426.8</ele><time>2026-05-04T11:11:50Z</time></trkpt><trkpt lat="43.43421230412493" lon="11.29056000090751"><ele>426.6</ele><time>2026-05-04T11:11:51Z</time></trkpt><trkpt lat="43.43423484859344" lon="11.290698583170677"><ele>426.40000000000003</ele><time>2026-05-04T11:11:52Z</time></trkpt><trkpt lat="43.43426733008261" lon="11.290816554089421"><ele>426.20000000000005</ele><time>2026-05-04T11:11:53Z</time></trkpt><trkpt lat="43.43431182736476" lon="11.290936786610079"><ele>426.0</ele><time>2026-05-04T11:11:54Z</time></trkpt><trkpt lat="43.4343604614688" lon="11.29105154175512"><ele>426.75</ele><time>2026-05-04T11:11:55Z</time></trkpt><trkpt lat="43.434424523302056" lon="11.291172936982825"><ele>427.5</ele><time>2026-05-04T11:11:56Z</time></trkpt><trkpt lat="43.43450352112751" lon="11.291294368065245"><ele>428.25</ele><time>2026-05-04T11:11:57Z</time></trkpt><trkpt lat="43.43460752240727" lon="11.29144542343472"><ele>429.0</ele><time>2026-05-04T11:11:58Z</time></trkpt><trkpt lat="43.43470787720524" lon="11.291592786935349"><ele>431.2</ele><time>2026-05-04T11:11:59Z</time></trkpt><trkpt lat="43.434775984252404" lon="11.291725483827973"><ele>433.4</ele><time>2026-05-04T11:12:00Z</time></trkpt><trkpt lat="43.4348011837723" lon="11.291862614148126"><ele>435.6</ele><time>2026-05-04T11:12:01Z</time></trkpt><trkpt lat="43.434818132303455" lon="11.29198973287911"><ele>437.8</ele><time>2026-05-04T11:12:02Z</time></trkpt><trkpt lat="43.4348488897123" lon="11.29214325617955"><ele>440.0</ele><time>2026-05-04T11:12:03Z</time></trkpt><trkpt lat="43.43485761757064" lon="11.292330985217172"><ele>440.75</ele><time>2026-05-04T11:12:04Z</time></trkpt><trkpt lat="43.43486570625013" lon="11.29249856030005"><ele>441.5</ele><time>2026-05-04T11:12:05Z</time></trkpt><trkpt lat="43.43488600657882" lon="11.292654059452744"><ele>442.25</ele><time>2026-05-04T11:12:06Z</time></trkpt><trkpt lat="43.43492420118443" lon="11.292822822804377"><ele>443.0</ele><time>2026-05-04T11:12:07Z</time></trkpt><trkpt lat="43.43496615174288" lon="11.29297864676588"><ele>441.79999999999995</ele><time>2026-05-04T11:12:08Z</time></trkpt><trkpt lat="43.43501503974775" lon="11.293122830155237"><ele>440.59999999999997</ele><time>2026-05-04T11:12:09Z</time></trkpt><trkpt lat="43.435071378730214" lon="11.293281354154258"><ele>439.40000000000003</ele><time>2026-05-04T11:12:10Z</time></trkpt><trkpt lat="43.435126028108975" lon="11.293415251150572"><ele>438.20000000000005</ele><time>2026-05-04T11:12:11Z</time></trkpt><trkpt lat="43.43518053372038" lon="11.293516176774771"><ele>437.0</ele><time>2026-05-04T11:12:12Z</time></trkpt><trkpt lat="43.435239526751076" lon="11.293595618335997"><ele>437.0</ele><time>2026-05-04T11:12:13Z</time></trkpt><trkpt lat="43.43531245980649" lon="11.293663943632119"><ele>437.0</ele><time>2026-05-04T11:12:14Z</time></trkpt><trkpt lat="43.43541812439372" lon="11.293755453713546"><ele>437.0</ele><time>2026-05-04T11:12:15Z</time></trkpt><trkpt lat="43.43554717429716" lon="11.293861353380658"><ele>437.0</ele><time>2026-05-04T11:12:16Z</time></trkpt><trkpt lat="43.435656612124916" lon="11.293959376884033"><ele>440.25</ele><time>2026-05-04T11:12:17Z</time></trkpt><trkpt lat="43.43573496225326" lon="11.29405508544252"><ele>443.5</ele><time>2026-05-04T11:12:18Z</time></trkpt><trkpt lat="43.435805732128976" lon="11.294191802333584"><ele>446.75</ele><time>2026-05-04T11:12:19Z</time></trkpt><trkpt lat="43.43587903595303" lon="11.294348961864264"><ele>450.0</ele><time>2026-05-04T11:12:20Z</time></trkpt><trkpt lat="43.43594887471848" lon="11.294475004161779"><ele>450.0</ele><time>2026-05-04T11:12:21Z</time></trkpt><trkpt lat="43.43602776205951" lon="11.294584542750743"><ele>450.0</ele><time>2026-05-04T11:12:22Z</time></trkpt><trkpt lat="43.43612562928432" lon="11.294707725257426"><ele>450.0</ele><time>2026-05-04T11:12:23Z</time></trkpt><trkpt lat="43.43623484620582" lon="11.294852065217723"><ele>450.0</ele><time>2026-05-04T11:12:24Z</time></trkpt><trkpt lat="43.43632473838417" lon="11.294973579990275"><ele>451.4</ele><time>2026-05-04T11:12:25Z</time></trkpt><trkpt lat="43.43638837514758" lon="11.295081824748525"><ele>452.8</ele><time>2026-05-04T11:12:26Z</time></trkpt><trkpt lat="43.43643690522363" lon="11.295206388473401"><ele>454.20000000000005</ele><time>2026-05-04T11:12:27Z</time></trkpt><trkpt lat="43.436478336329984" lon="11.295345277848869"><ele>455.6</ele><time>2026-05-04T11:12:28Z</time></trkpt><trkpt lat="43.436510467744384" lon="11.295481731536343"><ele>457.0</ele><time>2026-05-04T11:12:29Z</time></trkpt><trkpt lat="43.43654597712886" lon="11.295640030485927"><ele>457.0</ele><time>2026-05-04T11:12:30Z</time></trkpt><trkpt lat="43.436588182231034" lon="11.295842331592516"><ele>457.0</ele><time>2026-05-04T11:12:31Z</time></trkpt><trkpt lat="43.43665100379227" lon="11.296061254077673"><ele>457.0</ele><time>2026-05-04T11:12:32Z</time></trkpt><trkpt lat="43.436710531099784" lon="11.29624996106135"><ele>457.0</ele><time>2026-05-04T11:12:33Z</time></trkpt><trkpt lat="43.43676887608415" lon="11.296406019893224"><ele>457.00000000000006</ele><time>2026-05-04T11:12:34Z</time></trkpt><trkpt lat="43.43682019522858" lon="11.29653737479462"><ele>457.00000000000006</ele><time>2026-05-04T11:12:35Z</time></trkpt><trkpt lat="43.43685515584326" lon="11.296668947507518"><ele>457.0</ele><time>2026-05-04T11:12:36Z</time></trkpt><trkpt lat="43.436859429483576" lon="11.296769790186838"><ele>457.0</ele><time>2026-05-04T11:12:37Z</time></trkpt><trkpt lat="43.43678131164553" lon="11.296883552400155"><ele>457.0</ele><time>2026-05-04T11:12:39Z</time></trkpt><trkpt lat="43.436695791612316" lon="11.296878679858555"><ele>457.00000000000006</ele><time>2026-05-04T11:12:40Z</time></trkpt><trkpt lat="43.43660576513407" lon="11.296917581428978"><ele>457.00000000000006</ele><time>2026-05-04T11:12:41Z</time></trkpt><trkpt lat="43.43649780476654" lon="11.296981003778965"><ele>457.0</ele><time>2026-05-04T11:12:42Z</time></trkpt><trkpt lat="43.4363583839069" lon="11.29702693343013"><ele>457.0</ele><time>2026-05-04T11:12:43Z</time></trkpt><trkpt lat="43.43620988798639" lon="11.297061956143457"><ele>456.25</ele><time>2026-05-04T11:12:44Z</time></trkpt><trkpt lat="43.43606613074496" lon="11.297160544158096"><ele>455.5</ele><time>2026-05-04T11:12:45Z</time></trkpt><trkpt lat="43.43593433885846" lon="11.297176685010998"><ele>454.75</ele><time>2026-05-04T11:12:46Z</time></trkpt><trkpt lat="43.43583867983115" lon="11.29726058305142"><ele>454.0</ele><time>2026-05-04T11:12:47Z</time></trkpt><trkpt lat="43.43572907059147" lon="11.297322215504208"><ele>456.79999999999995</ele><time>2026-05-04T11:12:48Z</time></trkpt><trkpt lat="43.4356265096147" lon="11.29739019807263"><ele>459.59999999999997</ele><time>2026-05-04T11:12:49Z</time></trkpt><trkpt lat="43.435557810394336" lon="11.29745781218121"><ele>462.4</ele><time>2026-05-04T11:12:50Z</time></trkpt><trkpt lat="43.43549171814058" lon="11.297550956162356"><ele>465.2</ele><time>2026-05-04T11:12:51Z</time></trkpt><trkpt lat="43.435432375584675" lon="11.29764550957784"><ele>468.0</ele><time>2026-05-04T11:12:52Z</time></trkpt><trkpt lat="43.4354031322162" lon="11.297760261089229"><ele>468.0</ele><time>2026-05-04T11:12:53Z</time></trkpt><trkpt lat="43.43539661042195" lon="11.297879802653885"><ele>467.99999999999994</ele><time>2026-05-04T11:12:54Z</time></trkpt><trkpt lat="43.43541608095359" lon="11.297990812255096"><ele>467.99999999999994</ele><time>2026-05-04T11:12:55Z</time></trkpt><trkpt lat="43.435446341649104" lon="11.298082222689345"><ele>468.0</ele><time>2026-05-04T11:12:56Z</time></trkpt><trkpt lat="43.43555978343154" lon="11.298160601108446"><ele>468.0</ele><time>2026-05-04T11:12:58Z</time></trkpt><trkpt lat="43.43563955044767" lon="11.29819618741909"><ele>469.25</ele><time>2026-05-04T11:12:59Z</time></trkpt><trkpt lat="43.43572574668955" lon="11.298218264723452"><ele>470.5</ele><time>2026-05-04T11:13:00Z</time></trkpt><trkpt lat="43.43583074863339" lon="11.29821745067286"><ele>471.75</ele><time>2026-05-04T11:13:01Z</time></trkpt><trkpt lat="43.43596058585602" lon="11.298206539021605"><ele>473.0</ele><time>2026-05-04T11:13:02Z</time></trkpt><trkpt lat="43.43610913355533" lon="11.29821216438635"><ele>473.0</ele><time>2026-05-04T11:13:03Z</time></trkpt><trkpt lat="43.436247514773996" lon="11.298230023437537"><ele>473.0</ele><time>2026-05-04T11:13:04Z</time></trkpt><trkpt lat="43.43636451213955" lon="11.298277584962884"><ele>473.0</ele><time>2026-05-04T11:13:05Z</time></trkpt><trkpt lat="43.43646312023508" lon="11.298327179878955"><ele>473.0</ele><time>2026-05-04T11:13:06Z</time></trkpt><trkpt lat="43.43652747002499" lon="11.29843587371169"><ele>474.0</ele><time>2026-05-04T11:13:07Z</time></trkpt><trkpt lat="43.43660457452595" lon="11.298501207058715"><ele>474.99999999999994</ele><time>2026-05-04T11:13:08Z</time></trkpt><trkpt lat="43.43669759141774" lon="11.29854396965256"><ele>475.99999999999994</ele><time>2026-05-04T11:13:09Z</time></trkpt><trkpt lat="43.43679248784812" lon="11.298549218317572"><ele>477.0</ele><time>2026-05-04T11:13:10Z</time></trkpt><trkpt lat="43.43689197970037" lon="11.29854829120946"><ele>478.0</ele><time>2026-05-04T11:13:11Z</time></trkpt><trkpt lat="43.4369667538634" lon="11.298601481453836"><ele>478.0</ele><time>2026-05-04T11:13:12Z</time></trkpt><trkpt lat="43.43699647709255" lon="11.298701292187955"><ele>477.99999999999994</ele><time>2026-05-04T11:13:13Z</time></trkpt><trkpt lat="43.43708144157907" lon="11.298805825603859"><ele>477.99999999999994</ele><time>2026-05-04T11:13:14Z</time></trkpt><trkpt lat="43.437161894959004" lon="11.298922953816202"><ele>478.0</ele><time>2026-05-04T11:13:14.999Z</time></trkpt><trkpt lat="43.437266370483385" lon="11.2990104774701"><ele>478.0</ele><time>2026-05-04T11:13:15.999Z</time></trkpt><trkpt lat="43.43735092643868" lon="11.299100269070653"><ele>481.4</ele><time>2026-05-04T11:13:16.999Z</time></trkpt><trkpt lat="43.43739375870043" lon="11.299191321024384"><ele>484.79999999999995</ele><time>2026-05-04T11:13:17.999Z</time></trkpt><trkpt lat="43.43742160700852" lon="11.299319792146504"><ele>488.2</ele><time>2026-05-04T11:13:18.999Z</time></trkpt><trkpt lat="43.43744533872575" lon="11.299474280767845"><ele>491.6</ele><time>2026-05-04T11:13:19.999Z</time></trkpt><trkpt lat="43.43746178031112" lon="11.29963989255187"><ele>495.0</ele><time>2026-05-04T11:13:20.999Z</time></trkpt><trkpt lat="43.43746480331961" lon="11.299802163472286"><ele>496.6</ele><time>2026-05-04T11:13:21.999Z</time></trkpt><trkpt lat="43.43743024633441" lon="11.299919448597393"><ele>498.2</ele><time>2026-05-04T11:13:22.999Z</time></trkpt><trkpt lat="43.43743867679263" lon="11.300008191962938"><ele>499.79999999999995</ele><time>2026-05-04T11:13:23.999Z</time></trkpt><trkpt lat="43.43758261938239" lon="11.299988459905972"><ele>501.4</ele><time>2026-05-04T11:13:27.999Z</time></trkpt><trkpt lat="43.43767512373342" lon="11.299909219191086"><ele>503.0</ele><time>2026-05-04T11:13:28.999Z</time></trkpt><trkpt lat="43.43776744547389" lon="11.299817438870003"><ele>503.25</ele><time>2026-05-04T11:13:29.999Z</time></trkpt><trkpt lat="43.437872118617015" lon="11.29972993352898"><ele>503.5</ele><time>2026-05-04T11:13:30.999Z</time></trkpt><trkpt lat="43.437980717045306" lon="11.29964153118664"><ele>503.75</ele><time>2026-05-04T11:13:31.999Z</time></trkpt><trkpt lat="43.43811665249593" lon="11.299605182321395"><ele>504.0</ele><time>2026-05-04T11:13:32.999Z</time></trkpt><trkpt lat="43.438230731555244" lon="11.299640257556467"><ele>504.0</ele><time>2026-05-04T11:13:33.999Z</time></trkpt><trkpt lat="43.438324382290816" lon="11.299698606350374"><ele>504.0</ele><time>2026-05-04T11:13:34.999Z</time></trkpt><trkpt lat="43.438431900714335" lon="11.299773362652807"><ele>504.0</ele><time>2026-05-04T11:13:35.999Z</time></trkpt><trkpt lat="43.438547420912265" lon="11.299877151083898"><ele>504.0</ele><time>2026-05-04T11:13:36.999Z</time></trkpt><trkpt lat="43.43866555297223" lon="11.29997281236978"><ele>507.5</ele><time>2026-05-04T11:13:37.999Z</time></trkpt><trkpt lat="43.4387708799927" lon="11.300080801743803"><ele>511.0</ele><time>2026-05-04T11:13:38.999Z</time></trkpt><trkpt lat="43.43886025164904" lon="11.300228583577246"><ele>514.5</ele><time>2026-05-04T11:13:39.999Z</time></trkpt><trkpt lat="43.43896243920646" lon="11.300356128059699"><ele>518.0</ele><time>2026-05-04T11:13:40.999Z</time></trkpt><trkpt lat="43.43903621243831" lon="11.30050751103196"><ele>521.25</ele><time>2026-05-04T11:13:41.999Z</time></trkpt><trkpt lat="43.4391132807965" lon="11.30065894881584"><ele>524.5</ele><time>2026-05-04T11:13:43Z</time></trkpt><trkpt lat="43.43919244725546" lon="11.300804382627504"><ele>527.75</ele><time>2026-05-04T11:13:44Z</time></trkpt><trkpt lat="43.439251349196596" lon="11.300930374486743"><ele>531.0</ele><time>2026-05-04T11:13:45Z</time></trkpt><trkpt lat="43.43929308933331" lon="11.301026920432882"><ele>531.0</ele><time>2026-05-04T11:13:46Z</time></trkpt><trkpt lat="43.43932494508875" lon="11.30110170588467"><ele>531.0</ele><time>2026-05-04T11:13:47Z</time></trkpt><trkpt lat="43.439372753914014" lon="11.301214556530459"><ele>531.0</ele><time>2026-05-04T11:13:49Z</time></trkpt><trkpt lat="43.439424344772505" lon="11.30135182363272"><ele>531.0</ele><time>2026-05-04T11:13:51Z</time></trkpt><trkpt lat="43.439512833933755" lon="11.301428725799692"><ele>531.0</ele><time>2026-05-04T11:13:53Z</time></trkpt><trkpt lat="43.43962096926896" lon="11.301374416084325"><ele>530.5</ele><time>2026-05-04T11:13:55Z</time></trkpt><trkpt lat="43.43970410831683" lon="11.301294242939031"><ele>530.0</ele><time>2026-05-04T11:13:56Z</time></trkpt><trkpt lat="43.439838581341256" lon="11.301251406682558"><ele>529.5</ele><time>2026-05-04T11:13:57Z</time></trkpt><trkpt lat="43.44000512702899" lon="11.301196774764254"><ele>529.0</ele><time>2026-05-04T11:13:58Z</time></trkpt><trkpt lat="43.440196531074555" lon="11.301175178445057"><ele>529.0</ele><time>2026-05-04T11:13:59Z</time></trkpt><trkpt lat="43.44038836387371" lon="11.301146905206846"><ele>529.0</ele><time>2026-05-04T11:14:00Z</time></trkpt><trkpt lat="43.44054985611678" lon="11.301109826240372"><ele>529.0</ele><time>2026-05-04T11:14:01Z</time></trkpt><trkpt lat="43.44069552371846" lon="11.301026438144257"><ele>528.6666666666667</ele><time>2026-05-04T11:14:02Z</time></trkpt><trkpt lat="43.44081888861074" lon="11.300863133038815"><ele>528.3333333333334</ele><time>2026-05-04T11:14:03Z</time></trkpt><trkpt lat="43.44092563368306" lon="11.300640399838928"><ele>528.0</ele><time>2026-05-04T11:14:04Z</time></trkpt><trkpt lat="43.44103796820142" lon="11.300468589272079"><ele>527.6666666666666</ele><time>2026-05-04T11:14:05Z</time></trkpt><trkpt lat="43.441187992575856" lon="11.300431740549973"><ele>527.3333333333333</ele><time>2026-05-04T11:14:06Z</time></trkpt><trkpt lat="43.44136833032294" lon="11.300418706413604"><ele>527.0</ele><time>2026-05-04T11:14:07Z</time></trkpt><trkpt lat="43.44159109522149" lon="11.30040398067223"><ele>528.0</ele><time>2026-05-04T11:14:08Z</time></trkpt><trkpt lat="43.44179149738256" lon="11.30037752217051"><ele>529.0</ele><time>2026-05-04T11:14:09Z</time></trkpt><trkpt lat="43.44195062381254" lon="11.300454302121345"><ele>530.0</ele><time>2026-05-04T11:14:10Z</time></trkpt><trkpt lat="43.4421053617646" lon="11.30057536325669"><ele>531.0</ele><time>2026-05-04T11:14:11Z</time></trkpt><trkpt lat="43.44227520262477" lon="11.300725552495733"><ele>532.0</ele><time>2026-05-04T11:14:12Z</time></trkpt><trkpt lat="43.442435572890034" lon="11.300849344876484"><ele>533.0</ele><time>2026-05-04T11:14:13Z</time></trkpt><trkpt lat="43.44254752249832" lon="11.300949772903467"><ele>533.0</ele><time>2026-05-04T11:14:14Z</time></trkpt><trkpt lat="43.44258276319459" lon="11.301033872406682"><ele>533.0</ele><time>2026-05-04T11:14:17Z</time></trkpt><trkpt lat="43.44250371116664" lon="11.301234054128681"><ele>533.0</ele><time>2026-05-04T11:14:19Z</time></trkpt><trkpt lat="43.44252919465303" lon="11.301383221295616"><ele>533.0</ele><time>2026-05-04T11:14:20Z</time></trkpt><trkpt lat="43.44254106901595" lon="11.301504540920478"><ele>533.0</ele><time>2026-05-04T11:14:21Z</time></trkpt><trkpt lat="43.44255290761417" lon="11.301610248206066"><ele>533.4</ele><time>2026-05-04T11:14:22Z</time></trkpt><trkpt lat="43.44252145931911" lon="11.301704954243299"><ele>533.8</ele><time>2026-05-04T11:14:24Z</time></trkpt><trkpt lat="43.44246257175196" lon="11.30166595544863"><ele>534.2</ele><time>2026-05-04T11:14:26Z</time></trkpt><trkpt lat="43.44229157185407" lon="11.301573914711666"><ele>534.6</ele><time>2026-05-04T11:14:28Z</time></trkpt><trkpt lat="43.44219009833797" lon="11.30152249097943"><ele>535.0</ele><time>2026-05-04T11:14:29Z</time></trkpt><trkpt lat="43.44208013141792" lon="11.301560162585625"><ele>534.0</ele><time>2026-05-04T11:14:30Z</time></trkpt><trkpt lat="43.44197398340479" lon="11.301603309163532"><ele>533.0</ele><time>2026-05-04T11:14:31Z</time></trkpt><trkpt lat="43.44184111961024" lon="11.30167259834517"><ele>532.0</ele><time>2026-05-04T11:14:32Z</time></trkpt><trkpt lat="43.44168583335667" lon="11.301725927260417"><ele>531.0</ele><time>2026-05-04T11:14:33Z</time></trkpt><trkpt lat="43.44154794721303" lon="11.301790988655416"><ele>531.0</ele><time>2026-05-04T11:14:34Z</time></trkpt><trkpt lat="43.44141368935159" lon="11.301890980527196"><ele>531.0</ele><time>2026-05-04T11:14:35Z</time></trkpt><trkpt lat="43.44127343246757" lon="11.301990240353028"><ele>531.0</ele><time>2026-05-04T11:14:36Z</time></trkpt><trkpt lat="43.44112165703172" lon="11.302087651295981"><ele>531.75</ele><time>2026-05-04T11:14:37Z</time></trkpt><trkpt lat="43.440965880836345" lon="11.302184770143045"><ele>532.5</ele><time>2026-05-04T11:14:38Z</time></trkpt><trkpt lat="43.44083729020235" lon="11.30227953677432"><ele>533.25</ele><time>2026-05-04T11:14:39Z</time></trkpt><trkpt lat="43.44072908373731" lon="11.30233368169741"><ele>534.0</ele><time>2026-05-04T11:14:40Z</time></trkpt><trkpt lat="43.44063457751674" lon="11.30238562615582"><ele>534.8</ele><time>2026-05-04T11:14:41Z</time></trkpt><trkpt lat="43.4405595985149" lon="11.302479744024472"><ele>535.5999999999999</ele><time>2026-05-04T11:14:42Z</time></trkpt><trkpt lat="43.44051383917487" lon="11.302598136719295"><ele>536.4</ele><time>2026-05-04T11:14:43Z</time></trkpt><trkpt lat="43.44049258233863" lon="11.302755068126862"><ele>537.1999999999999</ele><time>2026-05-04T11:14:44Z</time></trkpt><trkpt lat="43.440469550485744" lon="11.302937297001993"><ele>538.0</ele><time>2026-05-04T11:14:45Z</time></trkpt><trkpt lat="43.440440715354" lon="11.30317565542608"><ele>538.0</ele><time>2026-05-04T11:14:46Z</time></trkpt><trkpt lat="43.44041428664381" lon="11.303441892939231"><ele>538.0</ele><time>2026-05-04T11:14:47Z</time></trkpt><trkpt lat="43.440403390732925" lon="11.303717443229955"><ele>538.0</ele><time>2026-05-04T11:14:48Z</time></trkpt><trkpt lat="43.44040235305617" lon="11.303973046949336"><ele>537.75</ele><time>2026-05-04T11:14:49Z</time></trkpt><trkpt lat="43.4403974076304" lon="11.304198171381936"><ele>537.5</ele><time>2026-05-04T11:14:50Z</time></trkpt><trkpt lat="43.440393913233514" lon="11.304383877742502"><ele>537.25</ele><time>2026-05-04T11:14:51Z</time></trkpt><trkpt lat="43.440357551390406" lon="11.30452105214297"><ele>537.0</ele><time>2026-05-04T11:14:52Z</time></trkpt><trkpt lat="43.44032200785808" lon="11.30464982558716"><ele>537.25</ele><time>2026-05-04T11:14:53Z</time></trkpt><trkpt lat="43.440271894957796" lon="11.304801672922219"><ele>537.5</ele><time>2026-05-04T11:14:54Z</time></trkpt><trkpt lat="43.440214130321166" lon="11.304932708847506"><ele>537.75</ele><time>2026-05-04T11:14:55Z</time></trkpt><trkpt lat="43.44019777615362" lon="11.305088230749432"><ele>538.0</ele><time>2026-05-04T11:14:56Z</time></trkpt><trkpt lat="43.44018183312862" lon="11.3052758671785"><ele>538.0</ele><time>2026-05-04T11:14:57Z</time></trkpt><trkpt lat="43.44014717331676" lon="11.305469692609293"><ele>538.0</ele><time>2026-05-04T11:14:58Z</time></trkpt><trkpt lat="43.44010680189315" lon="11.30567265039246"><ele>538.0</ele><time>2026-05-04T11:14:59Z</time></trkpt><trkpt lat="43.440085469024545" lon="11.305891293758375"><ele>538.6666666666667</ele><time>2026-05-04T11:15:00Z</time></trkpt><trkpt lat="43.44008792604189" lon="11.306121431062838"><ele>539.3333333333334</ele><time>2026-05-04T11:15:01Z</time></trkpt><trkpt lat="43.440090021893724" lon="11.306359677848743"><ele>540.0</ele><time>2026-05-04T11:15:02Z</time></trkpt><trkpt lat="43.4400952565872" lon="11.306555483084395"><ele>540.8</ele><time>2026-05-04T11:15:03Z</time></trkpt><trkpt lat="43.44010762732089" lon="11.306727754934606"><ele>541.6</ele><time>2026-05-04T11:15:04Z</time></trkpt><trkpt lat="43.440122204634115" lon="11.30688329361129"><ele>542.4</ele><time>2026-05-04T11:15:05Z</time></trkpt><trkpt lat="43.44008475880271" lon="11.307014644552122"><ele>543.2</ele><time>2026-05-04T11:15:06Z</time></trkpt><trkpt lat="43.440065852022286" lon="11.307153700070208"><ele>544.0</ele><time>2026-05-04T11:15:07Z</time></trkpt><trkpt lat="43.44003236887987" lon="11.307291693520776"><ele>544.25</ele><time>2026-05-04T11:15:08Z</time></trkpt><trkpt lat="43.440031134841554" lon="11.307454738655926"><ele>544.5</ele><time>2026-05-04T11:15:09Z</time></trkpt><trkpt lat="43.44004880495641" lon="11.30765066764807"><ele>544.75</ele><time>2026-05-04T11:15:10Z</time></trkpt><trkpt lat="43.44007106126874" lon="11.30785479080263"><ele>545.0</ele><time>2026-05-04T11:15:11Z</time></trkpt><trkpt lat="43.440093027640906" lon="11.30808456635021"><ele>545.0</ele><time>2026-05-04T11:15:12Z</time></trkpt><trkpt lat="43.44011728445023" lon="11.308312215857981"><ele>545.0</ele><time>2026-05-04T11:15:13Z</time></trkpt><trkpt lat="43.44013923969025" lon="11.30854802637636"><ele>545.0</ele><time>2026-05-04T11:15:14Z</time></trkpt><trkpt lat="43.440155651999405" lon="11.308778745843746"><ele>545.25</ele><time>2026-05-04T11:15:15Z</time></trkpt><trkpt lat="43.44017359657081" lon="11.308988478593387"><ele>545.5</ele><time>2026-05-04T11:15:16Z</time></trkpt><trkpt lat="43.44019172178714" lon="11.309149119033796"><ele>545.75</ele><time>2026-05-04T11:15:17Z</time></trkpt><trkpt lat="43.440199401626465" lon="11.309305593750201"><ele>546.0</ele><time>2026-05-04T11:15:18Z</time></trkpt><trkpt lat="43.44018331586062" lon="11.309467674256208"><ele>546.0</ele><time>2026-05-04T11:15:19Z</time></trkpt><trkpt lat="43.44014073861759" lon="11.309637609748766"><ele>546.0</ele><time>2026-05-04T11:15:20Z</time></trkpt><trkpt lat="43.44009980553915" lon="11.309800482862647"><ele>546.0</ele><time>2026-05-04T11:15:20.999Z</time></trkpt><trkpt lat="43.44007338227315" lon="11.309945579727634"><ele>546.0</ele><time>2026-05-04T11:15:21.999Z</time></trkpt><trkpt lat="43.440040994029445" lon="11.310049666355166"><ele>546.0</ele><time>2026-05-04T11:15:22.999Z</time></trkpt><trkpt lat="43.43998043328794" lon="11.310130670442598"><ele>546.25</ele><time>2026-05-04T11:15:23.999Z</time></trkpt><trkpt lat="43.439896351355884" lon="11.310196314835649"><ele>546.5</ele><time>2026-05-04T11:15:24.999Z</time></trkpt><trkpt lat="43.439784130033736" lon="11.310196164843408"><ele>546.75</ele><time>2026-05-04T11:15:25.999Z</time></trkpt><trkpt lat="43.43966858704261" lon="11.310162782188046"><ele>547.0</ele><time>2026-05-04T11:15:26.999Z</time></trkpt><trkpt lat="43.43953000407429" lon="11.31015576352574"><ele>547.0</ele><time>2026-05-04T11:15:27.999Z</time></trkpt><trkpt lat="43.439404695549534" lon="11.310171958110727"><ele>547.0</ele><time>2026-05-04T11:15:28.999Z</time></trkpt><trkpt lat="43.43930124521026" lon="11.310203841734042"><ele>547.0</ele><time>2026-05-04T11:15:29.999Z</time></trkpt><trkpt lat="43.43918609585775" lon="11.310272695139945"><ele>547.0</ele><time>2026-05-04T11:15:30.999Z</time></trkpt><trkpt lat="43.43906994295222" lon="11.310361330365389"><ele>547.0</ele><time>2026-05-04T11:15:31.999Z</time></trkpt><trkpt lat="43.438979163656555" lon="11.310448430423333"><ele>547.0</ele><time>2026-05-04T11:15:32.999Z</time></trkpt><trkpt lat="43.43887855238639" lon="11.310541388271167"><ele>547.0</ele><time>2026-05-04T11:15:33.999Z</time></trkpt><trkpt lat="43.43878006663599" lon="11.310639703430262"><ele>547.0</ele><time>2026-05-04T11:15:34.999Z</time></trkpt><trkpt lat="43.4386928131602" lon="11.310750182387023"><ele>547.75</ele><time>2026-05-04T11:15:35.999Z</time></trkpt><trkpt lat="43.438603065994606" lon="11.310897804469176"><ele>548.5</ele><time>2026-05-04T11:15:36.999Z</time></trkpt><trkpt lat="43.43850522392173" lon="11.311048208974299"><ele>549.25</ele><time>2026-05-04T11:15:37.999Z</time></trkpt><trkpt lat="43.438404812134635" lon="11.311151156778088"><ele>550.0</ele><time>2026-05-04T11:15:38.999Z</time></trkpt><trkpt lat="43.43830993627591" lon="11.31122261448282"><ele>550.0</ele><time>2026-05-04T11:15:39.999Z</time></trkpt><trkpt lat="43.43821510701533" lon="11.31130198545318"><ele>550.0</ele><time>2026-05-04T11:15:40.999Z</time></trkpt><trkpt lat="43.438100034689306" lon="11.311347955650152"><ele>550.0</ele><time>2026-05-04T11:15:41.999Z</time></trkpt><trkpt lat="43.43798046590037" lon="11.31143202943222"><ele>550.0</ele><time>2026-05-04T11:15:42.999Z</time></trkpt><trkpt lat="43.43784986983385" lon="11.311486169131168"><ele>549.25</ele><time>2026-05-04T11:15:43.999Z</time></trkpt><trkpt lat="43.43774013360653" lon="11.311521227126573"><ele>548.5</ele><time>2026-05-04T11:15:44.999Z</time></trkpt><trkpt lat="43.43765133229244" lon="11.31147836671021"><ele>547.75</ele><time>2026-05-04T11:15:45.999Z</time></trkpt><trkpt lat="43.437551154698" lon="11.311441175807117"><ele>547.0</ele><time>2026-05-04T11:15:46.999Z</time></trkpt><trkpt lat="43.43740599465147" lon="11.311401372527646"><ele>547.0</ele><time>2026-05-04T11:15:47.999Z</time></trkpt><trkpt lat="43.437246511316886" lon="11.311368001394243"><ele>547.0</ele><time>2026-05-04T11:15:48.999Z</time></trkpt><trkpt lat="43.437055727848744" lon="11.311352380804873"><ele>547.0</ele><time>2026-05-04T11:15:49.999Z</time></trkpt><trkpt lat="43.436892405956755" lon="11.311320987146786"><ele>549.5</ele><time>2026-05-04T11:15:50.999Z</time></trkpt><trkpt lat="43.436761437103414" lon="11.311289614561584"><ele>552.0</ele><time>2026-05-04T11:15:51.999Z</time></trkpt><trkpt lat="43.436651199054964" lon="11.311266354589062"><ele>554.5</ele><time>2026-05-04T11:15:52.999Z</time></trkpt><trkpt lat="43.4365414232831" lon="11.311253992778498"><ele>557.0</ele><time>2026-05-04T11:15:53.999Z</time></trkpt><trkpt lat="43.43641881172148" lon="11.31124713837638"><ele>558.0</ele><time>2026-05-04T11:15:54.999Z</time></trkpt><trkpt lat="43.43628894066715" lon="11.311264026543014"><ele>559.0</ele><time>2026-05-04T11:15:55.999Z</time></trkpt><trkpt lat="43.43614715530953" lon="11.3113060463873"><ele>560.0</ele><time>2026-05-04T11:15:56.999Z</time></trkpt><trkpt lat="43.43600070137911" lon="11.311361129958923"><ele>561.0</ele><time>2026-05-04T11:15:58Z</time></trkpt><trkpt lat="43.43587124526942" lon="11.311414476729585"><ele>561.0</ele><time>2026-05-04T11:15:59Z</time></trkpt><trkpt lat="43.435748080880664" lon="11.311459274961368"><ele>561.0</ele><time>2026-05-04T11:16:00Z</time></trkpt><trkpt lat="43.4356324937725" lon="11.311509141638684"><ele>561.0</ele><time>2026-05-04T11:16:01Z</time></trkpt><trkpt lat="43.4355302205599" lon="11.311570236298913"><ele>561.0</ele><time>2026-05-04T11:16:02Z</time></trkpt><trkpt lat="43.43544101156141" lon="11.311638907647309"><ele>558.5</ele><time>2026-05-04T11:16:03Z</time></trkpt><trkpt lat="43.435359196147154" lon="11.311721115396232"><ele>556.0</ele><time>2026-05-04T11:16:04Z</time></trkpt><trkpt lat="43.43530116172709" lon="11.311796064626847"><ele>553.5</ele><time>2026-05-04T11:16:05Z</time></trkpt><trkpt lat="43.43524487248593" lon="11.311893300118"><ele>551.0</ele><time>2026-05-04T11:16:06Z</time></trkpt><trkpt lat="43.43523375299743" lon="11.311997535569017"><ele>548.5</ele><time>2026-05-04T11:16:07Z</time></trkpt><trkpt lat="43.43523981838661" lon="11.312115256962551"><ele>546.0</ele><time>2026-05-04T11:16:08Z</time></trkpt><trkpt lat="43.43526155730819" lon="11.31225237342113"><ele>546.0</ele><time>2026-05-04T11:16:09Z</time></trkpt><trkpt lat="43.43528882671856" lon="11.312369099399952"><ele>546.0</ele><time>2026-05-04T11:16:10Z</time></trkpt><trkpt lat="43.435298266046786" lon="11.312472806467973"><ele>546.0</ele><time>2026-05-04T11:16:11Z</time></trkpt><trkpt lat="43.43524414041267" lon="11.31258126347619"><ele>546.0</ele><time>2026-05-04T11:16:13Z</time></trkpt><trkpt lat="43.43516577167126" lon="11.312583305958341"><ele>546.0</ele><time>2026-05-04T11:16:14Z</time></trkpt><trkpt lat="43.43505794419614" lon="11.312648542619842"><ele>546.0</ele><time>2026-05-04T11:16:15Z</time></trkpt><trkpt lat="43.43495242772469" lon="11.312733306749514"><ele>546.0</ele><time>2026-05-04T11:16:16Z</time></trkpt><trkpt lat="43.43487580977777" lon="11.312874714323135"><ele>546.0</ele><time>2026-05-04T11:16:17Z</time></trkpt><trkpt lat="43.43480118047038" lon="11.313031883300654"><ele>546.0</ele><time>2026-05-04T11:16:18Z</time></trkpt><trkpt lat="43.43472504307762" lon="11.313230107021772"><ele>546.0</ele><time>2026-05-04T11:16:19Z</time></trkpt><trkpt lat="43.43464057035673" lon="11.313456823700255"><ele>546.0</ele><time>2026-05-04T11:16:20Z</time></trkpt><trkpt lat="43.434551709259736" lon="11.313692192868261"><ele>546.0</ele><time>2026-05-04T11:16:21Z</time></trkpt><trkpt lat="43.43444327911804" lon="11.313961684217363"><ele>547.75</ele><time>2026-05-04T11:16:22Z</time></trkpt><trkpt lat="43.434346474696575" lon="11.314194176186211"><ele>549.5</ele><time>2026-05-04T11:16:23Z</time></trkpt><trkpt lat="43.43427894438345" lon="11.314365369590965"><ele>551.25</ele><time>2026-05-04T11:16:24Z</time></trkpt><trkpt lat="43.43422812178475" lon="11.314490348050652"><ele>553.0</ele><time>2026-05-04T11:16:25Z</time></trkpt><trkpt lat="43.434207961654494" lon="11.314574549985068"><ele>556.0</ele><time>2026-05-04T11:16:26Z</time></trkpt><trkpt lat="43.434238509659416" lon="11.314757972424381"><ele>559.0</ele><time>2026-05-04T11:16:28Z</time></trkpt><trkpt lat="43.43428383528831" lon="11.314873645240365"><ele>562.0</ele><time>2026-05-04T11:16:29Z</time></trkpt><trkpt lat="43.43434891548967" lon="11.314987822172847"><ele>565.0</ele><time>2026-05-04T11:16:30Z</time></trkpt><trkpt lat="43.43443916482553" lon="11.315096526289157"><ele>565.0</ele><time>2026-05-04T11:16:31Z</time></trkpt><trkpt lat="43.43454710872829" lon="11.315199857354939"><ele>565.0</ele><time>2026-05-04T11:16:32Z</time></trkpt><trkpt lat="43.434660567357454" lon="11.31531112111428"><ele>565.0</ele><time>2026-05-04T11:16:33Z</time></trkpt><trkpt lat="43.43476124320811" lon="11.315415503304255"><ele>565.0</ele><time>2026-05-04T11:16:34Z</time></trkpt><trkpt lat="43.43484052537749" lon="11.315537704121438"><ele>566.25</ele><time>2026-05-04T11:16:35Z</time></trkpt><trkpt lat="43.434889692035846" lon="11.315694177328085"><ele>567.5</ele><time>2026-05-04T11:16:36Z</time></trkpt><trkpt lat="43.43497457040406" lon="11.315820463968187"><ele>568.75</ele><time>2026-05-04T11:16:37Z</time></trkpt><trkpt lat="43.43504532564459" lon="11.315924680982487"><ele>570.0</ele><time>2026-05-04T11:16:38Z</time></trkpt><trkpt lat="43.435157481420674" lon="11.316012369639564"><ele>570.0</ele><time>2026-05-04T11:16:39Z</time></trkpt><trkpt lat="43.4352804927012" lon="11.316147921457976"><ele>570.0</ele><time>2026-05-04T11:16:40Z</time></trkpt><trkpt lat="43.435385532373246" lon="11.316265328363581"><ele>570.0</ele><time>2026-05-04T11:16:41Z</time></trkpt><trkpt lat="43.43544697189089" lon="11.316372629300375"><ele>570.0</ele><time>2026-05-04T11:16:42Z</time></trkpt><trkpt lat="43.43547526743238" lon="11.31648207186591"><ele>566.25</ele><time>2026-05-04T11:16:43Z</time></trkpt><trkpt lat="43.43550993300504" lon="11.316626039122355"><ele>562.5</ele><time>2026-05-04T11:16:44Z</time></trkpt><trkpt lat="43.43556723759233" lon="11.31681485094219"><ele>558.75</ele><time>2026-05-04T11:16:45Z</time></trkpt><trkpt lat="43.43561626852719" lon="11.317020273915379"><ele>555.0</ele><time>2026-05-04T11:16:46Z</time></trkpt><trkpt lat="43.43566255253042" lon="11.317214736475757"><ele>555.0</ele><time>2026-05-04T11:16:47Z</time></trkpt><trkpt lat="43.43569528415541" lon="11.317386667212066"><ele>555.0</ele><time>2026-05-04T11:16:48Z</time></trkpt><trkpt lat="43.43567301240731" lon="11.317518516301389"><ele>555.0</ele><time>2026-05-04T11:16:49Z</time></trkpt><trkpt lat="43.435655381078604" lon="11.317628413994473"><ele>555.0</ele><time>2026-05-04T11:16:50Z</time></trkpt><trkpt lat="43.435630229327934" lon="11.31775470326884"><ele>555.0</ele><time>2026-05-04T11:16:51Z</time></trkpt><trkpt lat="43.43560786328601" lon="11.31789285355159"><ele>555.0</ele><time>2026-05-04T11:16:52Z</time></trkpt><trkpt lat="43.43563261188902" lon="11.318058909802918"><ele>555.0</ele><time>2026-05-04T11:16:53Z</time></trkpt><trkpt lat="43.43566253519531" lon="11.318256022849628"><ele>555.0</ele><time>2026-05-04T11:16:54Z</time></trkpt><trkpt lat="43.43570801412647" lon="11.318455775902246"><ele>555.0</ele><time>2026-05-04T11:16:55Z</time></trkpt><trkpt lat="43.4357522312717" lon="11.318633817244734"><ele>555.0</ele><time>2026-05-04T11:16:56Z</time></trkpt><trkpt lat="43.43578875204337" lon="11.318787716656628"><ele>555.0</ele><time>2026-05-04T11:16:57Z</time></trkpt><trkpt lat="43.435811697351554" lon="11.318924326908204"><ele>555.0</ele><time>2026-05-04T11:16:58Z</time></trkpt><trkpt lat="43.43581538317247" lon="11.319045664509698"><ele>555.0</ele><time>2026-05-04T11:16:59Z</time></trkpt><trkpt lat="43.4357873700549" lon="11.319140807073701"><ele>555.0</ele><time>2026-05-04T11:17:00Z</time></trkpt><trkpt lat="43.43571899979781" lon="11.319219574148152"><ele>553.8</ele><time>2026-05-04T11:17:01Z</time></trkpt><trkpt lat="43.43563577073006" lon="11.319330561875919"><ele>552.6</ele><time>2026-05-04T11:17:02Z</time></trkpt><trkpt lat="43.435563129598904" lon="11.319455484159295"><ele>551.4</ele><time>2026-05-04T11:17:03Z</time></trkpt><trkpt lat="43.43552209333513" lon="11.31955621082037"><ele>550.2</ele><time>2026-05-04T11:17:04Z</time></trkpt><trkpt lat="43.435557591492504" lon="11.319697082011567"><ele>549.0</ele><time>2026-05-04T11:17:05Z</time></trkpt><trkpt lat="43.435597187610355" lon="11.319818122253047"><ele>547.8333333333334</ele><time>2026-05-04T11:17:06Z</time></trkpt><trkpt lat="43.43565573043937" lon="11.319930966108506"><ele>546.6666666666666</ele><time>2026-05-04T11:17:07Z</time></trkpt><trkpt lat="43.43570837245526" lon="11.320038893402003"><ele>545.5</ele><time>2026-05-04T11:17:08Z</time></trkpt><trkpt lat="43.43576198792039" lon="11.320118769203601"><ele>544.3333333333333</ele><time>2026-05-04T11:17:09Z</time></trkpt><trkpt lat="43.4358020134167" lon="11.320228329465214"><ele>543.1666666666666</ele><time>2026-05-04T11:17:10Z</time></trkpt><trkpt lat="43.435812978067446" lon="11.320344636584357"><ele>542.0</ele><time>2026-05-04T11:17:11Z</time></trkpt><trkpt lat="43.43575382936932" lon="11.320459218191283"><ele>540.6</ele><time>2026-05-04T11:17:12Z</time></trkpt><trkpt lat="43.43569396228264" lon="11.320570287245097"><ele>539.2</ele><time>2026-05-04T11:17:13Z</time></trkpt><trkpt lat="43.43563620075275" lon="11.320685737627288"><ele>537.8</ele><time>2026-05-04T11:17:14Z</time></trkpt><trkpt lat="43.43559517218309" lon="11.320806071020169"><ele>536.4</ele><time>2026-05-04T11:17:15Z</time></trkpt><trkpt lat="43.4355483232795" lon="11.320914836297195"><ele>535.0</ele><time>2026-05-04T11:17:16Z</time></trkpt><trkpt lat="43.435529603987526" lon="11.321049380414951"><ele>535.0</ele><time>2026-05-04T11:17:17Z</time></trkpt><trkpt lat="43.43553386973593" lon="11.321207399308548"><ele>535.0</ele><time>2026-05-04T11:17:18Z</time></trkpt><trkpt lat="43.4355432740489" lon="11.321376071264453"><ele>535.0</ele><time>2026-05-04T11:17:19Z</time></trkpt><trkpt lat="43.435564151474125" lon="11.32152074159611"><ele>535.0</ele><time>2026-05-04T11:17:20Z</time></trkpt><trkpt lat="43.43560219448436" lon="11.321654926326085"><ele>535.0</ele><time>2026-05-04T11:17:21Z</time></trkpt><trkpt lat="43.435655751103525" lon="11.321783300608773"><ele>533.5</ele><time>2026-05-04T11:17:22Z</time></trkpt><trkpt lat="43.43573051571769" lon="11.321919003905016"><ele>532.0</ele><time>2026-05-04T11:17:23Z</time></trkpt><trkpt lat="43.43582209752315" lon="11.32207334021393"><ele>530.5</ele><time>2026-05-04T11:17:24Z</time></trkpt><trkpt lat="43.435894099147866" lon="11.322232207390158"><ele>529.0</ele><time>2026-05-04T11:17:25Z</time></trkpt><trkpt lat="43.435948921017456" lon="11.322413289968546"><ele>529.0</ele><time>2026-05-04T11:17:26Z</time></trkpt><trkpt lat="43.435992432663014" lon="11.322640766186801"><ele>529.0</ele><time>2026-05-04T11:17:26.999Z</time></trkpt><trkpt lat="43.43604202319263" lon="11.322883761276856"><ele>529.0</ele><time>2026-05-04T11:17:27.999Z</time></trkpt><trkpt lat="43.43609475389318" lon="11.323143734376522"><ele>529.0</ele><time>2026-05-04T11:17:28.999Z</time></trkpt><trkpt lat="43.43614123399264" lon="11.323357857981955"><ele>529.0</ele><time>2026-05-04T11:17:29.999Z</time></trkpt><trkpt lat="43.43618439052312" lon="11.32355876853919"><ele>529.0</ele><time>2026-05-04T11:17:30.999Z</time></trkpt><trkpt lat="43.43622307958841" lon="11.323710638623718"><ele>529.0</ele><time>2026-05-04T11:17:31.999Z</time></trkpt><trkpt lat="43.43627389250488" lon="11.323842908431685"><ele>531.75</ele><time>2026-05-04T11:17:32.999Z</time></trkpt><trkpt lat="43.43635261889721" lon="11.323944053211829"><ele>534.5</ele><time>2026-05-04T11:17:33.999Z</time></trkpt><trkpt lat="43.436463466962074" lon="11.32402312528177"><ele>537.25</ele><time>2026-05-04T11:17:35Z</time></trkpt><trkpt lat="43.436602649396576" lon="11.324123392062052"><ele>540.0</ele><time>2026-05-04T11:17:36Z</time></trkpt><trkpt lat="43.43672595881781" lon="11.324276304962522"><ele>540.0</ele><time>2026-05-04T11:17:37Z</time></trkpt><trkpt lat="43.436830640609614" lon="11.324393439544613"><ele>540.0</ele><time>2026-05-04T11:17:38Z</time></trkpt><trkpt lat="43.43690981434269" lon="11.32454612149298"><ele>540.0</ele><time>2026-05-04T11:17:39Z</time></trkpt><trkpt lat="43.43701990537205" lon="11.32474076685093"><ele>543.3333333333334</ele><time>2026-05-04T11:17:40Z</time></trkpt><trkpt lat="43.437143431331684" lon="11.324938191440804"><ele>546.6666666666667</ele><time>2026-05-04T11:17:41Z</time></trkpt><trkpt lat="43.43727145301947" lon="11.325102184645342"><ele>550.0</ele><time>2026-05-04T11:17:42Z</time></trkpt><trkpt lat="43.43738920283618" lon="11.325196738719448"><ele>550.0</ele><time>2026-05-04T11:17:43Z</time></trkpt><trkpt lat="43.43746713423579" lon="11.325284831958419"><ele>550.0</ele><time>2026-05-04T11:17:44Z</time></trkpt><trkpt lat="43.43743689858416" lon="11.325423715949933"><ele>550.0</ele><time>2026-05-04T11:17:47Z</time></trkpt><trkpt lat="43.4373404405221" lon="11.325433165289793"><ele>550.0</ele><time>2026-05-04T11:17:48Z</time></trkpt><trkpt lat="43.4372697513524" lon="11.32551236120379"><ele>550.0</ele><time>2026-05-04T11:17:49Z</time></trkpt><trkpt lat="43.43719586231035" lon="11.325614136268968"><ele>552.0</ele><time>2026-05-04T11:17:50Z</time></trkpt><trkpt lat="43.43714349299233" lon="11.32577162481709"><ele>554.0</ele><time>2026-05-04T11:17:51Z</time></trkpt><trkpt lat="43.4371082012769" lon="11.325969147033064"><ele>556.0</ele><time>2026-05-04T11:17:52Z</time></trkpt><trkpt lat="43.437073051843285" lon="11.326170361677336"><ele>558.0</ele><time>2026-05-04T11:17:53Z</time></trkpt><trkpt lat="43.43703917802075" lon="11.326381128253416"><ele>560.75</ele><time>2026-05-04T11:17:54Z</time></trkpt><trkpt lat="43.43699447134747" lon="11.326603818442257"><ele>563.5</ele><time>2026-05-04T11:17:55Z</time></trkpt><trkpt lat="43.436942965606086" lon="11.326778160132427"><ele>566.25</ele><time>2026-05-04T11:17:56Z</time></trkpt><trkpt lat="43.436877427655524" lon="11.326896396774726"><ele>569.0</ele><time>2026-05-04T11:17:57Z</time></trkpt><trkpt lat="43.43679142359343" lon="11.326941077408069"><ele>569.0</ele><time>2026-05-04T11:17:58Z</time></trkpt><trkpt lat="43.43670212916717" lon="11.326928319179533"><ele>569.0</ele><time>2026-05-04T11:17:59Z</time></trkpt><trkpt lat="43.436670964026575" lon="11.3270919942677"><ele>569.0</ele><time>2026-05-04T11:18:01Z</time></trkpt><trkpt lat="43.4367309408807" lon="11.32720470550763"><ele>569.0</ele><time>2026-05-04T11:18:02Z</time></trkpt><trkpt lat="43.43678142918376" lon="11.327323974199972"><ele>569.0</ele><time>2026-05-04T11:18:03Z</time></trkpt><trkpt lat="43.43676596356615" lon="11.327431313929827"><ele>571.5</ele><time>2026-05-04T11:18:04Z</time></trkpt><trkpt lat="43.43666939800044" lon="11.327484115548026"><ele>574.0</ele><time>2026-05-04T11:18:05Z</time></trkpt><trkpt lat="43.436606643829485" lon="11.327607421459254"><ele>576.5</ele><time>2026-05-04T11:18:06Z</time></trkpt><trkpt lat="43.43652822148125" lon="11.327730030467077"><ele>579.0</ele><time>2026-05-04T11:18:07Z</time></trkpt><trkpt lat="43.4364856569767" lon="11.32791166901833"><ele>581.5</ele><time>2026-05-04T11:18:08Z</time></trkpt><trkpt lat="43.436459156268086" lon="11.328120652774412"><ele>584.0</ele><time>2026-05-04T11:18:09Z</time></trkpt><trkpt lat="43.436439593808196" lon="11.328322934851306"><ele>586.5</ele><time>2026-05-04T11:18:10Z</time></trkpt><trkpt lat="43.43642692128233" lon="11.32850880171453"><ele>589.0</ele><time>2026-05-04T11:18:11Z</time></trkpt><trkpt lat="43.43642167260042" lon="11.328689010284975"><ele>589.0</ele><time>2026-05-04T11:18:12Z</time></trkpt><trkpt lat="43.43642967765333" lon="11.328865948436881"><ele>589.0</ele><time>2026-05-04T11:18:13Z</time></trkpt><trkpt lat="43.43643260231143" lon="11.329003728362986"><ele>589.0</ele><time>2026-05-04T11:18:14Z</time></trkpt><trkpt lat="43.436426727264525" lon="11.32912983025885"><ele>589.0</ele><time>2026-05-04T11:18:15Z</time></trkpt><trkpt lat="43.43633860350926" lon="11.329227349377447"><ele>589.0</ele><time>2026-05-04T11:18:16Z</time></trkpt><trkpt lat="43.43626739263837" lon="11.329347816550353"><ele>589.0</ele><time>2026-05-04T11:18:17Z</time></trkpt><trkpt lat="43.436161271106904" lon="11.329495840504148"><ele>589.0</ele><time>2026-05-04T11:18:18Z</time></trkpt><trkpt lat="43.43606984570469" lon="11.329627067262674"><ele>589.0</ele><time>2026-05-04T11:18:19Z</time></trkpt><trkpt lat="43.43599244844968" lon="11.329749182482018"><ele>589.0</ele><time>2026-05-04T11:18:20Z</time></trkpt><trkpt lat="43.43591978199791" lon="11.329888258392259"><ele>589.0</ele><time>2026-05-04T11:18:21Z</time></trkpt><trkpt lat="43.43585315164748" lon="11.330053538063723"><ele>589.0</ele><time>2026-05-04T11:18:22Z</time></trkpt><trkpt lat="43.43578716959894" lon="11.3302474948979"><ele>589.0</ele><time>2026-05-04T11:18:23Z</time></trkpt><trkpt lat="43.435710947762495" lon="11.330460307863385"><ele>587.3333333333334</ele><time>2026-05-04T11:18:24Z</time></trkpt><trkpt lat="43.435621503117524" lon="11.330677342571516"><ele>585.6666666666666</ele><time>2026-05-04T11:18:25Z</time></trkpt><trkpt lat="43.43553722158009" lon="11.330854449006221"><ele>584.0</ele><time>2026-05-04T11:18:26Z</time></trkpt><trkpt lat="43.435462911727186" lon="11.331022687939509"><ele>584.0</ele><time>2026-05-04T11:18:27Z</time></trkpt><trkpt lat="43.43538983822718" lon="11.331162313142528"><ele>584.0</ele><time>2026-05-04T11:18:28Z</time></trkpt><trkpt lat="43.43531899276212" lon="11.331275788733995"><ele>584.0</ele><time>2026-05-04T11:18:29Z</time></trkpt><trkpt lat="43.4352212875679" lon="11.331360480872378"><ele>584.0</ele><time>2026-05-04T11:18:30Z</time></trkpt><trkpt lat="43.435113519912186" lon="11.331490838702365"><ele>584.0</ele><time>2026-05-04T11:18:31Z</time></trkpt><trkpt lat="43.435006065492814" lon="11.33160216947092"><ele>584.0</ele><time>2026-05-04T11:18:32Z</time></trkpt><trkpt lat="43.43491218083395" lon="11.331740198517462"><ele>584.0</ele><time>2026-05-04T11:18:33Z</time></trkpt><trkpt lat="43.434827444501444" lon="11.331915984504565"><ele>584.0</ele><time>2026-05-04T11:18:34Z</time></trkpt><trkpt lat="43.434743316113526" lon="11.332106745500253"><ele>585.0</ele><time>2026-05-04T11:18:35Z</time></trkpt><trkpt lat="43.43464780280412" lon="11.33226074281283"><ele>586.0</ele><time>2026-05-04T11:18:36Z</time></trkpt><trkpt lat="43.43456190539998" lon="11.3323683835887"><ele>587.0</ele><time>2026-05-04T11:18:37Z</time></trkpt><trkpt lat="43.434470027120035" lon="11.332455863645414"><ele>588.0</ele><time>2026-05-04T11:18:38Z</time></trkpt><trkpt lat="43.43435140863612" lon="11.332505778238964"><ele>588.75</ele><time>2026-05-04T11:18:39Z</time></trkpt><trkpt lat="43.43423282735121" lon="11.332545595484067"><ele>589.5</ele><time>2026-05-04T11:18:40Z</time></trkpt><trkpt lat="43.43410831306719" lon="11.332584661579348"><ele>590.25</ele><time>2026-05-04T11:18:41Z</time></trkpt><trkpt lat="43.4339765802272" lon="11.332618430887116"><ele>591.0</ele><time>2026-05-04T11:18:42Z</time></trkpt><trkpt lat="43.43385280269589" lon="11.332674234533394"><ele>591.0</ele><time>2026-05-04T11:18:43Z</time></trkpt><trkpt lat="43.43373835409848" lon="11.33270012900363"><ele>591.0</ele><time>2026-05-04T11:18:44Z</time></trkpt><trkpt lat="43.433637251628674" lon="11.332735730426482"><ele>591.0</ele><time>2026-05-04T11:18:45Z</time></trkpt><trkpt lat="43.43353298339256" lon="11.332791171447047"><ele>591.0</ele><time>2026-05-04T11:18:46Z</time></trkpt><trkpt lat="43.4334153402755" lon="11.332847588189976"><ele>591.0</ele><time>2026-05-04T11:18:47Z</time></trkpt><trkpt lat="43.43329001747913" lon="11.332932066392233"><ele>591.0</ele><time>2026-05-04T11:18:48Z</time></trkpt><trkpt lat="43.43314369998132" lon="11.333025653512475"><ele>591.0</ele><time>2026-05-04T11:18:49Z</time></trkpt><trkpt lat="43.432981027130346" lon="11.333110596977988"><ele>592.6666666666666</ele><time>2026-05-04T11:18:50Z</time></trkpt><trkpt lat="43.432815832689556" lon="11.333205252894901"><ele>594.3333333333333</ele><time>2026-05-04T11:18:51Z</time></trkpt><trkpt lat="43.43264699142609" lon="11.33330175471917"><ele>596.0</ele><time>2026-05-04T11:18:52Z</time></trkpt><trkpt lat="43.43249105737026" lon="11.33339041220859"><ele>596.0</ele><time>2026-05-04T11:18:53Z</time></trkpt><trkpt lat="43.43232463721283" lon="11.333485031789928"><ele>596.0</ele><time>2026-05-04T11:18:54Z</time></trkpt><trkpt lat="43.43216126398993" lon="11.333577176108488"><ele>596.0</ele><time>2026-05-04T11:18:55Z</time></trkpt><trkpt lat="43.43200996823929" lon="11.33366192219962"><ele>595.5</ele><time>2026-05-04T11:18:56Z</time></trkpt><trkpt lat="43.43189005804413" lon="11.333729088580428"><ele>595.0</ele><time>2026-05-04T11:18:57Z</time></trkpt><trkpt lat="43.431800892144906" lon="11.333773860476716"><ele>594.5</ele><time>2026-05-04T11:18:58Z</time></trkpt><trkpt lat="43.431723719425214" lon="11.333789779001293"><ele>594.0</ele><time>2026-05-04T11:18:59Z</time></trkpt><trkpt lat="43.431642750666235" lon="11.333776110274327"><ele>593.5</ele><time>2026-05-04T11:19:00Z</time></trkpt><trkpt lat="43.43160701203127" lon="11.333700659805727"><ele>593.0</ele><time>2026-05-04T11:19:01Z</time></trkpt><trkpt lat="43.43147472446458" lon="11.333665697279963"><ele>593.0</ele><time>2026-05-04T11:19:03Z</time></trkpt><trkpt lat="43.43137201990819" lon="11.333642626786787"><ele>593.0</ele><time>2026-05-04T11:19:04Z</time></trkpt><trkpt lat="43.4312594842121" lon="11.333651112958188"><ele>593.0</ele><time>2026-05-04T11:19:05Z</time></trkpt><trkpt lat="43.43113475229139" lon="11.333672679634482"><ele>593.0</ele><time>2026-05-04T11:19:06Z</time></trkpt><trkpt lat="43.431013019721334" lon="11.333701187697445"><ele>593.25</ele><time>2026-05-04T11:19:07Z</time></trkpt><trkpt lat="43.43088291221844" lon="11.333734511096576"><ele>593.5</ele><time>2026-05-04T11:19:08Z</time></trkpt><trkpt lat="43.4307338740368" lon="11.333728653262334"><ele>593.75</ele><time>2026-05-04T11:19:09Z</time></trkpt><trkpt lat="43.430588570822366" lon="11.333714391191691"><ele>594.0</ele><time>2026-05-04T11:19:10Z</time></trkpt><trkpt lat="43.43045735085945" lon="11.333669430615668"><ele>594.0</ele><time>2026-05-04T11:19:11Z</time></trkpt><trkpt lat="43.43032015161111" lon="11.33359795840326"><ele>594.0</ele><time>2026-05-04T11:19:12Z</time></trkpt><trkpt lat="43.43019957196665" lon="11.333525369575991"><ele>594.0</ele><time>2026-05-04T11:19:13Z</time></trkpt><trkpt lat="43.430102162798676" lon="11.333470648786635"><ele>594.0</ele><time>2026-05-04T11:19:14Z</time></trkpt><trkpt lat="43.43002395643443" lon="11.33344674373472"><ele>594.0</ele><time>2026-05-04T11:19:15Z</time></trkpt><trkpt lat="43.4299404960306" lon="11.333419439949493"><ele>594.0</ele><time>2026-05-04T11:19:16Z</time></trkpt><trkpt lat="43.42984901327924" lon="11.333421373046251"><ele>594.0</ele><time>2026-05-04T11:19:17Z</time></trkpt><trkpt lat="43.42973211592137" lon="11.333442784761147"><ele>594.0</ele><time>2026-05-04T11:19:18Z</time></trkpt><trkpt lat="43.42960986275162" lon="11.333500576649614"><ele>594.0</ele><time>2026-05-04T11:19:19Z</time></trkpt><trkpt lat="43.42949158811709" lon="11.333570492689823"><ele>594.25</ele><time>2026-05-04T11:19:20Z</time></trkpt><trkpt lat="43.42938495582068" lon="11.33365768337491"><ele>594.5</ele><time>2026-05-04T11:19:21Z</time></trkpt><trkpt lat="43.42928323962602" lon="11.333768924632473"><ele>594.75</ele><time>2026-05-04T11:19:22Z</time></trkpt><trkpt lat="43.42918934824124" lon="11.333906443862462"><ele>595.0</ele><time>2026-05-04T11:19:23Z</time></trkpt><trkpt lat="43.42907900059431" lon="11.334049382546002"><ele>595.0</ele><time>2026-05-04T11:19:24Z</time></trkpt><trkpt lat="43.428965991566024" lon="11.33416758717939"><ele>595.0</ele><time>2026-05-04T11:19:25Z</time></trkpt><trkpt lat="43.42886343767766" lon="11.33427801663521"><ele>595.0</ele><time>2026-05-04T11:19:26Z</time></trkpt><trkpt lat="43.428779703298396" lon="11.334367628120509"><ele>595.0</ele><time>2026-05-04T11:19:27Z</time></trkpt><trkpt lat="43.42867705694869" lon="11.334395902945143"><ele>593.75</ele><time>2026-05-04T11:19:28Z</time></trkpt><trkpt lat="43.42856363605452" lon="11.33443609375572"><ele>592.5</ele><time>2026-05-04T11:19:29Z</time></trkpt><trkpt lat="43.428417268863626" lon="11.33448283671233"><ele>591.25</ele><time>2026-05-04T11:19:30Z</time></trkpt><trkpt lat="43.42825434672227" lon="11.334561666275896"><ele>590.0</ele><time>2026-05-04T11:19:31Z</time></trkpt><trkpt lat="43.42807717056514" lon="11.33460091264422"><ele>589.6666666666666</ele><time>2026-05-04T11:19:32Z</time></trkpt><trkpt lat="43.42790123587558" lon="11.334655146376804"><ele>589.3333333333334</ele><time>2026-05-04T11:19:33Z</time></trkpt><trkpt lat="43.427753483262045" lon="11.334694048109194"><ele>589.0</ele><time>2026-05-04T11:19:34Z</time></trkpt><trkpt lat="43.42762081360459" lon="11.334730268389709"><ele>588.0</ele><time>2026-05-04T11:19:35Z</time></trkpt><trkpt lat="43.42750361498165" lon="11.334789878990842"><ele>587.0</ele><time>2026-05-04T11:19:36Z</time></trkpt><trkpt lat="43.42740411993909" lon="11.33480736806194"><ele>586.0</ele><time>2026-05-04T11:19:37Z</time></trkpt><trkpt lat="43.427306481194115" lon="11.334806582940807"><ele>585.0</ele><time>2026-05-04T11:19:38Z</time></trkpt><trkpt lat="43.427190080502655" lon="11.334774855002635"><ele>584.0</ele><time>2026-05-04T11:19:39Z</time></trkpt><trkpt lat="43.42705935994065" lon="11.33470064033761"><ele>582.2</ele><time>2026-05-04T11:19:40Z</time></trkpt><trkpt lat="43.42694815719822" lon="11.334622050411804"><ele>580.4</ele><time>2026-05-04T11:19:41Z</time></trkpt><trkpt lat="43.426882898260295" lon="11.334518786224663"><ele>578.6</ele><time>2026-05-04T11:19:42Z</time></trkpt><trkpt lat="43.426839171892475" lon="11.334384789339378"><ele>576.8</ele><time>2026-05-04T11:19:43Z</time></trkpt><trkpt lat="43.426822464613764" lon="11.334257108094803"><ele>575.0</ele><time>2026-05-04T11:19:44Z</time></trkpt><trkpt lat="43.426776008216706" lon="11.334185637918228"><ele>575.0</ele><time>2026-05-04T11:19:45Z</time></trkpt><trkpt lat="43.426707167095806" lon="11.334188495844367"><ele>575.0</ele><time>2026-05-04T11:19:46Z</time></trkpt><trkpt lat="43.426634834829024" lon="11.334295407011622"><ele>575.0</ele><time>2026-05-04T11:19:47Z</time></trkpt><trkpt lat="43.42655470272639" lon="11.334420821679997"><ele>575.0</ele><time>2026-05-04T11:19:48Z</time></trkpt><trkpt lat="43.42644777661356" lon="11.334565862917142"><ele>575.0</ele><time>2026-05-04T11:19:49Z</time></trkpt><trkpt lat="43.42630732261583" lon="11.334698854442273"><ele>573.6666666666666</ele><time>2026-05-04T11:19:50Z</time></trkpt><trkpt lat="43.42614611809407" lon="11.334800050538835"><ele>572.3333333333334</ele><time>2026-05-04T11:19:51Z</time></trkpt><trkpt lat="43.42597682614584" lon="11.334880128547105"><ele>571.0</ele><time>2026-05-04T11:19:52Z</time></trkpt><trkpt lat="43.42580620746414" lon="11.33495385973882"><ele>571.0</ele><time>2026-05-04T11:19:53Z</time></trkpt><trkpt lat="43.425645574224255" lon="11.335028792060816"><ele>571.0</ele><time>2026-05-04T11:19:54Z</time></trkpt><trkpt lat="43.4255252238428" lon="11.33508575388366"><ele>571.0</ele><time>2026-05-04T11:19:55Z</time></trkpt><trkpt lat="43.42542907049661" lon="11.335138946994855"><ele>571.0</ele><time>2026-05-04T11:19:56Z</time></trkpt><trkpt lat="43.425353026847354" lon="11.33520340821441"><ele>571.4</ele><time>2026-05-04T11:19:57Z</time></trkpt><trkpt lat="43.425254390369886" lon="11.335213998945814"><ele>571.8</ele><time>2026-05-04T11:19:58Z</time></trkpt><trkpt lat="43.425154425497794" lon="11.335216412900857"><ele>572.1999999999999</ele><time>2026-05-04T11:19:59Z</time></trkpt><trkpt lat="43.42505135740281" lon="11.335223425162804"><ele>572.6</ele><time>2026-05-04T11:20:00Z</time></trkpt><trkpt lat="43.424941848938744" lon="11.335199077642283"><ele>573.0</ele><time>2026-05-04T11:20:01Z</time></trkpt><trkpt lat="43.424833357314164" lon="11.335198356353645"><ele>573.0</ele><time>2026-05-04T11:20:02Z</time></trkpt><trkpt lat="43.42475381636908" lon="11.335211118754048"><ele>573.0</ele><time>2026-05-04T11:20:03Z</time></trkpt><trkpt lat="43.42469925793152" lon="11.335256996675646"><ele>573.0</ele><time>2026-05-04T11:20:04Z</time></trkpt><trkpt lat="43.424632604394944" lon="11.33535669380159"><ele>573.0</ele><time>2026-05-04T11:20:06Z</time></trkpt><trkpt lat="43.42459206656031" lon="11.335458961192"><ele>573.0</ele><time>2026-05-04T11:20:07Z</time></trkpt><trkpt lat="43.424549526437765" lon="11.335561459064184"><ele>573.0</ele><time>2026-05-04T11:20:08Z</time></trkpt><trkpt lat="43.42449110852885" lon="11.335620259871192"><ele>573.0</ele><time>2026-05-04T11:20:09Z</time></trkpt><trkpt lat="43.424436239452994" lon="11.335698963179702"><ele>573.0</ele><time>2026-05-04T11:20:11Z</time></trkpt><trkpt lat="43.424502025963214" lon="11.335618740191322"><ele>573.0</ele><time>2026-05-04T11:20:15Z</time></trkpt><trkpt lat="43.42458519055585" lon="11.335471354068662"><ele>573.0</ele><time>2026-05-04T11:20:17Z</time></trkpt><trkpt lat="43.424656144482064" lon="11.335360614445827"><ele>573.0</ele><time>2026-05-04T11:20:18Z</time></trkpt><trkpt lat="43.424730341797336" lon="11.335284704994617"><ele>573.0</ele><time>2026-05-04T11:20:19Z</time></trkpt><trkpt lat="43.42481005159522" lon="11.335250447254797"><ele>573.0</ele><time>2026-05-04T11:20:20Z</time></trkpt><trkpt lat="43.42490969895444" lon="11.335240932600176"><ele>573.0</ele><time>2026-05-04T11:20:21Z</time></trkpt><trkpt lat="43.4250272435826" lon="11.33524275103518"><ele>573.0</ele><time>2026-05-04T11:20:22Z</time></trkpt><trkpt lat="43.42514635570551" lon="11.335234182588923"><ele>573.0</ele><time>2026-05-04T11:20:23Z</time></trkpt><trkpt lat="43.42526837627265" lon="11.33521758971197"><ele>573.0</ele><time>2026-05-04T11:20:24Z</time></trkpt><trkpt lat="43.425396627849885" lon="11.335190220334871"><ele>573.0</ele><time>2026-05-04T11:20:25Z</time></trkpt><trkpt lat="43.425505388208904" lon="11.335140566438254"><ele>573.0</ele><time>2026-05-04T11:20:26Z</time></trkpt><trkpt lat="43.42559354384432" lon="11.335095803297904"><ele>573.0</ele><time>2026-05-04T11:20:27Z</time></trkpt><trkpt lat="43.425664320434684" lon="11.335100734112626"><ele>573.0</ele><time>2026-05-04T11:20:28Z</time></trkpt><trkpt lat="43.42572799031505" lon="11.335133336994481"><ele>572.8333333333334</ele><time>2026-05-04T11:20:29Z</time></trkpt><trkpt lat="43.42578851528641" lon="11.335177402306993"><ele>572.6666666666666</ele><time>2026-05-04T11:20:30Z</time></trkpt><trkpt lat="43.42585103820349" lon="11.335254646041198"><ele>572.5</ele><time>2026-05-04T11:20:31Z</time></trkpt><trkpt lat="43.42590685903841" lon="11.335355216995113"><ele>572.3333333333333</ele><time>2026-05-04T11:20:32Z</time></trkpt><trkpt lat="43.42595217134297" lon="11.335454690513087"><ele>572.1666666666666</ele><time>2026-05-04T11:20:33Z</time></trkpt><trkpt lat="43.42597873626516" lon="11.335592613754967"><ele>572.0</ele><time>2026-05-04T11:20:35Z</time></trkpt><trkpt lat="43.42589682574957" lon="11.33568585543731"><ele>572.0</ele><time>2026-05-04T11:20:37Z</time></trkpt><trkpt lat="43.425776484862226" lon="11.335722928566941"><ele>572.0</ele><time>2026-05-04T11:20:39Z</time></trkpt><trkpt lat="43.42568790134036" lon="11.335806839687555"><ele>572.0</ele><time>2026-05-04T11:20:41Z</time></trkpt><trkpt lat="43.42571493707781" lon="11.335925692837948"><ele>572.0</ele><time>2026-05-04T11:20:43Z</time></trkpt><trkpt lat="43.42579681299893" lon="11.33603842319155"><ele>572.0</ele><time>2026-05-04T11:20:46Z</time></trkpt><trkpt lat="43.425859662517226" lon="11.336170883665307"><ele>572.0</ele><time>2026-05-04T11:20:48Z</time></trkpt><trkpt lat="43.42592482380805" lon="11.336303236090973"><ele>572.0</ele><time>2026-05-04T11:20:50Z</time></trkpt><trkpt lat="43.42599091071371" lon="11.33642705261629"><ele>572.0</ele><time>2026-05-04T11:20:52Z</time></trkpt><trkpt lat="43.426059111006104" lon="11.336562922486912"><ele>572.0</ele><time>2026-05-04T11:20:54Z</time></trkpt><trkpt lat="43.42612691036707" lon="11.336692446898534"><ele>570.4</ele><time>2026-05-04T11:20:56Z</time></trkpt><trkpt lat="43.426165360682575" lon="11.33676435916509"><ele>568.8000000000001</ele><time>2026-05-04T11:20:57Z</time></trkpt><trkpt lat="43.42622072613616" lon="11.336875612802135"><ele>567.2</ele><time>2026-05-04T11:20:59Z</time></trkpt><trkpt lat="43.426171609669126" lon="11.336969192528306"><ele>565.6</ele><time>2026-05-04T11:21:02Z</time></trkpt><trkpt lat="43.426046604215294" lon="11.337032698559524"><ele>564.0</ele><time>2026-05-04T11:21:04Z</time></trkpt><trkpt lat="43.42598044682207" lon="11.337087808827755"><ele>562.6666666666666</ele><time>2026-05-04T11:21:05Z</time></trkpt><trkpt lat="43.42591239205704" lon="11.337233553609316"><ele>561.3333333333334</ele><time>2026-05-04T11:21:07Z</time></trkpt><trkpt lat="43.42591659045733" lon="11.337334215370703"><ele>560.0</ele><time>2026-05-04T11:21:08Z</time></trkpt><trkpt lat="43.42591730064167" lon="11.337428581654246"><ele>558.6666666666667</ele><time>2026-05-04T11:21:09Z</time></trkpt><trkpt lat="43.425913404779266" lon="11.33752980473899"><ele>557.3333333333334</ele><time>2026-05-04T11:21:10Z</time></trkpt><trkpt lat="43.4259081071341" lon="11.337626844341974"><ele>556.0</ele><time>2026-05-04T11:21:11Z</time></trkpt><trkpt lat="43.42590944643586" lon="11.337721518245973"><ele>556.0</ele><time>2026-05-04T11:21:12Z</time></trkpt><trkpt lat="43.42591173974465" lon="11.337866471277987"><ele>556.0</ele><time>2026-05-04T11:21:14Z</time></trkpt><trkpt lat="43.425937134513454" lon="11.337948781505775"><ele>556.0</ele><time>2026-05-04T11:21:17Z</time></trkpt><trkpt lat="43.42589524970521" lon="11.337838006895705"><ele>556.0</ele><time>2026-05-04T11:21:42Z</time></trkpt><trkpt lat="43.42584181761178" lon="11.33777244694597"><ele>556.0</ele><time>2026-05-04T11:21:44Z</time></trkpt><trkpt lat="43.42591335607069" lon="11.33746399337578"><ele>556.0</ele><time>2026-05-04T11:21:46Z</time></trkpt><trkpt lat="43.425908724083826" lon="11.33737589178441"><ele>556.0</ele><time>2026-05-04T11:21:47Z</time></trkpt><trkpt lat="43.42591600474636" lon="11.337283360834054"><ele>556.0</ele><time>2026-05-04T11:21:48Z</time></trkpt><trkpt lat="43.42594844186832" lon="11.337153290053726"><ele>556.0</ele><time>2026-05-04T11:21:50Z</time></trkpt><trkpt lat="43.42601850498002" lon="11.33707629873952"><ele>556.0</ele><time>2026-05-04T11:21:52Z</time></trkpt><trkpt lat="43.42608144483644" lon="11.337028855210079"><ele>556.0</ele><time>2026-05-04T11:21:53Z</time></trkpt><trkpt lat="43.4261542067837" lon="11.336987500256972"><ele>557.6</ele><time>2026-05-04T11:21:54Z</time></trkpt><trkpt lat="43.42622082550279" lon="11.336890680818959"><ele>559.2</ele><time>2026-05-04T11:21:56Z</time></trkpt><trkpt lat="43.4261752756975" lon="11.336793419489275"><ele>560.8</ele><time>2026-05-04T11:21:58Z</time></trkpt><trkpt lat="43.426117094126894" lon="11.336692248859945"><ele>562.4</ele><time>2026-05-04T11:22:00Z</time></trkpt><trkpt lat="43.42604604408855" lon="11.336561838082782"><ele>564.0</ele><time>2026-05-04T11:22:02Z</time></trkpt><trkpt lat="43.42600562548284" lon="11.336479493780953"><ele>565.3333333333334</ele><time>2026-05-04T11:22:03Z</time></trkpt><trkpt lat="43.42596041077509" lon="11.336383757615836"><ele>566.6666666666666</ele><time>2026-05-04T11:22:04Z</time></trkpt><trkpt lat="43.42591491205107" lon="11.336278554308779"><ele>568.0</ele><time>2026-05-04T11:22:05Z</time></trkpt><trkpt lat="43.425876025287295" lon="11.336193231438171"><ele>569.3333333333333</ele><time>2026-05-04T11:22:06Z</time></trkpt><trkpt lat="43.4258299144341" lon="11.33609810345101"><ele>570.6666666666666</ele><time>2026-05-04T11:22:07Z</time></trkpt><trkpt lat="43.42578382679512" lon="11.336013949854516"><ele>572.0</ele><time>2026-05-04T11:22:08Z</time></trkpt><trkpt lat="43.42574026685671" lon="11.335935928113951"><ele>572.0</ele><time>2026-05-04T11:22:10Z</time></trkpt><trkpt lat="43.42569592048352" lon="11.335846388098753"><ele>572.0</ele><time>2026-05-04T11:22:25Z</time></trkpt><trkpt lat="43.425754219537176" lon="11.335755007927148"><ele>572.0</ele><time>2026-05-04T11:22:28Z</time></trkpt><trkpt lat="43.42588030671045" lon="11.33571128209086"><ele>572.0</ele><time>2026-05-04T11:22:30Z</time></trkpt><trkpt lat="43.425977248451225" lon="11.335631720834726"><ele>572.0</ele><time>2026-05-04T11:22:32Z</time></trkpt><trkpt lat="43.42602080572999" lon="11.33555235388897"><ele>571.8000000000001</ele><time>2026-05-04T11:22:34Z</time></trkpt><trkpt lat="43.425966944287325" lon="11.335395764851691"><ele>571.6</ele><time>2026-05-04T11:22:35Z</time></trkpt><trkpt lat="43.42592223396585" lon="11.335309573143379"><ele>571.4000000000001</ele><time>2026-05-04T11:22:36Z</time></trkpt><trkpt lat="43.42586194593851" lon="11.335225955297924"><ele>571.2</ele><time>2026-05-04T11:22:37Z</time></trkpt><trkpt lat="43.425794056093594" lon="11.335160792139703"><ele>571.0</ele><time>2026-05-04T11:22:38Z</time></trkpt><trkpt lat="43.425698424519716" lon="11.335080427169268"><ele>571.0</ele><time>2026-05-04T11:22:40Z</time></trkpt><trkpt lat="43.42564477344224" lon="11.335031347609087"><ele>571.0</ele><time>2026-05-04T11:22:42Z</time></trkpt><trkpt lat="43.42544716345615" lon="11.33499681310249"><ele>571.0</ele><time>2026-05-04T11:22:45Z</time></trkpt><trkpt lat="43.42536432021067" lon="11.335196921221478"><ele>571.0</ele><time>2026-05-04T11:22:46Z</time></trkpt><trkpt lat="43.42525970963816" lon="11.33523052521002"><ele>571.5</ele><time>2026-05-04T11:22:47Z</time></trkpt><trkpt lat="43.42513904296686" lon="11.335232578434502"><ele>572.0</ele><time>2026-05-04T11:22:48Z</time></trkpt><trkpt lat="43.42501546458839" lon="11.335228838650687"><ele>572.5</ele><time>2026-05-04T11:22:49Z</time></trkpt><trkpt lat="43.424893732249714" lon="11.335198017884778"><ele>573.0</ele><time>2026-05-04T11:22:50Z</time></trkpt><trkpt lat="43.42479557839428" lon="11.335203652459008"><ele>573.0</ele><time>2026-05-04T11:22:51Z</time></trkpt><trkpt lat="43.42470766971743" lon="11.335231960590809"><ele>573.0</ele><time>2026-05-04T11:22:52Z</time></trkpt><trkpt lat="43.42463663078401" lon="11.335323418782867"><ele>573.0</ele><time>2026-05-04T11:22:53Z</time></trkpt><trkpt lat="43.42457841393274" lon="11.335464898679271"><ele>573.0</ele><time>2026-05-04T11:22:54Z</time></trkpt><trkpt lat="43.42450054373763" lon="11.335605810981672"><ele>573.0</ele><time>2026-05-04T11:22:55Z</time></trkpt><trkpt lat="43.424405570915226" lon="11.33574165840414"><ele>574.0</ele><time>2026-05-04T11:22:56Z</time></trkpt><trkpt lat="43.4243250206416" lon="11.335900999273763"><ele>575.0</ele><time>2026-05-04T11:22:57Z</time></trkpt><trkpt lat="43.42423511523528" lon="11.336034850094125"><ele>576.0</ele><time>2026-05-04T11:22:58Z</time></trkpt><trkpt lat="43.42415913249487" lon="11.33617627765439"><ele>577.0</ele><time>2026-05-04T11:22:59Z</time></trkpt><trkpt lat="43.424090865895735" lon="11.336291118247404"><ele>577.0</ele><time>2026-05-04T11:23:00Z</time></trkpt><trkpt lat="43.424043088208094" lon="11.336376665139515"><ele>577.0</ele><time>2026-05-04T11:23:01Z</time></trkpt><trkpt lat="43.42403610980517" lon="11.336480986781462"><ele>577.0</ele><time>2026-05-04T11:23:04Z</time></trkpt><trkpt lat="43.42405131938138" lon="11.336610516637299"><ele>577.0</ele><time>2026-05-04T11:23:06Z</time></trkpt><trkpt lat="43.42407468532105" lon="11.336759712763843"><ele>577.0</ele><time>2026-05-04T11:23:08Z</time></trkpt><trkpt lat="43.42412043779226" lon="11.336848652668612"><ele>577.0</ele><time>2026-05-04T11:23:10Z</time></trkpt><trkpt lat="43.424220335575114" lon="11.336888630323912"><ele>578.4</ele><time>2026-05-04T11:23:12Z</time></trkpt><trkpt lat="43.424272001352435" lon="11.336940314028352"><ele>579.8000000000001</ele><time>2026-05-04T11:23:13Z</time></trkpt><trkpt lat="43.42432633815939" lon="11.33700732368566"><ele>581.2</ele><time>2026-05-04T11:23:15Z</time></trkpt><trkpt lat="43.42426459893657" lon="11.336985803249348"><ele>582.6</ele><time>2026-05-04T11:23:29Z</time></trkpt><trkpt lat="43.4243628309997" lon="11.337022166188886"><ele>584.0</ele><time>2026-05-04T11:23:32Z</time></trkpt><trkpt lat="43.423990224103534" lon="11.337087650923266"><ele>584.0</ele><time>2026-05-04T11:23:34Z</time></trkpt><trkpt lat="43.42390501095356" lon="11.336999160220257"><ele>584.0</ele><time>2026-05-04T11:23:37Z</time></trkpt><trkpt lat="43.4238502000977" lon="11.336924894420553"><ele>584.0</ele><time>2026-05-04T11:23:39Z</time></trkpt><trkpt lat="43.42382104881927" lon="11.33684317253757"><ele>584.0</ele><time>2026-05-04T11:23:40Z</time></trkpt><trkpt lat="43.423866701933484" lon="11.337010291751271"><ele>584.0</ele><time>2026-05-04T11:23:46Z</time></trkpt><trkpt lat="43.42378346308095" lon="11.33706299624121"><ele>581.25</ele><time>2026-05-04T11:23:47Z</time></trkpt><trkpt lat="43.42367756343001" lon="11.337159133212527"><ele>578.5</ele><time>2026-05-04T11:23:48Z</time></trkpt><trkpt lat="43.423524500814736" lon="11.33723662205213"><ele>575.75</ele><time>2026-05-04T11:23:49Z</time></trkpt><trkpt lat="43.423443323850115" lon="11.337269595114574"><ele>573.0</ele><time>2026-05-04T11:23:50Z</time></trkpt><trkpt lat="43.42332918045384" lon="11.337323130342927"><ele>573.0</ele><time>2026-05-04T11:23:52Z</time></trkpt><trkpt lat="43.42325312995878" lon="11.337330851996281"><ele>573.0</ele><time>2026-05-04T11:23:54Z</time></trkpt><trkpt lat="43.422957553335195" lon="11.336573522876572"><ele>571.0</ele><time>2026-05-04T11:23:55Z</time></trkpt><trkpt lat="43.422883008737635" lon="11.33655027627158"><ele>569.0</ele><time>2026-05-04T11:23:56Z</time></trkpt><trkpt lat="43.42280859916022" lon="11.33657602765254"><ele>567.0</ele><time>2026-05-04T11:23:57Z</time></trkpt><trkpt lat="43.42274460693223" lon="11.336655403727043"><ele>565.0</ele><time>2026-05-04T11:23:58Z</time></trkpt><trkpt lat="43.42269734045164" lon="11.336792385721647"><ele>563.0</ele><time>2026-05-04T11:23:59Z</time></trkpt><trkpt lat="43.42265026918034" lon="11.336954131983305"><ele>563.0</ele><time>2026-05-04T11:24:00Z</time></trkpt><trkpt lat="43.422573441575494" lon="11.337096455513032"><ele>563.0</ele><time>2026-05-04T11:24:01Z</time></trkpt><trkpt lat="43.42246428302683" lon="11.337211161222928"><ele>563.0</ele><time>2026-05-04T11:24:02Z</time></trkpt><trkpt lat="43.42233685236018" lon="11.3373152713323"><ele>563.0</ele><time>2026-05-04T11:24:03Z</time></trkpt><trkpt lat="43.422205678611" lon="11.337414960180016"><ele>560.25</ele><time>2026-05-04T11:24:04Z</time></trkpt><trkpt lat="43.42207781823834" lon="11.337517674690528"><ele>557.5</ele><time>2026-05-04T11:24:05Z</time></trkpt><trkpt lat="43.42196501457862" lon="11.337618255102539"><ele>554.75</ele><time>2026-05-04T11:24:06Z</time></trkpt><trkpt lat="43.4218739275809" lon="11.337717406368295"><ele>552.0</ele><time>2026-05-04T11:24:07Z</time></trkpt><trkpt lat="43.42180539116725" lon="11.337823533275733"><ele>552.0</ele><time>2026-05-04T11:24:08Z</time></trkpt><trkpt lat="43.42174983466332" lon="11.337932058263387"><ele>552.0</ele><time>2026-05-04T11:24:09Z</time></trkpt><trkpt lat="43.42170006942091" lon="11.338058242573169"><ele>552.0</ele><time>2026-05-04T11:24:10Z</time></trkpt><trkpt lat="43.421635449908024" lon="11.338187260687178"><ele>552.0</ele><time>2026-05-04T11:24:11Z</time></trkpt><trkpt lat="43.421575376008775" lon="11.338340375825753"><ele>552.0</ele><time>2026-05-04T11:24:12Z</time></trkpt><trkpt lat="43.421512918003835" lon="11.338500507021617"><ele>552.25</ele><time>2026-05-04T11:24:13Z</time></trkpt><trkpt lat="43.421448261748" lon="11.338667223673992"><ele>552.5</ele><time>2026-05-04T11:24:14Z</time></trkpt><trkpt lat="43.421382723993695" lon="11.338836213171936"><ele>552.75</ele><time>2026-05-04T11:24:15Z</time></trkpt><trkpt lat="43.42131158829312" lon="11.339012218779402"><ele>553.0</ele><time>2026-05-04T11:24:16Z</time></trkpt><trkpt lat="43.42124625981903" lon="11.33919911674714"><ele>551.25</ele><time>2026-05-04T11:24:17Z</time></trkpt><trkpt lat="43.42116333020496" lon="11.33937815688685"><ele>549.5</ele><time>2026-05-04T11:24:18Z</time></trkpt><trkpt lat="43.421081632901576" lon="11.339538493554253"><ele>547.75</ele><time>2026-05-04T11:24:19Z</time></trkpt><trkpt lat="43.4210050295557" lon="11.339674760222216"><ele>546.0</ele><time>2026-05-04T11:24:20Z</time></trkpt><trkpt lat="43.42093949293057" lon="11.339770525849406"><ele>546.0</ele><time>2026-05-04T11:24:21Z</time></trkpt><trkpt lat="43.42084477432217" lon="11.339867221463825"><ele>546.0</ele><time>2026-05-04T11:24:23Z</time></trkpt><trkpt lat="43.42077973120489" lon="11.339917641089368"><ele>546.0</ele><time>2026-05-04T11:24:24Z</time></trkpt><trkpt lat="43.420699826502265" lon="11.339951404819573"><ele>546.0</ele><time>2026-05-04T11:24:25Z</time></trkpt><trkpt lat="43.420611354584146" lon="11.339913277620719"><ele>546.0</ele><time>2026-05-04T11:24:26Z</time></trkpt><trkpt lat="43.42053072314468" lon="11.339914197105024"><ele>546.0</ele><time>2026-05-04T11:24:27Z</time></trkpt><trkpt lat="43.42045019782182" lon="11.339917626089516"><ele>545.1666666666666</ele><time>2026-05-04T11:24:28Z</time></trkpt><trkpt lat="43.42037590865374" lon="11.339923684276883"><ele>544.3333333333334</ele><time>2026-05-04T11:24:29Z</time></trkpt><trkpt lat="43.420304668798344" lon="11.339929818269148"><ele>543.5</ele><time>2026-05-04T11:24:30Z</time></trkpt><trkpt lat="43.42023621887444" lon="11.339938345941649"><ele>542.6666666666667</ele><time>2026-05-04T11:24:31Z</time></trkpt><trkpt lat="43.42013133737574" lon="11.339988053366682"><ele>541.8333333333334</ele><time>2026-05-04T11:24:33Z</time></trkpt><trkpt lat="43.42006813145365" lon="11.340017726055615"><ele>541.0</ele><time>2026-05-04T11:24:34Z</time></trkpt><trkpt lat="43.42002924039717" lon="11.340162118075694"><ele>541.0</ele><time>2026-05-04T11:24:35Z</time></trkpt><trkpt lat="43.4200022200182" lon="11.340290617010583"><ele>541.0</ele><time>2026-05-04T11:24:36Z</time></trkpt><trkpt lat="43.41999388644391" lon="11.340443781441278"><ele>541.0</ele><time>2026-05-04T11:24:37Z</time></trkpt><trkpt lat="43.42001444190211" lon="11.340583674756477"><ele>541.0</ele><time>2026-05-04T11:24:38Z</time></trkpt><trkpt lat="43.42000914523835" lon="11.340730898387763"><ele>541.0</ele><time>2026-05-04T11:24:39Z</time></trkpt><trkpt lat="43.4199998338775" lon="11.340882573146757"><ele>540.5</ele><time>2026-05-04T11:24:40Z</time></trkpt><trkpt lat="43.41998216161047" lon="11.34104374947086"><ele>540.0</ele><time>2026-05-04T11:24:41Z</time></trkpt><trkpt lat="43.41994682457852" lon="11.341206711009406"><ele>539.5</ele><time>2026-05-04T11:24:42Z</time></trkpt><trkpt lat="43.419901085810274" lon="11.341362883349076"><ele>539.0</ele><time>2026-05-04T11:24:43Z</time></trkpt><trkpt lat="43.41984903298055" lon="11.341517627780146"><ele>538.0</ele><time>2026-05-04T11:24:44Z</time></trkpt><trkpt lat="43.419790992936" lon="11.341669193843178"><ele>537.0</ele><time>2026-05-04T11:24:45Z</time></trkpt><trkpt lat="43.419727273140815" lon="11.341816610217334"><ele>536.0</ele><time>2026-05-04T11:24:46Z</time></trkpt><trkpt lat="43.41965506984566" lon="11.341954125804588"><ele>535.0</ele><time>2026-05-04T11:24:47Z</time></trkpt><trkpt lat="43.419584021378355" lon="11.342082450971523"><ele>534.4</ele><time>2026-05-04T11:24:48Z</time></trkpt><trkpt lat="43.419512548672124" lon="11.34220712474296"><ele>533.8</ele><time>2026-05-04T11:24:49Z</time></trkpt><trkpt lat="43.419423294268036" lon="11.3422976447727"><ele>533.2</ele><time>2026-05-04T11:24:50Z</time></trkpt><trkpt lat="43.41934146641531" lon="11.342394915180476"><ele>532.6</ele><time>2026-05-04T11:24:51Z</time></trkpt><trkpt lat="43.41926666964595" lon="11.342504229820838"><ele>532.0</ele><time>2026-05-04T11:24:52Z</time></trkpt><trkpt lat="43.41917415027767" lon="11.342589185681277"><ele>533.0</ele><time>2026-05-04T11:24:53Z</time></trkpt><trkpt lat="43.41906987813232" lon="11.342658903144548"><ele>534.0</ele><time>2026-05-04T11:24:54Z</time></trkpt><trkpt lat="43.4189765755176" lon="11.342764136860849"><ele>535.0</ele><time>2026-05-04T11:24:55Z</time></trkpt><trkpt lat="43.41886242281935" lon="11.342843667790648"><ele>536.0</ele><time>2026-05-04T11:24:56Z</time></trkpt><trkpt lat="43.41875583957236" lon="11.342940814198387"><ele>536.0</ele><time>2026-05-04T11:24:57Z</time></trkpt><trkpt lat="43.41866735153243" lon="11.34303623251581"><ele>536.0</ele><time>2026-05-04T11:24:58Z</time></trkpt><trkpt lat="43.418594225328356" lon="11.343141836857594"><ele>536.0</ele><time>2026-05-04T11:24:59Z</time></trkpt><trkpt lat="43.41852948986543" lon="11.343282070235349"><ele>536.0</ele><time>2026-05-04T11:25:00Z</time></trkpt><trkpt lat="43.41847365046431" lon="11.34344927655721"><ele>538.5</ele><time>2026-05-04T11:25:01Z</time></trkpt><trkpt lat="43.41843096904972" lon="11.343610824980617"><ele>541.0</ele><time>2026-05-04T11:25:02Z</time></trkpt><trkpt lat="43.41838287448233" lon="11.343761333437522"><ele>543.5</ele><time>2026-05-04T11:25:03Z</time></trkpt><trkpt lat="43.41832376883793" lon="11.34389532551151"><ele>546.0</ele><time>2026-05-04T11:25:04Z</time></trkpt><trkpt lat="43.41826128092938" lon="11.34402851261433"><ele>546.0</ele><time>2026-05-04T11:25:05Z</time></trkpt><trkpt lat="43.41819469862866" lon="11.344160229227834"><ele>546.0</ele><time>2026-05-04T11:25:06Z</time></trkpt><trkpt lat="43.41811508451558" lon="11.344283970045952"><ele>546.0</ele><time>2026-05-04T11:25:07Z</time></trkpt><trkpt lat="43.41800190991389" lon="11.34436225470859"><ele>546.0</ele><time>2026-05-04T11:25:08Z</time></trkpt><trkpt lat="43.417909404292885" lon="11.344458850249591"><ele>543.5</ele><time>2026-05-04T11:25:09Z</time></trkpt><trkpt lat="43.4178059278631" lon="11.344484192302627"><ele>541.0</ele><time>2026-05-04T11:25:10Z</time></trkpt><trkpt lat="43.41771869532331" lon="11.344522042157658"><ele>538.5</ele><time>2026-05-04T11:25:11Z</time></trkpt><trkpt lat="43.41763196826132" lon="11.34448894001598"><ele>536.0</ele><time>2026-05-04T11:25:12Z</time></trkpt><trkpt lat="43.41755219907909" lon="11.344477372977108"><ele>533.5</ele><time>2026-05-04T11:25:13Z</time></trkpt><trkpt lat="43.417482298725865" lon="11.344468912610413"><ele>531.0</ele><time>2026-05-04T11:25:14Z</time></trkpt><trkpt lat="43.417418180246685" lon="11.344469808298768"><ele>531.0</ele><time>2026-05-04T11:25:15Z</time></trkpt><trkpt lat="43.41735452194314" lon="11.344494053929969"><ele>531.0</ele><time>2026-05-04T11:25:16Z</time></trkpt><trkpt lat="43.417313940742346" lon="11.344587208599291"><ele>531.0</ele><time>2026-05-04T11:25:17Z</time></trkpt><trkpt lat="43.41730097326585" lon="11.344686279304693"><ele>531.0</ele><time>2026-05-04T11:25:18Z</time></trkpt><trkpt lat="43.41731330492724" lon="11.344809908848513"><ele>531.0</ele><time>2026-05-04T11:25:19Z</time></trkpt><trkpt lat="43.41733235475392" lon="11.344944169728546"><ele>531.0</ele><time>2026-05-04T11:25:20Z</time></trkpt><trkpt lat="43.417348887698324" lon="11.34508787214694"><ele>530.6666666666666</ele><time>2026-05-04T11:25:21Z</time></trkpt><trkpt lat="43.41736200635117" lon="11.345225379164782"><ele>530.3333333333334</ele><time>2026-05-04T11:25:22Z</time></trkpt><trkpt lat="43.41737555002603" lon="11.34535165287795"><ele>530.0</ele><time>2026-05-04T11:25:23Z</time></trkpt><trkpt lat="43.417378943376676" lon="11.34545133344406"><ele>529.6666666666667</ele><time>2026-05-04T11:25:24Z</time></trkpt><trkpt lat="43.41736462775241" lon="11.345544375290416"><ele>529.3333333333334</ele><time>2026-05-04T11:25:25Z</time></trkpt><trkpt lat="43.41730664706676" lon="11.345609707774257"><ele>529.0</ele><time>2026-05-04T11:25:26Z</time></trkpt><trkpt lat="43.417267115409786" lon="11.345713902136286"><ele>527.8</ele><time>2026-05-04T11:25:27Z</time></trkpt><trkpt lat="43.41720492903034" lon="11.345810857073593"><ele>526.5999999999999</ele><time>2026-05-04T11:25:28Z</time></trkpt><trkpt lat="43.41715710512156" lon="11.345910017421994"><ele>525.4</ele><time>2026-05-04T11:25:29Z</time></trkpt><trkpt lat="43.41712671761909" lon="11.34599637455783"><ele>524.1999999999999</ele><time>2026-05-04T11:25:30Z</time></trkpt><trkpt lat="43.41709760713384" lon="11.346144797508122"><ele>523.0</ele><time>2026-05-04T11:25:32Z</time></trkpt><trkpt lat="43.41698436781638" lon="11.346267051360758"><ele>522.25</ele><time>2026-05-04T11:25:34Z</time></trkpt><trkpt lat="43.41689739354212" lon="11.346316227286684"><ele>521.5</ele><time>2026-05-04T11:25:35Z</time></trkpt><trkpt lat="43.41679193540021" lon="11.346372131452028"><ele>520.75</ele><time>2026-05-04T11:25:36Z</time></trkpt><trkpt lat="43.4166774314133" lon="11.346434393810863"><ele>520.0</ele><time>2026-05-04T11:25:37Z</time></trkpt><trkpt lat="43.41655818537953" lon="11.346473478062917"><ele>520.0</ele><time>2026-05-04T11:25:38Z</time></trkpt><trkpt lat="43.41643972325873" lon="11.3465438408593"><ele>520.0</ele><time>2026-05-04T11:25:39Z</time></trkpt><trkpt lat="43.41632924241677" lon="11.346606371357234"><ele>520.0</ele><time>2026-05-04T11:25:40Z</time></trkpt><trkpt lat="43.416229439415375" lon="11.346693308594958"><ele>520.0</ele><time>2026-05-04T11:25:41Z</time></trkpt><trkpt lat="43.41611860842614" lon="11.346722597133194"><ele>519.6666666666667</ele><time>2026-05-04T11:25:42Z</time></trkpt><trkpt lat="43.41602853298326" lon="11.346778317879883"><ele>519.3333333333334</ele><time>2026-05-04T11:25:43Z</time></trkpt><trkpt lat="43.415938459534985" lon="11.346836971814747"><ele>519.0</ele><time>2026-05-04T11:25:44Z</time></trkpt><trkpt lat="43.415860559345845" lon="11.346884521097603"><ele>518.6666666666666</ele><time>2026-05-04T11:25:45Z</time></trkpt><trkpt lat="43.41577582441344" lon="11.34691670012619"><ele>518.3333333333333</ele><time>2026-05-04T11:25:46Z</time></trkpt><trkpt lat="43.41571365044132" lon="11.346946107294684"><ele>518.0</ele><time>2026-05-04T11:25:47Z</time></trkpt><trkpt lat="43.41564428984502" lon="11.346979301995574"><ele>518.0</ele><time>2026-05-04T11:25:48Z</time></trkpt><trkpt lat="43.415580196511726" lon="11.347013693223126"><ele>518.0</ele><time>2026-05-04T11:25:49Z</time></trkpt><trkpt lat="43.41548280879595" lon="11.347082550068665"><ele>518.0</ele><time>2026-05-04T11:25:50.999Z</time></trkpt><trkpt lat="43.41539605444814" lon="11.34718791869673"><ele>518.0</ele><time>2026-05-04T11:25:52.999Z</time></trkpt><trkpt lat="43.415291043601535" lon="11.347197610854758"><ele>518.0</ele><time>2026-05-04T11:25:54.999Z</time></trkpt><trkpt lat="43.41522206533483" lon="11.347105431257877"><ele>516.5</ele><time>2026-05-04T11:25:56.999Z</time></trkpt><trkpt lat="43.41513741378448" lon="11.347046580764042"><ele>515.0</ele><time>2026-05-04T11:25:58.999Z</time></trkpt><trkpt lat="43.415061923803414" lon="11.346978434322882"><ele>513.5</ele><time>2026-05-04T11:26:00.999Z</time></trkpt><trkpt lat="43.415005976945835" lon="11.346916544004465"><ele>512.0</ele><time>2026-05-04T11:26:02.999Z</time></trkpt><trkpt lat="43.41493610138262" lon="11.346866124071168"><ele>510.49999999999994</ele><time>2026-05-04T11:26:06Z</time></trkpt><trkpt lat="43.414875710185754" lon="11.346828312187311"><ele>509.0</ele><time>2026-05-04T11:26:10Z</time></trkpt><trkpt lat="43.414810065112896" lon="11.34679499801137"><ele>509.0</ele><time>2026-05-04T11:26:13Z</time></trkpt><trkpt lat="43.41474427480314" lon="11.34679084728608"><ele>509.0</ele><time>2026-05-04T11:26:16Z</time></trkpt><trkpt lat="43.41482183575641" lon="11.346802356597731"><ele>509.0</ele><time>2026-05-04T11:26:27Z</time></trkpt><trkpt lat="43.41496710172222" lon="11.346940708311491"><ele>509.0</ele><time>2026-05-04T11:26:29Z</time></trkpt><trkpt lat="43.41502323824167" lon="11.346985397346733"><ele>509.0</ele><time>2026-05-04T11:26:30Z</time></trkpt><trkpt lat="43.41513366748604" lon="11.347084832245303"><ele>508.99999999999994</ele><time>2026-05-04T11:26:32Z</time></trkpt><trkpt lat="43.415221023227026" lon="11.347154763732933"><ele>509.0</ele><time>2026-05-04T11:26:33Z</time></trkpt><trkpt lat="43.41528720473465" lon="11.347207951412047"><ele>509.0</ele><time>2026-05-04T11:26:34Z</time></trkpt><trkpt lat="43.415348711726864" lon="11.347237922798419"><ele>509.0</ele><time>2026-05-04T11:26:36Z</time></trkpt><trkpt lat="43.41533735326571" lon="11.347329847091483"><ele>508.99999999999994</ele><time>2026-05-04T11:26:45Z</time></trkpt><trkpt lat="43.41526025271771" lon="11.347348901830253"><ele>509.0</ele><time>2026-05-04T11:26:48Z</time></trkpt><trkpt lat="43.4152640820995" lon="11.347165810445258"><ele>509.0</ele><time>2026-05-04T11:26:49Z</time></trkpt><trkpt lat="43.41513846938487" lon="11.347222722057909"><ele>509.0</ele><time>2026-05-04T11:26:52Z</time></trkpt><trkpt lat="43.41500515378943" lon="11.347352667034606"><ele>509.0</ele><time>2026-05-04T11:26:54Z</time></trkpt><trkpt lat="43.41498119773501" lon="11.347731508430716"><ele>508.99999999999994</ele><time>2026-05-04T11:26:56Z</time></trkpt><trkpt lat="43.414940958652984" lon="11.347803302659882"><ele>509.0</ele><time>2026-05-04T11:26:57Z</time></trkpt><trkpt lat="43.41489887725068" lon="11.347871398233845"><ele>509.0</ele><time>2026-05-04T11:26:58Z</time></trkpt><trkpt lat="43.41485485944701" lon="11.347938245214968"><ele>509.0</ele><time>2026-05-04T11:26:59Z</time></trkpt><trkpt lat="43.414811167095586" lon="11.348012035655328"><ele>508.99999999999994</ele><time>2026-05-04T11:27:00Z</time></trkpt><trkpt lat="43.41474044614882" lon="11.348133497465154"><ele>509.0</ele><time>2026-05-04T11:27:02Z</time></trkpt><trkpt lat="43.414650484444856" lon="11.348197454717933"><ele>507.16666666666663</ele><time>2026-05-04T11:27:05Z</time></trkpt><trkpt lat="43.41460175771059" lon="11.348253072815055"><ele>505.3333333333333</ele><time>2026-05-04T11:27:06Z</time></trkpt><trkpt lat="43.414555286666086" lon="11.348334092042448"><ele>503.5</ele><time>2026-05-04T11:27:07Z</time></trkpt><trkpt lat="43.414503332429696" lon="11.348420918442422"><ele>501.66666666666663</ele><time>2026-05-04T11:27:08Z</time></trkpt><trkpt lat="43.41445600189223" lon="11.348502254993944"><ele>499.8333333333333</ele><time>2026-05-04T11:27:09Z</time></trkpt><trkpt lat="43.41440582570689" lon="11.34858155864665"><ele>498.0</ele><time>2026-05-04T11:27:10Z</time></trkpt><trkpt lat="43.41435169462779" lon="11.348676148427995"><ele>498.0</ele><time>2026-05-04T11:27:11Z</time></trkpt><trkpt lat="43.414294977299654" lon="11.348770505079038"><ele>497.99999999999994</ele><time>2026-05-04T11:27:12Z</time></trkpt><trkpt lat="43.41424156652841" lon="11.34884762217555"><ele>497.99999999999994</ele><time>2026-05-04T11:27:13Z</time></trkpt><trkpt lat="43.41416895782317" lon="11.3489809384835"><ele>498.0</ele><time>2026-05-04T11:27:15Z</time></trkpt><trkpt lat="43.41409988890533" lon="11.34910656852343"><ele>498.0</ele><time>2026-05-04T11:27:17Z</time></trkpt><trkpt lat="43.41405654237207" lon="11.349201218173555"><ele>498.1666666666667</ele><time>2026-05-04T11:27:19Z</time></trkpt><trkpt lat="43.41397094740428" lon="11.349259367797274"><ele>498.33333333333337</ele><time>2026-05-04T11:27:22Z</time></trkpt><trkpt lat="43.41390641826188" lon="11.349258128478738"><ele>498.5</ele><time>2026-05-04T11:27:23Z</time></trkpt><trkpt lat="43.413828160672985" lon="11.34923376168174"><ele>498.6666666666667</ele><time>2026-05-04T11:27:24Z</time></trkpt><trkpt lat="43.41376709501484" lon="11.349207673619306"><ele>498.83333333333337</ele><time>2026-05-04T11:27:25Z</time></trkpt><trkpt lat="43.413706645542206" lon="11.349116315513646"><ele>499.0</ele><time>2026-05-04T11:27:27Z</time></trkpt><trkpt lat="43.41363016351847" lon="11.349085987559098"><ele>498.0</ele><time>2026-05-04T11:27:29Z</time></trkpt><trkpt lat="43.413576666749194" lon="11.349027652130143"><ele>497.0</ele><time>2026-05-04T11:27:31Z</time></trkpt><trkpt lat="43.41350597329498" lon="11.34898344922509"><ele>496.0</ele><time>2026-05-04T11:27:35Z</time></trkpt><trkpt lat="43.41359470798016" lon="11.349037098547809"><ele>495.0</ele><time>2026-05-04T11:27:49Z</time></trkpt><trkpt lat="43.41376543417734" lon="11.349206777184005"><ele>495.0</ele><time>2026-05-04T11:27:51Z</time></trkpt><trkpt lat="43.41382116891268" lon="11.34925195842461"><ele>495.0</ele><time>2026-05-04T11:27:52Z</time></trkpt><trkpt lat="43.413939744646235" lon="11.349271753333166"><ele>495.0</ele><time>2026-05-04T11:27:54Z</time></trkpt><trkpt lat="43.414004070063385" lon="11.349266581257709"><ele>495.0</ele><time>2026-05-04T11:27:55Z</time></trkpt><trkpt lat="43.41406660442193" lon="11.349239714180806"><ele>495.0</ele><time>2026-05-04T11:27:57Z</time></trkpt><trkpt lat="43.41412499293139" lon="11.349369522163355"><ele>495.0</ele><time>2026-05-04T11:27:59Z</time></trkpt><trkpt lat="43.414155288151846" lon="11.34947255327893"><ele>494.8333333333333</ele><time>2026-05-04T11:28:00Z</time></trkpt><trkpt lat="43.414186107428705" lon="11.349563339785568"><ele>494.66666666666663</ele><time>2026-05-04T11:28:01Z</time></trkpt><trkpt lat="43.41425610402348" lon="11.349699225497394"><ele>494.5</ele><time>2026-05-04T11:28:03Z</time></trkpt><trkpt lat="43.41429029831385" lon="11.349772097816183"><ele>494.3333333333333</ele><time>2026-05-04T11:28:04Z</time></trkpt><trkpt lat="43.4143383813326" lon="11.349915599428755"><ele>494.16666666666663</ele><time>2026-05-04T11:28:06Z</time></trkpt><trkpt lat="43.414338652752384" lon="11.350015409935837"><ele>494.0</ele><time>2026-05-04T11:28:08Z</time></trkpt><trkpt lat="43.4142720424077" lon="11.350047158255272"><ele>493.99999999999994</ele><time>2026-05-04T11:28:10Z</time></trkpt><trkpt lat="43.41416309494929" lon="11.350015729354785"><ele>494.0</ele><time>2026-05-04T11:28:12Z</time></trkpt><trkpt lat="43.41410043152349" lon="11.34998282147695"><ele>494.0</ele><time>2026-05-04T11:28:13Z</time></trkpt><trkpt lat="43.41403521712391" lon="11.349968313332116"><ele>494.0</ele><time>2026-05-04T11:28:14Z</time></trkpt><trkpt lat="43.413963276264646" lon="11.349978067372533"><ele>493.99999999999994</ele><time>2026-05-04T11:28:15Z</time></trkpt><trkpt lat="43.41385331978901" lon="11.350031069194493"><ele>494.0</ele><time>2026-05-04T11:28:17Z</time></trkpt><trkpt lat="43.413796788135336" lon="11.35007140313447"><ele>493.99999999999994</ele><time>2026-05-04T11:28:18Z</time></trkpt><trkpt lat="43.41373799319831" lon="11.350126282345714"><ele>494.0</ele><time>2026-05-04T11:28:20Z</time></trkpt><trkpt lat="43.413791461439416" lon="11.350191819886907"><ele>494.0</ele><time>2026-05-04T11:28:23Z</time></trkpt><trkpt lat="43.41391468463782" lon="11.350171723150945"><ele>494.0</ele><time>2026-05-04T11:28:25Z</time></trkpt><trkpt lat="43.41400222673375" lon="11.350161813575843"><ele>493.99999999999994</ele><time>2026-05-04T11:28:27Z</time></trkpt><trkpt lat="43.41403320272083" lon="11.350279726602903"><ele>494.0</ele><time>2026-05-04T11:28:31Z</time></trkpt><trkpt lat="43.41386849224186" lon="11.350324113513459"><ele>493.25</ele><time>2026-05-04T11:28:32Z</time></trkpt><trkpt lat="43.41377194427342" lon="11.350407162567226"><ele>492.5</ele><time>2026-05-04T11:28:33Z</time></trkpt><trkpt lat="43.413671863238314" lon="11.350524500174412"><ele>491.75</ele><time>2026-05-04T11:28:34Z</time></trkpt><trkpt lat="43.41355850330703" lon="11.35066420284697"><ele>491.0</ele><time>2026-05-04T11:28:35Z</time></trkpt><trkpt lat="43.41344231155778" lon="11.35082675197748"><ele>487.3333333333333</ele><time>2026-05-04T11:28:36Z</time></trkpt><trkpt lat="43.413323424073845" lon="11.351008223531787"><ele>483.66666666666663</ele><time>2026-05-04T11:28:37Z</time></trkpt><trkpt lat="43.413197808145696" lon="11.351181177605625"><ele>480.0</ele><time>2026-05-04T11:28:38Z</time></trkpt><trkpt lat="43.41308039854222" lon="11.35134246541097"><ele>477.33333333333337</ele><time>2026-05-04T11:28:39Z</time></trkpt><trkpt lat="43.41296137263238" lon="11.35149593539277"><ele>474.6666666666667</ele><time>2026-05-04T11:28:40Z</time></trkpt><trkpt lat="43.41283870941293" lon="11.351631187160898"><ele>472.0</ele><time>2026-05-04T11:28:41Z</time></trkpt><trkpt lat="43.41268673250534" lon="11.351696688371467"><ele>472.0</ele><time>2026-05-04T11:28:42Z</time></trkpt><trkpt lat="43.41254923029113" lon="11.351735213751395"><ele>472.0</ele><time>2026-05-04T11:28:43Z</time></trkpt><trkpt lat="43.4124136616697" lon="11.351767848758927"><ele>472.0</ele><time>2026-05-04T11:28:44Z</time></trkpt><trkpt lat="43.41225819156762" lon="11.351805936002176"><ele>472.0</ele><time>2026-05-04T11:28:45Z</time></trkpt><trkpt lat="43.412086464215484" lon="11.351848005944165"><ele>470.33333333333337</ele><time>2026-05-04T11:28:46Z</time></trkpt><trkpt lat="43.41190738997954" lon="11.351891875744924"><ele>468.66666666666663</ele><time>2026-05-04T11:28:47Z</time></trkpt><trkpt lat="43.41172877104665" lon="11.351934525064468"><ele>467.0</ele><time>2026-05-04T11:28:48Z</time></trkpt><trkpt lat="43.41154879097447" lon="11.352001852927001"><ele>467.0</ele><time>2026-05-04T11:28:49Z</time></trkpt><trkpt lat="43.411358251484856" lon="11.352027332291195"><ele>467.0</ele><time>2026-05-04T11:28:50Z</time></trkpt><trkpt lat="43.41116094205274" lon="11.352077406324398"><ele>467.0</ele><time>2026-05-04T11:28:51Z</time></trkpt><trkpt lat="43.41096261124672" lon="11.352127786495817"><ele>467.66666666666663</ele><time>2026-05-04T11:28:52Z</time></trkpt><trkpt lat="43.41075999337351" lon="11.352183453864967"><ele>468.33333333333337</ele><time>2026-05-04T11:28:53Z</time></trkpt><trkpt lat="43.41057479317287" lon="11.352257171650962"><ele>469.0</ele><time>2026-05-04T11:28:54Z</time></trkpt><trkpt lat="43.41041142124645" lon="11.352290340848766"><ele>469.0</ele><time>2026-05-04T11:28:55Z</time></trkpt><trkpt lat="43.41028343473795" lon="11.352287023057425"><ele>469.0</ele><time>2026-05-04T11:28:56Z</time></trkpt><trkpt lat="43.41020659738633" lon="11.352278759123589"><ele>469.0</ele><time>2026-05-04T11:28:57Z</time></trkpt><trkpt lat="43.41012048767864" lon="11.352431644649979"><ele>469.0</ele><time>2026-05-04T11:28:58Z</time></trkpt><trkpt lat="43.410025220984735" lon="11.35255395942176"><ele>469.0</ele><time>2026-05-04T11:28:59Z</time></trkpt><trkpt lat="43.40992445991892" lon="11.352689971437348"><ele>469.0</ele><time>2026-05-04T11:29:00Z</time></trkpt><trkpt lat="43.409845050701996" lon="11.352819025367824"><ele>469.0</ele><time>2026-05-04T11:29:01Z</time></trkpt><trkpt lat="43.4098094928828" lon="11.35293694859563"><ele>469.0</ele><time>2026-05-04T11:29:02Z</time></trkpt><trkpt lat="43.40977711378843" lon="11.353071154703654"><ele>468.79999999999995</ele><time>2026-05-04T11:29:03Z</time></trkpt><trkpt lat="43.40976466223279" lon="11.353242160922507"><ele>468.59999999999997</ele><time>2026-05-04T11:29:04Z</time></trkpt><trkpt lat="43.40971495980452" lon="11.353349555575113"><ele>468.4</ele><time>2026-05-04T11:29:05Z</time></trkpt><trkpt lat="43.409631233746076" lon="11.35332138100945"><ele>468.2</ele><time>2026-05-04T11:29:07Z</time></trkpt><trkpt lat="43.409558776841514" lon="11.353330352480937"><ele>468.0</ele><time>2026-05-04T11:29:09Z</time></trkpt><trkpt lat="43.40945548881179" lon="11.35321280944249"><ele>468.0</ele><time>2026-05-04T11:29:11Z</time></trkpt><trkpt lat="43.40933883072951" lon="11.353178381335946"><ele>468.0</ele><time>2026-05-04T11:29:12Z</time></trkpt><trkpt lat="43.409207330442044" lon="11.353172084149577"><ele>468.0</ele><time>2026-05-04T11:29:13Z</time></trkpt><trkpt lat="43.4090873569254" lon="11.35316973844943"><ele>468.0</ele><time>2026-05-04T11:29:14Z</time></trkpt><trkpt lat="43.40895383058356" lon="11.353216070190179"><ele>468.0</ele><time>2026-05-04T11:29:15Z</time></trkpt><trkpt lat="43.40885640633391" lon="11.353313683670716"><ele>467.99999999999994</ele><time>2026-05-04T11:29:16Z</time></trkpt><trkpt lat="43.40878378743231" lon="11.353406126824922"><ele>467.99999999999994</ele><time>2026-05-04T11:29:17Z</time></trkpt><trkpt lat="43.40875301845053" lon="11.353513778052031"><ele>468.0</ele><time>2026-05-04T11:29:18Z</time></trkpt><trkpt lat="43.40874446448878" lon="11.353646568206464"><ele>468.0</ele><time>2026-05-04T11:29:19Z</time></trkpt><trkpt lat="43.408739850288825" lon="11.35381935731804"><ele>468.79999999999995</ele><time>2026-05-04T11:29:20Z</time></trkpt><trkpt lat="43.40871860256095" lon="11.353988389961819"><ele>469.59999999999997</ele><time>2026-05-04T11:29:21Z</time></trkpt><trkpt lat="43.40866097654647" lon="11.354073912572217"><ele>470.40000000000003</ele><time>2026-05-04T11:29:22Z</time></trkpt><trkpt lat="43.40854589258335" lon="11.354147847109521"><ele>471.20000000000005</ele><time>2026-05-04T11:29:24Z</time></trkpt><trkpt lat="43.40847186970425" lon="11.354136061398833"><ele>472.0</ele><time>2026-05-04T11:29:25Z</time></trkpt><trkpt lat="43.408400697027865" lon="11.354080367072207"><ele>472.0</ele><time>2026-05-04T11:29:26Z</time></trkpt><trkpt lat="43.40831072073919" lon="11.353968497544098"><ele>472.00000000000006</ele><time>2026-05-04T11:29:27Z</time></trkpt><trkpt lat="43.40820715023904" lon="11.35385956871828"><ele>472.00000000000006</ele><time>2026-05-04T11:29:28Z</time></trkpt><trkpt lat="43.408125748273356" lon="11.353779053241432"><ele>472.0</ele><time>2026-05-04T11:29:29Z</time></trkpt><trkpt lat="43.408046441328814" lon="11.35372437133266"><ele>472.0</ele><time>2026-05-04T11:29:30Z</time></trkpt><trkpt lat="43.407940976421614" lon="11.35372003401571"><ele>470.6</ele><time>2026-05-04T11:29:31Z</time></trkpt><trkpt lat="43.40783624605693" lon="11.353745242729723"><ele>469.20000000000005</ele><time>2026-05-04T11:29:32Z</time></trkpt><trkpt lat="43.407737607832175" lon="11.35382258332211"><ele>467.8</ele><time>2026-05-04T11:29:33Z</time></trkpt><trkpt lat="43.40768526799986" lon="11.35396417506982"><ele>466.4</ele><time>2026-05-04T11:29:34Z</time></trkpt><trkpt lat="43.40764646238763" lon="11.35409150929985"><ele>465.0</ele><time>2026-05-04T11:29:35Z</time></trkpt><trkpt lat="43.4076172411911" lon="11.35424623892335"><ele>465.0</ele><time>2026-05-04T11:29:36Z</time></trkpt><trkpt lat="43.40757898269939" lon="11.354388060221408"><ele>465.0</ele><time>2026-05-04T11:29:37Z</time></trkpt><trkpt lat="43.40751252605614" lon="11.354442558324008"><ele>465.0</ele><time>2026-05-04T11:29:38Z</time></trkpt><trkpt lat="43.40739706838027" lon="11.354419102135926"><ele>465.0</ele><time>2026-05-04T11:29:40Z</time></trkpt><trkpt lat="43.40730457428047" lon="11.35435896666185"><ele>465.0</ele><time>2026-05-04T11:29:41Z</time></trkpt><trkpt lat="43.40716962627629" lon="11.354327556421609"><ele>462.5</ele><time>2026-05-04T11:29:42Z</time></trkpt><trkpt lat="43.4070545946324" lon="11.354362979272219"><ele>460.0</ele><time>2026-05-04T11:29:43Z</time></trkpt><trkpt lat="43.40694115321729" lon="11.354430149890726"><ele>457.5</ele><time>2026-05-04T11:29:44Z</time></trkpt><trkpt lat="43.40681878032161" lon="11.354524486062504"><ele>455.0</ele><time>2026-05-04T11:29:45Z</time></trkpt><trkpt lat="43.406709506376544" lon="11.354623352511501"><ele>456.4</ele><time>2026-05-04T11:29:46Z</time></trkpt><trkpt lat="43.40662410344857" lon="11.354710532588786"><ele>457.8</ele><time>2026-05-04T11:29:47Z</time></trkpt><trkpt lat="43.40657029669506" lon="11.354794282766031"><ele>459.20000000000005</ele><time>2026-05-04T11:29:48Z</time></trkpt><trkpt lat="43.40654417440136" lon="11.354897605836497"><ele>460.6</ele><time>2026-05-04T11:29:49Z</time></trkpt><trkpt lat="43.40653747835826" lon="11.355023388243742"><ele>462.0</ele><time>2026-05-04T11:29:50Z</time></trkpt><trkpt lat="43.406550563008004" lon="11.355174000234397"><ele>462.0</ele><time>2026-05-04T11:29:51Z</time></trkpt><trkpt lat="43.40657894432193" lon="11.355350909236442"><ele>462.0</ele><time>2026-05-04T11:29:52Z</time></trkpt><trkpt lat="43.406621854323696" lon="11.355538978360213"><ele>462.0</ele><time>2026-05-04T11:29:53Z</time></trkpt><trkpt lat="43.40666808113106" lon="11.355724466305281"><ele>462.0</ele><time>2026-05-04T11:29:54Z</time></trkpt><trkpt lat="43.406686329791036" lon="11.355867209344403"><ele>462.20000000000005</ele><time>2026-05-04T11:29:55.001Z</time></trkpt><trkpt lat="43.40665073080063" lon="11.355955700546417"><ele>462.40000000000003</ele><time>2026-05-04T11:29:56.001Z</time></trkpt><trkpt lat="43.406550039113796" lon="11.356077253185425"><ele>462.59999999999997</ele><time>2026-05-04T11:29:58.001Z</time></trkpt><trkpt lat="43.406469125897104" lon="11.356050131812506"><ele>462.79999999999995</ele><time>2026-05-04T11:29:59.001Z</time></trkpt><trkpt lat="43.40640840868147" lon="11.355965710568123"><ele>463.0</ele><time>2026-05-04T11:30:00.001Z</time></trkpt><trkpt lat="43.406315962399745" lon="11.355875910084984"><ele>463.0</ele><time>2026-05-04T11:30:01.001Z</time></trkpt><trkpt lat="43.40618323154551" lon="11.355737106632752"><ele>463.0</ele><time>2026-05-04T11:30:02.001Z</time></trkpt><trkpt lat="43.406039449173434" lon="11.355590024308812"><ele>463.0</ele><time>2026-05-04T11:30:03Z</time></trkpt><trkpt lat="43.405902297919184" lon="11.355502522746244"><ele>461.0</ele><time>2026-05-04T11:30:04Z</time></trkpt><trkpt lat="43.405799570023845" lon="11.355412666912287"><ele>458.99999999999994</ele><time>2026-05-04T11:30:05Z</time></trkpt><trkpt lat="43.405699716793976" lon="11.35537181247486"><ele>456.99999999999994</ele><time>2026-05-04T11:30:06Z</time></trkpt><trkpt lat="43.405599221514116" lon="11.355392208072567"><ele>455.0</ele><time>2026-05-04T11:30:07Z</time></trkpt><trkpt lat="43.40551150167794" lon="11.355396741353326"><ele>453.0</ele><time>2026-05-04T11:30:08Z</time></trkpt><trkpt lat="43.40544854507251" lon="11.35545670271774"><ele>453.59999999999997</ele><time>2026-05-04T11:30:09Z</time></trkpt><trkpt lat="43.405404575203455" lon="11.355594851139465"><ele>454.19999999999993</ele><time>2026-05-04T11:30:10Z</time></trkpt><trkpt lat="43.40536673564572" lon="11.355736211585517"><ele>454.8</ele><time>2026-05-04T11:30:11Z</time></trkpt><trkpt lat="43.40534142139887" lon="11.355881996026737"><ele>455.4</ele><time>2026-05-04T11:30:12Z</time></trkpt><trkpt lat="43.40531013013645" lon="11.35600465062374"><ele>456.0</ele><time>2026-05-04T11:30:13Z</time></trkpt><trkpt lat="43.40526878030062" lon="11.356078735343818"><ele>456.0</ele><time>2026-05-04T11:30:14Z</time></trkpt><trkpt lat="43.40515092104698" lon="11.356088380954054"><ele>456.0</ele><time>2026-05-04T11:30:16Z</time></trkpt><trkpt lat="43.405041930730185" lon="11.355999212961487"><ele>456.0</ele><time>2026-05-04T11:30:17Z</time></trkpt><trkpt lat="43.40490917912807" lon="11.355920515253604"><ele>456.0</ele><time>2026-05-04T11:30:18Z</time></trkpt><trkpt lat="43.40475672477448" lon="11.355798569804945"><ele>455.0</ele><time>2026-05-04T11:30:19Z</time></trkpt><trkpt lat="43.40463834312121" lon="11.355683310252143"><ele>454.0</ele><time>2026-05-04T11:30:20Z</time></trkpt><trkpt lat="43.404518526440754" lon="11.355603990138333"><ele>453.0</ele><time>2026-05-04T11:30:21Z</time></trkpt><trkpt lat="43.404387171228635" lon="11.355565448452676"><ele>452.0</ele><time>2026-05-04T11:30:22Z</time></trkpt><trkpt lat="43.40425528142998" lon="11.355561164304014"><ele>452.0</ele><time>2026-05-04T11:30:23Z</time></trkpt><trkpt lat="43.40414917469375" lon="11.355575424899769"><ele>452.0</ele><time>2026-05-04T11:30:24Z</time></trkpt><trkpt lat="43.40404715994684" lon="11.355599550860457"><ele>452.0</ele><time>2026-05-04T11:30:25Z</time></trkpt><trkpt lat="43.40393705314643" lon="11.355661818621664"><ele>452.0</ele><time>2026-05-04T11:30:26Z</time></trkpt><trkpt lat="43.40381281440557" lon="11.35577163213022"><ele>450.8</ele><time>2026-05-04T11:30:27Z</time></trkpt><trkpt lat="43.40369675330007" lon="11.355879547933043"><ele>449.6</ele><time>2026-05-04T11:30:28Z</time></trkpt><trkpt lat="43.4036160066888" lon="11.355974821215563"><ele>448.40000000000003</ele><time>2026-05-04T11:30:29Z</time></trkpt><trkpt lat="43.403572232542444" lon="11.356049351887545"><ele>447.20000000000005</ele><time>2026-05-04T11:30:30Z</time></trkpt><trkpt lat="43.40354941984524" lon="11.356131216534411"><ele>446.0</ele><time>2026-05-04T11:30:31Z</time></trkpt><trkpt lat="43.40359110180556" lon="11.356297481508602"><ele>446.20000000000005</ele><time>2026-05-04T11:30:33Z</time></trkpt><trkpt lat="43.40364333921039" lon="11.356391126123883"><ele>446.40000000000003</ele><time>2026-05-04T11:30:34Z</time></trkpt><trkpt lat="43.403710542977905" lon="11.356479675509256"><ele>446.6</ele><time>2026-05-04T11:30:35Z</time></trkpt><trkpt lat="43.40377867065916" lon="11.356575264340592"><ele>446.8</ele><time>2026-05-04T11:30:36Z</time></trkpt><trkpt lat="43.403831663614746" lon="11.356698229700172"><ele>447.0</ele><time>2026-05-04T11:30:37Z</time></trkpt><trkpt lat="43.403844193647785" lon="11.356810858480511"><ele>447.0</ele><time>2026-05-04T11:30:38Z</time></trkpt><trkpt lat="43.40382149071847" lon="11.356900563077472"><ele>447.0</ele><time>2026-05-04T11:30:39Z</time></trkpt><trkpt lat="43.403775384981" lon="11.35699312077134"><ele>447.0</ele><time>2026-05-04T11:30:40Z</time></trkpt><trkpt lat="43.40371518875772" lon="11.357058223606883"><ele>447.0</ele><time>2026-05-04T11:30:41Z</time></trkpt><trkpt lat="43.40364110486103" lon="11.357102932292944"><ele>447.0</ele><time>2026-05-04T11:30:42Z</time></trkpt><trkpt lat="43.403533375862544" lon="11.357099473372509"><ele>447.0</ele><time>2026-05-04T11:30:43Z</time></trkpt><trkpt lat="43.40340407514331" lon="11.357109492580637"><ele>447.0</ele><time>2026-05-04T11:30:44Z</time></trkpt><trkpt lat="43.40325707778505" lon="11.357086863200642"><ele>447.0</ele><time>2026-05-04T11:30:45Z</time></trkpt><trkpt lat="43.403131383237685" lon="11.357086863199157"><ele>447.0</ele><time>2026-05-04T11:30:46Z</time></trkpt><trkpt lat="43.40301597851464" lon="11.357107241745513"><ele>447.0</ele><time>2026-05-04T11:30:47Z</time></trkpt><trkpt lat="43.402911332522024" lon="11.35720455725937"><ele>446.20000000000005</ele><time>2026-05-04T11:30:48Z</time></trkpt><trkpt lat="43.402825267939356" lon="11.357308963720646"><ele>445.40000000000003</ele><time>2026-05-04T11:30:49Z</time></trkpt><trkpt lat="43.40275477372454" lon="11.35743878740147"><ele>444.59999999999997</ele><time>2026-05-04T11:30:50Z</time></trkpt><trkpt lat="43.402717368916825" lon="11.357574868302516"><ele>443.79999999999995</ele><time>2026-05-04T11:30:51Z</time></trkpt><trkpt lat="43.40271537262327" lon="11.357705396701082"><ele>443.0</ele><time>2026-05-04T11:30:52Z</time></trkpt><trkpt lat="43.40273658625616" lon="11.357832302071794"><ele>443.0</ele><time>2026-05-04T11:30:53Z</time></trkpt><trkpt lat="43.40277698960555" lon="11.357997840544117"><ele>443.0</ele><time>2026-05-04T11:30:54Z</time></trkpt><trkpt lat="43.402818639794354" lon="11.3582109399191"><ele>443.0</ele><time>2026-05-04T11:30:55Z</time></trkpt><trkpt lat="43.40284345040727" lon="11.358446904537331"><ele>442.79999999999995</ele><time>2026-05-04T11:30:56Z</time></trkpt><trkpt lat="43.40289453163411" lon="11.358614137403299"><ele>442.59999999999997</ele><time>2026-05-04T11:30:57Z</time></trkpt><trkpt lat="43.402935419968934" lon="11.358740200865435"><ele>442.40000000000003</ele><time>2026-05-04T11:30:58Z</time></trkpt><trkpt lat="43.402986426684315" lon="11.358836797100832"><ele>442.20000000000005</ele><time>2026-05-04T11:30:59Z</time></trkpt><trkpt lat="43.4030558394175" lon="11.358909759135319"><ele>442.0</ele><time>2026-05-04T11:31:00Z</time></trkpt><trkpt lat="43.40315673934806" lon="11.358953916328856"><ele>442.75</ele><time>2026-05-04T11:31:01Z</time></trkpt><trkpt lat="43.40328957541433" lon="11.358999651168453"><ele>443.5</ele><time>2026-05-04T11:31:02Z</time></trkpt><trkpt lat="43.40340850187982" lon="11.359052712238658"><ele>444.25</ele><time>2026-05-04T11:31:03Z</time></trkpt><trkpt lat="43.40350317373375" lon="11.35914810227155"><ele>445.0</ele><time>2026-05-04T11:31:04Z</time></trkpt><trkpt lat="43.40355925429733" lon="11.359257636508271"><ele>445.0</ele><time>2026-05-04T11:31:05Z</time></trkpt><trkpt lat="43.403582648987104" lon="11.359371934928985"><ele>445.0</ele><time>2026-05-04T11:31:06Z</time></trkpt><trkpt lat="43.40358032372764" lon="11.359501460875368"><ele>445.0</ele><time>2026-05-04T11:31:07Z</time></trkpt><trkpt lat="43.40354759001326" lon="11.359678458282943"><ele>445.0</ele><time>2026-05-04T11:31:08Z</time></trkpt><trkpt lat="43.40350333317941" lon="11.35986894919991"><ele>445.25</ele><time>2026-05-04T11:31:09Z</time></trkpt><trkpt lat="43.403478366017495" lon="11.360049718916647"><ele>445.5</ele><time>2026-05-04T11:31:10Z</time></trkpt><trkpt lat="43.403479757656854" lon="11.360240486236233"><ele>445.75</ele><time>2026-05-04T11:31:11Z</time></trkpt><trkpt lat="43.40349603293177" lon="11.360414079760794"><ele>446.0</ele><time>2026-05-04T11:31:12Z</time></trkpt><trkpt lat="43.40350092073495" lon="11.360567193620223"><ele>446.0</ele><time>2026-05-04T11:31:13Z</time></trkpt><trkpt lat="43.403477848975214" lon="11.360675609902536"><ele>446.0</ele><time>2026-05-04T11:31:14Z</time></trkpt><trkpt lat="43.403427598105765" lon="11.360769007537257"><ele>446.0</ele><time>2026-05-04T11:31:15Z</time></trkpt><trkpt lat="43.40333976266503" lon="11.360785632897587"><ele>446.0</ele><time>2026-05-04T11:31:16Z</time></trkpt><trkpt lat="43.40323090696444" lon="11.360826609399203"><ele>446.0</ele><time>2026-05-04T11:31:17Z</time></trkpt><trkpt lat="43.4030782577829" lon="11.360875533581249"><ele>444.75</ele><time>2026-05-04T11:31:18Z</time></trkpt><trkpt lat="43.40292792888966" lon="11.360911310493217"><ele>443.5</ele><time>2026-05-04T11:31:19Z</time></trkpt><trkpt lat="43.402790827852556" lon="11.360902041580133"><ele>442.25</ele><time>2026-05-04T11:31:20Z</time></trkpt><trkpt lat="43.40266468176389" lon="11.360870017833907"><ele>441.0</ele><time>2026-05-04T11:31:21Z</time></trkpt><trkpt lat="43.402535030673434" lon="11.360868594042623"><ele>441.0</ele><time>2026-05-04T11:31:22Z</time></trkpt><trkpt lat="43.402424124665195" lon="11.360841063183761"><ele>441.0</ele><time>2026-05-04T11:31:23Z</time></trkpt><trkpt lat="43.402299747771885" lon="11.360871168954713"><ele>441.0</ele><time>2026-05-04T11:31:24Z</time></trkpt><trkpt lat="43.40218756681099" lon="11.360937453355797"><ele>441.0</ele><time>2026-05-04T11:31:25Z</time></trkpt><trkpt lat="43.4020792583928" lon="11.36104927645055"><ele>442.0</ele><time>2026-05-04T11:31:26Z</time></trkpt><trkpt lat="43.401977391110506" lon="11.361207896361563"><ele>443.0</ele><time>2026-05-04T11:31:27Z</time></trkpt><trkpt lat="43.40182589273618" lon="11.361369205523113"><ele>444.0</ele><time>2026-05-04T11:31:28Z</time></trkpt><trkpt lat="43.4016757432129" lon="11.36153345569218"><ele>444.0</ele><time>2026-05-04T11:31:29Z</time></trkpt><trkpt lat="43.401548092469824" lon="11.361669575398752"><ele>444.0</ele><time>2026-05-04T11:31:30Z</time></trkpt><trkpt lat="43.40145449580503" lon="11.36179718548231"><ele>444.0</ele><time>2026-05-04T11:31:31Z</time></trkpt><trkpt lat="43.40137378482219" lon="11.361879108490912"><ele>444.0</ele><time>2026-05-04T11:31:32Z</time></trkpt><trkpt lat="43.401312888704695" lon="11.361955576620224"><ele>445.25</ele><time>2026-05-04T11:31:33Z</time></trkpt><trkpt lat="43.401272475072645" lon="11.362070791608492"><ele>446.5</ele><time>2026-05-04T11:31:35Z</time></trkpt><trkpt lat="43.40129585265803" lon="11.362180425658707"><ele>447.75</ele><time>2026-05-04T11:31:37Z</time></trkpt><trkpt lat="43.4013639168201" lon="11.362383058755462"><ele>449.0</ele><time>2026-05-04T11:31:39Z</time></trkpt><trkpt lat="43.40139803664197" lon="11.362548540740805"><ele>449.0</ele><time>2026-05-04T11:31:40Z</time></trkpt><trkpt lat="43.4014115626443" lon="11.36271402551608"><ele>449.0</ele><time>2026-05-04T11:31:41Z</time></trkpt><trkpt lat="43.40139107345817" lon="11.362856097155332"><ele>449.0</ele><time>2026-05-04T11:31:42Z</time></trkpt><trkpt lat="43.4013449188944" lon="11.362996763281236"><ele>449.0</ele><time>2026-05-04T11:31:43Z</time></trkpt><trkpt lat="43.40128038915834" lon="11.363101444278755"><ele>449.0</ele><time>2026-05-04T11:31:44Z</time></trkpt><trkpt lat="43.40117843702742" lon="11.363133823818103"><ele>447.2</ele><time>2026-05-04T11:31:45Z</time></trkpt><trkpt lat="43.40106660170255" lon="11.363183796886252"><ele>445.4</ele><time>2026-05-04T11:31:46Z</time></trkpt><trkpt lat="43.400955140317826" lon="11.363263797623555"><ele>443.6</ele><time>2026-05-04T11:31:47Z</time></trkpt><trkpt lat="43.40086987739901" lon="11.363326173902713"><ele>441.8</ele><time>2026-05-04T11:31:48Z</time></trkpt><trkpt lat="43.4008246881334" lon="11.363429306409202"><ele>440.0</ele><time>2026-05-04T11:31:49Z</time></trkpt><trkpt lat="43.40078193985369" lon="11.363567668844608"><ele>440.0</ele><time>2026-05-04T11:31:50Z</time></trkpt><trkpt lat="43.40076001929314" lon="11.363729865330695"><ele>440.0</ele><time>2026-05-04T11:31:51Z</time></trkpt><trkpt lat="43.40075486681183" lon="11.363897215270208"><ele>440.0</ele><time>2026-05-04T11:31:52Z</time></trkpt><trkpt lat="43.40077198678954" lon="11.364068216033697"><ele>440.0</ele><time>2026-05-04T11:31:53Z</time></trkpt><trkpt lat="43.40082287380688" lon="11.364229667280947"><ele>440.0</ele><time>2026-05-04T11:31:54Z</time></trkpt><trkpt lat="43.400892315285375" lon="11.3644072545372"><ele>440.0</ele><time>2026-05-04T11:31:55Z</time></trkpt><trkpt lat="43.40097268828603" lon="11.364606093698006"><ele>440.0</ele><time>2026-05-04T11:31:56Z</time></trkpt><trkpt lat="43.40103660406855" lon="11.364809440244084"><ele>440.0</ele><time>2026-05-04T11:31:57Z</time></trkpt><trkpt lat="43.40106088052577" lon="11.364989005135781"><ele>440.0</ele><time>2026-05-04T11:31:58.001Z</time></trkpt><trkpt lat="43.40105104958888" lon="11.365141005853308"><ele>440.0</ele><time>2026-05-04T11:31:59.001Z</time></trkpt><trkpt lat="43.40103717466411" lon="11.365275620477512"><ele>440.0</ele><time>2026-05-04T11:32:00.001Z</time></trkpt><trkpt lat="43.4011176121289" lon="11.365426703481004"><ele>440.25</ele><time>2026-05-04T11:32:01.001Z</time></trkpt><trkpt lat="43.40114480635689" lon="11.365568249933416"><ele>440.5</ele><time>2026-05-04T11:32:02.001Z</time></trkpt><trkpt lat="43.401174247997375" lon="11.365724315277557"><ele>440.75</ele><time>2026-05-04T11:32:03.001Z</time></trkpt><trkpt lat="43.4012023511891" lon="11.365880227348747"><ele>441.0</ele><time>2026-05-04T11:32:04.001Z</time></trkpt><trkpt lat="43.401223633931444" lon="11.366032141277088"><ele>441.0</ele><time>2026-05-04T11:32:05.001Z</time></trkpt><trkpt lat="43.40124915986555" lon="11.366198026908087"><ele>441.0</ele><time>2026-05-04T11:32:06.001Z</time></trkpt><trkpt lat="43.40128354896661" lon="11.366371058385083"><ele>441.0</ele><time>2026-05-04T11:32:07.001Z</time></trkpt><trkpt lat="43.40133531320828" lon="11.366569041703233"><ele>441.0</ele><time>2026-05-04T11:32:08.001Z</time></trkpt><trkpt lat="43.40140049580146" lon="11.36674723949669"><ele>439.0</ele><time>2026-05-04T11:32:09Z</time></trkpt><trkpt lat="43.40148020564705" lon="11.366922990512615"><ele>437.0</ele><time>2026-05-04T11:32:10Z</time></trkpt><trkpt lat="43.40154783258794" lon="11.367133132404824"><ele>435.0</ele><time>2026-05-04T11:32:11Z</time></trkpt><trkpt lat="43.40158924055048" lon="11.3673831574826"><ele>434.66666666666663</ele><time>2026-05-04T11:32:12Z</time></trkpt><trkpt lat="43.40161475047987" lon="11.367653382107656"><ele>434.3333333333333</ele><time>2026-05-04T11:32:13Z</time></trkpt><trkpt lat="43.401630551193854" lon="11.367932569550092"><ele>434.0</ele><time>2026-05-04T11:32:14Z</time></trkpt><trkpt lat="43.40165346878152" lon="11.36820041049585"><ele>433.3333333333333</ele><time>2026-05-04T11:32:15Z</time></trkpt><trkpt lat="43.401675512395826" lon="11.36845615461638"><ele>432.66666666666663</ele><time>2026-05-04T11:32:16Z</time></trkpt><trkpt lat="43.401695657769295" lon="11.368672593484243"><ele>432.0</ele><time>2026-05-04T11:32:17Z</time></trkpt><trkpt lat="43.40170796141296" lon="11.36889315782739"><ele>431.33333333333337</ele><time>2026-05-04T11:32:18Z</time></trkpt><trkpt lat="43.4016971653437" lon="11.36910053345721"><ele>430.6666666666667</ele><time>2026-05-04T11:32:19Z</time></trkpt><trkpt lat="43.40166618926266" lon="11.36932852681217"><ele>430.0</ele><time>2026-05-04T11:32:20Z</time></trkpt><trkpt lat="43.40162402170355" lon="11.369560867316812"><ele>429.6666666666667</ele><time>2026-05-04T11:32:21Z</time></trkpt><trkpt lat="43.401571239301795" lon="11.369812472587462"><ele>429.33333333333337</ele><time>2026-05-04T11:32:22Z</time></trkpt><trkpt lat="43.40150420184031" lon="11.370059560395989"><ele>429.0</ele><time>2026-05-04T11:32:23Z</time></trkpt><trkpt lat="43.40142518671445" lon="11.370287909743276"><ele>429.0</ele><time>2026-05-04T11:32:24Z</time></trkpt><trkpt lat="43.40135410926633" lon="11.370502192033138"><ele>429.0</ele><time>2026-05-04T11:32:25Z</time></trkpt><trkpt lat="43.40130280139142" lon="11.370722593450369"><ele>429.0</ele><time>2026-05-04T11:32:26Z</time></trkpt><trkpt lat="43.40127180195269" lon="11.370954669291844"><ele>429.33333333333337</ele><time>2026-05-04T11:32:27Z</time></trkpt><trkpt lat="43.40126050603027" lon="11.371220593543976"><ele>429.6666666666667</ele><time>2026-05-04T11:32:28Z</time></trkpt><trkpt lat="43.401266801909216" lon="11.37149687836289"><ele>430.0</ele><time>2026-05-04T11:32:29Z</time></trkpt><trkpt lat="43.401274357703905" lon="11.371789980619006"><ele>431.33333333333337</ele><time>2026-05-04T11:32:30Z</time></trkpt><trkpt lat="43.40128288123572" lon="11.372052382964963"><ele>432.66666666666663</ele><time>2026-05-04T11:32:31Z</time></trkpt><trkpt lat="43.40128189957686" lon="11.37227503044566"><ele>434.0</ele><time>2026-05-04T11:32:32Z</time></trkpt><trkpt lat="43.40124618652228" lon="11.372454800344487"><ele>434.5</ele><time>2026-05-04T11:32:33Z</time></trkpt><trkpt lat="43.40119564092032" lon="11.372630344287233"><ele>435.0</ele><time>2026-05-04T11:32:34Z</time></trkpt><trkpt lat="43.401113836332996" lon="11.37276532123252"><ele>435.5</ele><time>2026-05-04T11:32:35Z</time></trkpt><trkpt lat="43.4010116023372" lon="11.372892641922773"><ele>436.0</ele><time>2026-05-04T11:32:36Z</time></trkpt><trkpt lat="43.40088490115726" lon="11.37302773508572"><ele>436.5</ele><time>2026-05-04T11:32:37Z</time></trkpt><trkpt lat="43.40078916174691" lon="11.373200999980906"><ele>437.0</ele><time>2026-05-04T11:32:38Z</time></trkpt><trkpt lat="43.40069981585848" lon="11.3733540981223"><ele>437.5</ele><time>2026-05-04T11:32:39Z</time></trkpt><trkpt lat="43.400639320000344" lon="11.373528067344084"><ele>438.0</ele><time>2026-05-04T11:32:40Z</time></trkpt><trkpt lat="43.400606756674655" lon="11.373733594650338"><ele>438.25</ele><time>2026-05-04T11:32:41Z</time></trkpt><trkpt lat="43.40056383397565" lon="11.373951091978144"><ele>438.5</ele><time>2026-05-04T11:32:42Z</time></trkpt><trkpt lat="43.40051669689585" lon="11.374126925968325"><ele>438.75</ele><time>2026-05-04T11:32:43Z</time></trkpt><trkpt lat="43.400452470249746" lon="11.374289417648829"><ele>439.0</ele><time>2026-05-04T11:32:44Z</time></trkpt><trkpt lat="43.400349519624726" lon="11.374431077268262"><ele>439.0</ele><time>2026-05-04T11:32:45Z</time></trkpt><trkpt lat="43.40025731531157" lon="11.374614871889763"><ele>439.0</ele><time>2026-05-04T11:32:46Z</time></trkpt><trkpt lat="43.40014553377496" lon="11.374785478591734"><ele>439.0</ele><time>2026-05-04T11:32:47Z</time></trkpt><trkpt lat="43.400047221329395" lon="11.374956485331024"><ele>438.0</ele><time>2026-05-04T11:32:48Z</time></trkpt><trkpt lat="43.39994342796944" lon="11.3751373191675"><ele>437.0</ele><time>2026-05-04T11:32:49Z</time></trkpt><trkpt lat="43.39984052506642" lon="11.375318694196666"><ele>436.0</ele><time>2026-05-04T11:32:50Z</time></trkpt><trkpt lat="43.39973336831681" lon="11.375503272267732"><ele>433.33333333333337</ele><time>2026-05-04T11:32:51Z</time></trkpt><trkpt lat="43.399632078293045" lon="11.375673533220512"><ele>430.66666666666663</ele><time>2026-05-04T11:32:52Z</time></trkpt><trkpt lat="43.399527256079395" lon="11.375820554343456"><ele>428.0</ele><time>2026-05-04T11:32:53Z</time></trkpt><trkpt lat="43.3994066182251" lon="11.375927909527109"><ele>428.0</ele><time>2026-05-04T11:32:54Z</time></trkpt><trkpt lat="43.399282150602346" lon="11.375938490459424"><ele>428.0</ele><time>2026-05-04T11:32:55Z</time></trkpt><trkpt lat="43.39914463159635" lon="11.37597586406716"><ele>428.0</ele><time>2026-05-04T11:32:56Z</time></trkpt><trkpt lat="43.39898570475966" lon="11.376018243066781"><ele>428.0</ele><time>2026-05-04T11:32:57Z</time></trkpt><trkpt lat="43.398828909555355" lon="11.376080019662481"><ele>426.3333333333333</ele><time>2026-05-04T11:32:58Z</time></trkpt><trkpt lat="43.39867440902393" lon="11.376163038689382"><ele>424.66666666666663</ele><time>2026-05-04T11:32:59Z</time></trkpt><trkpt lat="43.39853281027309" lon="11.37627155788441"><ele>423.0</ele><time>2026-05-04T11:33:00Z</time></trkpt><trkpt lat="43.39839547283427" lon="11.37640032527743"><ele>422.33333333333337</ele><time>2026-05-04T11:33:01Z</time></trkpt><trkpt lat="43.39824870785212" lon="11.376555712701654"><ele>421.6666666666667</ele><time>2026-05-04T11:33:02Z</time></trkpt><trkpt lat="43.39810260440466" lon="11.376720124647475"><ele>421.0</ele><time>2026-05-04T11:33:03Z</time></trkpt><trkpt lat="43.39796887248027" lon="11.376894569661967"><ele>420.33333333333337</ele><time>2026-05-04T11:33:04Z</time></trkpt><trkpt lat="43.39785198580207" lon="11.37709110007313"><ele>419.66666666666663</ele><time>2026-05-04T11:33:05Z</time></trkpt><trkpt lat="43.39772078224208" lon="11.37727262577862"><ele>419.0</ele><time>2026-05-04T11:33:06Z</time></trkpt><trkpt lat="43.397598140170395" lon="11.377461434566495"><ele>419.0</ele><time>2026-05-04T11:33:07Z</time></trkpt><trkpt lat="43.39747910796862" lon="11.377657005000042"><ele>419.0</ele><time>2026-05-04T11:33:08Z</time></trkpt><trkpt lat="43.39736298766099" lon="11.377856348142247"><ele>419.0</ele><time>2026-05-04T11:33:09Z</time></trkpt><trkpt lat="43.39725799325532" lon="11.37803647983967"><ele>418.75</ele><time>2026-05-04T11:33:10Z</time></trkpt><trkpt lat="43.397163207583574" lon="11.37820987522622"><ele>418.5</ele><time>2026-05-04T11:33:11Z</time></trkpt><trkpt lat="43.39707631098382" lon="11.378366096973402"><ele>418.25</ele><time>2026-05-04T11:33:12Z</time></trkpt><trkpt lat="43.39699384653137" lon="11.37851452425422"><ele>418.0</ele><time>2026-05-04T11:33:13Z</time></trkpt><trkpt lat="43.396923571861855" lon="11.378665901465007"><ele>418.0</ele><time>2026-05-04T11:33:14Z</time></trkpt><trkpt lat="43.396862395283065" lon="11.378839456097115"><ele>418.0</ele><time>2026-05-04T11:33:15Z</time></trkpt><trkpt lat="43.39681763067772" lon="11.37903946603768"><ele>418.0</ele><time>2026-05-04T11:33:16Z</time></trkpt><trkpt lat="43.39677635510571" lon="11.379262036644054"><ele>416.6666666666667</ele><time>2026-05-04T11:33:17Z</time></trkpt><trkpt lat="43.39673108712787" lon="11.379505819853765"><ele>415.33333333333337</ele><time>2026-05-04T11:33:18Z</time></trkpt><trkpt lat="43.39667466260358" lon="11.379798753867343"><ele>414.0</ele><time>2026-05-04T11:33:19Z</time></trkpt><trkpt lat="43.396613543576585" lon="11.380108955843768"><ele>412.33333333333337</ele><time>2026-05-04T11:33:20Z</time></trkpt><trkpt lat="43.39656148538683" lon="11.380357866412654"><ele>410.6666666666667</ele><time>2026-05-04T11:33:21Z</time></trkpt><trkpt lat="43.396495669134175" lon="11.380562718161796"><ele>409.0</ele><time>2026-05-04T11:33:22Z</time></trkpt><trkpt lat="43.39638222353804" lon="11.380724792611623"><ele>410.0</ele><time>2026-05-04T11:33:23Z</time></trkpt><trkpt lat="43.39625335288284" lon="11.380871185831792"><ele>411.0</ele><time>2026-05-04T11:33:24Z</time></trkpt><trkpt lat="43.396118215408634" lon="11.380973691965732"><ele>412.0</ele><time>2026-05-04T11:33:25Z</time></trkpt><trkpt lat="43.39597161798292" lon="11.381020851075267"><ele>412.0</ele><time>2026-05-04T11:33:26Z</time></trkpt><trkpt lat="43.39580906797835" lon="11.381018940789177"><ele>412.0</ele><time>2026-05-04T11:33:27Z</time></trkpt><trkpt lat="43.39563459760448" lon="11.381004402489687"><ele>412.0</ele><time>2026-05-04T11:33:28Z</time></trkpt><trkpt lat="43.39544964221341" lon="11.380996702647804"><ele>413.33333333333337</ele><time>2026-05-04T11:33:29Z</time></trkpt><trkpt lat="43.39525632923474" lon="11.380942227421624"><ele>414.66666666666663</ele><time>2026-05-04T11:33:30Z</time></trkpt><trkpt lat="43.39504831184966" lon="11.380926000651135"><ele>416.0</ele><time>2026-05-04T11:33:31Z</time></trkpt><trkpt lat="43.394837019362335" lon="11.38097364424294"><ele>415.5</ele><time>2026-05-04T11:33:32Z</time></trkpt><trkpt lat="43.39461378508146" lon="11.38100489295569"><ele>415.0</ele><time>2026-05-04T11:33:33Z</time></trkpt><trkpt lat="43.3943829317529" lon="11.38106238491332"><ele>415.0</ele><time>2026-05-04T11:33:34Z</time></trkpt><trkpt lat="43.39414862114369" lon="11.38114449530499"><ele>415.0</ele><time>2026-05-04T11:33:35Z</time></trkpt><trkpt lat="43.393944218047295" lon="11.38123341830066"><ele>417.0</ele><time>2026-05-04T11:33:36Z</time></trkpt><trkpt lat="43.39375115684378" lon="11.381346025184984"><ele>419.0</ele><time>2026-05-04T11:33:37Z</time></trkpt><trkpt lat="43.3935617765874" lon="11.38147911798664"><ele>421.0</ele><time>2026-05-04T11:33:38Z</time></trkpt><trkpt lat="43.39336112378712" lon="11.381629742270718"><ele>421.0</ele><time>2026-05-04T11:33:39Z</time></trkpt><trkpt lat="43.39315245906116" lon="11.381770974950776"><ele>421.0</ele><time>2026-05-04T11:33:40Z</time></trkpt><trkpt lat="43.39294360995035" lon="11.381939185093417"><ele>423.0</ele><time>2026-05-04T11:33:41Z</time></trkpt><trkpt lat="43.39273767694989" lon="11.382106215487475"><ele>425.0</ele><time>2026-05-04T11:33:42Z</time></trkpt><trkpt lat="43.392544160814865" lon="11.382271318853414"><ele>425.0</ele><time>2026-05-04T11:33:43Z</time></trkpt><trkpt lat="43.392384370281135" lon="11.382424857814826"><ele>425.0</ele><time>2026-05-04T11:33:44Z</time></trkpt><trkpt lat="43.39224312452352" lon="11.38259676334905"><ele>425.0</ele><time>2026-05-04T11:33:45Z</time></trkpt><trkpt lat="43.392120182081676" lon="11.382773628820992"><ele>425.0</ele><time>2026-05-04T11:33:46Z</time></trkpt><trkpt lat="43.39203420800742" lon="11.382952023325927"><ele>425.0</ele><time>2026-05-04T11:33:47Z</time></trkpt><trkpt lat="43.39197390663916" lon="11.383152287362675"><ele>425.0</ele><time>2026-05-04T11:33:48Z</time></trkpt><trkpt lat="43.391944023903164" lon="11.383380701404752"><ele>425.0</ele><time>2026-05-04T11:33:49Z</time></trkpt><trkpt lat="43.39192958656563" lon="11.383640653368905"><ele>425.0</ele><time>2026-05-04T11:33:50Z</time></trkpt><trkpt lat="43.391868038953916" lon="11.383886971705929"><ele>425.0</ele><time>2026-05-04T11:33:51Z</time></trkpt><trkpt lat="43.39177893491095" lon="11.384093216503246"><ele>425.0</ele><time>2026-05-04T11:33:52Z</time></trkpt><trkpt lat="43.391662559302354" lon="11.384228942689914"><ele>425.0</ele><time>2026-05-04T11:33:53Z</time></trkpt><trkpt lat="43.39152512270075" lon="11.384357055334021"><ele>425.0</ele><time>2026-05-04T11:33:54Z</time></trkpt><trkpt lat="43.391372517165" lon="11.384490254285035"><ele>424.66666666666663</ele><time>2026-05-04T11:33:55Z</time></trkpt><trkpt lat="43.39121045866814" lon="11.384661097507504"><ele>424.33333333333337</ele><time>2026-05-04T11:33:56Z</time></trkpt><trkpt lat="43.39103365300987" lon="11.384818641419882"><ele>424.0</ele><time>2026-05-04T11:33:57Z</time></trkpt><trkpt lat="43.39084723795716" lon="11.384988000683238"><ele>424.0</ele><time>2026-05-04T11:33:58Z</time></trkpt><trkpt lat="43.390653885248376" lon="11.385156184611917"><ele>424.0</ele><time>2026-05-04T11:33:59Z</time></trkpt><trkpt lat="43.39045819490034" lon="11.385299599363124"><ele>423.6666666666667</ele><time>2026-05-04T11:34:00Z</time></trkpt><trkpt lat="43.3902818965537" lon="11.385415210511379"><ele>423.33333333333337</ele><time>2026-05-04T11:34:01Z</time></trkpt><trkpt lat="43.39012528053444" lon="11.385515133125287"><ele>423.0</ele><time>2026-05-04T11:34:02Z</time></trkpt><trkpt lat="43.389987903074534" lon="11.38560608100974"><ele>422.75</ele><time>2026-05-04T11:34:03Z</time></trkpt><trkpt lat="43.389880353239626" lon="11.385684463521367"><ele>422.5</ele><time>2026-05-04T11:34:04Z</time></trkpt><trkpt lat="43.38979342606141" lon="11.385742594742439"><ele>422.25</ele><time>2026-05-04T11:34:05Z</time></trkpt><trkpt lat="43.38975256329618" lon="11.38589747357494"><ele>422.0</ele><time>2026-05-04T11:34:06Z</time></trkpt><trkpt lat="43.38972068765155" lon="11.38608192790216"><ele>423.0</ele><time>2026-05-04T11:34:07Z</time></trkpt><trkpt lat="43.3896553269695" lon="11.386301824233463"><ele>424.0</ele><time>2026-05-04T11:34:08Z</time></trkpt><trkpt lat="43.38955176229846" lon="11.386551938367004"><ele>425.0</ele><time>2026-05-04T11:34:09.001Z</time></trkpt><trkpt lat="43.38944053757084" lon="11.386781242663856"><ele>425.0</ele><time>2026-05-04T11:34:10.001Z</time></trkpt><trkpt lat="43.3893362230558" lon="11.38697797505121"><ele>425.0</ele><time>2026-05-04T11:34:11.001Z</time></trkpt><trkpt lat="43.389237586273204" lon="11.387170325749723"><ele>425.0</ele><time>2026-05-04T11:34:12.001Z</time></trkpt><trkpt lat="43.38913601208539" lon="11.387377405717267"><ele>424.0</ele><time>2026-05-04T11:34:13.001Z</time></trkpt><trkpt lat="43.38903639598743" lon="11.387604666613678"><ele>423.0</ele><time>2026-05-04T11:34:14.001Z</time></trkpt><trkpt lat="43.38894730420659" lon="11.387845148265223"><ele>422.0</ele><time>2026-05-04T11:34:15Z</time></trkpt><trkpt lat="43.38884675394238" lon="11.388103915745418"><ele>425.5</ele><time>2026-05-04T11:34:16Z</time></trkpt><trkpt lat="43.38872738598873" lon="11.38837073423126"><ele>429.0</ele><time>2026-05-04T11:34:17Z</time></trkpt><trkpt lat="43.38860953443863" lon="11.388638233072168"><ele>428.33333333333337</ele><time>2026-05-04T11:34:18Z</time></trkpt><trkpt lat="43.38849895341682" lon="11.388885450912817"><ele>427.6666666666667</ele><time>2026-05-04T11:34:19Z</time></trkpt><trkpt lat="43.3883912116786" lon="11.389123011241995"><ele>427.0</ele><time>2026-05-04T11:34:20Z</time></trkpt><trkpt lat="43.388298228877225" lon="11.38933824019725"><ele>427.0</ele><time>2026-05-04T11:34:21Z</time></trkpt><trkpt lat="43.38820588042121" lon="11.389570707964216"><ele>427.0</ele><time>2026-05-04T11:34:22Z</time></trkpt><trkpt lat="43.38814620437328" lon="11.389786168485672"><ele>427.0</ele><time>2026-05-04T11:34:23Z</time></trkpt><trkpt lat="43.38810505931412" lon="11.389996003097105"><ele>427.25</ele><time>2026-05-04T11:34:24Z</time></trkpt><trkpt lat="43.38808338281028" lon="11.390186248479415"><ele>427.5</ele><time>2026-05-04T11:34:25Z</time></trkpt><trkpt lat="43.38805792362531" lon="11.39035969063995"><ele>427.75</ele><time>2026-05-04T11:34:26Z</time></trkpt><trkpt lat="43.38801029710606" lon="11.390504584013247"><ele>428.0</ele><time>2026-05-04T11:34:27Z</time></trkpt><trkpt lat="43.38793186046204" lon="11.39063485667286"><ele>430.66666666666663</ele><time>2026-05-04T11:34:28Z</time></trkpt><trkpt lat="43.38782603676837" lon="11.390773929329617"><ele>433.33333333333337</ele><time>2026-05-04T11:34:29Z</time></trkpt><trkpt lat="43.387707354797186" lon="11.390934308844724"><ele>436.0</ele><time>2026-05-04T11:34:30Z</time></trkpt><trkpt lat="43.38761404178336" lon="11.391080845310443"><ele>436.0</ele><time>2026-05-04T11:34:31Z</time></trkpt><trkpt lat="43.38753955933073" lon="11.391200232215425"><ele>436.0</ele><time>2026-05-04T11:34:32Z</time></trkpt><trkpt lat="43.387467320262246" lon="11.391312024094475"><ele>436.0</ele><time>2026-05-04T11:34:33Z</time></trkpt><trkpt lat="43.38739587754937" lon="11.391422920287102"><ele>436.0</ele><time>2026-05-04T11:34:34Z</time></trkpt><trkpt lat="43.38732289936192" lon="11.39153321378749"><ele>436.0</ele><time>2026-05-04T11:34:35Z</time></trkpt><trkpt lat="43.38725298341688" lon="11.391642770524742"><ele>435.6</ele><time>2026-05-04T11:34:36Z</time></trkpt><trkpt lat="43.387186730649205" lon="11.391752322780958"><ele>435.20000000000005</ele><time>2026-05-04T11:34:37Z</time></trkpt><trkpt lat="43.387121362720485" lon="11.391857672883582"><ele>434.79999999999995</ele><time>2026-05-04T11:34:38Z</time></trkpt><trkpt lat="43.38704875343342" lon="11.391967618901006"><ele>434.4</ele><time>2026-05-04T11:34:39Z</time></trkpt><trkpt lat="43.38695786374779" lon="11.392101317229253"><ele>434.0</ele><time>2026-05-04T11:34:40Z</time></trkpt><trkpt lat="43.38684714154572" lon="11.392239740235429"><ele>433.0</ele><time>2026-05-04T11:34:41Z</time></trkpt><trkpt lat="43.38671778052843" lon="11.392369882837565"><ele>432.0</ele><time>2026-05-04T11:34:42Z</time></trkpt><trkpt lat="43.38656999245844" lon="11.39249353111645"><ele>431.0</ele><time>2026-05-04T11:34:43Z</time></trkpt><trkpt lat="43.3864271746749" lon="11.392624501066189"><ele>430.0</ele><time>2026-05-04T11:34:44Z</time></trkpt><trkpt lat="43.38629746903418" lon="11.392772138312925"><ele>429.0</ele><time>2026-05-04T11:34:45Z</time></trkpt><trkpt lat="43.38617148521328" lon="11.39294428104867"><ele>428.0</ele><time>2026-05-04T11:34:46Z</time></trkpt><trkpt lat="43.386041975649405" lon="11.393140735881166"><ele>428.0</ele><time>2026-05-04T11:34:47Z</time></trkpt><trkpt lat="43.38590175045893" lon="11.393349929079669"><ele>428.0</ele><time>2026-05-04T11:34:48Z</time></trkpt><trkpt lat="43.38577218439115" lon="11.393540910429099"><ele>428.0</ele><time>2026-05-04T11:34:49Z</time></trkpt><trkpt lat="43.385632837282415" lon="11.393711650046306"><ele>427.0</ele><time>2026-05-04T11:34:50Z</time></trkpt><trkpt lat="43.385509321835684" lon="11.393919481076574"><ele>426.0</ele><time>2026-05-04T11:34:51Z</time></trkpt><trkpt lat="43.38537513247158" lon="11.394113533342628"><ele>425.0</ele><time>2026-05-04T11:34:52Z</time></trkpt><trkpt lat="43.385248147204834" lon="11.394303312985034"><ele>425.0</ele><time>2026-05-04T11:34:53Z</time></trkpt><trkpt lat="43.38512780132872" lon="11.39448355877942"><ele>425.0</ele><time>2026-05-04T11:34:54Z</time></trkpt><trkpt lat="43.385008391748876" lon="11.394633492199116"><ele>425.0</ele><time>2026-05-04T11:34:55Z</time></trkpt><trkpt lat="43.384908803293925" lon="11.394821086930428"><ele>424.3333333333333</ele><time>2026-05-04T11:34:56Z</time></trkpt><trkpt lat="43.38480068852007" lon="11.394975347602685"><ele>423.66666666666663</ele><time>2026-05-04T11:34:57Z</time></trkpt><trkpt lat="43.38469498090234" lon="11.395127144318302"><ele>423.0</ele><time>2026-05-04T11:34:58Z</time></trkpt><trkpt lat="43.38457475611211" lon="11.395257915855487"><ele>422.75</ele><time>2026-05-04T11:34:59Z</time></trkpt><trkpt lat="43.38443974160526" lon="11.395326013499224"><ele>422.5</ele><time>2026-05-04T11:35:00Z</time></trkpt><trkpt lat="43.38430446326776" lon="11.395381513387749"><ele>422.25</ele><time>2026-05-04T11:35:01Z</time></trkpt><trkpt lat="43.38415812172101" lon="11.395437982711059"><ele>422.0</ele><time>2026-05-04T11:35:02Z</time></trkpt><trkpt lat="43.384000053226885" lon="11.395520154180497"><ele>420.66666666666663</ele><time>2026-05-04T11:35:03Z</time></trkpt><trkpt lat="43.38383088227044" lon="11.395584070774701"><ele>419.33333333333337</ele><time>2026-05-04T11:35:04Z</time></trkpt><trkpt lat="43.38364879471824" lon="11.395655097752314"><ele>418.0</ele><time>2026-05-04T11:35:05Z</time></trkpt><trkpt lat="43.383456108295384" lon="11.395729389779289"><ele>418.0</ele><time>2026-05-04T11:35:06Z</time></trkpt><trkpt lat="43.38325628795366" lon="11.395812232145326"><ele>418.0</ele><time>2026-05-04T11:35:07Z</time></trkpt><trkpt lat="43.38306272178295" lon="11.395893493991464"><ele>418.0</ele><time>2026-05-04T11:35:08Z</time></trkpt><trkpt lat="43.3828868985479" lon="11.395936582613174"><ele>417.0</ele><time>2026-05-04T11:35:09Z</time></trkpt><trkpt lat="43.38273661837654" lon="11.395988441233609"><ele>416.0</ele><time>2026-05-04T11:35:10Z</time></trkpt><trkpt lat="43.382607263086626" lon="11.396026608551761"><ele>415.0</ele><time>2026-05-04T11:35:11Z</time></trkpt><trkpt lat="43.38248944249169" lon="11.396059386620061"><ele>414.0</ele><time>2026-05-04T11:35:12Z</time></trkpt><trkpt lat="43.382381081475216" lon="11.396105850009183"><ele>414.0</ele><time>2026-05-04T11:35:13Z</time></trkpt><trkpt lat="43.382280646309134" lon="11.396129096013986"><ele>414.0</ele><time>2026-05-04T11:35:14Z</time></trkpt><trkpt lat="43.382186574411904" lon="11.396128889200066"><ele>414.0</ele><time>2026-05-04T11:35:15Z</time></trkpt><trkpt lat="43.38208470276976" lon="11.396147254506584"><ele>414.0</ele><time>2026-05-04T11:35:16Z</time></trkpt><trkpt lat="43.38196200101358" lon="11.396169375429388"><ele>414.0</ele><time>2026-05-04T11:35:17Z</time></trkpt><trkpt lat="43.38181828205836" lon="11.396190177613454"><ele>412.66666666666663</ele><time>2026-05-04T11:35:18Z</time></trkpt><trkpt lat="43.381651329808506" lon="11.396215434489484"><ele>411.3333333333333</ele><time>2026-05-04T11:35:19Z</time></trkpt><trkpt lat="43.381486599238116" lon="11.396238314458158"><ele>410.0</ele><time>2026-05-04T11:35:20Z</time></trkpt><trkpt lat="43.38130557558203" lon="11.396247871898744"><ele>409.3333333333333</ele><time>2026-05-04T11:35:21Z</time></trkpt><trkpt lat="43.38111934197493" lon="11.396247871896422"><ele>408.66666666666663</ele><time>2026-05-04T11:35:22Z</time></trkpt><trkpt lat="43.3809380924528" lon="11.39626847699833"><ele>408.0</ele><time>2026-05-04T11:35:23Z</time></trkpt><trkpt lat="43.380748271482204" lon="11.396283869279609"><ele>408.0</ele><time>2026-05-04T11:35:24Z</time></trkpt><trkpt lat="43.380550753859694" lon="11.396324967620592"><ele>408.0</ele><time>2026-05-04T11:35:25Z</time></trkpt><trkpt lat="43.38034454833272" lon="11.396380766334547"><ele>408.0</ele><time>2026-05-04T11:35:26Z</time></trkpt><trkpt lat="43.38011750428063" lon="11.396437823771256"><ele>406.66666666666663</ele><time>2026-05-04T11:35:27Z</time></trkpt><trkpt lat="43.379904551516255" lon="11.396496880426474"><ele>405.3333333333333</ele><time>2026-05-04T11:35:28Z</time></trkpt><trkpt lat="43.37968391889528" lon="11.396551271019355"><ele>404.0</ele><time>2026-05-04T11:35:29Z</time></trkpt><trkpt lat="43.37947912164403" lon="11.39660227523477"><ele>402.66666666666663</ele><time>2026-05-04T11:35:30Z</time></trkpt><trkpt lat="43.379276412632336" lon="11.396667696980456"><ele>401.33333333333337</ele><time>2026-05-04T11:35:31Z</time></trkpt><trkpt lat="43.379064183931945" lon="11.39671827268262"><ele>400.0</ele><time>2026-05-04T11:35:32Z</time></trkpt><trkpt lat="43.378848328540165" lon="11.39679052923261"><ele>397.0</ele><time>2026-05-04T11:35:33Z</time></trkpt><trkpt lat="43.378622853206274" lon="11.396866006054266"><ele>394.0</ele><time>2026-05-04T11:35:34Z</time></trkpt><trkpt lat="43.37841078223511" lon="11.39693699577286"><ele>394.0</ele><time>2026-05-04T11:35:35Z</time></trkpt><trkpt lat="43.37821046343942" lon="11.397003096986838"><ele>394.0</ele><time>2026-05-04T11:35:36Z</time></trkpt><trkpt lat="43.378036229928014" lon="11.39706000572237"><ele>394.0</ele><time>2026-05-04T11:35:37Z</time></trkpt><trkpt lat="43.3778681262026" lon="11.397100530902632"><ele>392.33333333333337</ele><time>2026-05-04T11:35:38Z</time></trkpt><trkpt lat="43.37771831901807" lon="11.39713455480367"><ele>390.66666666666663</ele><time>2026-05-04T11:35:39Z</time></trkpt><trkpt lat="43.37757124036958" lon="11.397162311564628"><ele>389.0</ele><time>2026-05-04T11:35:40Z</time></trkpt><trkpt lat="43.37741236488187" lon="11.397232530512168"><ele>388.3333333333333</ele><time>2026-05-04T11:35:41Z</time></trkpt><trkpt lat="43.37726034025765" lon="11.397357651093806"><ele>387.66666666666663</ele><time>2026-05-04T11:35:42Z</time></trkpt><trkpt lat="43.377102439362865" lon="11.397511670012763"><ele>387.0</ele><time>2026-05-04T11:35:43Z</time></trkpt><trkpt lat="43.376941935444044" lon="11.397654916748229"><ele>387.0</ele><time>2026-05-04T11:35:44Z</time></trkpt><trkpt lat="43.376800591075074" lon="11.397804295497377"><ele>387.0</ele><time>2026-05-04T11:35:45Z</time></trkpt><trkpt lat="43.37666581624371" lon="11.397941171384703"><ele>387.0</ele><time>2026-05-04T11:35:46Z</time></trkpt><trkpt lat="43.3764999633469" lon="11.39805944250423"><ele>385.6666666666667</ele><time>2026-05-04T11:35:47Z</time></trkpt><trkpt lat="43.376304635835815" lon="11.398139866520077"><ele>384.33333333333337</ele><time>2026-05-04T11:35:48Z</time></trkpt><trkpt lat="43.376098491647994" lon="11.398211573445293"><ele>383.0</ele><time>2026-05-04T11:35:49Z</time></trkpt><trkpt lat="43.37588804010369" lon="11.398287238098817"><ele>383.0</ele><time>2026-05-04T11:35:50Z</time></trkpt><trkpt lat="43.37567855172245" lon="11.39836717888875"><ele>383.0</ele><time>2026-05-04T11:35:51Z</time></trkpt><trkpt lat="43.37548819772152" lon="11.398456423993345"><ele>383.0</ele><time>2026-05-04T11:35:52Z</time></trkpt><trkpt lat="43.375313335561046" lon="11.398580877080775"><ele>383.0</ele><time>2026-05-04T11:35:53Z</time></trkpt><trkpt lat="43.37515731052142" lon="11.398739568359218"><ele>383.0</ele><time>2026-05-04T11:35:54.001Z</time></trkpt><trkpt lat="43.37499687517978" lon="11.398904297329183"><ele>383.0</ele><time>2026-05-04T11:35:55.001Z</time></trkpt><trkpt lat="43.37483649021494" lon="11.399091354895676"><ele>383.6666666666667</ele><time>2026-05-04T11:35:56.001Z</time></trkpt><trkpt lat="43.374671076976846" lon="11.399285118067285"><ele>384.33333333333337</ele><time>2026-05-04T11:35:57.001Z</time></trkpt><trkpt lat="43.37450280052379" lon="11.399470036442349"><ele>385.0</ele><time>2026-05-04T11:35:58.001Z</time></trkpt><trkpt lat="43.37433015681802" lon="11.399645255452933"><ele>384.33333333333337</ele><time>2026-05-04T11:35:59.001Z</time></trkpt><trkpt lat="43.37416306585449" lon="11.399789039761348"><ele>383.6666666666667</ele><time>2026-05-04T11:36:00.001Z</time></trkpt><trkpt lat="43.37399352954316" lon="11.399869708245587"><ele>383.0</ele><time>2026-05-04T11:36:01.001Z</time></trkpt><trkpt lat="43.37383281129849" lon="11.39995065039127"><ele>383.0</ele><time>2026-05-04T11:36:02.001Z</time></trkpt><trkpt lat="43.37365071040864" lon="11.400047999172555"><ele>383.0</ele><time>2026-05-04T11:36:03.001Z</time></trkpt><trkpt lat="43.373465874103644" lon="11.400120329428505"><ele>383.0</ele><time>2026-05-04T11:36:04.001Z</time></trkpt><trkpt lat="43.37330358120373" lon="11.400204021635634"><ele>383.0</ele><time>2026-05-04T11:36:05.001Z</time></trkpt><trkpt lat="43.373157479048956" lon="11.400303206589276"><ele>383.0</ele><time>2026-05-04T11:36:06.001Z</time></trkpt><trkpt lat="43.37301073699763" lon="11.400436771047364"><ele>383.0</ele><time>2026-05-04T11:36:07.001Z</time></trkpt><trkpt lat="43.37286824284508" lon="11.400595886637213"><ele>384.0</ele><time>2026-05-04T11:36:08.001Z</time></trkpt><trkpt lat="43.37272018505287" lon="11.400772566847243"><ele>385.0</ele><time>2026-05-04T11:36:09.001Z</time></trkpt><trkpt lat="43.37256584320409" lon="11.400918555770767"><ele>386.0</ele><time>2026-05-04T11:36:10.001Z</time></trkpt><trkpt lat="43.37243371412041" lon="11.401066844106873"><ele>386.0</ele><time>2026-05-04T11:36:11.001Z</time></trkpt><trkpt lat="43.372305155281076" lon="11.401227753717107"><ele>386.0</ele><time>2026-05-04T11:36:12.001Z</time></trkpt><trkpt lat="43.37216950862728" lon="11.40135578528765"><ele>386.0</ele><time>2026-05-04T11:36:13.001Z</time></trkpt><trkpt lat="43.37205466952674" lon="11.401472175707156"><ele>384.75</ele><time>2026-05-04T11:36:14.001Z</time></trkpt><trkpt lat="43.37195985111885" lon="11.401568919195359"><ele>383.5</ele><time>2026-05-04T11:36:15.001Z</time></trkpt><trkpt lat="43.37188425642368" lon="11.401674550460179"><ele>382.25</ele><time>2026-05-04T11:36:16.001Z</time></trkpt><trkpt lat="43.371839053194726" lon="11.401829183793907"><ele>381.0</ele><time>2026-05-04T11:36:17.001Z</time></trkpt><trkpt lat="43.37181897217761" lon="11.402017341310609"><ele>380.5</ele><time>2026-05-04T11:36:18.001Z</time></trkpt><trkpt lat="43.371811066009855" lon="11.402213991505162"><ele>380.0</ele><time>2026-05-04T11:36:19.001Z</time></trkpt><trkpt lat="43.37175953299097" lon="11.40236384705405"><ele>379.5</ele><time>2026-05-04T11:36:20Z</time></trkpt><trkpt lat="43.37169041195771" lon="11.402529495781712"><ele>379.0</ele><time>2026-05-04T11:36:21Z</time></trkpt><trkpt lat="43.37161715289245" lon="11.402725833113038"><ele>379.0</ele><time>2026-05-04T11:36:22Z</time></trkpt><trkpt lat="43.37153427063934" lon="11.402919376511559"><ele>379.0</ele><time>2026-05-04T11:36:23Z</time></trkpt><trkpt lat="43.37145746306438" lon="11.403095110328437"><ele>379.0</ele><time>2026-05-04T11:36:24Z</time></trkpt><trkpt lat="43.371388999481454" lon="11.403272027659758"><ele>376.25</ele><time>2026-05-04T11:36:25Z</time></trkpt><trkpt lat="43.37132207344627" lon="11.403437713802496"><ele>373.5</ele><time>2026-05-04T11:36:26Z</time></trkpt><trkpt lat="43.37125379671687" lon="11.403599973714059"><ele>370.75</ele><time>2026-05-04T11:36:27Z</time></trkpt><trkpt lat="43.37117869006043" lon="11.403780297088385"><ele>368.0</ele><time>2026-05-04T11:36:28Z</time></trkpt><trkpt lat="43.371107466429535" lon="11.403954851867192"><ele>367.5</ele><time>2026-05-04T11:36:29Z</time></trkpt><trkpt lat="43.37103497020397" lon="11.404115365533052"><ele>367.0</ele><time>2026-05-04T11:36:30Z</time></trkpt><trkpt lat="43.37096450260003" lon="11.40424203993219"><ele>366.5</ele><time>2026-05-04T11:36:31Z</time></trkpt><trkpt lat="43.37088309039298" lon="11.40434831248111"><ele>366.0</ele><time>2026-05-04T11:36:32Z</time></trkpt><trkpt lat="43.37078705892553" lon="11.404425164103007"><ele>366.0</ele><time>2026-05-04T11:36:33Z</time></trkpt><trkpt lat="43.37067079269223" lon="11.404448624466594"><ele>366.0</ele><time>2026-05-04T11:36:34Z</time></trkpt><trkpt lat="43.370545578417406" lon="11.404473124683523"><ele>366.0</ele><time>2026-05-04T11:36:35Z</time></trkpt><trkpt lat="43.370408032006196" lon="11.404485208013245"><ele>366.0</ele><time>2026-05-04T11:36:36Z</time></trkpt><trkpt lat="43.37025570777447" lon="11.404479620004215"><ele>364.3333333333333</ele><time>2026-05-04T11:36:37Z</time></trkpt><trkpt lat="43.37008826397108" lon="11.40447036925539"><ele>362.66666666666663</ele><time>2026-05-04T11:36:38Z</time></trkpt><trkpt lat="43.36991146910553" lon="11.404460601884812"><ele>361.0</ele><time>2026-05-04T11:36:39Z</time></trkpt><trkpt lat="43.36972078335196" lon="11.40445051255543"><ele>359.0</ele><time>2026-05-04T11:36:40Z</time></trkpt><trkpt lat="43.36952561539961" lon="11.40444444468453"><ele>357.0</ele><time>2026-05-04T11:36:41Z</time></trkpt><trkpt lat="43.36934180776344" lon="11.404435572437189"><ele>355.0</ele><time>2026-05-04T11:36:42Z</time></trkpt><trkpt lat="43.36917012343997" lon="11.404473200432852"><ele>355.0</ele><time>2026-05-04T11:36:43Z</time></trkpt><trkpt lat="43.36900830740865" lon="11.404487878774846"><ele>355.0</ele><time>2026-05-04T11:36:44Z</time></trkpt><trkpt lat="43.36885827910645" lon="11.40449558104223"><ele>355.0</ele><time>2026-05-04T11:36:45Z</time></trkpt><trkpt lat="43.36870765017856" lon="11.404478788693293"><ele>354.25</ele><time>2026-05-04T11:36:46Z</time></trkpt><trkpt lat="43.368571918621456" lon="11.404464610874864"><ele>353.5</ele><time>2026-05-04T11:36:47Z</time></trkpt><trkpt lat="43.368436568196906" lon="11.404441091827767"><ele>352.75</ele><time>2026-05-04T11:36:48Z</time></trkpt><trkpt lat="43.368297639869176" lon="11.404417093528957"><ele>352.0</ele><time>2026-05-04T11:36:49Z</time></trkpt><trkpt lat="43.368150096001585" lon="11.404410180751217"><ele>351.25</ele><time>2026-05-04T11:36:50Z</time></trkpt><trkpt lat="43.368004257381806" lon="11.404382110369014"><ele>350.5</ele><time>2026-05-04T11:36:51Z</time></trkpt><trkpt lat="43.367855906589156" lon="11.404336178360483"><ele>349.75</ele><time>2026-05-04T11:36:52Z</time></trkpt><trkpt lat="43.367710981806205" lon="11.404310523920346"><ele>349.0</ele><time>2026-05-04T11:36:53Z</time></trkpt><trkpt lat="43.36756748812106" lon="11.404308496462317"><ele>349.0</ele><time>2026-05-04T11:36:54Z</time></trkpt><trkpt lat="43.36742970669293" lon="11.404282732464237"><ele>349.0</ele><time>2026-05-04T11:36:55Z</time></trkpt><trkpt lat="43.36729709475034" lon="11.40425639780617"><ele>349.0</ele><time>2026-05-04T11:36:56Z</time></trkpt><trkpt lat="43.367164859405214" lon="11.404262844275095"><ele>349.0</ele><time>2026-05-04T11:36:57Z</time></trkpt><trkpt lat="43.367035431794214" lon="11.40427288255491"><ele>349.0</ele><time>2026-05-04T11:36:58Z</time></trkpt><trkpt lat="43.36690803054872" lon="11.404311731694259"><ele>349.0</ele><time>2026-05-04T11:36:59Z</time></trkpt><trkpt lat="43.36677806972823" lon="11.404388288969926"><ele>349.0</ele><time>2026-05-04T11:37:00Z</time></trkpt><trkpt lat="43.36665878022283" lon="11.404501507641397"><ele>349.0</ele><time>2026-05-04T11:37:01Z</time></trkpt><trkpt lat="43.366548682392406" lon="11.40464011758861"><ele>348.75</ele><time>2026-05-04T11:37:02Z</time></trkpt><trkpt lat="43.36646300348131" lon="11.404789429051315"><ele>348.5</ele><time>2026-05-04T11:37:03Z</time></trkpt><trkpt lat="43.36638980099664" lon="11.404954744654175"><ele>348.25</ele><time>2026-05-04T11:37:04Z</time></trkpt><trkpt lat="43.366315595716564" lon="11.405144056403916"><ele>348.0</ele><time>2026-05-04T11:37:05Z</time></trkpt><trkpt lat="43.36624094866529" lon="11.405339972717329"><ele>347.0</ele><time>2026-05-04T11:37:06Z</time></trkpt><trkpt lat="43.36616569001114" lon="11.40552856494041"><ele>346.0</ele><time>2026-05-04T11:37:07Z</time></trkpt><trkpt lat="43.366097290438084" lon="11.405698030699378"><ele>345.0</ele><time>2026-05-04T11:37:08Z</time></trkpt><trkpt lat="43.36603486019942" lon="11.405855103594853"><ele>344.0</ele><time>2026-05-04T11:37:09Z</time></trkpt><trkpt lat="43.36597792126305" lon="11.405993115781337"><ele>344.0</ele><time>2026-05-04T11:37:10Z</time></trkpt><trkpt lat="43.36592019712036" lon="11.406101830296906"><ele>344.0</ele><time>2026-05-04T11:37:11Z</time></trkpt><trkpt lat="43.36583715445005" lon="11.406193340811306"><ele>344.0</ele><time>2026-05-04T11:37:12Z</time></trkpt><trkpt lat="43.365720646683464" lon="11.406224750163254"><ele>344.0</ele><time>2026-05-04T11:37:13Z</time></trkpt><trkpt lat="43.365593749774064" lon="11.406280251776623"><ele>342.75</ele><time>2026-05-04T11:37:14Z</time></trkpt><trkpt lat="43.365452467882726" lon="11.406359721627489"><ele>341.5</ele><time>2026-05-04T11:37:15Z</time></trkpt><trkpt lat="43.36531434746838" lon="11.406412656447252"><ele>340.25</ele><time>2026-05-04T11:37:16Z</time></trkpt><trkpt lat="43.36519900907719" lon="11.406439661637117"><ele>339.0</ele><time>2026-05-04T11:37:17Z</time></trkpt><trkpt lat="43.36510439440132" lon="11.406464658583438"><ele>339.0</ele><time>2026-05-04T11:37:18Z</time></trkpt><trkpt lat="43.365027699007626" lon="11.406457277006531"><ele>339.0</ele><time>2026-05-04T11:37:19Z</time></trkpt><trkpt lat="43.36494894778545" lon="11.406404619128317"><ele>339.0</ele><time>2026-05-04T11:37:20Z</time></trkpt><trkpt lat="43.364880718767715" lon="11.406307564609621"><ele>339.0</ele><time>2026-05-04T11:37:21Z</time></trkpt><trkpt lat="43.36479562877853" lon="11.406202496413398"><ele>339.0</ele><time>2026-05-04T11:37:22Z</time></trkpt><trkpt lat="43.36471605134766" lon="11.406091469902938"><ele>337.0</ele><time>2026-05-04T11:37:23Z</time></trkpt><trkpt lat="43.364636837314144" lon="11.406007000262447"><ele>335.0</ele><time>2026-05-04T11:37:24Z</time></trkpt><trkpt lat="43.36454736294514" lon="11.405971322321488"><ele>333.0</ele><time>2026-05-04T11:37:25Z</time></trkpt><trkpt lat="43.364447589935494" lon="11.406006375548783"><ele>331.0</ele><time>2026-05-04T11:37:26Z</time></trkpt><trkpt lat="43.364339183328475" lon="11.406069855604928"><ele>329.0</ele><time>2026-05-04T11:37:27Z</time></trkpt><trkpt lat="43.364214726197545" lon="11.406163605073537"><ele>329.0</ele><time>2026-05-04T11:37:28Z</time></trkpt><trkpt lat="43.36406124852291" lon="11.40624645330202"><ele>329.0</ele><time>2026-05-04T11:37:29Z</time></trkpt><trkpt lat="43.36390063281681" lon="11.406358202020245"><ele>329.0</ele><time>2026-05-04T11:37:30Z</time></trkpt><trkpt lat="43.36372629040032" lon="11.406473550697237"><ele>325.6666666666667</ele><time>2026-05-04T11:37:31Z</time></trkpt><trkpt lat="43.36354378212235" lon="11.406590366434001"><ele>322.3333333333333</ele><time>2026-05-04T11:37:32Z</time></trkpt><trkpt lat="43.36336169350097" lon="11.406706491313747"><ele>319.0</ele><time>2026-05-04T11:37:33Z</time></trkpt><trkpt lat="43.363187563462375" lon="11.40681621471278"><ele>316.3333333333333</ele><time>2026-05-04T11:37:34Z</time></trkpt><trkpt lat="43.363015358085114" lon="11.40694652807263"><ele>313.6666666666667</ele><time>2026-05-04T11:37:35Z</time></trkpt><trkpt lat="43.36283651515958" lon="11.407040013545213"><ele>311.0</ele><time>2026-05-04T11:37:36Z</time></trkpt><trkpt lat="43.36264250832805" lon="11.4071030969768"><ele>312.0</ele><time>2026-05-04T11:37:37Z</time></trkpt><trkpt lat="43.362456285001144" lon="11.40720370964507"><ele>313.0</ele><time>2026-05-04T11:37:38Z</time></trkpt><trkpt lat="43.36226453535791" lon="11.407263858047148"><ele>314.0</ele><time>2026-05-04T11:37:39Z</time></trkpt><trkpt lat="43.36205820056687" lon="11.407322928431487"><ele>311.33333333333337</ele><time>2026-05-04T11:37:40Z</time></trkpt><trkpt lat="43.36186643661352" lon="11.407374566400971"><ele>308.6666666666667</ele><time>2026-05-04T11:37:41Z</time></trkpt><trkpt lat="43.36166792888623" lon="11.407429228396705"><ele>306.0</ele><time>2026-05-04T11:37:42Z</time></trkpt><trkpt lat="43.361464633331835" lon="11.4074817502965"><ele>303.3333333333333</ele><time>2026-05-04T11:37:43Z</time></trkpt><trkpt lat="43.36125840256412" lon="11.407494602890774"><ele>300.66666666666663</ele><time>2026-05-04T11:37:44Z</time></trkpt><trkpt lat="43.361051440434395" lon="11.407518737805159"><ele>298.0</ele><time>2026-05-04T11:37:45Z</time></trkpt><trkpt lat="43.360848302363486" lon="11.407556117539814"><ele>298.0</ele><time>2026-05-04T11:37:46Z</time></trkpt><trkpt lat="43.360648423702045" lon="11.407523186519013"><ele>298.0</ele><time>2026-05-04T11:37:47Z</time></trkpt><trkpt lat="43.360458515342394" lon="11.407495451499118"><ele>298.0</ele><time>2026-05-04T11:37:48Z</time></trkpt><trkpt lat="43.36028997862848" lon="11.407466611716584"><ele>297.25</ele><time>2026-05-04T11:37:49Z</time></trkpt><trkpt lat="43.360142033154915" lon="11.40745413625894"><ele>296.5</ele><time>2026-05-04T11:37:50Z</time></trkpt><trkpt lat="43.360018286941866" lon="11.407419090741566"><ele>295.75</ele><time>2026-05-04T11:37:51Z</time></trkpt><trkpt lat="43.35990748658694" lon="11.407390685392098"><ele>295.0</ele><time>2026-05-04T11:37:52Z</time></trkpt><trkpt lat="43.35981106639746" lon="11.407394238806093"><ele>295.0</ele><time>2026-05-04T11:37:53Z</time></trkpt><trkpt lat="43.35971119276154" lon="11.407431684194213"><ele>295.0</ele><time>2026-05-04T11:37:54Z</time></trkpt><trkpt lat="43.35961259605692" lon="11.407477251007327"><ele>295.0</ele><time>2026-05-04T11:37:55Z</time></trkpt><trkpt lat="43.35954080355386" lon="11.407612339798117"><ele>295.0</ele><time>2026-05-04T11:37:56Z</time></trkpt><trkpt lat="43.35948889962496" lon="11.407767661809915"><ele>295.2</ele><time>2026-05-04T11:37:57Z</time></trkpt><trkpt lat="43.35946164710843" lon="11.407904394116793"><ele>295.4</ele><time>2026-05-04T11:37:58Z</time></trkpt><trkpt lat="43.35946106498722" lon="11.408035458453826"><ele>295.6</ele><time>2026-05-04T11:37:59Z</time></trkpt><trkpt lat="43.359487858272416" lon="11.4081606405968"><ele>295.8</ele><time>2026-05-04T11:38:00Z</time></trkpt><trkpt lat="43.3595411098357" lon="11.40825747434117"><ele>296.0</ele><time>2026-05-04T11:38:01Z</time></trkpt><trkpt lat="43.35962136799779" lon="11.408340862505153"><ele>293.6666666666667</ele><time>2026-05-04T11:38:02Z</time></trkpt><trkpt lat="43.35973173702623" lon="11.408421154498345"><ele>291.3333333333333</ele><time>2026-05-04T11:38:03Z</time></trkpt><trkpt lat="43.35987390374483" lon="11.40851971319356"><ele>289.0</ele><time>2026-05-04T11:38:04Z</time></trkpt><trkpt lat="43.36002556497263" lon="11.4086353740464"><ele>289.0</ele><time>2026-05-04T11:38:05Z</time></trkpt><trkpt lat="43.36016919019247" lon="11.408759541809829"><ele>289.0</ele><time>2026-05-04T11:38:06Z</time></trkpt><trkpt lat="43.36029391215716" lon="11.408889802544111"><ele>289.0</ele><time>2026-05-04T11:38:07Z</time></trkpt><trkpt lat="43.360405307743925" lon="11.409035450646472"><ele>288.3333333333333</ele><time>2026-05-04T11:38:08Z</time></trkpt><trkpt lat="43.36050890360962" lon="11.409217829397553"><ele>287.6666666666667</ele><time>2026-05-04T11:38:09Z</time></trkpt><trkpt lat="43.360594428245456" lon="11.409413535260065"><ele>287.0</ele><time>2026-05-04T11:38:10Z</time></trkpt><trkpt lat="43.360668086501576" lon="11.409595003364439"><ele>285.5</ele><time>2026-05-04T11:38:11Z</time></trkpt><trkpt lat="43.36073175271048" lon="11.409759545764636"><ele>284.0</ele><time>2026-05-04T11:38:12Z</time></trkpt><trkpt lat="43.360782106665816" lon="11.409905468269223"><ele>282.5</ele><time>2026-05-04T11:38:13Z</time></trkpt><trkpt lat="43.36082859526498" lon="11.410045075488725"><ele>281.0</ele><time>2026-05-04T11:38:14Z</time></trkpt><trkpt lat="43.360863107353445" lon="11.410172830212721"><ele>281.0</ele><time>2026-05-04T11:38:15Z</time></trkpt><trkpt lat="43.36087213821992" lon="11.410313397719317"><ele>281.0</ele><time>2026-05-04T11:38:16Z</time></trkpt><trkpt lat="43.360853548472285" lon="11.410458647382457"><ele>281.0</ele><time>2026-05-04T11:38:17Z</time></trkpt><trkpt lat="43.36080618444011" lon="11.410591513632461"><ele>281.0</ele><time>2026-05-04T11:38:18Z</time></trkpt><trkpt lat="43.360739454352206" lon="11.410693344259574"><ele>281.0</ele><time>2026-05-04T11:38:19Z</time></trkpt><trkpt lat="43.36064026635224" lon="11.410730446331765"><ele>280.40000000000003</ele><time>2026-05-04T11:38:20Z</time></trkpt><trkpt lat="43.360542869547714" lon="11.410786347747003"><ele>279.8</ele><time>2026-05-04T11:38:21.001Z</time></trkpt><trkpt lat="43.360436851303945" lon="11.410844237320882"><ele>279.20000000000005</ele><time>2026-05-04T11:38:22.001Z</time></trkpt><trkpt lat="43.3603285846399" lon="11.410910485946859"><ele>278.6</ele><time>2026-05-04T11:38:23.001Z</time></trkpt><trkpt lat="43.360228470302935" lon="11.410966213674715"><ele>278.0</ele><time>2026-05-04T11:38:24.001Z</time></trkpt><trkpt lat="43.36014127865882" lon="11.411017868644619"><ele>276.4</ele><time>2026-05-04T11:38:25.001Z</time></trkpt><trkpt lat="43.360066587523704" lon="11.411080596626709"><ele>274.8</ele><time>2026-05-04T11:38:26Z</time></trkpt><trkpt lat="43.36001586679752" lon="11.41115058514348"><ele>273.2</ele><time>2026-05-04T11:38:27Z</time></trkpt><trkpt lat="43.35994993640506" lon="11.411245910062807"><ele>271.6</ele><time>2026-05-04T11:38:29Z</time></trkpt><trkpt lat="43.359919090099446" lon="11.411363445412354"><ele>270.0</ele><time>2026-05-04T11:38:31Z</time></trkpt><trkpt lat="43.35992069868308" lon="11.411534609837343"><ele>270.0</ele><time>2026-05-04T11:38:33Z</time></trkpt><trkpt lat="43.35993235206445" lon="11.411662259943766"><ele>270.0</ele><time>2026-05-04T11:38:34Z</time></trkpt><trkpt lat="43.359949059474246" lon="11.411796190756183"><ele>270.0</ele><time>2026-05-04T11:38:35Z</time></trkpt><trkpt lat="43.35996958746697" lon="11.4119056451788"><ele>270.0</ele><time>2026-05-04T11:38:36Z</time></trkpt><trkpt lat="43.359944591501595" lon="11.412028224640132"><ele>270.0</ele><time>2026-05-04T11:38:38Z</time></trkpt><trkpt lat="43.359848467660925" lon="11.412039189433791"><ele>270.0</ele><time>2026-05-04T11:38:40Z</time></trkpt><trkpt lat="43.359747564496985" lon="11.411984135511565"><ele>270.0</ele><time>2026-05-04T11:38:42Z</time></trkpt><trkpt lat="43.35970109247465" lon="11.411909070021153"><ele>270.0</ele><time>2026-05-04T11:38:43Z</time></trkpt><trkpt lat="43.359657518609" lon="11.411816491625398"><ele>270.0</ele><time>2026-05-04T11:38:44Z</time></trkpt><trkpt lat="43.35963625317739" lon="11.411699548831255"><ele>270.0</ele><time>2026-05-04T11:38:45Z</time></trkpt><trkpt lat="43.35961606415379" lon="11.411544451496091"><ele>268.8</ele><time>2026-05-04T11:38:46Z</time></trkpt><trkpt lat="43.35958823280736" lon="11.411373007916984"><ele>267.6</ele><time>2026-05-04T11:38:47Z</time></trkpt><trkpt lat="43.35954769722228" lon="11.41121553005644"><ele>266.4</ele><time>2026-05-04T11:38:48Z</time></trkpt><trkpt lat="43.35949755570662" lon="11.411088479292857"><ele>265.2</ele><time>2026-05-04T11:38:49Z</time></trkpt><trkpt lat="43.35944035551969" lon="11.410992120778687"><ele>264.0</ele><time>2026-05-04T11:38:50Z</time></trkpt><trkpt lat="43.35937186798637" lon="11.410934876335743"><ele>264.0</ele><time>2026-05-04T11:38:51Z</time></trkpt><trkpt lat="43.359292104054695" lon="11.410892128732394"><ele>264.0</ele><time>2026-05-04T11:38:52Z</time></trkpt><trkpt lat="43.359208509175005" lon="11.41088243313377"><ele>264.0</ele><time>2026-05-04T11:38:53Z</time></trkpt><trkpt lat="43.35912312742961" lon="11.410956570561668"><ele>264.0</ele><time>2026-05-04T11:38:54Z</time></trkpt><trkpt lat="43.35906939402307" lon="11.41107213275939"><ele>264.0</ele><time>2026-05-04T11:38:55Z</time></trkpt><trkpt lat="43.3590241740066" lon="11.411191988097528"><ele>262.5</ele><time>2026-05-04T11:38:56Z</time></trkpt><trkpt lat="43.35899312905473" lon="11.411341130835781"><ele>261.0</ele><time>2026-05-04T11:38:57Z</time></trkpt><trkpt lat="43.35897771298831" lon="11.411502932933129"><ele>259.5</ele><time>2026-05-04T11:38:58Z</time></trkpt><trkpt lat="43.358974950504496" lon="11.411702922915635"><ele>258.0</ele><time>2026-05-04T11:38:59Z</time></trkpt><trkpt lat="43.358973743772026" lon="11.411891917788578"><ele>258.0</ele><time>2026-05-04T11:39:00Z</time></trkpt><trkpt lat="43.35896396024376" lon="11.412046891156665"><ele>258.0</ele><time>2026-05-04T11:39:01Z</time></trkpt><trkpt lat="43.358934262155735" lon="11.412170218924391"><ele>258.0</ele><time>2026-05-04T11:39:02Z</time></trkpt><trkpt lat="43.358861969796855" lon="11.412253861963746"><ele>258.0</ele><time>2026-05-04T11:39:03Z</time></trkpt><trkpt lat="43.358769665365365" lon="11.412307783640191"><ele>258.0</ele><time>2026-05-04T11:39:04Z</time></trkpt><trkpt lat="43.35867201992177" lon="11.412366284119013"><ele>255.25</ele><time>2026-05-04T11:39:05Z</time></trkpt><trkpt lat="43.35855671976695" lon="11.412407198514101"><ele>252.5</ele><time>2026-05-04T11:39:06Z</time></trkpt><trkpt lat="43.35841570236192" lon="11.412417891178"><ele>249.75</ele><time>2026-05-04T11:39:07Z</time></trkpt><trkpt lat="43.35826119501986" lon="11.4124232672627"><ele>247.0</ele><time>2026-05-04T11:39:08Z</time></trkpt><trkpt lat="43.35811274320026" lon="11.412433827625122"><ele>245.75</ele><time>2026-05-04T11:39:09Z</time></trkpt><trkpt lat="43.35796208750306" lon="11.412390942690932"><ele>244.5</ele><time>2026-05-04T11:39:10Z</time></trkpt><trkpt lat="43.357823362284805" lon="11.412333207858662"><ele>243.25</ele><time>2026-05-04T11:39:11Z</time></trkpt><trkpt lat="43.35770720639831" lon="11.412265203843054"><ele>242.0</ele><time>2026-05-04T11:39:12Z</time></trkpt><trkpt lat="43.35759370518135" lon="11.412270046578561"><ele>242.0</ele><time>2026-05-04T11:39:13Z</time></trkpt><trkpt lat="43.357478657183535" lon="11.41228746925222"><ele>242.0</ele><time>2026-05-04T11:39:14Z</time></trkpt><trkpt lat="43.35736813980817" lon="11.4123417988273"><ele>242.0</ele><time>2026-05-04T11:39:15Z</time></trkpt><trkpt lat="43.357269658552404" lon="11.412394125207031"><ele>242.0</ele><time>2026-05-04T11:39:16Z</time></trkpt><trkpt lat="43.357181635355374" lon="11.41249491949767"><ele>240.75</ele><time>2026-05-04T11:39:17Z</time></trkpt><trkpt lat="43.35709980586948" lon="11.41261712417007"><ele>239.5</ele><time>2026-05-04T11:39:18Z</time></trkpt><trkpt lat="43.357035199859205" lon="11.412788521167533"><ele>238.25</ele><time>2026-05-04T11:39:19Z</time></trkpt><trkpt lat="43.35698311450429" lon="11.412988541416594"><ele>237.0</ele><time>2026-05-04T11:39:20Z</time></trkpt><trkpt lat="43.35689587004231" lon="11.413211493360881"><ele>236.0</ele><time>2026-05-04T11:39:21Z</time></trkpt><trkpt lat="43.35682140682643" lon="11.413454765108954"><ele>235.0</ele><time>2026-05-04T11:39:22Z</time></trkpt><trkpt lat="43.35676113058097" lon="11.413666562591017"><ele>234.0</ele><time>2026-05-04T11:39:23Z</time></trkpt><trkpt lat="43.35670657505473" lon="11.413866174136272"><ele>233.25</ele><time>2026-05-04T11:39:24Z</time></trkpt><trkpt lat="43.356659503878795" lon="11.414045422254704"><ele>232.5</ele><time>2026-05-04T11:39:25Z</time></trkpt><trkpt lat="43.35661626977566" lon="11.414221767616123"><ele>231.75</ele><time>2026-05-04T11:39:26Z</time></trkpt><trkpt lat="43.35657671807462" lon="11.414386200945271"><ele>231.0</ele><time>2026-05-04T11:39:27Z</time></trkpt><trkpt lat="43.35653929912281" lon="11.414548319981337"><ele>230.0</ele><time>2026-05-04T11:39:28Z</time></trkpt><trkpt lat="43.35652273780777" lon="11.414725784689457"><ele>229.0</ele><time>2026-05-04T11:39:29Z</time></trkpt><trkpt lat="43.356477712482985" lon="11.414912170295699"><ele>228.0</ele><time>2026-05-04T11:39:30Z</time></trkpt><trkpt lat="43.35643609772344" lon="11.415119730553988"><ele>227.0</ele><time>2026-05-04T11:39:31Z</time></trkpt><trkpt lat="43.356397299278775" lon="11.415320083205978"><ele>226.0</ele><time>2026-05-04T11:39:32Z</time></trkpt><trkpt lat="43.35634137695281" lon="11.41549008609543"><ele>225.0</ele><time>2026-05-04T11:39:33Z</time></trkpt><trkpt lat="43.35631976375955" lon="11.415627429068197"><ele>224.0</ele><time>2026-05-04T11:39:34Z</time></trkpt><trkpt lat="43.35631477348034" lon="11.415730540048319"><ele>223.0</ele><time>2026-05-04T11:39:35Z</time></trkpt><trkpt lat="43.35626380555533" lon="11.415859199642645"><ele>222.0</ele><time>2026-05-04T11:39:37Z</time></trkpt><trkpt lat="43.35607594430309" lon="11.415860866072057"><ele>222.0</ele><time>2026-05-04T11:39:38Z</time></trkpt><trkpt lat="43.35593128413053" lon="11.41594652657072"><ele>222.0</ele><time>2026-05-04T11:39:39Z</time></trkpt><trkpt lat="43.3557662309327" lon="11.416035778471997"><ele>222.0</ele><time>2026-05-04T11:39:40Z</time></trkpt><trkpt lat="43.355603461784874" lon="11.416159337227292"><ele>223.66666666666669</ele><time>2026-05-04T11:39:41Z</time></trkpt><trkpt lat="43.35545005920559" lon="11.41622745797616"><ele>225.33333333333334</ele><time>2026-05-04T11:39:42Z</time></trkpt><trkpt lat="43.35531221468597" lon="11.416236712448814"><ele>227.0</ele><time>2026-05-04T11:39:43Z</time></trkpt><trkpt lat="43.35515249499008" lon="11.416246484829925"><ele>227.0</ele><time>2026-05-04T11:39:44Z</time></trkpt><trkpt lat="43.354977155529234" lon="11.416206380527724"><ele>227.0</ele><time>2026-05-04T11:39:45Z</time></trkpt><trkpt lat="43.35478695463388" lon="11.416177616479494"><ele>227.0</ele><time>2026-05-04T11:39:46Z</time></trkpt><trkpt lat="43.354592280684976" lon="11.416157204935592"><ele>226.33333333333334</ele><time>2026-05-04T11:39:47Z</time></trkpt><trkpt lat="43.3543782257109" lon="11.416136034279454"><ele>225.66666666666669</ele><time>2026-05-04T11:39:48Z</time></trkpt><trkpt lat="43.35415953482675" lon="11.41611274406999"><ele>225.0</ele><time>2026-05-04T11:39:49Z</time></trkpt><trkpt lat="43.353937750321194" lon="11.416088112762708"><ele>224.33333333333331</ele><time>2026-05-04T11:39:50Z</time></trkpt><trkpt lat="43.35371443966846" lon="11.416062407668269"><ele>223.66666666666666</ele><time>2026-05-04T11:39:51Z</time></trkpt><trkpt lat="43.35350505711335" lon="11.41599055669333"><ele>223.0</ele><time>2026-05-04T11:39:52Z</time></trkpt><trkpt lat="43.35329066164429" lon="11.415928737733458"><ele>223.0</ele><time>2026-05-04T11:39:53Z</time></trkpt><trkpt lat="43.35308172639224" lon="11.41587979040767"><ele>223.0</ele><time>2026-05-04T11:39:54Z</time></trkpt><trkpt lat="43.35287202046512" lon="11.41581475088024"><ele>223.0</ele><time>2026-05-04T11:39:55Z</time></trkpt><trkpt lat="43.35266392515136" lon="11.415754998985287"><ele>223.0</ele><time>2026-05-04T11:39:56Z</time></trkpt><trkpt lat="43.35245400508348" lon="11.415696562194151"><ele>223.0</ele><time>2026-05-04T11:39:57Z</time></trkpt><trkpt lat="43.35223855865727" lon="11.41564057971728"><ele>223.0</ele><time>2026-05-04T11:39:58Z</time></trkpt><trkpt lat="43.352029906018885" lon="11.415587933646805"><ele>222.33333333333331</ele><time>2026-05-04T11:39:59Z</time></trkpt><trkpt lat="43.35181443858288" lon="11.41552266051746"><ele>221.66666666666669</ele><time>2026-05-04T11:40:00Z</time></trkpt><trkpt lat="43.35160741769717" lon="11.415456450957302"><ele>221.0</ele><time>2026-05-04T11:40:01Z</time></trkpt><trkpt lat="43.35138894127121" lon="11.41538861646483"><ele>220.5</ele><time>2026-05-04T11:40:02Z</time></trkpt><trkpt lat="43.35116521824784" lon="11.415325243983526"><ele>220.0</ele><time>2026-05-04T11:40:03Z</time></trkpt><trkpt lat="43.350938667676175" lon="11.415262515099739"><ele>220.0</ele><time>2026-05-04T11:40:04Z</time></trkpt><trkpt lat="43.350709842754156" lon="11.415202555127172"><ele>220.0</ele><time>2026-05-04T11:40:05Z</time></trkpt><trkpt lat="43.35050482536973" lon="11.41512398958384"><ele>220.0</ele><time>2026-05-04T11:40:06Z</time></trkpt><trkpt lat="43.350322402243684" lon="11.415070420353226"><ele>222.0</ele><time>2026-05-04T11:40:07Z</time></trkpt><trkpt lat="43.35017679716251" lon="11.414999599410994"><ele>224.0</ele><time>2026-05-04T11:40:08Z</time></trkpt><trkpt lat="43.35005602816102" lon="11.414877406065267"><ele>226.0</ele><time>2026-05-04T11:40:09Z</time></trkpt><trkpt lat="43.34995837126537" lon="11.414707119222678"><ele>226.33333333333331</ele><time>2026-05-04T11:40:10Z</time></trkpt><trkpt lat="43.349866511444766" lon="11.414541382661994"><ele>226.66666666666669</ele><time>2026-05-04T11:40:11Z</time></trkpt><trkpt lat="43.34975684442978" lon="11.414366843016078"><ele>227.0</ele><time>2026-05-04T11:40:12Z</time></trkpt><trkpt lat="43.34965031350986" lon="11.41417198041627"><ele>227.0</ele><time>2026-05-04T11:40:13Z</time></trkpt><trkpt lat="43.34956416019261" lon="11.413955802279704"><ele>227.0</ele><time>2026-05-04T11:40:14Z</time></trkpt><trkpt lat="43.3494797485671" lon="11.413730259698198"><ele>227.0</ele><time>2026-05-04T11:40:15Z</time></trkpt><trkpt lat="43.349386619808456" lon="11.41350858601105"><ele>227.0</ele><time>2026-05-04T11:40:16Z</time></trkpt><trkpt lat="43.34930568271654" lon="11.413281515563346"><ele>227.0</ele><time>2026-05-04T11:40:17Z</time></trkpt><trkpt lat="43.34918979960492" lon="11.41306424853357"><ele>227.0</ele><time>2026-05-04T11:40:18Z</time></trkpt><trkpt lat="43.34905702180715" lon="11.412883749304763"><ele>226.33333333333334</ele><time>2026-05-04T11:40:19Z</time></trkpt><trkpt lat="43.34891360292342" lon="11.412704906267635"><ele>225.66666666666669</ele><time>2026-05-04T11:40:20Z</time></trkpt><trkpt lat="43.34880611681481" lon="11.412491915414037"><ele>225.0</ele><time>2026-05-04T11:40:21Z</time></trkpt><trkpt lat="43.34871534636001" lon="11.412279846222214"><ele>226.75</ele><time>2026-05-04T11:40:22Z</time></trkpt><trkpt lat="43.348650926023275" lon="11.412086206004178"><ele>228.5</ele><time>2026-05-04T11:40:23Z</time></trkpt><trkpt lat="43.34860354955178" lon="11.411927113202225"><ele>230.25</ele><time>2026-05-04T11:40:24Z</time></trkpt><trkpt lat="43.34858027645381" lon="11.411831685092995"><ele>232.0</ele><time>2026-05-04T11:40:25Z</time></trkpt><trkpt lat="43.34842215149508" lon="11.411878345856957"><ele>232.0</ele><time>2026-05-04T11:40:29Z</time></trkpt><trkpt lat="43.34835286394176" lon="11.411963732223585"><ele>232.0</ele><time>2026-05-04T11:40:30Z</time></trkpt><trkpt lat="43.34825264212087" lon="11.41203167103311"><ele>232.0</ele><time>2026-05-04T11:40:31Z</time></trkpt><trkpt lat="43.348141528153214" lon="11.412132942592942"><ele>232.0</ele><time>2026-05-04T11:40:32Z</time></trkpt><trkpt lat="43.348009086655175" lon="11.412250249542822"><ele>234.33333333333331</ele><time>2026-05-04T11:40:33Z</time></trkpt><trkpt lat="43.34785363824714" lon="11.412387171394327"><ele>236.66666666666669</ele><time>2026-05-04T11:40:34Z</time></trkpt><trkpt lat="43.34767797045731" lon="11.41254190283296"><ele>239.0</ele><time>2026-05-04T11:40:35Z</time></trkpt><trkpt lat="43.347505057343774" lon="11.412726009296682"><ele>239.0</ele><time>2026-05-04T11:40:36Z</time></trkpt><trkpt lat="43.3473372128806" lon="11.412856977603095"><ele>239.0</ele><time>2026-05-04T11:40:37Z</time></trkpt><trkpt lat="43.347190695164365" lon="11.412998304319023"><ele>239.0</ele><time>2026-05-04T11:40:38Z</time></trkpt><trkpt lat="43.34706834809799" lon="11.41312573332215"><ele>239.33333333333334</ele><time>2026-05-04T11:40:39Z</time></trkpt><trkpt lat="43.34696235636868" lon="11.413262949049663"><ele>239.66666666666669</ele><time>2026-05-04T11:40:40Z</time></trkpt><trkpt lat="43.346821621385324" lon="11.413373437267973"><ele>240.0</ele><time>2026-05-04T11:40:41Z</time></trkpt><trkpt lat="43.34668257790572" lon="11.4134857175344"><ele>240.0</ele><time>2026-05-04T11:40:42Z</time></trkpt><trkpt lat="43.34652637659274" lon="11.413603498400807"><ele>240.0</ele><time>2026-05-04T11:40:43Z</time></trkpt><trkpt lat="43.34635761882488" lon="11.413730828286354"><ele>240.0</ele><time>2026-05-04T11:40:44Z</time></trkpt><trkpt lat="43.34617690994978" lon="11.413887372790242"><ele>237.0</ele><time>2026-05-04T11:40:45Z</time></trkpt><trkpt lat="43.345958494395504" lon="11.414009614009535"><ele>234.0</ele><time>2026-05-04T11:40:46Z</time></trkpt><trkpt lat="43.34576056788087" lon="11.414151798747707"><ele>234.0</ele><time>2026-05-04T11:40:47Z</time></trkpt><trkpt lat="43.345556914018644" lon="11.414298266699499"><ele>234.0</ele><time>2026-05-04T11:40:48Z</time></trkpt><trkpt lat="43.34534451594665" lon="11.41445359800673"><ele>233.0</ele><time>2026-05-04T11:40:49Z</time></trkpt><trkpt lat="43.34514178624094" lon="11.414620902524561"><ele>232.0</ele><time>2026-05-04T11:40:50Z</time></trkpt><trkpt lat="43.344926884492324" lon="11.4147780041424"><ele>233.5</ele><time>2026-05-04T11:40:51Z</time></trkpt><trkpt lat="43.34470732056554" lon="11.414911746641316"><ele>235.0</ele><time>2026-05-04T11:40:52Z</time></trkpt><trkpt lat="43.34451185664171" lon="11.415050803793731"><ele>235.0</ele><time>2026-05-04T11:40:53Z</time></trkpt><trkpt lat="43.344312974634036" lon="11.41519389507064"><ele>235.0</ele><time>2026-05-04T11:40:54Z</time></trkpt><trkpt lat="43.344124797243886" lon="11.415331587185511"><ele>235.0</ele><time>2026-05-04T11:40:55Z</time></trkpt><trkpt lat="43.343940335904506" lon="11.415484256559715"><ele>232.5</ele><time>2026-05-04T11:40:56Z</time></trkpt><trkpt lat="43.34374867885042" lon="11.415614759532113"><ele>230.0</ele><time>2026-05-04T11:40:57Z</time></trkpt><trkpt lat="43.34353618138533" lon="11.4157586731481"><ele>230.0</ele><time>2026-05-04T11:40:58Z</time></trkpt><trkpt lat="43.343318121275416" lon="11.415884420912521"><ele>230.0</ele><time>2026-05-04T11:40:59Z</time></trkpt><trkpt lat="43.34310296471566" lon="11.416032353644574"><ele>229.0</ele><time>2026-05-04T11:41:00Z</time></trkpt><trkpt lat="43.34287715369313" lon="11.416189112260714"><ele>228.0</ele><time>2026-05-04T11:41:01Z</time></trkpt><trkpt lat="43.34266888366907" lon="11.416334004113642"><ele>228.0</ele><time>2026-05-04T11:41:02Z</time></trkpt><trkpt lat="43.34245177563993" lon="11.41648673374597"><ele>228.0</ele><time>2026-05-04T11:41:03Z</time></trkpt><trkpt lat="43.342231163721856" lon="11.416642408356038"><ele>230.5</ele><time>2026-05-04T11:41:04Z</time></trkpt><trkpt lat="43.34201529504283" lon="11.416796343393631"><ele>233.0</ele><time>2026-05-04T11:41:05Z</time></trkpt><trkpt lat="43.341833037450385" lon="11.416950764565732"><ele>233.0</ele><time>2026-05-04T11:41:06Z</time></trkpt><trkpt lat="43.34164707706295" lon="11.417083232242526"><ele>233.0</ele><time>2026-05-04T11:41:07Z</time></trkpt><trkpt lat="43.34145029584299" lon="11.41722044349122"><ele>233.0</ele><time>2026-05-04T11:41:08Z</time></trkpt><trkpt lat="43.34125190508892" lon="11.417361842084595"><ele>230.66666666666669</ele><time>2026-05-04T11:41:09Z</time></trkpt><trkpt lat="43.34104828153913" lon="11.417504852295483"><ele>228.33333333333331</ele><time>2026-05-04T11:41:10Z</time></trkpt><trkpt lat="43.34085178324824" lon="11.417624034582381"><ele>226.0</ele><time>2026-05-04T11:41:11Z</time></trkpt><trkpt lat="43.34065071356939" lon="11.417766075070992"><ele>225.66666666666666</ele><time>2026-05-04T11:41:12Z</time></trkpt><trkpt lat="43.34047341061211" lon="11.41789132614024"><ele>225.33333333333331</ele><time>2026-05-04T11:41:13Z</time></trkpt><trkpt lat="43.34031483767174" lon="11.418003345925655"><ele>225.0</ele><time>2026-05-04T11:41:14Z</time></trkpt><trkpt lat="43.34019568305692" lon="11.418112155329283"><ele>225.0</ele><time>2026-05-04T11:41:15Z</time></trkpt><trkpt lat="43.340075825725734" lon="11.418195219082433"><ele>225.0</ele><time>2026-05-04T11:41:16Z</time></trkpt><trkpt lat="43.339982002857376" lon="11.418264749913998"><ele>225.0</ele><time>2026-05-04T11:41:17Z</time></trkpt><trkpt lat="43.33990769095427" lon="11.418330321817203"><ele>225.0</ele><time>2026-05-04T11:41:18Z</time></trkpt><trkpt lat="43.33984453827303" lon="11.418413255489515"><ele>225.0</ele><time>2026-05-04T11:41:19Z</time></trkpt><trkpt lat="43.33978792304366" lon="11.41852471486557"><ele>225.0</ele><time>2026-05-04T11:41:20Z</time></trkpt><trkpt lat="43.339735541598536" lon="11.418661549442783"><ele>225.0</ele><time>2026-05-04T11:41:21Z</time></trkpt><trkpt lat="43.33969117507311" lon="11.418808983558925"><ele>225.0</ele><time>2026-05-04T11:41:22Z</time></trkpt><trkpt lat="43.33964952057746" lon="11.418971042070932"><ele>225.0</ele><time>2026-05-04T11:41:23Z</time></trkpt><trkpt lat="43.33960950505837" lon="11.419172432584201"><ele>224.66666666666669</ele><time>2026-05-04T11:41:24Z</time></trkpt><trkpt lat="43.339557545051804" lon="11.419401633237104"><ele>224.33333333333334</ele><time>2026-05-04T11:41:25Z</time></trkpt><trkpt lat="43.33950026358815" lon="11.419612841940591"><ele>224.0</ele><time>2026-05-04T11:41:26Z</time></trkpt><trkpt lat="43.33944835707849" lon="11.419788906966884"><ele>223.6</ele><time>2026-05-04T11:41:27Z</time></trkpt><trkpt lat="43.33941321238092" lon="11.419937290447029"><ele>223.2</ele><time>2026-05-04T11:41:28Z</time></trkpt><trkpt lat="43.33938491402507" lon="11.420054401752253"><ele>222.79999999999998</ele><time>2026-05-04T11:41:29Z</time></trkpt><trkpt lat="43.33936600605003" lon="11.420138073277304"><ele>222.39999999999998</ele><time>2026-05-04T11:41:30Z</time></trkpt><trkpt lat="43.33934381356715" lon="11.420269082408602"><ele>222.0</ele><time>2026-05-04T11:41:32Z</time></trkpt><trkpt lat="43.33931333012887" lon="11.42037976121188"><ele>222.0</ele><time>2026-05-04T11:41:36Z</time></trkpt><trkpt lat="43.33928609211116" lon="11.420484108330454"><ele>222.0</ele><time>2026-05-04T11:41:39Z</time></trkpt><trkpt lat="43.33921746910467" lon="11.420467694591709"><ele>222.0</ele><time>2026-05-04T11:41:42Z</time></trkpt><trkpt lat="43.339148248992544" lon="11.420461037727362"><ele>222.0</ele><time>2026-05-04T11:41:46Z</time></trkpt><trkpt lat="43.33921910154534" lon="11.420468838533795"><ele>222.0</ele><time>2026-05-04T11:41:59Z</time></trkpt><trkpt lat="43.33928477698896" lon="11.420485508001567"><ele>222.0</ele><time>2026-05-04T11:42:00Z</time></trkpt><trkpt lat="43.33933845536476" lon="11.420295116604692"><ele>222.0</ele><time>2026-05-04T11:42:03Z</time></trkpt><trkpt lat="43.3393793342652" lon="11.42022197507903"><ele>222.0</ele><time>2026-05-04T11:42:06Z</time></trkpt><trkpt lat="43.33945110359243" lon="11.420278267791828"><ele>222.0</ele><time>2026-05-04T11:42:09Z</time></trkpt><trkpt lat="43.33948740644" lon="11.420353643167424"><ele>222.0</ele><time>2026-05-04T11:42:10Z</time></trkpt><trkpt lat="43.339556159291995" lon="11.420464739149223"><ele>222.0</ele><time>2026-05-04T11:42:12Z</time></trkpt><trkpt lat="43.33962535831295" lon="11.420596821737721"><ele>222.0</ele><time>2026-05-04T11:42:14Z</time></trkpt><trkpt lat="43.339599027934554" lon="11.420747602704335"><ele>221.0</ele><time>2026-05-04T11:42:16Z</time></trkpt><trkpt lat="43.33958006371517" lon="11.420837583549396"><ele>220.0</ele><time>2026-05-04T11:42:17Z</time></trkpt><trkpt lat="43.33954583386038" lon="11.4209419768952"><ele>219.0</ele><time>2026-05-04T11:42:18Z</time></trkpt><trkpt lat="43.33950433190831" lon="11.42102358693924"><ele>218.0</ele><time>2026-05-04T11:42:19Z</time></trkpt><trkpt lat="43.33946378435162" lon="11.421097622074928"><ele>217.0</ele><time>2026-05-04T11:42:20Z</time></trkpt><trkpt lat="43.33941739522219" lon="11.421190699681716"><ele>216.0</ele><time>2026-05-04T11:42:21Z</time></trkpt><trkpt lat="43.33938627804539" lon="11.421295644866392"><ele>214.20000000000002</ele><time>2026-05-04T11:42:22Z</time></trkpt><trkpt lat="43.33934379396697" lon="11.421389622031588"><ele>212.40000000000003</ele><time>2026-05-04T11:42:23Z</time></trkpt><trkpt lat="43.33931058669777" lon="11.421513727605896"><ele>210.6</ele><time>2026-05-04T11:42:24Z</time></trkpt><trkpt lat="43.33928874104498" lon="11.421643026345336"><ele>208.8</ele><time>2026-05-04T11:42:25Z</time></trkpt><trkpt lat="43.339275898931575" lon="11.421793207685708"><ele>207.0</ele><time>2026-05-04T11:42:26Z</time></trkpt><trkpt lat="43.33926256537868" lon="11.421969555237778"><ele>206.0</ele><time>2026-05-04T11:42:27Z</time></trkpt><trkpt lat="43.3392416929752" lon="11.422161209171804"><ele>205.0</ele><time>2026-05-04T11:42:28Z</time></trkpt><trkpt lat="43.33922023093458" lon="11.422363601503966"><ele>204.0</ele><time>2026-05-04T11:42:29Z</time></trkpt><trkpt lat="43.3391952571574" lon="11.422569361136823"><ele>203.0</ele><time>2026-05-04T11:42:30Z</time></trkpt><trkpt lat="43.33917181451529" lon="11.42278375944135"><ele>203.0</ele><time>2026-05-04T11:42:31Z</time></trkpt><trkpt lat="43.33914307041706" lon="11.423013867611855"><ele>203.0</ele><time>2026-05-04T11:42:32Z</time></trkpt><trkpt lat="43.33911032245663" lon="11.423258503115447"><ele>203.0</ele><time>2026-05-04T11:42:33Z</time></trkpt><trkpt lat="43.339080503002684" lon="11.423490748148996"><ele>203.0</ele><time>2026-05-04T11:42:34Z</time></trkpt><trkpt lat="43.33904782323178" lon="11.423743195314541"><ele>203.0</ele><time>2026-05-04T11:42:35Z</time></trkpt><trkpt lat="43.339014013248416" lon="11.42397223253233"><ele>203.0</ele><time>2026-05-04T11:42:36Z</time></trkpt><trkpt lat="43.33897483810654" lon="11.424222481325618"><ele>203.0</ele><time>2026-05-04T11:42:37Z</time></trkpt><trkpt lat="43.33893390395949" lon="11.424476995558923"><ele>203.0</ele><time>2026-05-04T11:42:38Z</time></trkpt><trkpt lat="43.338895071083115" lon="11.424728402806467"><ele>203.0</ele><time>2026-05-04T11:42:39Z</time></trkpt><trkpt lat="43.33886534530297" lon="11.42495156150272"><ele>203.0</ele><time>2026-05-04T11:42:40Z</time></trkpt><trkpt lat="43.33882867831799" lon="11.425178911337547"><ele>203.0</ele><time>2026-05-04T11:42:41Z</time></trkpt><trkpt lat="43.338790129698054" lon="11.42538507725997"><ele>203.0</ele><time>2026-05-04T11:42:42Z</time></trkpt><trkpt lat="43.33875288227049" lon="11.425579916641649"><ele>203.25</ele><time>2026-05-04T11:42:43Z</time></trkpt><trkpt lat="43.338715220574464" lon="11.425761943018625"><ele>203.5</ele><time>2026-05-04T11:42:44Z</time></trkpt><trkpt lat="43.338677697595266" lon="11.425928721069104"><ele>203.75</ele><time>2026-05-04T11:42:45Z</time></trkpt><trkpt lat="43.33864306599176" lon="11.426076281292417"><ele>204.0</ele><time>2026-05-04T11:42:46Z</time></trkpt><trkpt lat="43.33861650266651" lon="11.426208157225641"><ele>204.0</ele><time>2026-05-04T11:42:47Z</time></trkpt><trkpt lat="43.33860692869654" lon="11.426329187432676"><ele>204.0</ele><time>2026-05-04T11:42:48Z</time></trkpt><trkpt lat="43.338609250238136" lon="11.426437568427975"><ele>204.0</ele><time>2026-05-04T11:42:49Z</time></trkpt><trkpt lat="43.33855209666016" lon="11.426527705669736"><ele>204.0</ele><time>2026-05-04T11:42:52Z</time></trkpt><trkpt lat="43.33848195140837" lon="11.426547597759493"><ele>204.0</ele><time>2026-05-04T11:42:53Z</time></trkpt><trkpt lat="43.338374854645586" lon="11.426553339709335"><ele>204.0</ele><time>2026-05-04T11:42:54Z</time></trkpt><trkpt lat="43.33825144583056" lon="11.426506736033964"><ele>204.0</ele><time>2026-05-04T11:42:55Z</time></trkpt><trkpt lat="43.33814165769174" lon="11.426479679477774"><ele>204.0</ele><time>2026-05-04T11:42:56Z</time></trkpt><trkpt lat="43.33803519054434" lon="11.426446703464931"><ele>204.0</ele><time>2026-05-04T11:42:57Z</time></trkpt><trkpt lat="43.33793809355649" lon="11.426365164263357"><ele>204.0</ele><time>2026-05-04T11:42:58Z</time></trkpt><trkpt lat="43.337840177841" lon="11.426254521756146"><ele>204.33333333333331</ele><time>2026-05-04T11:42:59Z</time></trkpt><trkpt lat="43.33773692314403" lon="11.426114613024119"><ele>204.66666666666666</ele><time>2026-05-04T11:43:00Z</time></trkpt><trkpt lat="43.337621202980976" lon="11.425966077180643"><ele>205.0</ele><time>2026-05-04T11:43:01Z</time></trkpt><trkpt lat="43.33749113433829" lon="11.425818310614932"><ele>205.0</ele><time>2026-05-04T11:43:02Z</time></trkpt><trkpt lat="43.33736627758829" lon="11.42563911587648"><ele>205.0</ele><time>2026-05-04T11:43:03Z</time></trkpt><trkpt lat="43.33722107690494" lon="11.425479741823972"><ele>205.0</ele><time>2026-05-04T11:43:04Z</time></trkpt><trkpt lat="43.337062287286216" lon="11.425320871131522"><ele>203.66666666666666</ele><time>2026-05-04T11:43:05Z</time></trkpt><trkpt lat="43.33690284552329" lon="11.425164696828901"><ele>202.33333333333331</ele><time>2026-05-04T11:43:06Z</time></trkpt><trkpt lat="43.3367398386502" lon="11.42502670807526"><ele>201.0</ele><time>2026-05-04T11:43:07Z</time></trkpt><trkpt lat="43.33659449175633" lon="11.42486943093836"><ele>201.0</ele><time>2026-05-04T11:43:08Z</time></trkpt><trkpt lat="43.33645908903828" lon="11.424698762611555"><ele>201.0</ele><time>2026-05-04T11:43:09Z</time></trkpt><trkpt lat="43.33630558024664" lon="11.424546690735518"><ele>201.0</ele><time>2026-05-04T11:43:10Z</time></trkpt><trkpt lat="43.33613757532664" lon="11.42441475765711"><ele>200.33333333333331</ele><time>2026-05-04T11:43:11Z</time></trkpt><trkpt lat="43.3359811710844" lon="11.424242598129894"><ele>199.66666666666666</ele><time>2026-05-04T11:43:12Z</time></trkpt><trkpt lat="43.33582737545836" lon="11.424102596008957"><ele>199.0</ele><time>2026-05-04T11:43:13Z</time></trkpt><trkpt lat="43.33567021254908" lon="11.423995937581871"><ele>198.66666666666666</ele><time>2026-05-04T11:43:14Z</time></trkpt><trkpt lat="43.33550584747386" lon="11.423849486393692"><ele>198.33333333333331</ele><time>2026-05-04T11:43:15Z</time></trkpt><trkpt lat="43.335342381640366" lon="11.423699635390593"><ele>198.0</ele><time>2026-05-04T11:43:16Z</time></trkpt><trkpt lat="43.33518644108909" lon="11.423539135441617"><ele>198.0</ele><time>2026-05-04T11:43:17Z</time></trkpt><trkpt lat="43.33506477258266" lon="11.42335740271313"><ele>198.0</ele><time>2026-05-04T11:43:18Z</time></trkpt><trkpt lat="43.33494727507883" lon="11.423209138106941"><ele>198.0</ele><time>2026-05-04T11:43:19Z</time></trkpt><trkpt lat="43.33482499394655" lon="11.42307339255163"><ele>198.0</ele><time>2026-05-04T11:43:20Z</time></trkpt><trkpt lat="43.334722584825656" lon="11.422941504819086"><ele>198.0</ele><time>2026-05-04T11:43:21Z</time></trkpt><trkpt lat="43.33460397304606" lon="11.422784229649823"><ele>198.0</ele><time>2026-05-04T11:43:22Z</time></trkpt><trkpt lat="43.33446294168107" lon="11.422658503920081"><ele>198.0</ele><time>2026-05-04T11:43:23Z</time></trkpt><trkpt lat="43.33429411137488" lon="11.422535919033734"><ele>198.0</ele><time>2026-05-04T11:43:24Z</time></trkpt><trkpt lat="43.33415802070794" lon="11.42243498478814"><ele>198.0</ele><time>2026-05-04T11:43:25Z</time></trkpt><trkpt lat="43.334042700535385" lon="11.422341270638173"><ele>198.0</ele><time>2026-05-04T11:43:26Z</time></trkpt><trkpt lat="43.333925540803094" lon="11.422269746723495"><ele>198.0</ele><time>2026-05-04T11:43:27Z</time></trkpt><trkpt lat="43.333813955694936" lon="11.422178826810333"><ele>198.0</ele><time>2026-05-04T11:43:28Z</time></trkpt><trkpt lat="43.33370210575217" lon="11.422107186774282"><ele>198.0</ele><time>2026-05-04T11:43:29Z</time></trkpt><trkpt lat="43.333591625661235" lon="11.422051107399414"><ele>198.0</ele><time>2026-05-04T11:43:30Z</time></trkpt><trkpt lat="43.333480331225374" lon="11.422008592784207"><ele>198.0</ele><time>2026-05-04T11:43:31Z</time></trkpt><trkpt lat="43.3333630783942" lon="11.42194933990138"><ele>198.0</ele><time>2026-05-04T11:43:32Z</time></trkpt><trkpt lat="43.33322426041058" lon="11.421904561489018"><ele>198.0</ele><time>2026-05-04T11:43:33Z</time></trkpt><trkpt lat="43.3330768789031" lon="11.421853332119836"><ele>197.75</ele><time>2026-05-04T11:43:34Z</time></trkpt><trkpt lat="43.3329366342176" lon="11.421814593397135"><ele>197.5</ele><time>2026-05-04T11:43:35Z</time></trkpt><trkpt lat="43.33280296828977" lon="11.421786691170713"><ele>197.25</ele><time>2026-05-04T11:43:36Z</time></trkpt><trkpt lat="43.332662196007924" lon="11.421775202519537"><ele>197.0</ele><time>2026-05-04T11:43:37Z</time></trkpt><trkpt lat="43.33251638907346" lon="11.421792448683375"><ele>197.0</ele><time>2026-05-04T11:43:38Z</time></trkpt><trkpt lat="43.33235568014572" lon="11.421797995541786"><ele>197.0</ele><time>2026-05-04T11:43:39Z</time></trkpt><trkpt lat="43.33216823486321" lon="11.421813291148753"><ele>197.0</ele><time>2026-05-04T11:43:40Z</time></trkpt><trkpt lat="43.331966021102055" lon="11.421843318825674"><ele>197.5</ele><time>2026-05-04T11:43:41Z</time></trkpt><trkpt lat="43.331729521362" lon="11.421855421974813"><ele>198.0</ele><time>2026-05-04T11:43:42Z</time></trkpt><trkpt lat="43.33147331588164" lon="11.421890251160299"><ele>197.0</ele><time>2026-05-04T11:43:43Z</time></trkpt><trkpt lat="43.331233382018645" lon="11.42195508871759"><ele>196.0</ele><time>2026-05-04T11:43:44Z</time></trkpt><trkpt lat="43.33098491531406" lon="11.421996729359137"><ele>196.0</ele><time>2026-05-04T11:43:45Z</time></trkpt><trkpt lat="43.330741150862465" lon="11.42202468684869"><ele>196.0</ele><time>2026-05-04T11:43:46Z</time></trkpt><trkpt lat="43.33053061410759" lon="11.422043202975262"><ele>196.5</ele><time>2026-05-04T11:43:47Z</time></trkpt><trkpt lat="43.33030178674131" lon="11.422053614223593"><ele>197.0</ele><time>2026-05-04T11:43:48Z</time></trkpt><trkpt lat="43.33006713296197" lon="11.422052206328607"><ele>197.0</ele><time>2026-05-04T11:43:49Z</time></trkpt><trkpt lat="43.32985037835244" lon="11.42201290872323"><ele>197.0</ele><time>2026-05-04T11:43:50Z</time></trkpt><trkpt lat="43.32964273347978" lon="11.421989578911385"><ele>197.0</ele><time>2026-05-04T11:43:51Z</time></trkpt><trkpt lat="43.32944636217936" lon="11.422003681840037"><ele>197.25</ele><time>2026-05-04T11:43:52Z</time></trkpt><trkpt lat="43.32928207453477" lon="11.421981916178005"><ele>197.5</ele><time>2026-05-04T11:43:53Z</time></trkpt><trkpt lat="43.329153815442346" lon="11.421992625490146"><ele>197.75</ele><time>2026-05-04T11:43:54Z</time></trkpt><trkpt lat="43.32904530761471" lon="11.422013637789018"><ele>198.0</ele><time>2026-05-04T11:43:55Z</time></trkpt><trkpt lat="43.32892373573677" lon="11.422091766296507"><ele>197.33333333333331</ele><time>2026-05-04T11:43:56Z</time></trkpt><trkpt lat="43.328765546897195" lon="11.422176528861211"><ele>196.66666666666666</ele><time>2026-05-04T11:43:57Z</time></trkpt><trkpt lat="43.32855693488428" lon="11.422267025110877"><ele>196.0</ele><time>2026-05-04T11:43:58Z</time></trkpt><trkpt lat="43.32832139521981" lon="11.422396075249594"><ele>196.0</ele><time>2026-05-04T11:43:59Z</time></trkpt><trkpt lat="43.32808971101892" lon="11.422535028349671"><ele>196.0</ele><time>2026-05-04T11:44:00Z</time></trkpt><trkpt lat="43.327891934538854" lon="11.422680257221778"><ele>196.66666666666666</ele><time>2026-05-04T11:44:01Z</time></trkpt><trkpt lat="43.327715038627424" lon="11.422778076084818"><ele>197.33333333333331</ele><time>2026-05-04T11:44:02Z</time></trkpt><trkpt lat="43.32754256771479" lon="11.4228626283808"><ele>198.0</ele><time>2026-05-04T11:44:03Z</time></trkpt><trkpt lat="43.32734965718042" lon="11.422946673727091"><ele>197.0</ele><time>2026-05-04T11:44:04Z</time></trkpt><trkpt lat="43.32713175050325" lon="11.423034054858846"><ele>196.0</ele><time>2026-05-04T11:44:05Z</time></trkpt><trkpt lat="43.3269153758634" lon="11.423116632899266"><ele>196.0</ele><time>2026-05-04T11:44:06Z</time></trkpt><trkpt lat="43.326745246884" lon="11.423176587784111"><ele>196.0</ele><time>2026-05-04T11:44:07Z</time></trkpt><trkpt lat="43.32659452082666" lon="11.42322591953601"><ele>196.0</ele><time>2026-05-04T11:44:08Z</time></trkpt><trkpt lat="43.326464303032935" lon="11.423265482605053"><ele>195.8</ele><time>2026-05-04T11:44:09Z</time></trkpt><trkpt lat="43.32635167769119" lon="11.423295356903973"><ele>195.60000000000002</ele><time>2026-05-04T11:44:10Z</time></trkpt><trkpt lat="43.32627088301465" lon="11.423290517562176"><ele>195.4</ele><time>2026-05-04T11:44:11Z</time></trkpt><trkpt lat="43.32619218387668" lon="11.423291703561764"><ele>195.2</ele><time>2026-05-04T11:44:12Z</time></trkpt><trkpt lat="43.32610642801661" lon="11.423286202482034"><ele>195.0</ele><time>2026-05-04T11:44:14Z</time></trkpt><trkpt lat="43.32605802708896" lon="11.423148401447742"><ele>195.0</ele><time>2026-05-04T11:44:16Z</time></trkpt><trkpt lat="43.326075840082474" lon="11.423044811311756"><ele>195.0</ele><time>2026-05-04T11:44:17Z</time></trkpt><trkpt lat="43.3260654632538" lon="11.422879836571038"><ele>195.0</ele><time>2026-05-04T11:44:18Z</time></trkpt><trkpt lat="43.32608041608197" lon="11.422671621357232"><ele>195.0</ele><time>2026-05-04T11:44:19Z</time></trkpt><trkpt lat="43.32610016454286" lon="11.422484096648848"><ele>195.6</ele><time>2026-05-04T11:44:20Z</time></trkpt><trkpt lat="43.32611751871367" lon="11.422336087469853"><ele>196.2</ele><time>2026-05-04T11:44:21Z</time></trkpt><trkpt lat="43.326137471863134" lon="11.422200764981522"><ele>196.8</ele><time>2026-05-04T11:44:22Z</time></trkpt><trkpt lat="43.326142730232036" lon="11.422081350656889"><ele>197.4</ele><time>2026-05-04T11:44:23Z</time></trkpt><trkpt lat="43.3261281816685" lon="11.421958545137677"><ele>198.0</ele><time>2026-05-04T11:44:24Z</time></trkpt><trkpt lat="43.32606135496159" lon="11.421871912273259"><ele>198.0</ele><time>2026-05-04T11:44:25Z</time></trkpt><trkpt lat="43.32598174988916" lon="11.421855964261395"><ele>198.0</ele><time>2026-05-04T11:44:26Z</time></trkpt><trkpt lat="43.325901673103175" lon="11.422031747604105"><ele>198.0</ele><time>2026-05-04T11:44:28Z</time></trkpt><trkpt lat="43.325900345548995" lon="11.422132236461362"><ele>198.0</ele><time>2026-05-04T11:44:29Z</time></trkpt><trkpt lat="43.32590954245596" lon="11.422267356500088"><ele>198.0</ele><time>2026-05-04T11:44:30Z</time></trkpt><trkpt lat="43.32592518481392" lon="11.422439893435996"><ele>198.0</ele><time>2026-05-04T11:44:31Z</time></trkpt><trkpt lat="43.3259341799564" lon="11.422639771158696"><ele>198.0</ele><time>2026-05-04T11:44:32Z</time></trkpt><trkpt lat="43.32594208446293" lon="11.42284901064304"><ele>198.0</ele><time>2026-05-04T11:44:33Z</time></trkpt><trkpt lat="43.325950039715664" lon="11.423071483612109"><ele>197.0</ele><time>2026-05-04T11:44:34Z</time></trkpt><trkpt lat="43.32600000279181" lon="11.42329823756742"><ele>196.0</ele><time>2026-05-04T11:44:35Z</time></trkpt><trkpt lat="43.326062814498435" lon="11.423512020730563"><ele>195.0</ele><time>2026-05-04T11:44:36Z</time></trkpt><trkpt lat="43.32610526822607" lon="11.423736020625645"><ele>195.25</ele><time>2026-05-04T11:44:37Z</time></trkpt><trkpt lat="43.32614907536808" lon="11.423924442780413"><ele>195.5</ele><time>2026-05-04T11:44:38Z</time></trkpt><trkpt lat="43.326174716515226" lon="11.424093059675469"><ele>195.75</ele><time>2026-05-04T11:44:39Z</time></trkpt><trkpt lat="43.32618447944536" lon="11.4242597783573"><ele>196.0</ele><time>2026-05-04T11:44:40Z</time></trkpt><trkpt lat="43.32617468486328" lon="11.424446128743652"><ele>196.0</ele><time>2026-05-04T11:44:41Z</time></trkpt><trkpt lat="43.32614295830319" lon="11.424630313833832"><ele>196.0</ele><time>2026-05-04T11:44:42Z</time></trkpt><trkpt lat="43.32609118581854" lon="11.424818119913898"><ele>196.0</ele><time>2026-05-04T11:44:43Z</time></trkpt><trkpt lat="43.32600124128083" lon="11.424986555802729"><ele>196.0</ele><time>2026-05-04T11:44:44Z</time></trkpt><trkpt lat="43.325889961219865" lon="11.425133985702939"><ele>195.66666666666666</ele><time>2026-05-04T11:44:45Z</time></trkpt><trkpt lat="43.32575117721294" lon="11.425260161331018"><ele>195.33333333333331</ele><time>2026-05-04T11:44:46Z</time></trkpt><trkpt lat="43.32559888810247" lon="11.425364609865587"><ele>195.0</ele><time>2026-05-04T11:44:47Z</time></trkpt><trkpt lat="43.325428034685416" lon="11.42547261958789"><ele>195.33333333333331</ele><time>2026-05-04T11:44:48Z</time></trkpt><trkpt lat="43.32526530918833" lon="11.425588260780373"><ele>195.66666666666666</ele><time>2026-05-04T11:44:49Z</time></trkpt><trkpt lat="43.32508588165865" lon="11.425691883099704"><ele>196.0</ele><time>2026-05-04T11:44:50Z</time></trkpt><trkpt lat="43.32490213897537" lon="11.425808312284834"><ele>197.0</ele><time>2026-05-04T11:44:51Z</time></trkpt><trkpt lat="43.324710584764176" lon="11.42590270500147"><ele>198.0</ele><time>2026-05-04T11:44:52Z</time></trkpt><trkpt lat="43.324528225581204" lon="11.426040626646238"><ele>199.0</ele><time>2026-05-04T11:44:53Z</time></trkpt><trkpt lat="43.324348834779855" lon="11.42614633107384"><ele>199.0</ele><time>2026-05-04T11:44:54Z</time></trkpt><trkpt lat="43.324195972775" lon="11.426225694316893"><ele>199.0</ele><time>2026-05-04T11:44:55Z</time></trkpt><trkpt lat="43.32405004672947" lon="11.426215778134097"><ele>199.0</ele><time>2026-05-04T11:44:56Z</time></trkpt><trkpt lat="43.32390650471754" lon="11.426178193524446"><ele>200.66666666666666</ele><time>2026-05-04T11:44:57Z</time></trkpt><trkpt lat="43.32375975503263" lon="11.426118432394956"><ele>202.33333333333331</ele><time>2026-05-04T11:44:58Z</time></trkpt><trkpt lat="43.32360641370242" lon="11.426049533245664"><ele>204.0</ele><time>2026-05-04T11:44:59Z</time></trkpt><trkpt lat="43.323468771327086" lon="11.426038223872236"><ele>204.0</ele><time>2026-05-04T11:45:00Z</time></trkpt><trkpt lat="43.32335069849474" lon="11.42605258182263"><ele>204.0</ele><time>2026-05-04T11:45:01Z</time></trkpt><trkpt lat="43.32324936142692" lon="11.426109891178072"><ele>204.0</ele><time>2026-05-04T11:45:02Z</time></trkpt><trkpt lat="43.32317312901591" lon="11.426214003933248"><ele>204.0</ele><time>2026-05-04T11:45:03Z</time></trkpt><trkpt lat="43.323129853068814" lon="11.426367296459652"><ele>206.5</ele><time>2026-05-04T11:45:04Z</time></trkpt><trkpt lat="43.32313357578203" lon="11.426539493731806"><ele>209.0</ele><time>2026-05-04T11:45:05Z</time></trkpt><trkpt lat="43.32318027841078" lon="11.426729372157814"><ele>211.5</ele><time>2026-05-04T11:45:06Z</time></trkpt><trkpt lat="43.32325486061338" lon="11.42692248090248"><ele>214.0</ele><time>2026-05-04T11:45:07Z</time></trkpt><trkpt lat="43.323307000914994" lon="11.427142698931286"><ele>215.25</ele><time>2026-05-04T11:45:08Z</time></trkpt><trkpt lat="43.323366411373" lon="11.427353132848744"><ele>216.5</ele><time>2026-05-04T11:45:09Z</time></trkpt><trkpt lat="43.32339682286587" lon="11.427531552742671"><ele>217.75</ele><time>2026-05-04T11:45:10Z</time></trkpt><trkpt lat="43.32339162606789" lon="11.427698724759967"><ele>219.0</ele><time>2026-05-04T11:45:11Z</time></trkpt><trkpt lat="43.32336062109344" lon="11.427886017982665"><ele>220.33333333333331</ele><time>2026-05-04T11:45:12Z</time></trkpt><trkpt lat="43.323320691693105" lon="11.428084256291397"><ele>221.66666666666666</ele><time>2026-05-04T11:45:13Z</time></trkpt><trkpt lat="43.32327598668205" lon="11.428298578524448"><ele>223.0</ele><time>2026-05-04T11:45:14Z</time></trkpt><trkpt lat="43.32322882394279" lon="11.428524306400343"><ele>223.0</ele><time>2026-05-04T11:45:15Z</time></trkpt><trkpt lat="43.32317183642013" lon="11.428758796724706"><ele>223.0</ele><time>2026-05-04T11:45:16Z</time></trkpt><trkpt lat="43.32310007174411" lon="11.428996566100622"><ele>223.0</ele><time>2026-05-04T11:45:17Z</time></trkpt><trkpt lat="43.323027230220106" lon="11.429225083854906"><ele>222.5</ele><time>2026-05-04T11:45:18Z</time></trkpt><trkpt lat="43.322974002439715" lon="11.429441901074295"><ele>222.0</ele><time>2026-05-04T11:45:19Z</time></trkpt><trkpt lat="43.32291673068082" lon="11.42960561156113"><ele>221.5</ele><time>2026-05-04T11:45:20Z</time></trkpt><trkpt lat="43.32286803101366" lon="11.429751719132451"><ele>221.0</ele><time>2026-05-04T11:45:21Z</time></trkpt><trkpt lat="43.32283226055319" lon="11.429907484729483"><ele>221.60000000000002</ele><time>2026-05-04T11:45:22Z</time></trkpt><trkpt lat="43.32281368297359" lon="11.430075400219119"><ele>222.20000000000002</ele><time>2026-05-04T11:45:23Z</time></trkpt><trkpt lat="43.32280481892382" lon="11.430233356888817"><ele>222.79999999999998</ele><time>2026-05-04T11:45:24Z</time></trkpt><trkpt lat="43.32278531984674" lon="11.430368425781221"><ele>223.39999999999998</ele><time>2026-05-04T11:45:25Z</time></trkpt><trkpt lat="43.322780477897695" lon="11.430483201790409"><ele>224.0</ele><time>2026-05-04T11:45:26Z</time></trkpt><trkpt lat="43.32277610187805" lon="11.430586933354101"><ele>224.0</ele><time>2026-05-04T11:45:27Z</time></trkpt><trkpt lat="43.322746414908885" lon="11.430693571695791"><ele>223.99999999999997</ele><time>2026-05-04T11:45:29Z</time></trkpt><trkpt lat="43.322640825017004" lon="11.430687659944212"><ele>223.99999999999997</ele><time>2026-05-04T11:45:31Z</time></trkpt><trkpt lat="43.32253851616802" lon="11.430636435535959"><ele>224.0</ele><time>2026-05-04T11:45:32Z</time></trkpt><trkpt lat="43.322423906037976" lon="11.430584774336685"><ele>224.0</ele><time>2026-05-04T11:45:33Z</time></trkpt><trkpt lat="43.32229777618359" lon="11.430538640097307"><ele>222.66666666666669</ele><time>2026-05-04T11:45:34Z</time></trkpt><trkpt lat="43.3221494602106" lon="11.430486942849248"><ele>221.33333333333331</ele><time>2026-05-04T11:45:35Z</time></trkpt><trkpt lat="43.32198572160803" lon="11.430433643894323"><ele>220.0</ele><time>2026-05-04T11:45:36Z</time></trkpt><trkpt lat="43.321813368927145" lon="11.430375361497534"><ele>220.0</ele><time>2026-05-04T11:45:37Z</time></trkpt><trkpt lat="43.32162508086234" lon="11.430313498660286"><ele>220.0</ele><time>2026-05-04T11:45:38Z</time></trkpt><trkpt lat="43.32143356725622" lon="11.430245375828237"><ele>220.0</ele><time>2026-05-04T11:45:39Z</time></trkpt><trkpt lat="43.32123231729544" lon="11.430172077578801"><ele>219.66666666666666</ele><time>2026-05-04T11:45:40Z</time></trkpt><trkpt lat="43.32102250448428" lon="11.430096855569525"><ele>219.33333333333331</ele><time>2026-05-04T11:45:41Z</time></trkpt><trkpt lat="43.32080682687051" lon="11.430021604240673"><ele>219.0</ele><time>2026-05-04T11:45:42Z</time></trkpt><trkpt lat="43.32058347963316" lon="11.429943940675876"><ele>217.0</ele><time>2026-05-04T11:45:43Z</time></trkpt><trkpt lat="43.32035617362104" lon="11.429867287571842"><ele>215.0</ele><time>2026-05-04T11:45:44Z</time></trkpt><trkpt lat="43.32012521268487" lon="11.429789084687007"><ele>215.0</ele><time>2026-05-04T11:45:45Z</time></trkpt><trkpt lat="43.319892915711144" lon="11.429708951658714"><ele>215.0</ele><time>2026-05-04T11:45:46Z</time></trkpt><trkpt lat="43.31965721776315" lon="11.429627183512002"><ele>216.0</ele><time>2026-05-04T11:45:47Z</time></trkpt><trkpt lat="43.31941900018383" lon="11.429544174189207"><ele>217.0</ele><time>2026-05-04T11:45:48Z</time></trkpt><trkpt lat="43.31917365172132" lon="11.429460087700372"><ele>217.0</ele><time>2026-05-04T11:45:49Z</time></trkpt><trkpt lat="43.31893313712804" lon="11.429377065116018"><ele>217.0</ele><time>2026-05-04T11:45:50Z</time></trkpt><trkpt lat="43.31869346554906" lon="11.42929212775165"><ele>218.0</ele><time>2026-05-04T11:45:51Z</time></trkpt><trkpt lat="43.318449283659085" lon="11.429205063259076"><ele>219.0</ele><time>2026-05-04T11:45:52Z</time></trkpt><trkpt lat="43.3182012172273" lon="11.429116722551342"><ele>219.0</ele><time>2026-05-04T11:45:53Z</time></trkpt><trkpt lat="43.31795275819362" lon="11.429032167208895"><ele>219.0</ele><time>2026-05-04T11:45:54Z</time></trkpt><trkpt lat="43.31770392381954" lon="11.428950646205221"><ele>219.0</ele><time>2026-05-04T11:45:55Z</time></trkpt><trkpt lat="43.31745625805584" lon="11.428874842546747"><ele>219.0</ele><time>2026-05-04T11:45:56Z</time></trkpt><trkpt lat="43.31721008950821" lon="11.428807549209738"><ele>219.5</ele><time>2026-05-04T11:45:57Z</time></trkpt><trkpt lat="43.31695338484783" lon="11.428745237714937"><ele>220.0</ele><time>2026-05-04T11:45:58Z</time></trkpt><trkpt lat="43.31670022985872" lon="11.428682129135666"><ele>220.0</ele><time>2026-05-04T11:45:59Z</time></trkpt><trkpt lat="43.3164477982323" lon="11.428615891621824"><ele>220.0</ele><time>2026-05-04T11:46:00Z</time></trkpt><trkpt lat="43.31620528910732" lon="11.428551411788911"><ele>219.0</ele><time>2026-05-04T11:46:01Z</time></trkpt><trkpt lat="43.31596994996073" lon="11.42849072770641"><ele>218.0</ele><time>2026-05-04T11:46:02Z</time></trkpt><trkpt lat="43.31574918914135" lon="11.428437588112583"><ele>218.66666666666669</ele><time>2026-05-04T11:46:03Z</time></trkpt><trkpt lat="43.315536261609786" lon="11.428385416782836"><ele>219.33333333333331</ele><time>2026-05-04T11:46:04Z</time></trkpt><trkpt lat="43.31533371715617" lon="11.42833780374913"><ele>220.0</ele><time>2026-05-04T11:46:05Z</time></trkpt><trkpt lat="43.31514124092699" lon="11.428283802493972"><ele>220.0</ele><time>2026-05-04T11:46:06Z</time></trkpt><trkpt lat="43.3149552619655" lon="11.428202856428303"><ele>220.0</ele><time>2026-05-04T11:46:07Z</time></trkpt><trkpt lat="43.31478385293241" lon="11.42807282439616"><ele>220.0</ele><time>2026-05-04T11:46:08Z</time></trkpt><trkpt lat="43.31461557901953" lon="11.427912632474179"><ele>220.33333333333331</ele><time>2026-05-04T11:46:09Z</time></trkpt><trkpt lat="43.31445791956233" lon="11.42771373153309"><ele>220.66666666666669</ele><time>2026-05-04T11:46:10Z</time></trkpt><trkpt lat="43.3142718895517" lon="11.427537060646134"><ele>221.0</ele><time>2026-05-04T11:46:11Z</time></trkpt><trkpt lat="43.31409982432761" lon="11.427317637317755"><ele>220.0</ele><time>2026-05-04T11:46:12Z</time></trkpt><trkpt lat="43.31392955422915" lon="11.427128326204715"><ele>219.0</ele><time>2026-05-04T11:46:13Z</time></trkpt><trkpt lat="43.3137466651327" lon="11.426925438104425"><ele>219.0</ele><time>2026-05-04T11:46:14Z</time></trkpt><trkpt lat="43.313548668066545" lon="11.426732517155674"><ele>219.0</ele><time>2026-05-04T11:46:15Z</time></trkpt><trkpt lat="43.31336238585135" lon="11.426513880013497"><ele>219.0</ele><time>2026-05-04T11:46:16Z</time></trkpt><trkpt lat="43.31317203262232" lon="11.426295545182528"><ele>219.0</ele><time>2026-05-04T11:46:17Z</time></trkpt><trkpt lat="43.312979102514866" lon="11.426076398620445"><ele>219.0</ele><time>2026-05-04T11:46:18Z</time></trkpt><trkpt lat="43.31278220116547" lon="11.42585333766126"><ele>219.0</ele><time>2026-05-04T11:46:19Z</time></trkpt><trkpt lat="43.31258822669836" lon="11.425638852004806"><ele>218.0</ele><time>2026-05-04T11:46:20Z</time></trkpt><trkpt lat="43.312395298479984" lon="11.425422966234544"><ele>217.0</ele><time>2026-05-04T11:46:21Z</time></trkpt><trkpt lat="43.31218089542859" lon="11.42518461323192"><ele>217.0</ele><time>2026-05-04T11:46:22Z</time></trkpt><trkpt lat="43.3119794070435" lon="11.424960700511157"><ele>217.0</ele><time>2026-05-04T11:46:23Z</time></trkpt><trkpt lat="43.311774198954566" lon="11.424740804752693"><ele>217.5</ele><time>2026-05-04T11:46:24Z</time></trkpt><trkpt lat="43.31157245271566" lon="11.42452426094043"><ele>218.0</ele><time>2026-05-04T11:46:25Z</time></trkpt><trkpt lat="43.31136657143211" lon="11.424303529631093"><ele>216.5</ele><time>2026-05-04T11:46:26Z</time></trkpt><trkpt lat="43.31116185009941" lon="11.424084250243107"><ele>215.0</ele><time>2026-05-04T11:46:27Z</time></trkpt><trkpt lat="43.31096253166154" lon="11.423866630393505"><ele>214.0</ele><time>2026-05-04T11:46:28Z</time></trkpt><trkpt lat="43.310772072916585" lon="11.423662576687239"><ele>213.0</ele><time>2026-05-04T11:46:29Z</time></trkpt><trkpt lat="43.31059307507193" lon="11.423474376840359"><ele>212.66666666666669</ele><time>2026-05-04T11:46:30Z</time></trkpt><trkpt lat="43.31043933359994" lon="11.423309495942632"><ele>212.33333333333334</ele><time>2026-05-04T11:46:31Z</time></trkpt><trkpt lat="43.31030477759384" lon="11.423161606612382"><ele>212.0</ele><time>2026-05-04T11:46:32Z</time></trkpt><trkpt lat="43.31018098758155" lon="11.42302616911984"><ele>211.75</ele><time>2026-05-04T11:46:33Z</time></trkpt><trkpt lat="43.3100598298843" lon="11.422908393080691"><ele>211.5</ele><time>2026-05-04T11:46:34Z</time></trkpt><trkpt lat="43.30993591702686" lon="11.422846756770856"><ele>211.25</ele><time>2026-05-04T11:46:35Z</time></trkpt><trkpt lat="43.30979532517839" lon="11.42285706480089"><ele>211.0</ele><time>2026-05-04T11:46:36Z</time></trkpt><trkpt lat="43.309657141180836" lon="11.422833060941889"><ele>211.0</ele><time>2026-05-04T11:46:37Z</time></trkpt><trkpt lat="43.309510625948896" lon="11.422825714616712"><ele>211.0</ele><time>2026-05-04T11:46:38Z</time></trkpt><trkpt lat="43.30932400623275" lon="11.423298197681182"><ele>210.0</ele><time>2026-05-04T11:46:39Z</time></trkpt><trkpt lat="43.309139147775895" lon="11.42350456867908"><ele>209.0</ele><time>2026-05-04T11:46:40Z</time></trkpt><trkpt lat="43.30893563522135" lon="11.423717007611192"><ele>202.5</ele><time>2026-05-04T11:46:41Z</time></trkpt><trkpt lat="43.30871364355617" lon="11.423942792599036"><ele>196.0</ele><time>2026-05-04T11:46:42Z</time></trkpt><trkpt lat="43.308495450824466" lon="11.424161021101437"><ele>196.0</ele><time>2026-05-04T11:46:43Z</time></trkpt><trkpt lat="43.30828445422086" lon="11.424378375261137"><ele>196.0</ele><time>2026-05-04T11:46:44Z</time></trkpt><trkpt lat="43.30808781479159" lon="11.424589536673716"><ele>192.5</ele><time>2026-05-04T11:46:45Z</time></trkpt><trkpt lat="43.30790282373445" lon="11.424803030166451"><ele>189.0</ele><time>2026-05-04T11:46:46Z</time></trkpt><trkpt lat="43.30773433442936" lon="11.4250244009148"><ele>189.0</ele><time>2026-05-04T11:46:47Z</time></trkpt><trkpt lat="43.30758584586055" lon="11.425261849398234"><ele>189.0</ele><time>2026-05-04T11:46:47.999Z</time></trkpt><trkpt lat="43.30746145654735" lon="11.425509757957743"><ele>189.0</ele><time>2026-05-04T11:46:48.999Z</time></trkpt><trkpt lat="43.307341181404496" lon="11.425772638341925"><ele>189.0</ele><time>2026-05-04T11:46:49.999Z</time></trkpt><trkpt lat="43.30721681939185" lon="11.426036258701554"><ele>189.0</ele><time>2026-05-04T11:46:50.999Z</time></trkpt><trkpt lat="43.30709611046154" lon="11.426286240148201"><ele>189.0</ele><time>2026-05-04T11:46:51.999Z</time></trkpt><trkpt lat="43.306983477508055" lon="11.426506056102854"><ele>189.0</ele><time>2026-05-04T11:46:52.999Z</time></trkpt><trkpt lat="43.306872640354605" lon="11.426707532451216"><ele>189.0</ele><time>2026-05-04T11:46:53.999Z</time></trkpt><trkpt lat="43.306756866241685" lon="11.426873683872449"><ele>189.0</ele><time>2026-05-04T11:46:54.999Z</time></trkpt><trkpt lat="43.30663985034795" lon="11.427011113804664"><ele>189.0</ele><time>2026-05-04T11:46:55.999Z</time></trkpt><trkpt lat="43.306536607716694" lon="11.427116770809231"><ele>189.0</ele><time>2026-05-04T11:46:56.999Z</time></trkpt><trkpt lat="43.306448096272554" lon="11.427206506205408"><ele>189.0</ele><time>2026-05-04T11:46:57.999Z</time></trkpt><trkpt lat="43.30637484622626" lon="11.427279302055974"><ele>189.0</ele><time>2026-05-04T11:46:58.999Z</time></trkpt><trkpt lat="43.306303047860624" lon="11.427332352243468"><ele>189.0</ele><time>2026-05-04T11:46:59.999Z</time></trkpt><trkpt lat="43.30622950753394" lon="11.427425415689399"><ele>190.25</ele><time>2026-05-04T11:47:00.999Z</time></trkpt><trkpt lat="43.30619960117791" lon="11.427563274136062"><ele>191.5</ele><time>2026-05-04T11:47:01.999Z</time></trkpt><trkpt lat="43.306141392555965" lon="11.427695486873674"><ele>192.75</ele><time>2026-05-04T11:47:02.999Z</time></trkpt><trkpt lat="43.30604684440164" lon="11.427796219508204"><ele>194.0</ele><time>2026-05-04T11:47:03.999Z</time></trkpt><trkpt lat="43.30593212556932" lon="11.427868910219333"><ele>194.0</ele><time>2026-05-04T11:47:04.999Z</time></trkpt><trkpt lat="43.30580248107444" lon="11.427918116282434"><ele>194.0</ele><time>2026-05-04T11:47:05.999Z</time></trkpt><trkpt lat="43.30565624967979" lon="11.427937422946512"><ele>194.0</ele><time>2026-05-04T11:47:06.999Z</time></trkpt><trkpt lat="43.305498646720444" lon="11.427949100060198"><ele>194.0</ele><time>2026-05-04T11:47:07.999Z</time></trkpt><trkpt lat="43.30533090872046" lon="11.427965506728526"><ele>195.66666666666669</ele><time>2026-05-04T11:47:08.999Z</time></trkpt><trkpt lat="43.30516374520632" lon="11.427985371475227"><ele>197.33333333333331</ele><time>2026-05-04T11:47:09.999Z</time></trkpt><trkpt lat="43.30500215959747" lon="11.428010865175983"><ele>199.0</ele><time>2026-05-04T11:47:11Z</time></trkpt><trkpt lat="43.3048403269072" lon="11.428040764926005"><ele>198.75</ele><time>2026-05-04T11:47:12Z</time></trkpt><trkpt lat="43.30469677397618" lon="11.428060378878616"><ele>198.5</ele><time>2026-05-04T11:47:13Z</time></trkpt><trkpt lat="43.30456766354893" lon="11.428050297970543"><ele>198.25</ele><time>2026-05-04T11:47:14Z</time></trkpt><trkpt lat="43.30442655896822" lon="11.427995383251167"><ele>198.0</ele><time>2026-05-04T11:47:15Z</time></trkpt><trkpt lat="43.304278191659215" lon="11.427915309541333"><ele>198.0</ele><time>2026-05-04T11:47:16Z</time></trkpt><trkpt lat="43.30413927469528" lon="11.427837217726248"><ele>198.0</ele><time>2026-05-04T11:47:17Z</time></trkpt><trkpt lat="43.30402339656229" lon="11.427778295765448"><ele>198.0</ele><time>2026-05-04T11:47:18Z</time></trkpt><trkpt lat="43.30391536550699" lon="11.427717550064035"><ele>198.0</ele><time>2026-05-04T11:47:19Z</time></trkpt><trkpt lat="43.30382735820828" lon="11.427646425107518"><ele>198.0</ele><time>2026-05-04T11:47:20Z</time></trkpt><trkpt lat="43.30377341870789" lon="11.427570289217913"><ele>198.0</ele><time>2026-05-04T11:47:21Z</time></trkpt><trkpt lat="43.30372359505421" lon="11.427454587990933"><ele>198.0</ele><time>2026-05-04T11:47:22Z</time></trkpt><trkpt lat="43.30366985815229" lon="11.427308628340818"><ele>198.0</ele><time>2026-05-04T11:47:23Z</time></trkpt><trkpt lat="43.3036143263169" lon="11.427140881470727"><ele>198.0</ele><time>2026-05-04T11:47:24Z</time></trkpt><trkpt lat="43.30355799862067" lon="11.42695167103956"><ele>198.66666666666669</ele><time>2026-05-04T11:47:25Z</time></trkpt><trkpt lat="43.3034958004812" lon="11.426748938236285"><ele>199.33333333333334</ele><time>2026-05-04T11:47:26Z</time></trkpt><trkpt lat="43.303430168698206" lon="11.426532005379206"><ele>200.0</ele><time>2026-05-04T11:47:27Z</time></trkpt><trkpt lat="43.3033636716297" lon="11.4263089613911"><ele>201.33333333333334</ele><time>2026-05-04T11:47:28Z</time></trkpt><trkpt lat="43.30329313846231" lon="11.42605521051623"><ele>202.66666666666669</ele><time>2026-05-04T11:47:29Z</time></trkpt><trkpt lat="43.30321074792965" lon="11.425757828778632"><ele>204.0</ele><time>2026-05-04T11:47:30Z</time></trkpt><trkpt lat="43.30313802374303" lon="11.42545383695576"><ele>204.0</ele><time>2026-05-04T11:47:31Z</time></trkpt><trkpt lat="43.30307700918278" lon="11.425197380975519"><ele>204.0</ele><time>2026-05-04T11:47:32Z</time></trkpt><trkpt lat="43.303002452816976" lon="11.424988001110018"><ele>204.0</ele><time>2026-05-04T11:47:33Z</time></trkpt><trkpt lat="43.30289550809322" lon="11.424822692498797"><ele>204.0</ele><time>2026-05-04T11:47:34Z</time></trkpt><trkpt lat="43.30275277021618" lon="11.424714595880431"><ele>204.0</ele><time>2026-05-04T11:47:35Z</time></trkpt><trkpt lat="43.30258193773857" lon="11.424670588067857"><ele>204.0</ele><time>2026-05-04T11:47:36Z</time></trkpt><trkpt lat="43.3024014998552" lon="11.424688720300141"><ele>206.33333333333331</ele><time>2026-05-04T11:47:37Z</time></trkpt><trkpt lat="43.3022307760627" lon="11.424772322902013"><ele>208.66666666666666</ele><time>2026-05-04T11:47:38Z</time></trkpt><trkpt lat="43.302065842767455" lon="11.424883467240651"><ele>211.0</ele><time>2026-05-04T11:47:39Z</time></trkpt><trkpt lat="43.30191286782332" lon="11.424910866757388"><ele>211.0</ele><time>2026-05-04T11:47:40Z</time></trkpt><trkpt lat="43.301763648646556" lon="11.424868220434647"><ele>211.0</ele><time>2026-05-04T11:47:41Z</time></trkpt><trkpt lat="43.301654951663885" lon="11.424766218053303"><ele>211.0</ele><time>2026-05-04T11:47:42Z</time></trkpt><trkpt lat="43.30158708223942" lon="11.424604942582802"><ele>211.0</ele><time>2026-05-04T11:47:43Z</time></trkpt><trkpt lat="43.30155471294592" lon="11.424404255793887"><ele>212.0</ele><time>2026-05-04T11:47:44Z</time></trkpt><trkpt lat="43.30151429654818" lon="11.424197269213396"><ele>213.0</ele><time>2026-05-04T11:47:45Z</time></trkpt><trkpt lat="43.30145551890502" lon="11.424018535289383"><ele>214.0</ele><time>2026-05-04T11:47:46Z</time></trkpt><trkpt lat="43.30139295721282" lon="11.423867937445724"><ele>215.0</ele><time>2026-05-04T11:47:47Z</time></trkpt><trkpt lat="43.301305351802654" lon="11.42370125336422"><ele>215.66666666666669</ele><time>2026-05-04T11:47:48Z</time></trkpt><trkpt lat="43.3011864317397" lon="11.423526813863202"><ele>216.33333333333331</ele><time>2026-05-04T11:47:49Z</time></trkpt><trkpt lat="43.30105332089484" lon="11.42334974296729"><ele>217.0</ele><time>2026-05-04T11:47:50Z</time></trkpt><trkpt lat="43.30091225371433" lon="11.423172258891997"><ele>217.0</ele><time>2026-05-04T11:47:51Z</time></trkpt><trkpt lat="43.30075844740114" lon="11.422985074071063"><ele>217.0</ele><time>2026-05-04T11:47:52Z</time></trkpt><trkpt lat="43.30060012105714" lon="11.422781653191048"><ele>217.0</ele><time>2026-05-04T11:47:53Z</time></trkpt><trkpt lat="43.30044165885048" lon="11.422572004635708"><ele>219.0</ele><time>2026-05-04T11:47:54Z</time></trkpt><trkpt lat="43.300281059610214" lon="11.422364872266087"><ele>221.0</ele><time>2026-05-04T11:47:55Z</time></trkpt><trkpt lat="43.30010320607361" lon="11.422140710747898"><ele>217.5</ele><time>2026-05-04T11:47:56Z</time></trkpt><trkpt lat="43.29992546052402" lon="11.421931043888899"><ele>214.0</ele><time>2026-05-04T11:47:57Z</time></trkpt><trkpt lat="43.29974120836633" lon="11.421721066420265"><ele>214.0</ele><time>2026-05-04T11:47:58Z</time></trkpt><trkpt lat="43.299557501934984" lon="11.421509527763346"><ele>214.0</ele><time>2026-05-04T11:47:59Z</time></trkpt><trkpt lat="43.29938094107144" lon="11.421305698610814"><ele>213.33333333333331</ele><time>2026-05-04T11:48:00Z</time></trkpt><trkpt lat="43.299213431962514" lon="11.42112217450029"><ele>212.66666666666669</ele><time>2026-05-04T11:48:01Z</time></trkpt><trkpt lat="43.29906916956219" lon="11.420956507601653"><ele>212.0</ele><time>2026-05-04T11:48:02Z</time></trkpt><trkpt lat="43.29894394588164" lon="11.420781694342853"><ele>211.66666666666669</ele><time>2026-05-04T11:48:03Z</time></trkpt><trkpt lat="43.29885761981952" lon="11.420591296502556"><ele>211.33333333333331</ele><time>2026-05-04T11:48:04Z</time></trkpt><trkpt lat="43.29879480039321" lon="11.420360081480256"><ele>211.0</ele><time>2026-05-04T11:48:05Z</time></trkpt><trkpt lat="43.29878485892016" lon="11.420104918510022"><ele>211.0</ele><time>2026-05-04T11:48:06Z</time></trkpt><trkpt lat="43.29875952964982" lon="11.419846639543213"><ele>211.0</ele><time>2026-05-04T11:48:07Z</time></trkpt><trkpt lat="43.29876647106248" lon="11.419564483089543"><ele>211.0</ele><time>2026-05-04T11:48:08Z</time></trkpt><trkpt lat="43.298786017442985" lon="11.41927103008988"><ele>210.66666666666666</ele><time>2026-05-04T11:48:09Z</time></trkpt><trkpt lat="43.29881080590839" lon="11.418982346710925"><ele>210.33333333333331</ele><time>2026-05-04T11:48:10Z</time></trkpt><trkpt lat="43.29883737739773" lon="11.418682248550255"><ele>210.0</ele><time>2026-05-04T11:48:11Z</time></trkpt><trkpt lat="43.298860120425914" lon="11.418395115991842"><ele>209.0</ele><time>2026-05-04T11:48:12Z</time></trkpt><trkpt lat="43.29888034893542" lon="11.418114484487317"><ele>208.0</ele><time>2026-05-04T11:48:13Z</time></trkpt><trkpt lat="43.29889322235383" lon="11.41785146357381"><ele>207.0</ele><time>2026-05-04T11:48:14Z</time></trkpt><trkpt lat="43.298884047927686" lon="11.417573059018725"><ele>205.66666666666669</ele><time>2026-05-04T11:48:15Z</time></trkpt><trkpt lat="43.29883804209175" lon="11.417285522779938"><ele>204.33333333333334</ele><time>2026-05-04T11:48:16Z</time></trkpt><trkpt lat="43.29877298742777" lon="11.41701215619959"><ele>203.0</ele><time>2026-05-04T11:48:17Z</time></trkpt><trkpt lat="43.29870226112001" lon="11.416722952530861"><ele>202.33333333333334</ele><time>2026-05-04T11:48:18Z</time></trkpt><trkpt lat="43.298626097982016" lon="11.416437278603262"><ele>201.66666666666669</ele><time>2026-05-04T11:48:19Z</time></trkpt><trkpt lat="43.29855214891787" lon="11.416150640983533"><ele>201.0</ele><time>2026-05-04T11:48:20Z</time></trkpt><trkpt lat="43.298478358358416" lon="11.415856948278966"><ele>200.5</ele><time>2026-05-04T11:48:21Z</time></trkpt><trkpt lat="43.29840582060356" lon="11.415559404041858"><ele>200.0</ele><time>2026-05-04T11:48:22Z</time></trkpt><trkpt lat="43.298332232739284" lon="11.415256342044687"><ele>200.0</ele><time>2026-05-04T11:48:23Z</time></trkpt><trkpt lat="43.29825492290546" lon="11.414953564230515"><ele>200.0</ele><time>2026-05-04T11:48:24Z</time></trkpt><trkpt lat="43.29817042466708" lon="11.41464772648895"><ele>200.5</ele><time>2026-05-04T11:48:25Z</time></trkpt><trkpt lat="43.29809266153141" lon="11.414313448385816"><ele>201.0</ele><time>2026-05-04T11:48:26Z</time></trkpt><trkpt lat="43.29801288275869" lon="11.414002087200801"><ele>199.33333333333331</ele><time>2026-05-04T11:48:27Z</time></trkpt><trkpt lat="43.29793608711972" lon="11.413707079728532"><ele>197.66666666666666</ele><time>2026-05-04T11:48:28Z</time></trkpt><trkpt lat="43.29787173332803" lon="11.413440223013579"><ele>196.0</ele><time>2026-05-04T11:48:29Z</time></trkpt><trkpt lat="43.29780606313487" lon="11.413171063610632"><ele>194.0</ele><time>2026-05-04T11:48:30Z</time></trkpt><trkpt lat="43.29772943928489" lon="11.412901355670552"><ele>192.0</ele><time>2026-05-04T11:48:31Z</time></trkpt><trkpt lat="43.297624543912484" lon="11.412649934301427"><ele>190.0</ele><time>2026-05-04T11:48:32Z</time></trkpt><trkpt lat="43.29748184284042" lon="11.412402190807708"><ele>189.66666666666669</ele><time>2026-05-04T11:48:33Z</time></trkpt><trkpt lat="43.29733691512464" lon="11.412152554767731"><ele>189.33333333333334</ele><time>2026-05-04T11:48:34Z</time></trkpt><trkpt lat="43.297209303347245" lon="11.411939105219481"><ele>189.0</ele><time>2026-05-04T11:48:35Z</time></trkpt><trkpt lat="43.29709279387517" lon="11.411735106644963"><ele>189.0</ele><time>2026-05-04T11:48:36Z</time></trkpt><trkpt lat="43.296981073302206" lon="11.41152705774292"><ele>189.0</ele><time>2026-05-04T11:48:37Z</time></trkpt><trkpt lat="43.29685467987281" lon="11.41129898863235"><ele>189.0</ele><time>2026-05-04T11:48:38Z</time></trkpt><trkpt lat="43.296718820268886" lon="11.411064360425678"><ele>188.66666666666666</ele><time>2026-05-04T11:48:39Z</time></trkpt><trkpt lat="43.296597219510666" lon="11.410855999439333"><ele>188.33333333333331</ele><time>2026-05-04T11:48:40Z</time></trkpt><trkpt lat="43.2964797287168" lon="11.410661907979597"><ele>188.0</ele><time>2026-05-04T11:48:41Z</time></trkpt><trkpt lat="43.29635237090786" lon="11.410447048145073"><ele>188.0</ele><time>2026-05-04T11:48:42Z</time></trkpt><trkpt lat="43.29624135731689" lon="11.41019979743314"><ele>188.0</ele><time>2026-05-04T11:48:43Z</time></trkpt><trkpt lat="43.296110439269285" lon="11.409982589624715"><ele>188.0</ele><time>2026-05-04T11:48:44Z</time></trkpt><trkpt lat="43.295990657732496" lon="11.409769832066145"><ele>187.33333333333331</ele><time>2026-05-04T11:48:45Z</time></trkpt><trkpt lat="43.295872764361576" lon="11.409559506987394"><ele>186.66666666666666</ele><time>2026-05-04T11:48:46Z</time></trkpt><trkpt lat="43.295759083715076" lon="11.40935733442128"><ele>186.0</ele><time>2026-05-04T11:48:47Z</time></trkpt><trkpt lat="43.295638314912175" lon="11.409145096878433"><ele>186.33333333333334</ele><time>2026-05-04T11:48:48Z</time></trkpt><trkpt lat="43.29553168240483" lon="11.408958673103655"><ele>186.66666666666669</ele><time>2026-05-04T11:48:49Z</time></trkpt><trkpt lat="43.29543359214993" lon="11.408792287957693"><ele>187.0</ele><time>2026-05-04T11:48:50Z</time></trkpt><trkpt lat="43.295349856937484" lon="11.408638358822646"><ele>187.0</ele><time>2026-05-04T11:48:51Z</time></trkpt><trkpt lat="43.29527419003147" lon="11.408498468007105"><ele>187.0</ele><time>2026-05-04T11:48:52Z</time></trkpt><trkpt lat="43.29522826751653" lon="11.408407062352659"><ele>187.0</ele><time>2026-05-04T11:48:53Z</time></trkpt><trkpt lat="43.29517587356063" lon="11.408298758349972"><ele>187.0</ele><time>2026-05-04T11:48:54.999Z</time></trkpt><trkpt lat="43.29527453436332" lon="11.408565391817605"><ele>187.0</ele><time>2026-05-04T11:48:57.999Z</time></trkpt><trkpt lat="43.29522216407272" lon="11.408641006660776"><ele>187.0</ele><time>2026-05-04T11:48:59.999Z</time></trkpt><trkpt lat="43.295181572955826" lon="11.408833645717552"><ele>187.0</ele><time>2026-05-04T11:49:01.999Z</time></trkpt><trkpt lat="43.29517095085805" lon="11.408968074394032"><ele>187.0</ele><time>2026-05-04T11:49:02.999Z</time></trkpt><trkpt lat="43.295146830969" lon="11.409298252619712"><ele>187.2</ele><time>2026-05-04T11:49:03.999Z</time></trkpt><trkpt lat="43.29507969821703" lon="11.409455511734269"><ele>187.39999999999998</ele><time>2026-05-04T11:49:04.999Z</time></trkpt><trkpt lat="43.29501621875893" lon="11.40958050421137"><ele>187.60000000000002</ele><time>2026-05-04T11:49:05.999Z</time></trkpt><trkpt lat="43.2949643738227" lon="11.40966523130187"><ele>187.8</ele><time>2026-05-04T11:49:06.999Z</time></trkpt><trkpt lat="43.29488536981718" lon="11.40976147851765"><ele>188.0</ele><time>2026-05-04T11:49:07.999Z</time></trkpt><trkpt lat="43.29478322498658" lon="11.409859909444988"><ele>188.25</ele><time>2026-05-04T11:49:08.999Z</time></trkpt><trkpt lat="43.294682420459424" lon="11.409971062908648"><ele>188.5</ele><time>2026-05-04T11:49:09.999Z</time></trkpt><trkpt lat="43.29457511895624" lon="11.410102674066513"><ele>188.75</ele><time>2026-05-04T11:49:10.999Z</time></trkpt><trkpt lat="43.294463447265976" lon="11.410264582113834"><ele>189.0</ele><time>2026-05-04T11:49:11.999Z</time></trkpt><trkpt lat="43.294378828773596" lon="11.410459887575724"><ele>189.25</ele><time>2026-05-04T11:49:12.999Z</time></trkpt><trkpt lat="43.29433273174126" lon="11.410696920610686"><ele>189.5</ele><time>2026-05-04T11:49:13.999Z</time></trkpt><trkpt lat="43.29433768513117" lon="11.410891556685087"><ele>189.75</ele><time>2026-05-04T11:49:14.999Z</time></trkpt><trkpt lat="43.29436683542893" lon="11.411040280488605"><ele>190.0</ele><time>2026-05-04T11:49:15.999Z</time></trkpt><trkpt lat="43.29380335354688" lon="11.411323104762284"><ele>191.0</ele><time>2026-05-04T11:49:16.999Z</time></trkpt><trkpt lat="43.293682387218915" lon="11.411604619088681"><ele>192.0</ele><time>2026-05-04T11:49:17.999Z</time></trkpt><trkpt lat="43.29354768348718" lon="11.411913994665209"><ele>193.5</ele><time>2026-05-04T11:49:18.999Z</time></trkpt><trkpt lat="43.29340642918165" lon="11.412232025935277"><ele>195.0</ele><time>2026-05-04T11:49:19.999Z</time></trkpt><trkpt lat="43.293268991932536" lon="11.412569427033208"><ele>195.0</ele><time>2026-05-04T11:49:20.999Z</time></trkpt><trkpt lat="43.293129105081405" lon="11.412926325998972"><ele>195.0</ele><time>2026-05-04T11:49:21.999Z</time></trkpt><trkpt lat="43.292999901872925" lon="11.413259772919925"><ele>198.0</ele><time>2026-05-04T11:49:22.999Z</time></trkpt><trkpt lat="43.29288171142564" lon="11.41356691573368"><ele>201.0</ele><time>2026-05-04T11:49:23.999Z</time></trkpt><trkpt lat="43.29277298346824" lon="11.413857022418462"><ele>203.5</ele><time>2026-05-04T11:49:24.999Z</time></trkpt><trkpt lat="43.292677047296316" lon="11.414159483142107"><ele>206.0</ele><time>2026-05-04T11:49:25.999Z</time></trkpt><trkpt lat="43.29259626047454" lon="11.41445658012447"><ele>207.66666666666669</ele><time>2026-05-04T11:49:26.999Z</time></trkpt><trkpt lat="43.292534062930095" lon="11.414724860131525"><ele>209.33333333333331</ele><time>2026-05-04T11:49:27.999Z</time></trkpt><trkpt lat="43.29247886021483" lon="11.414962887297953"><ele>211.0</ele><time>2026-05-04T11:49:28.999Z</time></trkpt><trkpt lat="43.292426476859376" lon="11.415189258248603"><ele>211.0</ele><time>2026-05-04T11:49:29.999Z</time></trkpt><trkpt lat="43.29237972569272" lon="11.415415255445298"><ele>211.0</ele><time>2026-05-04T11:49:30.999Z</time></trkpt><trkpt lat="43.292336381636915" lon="11.415636573302423"><ele>211.0</ele><time>2026-05-04T11:49:31.999Z</time></trkpt><trkpt lat="43.29228025164967" lon="11.415854775521879"><ele>210.66666666666666</ele><time>2026-05-04T11:49:32.999Z</time></trkpt><trkpt lat="43.29219745308044" lon="11.416082442450673"><ele>210.33333333333331</ele><time>2026-05-04T11:49:34Z</time></trkpt><trkpt lat="43.29208355884899" lon="11.416324150711809"><ele>210.0</ele><time>2026-05-04T11:49:35Z</time></trkpt><trkpt lat="43.29196300360268" lon="11.416582733069362"><ele>206.5</ele><time>2026-05-04T11:49:36Z</time></trkpt><trkpt lat="43.29183822632347" lon="11.41686764559217"><ele>203.0</ele><time>2026-05-04T11:49:37Z</time></trkpt><trkpt lat="43.29171474041548" lon="11.417157493649434"><ele>201.5</ele><time>2026-05-04T11:49:38Z</time></trkpt><trkpt lat="43.291579204578895" lon="11.417466886364936"><ele>200.0</ele><time>2026-05-04T11:49:39Z</time></trkpt><trkpt lat="43.29143656442606" lon="11.417787145630443"><ele>198.5</ele><time>2026-05-04T11:49:40Z</time></trkpt><trkpt lat="43.29128651566403" lon="11.418124387290428"><ele>197.0</ele><time>2026-05-04T11:49:41Z</time></trkpt><trkpt lat="43.29114228582074" lon="11.418465533389961"><ele>197.0</ele><time>2026-05-04T11:49:42Z</time></trkpt><trkpt lat="43.291000446130475" lon="11.418806867090504"><ele>197.0</ele><time>2026-05-04T11:49:43Z</time></trkpt><trkpt lat="43.2908552406411" lon="11.419158710590926"><ele>199.0</ele><time>2026-05-04T11:49:44Z</time></trkpt><trkpt lat="43.29070866713338" lon="11.419510953158035"><ele>201.0</ele><time>2026-05-04T11:49:45Z</time></trkpt><trkpt lat="43.29056245872707" lon="11.419862722123133"><ele>202.0</ele><time>2026-05-04T11:49:46Z</time></trkpt><trkpt lat="43.29041680390766" lon="11.420206567520736"><ele>203.0</ele><time>2026-05-04T11:49:47Z</time></trkpt><trkpt lat="43.290263158799235" lon="11.420549571940105"><ele>204.0</ele><time>2026-05-04T11:49:48Z</time></trkpt><trkpt lat="43.29010688364057" lon="11.420866134460654"><ele>205.0</ele><time>2026-05-04T11:49:49Z</time></trkpt><trkpt lat="43.28994555437922" lon="11.421170255286484"><ele>207.5</ele><time>2026-05-04T11:49:50Z</time></trkpt><trkpt lat="43.28978852293855" lon="11.421456135106554"><ele>210.0</ele><time>2026-05-04T11:49:51Z</time></trkpt><trkpt lat="43.28962401966455" lon="11.421753672987437"><ele>212.0</ele><time>2026-05-04T11:49:52Z</time></trkpt><trkpt lat="43.28947167802468" lon="11.42202610728343"><ele>214.0</ele><time>2026-05-04T11:49:53Z</time></trkpt><trkpt lat="43.28931220627983" lon="11.422291174167738"><ele>215.0</ele><time>2026-05-04T11:49:54Z</time></trkpt><trkpt lat="43.28914638458142" lon="11.422535561839924"><ele>216.0</ele><time>2026-05-04T11:49:55Z</time></trkpt><trkpt lat="43.288986883991406" lon="11.422734081341769"><ele>215.0</ele><time>2026-05-04T11:49:56Z</time></trkpt><trkpt lat="43.288835101874746" lon="11.422907174346264"><ele>214.0</ele><time>2026-05-04T11:49:57Z</time></trkpt><trkpt lat="43.28870201645924" lon="11.4230720364512"><ele>213.0</ele><time>2026-05-04T11:49:58Z</time></trkpt><trkpt lat="43.28858838501923" lon="11.423219172576601"><ele>213.0</ele><time>2026-05-04T11:49:59Z</time></trkpt><trkpt lat="43.28849387679696" lon="11.42336520265895"><ele>213.0</ele><time>2026-05-04T11:50:00Z</time></trkpt><trkpt lat="43.288432824285664" lon="11.42352605652052"><ele>213.0</ele><time>2026-05-04T11:50:01Z</time></trkpt><trkpt lat="43.28842444779126" lon="11.423723504384256"><ele>213.0</ele><time>2026-05-04T11:50:02Z</time></trkpt><trkpt lat="43.28845762063412" lon="11.423947188012868"><ele>210.33333333333331</ele><time>2026-05-04T11:50:03Z</time></trkpt><trkpt lat="43.28851089063672" lon="11.424170179184825"><ele>207.66666666666666</ele><time>2026-05-04T11:50:04Z</time></trkpt><trkpt lat="43.288564869522" lon="11.424407834105645"><ele>205.0</ele><time>2026-05-04T11:50:05Z</time></trkpt><trkpt lat="43.28861174504148" lon="11.424666895838266"><ele>202.66666666666666</ele><time>2026-05-04T11:50:06Z</time></trkpt><trkpt lat="43.28866054967518" lon="11.42493613570646"><ele>200.33333333333331</ele><time>2026-05-04T11:50:07Z</time></trkpt><trkpt lat="43.28870155862234" lon="11.425190921346568"><ele>198.0</ele><time>2026-05-04T11:50:08Z</time></trkpt><trkpt lat="43.288733762476326" lon="11.425415576277645"><ele>196.33333333333331</ele><time>2026-05-04T11:50:09Z</time></trkpt><trkpt lat="43.28876614921596" lon="11.425621381681333"><ele>194.66666666666666</ele><time>2026-05-04T11:50:10Z</time></trkpt><trkpt lat="43.28879825796475" lon="11.425829077275363"><ele>193.0</ele><time>2026-05-04T11:50:11Z</time></trkpt><trkpt lat="43.288811685722415" lon="11.426039776915417"><ele>193.0</ele><time>2026-05-04T11:50:12Z</time></trkpt><trkpt lat="43.288785174520385" lon="11.426234868882545"><ele>193.0</ele><time>2026-05-04T11:50:13Z</time></trkpt><trkpt lat="43.28868471080808" lon="11.426377547649441"><ele>193.0</ele><time>2026-05-04T11:50:14Z</time></trkpt><trkpt lat="43.28858315529385" lon="11.426516996561451"><ele>193.0</ele><time>2026-05-04T11:50:15Z</time></trkpt><trkpt lat="43.28847252515231" lon="11.426665483763179"><ele>192.0</ele><time>2026-05-04T11:50:16Z</time></trkpt><trkpt lat="43.28834197690604" lon="11.426804938746118"><ele>191.0</ele><time>2026-05-04T11:50:17Z</time></trkpt><trkpt lat="43.28820384124995" lon="11.426964809301898"><ele>190.0</ele><time>2026-05-04T11:50:18Z</time></trkpt><trkpt lat="43.28805762452549" lon="11.427138884284158"><ele>190.0</ele><time>2026-05-04T11:50:19Z</time></trkpt><trkpt lat="43.28790962368501" lon="11.427311016645502"><ele>190.0</ele><time>2026-05-04T11:50:20Z</time></trkpt><trkpt lat="43.28777969102806" lon="11.427460422678726"><ele>190.0</ele><time>2026-05-04T11:50:21Z</time></trkpt><trkpt lat="43.28765747472022" lon="11.427607526194477"><ele>190.0</ele><time>2026-05-04T11:50:22Z</time></trkpt><trkpt lat="43.287567535976805" lon="11.427766592578726"><ele>190.0</ele><time>2026-05-04T11:50:23Z</time></trkpt><trkpt lat="43.28751637187404" lon="11.42795858933164"><ele>190.0</ele><time>2026-05-04T11:50:24Z</time></trkpt><trkpt lat="43.28750898306968" lon="11.428175349022188"><ele>190.0</ele><time>2026-05-04T11:50:25Z</time></trkpt><trkpt lat="43.28751146809238" lon="11.42841612823072"><ele>190.0</ele><time>2026-05-04T11:50:26Z</time></trkpt><trkpt lat="43.2875053703132" lon="11.428659095597313"><ele>190.0</ele><time>2026-05-04T11:50:27Z</time></trkpt><trkpt lat="43.28749577136507" lon="11.428898009412796"><ele>190.0</ele><time>2026-05-04T11:50:28Z</time></trkpt><trkpt lat="43.287480785556426" lon="11.429100998772537"><ele>190.0</ele><time>2026-05-04T11:50:29Z</time></trkpt><trkpt lat="43.28746971838713" lon="11.429226288399157"><ele>190.0</ele><time>2026-05-04T11:50:30Z</time></trkpt><trkpt lat="43.287408835292005" lon="11.429254396080067"><ele>190.0</ele><time>2026-05-04T11:50:33Z</time></trkpt><trkpt lat="43.28750605867677" lon="11.428772528708837"><ele>190.0</ele><time>2026-05-04T11:50:50Z</time></trkpt><trkpt lat="43.28751429317941" lon="11.428583949559243"><ele>190.0</ele><time>2026-05-04T11:50:51Z</time></trkpt><trkpt lat="43.287527699914015" lon="11.428376503547325"><ele>190.0</ele><time>2026-05-04T11:50:52Z</time></trkpt><trkpt lat="43.28754103006892" lon="11.428161540702172"><ele>190.0</ele><time>2026-05-04T11:50:53Z</time></trkpt><trkpt lat="43.2875659376646" lon="11.427932191330378"><ele>190.0</ele><time>2026-05-04T11:50:54Z</time></trkpt><trkpt lat="43.287622446117226" lon="11.427720445416435"><ele>190.0</ele><time>2026-05-04T11:50:55Z</time></trkpt><trkpt lat="43.287728499605365" lon="11.42754765712578"><ele>190.0</ele><time>2026-05-04T11:50:56Z</time></trkpt><trkpt lat="43.28786013718066" lon="11.427389967141975"><ele>190.0</ele><time>2026-05-04T11:50:57Z</time></trkpt><trkpt lat="43.288007327643385" lon="11.427226952257397"><ele>190.0</ele><time>2026-05-04T11:50:58Z</time></trkpt><trkpt lat="43.288165242268995" lon="11.427050250725689"><ele>190.0</ele><time>2026-05-04T11:50:59Z</time></trkpt><trkpt lat="43.288323081782615" lon="11.426873721460774"><ele>189.66666666666669</ele><time>2026-05-04T11:50:59.999Z</time></trkpt><trkpt lat="43.28847754241469" lon="11.426700349489028"><ele>189.33333333333334</ele><time>2026-05-04T11:51:00.999Z</time></trkpt><trkpt lat="43.288620771727416" lon="11.426535558189558"><ele>189.0</ele><time>2026-05-04T11:51:01.999Z</time></trkpt><trkpt lat="43.28872057154998" lon="11.426374653098247"><ele>190.33333333333331</ele><time>2026-05-04T11:51:02.999Z</time></trkpt><trkpt lat="43.288807495128125" lon="11.42619234072"><ele>191.66666666666666</ele><time>2026-05-04T11:51:03.999Z</time></trkpt><trkpt lat="43.28884219016469" lon="11.42598483889231"><ele>193.0</ele><time>2026-05-04T11:51:04.999Z</time></trkpt><trkpt lat="43.28882452822608" lon="11.425763798946921"><ele>193.0</ele><time>2026-05-04T11:51:05.999Z</time></trkpt><trkpt lat="43.288783199881195" lon="11.425533997534668"><ele>193.0</ele><time>2026-05-04T11:51:06.999Z</time></trkpt><trkpt lat="43.28872989721378" lon="11.42527462450306"><ele>193.0</ele><time>2026-05-04T11:51:07.999Z</time></trkpt><trkpt lat="43.28868095120643" lon="11.425007681975858"><ele>194.66666666666666</ele><time>2026-05-04T11:51:08.999Z</time></trkpt><trkpt lat="43.28863254001594" lon="11.42471804758057"><ele>196.33333333333331</ele><time>2026-05-04T11:51:09.999Z</time></trkpt><trkpt lat="43.28858403076847" lon="11.42441831444742"><ele>198.0</ele><time>2026-05-04T11:51:10.999Z</time></trkpt><trkpt lat="43.288535982511405" lon="11.42413739358933"><ele>199.75</ele><time>2026-05-04T11:51:11.999Z</time></trkpt><trkpt lat="43.288492910280404" lon="11.423908046786803"><ele>201.5</ele><time>2026-05-04T11:51:12.999Z</time></trkpt><trkpt lat="43.28845987133575" lon="11.423715263365464"><ele>203.25</ele><time>2026-05-04T11:51:13.999Z</time></trkpt><trkpt lat="43.288450602723586" lon="11.423558913991842"><ele>205.0</ele><time>2026-05-04T11:51:14.999Z</time></trkpt><trkpt lat="43.28849269533765" lon="11.423433887348684"><ele>206.6</ele><time>2026-05-04T11:51:15.999Z</time></trkpt><trkpt lat="43.28854864157442" lon="11.423320034320747"><ele>208.2</ele><time>2026-05-04T11:51:16.999Z</time></trkpt><trkpt lat="43.288622925837885" lon="11.423213798355322"><ele>209.8</ele><time>2026-05-04T11:51:17.999Z</time></trkpt><trkpt lat="43.28868270771397" lon="11.423114401332274"><ele>211.4</ele><time>2026-05-04T11:51:18.999Z</time></trkpt><trkpt lat="43.288751165449455" lon="11.42305827202833"><ele>213.0</ele><time>2026-05-04T11:51:20.999Z</time></trkpt><trkpt lat="43.288628739860165" lon="11.42300138885454"><ele>213.0</ele><time>2026-05-04T11:51:22.999Z</time></trkpt><trkpt lat="43.288545727959686" lon="11.42300176532695"><ele>213.0</ele><time>2026-05-04T11:51:23.999Z</time></trkpt><trkpt lat="43.288457953171964" lon="11.42295170709917"><ele>213.0</ele><time>2026-05-04T11:51:24.999Z</time></trkpt><trkpt lat="43.28839580469588" lon="11.422891516073836"><ele>213.0</ele><time>2026-05-04T11:51:25.999Z</time></trkpt><trkpt lat="43.28831817505998" lon="11.42283017376493"><ele>213.0</ele><time>2026-05-04T11:51:26.999Z</time></trkpt><trkpt lat="43.288239294947914" lon="11.422792667527382"><ele>213.0</ele><time>2026-05-04T11:51:27.999Z</time></trkpt><trkpt lat="43.28815297623646" lon="11.422727598968747"><ele>213.2</ele><time>2026-05-04T11:51:28.999Z</time></trkpt><trkpt lat="43.28806963277114" lon="11.422643674273813"><ele>213.4</ele><time>2026-05-04T11:51:29.999Z</time></trkpt><trkpt lat="43.28797932264637" lon="11.422555333877053"><ele>213.59999999999997</ele><time>2026-05-04T11:51:30.999Z</time></trkpt><trkpt lat="43.28790160642399" lon="11.422443750050148"><ele>213.79999999999998</ele><time>2026-05-04T11:51:31.999Z</time></trkpt><trkpt lat="43.287815761269954" lon="11.422335653810514"><ele>214.0</ele><time>2026-05-04T11:51:32.999Z</time></trkpt><trkpt lat="43.28775823368989" lon="11.422185759344712"><ele>214.6</ele><time>2026-05-04T11:51:33.999Z</time></trkpt><trkpt lat="43.28768230780096" lon="11.422072103550091"><ele>215.2</ele><time>2026-05-04T11:51:34.999Z</time></trkpt><trkpt lat="43.28760671864157" lon="11.421990682977949"><ele>215.79999999999998</ele><time>2026-05-04T11:51:36Z</time></trkpt><trkpt lat="43.28750390649196" lon="11.421953777515945"><ele>216.39999999999998</ele><time>2026-05-04T11:51:37Z</time></trkpt><trkpt lat="43.28738440157623" lon="11.421963019501922"><ele>217.0</ele><time>2026-05-04T11:51:38Z</time></trkpt><trkpt lat="43.287252310034155" lon="11.421994597845464"><ele>217.0</ele><time>2026-05-04T11:51:39Z</time></trkpt><trkpt lat="43.28711322015199" lon="11.422028260071267"><ele>217.0</ele><time>2026-05-04T11:51:40Z</time></trkpt><trkpt lat="43.286968321890214" lon="11.42205834065373"><ele>217.0</ele><time>2026-05-04T11:51:41Z</time></trkpt><trkpt lat="43.28682635575475" lon="11.422096411981807"><ele>217.0</ele><time>2026-05-04T11:51:42Z</time></trkpt><trkpt lat="43.286703379414476" lon="11.422191944359161"><ele>217.0</ele><time>2026-05-04T11:51:43Z</time></trkpt><trkpt lat="43.28660075243078" lon="11.422302539749474"><ele>217.0</ele><time>2026-05-04T11:51:44Z</time></trkpt><trkpt lat="43.286517631867106" lon="11.422452661203781"><ele>217.0</ele><time>2026-05-04T11:51:45Z</time></trkpt><trkpt lat="43.28644113475477" lon="11.422620567686923"><ele>217.0</ele><time>2026-05-04T11:51:46Z</time></trkpt><trkpt lat="43.28633290598234" lon="11.422797528187571"><ele>218.5</ele><time>2026-05-04T11:51:47Z</time></trkpt><trkpt lat="43.28624738711017" lon="11.422951633561649"><ele>220.0</ele><time>2026-05-04T11:51:48Z</time></trkpt><trkpt lat="43.28617088621943" lon="11.423062578563684"><ele>221.5</ele><time>2026-05-04T11:51:49Z</time></trkpt><trkpt lat="43.28609497793037" lon="11.423153221043552"><ele>223.0</ele><time>2026-05-04T11:51:50Z</time></trkpt><trkpt lat="43.2860172983134" lon="11.4232608296948"><ele>223.0</ele><time>2026-05-04T11:51:51Z</time></trkpt><trkpt lat="43.285934325308645" lon="11.423358608661811"><ele>223.0</ele><time>2026-05-04T11:51:52Z</time></trkpt><trkpt lat="43.28585785969272" lon="11.423448689432814"><ele>223.0</ele><time>2026-05-04T11:51:53Z</time></trkpt><trkpt lat="43.28577216815631" lon="11.423521590736646"><ele>223.0</ele><time>2026-05-04T11:51:54Z</time></trkpt><trkpt lat="43.28567130962855" lon="11.423569333139065"><ele>223.0</ele><time>2026-05-04T11:51:55Z</time></trkpt><trkpt lat="43.28556915162612" lon="11.423628078422617"><ele>223.2</ele><time>2026-05-04T11:51:56Z</time></trkpt><trkpt lat="43.28547680694148" lon="11.423728256710254"><ele>223.4</ele><time>2026-05-04T11:51:57Z</time></trkpt><trkpt lat="43.285394797978974" lon="11.423832226310145"><ele>223.59999999999997</ele><time>2026-05-04T11:51:58Z</time></trkpt><trkpt lat="43.28532552946813" lon="11.423916578170335"><ele>223.79999999999998</ele><time>2026-05-04T11:51:59Z</time></trkpt><trkpt lat="43.28525748410693" lon="11.423996482881538"><ele>224.0</ele><time>2026-05-04T11:52:00Z</time></trkpt><trkpt lat="43.28518650745388" lon="11.424079113055887"><ele>224.0</ele><time>2026-05-04T11:52:01Z</time></trkpt><trkpt lat="43.285109784080866" lon="11.424166433575792"><ele>223.99999999999997</ele><time>2026-05-04T11:52:02Z</time></trkpt><trkpt lat="43.285036244964594" lon="11.424249153085446"><ele>223.99999999999997</ele><time>2026-05-04T11:52:03Z</time></trkpt><trkpt lat="43.28496540246639" lon="11.424329310150167"><ele>224.0</ele><time>2026-05-04T11:52:04Z</time></trkpt><trkpt lat="43.28489736727949" lon="11.424404523302861"><ele>224.0</ele><time>2026-05-04T11:52:05Z</time></trkpt><trkpt lat="43.284834041557346" lon="11.424471492862283"><ele>224.00000000000003</ele><time>2026-05-04T11:52:06Z</time></trkpt><trkpt lat="43.28477386683889" lon="11.424532742550367"><ele>224.0</ele><time>2026-05-04T11:52:07Z</time></trkpt><trkpt lat="43.28471699643919" lon="11.424580905147304"><ele>224.0</ele><time>2026-05-04T11:52:08Z</time></trkpt><trkpt lat="43.28465140646324" lon="11.424599337366773"><ele>224.0</ele><time>2026-05-04T11:52:09Z</time></trkpt><trkpt lat="43.284577137693624" lon="11.42462437282056"><ele>224.00000000000003</ele><time>2026-05-04T11:52:10Z</time></trkpt><trkpt lat="43.28449479637757" lon="11.424665788400695"><ele>224.0</ele><time>2026-05-04T11:52:11Z</time></trkpt><trkpt lat="43.28440461917138" lon="11.42467773680803"><ele>223.79999999999998</ele><time>2026-05-04T11:52:12Z</time></trkpt><trkpt lat="43.28430590084087" lon="11.424689117475555"><ele>223.59999999999997</ele><time>2026-05-04T11:52:13Z</time></trkpt><trkpt lat="43.284215302445226" lon="11.424694849316394"><ele>223.4</ele><time>2026-05-04T11:52:14Z</time></trkpt><trkpt lat="43.2841194009716" lon="11.42470085730746"><ele>223.2</ele><time>2026-05-04T11:52:15Z</time></trkpt><trkpt lat="43.2840410247939" lon="11.42470802867776"><ele>223.0</ele><time>2026-05-04T11:52:16Z</time></trkpt><trkpt lat="43.28394682444728" lon="11.424716097165534"><ele>223.16666666666666</ele><time>2026-05-04T11:52:18Z</time></trkpt><trkpt lat="43.28384465577164" lon="11.424717477853399"><ele>223.33333333333331</ele><time>2026-05-04T11:52:20Z</time></trkpt><trkpt lat="43.28377257435196" lon="11.42471551891369"><ele>223.5</ele><time>2026-05-04T11:52:21Z</time></trkpt><trkpt lat="43.28369250785816" lon="11.424714684680826"><ele>223.66666666666669</ele><time>2026-05-04T11:52:22Z</time></trkpt><trkpt lat="43.28360234328166" lon="11.424718251981222"><ele>223.83333333333334</ele><time>2026-05-04T11:52:23Z</time></trkpt><trkpt lat="43.28350156180952" lon="11.424726799657641"><ele>224.0</ele><time>2026-05-04T11:52:24Z</time></trkpt><trkpt lat="43.28339847273101" lon="11.424745192679683"><ele>224.0</ele><time>2026-05-04T11:52:25Z</time></trkpt><trkpt lat="43.28329473674122" lon="11.424790216923554"><ele>223.99999999999997</ele><time>2026-05-04T11:52:26Z</time></trkpt><trkpt lat="43.283192214895834" lon="11.424840871705838"><ele>223.99999999999997</ele><time>2026-05-04T11:52:27Z</time></trkpt><trkpt lat="43.283088345909704" lon="11.424909196928235"><ele>224.0</ele><time>2026-05-04T11:52:28Z</time></trkpt><trkpt lat="43.282991666694656" lon="11.424990915861141"><ele>224.0</ele><time>2026-05-04T11:52:29Z</time></trkpt><trkpt lat="43.28289618118523" lon="11.425083874394915"><ele>223.79999999999998</ele><time>2026-05-04T11:52:30Z</time></trkpt><trkpt lat="43.282799864580134" lon="11.425174442999678"><ele>223.59999999999997</ele><time>2026-05-04T11:52:31Z</time></trkpt><trkpt lat="43.28270899801636" lon="11.425247655445858"><ele>223.4</ele><time>2026-05-04T11:52:32Z</time></trkpt><trkpt lat="43.282614983240606" lon="11.425312696662296"><ele>223.2</ele><time>2026-05-04T11:52:33Z</time></trkpt><trkpt lat="43.282521415183325" lon="11.42537751057759"><ele>223.0</ele><time>2026-05-04T11:52:34Z</time></trkpt><trkpt lat="43.28242167510094" lon="11.425414631039896"><ele>222.99999999999997</ele><time>2026-05-04T11:52:35Z</time></trkpt><trkpt lat="43.282328693181775" lon="11.425450002981124"><ele>223.0</ele><time>2026-05-04T11:52:36Z</time></trkpt><trkpt lat="43.28224324107763" lon="11.425461339776344"><ele>223.0</ele><time>2026-05-04T11:52:37Z</time></trkpt><trkpt lat="43.28216356359547" lon="11.425449702577492"><ele>223.0</ele><time>2026-05-04T11:52:38Z</time></trkpt><trkpt lat="43.282079339684785" lon="11.425422389137163"><ele>222.99999999999997</ele><time>2026-05-04T11:52:39Z</time></trkpt><trkpt lat="43.281984879547466" lon="11.425381424253642"><ele>223.0</ele><time>2026-05-04T11:52:40Z</time></trkpt><trkpt lat="43.28188883493136" lon="11.425300456999262"><ele>223.75</ele><time>2026-05-04T11:52:41Z</time></trkpt><trkpt lat="43.28179095084595" lon="11.425226650265646"><ele>224.5</ele><time>2026-05-04T11:52:42Z</time></trkpt><trkpt lat="43.28170287032504" lon="11.425125025686278"><ele>225.25</ele><time>2026-05-04T11:52:43Z</time></trkpt><trkpt lat="43.28161547525795" lon="11.425026079080487"><ele>226.0</ele><time>2026-05-04T11:52:44Z</time></trkpt><trkpt lat="43.281536816987305" lon="11.424918750408048"><ele>226.0</ele><time>2026-05-04T11:52:45Z</time></trkpt><trkpt lat="43.28146443768033" lon="11.424804164241294"><ele>226.0</ele><time>2026-05-04T11:52:46Z</time></trkpt><trkpt lat="43.28139275784112" lon="11.424680510191083"><ele>226.0</ele><time>2026-05-04T11:52:47Z</time></trkpt><trkpt lat="43.28131121302257" lon="11.4245727025892"><ele>226.0</ele><time>2026-05-04T11:52:48Z</time></trkpt><trkpt lat="43.28124822100213" lon="11.424447353753102"><ele>226.8</ele><time>2026-05-04T11:52:49Z</time></trkpt><trkpt lat="43.2811821742818" lon="11.42432857243777"><ele>227.60000000000002</ele><time>2026-05-04T11:52:50Z</time></trkpt><trkpt lat="43.28112071339723" lon="11.424228220568336"><ele>228.4</ele><time>2026-05-04T11:52:51Z</time></trkpt><trkpt lat="43.28106104700815" lon="11.424142014135166"><ele>229.2</ele><time>2026-05-04T11:52:52Z</time></trkpt><trkpt lat="43.280994456979045" lon="11.424068898066066"><ele>230.0</ele><time>2026-05-04T11:52:53Z</time></trkpt><trkpt lat="43.28092599618549" lon="11.424010122926921"><ele>230.00000000000003</ele><time>2026-05-04T11:52:54Z</time></trkpt><trkpt lat="43.280865707409845" lon="11.423965567607471"><ele>230.0</ele><time>2026-05-04T11:52:55Z</time></trkpt><trkpt lat="43.28081288470393" lon="11.423910337282068"><ele>230.0</ele><time>2026-05-04T11:52:56Z</time></trkpt><trkpt lat="43.2807484650308" lon="11.42386340846316"><ele>230.0</ele><time>2026-05-04T11:52:57Z</time></trkpt><trkpt lat="43.28067489083554" lon="11.423807688662336"><ele>230.00000000000003</ele><time>2026-05-04T11:52:58Z</time></trkpt><trkpt lat="43.28060724140449" lon="11.423762865014249"><ele>230.0</ele><time>2026-05-04T11:52:59Z</time></trkpt><trkpt lat="43.28052433914563" lon="11.423722115789973"><ele>231.2</ele><time>2026-05-04T11:53:00Z</time></trkpt><trkpt lat="43.28044929456296" lon="11.423700045619851"><ele>232.4</ele><time>2026-05-04T11:53:01Z</time></trkpt><trkpt lat="43.28037489821374" lon="11.423676106527815"><ele>233.60000000000002</ele><time>2026-05-04T11:53:02Z</time></trkpt><trkpt lat="43.28027182001961" lon="11.423632648346606"><ele>234.8</ele><time>2026-05-04T11:53:04Z</time></trkpt><trkpt lat="43.28016722064255" lon="11.42358444157661"><ele>236.0</ele><time>2026-05-04T11:53:05.999Z</time></trkpt><trkpt lat="43.28005109150922" lon="11.423537937803683"><ele>236.0</ele><time>2026-05-04T11:53:07.999Z</time></trkpt><trkpt lat="43.27993496339058" lon="11.42352455129004"><ele>236.00000000000003</ele><time>2026-05-04T11:53:09.999Z</time></trkpt><trkpt lat="43.2798715080088" lon="11.423538460063284"><ele>236.00000000000003</ele><time>2026-05-04T11:53:10.999Z</time></trkpt><trkpt lat="43.27975333202693" lon="11.423596130870758"><ele>236.0</ele><time>2026-05-04T11:53:12.999Z</time></trkpt><trkpt lat="43.27968144224387" lon="11.423649933797938"><ele>236.0</ele><time>2026-05-04T11:53:13.999Z</time></trkpt><trkpt lat="43.27959651586166" lon="11.423722966421701"><ele>235.75</ele><time>2026-05-04T11:53:14.999Z</time></trkpt><trkpt lat="43.279503658449514" lon="11.423793406660295"><ele>235.5</ele><time>2026-05-04T11:53:15.999Z</time></trkpt><trkpt lat="43.2793984588186" lon="11.423844805520677"><ele>235.25</ele><time>2026-05-04T11:53:16.999Z</time></trkpt><trkpt lat="43.27927912196001" lon="11.423873849858337"><ele>235.0</ele><time>2026-05-04T11:53:17.999Z</time></trkpt><trkpt lat="43.279146964409435" lon="11.423902128980195"><ele>235.0</ele><time>2026-05-04T11:53:18.999Z</time></trkpt><trkpt lat="43.279004602884584" lon="11.423947585417558"><ele>235.0</ele><time>2026-05-04T11:53:19.999Z</time></trkpt><trkpt lat="43.27885946864888" lon="11.424007206968863"><ele>235.0</ele><time>2026-05-04T11:53:20.999Z</time></trkpt><trkpt lat="43.27871791156102" lon="11.424063163019214"><ele>235.0</ele><time>2026-05-04T11:53:21.999Z</time></trkpt><trkpt lat="43.278572634640504" lon="11.42411501994841"><ele>234.0</ele><time>2026-05-04T11:53:22.999Z</time></trkpt><trkpt lat="43.27844586001864" lon="11.424143365464445"><ele>233.0</ele><time>2026-05-04T11:53:23.999Z</time></trkpt><trkpt lat="43.27831627411988" lon="11.424154496453594"><ele>232.0</ele><time>2026-05-04T11:53:24.999Z</time></trkpt><trkpt lat="43.27818920437369" lon="11.424127729970236"><ele>231.0</ele><time>2026-05-04T11:53:25.999Z</time></trkpt><trkpt lat="43.2780735317852" lon="11.424081906892203"><ele>229.25</ele><time>2026-05-04T11:53:26.999Z</time></trkpt><trkpt lat="43.27796803704048" lon="11.424016765290883"><ele>227.5</ele><time>2026-05-04T11:53:27.999Z</time></trkpt><trkpt lat="43.27788720347548" lon="11.423901624592595"><ele>225.75</ele><time>2026-05-04T11:53:28.999Z</time></trkpt><trkpt lat="43.27777740387574" lon="11.423793408867375"><ele>224.0</ele><time>2026-05-04T11:53:29.999Z</time></trkpt><trkpt lat="43.27763681496136" lon="11.423713351343252"><ele>224.0</ele><time>2026-05-04T11:53:31Z</time></trkpt><trkpt lat="43.27748960563566" lon="11.423617280646516"><ele>224.0</ele><time>2026-05-04T11:53:32Z</time></trkpt><trkpt lat="43.27733625698611" lon="11.4235162951646"><ele>224.0</ele><time>2026-05-04T11:53:33Z</time></trkpt><trkpt lat="43.27719761956928" lon="11.423432458825028"><ele>224.33333333333334</ele><time>2026-05-04T11:53:34Z</time></trkpt><trkpt lat="43.277050123531744" lon="11.423361729971774"><ele>224.66666666666669</ele><time>2026-05-04T11:53:35Z</time></trkpt><trkpt lat="43.27688949305155" lon="11.423302746415873"><ele>225.0</ele><time>2026-05-04T11:53:36Z</time></trkpt><trkpt lat="43.276734990125384" lon="11.423249487696571"><ele>225.0</ele><time>2026-05-04T11:53:37Z</time></trkpt><trkpt lat="43.276594014733895" lon="11.423191955899572"><ele>225.0</ele><time>2026-05-04T11:53:38Z</time></trkpt><trkpt lat="43.27645341253349" lon="11.423139924187645"><ele>225.0</ele><time>2026-05-04T11:53:39Z</time></trkpt><trkpt lat="43.27631856933951" lon="11.423110352087063"><ele>225.0</ele><time>2026-05-04T11:53:40Z</time></trkpt><trkpt lat="43.276189577175096" lon="11.423091074409134"><ele>224.0</ele><time>2026-05-04T11:53:41Z</time></trkpt><trkpt lat="43.276079699990184" lon="11.423074480515025"><ele>223.0</ele><time>2026-05-04T11:53:42Z</time></trkpt><trkpt lat="43.27598500685769" lon="11.423039019717164"><ele>222.0</ele><time>2026-05-04T11:53:43Z</time></trkpt><trkpt lat="43.27590286389146" lon="11.422965883901867"><ele>221.0</ele><time>2026-05-04T11:53:44Z</time></trkpt><trkpt lat="43.275819470514044" lon="11.422853454016389"><ele>220.0</ele><time>2026-05-04T11:53:45Z</time></trkpt><trkpt lat="43.27574745555533" lon="11.422728710825066"><ele>221.0</ele><time>2026-05-04T11:53:46Z</time></trkpt><trkpt lat="43.275678927433916" lon="11.422622226910965"><ele>222.0</ele><time>2026-05-04T11:53:47Z</time></trkpt><trkpt lat="43.27560741968008" lon="11.422537964580506"><ele>223.0</ele><time>2026-05-04T11:53:48Z</time></trkpt><trkpt lat="43.275530405131" lon="11.422490708218461"><ele>224.0</ele><time>2026-05-04T11:53:49Z</time></trkpt><trkpt lat="43.275447805295705" lon="11.422470487286782"><ele>225.0</ele><time>2026-05-04T11:53:50Z</time></trkpt><trkpt lat="43.27534831894155" lon="11.422494713739887"><ele>225.0</ele><time>2026-05-04T11:53:51Z</time></trkpt><trkpt lat="43.275227415048725" lon="11.422553872083109"><ele>225.0</ele><time>2026-05-04T11:53:52Z</time></trkpt><trkpt lat="43.27507854952061" lon="11.422611480760917"><ele>225.0</ele><time>2026-05-04T11:53:53Z</time></trkpt><trkpt lat="43.274916508600434" lon="11.42269637763151"><ele>226.33333333333331</ele><time>2026-05-04T11:53:54Z</time></trkpt><trkpt lat="43.27474405380273" lon="11.422808341642018"><ele>227.66666666666666</ele><time>2026-05-04T11:53:55Z</time></trkpt><trkpt lat="43.27458007277497" lon="11.422895315583778"><ele>229.0</ele><time>2026-05-04T11:53:56Z</time></trkpt><trkpt lat="43.274432182416895" lon="11.42297886748355"><ele>230.5</ele><time>2026-05-04T11:53:57Z</time></trkpt><trkpt lat="43.274299614859345" lon="11.423057781710924"><ele>232.0</ele><time>2026-05-04T11:53:58Z</time></trkpt><trkpt lat="43.27419037759402" lon="11.42313074171493"><ele>233.5</ele><time>2026-05-04T11:53:59Z</time></trkpt><trkpt lat="43.27409270836551" lon="11.42319651665952"><ele>235.0</ele><time>2026-05-04T11:54:00Z</time></trkpt><trkpt lat="43.27401731320245" lon="11.42326668722559"><ele>235.0</ele><time>2026-05-04T11:54:01Z</time></trkpt><trkpt lat="43.27395029489569" lon="11.423373924817815"><ele>235.0</ele><time>2026-05-04T11:54:02Z</time></trkpt><trkpt lat="43.273878083092704" lon="11.423504885439431"><ele>235.0</ele><time>2026-05-04T11:54:03Z</time></trkpt><trkpt lat="43.27379036456748" lon="11.423653212466753"><ele>235.0</ele><time>2026-05-04T11:54:04Z</time></trkpt><trkpt lat="43.27369543425206" lon="11.423803968257696"><ele>238.33333333333331</ele><time>2026-05-04T11:54:05Z</time></trkpt><trkpt lat="43.27359514538574" lon="11.423959759434167"><ele>241.66666666666669</ele><time>2026-05-04T11:54:06Z</time></trkpt><trkpt lat="43.273485891538485" lon="11.424123112405034"><ele>245.0</ele><time>2026-05-04T11:54:07Z</time></trkpt><trkpt lat="43.273383927639664" lon="11.42426942094923"><ele>245.0</ele><time>2026-05-04T11:54:08Z</time></trkpt><trkpt lat="43.27330499617312" lon="11.424383645106216"><ele>245.0</ele><time>2026-05-04T11:54:09Z</time></trkpt><trkpt lat="43.27323172462458" lon="11.424486737607886"><ele>245.0</ele><time>2026-05-04T11:54:10Z</time></trkpt><trkpt lat="43.27315183418278" lon="11.424603145943157"><ele>245.0</ele><time>2026-05-04T11:54:11Z</time></trkpt><trkpt lat="43.27305904752429" lon="11.424747469095855"><ele>242.5</ele><time>2026-05-04T11:54:12Z</time></trkpt><trkpt lat="43.272961525030816" lon="11.424901568373153"><ele>240.0</ele><time>2026-05-04T11:54:13Z</time></trkpt><trkpt lat="43.272866699847505" lon="11.425046502049186"><ele>237.5</ele><time>2026-05-04T11:54:14Z</time></trkpt><trkpt lat="43.2727762170521" lon="11.42517963811389"><ele>235.0</ele><time>2026-05-04T11:54:15Z</time></trkpt><trkpt lat="43.272693771367585" lon="11.425299961329351"><ele>235.0</ele><time>2026-05-04T11:54:16Z</time></trkpt><trkpt lat="43.27262722912073" lon="11.425399145168317"><ele>235.0</ele><time>2026-05-04T11:54:17Z</time></trkpt><trkpt lat="43.27256593335961" lon="11.425473060298529"><ele>235.0</ele><time>2026-05-04T11:54:18Z</time></trkpt><trkpt lat="43.27251323826041" lon="11.425560312535948"><ele>235.0</ele><time>2026-05-04T11:54:19Z</time></trkpt><trkpt lat="43.2723896249736" lon="11.425565794758825"><ele>235.0</ele><time>2026-05-04T11:54:20Z</time></trkpt><trkpt lat="43.27227750329918" lon="11.425589957731882"><ele>235.2</ele><time>2026-05-04T11:54:21Z</time></trkpt><trkpt lat="43.27216199047434" lon="11.42559968862189"><ele>235.4</ele><time>2026-05-04T11:54:22Z</time></trkpt><trkpt lat="43.272049197388824" lon="11.425596329493793"><ele>235.60000000000002</ele><time>2026-05-04T11:54:23Z</time></trkpt><trkpt lat="43.27194243384588" lon="11.425596095438657"><ele>235.8</ele><time>2026-05-04T11:54:24Z</time></trkpt><trkpt lat="43.27183877222333" lon="11.425574826426624"><ele>236.0</ele><time>2026-05-04T11:54:25Z</time></trkpt><trkpt lat="43.27173380269262" lon="11.42559987383194"><ele>236.00000000000003</ele><time>2026-05-04T11:54:26Z</time></trkpt><trkpt lat="43.27163107458158" lon="11.425607677715009"><ele>236.0</ele><time>2026-05-04T11:54:27Z</time></trkpt><trkpt lat="43.27153179960504" lon="11.425612768011753"><ele>236.0</ele><time>2026-05-04T11:54:28Z</time></trkpt><trkpt lat="43.27144364623689" lon="11.425625074366549"><ele>236.0</ele><time>2026-05-04T11:54:29Z</time></trkpt><trkpt lat="43.27136622006617" lon="11.42565586402792"><ele>236.00000000000003</ele><time>2026-05-04T11:54:30Z</time></trkpt><trkpt lat="43.2713171212242" lon="11.425715591202513"><ele>236.0</ele><time>2026-05-04T11:54:31Z</time></trkpt><trkpt lat="43.271282935445846" lon="11.42579163035337"><ele>235.33333333333334</ele><time>2026-05-04T11:54:32Z</time></trkpt><trkpt lat="43.27125526175647" lon="11.425879694790677"><ele>234.66666666666669</ele><time>2026-05-04T11:54:33Z</time></trkpt><trkpt lat="43.271187701262804" lon="11.425956207186035"><ele>234.0</ele><time>2026-05-04T11:54:34Z</time></trkpt><trkpt lat="43.27110967900453" lon="11.426036493437666"><ele>233.33333333333331</ele><time>2026-05-04T11:54:35Z</time></trkpt><trkpt lat="43.271015129047576" lon="11.426059863459242"><ele>232.66666666666666</ele><time>2026-05-04T11:54:36Z</time></trkpt><trkpt lat="43.2709192846868" lon="11.426078846411388"><ele>232.0</ele><time>2026-05-04T11:54:37Z</time></trkpt><trkpt lat="43.2708056705561" lon="11.426103954585619"><ele>232.0</ele><time>2026-05-04T11:54:38Z</time></trkpt><trkpt lat="43.2706967150296" lon="11.426159095018873"><ele>232.0</ele><time>2026-05-04T11:54:39Z</time></trkpt><trkpt lat="43.27058589699361" lon="11.426212584008505"><ele>232.0</ele><time>2026-05-04T11:54:40Z</time></trkpt><trkpt lat="43.27048387505039" lon="11.4262916642394"><ele>232.0</ele><time>2026-05-04T11:54:41Z</time></trkpt><trkpt lat="43.27037851675955" lon="11.42638678532564"><ele>231.8</ele><time>2026-05-04T11:54:42Z</time></trkpt><trkpt lat="43.27028342480532" lon="11.426476539878864"><ele>231.6</ele><time>2026-05-04T11:54:43Z</time></trkpt><trkpt lat="43.270197547700796" lon="11.426547083816097"><ele>231.40000000000003</ele><time>2026-05-04T11:54:44Z</time></trkpt><trkpt lat="43.270103696890665" lon="11.426583769658189"><ele>231.20000000000002</ele><time>2026-05-04T11:54:45Z</time></trkpt><trkpt lat="43.270038004566025" lon="11.426560285188192"><ele>231.0</ele><time>2026-05-04T11:54:46Z</time></trkpt><trkpt lat="43.26996252499966" lon="11.426523621958463"><ele>231.0</ele><time>2026-05-04T11:54:47Z</time></trkpt><trkpt lat="43.2698934144222" lon="11.426442308894273"><ele>231.00000000000003</ele><time>2026-05-04T11:54:48Z</time></trkpt><trkpt lat="43.269820865226045" lon="11.426365048991833"><ele>231.00000000000003</ele><time>2026-05-04T11:54:49Z</time></trkpt><trkpt lat="43.26979528804856" lon="11.426251057848894"><ele>231.0</ele><time>2026-05-04T11:54:50Z</time></trkpt><trkpt lat="43.26973682833962" lon="11.426159023748003"><ele>231.0</ele><time>2026-05-04T11:54:51Z</time></trkpt><trkpt lat="43.26966993647454" lon="11.426067292708794"><ele>231.20000000000002</ele><time>2026-05-04T11:54:52Z</time></trkpt><trkpt lat="43.269576699825045" lon="11.426000631855867"><ele>231.40000000000003</ele><time>2026-05-04T11:54:53Z</time></trkpt><trkpt lat="43.26948205716767" lon="11.42594635491702"><ele>231.6</ele><time>2026-05-04T11:54:54Z</time></trkpt><trkpt lat="43.26937266503168" lon="11.425893992107419"><ele>231.8</ele><time>2026-05-04T11:54:55Z</time></trkpt><trkpt lat="43.269257634519434" lon="11.425844413596476"><ele>232.0</ele><time>2026-05-04T11:54:56Z</time></trkpt><trkpt lat="43.26913668380798" lon="11.425798407929081"><ele>232.0</ele><time>2026-05-04T11:54:57Z</time></trkpt><trkpt lat="43.26901748552628" lon="11.425748767264366"><ele>232.0</ele><time>2026-05-04T11:54:58Z</time></trkpt><trkpt lat="43.26890487745963" lon="11.425696654943298"><ele>232.0</ele><time>2026-05-04T11:54:59Z</time></trkpt><trkpt lat="43.26878955299639" lon="11.425663773183416"><ele>232.0</ele><time>2026-05-04T11:55:00Z</time></trkpt><trkpt lat="43.26867336705162" lon="11.425652457333634"><ele>232.5</ele><time>2026-05-04T11:55:01Z</time></trkpt><trkpt lat="43.268557993141386" lon="11.425678761392016"><ele>233.0</ele><time>2026-05-04T11:55:02Z</time></trkpt><trkpt lat="43.268444390749146" lon="11.425739436546651"><ele>233.5</ele><time>2026-05-04T11:55:03Z</time></trkpt><trkpt lat="43.26833078683396" lon="11.425820410284935"><ele>234.0</ele><time>2026-05-04T11:55:04.001Z</time></trkpt><trkpt lat="43.268213064177125" lon="11.425910398920346"><ele>234.0</ele><time>2026-05-04T11:55:05.001Z</time></trkpt><trkpt lat="43.26809283988063" lon="11.42601496481251"><ele>234.0</ele><time>2026-05-04T11:55:06.001Z</time></trkpt><trkpt lat="43.26797891274313" lon="11.426119494246198"><ele>234.0</ele><time>2026-05-04T11:55:07.001Z</time></trkpt><trkpt lat="43.267866173510114" lon="11.426199290600886"><ele>234.0</ele><time>2026-05-04T11:55:08.001Z</time></trkpt><trkpt lat="43.26774660818783" lon="11.426251168875313"><ele>234.0</ele><time>2026-05-04T11:55:09.001Z</time></trkpt><trkpt lat="43.26761887185269" lon="11.426279686511101"><ele>234.0</ele><time>2026-05-04T11:55:10.001Z</time></trkpt><trkpt lat="43.26749043630364" lon="11.426310136958582"><ele>234.0</ele><time>2026-05-04T11:55:11.001Z</time></trkpt><trkpt lat="43.267368474527586" lon="11.426344656557735"><ele>234.0</ele><time>2026-05-04T11:55:11.999Z</time></trkpt><trkpt lat="43.26726681606354" lon="11.426353257967905"><ele>233.39999999999998</ele><time>2026-05-04T11:55:12.999Z</time></trkpt><trkpt lat="43.26716802263231" lon="11.42637463451302"><ele>232.79999999999998</ele><time>2026-05-04T11:55:13.999Z</time></trkpt><trkpt lat="43.267062615324136" lon="11.426380839453543"><ele>232.20000000000002</ele><time>2026-05-04T11:55:14.999Z</time></trkpt><trkpt lat="43.26695107816295" lon="11.426376100623637"><ele>231.60000000000002</ele><time>2026-05-04T11:55:15.999Z</time></trkpt><trkpt lat="43.26684231436835" lon="11.426365798253954"><ele>231.0</ele><time>2026-05-04T11:55:16.999Z</time></trkpt><trkpt lat="43.26673899704513" lon="11.42632456683631"><ele>230.8</ele><time>2026-05-04T11:55:17.999Z</time></trkpt><trkpt lat="43.26665005414751" lon="11.426291958342434"><ele>230.60000000000002</ele><time>2026-05-04T11:55:18.999Z</time></trkpt><trkpt lat="43.266580550285234" lon="11.426208917150134"><ele>230.4</ele><time>2026-05-04T11:55:19.999Z</time></trkpt><trkpt lat="43.266529130101084" lon="11.426102838020025"><ele>230.2</ele><time>2026-05-04T11:55:20.999Z</time></trkpt><trkpt lat="43.26644849558605" lon="11.426021565438274"><ele>230.0</ele><time>2026-05-04T11:55:22Z</time></trkpt><trkpt lat="43.266394432633376" lon="11.425915599167565"><ele>230.0</ele><time>2026-05-04T11:55:23Z</time></trkpt><trkpt lat="43.26631233156124" lon="11.425812879438743"><ele>230.0</ele><time>2026-05-04T11:55:24Z</time></trkpt><trkpt lat="43.26621406844779" lon="11.425730659243978"><ele>230.0</ele><time>2026-05-04T11:55:25Z</time></trkpt><trkpt lat="43.266097663752596" lon="11.425658856952804"><ele>230.0</ele><time>2026-05-04T11:55:26Z</time></trkpt><trkpt lat="43.26597332082047" lon="11.425589590792482"><ele>230.0</ele><time>2026-05-04T11:55:27Z</time></trkpt><trkpt lat="43.265848654884635" lon="11.425527358386457"><ele>230.0</ele><time>2026-05-04T11:55:28Z</time></trkpt><trkpt lat="43.2657163456901" lon="11.425482543970551"><ele>230.0</ele><time>2026-05-04T11:55:29Z</time></trkpt><trkpt lat="43.26557924018866" lon="11.425474982103964"><ele>230.0</ele><time>2026-05-04T11:55:30Z</time></trkpt><trkpt lat="43.265450295432544" lon="11.425462905261458"><ele>230.2</ele><time>2026-05-04T11:55:31Z</time></trkpt><trkpt lat="43.26533617385231" lon="11.425442650343584"><ele>230.4</ele><time>2026-05-04T11:55:32Z</time></trkpt><trkpt lat="43.26525636291438" lon="11.425397843522122"><ele>230.60000000000002</ele><time>2026-05-04T11:55:33Z</time></trkpt><trkpt lat="43.26519314277222" lon="11.425340019318384"><ele>230.8</ele><time>2026-05-04T11:55:34Z</time></trkpt><trkpt lat="43.26513690814555" lon="11.425297274718758"><ele>231.0</ele><time>2026-05-04T11:55:35Z</time></trkpt><trkpt lat="43.26502776865333" lon="11.42527315206136"><ele>231.0</ele><time>2026-05-04T11:55:37Z</time></trkpt><trkpt lat="43.264974974327295" lon="11.425342348117047"><ele>231.0</ele><time>2026-05-04T11:55:38Z</time></trkpt><trkpt lat="43.26492351487956" lon="11.425410424276023"><ele>231.0</ele><time>2026-05-04T11:55:39Z</time></trkpt><trkpt lat="43.26486582967082" lon="11.425491991144693"><ele>231.0</ele><time>2026-05-04T11:55:40Z</time></trkpt><trkpt lat="43.26480737379387" lon="11.425579852486043"><ele>231.0</ele><time>2026-05-04T11:55:41Z</time></trkpt><trkpt lat="43.26474085887961" lon="11.425678764029758"><ele>231.0</ele><time>2026-05-04T11:55:42Z</time></trkpt><trkpt lat="43.26465354434537" lon="11.425733752077619"><ele>229.60000000000002</ele><time>2026-05-04T11:55:43Z</time></trkpt><trkpt lat="43.26456726787769" lon="11.42578172604529"><ele>228.20000000000002</ele><time>2026-05-04T11:55:44Z</time></trkpt><trkpt lat="43.26448529337698" lon="11.42584424091947"><ele>226.79999999999998</ele><time>2026-05-04T11:55:45Z</time></trkpt><trkpt lat="43.26442328201632" lon="11.425935163480112"><ele>225.39999999999998</ele><time>2026-05-04T11:55:46Z</time></trkpt><trkpt lat="43.26433535728946" lon="11.425992659630257"><ele>224.0</ele><time>2026-05-04T11:55:47Z</time></trkpt><trkpt lat="43.26423544434161" lon="11.425981090464235"><ele>224.0</ele><time>2026-05-04T11:55:48Z</time></trkpt><trkpt lat="43.2641255062423" lon="11.4260077153818"><ele>224.0</ele><time>2026-05-04T11:55:49Z</time></trkpt><trkpt lat="43.264009454405674" lon="11.42606625448121"><ele>224.0</ele><time>2026-05-04T11:55:50Z</time></trkpt><trkpt lat="43.263897660619946" lon="11.426151141881654"><ele>224.0</ele><time>2026-05-04T11:55:51Z</time></trkpt><trkpt lat="43.26379062448019" lon="11.42624821208918"><ele>223.6</ele><time>2026-05-04T11:55:52Z</time></trkpt><trkpt lat="43.26368578197405" lon="11.426352829119196"><ele>223.2</ele><time>2026-05-04T11:55:53Z</time></trkpt><trkpt lat="43.263603144249124" lon="11.426439404689244"><ele>222.79999999999998</ele><time>2026-05-04T11:55:54Z</time></trkpt><trkpt lat="43.263513210093436" lon="11.426548872215548"><ele>222.39999999999998</ele><time>2026-05-04T11:55:56Z</time></trkpt><trkpt lat="43.263451290688955" lon="11.426639057822237"><ele>222.0</ele><time>2026-05-04T11:55:57Z</time></trkpt><trkpt lat="43.26340025009989" lon="11.426747375237417"><ele>222.0</ele><time>2026-05-04T11:55:58Z</time></trkpt><trkpt lat="43.2633701625898" lon="11.426890969246303"><ele>222.0</ele><time>2026-05-04T11:55:59Z</time></trkpt><trkpt lat="43.26333869833687" lon="11.427034690141987"><ele>222.0</ele><time>2026-05-04T11:56:00Z</time></trkpt><trkpt lat="43.26330683611815" lon="11.427199211891246"><ele>222.0</ele><time>2026-05-04T11:56:01Z</time></trkpt><trkpt lat="43.26327324723217" lon="11.427367002229175"><ele>222.75</ele><time>2026-05-04T11:56:02Z</time></trkpt><trkpt lat="43.26324534552461" lon="11.42753349351863"><ele>223.5</ele><time>2026-05-04T11:56:03Z</time></trkpt><trkpt lat="43.26321442717605" lon="11.427692165343686"><ele>224.25</ele><time>2026-05-04T11:56:04Z</time></trkpt><trkpt lat="43.2631670400238" lon="11.427810010220862"><ele>225.0</ele><time>2026-05-04T11:56:05Z</time></trkpt><trkpt lat="43.26308863875857" lon="11.427935241584219"><ele>227.4</ele><time>2026-05-04T11:56:07Z</time></trkpt><trkpt lat="43.262998142870416" lon="11.428035164539066"><ele>229.8</ele><time>2026-05-04T11:56:09Z</time></trkpt><trkpt lat="43.26288412859049" lon="11.428074799663959"><ele>232.2</ele><time>2026-05-04T11:56:11Z</time></trkpt><trkpt lat="43.26281788676628" lon="11.428110933593432"><ele>234.6</ele><time>2026-05-04T11:56:12Z</time></trkpt><trkpt lat="43.26274892022473" lon="11.428042049075016"><ele>237.0</ele><time>2026-05-04T11:56:13Z</time></trkpt><trkpt lat="43.262658704951896" lon="11.428018144019969"><ele>237.0</ele><time>2026-05-04T11:56:14Z</time></trkpt><trkpt lat="43.26256810792662" lon="11.428010901016979"><ele>237.0</ele><time>2026-05-04T11:56:15Z</time></trkpt><trkpt lat="43.26247041140556" lon="11.428029458984827"><ele>237.0</ele><time>2026-05-04T11:56:16Z</time></trkpt><trkpt lat="43.262376665113756" lon="11.428029510950514"><ele>237.0</ele><time>2026-05-04T11:56:17Z</time></trkpt><trkpt lat="43.262303285058785" lon="11.428027067959867"><ele>237.0</ele><time>2026-05-04T11:56:18Z</time></trkpt><trkpt lat="43.26219738503233" lon="11.428015816232236"><ele>235.5</ele><time>2026-05-04T11:56:20Z</time></trkpt><trkpt lat="43.26211335898171" lon="11.427942589279336"><ele>234.0</ele><time>2026-05-04T11:56:22Z</time></trkpt><trkpt lat="43.262011359109515" lon="11.427852024208617"><ele>232.5</ele><time>2026-05-04T11:56:24Z</time></trkpt><trkpt lat="43.26195030629101" lon="11.427810714600675"><ele>231.0</ele><time>2026-05-04T11:56:25Z</time></trkpt><trkpt lat="43.261892906890985" lon="11.427743538508121"><ele>229.5</ele><time>2026-05-04T11:56:26Z</time></trkpt><trkpt lat="43.261832340416916" lon="11.427673960401869"><ele>228.0</ele><time>2026-05-04T11:56:27Z</time></trkpt><trkpt lat="43.26178526092968" lon="11.427597562783733"><ele>228.0</ele><time>2026-05-04T11:56:28Z</time></trkpt><trkpt lat="43.26169924844113" lon="11.42753071468217"><ele>228.0</ele><time>2026-05-04T11:56:29Z</time></trkpt><trkpt lat="43.261622510494036" lon="11.427439148203744"><ele>228.0</ele><time>2026-05-04T11:56:30Z</time></trkpt><trkpt lat="43.26155824955258" lon="11.427328931128967"><ele>228.0</ele><time>2026-05-04T11:56:31Z</time></trkpt><trkpt lat="43.26148605891971" lon="11.42721864013067"><ele>228.0</ele><time>2026-05-04T11:56:32Z</time></trkpt><trkpt lat="43.261411732291684" lon="11.427108476502426"><ele>228.75</ele><time>2026-05-04T11:56:33Z</time></trkpt><trkpt lat="43.26132818162286" lon="11.426987324611375"><ele>229.5</ele><time>2026-05-04T11:56:34Z</time></trkpt><trkpt lat="43.26123078560023" lon="11.426873550624192"><ele>230.25</ele><time>2026-05-04T11:56:35Z</time></trkpt><trkpt lat="43.26114373325757" lon="11.426743659927988"><ele>231.0</ele><time>2026-05-04T11:56:36Z</time></trkpt><trkpt lat="43.261046134098976" lon="11.426600636089763"><ele>231.0</ele><time>2026-05-04T11:56:37Z</time></trkpt><trkpt lat="43.26095141400695" lon="11.426454745719626"><ele>231.0</ele><time>2026-05-04T11:56:38Z</time></trkpt><trkpt lat="43.26086896045701" lon="11.426287703925652"><ele>231.0</ele><time>2026-05-04T11:56:39Z</time></trkpt><trkpt lat="43.26077543054247" lon="11.426141830572835"><ele>231.0</ele><time>2026-05-04T11:56:40Z</time></trkpt><trkpt lat="43.26068083101063" lon="11.42603480649082"><ele>231.60000000000002</ele><time>2026-05-04T11:56:41Z</time></trkpt><trkpt lat="43.260596458241416" lon="11.425935076470468"><ele>232.20000000000002</ele><time>2026-05-04T11:56:42Z</time></trkpt><trkpt lat="43.260507527731434" lon="11.425836049081237"><ele>232.79999999999998</ele><time>2026-05-04T11:56:43.001Z</time></trkpt><trkpt lat="43.26043578766954" lon="11.425732571982568"><ele>233.39999999999998</ele><time>2026-05-04T11:56:44.001Z</time></trkpt><trkpt lat="43.2603466616295" lon="11.42563979568923"><ele>234.0</ele><time>2026-05-04T11:56:45.001Z</time></trkpt><trkpt lat="43.26023598332138" lon="11.425554507544676"><ele>233.75</ele><time>2026-05-04T11:56:46.001Z</time></trkpt><trkpt lat="43.26014275077742" lon="11.425433142720907"><ele>233.5</ele><time>2026-05-04T11:56:47.001Z</time></trkpt><trkpt lat="43.260040907502216" lon="11.42532811243241"><ele>233.25</ele><time>2026-05-04T11:56:48.001Z</time></trkpt><trkpt lat="43.25994407574057" lon="11.425240292596177"><ele>233.0</ele><time>2026-05-04T11:56:49.001Z</time></trkpt><trkpt lat="43.259877330927615" lon="11.425130727290965"><ele>233.0</ele><time>2026-05-04T11:56:50.001Z</time></trkpt><trkpt lat="43.25981466435111" lon="11.425017475405916"><ele>233.0</ele><time>2026-05-04T11:56:51.001Z</time></trkpt><trkpt lat="43.259772598598744" lon="11.424902484153103"><ele>233.0</ele><time>2026-05-04T11:56:52.001Z</time></trkpt><trkpt lat="43.25974584549524" lon="11.424762168916962"><ele>233.0</ele><time>2026-05-04T11:56:53.001Z</time></trkpt><trkpt lat="43.25972108574335" lon="11.424606510814751"><ele>233.0</ele><time>2026-05-04T11:56:54.001Z</time></trkpt><trkpt lat="43.25970064039623" lon="11.424458456120032"><ele>232.60000000000002</ele><time>2026-05-04T11:56:55.001Z</time></trkpt><trkpt lat="43.259663201173225" lon="11.424317762121992"><ele>232.20000000000002</ele><time>2026-05-04T11:56:56.001Z</time></trkpt><trkpt lat="43.25964682970277" lon="11.424184488164189"><ele>231.8</ele><time>2026-05-04T11:56:57.001Z</time></trkpt><trkpt lat="43.259602279719786" lon="11.424053739120884"><ele>231.4</ele><time>2026-05-04T11:56:58.001Z</time></trkpt><trkpt lat="43.259544407332825" lon="11.423948866404567"><ele>231.0</ele><time>2026-05-04T11:56:59.001Z</time></trkpt><trkpt lat="43.25946231281494" lon="11.423877556005358"><ele>231.0</ele><time>2026-05-04T11:57:00.001Z</time></trkpt><trkpt lat="43.259374782368006" lon="11.423850802331197"><ele>231.00000000000003</ele><time>2026-05-04T11:57:01.001Z</time></trkpt><trkpt lat="43.25927238334173" lon="11.42383577878291"><ele>231.00000000000003</ele><time>2026-05-04T11:57:02.001Z</time></trkpt><trkpt lat="43.25916887361451" lon="11.423837481557898"><ele>231.0</ele><time>2026-05-04T11:57:03.001Z</time></trkpt><trkpt lat="43.25905965852885" lon="11.423842557684747"><ele>231.0</ele><time>2026-05-04T11:57:04.001Z</time></trkpt><trkpt lat="43.25893916597099" lon="11.423849270366324"><ele>231.0</ele><time>2026-05-04T11:57:05.001Z</time></trkpt><trkpt lat="43.258815495041105" lon="11.423854694789572"><ele>231.0</ele><time>2026-05-04T11:57:06.001Z</time></trkpt><trkpt lat="43.258685385491" lon="11.423849638937806"><ele>231.0</ele><time>2026-05-04T11:57:07.001Z</time></trkpt><trkpt lat="43.25856021731641" lon="11.423858725556629"><ele>231.0</ele><time>2026-05-04T11:57:08.001Z</time></trkpt><trkpt lat="43.25845326371616" lon="11.423836743057901"><ele>231.0</ele><time>2026-05-04T11:57:09.001Z</time></trkpt><trkpt lat="43.25834568404258" lon="11.423816348195604"><ele>231.00000000000003</ele><time>2026-05-04T11:57:10.001Z</time></trkpt><trkpt lat="43.25823711815951" lon="11.423799620801535"><ele>231.00000000000003</ele><time>2026-05-04T11:57:11.001Z</time></trkpt><trkpt lat="43.25812947928846" lon="11.423826600205587"><ele>231.0</ele><time>2026-05-04T11:57:12.001Z</time></trkpt><trkpt lat="43.258017468291484" lon="11.42386545797302"><ele>231.0</ele><time>2026-05-04T11:57:13.001Z</time></trkpt><trkpt lat="43.25790711536557" lon="11.423924967407705"><ele>230.8</ele><time>2026-05-04T11:57:14.001Z</time></trkpt><trkpt lat="43.2577950296338" lon="11.42398206851923"><ele>230.60000000000002</ele><time>2026-05-04T11:57:15.001Z</time></trkpt><trkpt lat="43.25768816541763" lon="11.424038034176155"><ele>230.4</ele><time>2026-05-04T11:57:16.001Z</time></trkpt><trkpt lat="43.257587584881556" lon="11.424086077520368"><ele>230.2</ele><time>2026-05-04T11:57:17.001Z</time></trkpt><trkpt lat="43.257488505089455" lon="11.424135697379699"><ele>230.0</ele><time>2026-05-04T11:57:18Z</time></trkpt><trkpt lat="43.257381628148714" lon="11.424177362618265"><ele>230.5</ele><time>2026-05-04T11:57:19Z</time></trkpt><trkpt lat="43.257276630536" lon="11.424221123890312"><ele>231.0</ele><time>2026-05-04T11:57:20Z</time></trkpt><trkpt lat="43.257161274385446" lon="11.424249637114878"><ele>231.5</ele><time>2026-05-04T11:57:21Z</time></trkpt><trkpt lat="43.25703441544867" lon="11.424237008080787"><ele>232.0</ele><time>2026-05-04T11:57:22Z</time></trkpt><trkpt lat="43.25691158441208" lon="11.424230098117247"><ele>232.0</ele><time>2026-05-04T11:57:23Z</time></trkpt><trkpt lat="43.25678207067151" lon="11.424215996139871"><ele>232.0</ele><time>2026-05-04T11:57:24Z</time></trkpt><trkpt lat="43.25664742001175" lon="11.424211369361776"><ele>232.0</ele><time>2026-05-04T11:57:25Z</time></trkpt><trkpt lat="43.25651066100408" lon="11.424205672668542"><ele>232.0</ele><time>2026-05-04T11:57:26Z</time></trkpt><trkpt lat="43.25637134343429" lon="11.424202521951797"><ele>231.5</ele><time>2026-05-04T11:57:27Z</time></trkpt><trkpt lat="43.25625244205671" lon="11.424182386599794"><ele>231.0</ele><time>2026-05-04T11:57:28Z</time></trkpt><trkpt lat="43.25613990601836" lon="11.424160138043428"><ele>230.5</ele><time>2026-05-04T11:57:29Z</time></trkpt><trkpt lat="43.256037219481485" lon="11.424094617209793"><ele>230.0</ele><time>2026-05-04T11:57:30Z</time></trkpt><trkpt lat="43.255929070379786" lon="11.424015322448126"><ele>230.0</ele><time>2026-05-04T11:57:31Z</time></trkpt><trkpt lat="43.25581264856854" lon="11.42391477390466"><ele>230.0</ele><time>2026-05-04T11:57:32Z</time></trkpt><trkpt lat="43.25570412395033" lon="11.42380196543601"><ele>230.0</ele><time>2026-05-04T11:57:33Z</time></trkpt><trkpt lat="43.255619021234004" lon="11.423685641159805"><ele>230.0</ele><time>2026-05-04T11:57:34Z</time></trkpt><trkpt lat="43.25554700292467" lon="11.423574183360598"><ele>230.5</ele><time>2026-05-04T11:57:35Z</time></trkpt><trkpt lat="43.25547045672456" lon="11.423449153568178"><ele>231.0</ele><time>2026-05-04T11:57:36Z</time></trkpt><trkpt lat="43.25538142459669" lon="11.423305722074192"><ele>231.5</ele><time>2026-05-04T11:57:37Z</time></trkpt><trkpt lat="43.2552844376812" lon="11.423163613405768"><ele>232.0</ele><time>2026-05-04T11:57:38Z</time></trkpt><trkpt lat="43.25518250684164" lon="11.42301218295385"><ele>232.66666666666666</ele><time>2026-05-04T11:57:39Z</time></trkpt><trkpt lat="43.25508725012514" lon="11.422851769645039"><ele>233.33333333333331</ele><time>2026-05-04T11:57:40Z</time></trkpt><trkpt lat="43.254995717893785" lon="11.422685412690752"><ele>234.0</ele><time>2026-05-04T11:57:41Z</time></trkpt><trkpt lat="43.25490860082167" lon="11.422518729041933"><ele>234.0</ele><time>2026-05-04T11:57:42Z</time></trkpt><trkpt lat="43.25480789513569" lon="11.422372298050103"><ele>234.0</ele><time>2026-05-04T11:57:43Z</time></trkpt><trkpt lat="43.254727154680154" lon="11.42223870991761"><ele>234.0</ele><time>2026-05-04T11:57:44Z</time></trkpt><trkpt lat="43.254641933371474" lon="11.422124694016794"><ele>234.0</ele><time>2026-05-04T11:57:45Z</time></trkpt><trkpt lat="43.25454594851264" lon="11.422040516378006"><ele>235.25</ele><time>2026-05-04T11:57:46Z</time></trkpt><trkpt lat="43.25442846137818" lon="11.42196503727544"><ele>236.5</ele><time>2026-05-04T11:57:47Z</time></trkpt><trkpt lat="43.25431091776019" lon="11.421853641389335"><ele>237.75</ele><time>2026-05-04T11:57:48Z</time></trkpt><trkpt lat="43.25419855494203" lon="11.421745052517814"><ele>239.0</ele><time>2026-05-04T11:57:49Z</time></trkpt><trkpt lat="43.25408458511073" lon="11.421658433230286"><ele>239.0</ele><time>2026-05-04T11:57:50Z</time></trkpt><trkpt lat="43.253981826170076" lon="11.421548138607804"><ele>239.0</ele><time>2026-05-04T11:57:51Z</time></trkpt><trkpt lat="43.25387763502295" lon="11.421433770630177"><ele>239.0</ele><time>2026-05-04T11:57:52Z</time></trkpt><trkpt lat="43.2537782595409" lon="11.421327279253282"><ele>239.0</ele><time>2026-05-04T11:57:53Z</time></trkpt><trkpt lat="43.253688912813956" lon="11.421224940456774"><ele>237.2</ele><time>2026-05-04T11:57:54Z</time></trkpt><trkpt lat="43.25359874431109" lon="11.421124669804597"><ele>235.39999999999998</ele><time>2026-05-04T11:57:55Z</time></trkpt><trkpt lat="43.253517481983174" lon="11.421011323989303"><ele>233.6</ele><time>2026-05-04T11:57:56Z</time></trkpt><trkpt lat="43.2534347897265" lon="11.42092316451223"><ele>231.8</ele><time>2026-05-04T11:57:57Z</time></trkpt><trkpt lat="43.25336165805034" lon="11.420844133597065"><ele>230.0</ele><time>2026-05-04T11:57:58Z</time></trkpt><trkpt lat="43.253280637505114" lon="11.420756154732036"><ele>230.00000000000003</ele><time>2026-05-04T11:57:59Z</time></trkpt><trkpt lat="43.25321264260155" lon="11.420668168489485"><ele>230.0</ele><time>2026-05-04T11:58:00Z</time></trkpt><trkpt lat="43.25315303604687" lon="11.420572423932429"><ele>230.0</ele><time>2026-05-04T11:58:01Z</time></trkpt><trkpt lat="43.253100806668414" lon="11.420473022503733"><ele>230.0</ele><time>2026-05-04T11:58:02Z</time></trkpt><trkpt lat="43.25306215039756" lon="11.42038141467615"><ele>230.00000000000003</ele><time>2026-05-04T11:58:03Z</time></trkpt><trkpt lat="43.25304034108636" lon="11.420264746286625"><ele>230.0</ele><time>2026-05-04T11:58:04Z</time></trkpt><trkpt lat="43.25303183222756" lon="11.420138527241111"><ele>228.6</ele><time>2026-05-04T11:58:05Z</time></trkpt><trkpt lat="43.253020424886074" lon="11.41999992591287"><ele>227.2</ele><time>2026-05-04T11:58:06Z</time></trkpt><trkpt lat="43.25299777454498" lon="11.419848372623957"><ele>225.8</ele><time>2026-05-04T11:58:07Z</time></trkpt><trkpt lat="43.25298513588547" lon="11.419700185303826"><ele>224.4</ele><time>2026-05-04T11:58:08Z</time></trkpt><trkpt lat="43.252980707227096" lon="11.419559041904911"><ele>223.0</ele><time>2026-05-04T11:58:09Z</time></trkpt><trkpt lat="43.2529707821587" lon="11.419424456713054"><ele>223.0</ele><time>2026-05-04T11:58:10Z</time></trkpt><trkpt lat="43.25295764850264" lon="11.419306015496261"><ele>223.0</ele><time>2026-05-04T11:58:11Z</time></trkpt><trkpt lat="43.25292607213739" lon="11.419178419424515"><ele>223.0</ele><time>2026-05-04T11:58:12Z</time></trkpt><trkpt lat="43.25288136333947" lon="11.419059572015327"><ele>223.0</ele><time>2026-05-04T11:58:13Z</time></trkpt><trkpt lat="43.25284260634089" lon="11.418921477186952"><ele>223.0</ele><time>2026-05-04T11:58:14Z</time></trkpt><trkpt lat="43.25280302069872" lon="11.418813499665816"><ele>223.16666666666666</ele><time>2026-05-04T11:58:15Z</time></trkpt><trkpt lat="43.25277009196809" lon="11.418711266654418"><ele>223.33333333333331</ele><time>2026-05-04T11:58:16Z</time></trkpt><trkpt lat="43.25272088689354" lon="11.41863190066751"><ele>223.5</ele><time>2026-05-04T11:58:17Z</time></trkpt><trkpt lat="43.25268518971425" lon="11.418541727241903"><ele>223.66666666666669</ele><time>2026-05-04T11:58:18Z</time></trkpt><trkpt lat="43.25262128850303" lon="11.41850310996272"><ele>223.83333333333334</ele><time>2026-05-04T11:58:19Z</time></trkpt><trkpt lat="43.25251712446565" lon="11.418440797939272"><ele>224.0</ele><time>2026-05-04T11:58:21Z</time></trkpt><trkpt lat="43.252463389461" lon="11.418374545176746"><ele>224.00000000000003</ele><time>2026-05-04T11:58:22Z</time></trkpt><trkpt lat="43.25240188079177" lon="11.418327950476607"><ele>224.0</ele><time>2026-05-04T11:58:23Z</time></trkpt><trkpt lat="43.252330637972605" lon="11.418273981770728"><ele>224.0</ele><time>2026-05-04T11:58:24Z</time></trkpt><trkpt lat="43.25227219265767" lon="11.41822172540092"><ele>224.0</ele><time>2026-05-04T11:58:25Z</time></trkpt><trkpt lat="43.25220966767132" lon="11.418153375935118"><ele>224.00000000000003</ele><time>2026-05-04T11:58:26Z</time></trkpt><trkpt lat="43.252163742145456" lon="11.418080581770583"><ele>224.0</ele><time>2026-05-04T11:58:27Z</time></trkpt><trkpt lat="43.25212410631242" lon="11.417937464287986"><ele>221.25</ele><time>2026-05-04T11:58:29Z</time></trkpt><trkpt lat="43.252135199051395" lon="11.417785427960606"><ele>218.5</ele><time>2026-05-04T11:58:31Z</time></trkpt><trkpt lat="43.252182537201364" lon="11.41764139123057"><ele>215.75</ele><time>2026-05-04T11:58:33Z</time></trkpt><trkpt lat="43.2521830975718" lon="11.417482719630229"><ele>213.0</ele><time>2026-05-04T11:58:35Z</time></trkpt><trkpt lat="43.252184979645264" lon="11.417316726708778"><ele>213.0</ele><time>2026-05-04T11:58:37Z</time></trkpt><trkpt lat="43.2521845209077" lon="11.417222192620303"><ele>213.0</ele><time>2026-05-04T11:58:38Z</time></trkpt><trkpt lat="43.25219361857953" lon="11.417131580115399"><ele>213.0</ele><time>2026-05-04T11:58:39Z</time></trkpt><trkpt lat="43.25220198530715" lon="11.417041385055311"><ele>213.0</ele><time>2026-05-04T11:58:40Z</time></trkpt><trkpt lat="43.25222675294171" lon="11.416885426767928"><ele>213.0</ele><time>2026-05-04T11:58:42.001Z</time></trkpt><trkpt lat="43.25222811078207" lon="11.416758627513252"><ele>213.0</ele><time>2026-05-04T11:58:44.001Z</time></trkpt><trkpt lat="43.25220345944063" lon="11.416652947437097"><ele>212.5</ele><time>2026-05-04T11:58:46.001Z</time></trkpt><trkpt lat="43.25211674690225" lon="11.416604629523748"><ele>212.0</ele><time>2026-05-04T11:58:48.001Z</time></trkpt><trkpt lat="43.25205063548238" lon="11.416645241652805"><ele>211.5</ele><time>2026-05-04T11:58:49.001Z</time></trkpt><trkpt lat="43.251986276162604" lon="11.416743359622942"><ele>211.0</ele><time>2026-05-04T11:58:51.001Z</time></trkpt><trkpt lat="43.251923850610865" lon="11.41681654220745"><ele>210.5</ele><time>2026-05-04T11:58:53.001Z</time></trkpt><trkpt lat="43.25187229266234" lon="11.416899280451549"><ele>210.0</ele><time>2026-05-04T11:58:55.001Z</time></trkpt><trkpt lat="43.251804024387106" lon="11.41699510382399"><ele>210.0</ele><time>2026-05-04T11:58:57.001Z</time></trkpt><trkpt lat="43.251753836547095" lon="11.41705687506279"><ele>210.0</ele><time>2026-05-04T11:58:58.001Z</time></trkpt><trkpt lat="43.2517035689698" lon="11.417119075370941"><ele>210.0</ele><time>2026-05-04T11:58:59.001Z</time></trkpt><trkpt lat="43.251653577711814" lon="11.41718131396081"><ele>210.0</ele><time>2026-05-04T11:59:00.001Z</time></trkpt><trkpt lat="43.25156536951535" lon="11.417292912037476"><ele>210.0</ele><time>2026-05-04T11:59:02.001Z</time></trkpt><trkpt lat="43.25145503456641" lon="11.41734157639122"><ele>210.0</ele><time>2026-05-04T11:59:04.001Z</time></trkpt><trkpt lat="43.25134150166559" lon="11.417388843191398"><ele>208.28571428571428</ele><time>2026-05-04T11:59:06.001Z</time></trkpt><trkpt lat="43.251273859778024" lon="11.417420267365737"><ele>206.57142857142856</ele><time>2026-05-04T11:59:07.001Z</time></trkpt><trkpt lat="43.251210813193254" lon="11.417449556756235"><ele>204.85714285714286</ele><time>2026-05-04T11:59:08.001Z</time></trkpt><trkpt lat="43.25114849126084" lon="11.417478959188218"><ele>203.14285714285714</ele><time>2026-05-04T11:59:09.001Z</time></trkpt><trkpt lat="43.251084172195895" lon="11.417512423745999"><ele>201.42857142857142</ele><time>2026-05-04T11:59:10.001Z</time></trkpt><trkpt lat="43.25102357723792" lon="11.417543950732313"><ele>199.71428571428572</ele><time>2026-05-04T11:59:11.001Z</time></trkpt><trkpt lat="43.25095536920241" lon="11.417577163094256"><ele>198.0</ele><time>2026-05-04T11:59:12.001Z</time></trkpt><trkpt lat="43.2508907558854" lon="11.417620076801649"><ele>198.0</ele><time>2026-05-04T11:59:13.001Z</time></trkpt><trkpt lat="43.250819502812675" lon="11.417618054007873"><ele>198.0</ele><time>2026-05-04T11:59:14.001Z</time></trkpt><trkpt lat="43.25074794663432" lon="11.417631653531464"><ele>198.0</ele><time>2026-05-04T11:59:15.001Z</time></trkpt><trkpt lat="43.250680376884524" lon="11.417640770879375"><ele>198.0</ele><time>2026-05-04T11:59:16.001Z</time></trkpt><trkpt lat="43.25061152624631" lon="11.417640556774511"><ele>198.0</ele><time>2026-05-04T11:59:17.001Z</time></trkpt><trkpt lat="43.25054141405237" lon="11.41765449085612"><ele>198.0</ele><time>2026-05-04T11:59:18.001Z</time></trkpt><trkpt lat="43.25047989743936" lon="11.417594128970412"><ele>198.0</ele><time>2026-05-04T11:59:19.001Z</time></trkpt><trkpt lat="43.25041109772093" lon="11.417547104212401"><ele>195.8</ele><time>2026-05-04T11:59:20.001Z</time></trkpt><trkpt lat="43.25034056233298" lon="11.41749885038677"><ele>193.60000000000002</ele><time>2026-05-04T11:59:21.001Z</time></trkpt><trkpt lat="43.25026218563538" lon="11.41743892318895"><ele>191.39999999999998</ele><time>2026-05-04T11:59:22.001Z</time></trkpt><trkpt lat="43.25018846014196" lon="11.417376452050553"><ele>189.2</ele><time>2026-05-04T11:59:23.001Z</time></trkpt><trkpt lat="43.25009220636836" lon="11.417294441358024"><ele>187.0</ele><time>2026-05-04T11:59:23.999Z</time></trkpt><trkpt lat="43.249998621551484" lon="11.417214704452126"><ele>187.8</ele><time>2026-05-04T11:59:24.999Z</time></trkpt><trkpt lat="43.24990646372832" lon="11.417137228318277"><ele>188.6</ele><time>2026-05-04T11:59:25.999Z</time></trkpt><trkpt lat="43.249811265196364" lon="11.417058413146261"><ele>189.4</ele><time>2026-05-04T11:59:26.999Z</time></trkpt><trkpt lat="43.249719156269954" lon="11.416983140882804"><ele>190.20000000000002</ele><time>2026-05-04T11:59:27.999Z</time></trkpt><trkpt lat="43.24962091820983" lon="11.416902860209897"><ele>191.0</ele><time>2026-05-04T11:59:28.999Z</time></trkpt><trkpt lat="43.249517645126666" lon="11.4168439428517"><ele>189.0</ele><time>2026-05-04T11:59:29.999Z</time></trkpt><trkpt lat="43.24942177887061" lon="11.416761746251119"><ele>187.0</ele><time>2026-05-04T11:59:30.999Z</time></trkpt><trkpt lat="43.249332016264866" lon="11.416689014832993"><ele>185.0</ele><time>2026-05-04T11:59:31.999Z</time></trkpt><trkpt lat="43.24923485037789" lon="11.41663272248101"><ele>183.0</ele><time>2026-05-04T11:59:32.999Z</time></trkpt><trkpt lat="43.2491348621963" lon="11.416597429200431"><ele>181.0</ele><time>2026-05-04T11:59:33.999Z</time></trkpt><trkpt lat="43.249016986515095" lon="11.416579021994597"><ele>180.5</ele><time>2026-05-04T11:59:34.999Z</time></trkpt><trkpt lat="43.24889543441546" lon="11.416573445901944"><ele>180.0</ele><time>2026-05-04T11:59:35.999Z</time></trkpt><trkpt lat="43.24877176212601" lon="11.416577509090796"><ele>179.5</ele><time>2026-05-04T11:59:36.999Z</time></trkpt><trkpt lat="43.24865158030991" lon="11.416581779030135"><ele>179.0</ele><time>2026-05-04T11:59:37.999Z</time></trkpt><trkpt lat="43.24854072042924" lon="11.416584303226495"><ele>179.0</ele><time>2026-05-04T11:59:38.999Z</time></trkpt><trkpt lat="43.24843872021168" lon="11.416559265172221"><ele>179.0</ele><time>2026-05-04T11:59:39.999Z</time></trkpt><trkpt lat="43.24834586729061" lon="11.416548458606167"><ele>179.0</ele><time>2026-05-04T11:59:40.999Z</time></trkpt><trkpt lat="43.248261863490654" lon="11.416537721535551"><ele>179.0</ele><time>2026-05-04T11:59:41.999Z</time></trkpt><trkpt lat="43.24819555461422" lon="11.41654972588179"><ele>179.0</ele><time>2026-05-04T11:59:43Z</time></trkpt><trkpt lat="43.24811327348885" lon="11.41653273610585"><ele>179.0</ele><time>2026-05-04T11:59:45Z</time></trkpt><trkpt lat="43.24803644727433" lon="11.41648524384117"><ele>178.79999999999998</ele><time>2026-05-04T11:59:50Z</time></trkpt><trkpt lat="43.24797781829477" lon="11.416448395755328"><ele>178.6</ele><time>2026-05-04T11:59:52Z</time></trkpt><trkpt lat="43.24789947992394" lon="11.416431049290162"><ele>178.4</ele><time>2026-05-04T11:59:55Z</time></trkpt><trkpt lat="43.24787738151606" lon="11.416601656980987"><ele>178.2</ele><time>2026-05-04T12:00:31Z</time></trkpt><trkpt lat="43.24799211867633" lon="11.41661170852801"><ele>178.0</ele><time>2026-05-04T12:00:35Z</time></trkpt><trkpt lat="43.24805314062142" lon="11.416576592470207"><ele>178.0</ele><time>2026-05-04T12:00:37Z</time></trkpt><trkpt lat="43.248019764424754" lon="11.416503002414762"><ele>178.0</ele><time>2026-05-04T12:00:40Z</time></trkpt><trkpt lat="43.24791598106684" lon="11.416433323561792"><ele>178.0</ele><time>2026-05-04T12:00:42Z</time></trkpt><trkpt lat="43.24785080915479" lon="11.416424733418753"><ele>178.0</ele><time>2026-05-04T12:00:43Z</time></trkpt><trkpt lat="43.247781190006734" lon="11.416442508036774"><ele>178.0</ele><time>2026-05-04T12:00:44Z</time></trkpt><trkpt lat="43.24771769414552" lon="11.416447377049058"><ele>178.0</ele><time>2026-05-04T12:00:45Z</time></trkpt><trkpt lat="43.2476027996714" lon="11.416444429776302"><ele>178.0</ele><time>2026-05-04T12:00:47Z</time></trkpt><trkpt lat="43.247504169255464" lon="11.41646532625328"><ele>178.0</ele><time>2026-05-04T12:00:49Z</time></trkpt><trkpt lat="43.247381528338764" lon="11.416484482265744"><ele>178.0</ele><time>2026-05-04T12:00:51.001Z</time></trkpt><trkpt lat="43.24724761424457" lon="11.416471678058771"><ele>178.0</ele><time>2026-05-04T12:00:53.001Z</time></trkpt><trkpt lat="43.247172805294795" lon="11.41644901516505"><ele>178.0</ele><time>2026-05-04T12:00:54.001Z</time></trkpt><trkpt lat="43.247084065941806" lon="11.416412636419263"><ele>176.8</ele><time>2026-05-04T12:00:55.001Z</time></trkpt><trkpt lat="43.24699588561676" lon="11.416370815056984"><ele>175.60000000000002</ele><time>2026-05-04T12:00:56.001Z</time></trkpt><trkpt lat="43.24689890261793" lon="11.416322660118684"><ele>174.39999999999998</ele><time>2026-05-04T12:00:57.001Z</time></trkpt><trkpt lat="43.24679545183997" lon="11.416271293710349"><ele>173.2</ele><time>2026-05-04T12:00:58.001Z</time></trkpt><trkpt lat="43.24668628732626" lon="11.416217090288225"><ele>172.0</ele><time>2026-05-04T12:00:59.001Z</time></trkpt><trkpt lat="43.24656860605093" lon="11.416159429687713"><ele>170.33333333333334</ele><time>2026-05-04T12:01:00.001Z</time></trkpt><trkpt lat="43.24643456137432" lon="11.416093873477818"><ele>168.66666666666666</ele><time>2026-05-04T12:01:01.001Z</time></trkpt><trkpt lat="43.24628792826981" lon="11.416022160933663"><ele>167.0</ele><time>2026-05-04T12:01:02.001Z</time></trkpt><trkpt lat="43.24612123664686" lon="11.415935937802136"><ele>167.0</ele><time>2026-05-04T12:01:03.001Z</time></trkpt><trkpt lat="43.24594124668865" lon="11.41584451682237"><ele>167.0</ele><time>2026-05-04T12:01:04.001Z</time></trkpt><trkpt lat="43.24574479708832" lon="11.415753992350375"><ele>167.0</ele><time>2026-05-04T12:01:05.001Z</time></trkpt><trkpt lat="43.245536828208" lon="11.415686047627478"><ele>167.0</ele><time>2026-05-04T12:01:06.001Z</time></trkpt><trkpt lat="43.24532772917593" lon="11.415600700141326"><ele>167.0</ele><time>2026-05-04T12:01:07.001Z</time></trkpt><trkpt lat="43.24512267533495" lon="11.415515072892829"><ele>167.0</ele><time>2026-05-04T12:01:08.001Z</time></trkpt><trkpt lat="43.24493019687282" lon="11.415410128608137"><ele>166.33333333333331</ele><time>2026-05-04T12:01:09.001Z</time></trkpt><trkpt lat="43.2447546227655" lon="11.41533531635838"><ele>165.66666666666666</ele><time>2026-05-04T12:01:10.001Z</time></trkpt><trkpt lat="43.24459213706389" lon="11.415266081026076"><ele>165.0</ele><time>2026-05-04T12:01:11.001Z</time></trkpt><trkpt lat="43.24444023680464" lon="11.415203316753818"><ele>165.0</ele><time>2026-05-04T12:01:12.001Z</time></trkpt><trkpt lat="43.244301465683336" lon="11.415146257796629"><ele>165.0</ele><time>2026-05-04T12:01:13.001Z</time></trkpt><trkpt lat="43.24417401069361" lon="11.415093851671916"><ele>165.0</ele><time>2026-05-04T12:01:14.001Z</time></trkpt><trkpt lat="43.24406030848979" lon="11.41504710036284"><ele>165.0</ele><time>2026-05-04T12:01:15.001Z</time></trkpt><trkpt lat="43.243952718348034" lon="11.415002610466805"><ele>164.5</ele><time>2026-05-04T12:01:16.001Z</time></trkpt><trkpt lat="43.24385922750653" lon="11.414962222766723"><ele>164.0</ele><time>2026-05-04T12:01:17.001Z</time></trkpt><trkpt lat="43.24376574166916" lon="11.41494544071627"><ele>163.5</ele><time>2026-05-04T12:01:18.001Z</time></trkpt><trkpt lat="43.243686653447334" lon="11.41490051039457"><ele>163.0</ele><time>2026-05-04T12:01:19.001Z</time></trkpt><trkpt lat="43.24361590924806" lon="11.414872530082128"><ele>162.5</ele><time>2026-05-04T12:01:20.001Z</time></trkpt><trkpt lat="43.243542865617925" lon="11.414838204478173"><ele>162.0</ele><time>2026-05-04T12:01:21.001Z</time></trkpt><trkpt lat="43.24348219391142" lon="11.414813849796824"><ele>162.0</ele><time>2026-05-04T12:01:22.001Z</time></trkpt><trkpt lat="43.243364896173496" lon="11.414806746825725"><ele>162.0</ele><time>2026-05-04T12:01:24.001Z</time></trkpt><trkpt lat="43.24329742514033" lon="11.414826417146285"><ele>162.0</ele><time>2026-05-04T12:01:25.001Z</time></trkpt><trkpt lat="43.24319690373542" lon="11.414912401142606"><ele>162.0</ele><time>2026-05-04T12:01:27.001Z</time></trkpt><trkpt lat="43.24311989029887" lon="11.414995088194594"><ele>162.0</ele><time>2026-05-04T12:01:29.001Z</time></trkpt><trkpt lat="43.24317001670976" lon="11.415157773132714"><ele>162.0</ele><time>2026-05-04T12:01:31Z</time></trkpt><trkpt lat="43.24324181014581" lon="11.41527613657483"><ele>162.0</ele><time>2026-05-04T12:01:33Z</time></trkpt><trkpt lat="43.24326983739125" lon="11.415383370843525"><ele>162.0</ele><time>2026-05-04T12:01:35Z</time></trkpt><trkpt lat="43.24329932403774" lon="11.415472231425674"><ele>162.0</ele><time>2026-05-04T12:40:32.999Z</time></trkpt><trkpt lat="43.243329272877915" lon="11.415590133452797"><ele>162.0</ele><time>2026-05-04T12:40:34.999Z</time></trkpt><trkpt lat="43.24331475017081" lon="11.41577408285914"><ele>162.16666666666666</ele><time>2026-05-04T12:40:36.999Z</time></trkpt><trkpt lat="43.2432852134518" lon="11.41587149913022"><ele>162.33333333333334</ele><time>2026-05-04T12:40:37.999Z</time></trkpt><trkpt lat="43.243248319676404" lon="11.415966863476728"><ele>162.5</ele><time>2026-05-04T12:40:38.999Z</time></trkpt><trkpt lat="43.24321128354696" lon="11.416071067561262"><ele>162.66666666666669</ele><time>2026-05-04T12:40:39.999Z</time></trkpt><trkpt lat="43.243170688560326" lon="11.416184845238694"><ele>162.83333333333334</ele><time>2026-05-04T12:40:40.999Z</time></trkpt><trkpt lat="43.24313184702133" lon="11.416303488227426"><ele>163.0</ele><time>2026-05-04T12:40:41.999Z</time></trkpt><trkpt lat="43.24308468618679" lon="11.416437254956783"><ele>163.0</ele><time>2026-05-04T12:40:42.999Z</time></trkpt><trkpt lat="43.243038878377995" lon="11.416567393182719"><ele>163.0</ele><time>2026-05-04T12:40:43.999Z</time></trkpt><trkpt lat="43.242986103071864" lon="11.416705303321521"><ele>163.0</ele><time>2026-05-04T12:40:44.999Z</time></trkpt><trkpt lat="43.242928770084056" lon="11.416845008340383"><ele>163.0</ele><time>2026-05-04T12:40:45.999Z</time></trkpt><trkpt lat="43.242869361052485" lon="11.416985659282195"><ele>163.0</ele><time>2026-05-04T12:40:46.999Z</time></trkpt><trkpt lat="43.24280657377778" lon="11.417129997077883"><ele>163.0</ele><time>2026-05-04T12:40:47.999Z</time></trkpt><trkpt lat="43.24274310459623" lon="11.417273750396554"><ele>163.0</ele><time>2026-05-04T12:40:48.999Z</time></trkpt><trkpt lat="43.24268273480422" lon="11.41742665427372"><ele>163.0</ele><time>2026-05-04T12:40:49.999Z</time></trkpt><trkpt lat="43.24262425892537" lon="11.417570785651476"><ele>163.2</ele><time>2026-05-04T12:40:50.999Z</time></trkpt><trkpt lat="43.24257425831218" lon="11.417704973884824"><ele>163.4</ele><time>2026-05-04T12:40:51.999Z</time></trkpt><trkpt lat="43.242524164905966" lon="11.417832005511102"><ele>163.6</ele><time>2026-05-04T12:40:52.999Z</time></trkpt><trkpt lat="43.24246530213554" lon="11.417955045924653"><ele>163.79999999999998</ele><time>2026-05-04T12:40:53.999Z</time></trkpt><trkpt lat="43.242396041872" lon="11.418067703081002"><ele>164.0</ele><time>2026-05-04T12:40:54.999Z</time></trkpt><trkpt lat="43.24231893785708" lon="11.418172043317968"><ele>164.2</ele><time>2026-05-04T12:40:55.999Z</time></trkpt><trkpt lat="43.24223505236508" lon="11.41826257145259"><ele>164.39999999999998</ele><time>2026-05-04T12:40:56.999Z</time></trkpt><trkpt lat="43.242149838053734" lon="11.41835043835157"><ele>164.6</ele><time>2026-05-04T12:40:57.999Z</time></trkpt><trkpt lat="43.24206656811325" lon="11.418450867062623"><ele>164.8</ele><time>2026-05-04T12:40:58.999Z</time></trkpt><trkpt lat="43.24197683947531" lon="11.4185673419788"><ele>165.0</ele><time>2026-05-04T12:40:59.999Z</time></trkpt><trkpt lat="43.24188054774728" lon="11.41869551330511"><ele>164.75</ele><time>2026-05-04T12:41:00.999Z</time></trkpt><trkpt lat="43.241781648089585" lon="11.418830068709838"><ele>164.5</ele><time>2026-05-04T12:41:01.999Z</time></trkpt><trkpt lat="43.2416825039667" lon="11.418955138180932"><ele>164.25</ele><time>2026-05-04T12:41:02.999Z</time></trkpt><trkpt lat="43.24157642890116" lon="11.41908962883169"><ele>164.0</ele><time>2026-05-04T12:41:03.999Z</time></trkpt><trkpt lat="43.24146925932889" lon="11.419227514715834"><ele>164.0</ele><time>2026-05-04T12:41:04.999Z</time></trkpt><trkpt lat="43.24135703942768" lon="11.419372428437509"><ele>164.0</ele><time>2026-05-04T12:41:05.999Z</time></trkpt><trkpt lat="43.24124997212201" lon="11.419510212080274"><ele>164.0</ele><time>2026-05-04T12:41:06.999Z</time></trkpt><trkpt lat="43.24114602431097" lon="11.419643630235598"><ele>164.0</ele><time>2026-05-04T12:41:07.999Z</time></trkpt><trkpt lat="43.24104858955281" lon="11.419770000160678"><ele>164.0</ele><time>2026-05-04T12:41:08.999Z</time></trkpt><trkpt lat="43.24095370804536" lon="11.41989302088391"><ele>164.0</ele><time>2026-05-04T12:41:09.999Z</time></trkpt><trkpt lat="43.24085941540497" lon="11.420017639774658"><ele>164.0</ele><time>2026-05-04T12:41:10.999Z</time></trkpt><trkpt lat="43.24075908392181" lon="11.420136175577467"><ele>164.0</ele><time>2026-05-04T12:41:11.999Z</time></trkpt><trkpt lat="43.2405705230897" lon="11.4203647414798"><ele>164.0</ele><time>2026-05-04T12:41:13.999Z</time></trkpt><trkpt lat="43.24048172554167" lon="11.420476987809243"><ele>164.0</ele><time>2026-05-04T12:41:14.999Z</time></trkpt><trkpt lat="43.24038970181833" lon="11.420592111032322"><ele>164.0</ele><time>2026-05-04T12:41:15.999Z</time></trkpt><trkpt lat="43.24029785291211" lon="11.4207090415099"><ele>164.0</ele><time>2026-05-04T12:41:16.999Z</time></trkpt><trkpt lat="43.24019770299567" lon="11.420832366527108"><ele>164.0</ele><time>2026-05-04T12:41:17.999Z</time></trkpt><trkpt lat="43.24009805806576" lon="11.420955861696676"><ele>164.0</ele><time>2026-05-04T12:41:18.999Z</time></trkpt><trkpt lat="43.23999927574331" lon="11.421077169449116"><ele>164.0</ele><time>2026-05-04T12:41:19.999Z</time></trkpt><trkpt lat="43.23990118736127" lon="11.421192160459599"><ele>164.0</ele><time>2026-05-04T12:41:20.999Z</time></trkpt><trkpt lat="43.23980626466059" lon="11.421310287273018"><ele>163.79999999999998</ele><time>2026-05-04T12:41:21.999Z</time></trkpt><trkpt lat="43.239717244596875" lon="11.421422365312194"><ele>163.6</ele><time>2026-05-04T12:41:22.995Z</time></trkpt><trkpt lat="43.23963123065614" lon="11.421529767684955"><ele>163.4</ele><time>2026-05-04T12:41:23.995Z</time></trkpt><trkpt lat="43.23955226725488" lon="11.421629143767404"><ele>163.2</ele><time>2026-05-04T12:41:24.995Z</time></trkpt><trkpt lat="43.239477196985135" lon="11.421722109137708"><ele>163.0</ele><time>2026-05-04T12:41:25.995Z</time></trkpt><trkpt lat="43.23941056223389" lon="11.42180603689065"><ele>163.0</ele><time>2026-05-04T12:41:26.995Z</time></trkpt><trkpt lat="43.23934585491385" lon="11.421889757521535"><ele>163.0</ele><time>2026-05-04T12:41:27.995Z</time></trkpt><trkpt lat="43.23928001120385" lon="11.421974517815269"><ele>163.0</ele><time>2026-05-04T12:41:28.995Z</time></trkpt><trkpt lat="43.2392152413769" lon="11.422057463127592"><ele>163.0</ele><time>2026-05-04T12:41:29.995Z</time></trkpt><trkpt lat="43.23915131297269" lon="11.422139753202126"><ele>163.0</ele><time>2026-05-04T12:41:30.995Z</time></trkpt><trkpt lat="43.239089692006985" lon="11.4222174663598"><ele>163.0</ele><time>2026-05-04T12:41:31.995Z</time></trkpt><trkpt lat="43.23903373750447" lon="11.42229000947347"><ele>163.0</ele><time>2026-05-04T12:41:32.995Z</time></trkpt><trkpt lat="43.23897259754505" lon="11.422367575643607"><ele>163.0</ele><time>2026-05-04T12:41:33.995Z</time></trkpt><trkpt lat="43.238921300340394" lon="11.422433813007665"><ele>163.0</ele><time>2026-05-04T12:41:34.995Z</time></trkpt><trkpt lat="43.23886394442566" lon="11.422505885764615"><ele>163.0</ele><time>2026-05-04T12:41:35.995Z</time></trkpt><trkpt lat="43.238807282791235" lon="11.422577529481154"><ele>163.0</ele><time>2026-05-04T12:41:36.995Z</time></trkpt><trkpt lat="43.23875446388876" lon="11.422648311691288"><ele>163.0</ele><time>2026-05-04T12:41:37.995Z</time></trkpt><trkpt lat="43.23870317641262" lon="11.4227223923179"><ele>163.0</ele><time>2026-05-04T12:41:38.996Z</time></trkpt><trkpt lat="43.23865729465716" lon="11.422783816077514"><ele>163.0</ele><time>2026-05-04T12:41:39.996Z</time></trkpt><trkpt lat="43.23856562993643" lon="11.422903514157525"><ele>163.0</ele><time>2026-05-04T12:41:41.996Z</time></trkpt><trkpt lat="43.23851738996417" lon="11.422964438327911"><ele>163.0</ele><time>2026-05-04T12:41:42.996Z</time></trkpt><trkpt lat="43.238470495641124" lon="11.423026192384594"><ele>163.0</ele><time>2026-05-04T12:41:43.996Z</time></trkpt><trkpt lat="43.238419367850184" lon="11.423092199088927"><ele>163.0</ele><time>2026-05-04T12:41:44.996Z</time></trkpt><trkpt lat="43.23836772009324" lon="11.423153363324353"><ele>163.2</ele><time>2026-05-04T12:41:45.996Z</time></trkpt><trkpt lat="43.23831946077686" lon="11.423222550669704"><ele>163.4</ele><time>2026-05-04T12:41:46.996Z</time></trkpt><trkpt lat="43.238271402100004" lon="11.423288746044769"><ele>163.6</ele><time>2026-05-04T12:41:47.997Z</time></trkpt><trkpt lat="43.23822572191037" lon="11.423355012167166"><ele>163.79999999999998</ele><time>2026-05-04T12:41:48.997Z</time></trkpt><trkpt lat="43.238154779510836" lon="11.423436889635928"><ele>164.0</ele><time>2026-05-04T12:41:50.997Z</time></trkpt><trkpt lat="43.23797498396338" lon="11.423415808351292"><ele>164.6</ele><time>2026-05-04T12:42:28.998Z</time></trkpt><trkpt lat="43.23791078537177" lon="11.42343804911018"><ele>165.2</ele><time>2026-05-04T12:42:29.998Z</time></trkpt><trkpt lat="43.23780197187226" lon="11.42347245095889"><ele>165.79999999999998</ele><time>2026-05-04T12:42:31.998Z</time></trkpt><trkpt lat="43.23765407410301" lon="11.423522699666709"><ele>166.39999999999998</ele><time>2026-05-04T12:42:33.998Z</time></trkpt><trkpt lat="43.23756986399299" lon="11.423490069896133"><ele>167.0</ele><time>2026-05-04T12:42:34.998Z</time></trkpt><trkpt lat="43.237489692337746" lon="11.42346813918952"><ele>167.0</ele><time>2026-05-04T12:42:35.998Z</time></trkpt><trkpt lat="43.23742755781188" lon="11.423416417624583"><ele>167.0</ele><time>2026-05-04T12:42:36.998Z</time></trkpt><trkpt lat="43.23739165248492" lon="11.42333493094947"><ele>167.0</ele><time>2026-05-04T12:42:37.998Z</time></trkpt><trkpt lat="43.23737909035816" lon="11.42322286355692"><ele>167.0</ele><time>2026-05-04T12:42:38.998Z</time></trkpt><trkpt lat="43.23734183127992" lon="11.42313077561845"><ele>167.0</ele><time>2026-05-04T12:42:39.998Z</time></trkpt><trkpt lat="43.23728329816784" lon="11.423070257815315"><ele>167.0</ele><time>2026-05-04T12:42:40.998Z</time></trkpt><trkpt lat="43.23721125314966" lon="11.423067741735085"><ele>167.0</ele><time>2026-05-04T12:42:41.999Z</time></trkpt><trkpt lat="43.23714006372868" lon="11.42310477361489"><ele>167.2</ele><time>2026-05-04T12:42:42.999Z</time></trkpt><trkpt lat="43.23707098864875" lon="11.423185299480032"><ele>167.39999999999998</ele><time>2026-05-04T12:42:43.999Z</time></trkpt><trkpt lat="43.236992803581366" lon="11.423262283448498"><ele>167.60000000000002</ele><time>2026-05-04T12:42:44.999Z</time></trkpt><trkpt lat="43.236902158749125" lon="11.423353093330903"><ele>167.8</ele><time>2026-05-04T12:42:45.999Z</time></trkpt><trkpt lat="43.236800247093434" lon="11.423448179622508"><ele>168.0</ele><time>2026-05-04T12:42:46.999Z</time></trkpt><trkpt lat="43.236692135378696" lon="11.423541502600253"><ele>168.0</ele><time>2026-05-04T12:42:47.999Z</time></trkpt><trkpt lat="43.236576205327495" lon="11.423631192269964"><ele>168.0</ele><time>2026-05-04T12:42:48.999Z</time></trkpt><trkpt lat="43.23645934252722" lon="11.423730329493832"><ele>168.0</ele><time>2026-05-04T12:42:49.999Z</time></trkpt><trkpt lat="43.23633979068676" lon="11.423828138833795"><ele>168.0</ele><time>2026-05-04T12:42:50.999Z</time></trkpt><trkpt lat="43.2362147041415" lon="11.423925224519213"><ele>167.0</ele><time>2026-05-04T12:42:51.999Z</time></trkpt><trkpt lat="43.236092463521615" lon="11.424032227207963"><ele>166.0</ele><time>2026-05-04T12:42:52.999Z</time></trkpt><trkpt lat="43.23596047950843" lon="11.424146984899929"><ele>165.0</ele><time>2026-05-04T12:42:53.999Z</time></trkpt><trkpt lat="43.23582434472792" lon="11.424269396327157"><ele>165.0</ele><time>2026-05-04T12:42:54.999Z</time></trkpt><trkpt lat="43.235677638375485" lon="11.424389871179006"><ele>165.0</ele><time>2026-05-04T12:42:55.999Z</time></trkpt><trkpt lat="43.23552716681423" lon="11.424519532199067"><ele>165.0</ele><time>2026-05-04T12:42:56.999Z</time></trkpt><trkpt lat="43.23537627098498" lon="11.424646143564365"><ele>164.0</ele><time>2026-05-04T12:42:57.999Z</time></trkpt><trkpt lat="43.23521635717793" lon="11.424776940536713"><ele>163.0</ele><time>2026-05-04T12:42:58.999Z</time></trkpt><trkpt lat="43.23507104231393" lon="11.424903544077827"><ele>162.0</ele><time>2026-05-04T12:42:59.999Z</time></trkpt><trkpt lat="43.2349143040271" lon="11.425032112834431"><ele>162.0</ele><time>2026-05-04T12:43:00.999Z</time></trkpt><trkpt lat="43.23475835186367" lon="11.425160316530569"><ele>162.0</ele><time>2026-05-04T12:43:01.999Z</time></trkpt><trkpt lat="43.23460705997211" lon="11.425287918679635"><ele>162.0</ele><time>2026-05-04T12:43:02.999Z</time></trkpt><trkpt lat="43.23444486723703" lon="11.425422669366924"><ele>162.0</ele><time>2026-05-04T12:43:03.999Z</time></trkpt><trkpt lat="43.2342875945576" lon="11.425556077703947"><ele>162.0</ele><time>2026-05-04T12:43:04.999Z</time></trkpt><trkpt lat="43.23413203095656" lon="11.425684134793869"><ele>162.0</ele><time>2026-05-04T12:43:05.999Z</time></trkpt><trkpt lat="43.23397051817269" lon="11.425814598903997"><ele>162.0</ele><time>2026-05-04T12:43:06.999Z</time></trkpt><trkpt lat="43.2338044955755" lon="11.425947601907415"><ele>162.0</ele><time>2026-05-04T12:43:07.999Z</time></trkpt><trkpt lat="43.23363765658255" lon="11.426085192496641"><ele>162.0</ele><time>2026-05-04T12:43:08.999Z</time></trkpt><trkpt lat="43.233474329733674" lon="11.4262238058664"><ele>161.66666666666666</ele><time>2026-05-04T12:43:09.999Z</time></trkpt><trkpt lat="43.233307135610595" lon="11.426360576943184"><ele>161.33333333333331</ele><time>2026-05-04T12:43:10.999Z</time></trkpt><trkpt lat="43.23313957311917" lon="11.426497023085577"><ele>161.0</ele><time>2026-05-04T12:43:11.999Z</time></trkpt><trkpt lat="43.23297219915372" lon="11.426637426769641"><ele>161.66666666666666</ele><time>2026-05-04T12:43:12.999Z</time></trkpt><trkpt lat="43.23280702955606" lon="11.42677759363271"><ele>162.33333333333334</ele><time>2026-05-04T12:43:13.999Z</time></trkpt><trkpt lat="43.232640610103715" lon="11.426920617258029"><ele>163.0</ele><time>2026-05-04T12:43:14.999Z</time></trkpt><trkpt lat="43.23247427927769" lon="11.427060681434895"><ele>163.66666666666669</ele><time>2026-05-04T12:43:15.999Z</time></trkpt><trkpt lat="43.23230725126843" lon="11.427200951212905"><ele>164.33333333333334</ele><time>2026-05-04T12:43:16.999Z</time></trkpt><trkpt lat="43.232139074818825" lon="11.427335177111752"><ele>165.0</ele><time>2026-05-04T12:43:17.999Z</time></trkpt><trkpt lat="43.23198837046382" lon="11.42745813640799"><ele>165.25</ele><time>2026-05-04T12:43:18.999Z</time></trkpt><trkpt lat="43.231857837296126" lon="11.427556716431615"><ele>165.5</ele><time>2026-05-04T12:43:19.999Z</time></trkpt><trkpt lat="43.23174217958339" lon="11.427645422119443"><ele>165.75</ele><time>2026-05-04T12:43:20.999Z</time></trkpt><trkpt lat="43.23163458898396" lon="11.427727125288001"><ele>166.0</ele><time>2026-05-04T12:43:21.999Z</time></trkpt><trkpt lat="43.23154047085351" lon="11.427803215984717"><ele>166.16666666666669</ele><time>2026-05-04T12:43:22.999Z</time></trkpt><trkpt lat="43.23145756211101" lon="11.42787189273851"><ele>166.33333333333334</ele><time>2026-05-04T12:43:23.999Z</time></trkpt><trkpt lat="43.23138029618078" lon="11.427935587879144"><ele>166.5</ele><time>2026-05-04T12:43:24.999Z</time></trkpt><trkpt lat="43.23130841039963" lon="11.42799687125072"><ele>166.66666666666666</ele><time>2026-05-04T12:43:25.999Z</time></trkpt><trkpt lat="43.2312358171841" lon="11.428062130906646"><ele>166.83333333333331</ele><time>2026-05-04T12:43:26.999Z</time></trkpt><trkpt lat="43.23116548675655" lon="11.428127736449987"><ele>167.0</ele><time>2026-05-04T12:43:27.999Z</time></trkpt><trkpt lat="43.23109631296789" lon="11.428195687352678"><ele>167.0</ele><time>2026-05-04T12:43:28.993Z</time></trkpt><trkpt lat="43.2310265842802" lon="11.428258687177218"><ele>167.0</ele><time>2026-05-04T12:43:29.993Z</time></trkpt><trkpt lat="43.23096125488199" lon="11.42830973683443"><ele>167.0</ele><time>2026-05-04T12:43:30.993Z</time></trkpt><trkpt lat="43.23089734892625" lon="11.428364111249433"><ele>167.0</ele><time>2026-05-04T12:43:31.993Z</time></trkpt><trkpt lat="43.23084218009808" lon="11.428408288179476"><ele>167.0</ele><time>2026-05-04T12:43:32.993Z</time></trkpt><trkpt lat="43.23077718636851" lon="11.428459581080164"><ele>167.0</ele><time>2026-05-04T12:43:33.993Z</time></trkpt><trkpt lat="43.23070951954842" lon="11.428514996914796"><ele>166.66666666666666</ele><time>2026-05-04T12:43:34.993Z</time></trkpt><trkpt lat="43.230633733526204" lon="11.428558277237899"><ele>166.33333333333331</ele><time>2026-05-04T12:43:35.993Z</time></trkpt><trkpt lat="43.23056450299709" lon="11.428577402940999"><ele>166.0</ele><time>2026-05-04T12:43:36.993Z</time></trkpt><trkpt lat="43.23048751889081" lon="11.428572034951804"><ele>165.66666666666666</ele><time>2026-05-04T12:43:37.993Z</time></trkpt><trkpt lat="43.23041956595934" lon="11.428538658795311"><ele>165.33333333333334</ele><time>2026-05-04T12:43:38.994Z</time></trkpt><trkpt lat="43.23033446320385" lon="11.428500479543972"><ele>165.0</ele><time>2026-05-04T12:43:39.994Z</time></trkpt><trkpt lat="43.23024305086117" lon="11.42845577344101"><ele>165.0</ele><time>2026-05-04T12:43:40.994Z</time></trkpt><trkpt lat="43.230144832727426" lon="11.428428093229956"><ele>165.0</ele><time>2026-05-04T12:43:41.994Z</time></trkpt><trkpt lat="43.23006412613908" lon="11.428405948053394"><ele>165.0</ele><time>2026-05-04T12:43:42.994Z</time></trkpt><trkpt lat="43.229970611905685" lon="11.428399325174473"><ele>165.0</ele><time>2026-05-04T12:43:43.994Z</time></trkpt><trkpt lat="43.22987527729835" lon="11.42842404161502"><ele>165.0</ele><time>2026-05-04T12:43:44.994Z</time></trkpt><trkpt lat="43.22977182536433" lon="11.428474594646163"><ele>164.6</ele><time>2026-05-04T12:43:45.995Z</time></trkpt><trkpt lat="43.22966719059962" lon="11.428533521952838"><ele>164.2</ele><time>2026-05-04T12:43:46.995Z</time></trkpt><trkpt lat="43.229555176099595" lon="11.428592899755088"><ele>163.8</ele><time>2026-05-04T12:43:47.995Z</time></trkpt><trkpt lat="43.229453964976116" lon="11.428652602818847"><ele>163.4</ele><time>2026-05-04T12:43:48.995Z</time></trkpt><trkpt lat="43.22937277604444" lon="11.428691775180832"><ele>163.0</ele><time>2026-05-04T12:43:49.995Z</time></trkpt><trkpt lat="43.22930922788341" lon="11.428688259969919"><ele>163.0</ele><time>2026-05-04T12:43:50.995Z</time></trkpt><trkpt lat="43.229186721017" lon="11.428774180037937"><ele>163.0</ele><time>2026-05-04T12:43:52.996Z</time></trkpt><trkpt lat="43.22910573304607" lon="11.428823103378354"><ele>163.0</ele><time>2026-05-04T12:43:53.996Z</time></trkpt><trkpt lat="43.2290135600651" lon="11.428886253318868"><ele>163.0</ele><time>2026-05-04T12:43:54.996Z</time></trkpt><trkpt lat="43.22891232098111" lon="11.428928189818787"><ele>163.0</ele><time>2026-05-04T12:43:55.996Z</time></trkpt><trkpt lat="43.22882148444724" lon="11.428981252908281"><ele>162.60000000000002</ele><time>2026-05-04T12:43:56.996Z</time></trkpt><trkpt lat="43.22875613799715" lon="11.42900901203631"><ele>162.20000000000002</ele><time>2026-05-04T12:43:57.996Z</time></trkpt><trkpt lat="43.22865893436543" lon="11.42902470378378"><ele>161.8</ele><time>2026-05-04T12:43:59.996Z</time></trkpt><trkpt lat="43.228511158065814" lon="11.429140013424874"><ele>161.4</ele><time>2026-05-04T12:44:01.997Z</time></trkpt><trkpt lat="43.22843164932877" lon="11.429231420445348"><ele>161.0</ele><time>2026-05-04T12:44:02.997Z</time></trkpt><trkpt lat="43.22832733152304" lon="11.429325230159872"><ele>161.0</ele><time>2026-05-04T12:44:03.997Z</time></trkpt><trkpt lat="43.2282219635839" lon="11.42944131153228"><ele>161.0</ele><time>2026-05-04T12:44:04.997Z</time></trkpt><trkpt lat="43.22811310335461" lon="11.429584119648185"><ele>161.0</ele><time>2026-05-04T12:44:05.997Z</time></trkpt><trkpt lat="43.22800922019828" lon="11.429752295013332"><ele>161.0</ele><time>2026-05-04T12:44:06.997Z</time></trkpt><trkpt lat="43.227902714139645" lon="11.42993483792472"><ele>160.66666666666666</ele><time>2026-05-04T12:44:07.997Z</time></trkpt><trkpt lat="43.227790993304154" lon="11.430131043920772"><ele>160.33333333333334</ele><time>2026-05-04T12:44:08.997Z</time></trkpt><trkpt lat="43.22767150414194" lon="11.43033491202211"><ele>160.0</ele><time>2026-05-04T12:44:09.997Z</time></trkpt><trkpt lat="43.22754737542827" lon="11.430541648930113"><ele>160.0</ele><time>2026-05-04T12:44:10.997Z</time></trkpt><trkpt lat="43.22742139368236" lon="11.4307524546787"><ele>160.0</ele><time>2026-05-04T12:44:11.997Z</time></trkpt><trkpt lat="43.22729104326894" lon="11.4309711834084"><ele>160.0</ele><time>2026-05-04T12:44:12.997Z</time></trkpt><trkpt lat="43.22715696017256" lon="11.4311963882569"><ele>160.66666666666669</ele><time>2026-05-04T12:44:13.997Z</time></trkpt><trkpt lat="43.22702267569459" lon="11.431420440902269"><ele>161.33333333333334</ele><time>2026-05-04T12:44:14.997Z</time></trkpt><trkpt lat="43.226886482620706" lon="11.431646096114305"><ele>162.0</ele><time>2026-05-04T12:44:15.997Z</time></trkpt><trkpt lat="43.22674422053044" lon="11.431883245331909"><ele>162.0</ele><time>2026-05-04T12:44:16.998Z</time></trkpt><trkpt lat="43.226607761348795" lon="11.43210659086382"><ele>162.0</ele><time>2026-05-04T12:44:17.998Z</time></trkpt><trkpt lat="43.22647518145498" lon="11.432337159825803"><ele>162.0</ele><time>2026-05-04T12:44:18.998Z</time></trkpt><trkpt lat="43.22635521268982" lon="11.432560554307459"><ele>162.0</ele><time>2026-05-04T12:44:19.998Z</time></trkpt><trkpt lat="43.2262442404998" lon="11.43279324939947"><ele>162.0</ele><time>2026-05-04T12:44:20.998Z</time></trkpt><trkpt lat="43.226137660168405" lon="11.433051181833617"><ele>162.0</ele><time>2026-05-04T12:44:21.998Z</time></trkpt><trkpt lat="43.226036263210894" lon="11.433299702957616"><ele>162.0</ele><time>2026-05-04T12:44:22.998Z</time></trkpt><trkpt lat="43.2259308262709" lon="11.433552999229692"><ele>162.0</ele><time>2026-05-04T12:44:23.998Z</time></trkpt><trkpt lat="43.2258172046151" lon="11.433823915021122"><ele>162.0</ele><time>2026-05-04T12:44:24.998Z</time></trkpt><trkpt lat="43.225704864865" lon="11.434081088337951"><ele>161.66666666666666</ele><time>2026-05-04T12:44:25.998Z</time></trkpt><trkpt lat="43.225590973887485" lon="11.434343030925755"><ele>161.33333333333331</ele><time>2026-05-04T12:44:26.998Z</time></trkpt><trkpt lat="43.22547987411769" lon="11.4346051035332"><ele>161.0</ele><time>2026-05-04T12:44:27.998Z</time></trkpt><trkpt lat="43.22536944870068" lon="11.434865420918495"><ele>161.0</ele><time>2026-05-04T12:44:28.998Z</time></trkpt><trkpt lat="43.22525007892587" lon="11.435144036493618"><ele>161.0</ele><time>2026-05-04T12:44:29.998Z</time></trkpt><trkpt lat="43.225132253046425" lon="11.435414613638699"><ele>161.5</ele><time>2026-05-04T12:44:30.998Z</time></trkpt><trkpt lat="43.22501634580459" lon="11.435685028021158"><ele>162.0</ele><time>2026-05-04T12:44:31.998Z</time></trkpt><trkpt lat="43.22489966198901" lon="11.435961283323053"><ele>161.0</ele><time>2026-05-04T12:44:32.998Z</time></trkpt><trkpt lat="43.2247847907632" lon="11.436227083468196"><ele>160.0</ele><time>2026-05-04T12:44:33.998Z</time></trkpt><trkpt lat="43.224666726230645" lon="11.436507898189614"><ele>160.0</ele><time>2026-05-04T12:44:34.998Z</time></trkpt><trkpt lat="43.224550148641754" lon="11.436779819356964"><ele>160.0</ele><time>2026-05-04T12:44:35.998Z</time></trkpt><trkpt lat="43.224433610156105" lon="11.437056422786432"><ele>161.0</ele><time>2026-05-04T12:44:36.998Z</time></trkpt><trkpt lat="43.22431882343133" lon="11.437329631371043"><ele>162.0</ele><time>2026-05-04T12:44:37.998Z</time></trkpt><trkpt lat="43.22420407014782" lon="11.437610447742555"><ele>162.0</ele><time>2026-05-04T12:44:38.998Z</time></trkpt><trkpt lat="43.22408777275282" lon="11.43788276602342"><ele>162.0</ele><time>2026-05-04T12:44:39.998Z</time></trkpt><trkpt lat="43.223969422945686" lon="11.43815912223934"><ele>161.0</ele><time>2026-05-04T12:44:40.998Z</time></trkpt><trkpt lat="43.22384913712773" lon="11.438434415455731"><ele>160.0</ele><time>2026-05-04T12:44:41.998Z</time></trkpt><trkpt lat="43.22372918241522" lon="11.438703962898373"><ele>160.0</ele><time>2026-05-04T12:44:42.999Z</time></trkpt><trkpt lat="43.22360849267191" lon="11.438990693491535"><ele>160.0</ele><time>2026-05-04T12:44:43.999Z</time></trkpt><trkpt lat="43.22348988999076" lon="11.439267542404899"><ele>160.0</ele><time>2026-05-04T12:44:44.999Z</time></trkpt><trkpt lat="43.22337021996347" lon="11.439546639970398"><ele>160.0</ele><time>2026-05-04T12:44:45.999Z</time></trkpt><trkpt lat="43.2232529215385" lon="11.439818618109816"><ele>160.0</ele><time>2026-05-04T12:44:46.999Z</time></trkpt><trkpt lat="43.223144129298454" lon="11.440079469052964"><ele>160.0</ele><time>2026-05-04T12:44:47.999Z</time></trkpt><trkpt lat="43.223039492636275" lon="11.440334159658834"><ele>160.0</ele><time>2026-05-04T12:44:48.999Z</time></trkpt><trkpt lat="43.22293588199248" lon="11.440582636493824"><ele>160.0</ele><time>2026-05-04T12:44:49.999Z</time></trkpt><trkpt lat="43.22282806646102" lon="11.44083733123415"><ele>160.0</ele><time>2026-05-04T12:44:50.999Z</time></trkpt><trkpt lat="43.22272156486786" lon="11.441092882469134"><ele>160.0</ele><time>2026-05-04T12:44:51.999Z</time></trkpt><trkpt lat="43.22261071778619" lon="11.441349337626592"><ele>160.0</ele><time>2026-05-04T12:44:52.999Z</time></trkpt><trkpt lat="43.22250023729687" lon="11.441596191173423"><ele>160.0</ele><time>2026-05-04T12:44:53.999Z</time></trkpt><trkpt lat="43.22238750862311" lon="11.441852968401351"><ele>160.0</ele><time>2026-05-04T12:44:54.999Z</time></trkpt><trkpt lat="43.22227368268253" lon="11.44211894235847"><ele>159.66666666666669</ele><time>2026-05-04T12:44:55.999Z</time></trkpt><trkpt lat="43.22216738834191" lon="11.442367805812871"><ele>159.33333333333334</ele><time>2026-05-04T12:44:56.999Z</time></trkpt><trkpt lat="43.222073238837986" lon="11.44261102961996"><ele>159.0</ele><time>2026-05-04T12:44:57.999Z</time></trkpt><trkpt lat="43.22199825413013" lon="11.44287296545672"><ele>159.33333333333334</ele><time>2026-05-04T12:44:58.999Z</time></trkpt><trkpt lat="43.22196162527483" lon="11.443151153648428"><ele>159.66666666666669</ele><time>2026-05-04T12:44:59.999Z</time></trkpt><trkpt lat="43.2219428736095" lon="11.443423927450151"><ele>160.0</ele><time>2026-05-04T12:45:00.999Z</time></trkpt><trkpt lat="43.22193505446285" lon="11.443684852900613"><ele>160.5</ele><time>2026-05-04T12:45:01.999Z</time></trkpt><trkpt lat="43.22192524404312" lon="11.443908954522614"><ele>161.0</ele><time>2026-05-04T12:45:02.999Z</time></trkpt><trkpt lat="43.2219134204468" lon="11.444096414916611"><ele>161.5</ele><time>2026-05-04T12:45:03.999Z</time></trkpt><trkpt lat="43.221903128363806" lon="11.444260934979111"><ele>162.0</ele><time>2026-05-04T12:45:04.999Z</time></trkpt><trkpt lat="43.22189505640649" lon="11.444403021533518"><ele>162.0</ele><time>2026-05-04T12:45:05.999Z</time></trkpt><trkpt lat="43.221884748878765" lon="11.444506433438953"><ele>162.0</ele><time>2026-05-04T12:45:06.999Z</time></trkpt><trkpt lat="43.22169867292783" lon="11.444556251793934"><ele>162.0</ele><time>2026-05-04T12:45:09.999Z</time></trkpt><trkpt lat="43.22158403747603" lon="11.444533469376637"><ele>162.0</ele><time>2026-05-04T12:45:10.999Z</time></trkpt><trkpt lat="43.221461379470334" lon="11.444507695657173"><ele>162.0</ele><time>2026-05-04T12:45:11.999Z</time></trkpt><trkpt lat="43.22133681736894" lon="11.444486060673546"><ele>162.0</ele><time>2026-05-04T12:45:12.999Z</time></trkpt><trkpt lat="43.22119095912647" lon="11.444461273127967"><ele>162.0</ele><time>2026-05-04T12:45:14Z</time></trkpt><trkpt lat="43.22104099923271" lon="11.444432730985822"><ele>162.0</ele><time>2026-05-04T12:45:15Z</time></trkpt><trkpt lat="43.22088864480594" lon="11.444404705087143"><ele>162.0</ele><time>2026-05-04T12:45:16Z</time></trkpt><trkpt lat="43.220742847877474" lon="11.444382008185485"><ele>162.0</ele><time>2026-05-04T12:45:17Z</time></trkpt><trkpt lat="43.22060229696037" lon="11.444364452076968"><ele>162.0</ele><time>2026-05-04T12:45:18Z</time></trkpt><trkpt lat="43.2204673465176" lon="11.444361898331488"><ele>162.0</ele><time>2026-05-04T12:45:19Z</time></trkpt><trkpt lat="43.22033325072916" lon="11.444377255328206"><ele>161.66666666666666</ele><time>2026-05-04T12:45:20Z</time></trkpt><trkpt lat="43.22019293443126" lon="11.44441857287929"><ele>161.33333333333331</ele><time>2026-05-04T12:45:21Z</time></trkpt><trkpt lat="43.22004525055794" lon="11.444483330050591"><ele>161.0</ele><time>2026-05-04T12:45:22Z</time></trkpt><trkpt lat="43.219894269635745" lon="11.44452913050684"><ele>161.0</ele><time>2026-05-04T12:45:23Z</time></trkpt><trkpt lat="43.2197362148088" lon="11.444592249736584"><ele>161.0</ele><time>2026-05-04T12:45:24Z</time></trkpt><trkpt lat="43.2195840209871" lon="11.44465432225106"><ele>161.0</ele><time>2026-05-04T12:45:25Z</time></trkpt><trkpt lat="43.21942930153997" lon="11.444741059686118"><ele>162.0</ele><time>2026-05-04T12:45:26Z</time></trkpt><trkpt lat="43.21927204953591" lon="11.44482295821611"><ele>163.0</ele><time>2026-05-04T12:45:27Z</time></trkpt><trkpt lat="43.21911142570556" lon="11.444892000558573"><ele>164.0</ele><time>2026-05-04T12:45:28Z</time></trkpt><trkpt lat="43.218957097444914" lon="11.444998304504564"><ele>164.0</ele><time>2026-05-04T12:45:29Z</time></trkpt><trkpt lat="43.21881455318292" lon="11.44513204788708"><ele>164.0</ele><time>2026-05-04T12:45:30Z</time></trkpt><trkpt lat="43.21868196435591" lon="11.445229459730724"><ele>164.0</ele><time>2026-05-04T12:45:31Z</time></trkpt><trkpt lat="43.218571856320025" lon="11.445312803796103"><ele>164.0</ele><time>2026-05-04T12:45:32Z</time></trkpt><trkpt lat="43.21846032035072" lon="11.445382010495917"><ele>164.0</ele><time>2026-05-04T12:45:33Z</time></trkpt><trkpt lat="43.218357600524044" lon="11.445493243727842"><ele>164.0</ele><time>2026-05-04T12:45:34Z</time></trkpt><trkpt lat="43.21825562532615" lon="11.445610589927492"><ele>164.0</ele><time>2026-05-04T12:45:34.994Z</time></trkpt><trkpt lat="43.218143231141106" lon="11.445739925592129"><ele>164.0</ele><time>2026-05-04T12:45:35.994Z</time></trkpt><trkpt lat="43.218019355727996" lon="11.445882473082166"><ele>164.0</ele><time>2026-05-04T12:45:36.994Z</time></trkpt><trkpt lat="43.21793489672807" lon="11.44609371241213"><ele>164.0</ele><time>2026-05-04T12:45:37.994Z</time></trkpt><trkpt lat="43.21780994927563" lon="11.446255848970285"><ele>164.0</ele><time>2026-05-04T12:45:38.994Z</time></trkpt><trkpt lat="43.21769342931843" lon="11.446416662716883"><ele>166.33333333333331</ele><time>2026-05-04T12:45:39.995Z</time></trkpt><trkpt lat="43.21758522519574" lon="11.446572625895856"><ele>168.66666666666666</ele><time>2026-05-04T12:45:40.995Z</time></trkpt><trkpt lat="43.21748179720714" lon="11.446736057541298"><ele>171.0</ele><time>2026-05-04T12:45:41.995Z</time></trkpt><trkpt lat="43.21738260099177" lon="11.44689556472727"><ele>169.66666666666666</ele><time>2026-05-04T12:45:42.996Z</time></trkpt><trkpt lat="43.217271068786296" lon="11.447069368680284"><ele>168.33333333333331</ele><time>2026-05-04T12:45:43.996Z</time></trkpt><trkpt lat="43.21715963476225" lon="11.447240480876285"><ele>167.0</ele><time>2026-05-04T12:45:44.996Z</time></trkpt><trkpt lat="43.217049487886634" lon="11.447421918675246"><ele>167.0</ele><time>2026-05-04T12:45:45.996Z</time></trkpt><trkpt lat="43.216942417834105" lon="11.447601155847254"><ele>167.0</ele><time>2026-05-04T12:45:46.997Z</time></trkpt><trkpt lat="43.216831199924286" lon="11.447792533282822"><ele>167.0</ele><time>2026-05-04T12:45:47.997Z</time></trkpt><trkpt lat="43.2167215822531" lon="11.447978182710354"><ele>166.75</ele><time>2026-05-04T12:45:48.997Z</time></trkpt><trkpt lat="43.216621562746084" lon="11.448146914552861"><ele>166.5</ele><time>2026-05-04T12:45:49.997Z</time></trkpt><trkpt lat="43.21652945421395" lon="11.448304251323012"><ele>166.25</ele><time>2026-05-04T12:45:50.997Z</time></trkpt><trkpt lat="43.21645272466283" lon="11.448438702986248"><ele>166.0</ele><time>2026-05-04T12:45:51.998Z</time></trkpt><trkpt lat="43.216374620789516" lon="11.448566991078511"><ele>166.0</ele><time>2026-05-04T12:45:52.998Z</time></trkpt><trkpt lat="43.216300167178936" lon="11.448659090323648"><ele>166.0</ele><time>2026-05-04T12:45:53.998Z</time></trkpt><trkpt lat="43.21621532626356" lon="11.448714658030159"><ele>166.0</ele><time>2026-05-04T12:45:54.998Z</time></trkpt><trkpt lat="43.21611260517197" lon="11.448740998945055"><ele>166.0</ele><time>2026-05-04T12:45:55.998Z</time></trkpt><trkpt lat="43.21600677257415" lon="11.448748694727943"><ele>166.0</ele><time>2026-05-04T12:45:56.999Z</time></trkpt><trkpt lat="43.215893391455396" lon="11.448750195805728"><ele>166.0</ele><time>2026-05-04T12:45:57.999Z</time></trkpt><trkpt lat="43.21577517370746" lon="11.44878394537455"><ele>166.0</ele><time>2026-05-04T12:45:58.999Z</time></trkpt><trkpt lat="43.2156521925639" lon="11.448846460870035"><ele>166.0</ele><time>2026-05-04T12:45:59.999Z</time></trkpt><trkpt lat="43.21552189681017" lon="11.448924906536206"><ele>166.0</ele><time>2026-05-04T12:46:00.999Z</time></trkpt><trkpt lat="43.215386233108774" lon="11.449005606724086"><ele>166.0</ele><time>2026-05-04T12:46:01.999Z</time></trkpt><trkpt lat="43.215244722331526" lon="11.449086586652532"><ele>166.0</ele><time>2026-05-04T12:46:02.999Z</time></trkpt><trkpt lat="43.215086732894335" lon="11.449170980001792"><ele>166.0</ele><time>2026-05-04T12:46:03.999Z</time></trkpt><trkpt lat="43.21493428235704" lon="11.449242667004542"><ele>164.66666666666669</ele><time>2026-05-04T12:46:05Z</time></trkpt><trkpt lat="43.214763542087695" lon="11.449315572103124"><ele>163.33333333333334</ele><time>2026-05-04T12:46:06Z</time></trkpt><trkpt lat="43.21459971628731" lon="11.449378901620117"><ele>162.0</ele><time>2026-05-04T12:46:07Z</time></trkpt><trkpt lat="43.21443081703814" lon="11.449436329003957"><ele>162.0</ele><time>2026-05-04T12:46:08Z</time></trkpt><trkpt lat="43.21426840215738" lon="11.449485909369065"><ele>162.0</ele><time>2026-05-04T12:46:09Z</time></trkpt><trkpt lat="43.21410001446868" lon="11.449513486025465"><ele>162.0</ele><time>2026-05-04T12:46:10Z</time></trkpt><trkpt lat="43.213927569491375" lon="11.449532111201853"><ele>161.66666666666666</ele><time>2026-05-04T12:46:11Z</time></trkpt><trkpt lat="43.213746743726325" lon="11.449536986016334"><ele>161.33333333333331</ele><time>2026-05-04T12:46:12Z</time></trkpt><trkpt lat="43.21357100680504" lon="11.449528390979808"><ele>161.0</ele><time>2026-05-04T12:46:13Z</time></trkpt><trkpt lat="43.213368887664615" lon="11.449509454597868"><ele>161.0</ele><time>2026-05-04T12:46:14Z</time></trkpt><trkpt lat="43.21318002132456" lon="11.449487479365446"><ele>161.0</ele><time>2026-05-04T12:46:15Z</time></trkpt><trkpt lat="43.21298602142253" lon="11.44946520255629"><ele>161.0</ele><time>2026-05-04T12:46:16.001Z</time></trkpt><trkpt lat="43.21278402054721" lon="11.449445245082279"><ele>161.33333333333331</ele><time>2026-05-04T12:46:17.001Z</time></trkpt><trkpt lat="43.21257984140377" lon="11.449429769038943"><ele>161.66666666666666</ele><time>2026-05-04T12:46:18.001Z</time></trkpt><trkpt lat="43.2123785702422" lon="11.44941853333324"><ele>162.0</ele><time>2026-05-04T12:46:19.001Z</time></trkpt><trkpt lat="43.212189902912904" lon="11.449407428792403"><ele>162.33333333333334</ele><time>2026-05-04T12:46:20.001Z</time></trkpt><trkpt lat="43.21203451585164" lon="11.449396044518204"><ele>162.66666666666669</ele><time>2026-05-04T12:46:21.001Z</time></trkpt><trkpt lat="43.211873844853066" lon="11.449381695920554"><ele>163.0</ele><time>2026-05-04T12:46:22.001Z</time></trkpt><trkpt lat="43.211703077540534" lon="11.449376742194112"><ele>163.0</ele><time>2026-05-04T12:46:23.001Z</time></trkpt><trkpt lat="43.21152627235673" lon="11.449363735872364"><ele>163.0</ele><time>2026-05-04T12:46:24.001Z</time></trkpt><trkpt lat="43.2113522204031" lon="11.44939188659765"><ele>163.0</ele><time>2026-05-04T12:46:25.001Z</time></trkpt><trkpt lat="43.21118534919337" lon="11.449457574228664"><ele>164.0</ele><time>2026-05-04T12:46:26.001Z</time></trkpt><trkpt lat="43.21102435094442" lon="11.449522888438402"><ele>165.0</ele><time>2026-05-04T12:46:27.001Z</time></trkpt><trkpt lat="43.21087676885986" lon="11.449614042817203"><ele>166.0</ele><time>2026-05-04T12:46:28.001Z</time></trkpt><trkpt lat="43.210745716781304" lon="11.449730202130352"><ele>163.66666666666669</ele><time>2026-05-04T12:46:29.001Z</time></trkpt><trkpt lat="43.21061027270474" lon="11.449869806416158"><ele>161.33333333333334</ele><time>2026-05-04T12:46:30.001Z</time></trkpt><trkpt lat="43.21046257727722" lon="11.450004710454575"><ele>159.0</ele><time>2026-05-04T12:46:31.001Z</time></trkpt><trkpt lat="43.21033828457795" lon="11.450149341689457"><ele>159.0</ele><time>2026-05-04T12:46:32.001Z</time></trkpt><trkpt lat="43.21024685735814" lon="11.450282671633857"><ele>159.0</ele><time>2026-05-04T12:46:33.001Z</time></trkpt><trkpt lat="43.21015745209546" lon="11.450380266396207"><ele>159.0</ele><time>2026-05-04T12:46:34.001Z</time></trkpt><trkpt lat="43.21007320257139" lon="11.450476015917989"><ele>159.0</ele><time>2026-05-04T12:46:35.002Z</time></trkpt><trkpt lat="43.20999257118996" lon="11.450574894868822"><ele>159.5</ele><time>2026-05-04T12:46:36.002Z</time></trkpt><trkpt lat="43.20991261261695" lon="11.450672328118769"><ele>160.0</ele><time>2026-05-04T12:46:37.002Z</time></trkpt><trkpt lat="43.209831234998084" lon="11.450768316018996"><ele>160.5</ele><time>2026-05-04T12:46:38.002Z</time></trkpt><trkpt lat="43.20973278569626" lon="11.450881471195892"><ele>161.0</ele><time>2026-05-04T12:46:39.002Z</time></trkpt><trkpt lat="43.209625706416965" lon="11.4510015056248"><ele>161.0</ele><time>2026-05-04T12:46:40.002Z</time></trkpt><trkpt lat="43.20950357170121" lon="11.451135237419491"><ele>161.0</ele><time>2026-05-04T12:46:41.002Z</time></trkpt><trkpt lat="43.20937827831792" lon="11.451270595350882"><ele>161.0</ele><time>2026-05-04T12:46:42.002Z</time></trkpt><trkpt lat="43.209245755041884" lon="11.451405358799162"><ele>161.0</ele><time>2026-05-04T12:46:43.002Z</time></trkpt><trkpt lat="43.20910311081018" lon="11.45152541383544"><ele>161.0</ele><time>2026-05-04T12:46:44.002Z</time></trkpt><trkpt lat="43.208978725506334" lon="11.451679740865229"><ele>161.0</ele><time>2026-05-04T12:46:45.002Z</time></trkpt><trkpt lat="43.20883912583621" lon="11.451822643803123"><ele>160.66666666666666</ele><time>2026-05-04T12:46:46.002Z</time></trkpt><trkpt lat="43.20870164020895" lon="11.451938509944407"><ele>160.33333333333334</ele><time>2026-05-04T12:46:47.002Z</time></trkpt><trkpt lat="43.20859108851413" lon="11.452089912301542"><ele>160.0</ele><time>2026-05-04T12:46:48.002Z</time></trkpt><trkpt lat="43.208466886620414" lon="11.452235417780624"><ele>159.66666666666669</ele><time>2026-05-04T12:46:49.002Z</time></trkpt><trkpt lat="43.20834552517415" lon="11.452382381052468"><ele>159.33333333333334</ele><time>2026-05-04T12:46:50.002Z</time></trkpt><trkpt lat="43.20822567160666" lon="11.452519694659507"><ele>159.0</ele><time>2026-05-04T12:46:51.002Z</time></trkpt><trkpt lat="43.20808919780987" lon="11.452661391236076"><ele>159.0</ele><time>2026-05-04T12:46:52.002Z</time></trkpt><trkpt lat="43.20793418327398" lon="11.452779149436596"><ele>159.0</ele><time>2026-05-04T12:46:53.002Z</time></trkpt><trkpt lat="43.20778596990721" lon="11.452905565806445"><ele>159.0</ele><time>2026-05-04T12:46:54.002Z</time></trkpt><trkpt lat="43.207635859671434" lon="11.453043768214998"><ele>159.0</ele><time>2026-05-04T12:46:55.002Z</time></trkpt><trkpt lat="43.20746518462791" lon="11.453156918440834"><ele>159.0</ele><time>2026-05-04T12:46:56.002Z</time></trkpt><trkpt lat="43.20729870647758" lon="11.453218701268355"><ele>159.0</ele><time>2026-05-04T12:46:57.002Z</time></trkpt><trkpt lat="43.20714500593894" lon="11.453317803952968"><ele>158.66666666666666</ele><time>2026-05-04T12:46:58.002Z</time></trkpt><trkpt lat="43.20699562397834" lon="11.453384861243821"><ele>158.33333333333331</ele><time>2026-05-04T12:46:59.002Z</time></trkpt><trkpt lat="43.20684490124327" lon="11.453452282521116"><ele>158.0</ele><time>2026-05-04T12:47:00.002Z</time></trkpt><trkpt lat="43.20669195332617" lon="11.453520206647122"><ele>158.0</ele><time>2026-05-04T12:47:01.002Z</time></trkpt><trkpt lat="43.206531825774476" lon="11.453587722419996"><ele>158.0</ele><time>2026-05-04T12:47:02.002Z</time></trkpt><trkpt lat="43.20637489492366" lon="11.453648769042399"><ele>158.0</ele><time>2026-05-04T12:47:03.002Z</time></trkpt><trkpt lat="43.20621165970903" lon="11.453711239288568"><ele>158.0</ele><time>2026-05-04T12:47:04.003Z</time></trkpt><trkpt lat="43.20604184771681" lon="11.453775428462306"><ele>158.0</ele><time>2026-05-04T12:47:05.003Z</time></trkpt><trkpt lat="43.20588340657785" lon="11.453835460901619"><ele>158.0</ele><time>2026-05-04T12:47:06.003Z</time></trkpt><trkpt lat="43.20570765820454" lon="11.453903746374552"><ele>158.0</ele><time>2026-05-04T12:47:07.003Z</time></trkpt><trkpt lat="43.20553584127609" lon="11.45397348714843"><ele>158.0</ele><time>2026-05-04T12:47:08.003Z</time></trkpt><trkpt lat="43.20536086737753" lon="11.4540438520976"><ele>158.0</ele><time>2026-05-04T12:47:09.003Z</time></trkpt><trkpt lat="43.205179923477985" lon="11.454110803229193"><ele>158.0</ele><time>2026-05-04T12:47:10.003Z</time></trkpt><trkpt lat="43.204998307811174" lon="11.454169655373814"><ele>158.0</ele><time>2026-05-04T12:47:11.003Z</time></trkpt><trkpt lat="43.20481679566131" lon="11.454238296018609"><ele>158.0</ele><time>2026-05-04T12:47:12.003Z</time></trkpt><trkpt lat="43.20463737860954" lon="11.454300842877801"><ele>158.0</ele><time>2026-05-04T12:47:13.003Z</time></trkpt><trkpt lat="43.20445748345311" lon="11.454365861701042"><ele>158.0</ele><time>2026-05-04T12:47:14.003Z</time></trkpt><trkpt lat="43.2042707030831" lon="11.454435675079498"><ele>158.0</ele><time>2026-05-04T12:47:15.003Z</time></trkpt><trkpt lat="43.20409285060539" lon="11.454504178540873"><ele>158.0</ele><time>2026-05-04T12:47:16.003Z</time></trkpt><trkpt lat="43.20391245064813" lon="11.454574181197914"><ele>158.0</ele><time>2026-05-04T12:47:17.003Z</time></trkpt><trkpt lat="43.20371882580669" lon="11.454653425939881"><ele>158.0</ele><time>2026-05-04T12:47:18.003Z</time></trkpt><trkpt lat="43.203526034090686" lon="11.45473016624659"><ele>158.0</ele><time>2026-05-04T12:47:19.003Z</time></trkpt><trkpt lat="43.203334397393895" lon="11.454808227330178"><ele>158.0</ele><time>2026-05-04T12:47:20.003Z</time></trkpt><trkpt lat="43.20313922229041" lon="11.454891239326868"><ele>158.0</ele><time>2026-05-04T12:47:21.003Z</time></trkpt><trkpt lat="43.202954850439305" lon="11.454967335515727"><ele>157.66666666666666</ele><time>2026-05-04T12:47:22.003Z</time></trkpt><trkpt lat="43.20276376583855" lon="11.455053641227073"><ele>157.33333333333334</ele><time>2026-05-04T12:47:23.003Z</time></trkpt><trkpt lat="43.202574974454656" lon="11.45513489778346"><ele>157.0</ele><time>2026-05-04T12:47:24.003Z</time></trkpt><trkpt lat="43.20239469273344" lon="11.455213708302974"><ele>158.25</ele><time>2026-05-04T12:47:25.003Z</time></trkpt><trkpt lat="43.202239776131385" lon="11.455276829158777"><ele>159.5</ele><time>2026-05-04T12:47:26.003Z</time></trkpt><trkpt lat="43.20211004348644" lon="11.455332160168707"><ele>160.75</ele><time>2026-05-04T12:47:27.003Z</time></trkpt><trkpt lat="43.202001505405605" lon="11.455383460463924"><ele>162.0</ele><time>2026-05-04T12:47:28.003Z</time></trkpt><trkpt lat="43.20190362208497" lon="11.455386969458988"><ele>162.0</ele><time>2026-05-04T12:47:29.003Z</time></trkpt><trkpt lat="43.201819088521304" lon="11.455369857589949"><ele>162.0</ele><time>2026-05-04T12:47:30.003Z</time></trkpt><trkpt lat="43.20173178976821" lon="11.455332316364569"><ele>162.0</ele><time>2026-05-04T12:47:31.003Z</time></trkpt><trkpt lat="43.20163147528439" lon="11.45530068210138"><ele>162.0</ele><time>2026-05-04T12:47:32.003Z</time></trkpt><trkpt lat="43.20153546833602" lon="11.455273262777537"><ele>162.0</ele><time>2026-05-04T12:47:33.003Z</time></trkpt><trkpt lat="43.201417676395636" lon="11.455265600366154"><ele>162.2</ele><time>2026-05-04T12:47:34.003Z</time></trkpt><trkpt lat="43.20130554229242" lon="11.45522993961472"><ele>162.39999999999998</ele><time>2026-05-04T12:47:35.003Z</time></trkpt><trkpt lat="43.20120786867573" lon="11.455211383868539"><ele>162.60000000000002</ele><time>2026-05-04T12:47:36.004Z</time></trkpt><trkpt lat="43.20112152542481" lon="11.4551843675682"><ele>162.8</ele><time>2026-05-04T12:47:37.004Z</time></trkpt><trkpt lat="43.2010501665658" lon="11.455163457866025"><ele>163.0</ele><time>2026-05-04T12:47:38.004Z</time></trkpt><trkpt lat="43.20095866786614" lon="11.455128620702888"><ele>163.0</ele><time>2026-05-04T12:47:40.004Z</time></trkpt><trkpt lat="43.20091825470752" lon="11.455261564452455"><ele>163.0</ele><time>2026-05-04T12:47:40.998Z</time></trkpt><trkpt lat="43.200884593415196" lon="11.455362301692054"><ele>163.0</ele><time>2026-05-04T12:47:41.998Z</time></trkpt><trkpt lat="43.20083175637486" lon="11.455481521293212"><ele>163.0</ele><time>2026-05-04T12:47:42.998Z</time></trkpt><trkpt lat="43.20075196894395" lon="11.455604977072454"><ele>163.0</ele><time>2026-05-04T12:47:43.998Z</time></trkpt><trkpt lat="43.200660781130104" lon="11.45573076498683"><ele>162.25</ele><time>2026-05-04T12:47:44.998Z</time></trkpt><trkpt lat="43.20056161833442" lon="11.455864614025556"><ele>161.5</ele><time>2026-05-04T12:47:45.999Z</time></trkpt><trkpt lat="43.200463353895756" lon="11.456003066423849"><ele>160.75</ele><time>2026-05-04T12:47:46.999Z</time></trkpt><trkpt lat="43.20037049997993" lon="11.4561423795325"><ele>160.0</ele><time>2026-05-04T12:47:47.999Z</time></trkpt><trkpt lat="43.20027617762005" lon="11.456281662938233"><ele>161.5</ele><time>2026-05-04T12:47:48.999Z</time></trkpt><trkpt lat="43.20018436540682" lon="11.456414392209043"><ele>163.0</ele><time>2026-05-04T12:47:49.999Z</time></trkpt><trkpt lat="43.20009863701244" lon="11.456526342577362"><ele>164.5</ele><time>2026-05-04T12:47:50.999Z</time></trkpt><trkpt lat="43.200016712204" lon="11.45662702284143"><ele>166.0</ele><time>2026-05-04T12:47:51.999Z</time></trkpt><trkpt lat="43.19993044246589" lon="11.456741063495777"><ele>165.66666666666669</ele><time>2026-05-04T12:47:52.999Z</time></trkpt><trkpt lat="43.19982445010544" lon="11.456876191077273"><ele>165.33333333333334</ele><time>2026-05-04T12:47:53.999Z</time></trkpt><trkpt lat="43.19970829037613" lon="11.457031041844845"><ele>165.0</ele><time>2026-05-04T12:47:54.999Z</time></trkpt><trkpt lat="43.199582381014636" lon="11.457196661312778"><ele>165.0</ele><time>2026-05-04T12:47:55.999Z</time></trkpt><trkpt lat="43.19945980153746" lon="11.457354131789941"><ele>165.0</ele><time>2026-05-04T12:47:56.999Z</time></trkpt><trkpt lat="43.199324703685754" lon="11.457511777854146"><ele>165.0</ele><time>2026-05-04T12:47:58Z</time></trkpt><trkpt lat="43.19919866279337" lon="11.457654699042363"><ele>165.0</ele><time>2026-05-04T12:47:59Z</time></trkpt><trkpt lat="43.1990774391969" lon="11.457786956681371"><ele>165.0</ele><time>2026-05-04T12:48:00Z</time></trkpt><trkpt lat="43.19896479009456" lon="11.457915278566661"><ele>165.0</ele><time>2026-05-04T12:48:01Z</time></trkpt><trkpt lat="43.198867692252655" lon="11.458044173502632"><ele>165.0</ele><time>2026-05-04T12:48:02Z</time></trkpt><trkpt lat="43.19877253032786" lon="11.458175420409688"><ele>163.75</ele><time>2026-05-04T12:48:03Z</time></trkpt><trkpt lat="43.19869213529964" lon="11.458297864442965"><ele>162.5</ele><time>2026-05-04T12:48:04Z</time></trkpt><trkpt lat="43.19859537427149" lon="11.458461396710877"><ele>161.25</ele><time>2026-05-04T12:48:05Z</time></trkpt><trkpt lat="43.198487295796696" lon="11.4586335932352"><ele>160.0</ele><time>2026-05-04T12:48:06Z</time></trkpt><trkpt lat="43.198375287520854" lon="11.458814669074927"><ele>159.33333333333334</ele><time>2026-05-04T12:48:07Z</time></trkpt><trkpt lat="43.19824946196197" lon="11.459021727554918"><ele>158.66666666666666</ele><time>2026-05-04T12:48:08Z</time></trkpt><trkpt lat="43.19812268156512" lon="11.459235461799269"><ele>158.0</ele><time>2026-05-04T12:48:09Z</time></trkpt><trkpt lat="43.197997930664954" lon="11.459442446182333"><ele>157.0</ele><time>2026-05-04T12:48:10Z</time></trkpt><trkpt lat="43.197867127179016" lon="11.459654038482459"><ele>156.0</ele><time>2026-05-04T12:48:11Z</time></trkpt><trkpt lat="43.19773684064454" lon="11.459863461943248"><ele>155.0</ele><time>2026-05-04T12:48:12.001Z</time></trkpt><trkpt lat="43.19760845033137" lon="11.460063435344026"><ele>155.0</ele><time>2026-05-04T12:48:13.001Z</time></trkpt><trkpt lat="43.19747230597184" lon="11.460267393239123"><ele>155.0</ele><time>2026-05-04T12:48:14.001Z</time></trkpt><trkpt lat="43.19733815291294" lon="11.460466081692505"><ele>155.0</ele><time>2026-05-04T12:48:15.001Z</time></trkpt><trkpt lat="43.19722126845654" lon="11.46064513363502"><ele>155.33333333333331</ele><time>2026-05-04T12:48:16.001Z</time></trkpt><trkpt lat="43.197103100921815" lon="11.460827750803837"><ele>155.66666666666666</ele><time>2026-05-04T12:48:17.001Z</time></trkpt><trkpt lat="43.19698581317907" lon="11.461013161487612"><ele>156.0</ele><time>2026-05-04T12:48:18.001Z</time></trkpt><trkpt lat="43.19686156435356" lon="11.461209437287442"><ele>155.66666666666666</ele><time>2026-05-04T12:48:19.001Z</time></trkpt><trkpt lat="43.19674006593868" lon="11.461400696096744"><ele>155.33333333333331</ele><time>2026-05-04T12:48:20.001Z</time></trkpt><trkpt lat="43.196620621492876" lon="11.461579957892193"><ele>155.0</ele><time>2026-05-04T12:48:21.001Z</time></trkpt><trkpt lat="43.196501405300914" lon="11.461767440387518"><ele>154.0</ele><time>2026-05-04T12:48:22.001Z</time></trkpt><trkpt lat="43.196422340071514" lon="11.462000609681734"><ele>153.0</ele><time>2026-05-04T12:48:23.001Z</time></trkpt><trkpt lat="43.19631930556006" lon="11.46220145731389"><ele>152.0</ele><time>2026-05-04T12:48:24.001Z</time></trkpt><trkpt lat="43.19624326238681" lon="11.462403264213952"><ele>151.66666666666666</ele><time>2026-05-04T12:48:25.001Z</time></trkpt><trkpt lat="43.19614174137954" lon="11.46260557199619"><ele>151.33333333333334</ele><time>2026-05-04T12:48:26.001Z</time></trkpt><trkpt lat="43.19604689538325" lon="11.462788081697298"><ele>151.0</ele><time>2026-05-04T12:48:27.001Z</time></trkpt><trkpt lat="43.195959924532374" lon="11.462985535914267"><ele>150.66666666666669</ele><time>2026-05-04T12:48:28.001Z</time></trkpt><trkpt lat="43.19585919417901" lon="11.46315489986931"><ele>150.33333333333334</ele><time>2026-05-04T12:48:29.001Z</time></trkpt><trkpt lat="43.19576455226996" lon="11.463318338294767"><ele>150.0</ele><time>2026-05-04T12:48:30.001Z</time></trkpt><trkpt lat="43.19569278425216" lon="11.46350877180236"><ele>150.0</ele><time>2026-05-04T12:48:31.001Z</time></trkpt><trkpt lat="43.19562087186253" lon="11.463686688112167"><ele>150.0</ele><time>2026-05-04T12:48:32.001Z</time></trkpt><trkpt lat="43.195551448163236" lon="11.463856229885467"><ele>150.0</ele><time>2026-05-04T12:48:33.001Z</time></trkpt><trkpt lat="43.19548635661938" lon="11.46401654435883"><ele>150.0</ele><time>2026-05-04T12:48:34.001Z</time></trkpt><trkpt lat="43.19542854462753" lon="11.4641669054767"><ele>150.25</ele><time>2026-05-04T12:48:35.001Z</time></trkpt><trkpt lat="43.19536504122711" lon="11.4643282458359"><ele>150.5</ele><time>2026-05-04T12:48:36.002Z</time></trkpt><trkpt lat="43.19529099638326" lon="11.464504627545852"><ele>150.75</ele><time>2026-05-04T12:48:37.002Z</time></trkpt><trkpt lat="43.19521242400539" lon="11.464694730377628"><ele>151.0</ele><time>2026-05-04T12:48:38.002Z</time></trkpt><trkpt lat="43.19513949408987" lon="11.46488044598447"><ele>151.66666666666669</ele><time>2026-05-04T12:48:39.002Z</time></trkpt><trkpt lat="43.19506093804544" lon="11.46508012563908"><ele>152.33333333333334</ele><time>2026-05-04T12:48:40.002Z</time></trkpt><trkpt lat="43.19498670405154" lon="11.46526586411673"><ele>153.0</ele><time>2026-05-04T12:48:41.002Z</time></trkpt><trkpt lat="43.19491637575061" lon="11.465437177178503"><ele>153.5</ele><time>2026-05-04T12:48:42.002Z</time></trkpt><trkpt lat="43.19484453142274" lon="11.465585558261026"><ele>154.0</ele><time>2026-05-04T12:48:43.002Z</time></trkpt><trkpt lat="43.19475908327623" lon="11.465714714559352"><ele>154.5</ele><time>2026-05-04T12:48:44.002Z</time></trkpt><trkpt lat="43.19465860729055" lon="11.465822456257733"><ele>155.0</ele><time>2026-05-04T12:48:45.002Z</time></trkpt><trkpt lat="43.194546312609496" lon="11.465924118407072"><ele>155.0</ele><time>2026-05-04T12:48:46.002Z</time></trkpt><trkpt lat="43.194414688980686" lon="11.466039573013983"><ele>155.0</ele><time>2026-05-04T12:48:47.002Z</time></trkpt><trkpt lat="43.19427444760042" lon="11.46617943345515"><ele>155.0</ele><time>2026-05-04T12:48:48.002Z</time></trkpt><trkpt lat="43.19412846493122" lon="11.466325797884737"><ele>155.33333333333331</ele><time>2026-05-04T12:48:49.002Z</time></trkpt><trkpt lat="43.19398210077461" lon="11.46646641228201"><ele>155.66666666666666</ele><time>2026-05-04T12:48:50.002Z</time></trkpt><trkpt lat="43.19384964564698" lon="11.466589638891302"><ele>156.0</ele><time>2026-05-04T12:48:51.002Z</time></trkpt><trkpt lat="43.19370679038597" lon="11.466706184813292"><ele>156.0</ele><time>2026-05-04T12:48:52.002Z</time></trkpt><trkpt lat="43.19358081384594" lon="11.466818100282572"><ele>156.0</ele><time>2026-05-04T12:48:53.002Z</time></trkpt><trkpt lat="43.19345553247343" lon="11.466929339448642"><ele>156.0</ele><time>2026-05-04T12:48:54.002Z</time></trkpt><trkpt lat="43.19333464839764" lon="11.467041193923576"><ele>156.0</ele><time>2026-05-04T12:48:55.002Z</time></trkpt><trkpt lat="43.19321896687005" lon="11.467150776595409"><ele>156.0</ele><time>2026-05-04T12:48:56.002Z</time></trkpt><trkpt lat="43.193099967890674" lon="11.467266135687332"><ele>156.0</ele><time>2026-05-04T12:48:57.002Z</time></trkpt><trkpt lat="43.192978160751196" lon="11.467385935121577"><ele>156.0</ele><time>2026-05-04T12:48:58.002Z</time></trkpt><trkpt lat="43.192853173074745" lon="11.467506635753736"><ele>156.0</ele><time>2026-05-04T12:48:59.002Z</time></trkpt><trkpt lat="43.19272771823088" lon="11.467628226108248"><ele>156.0</ele><time>2026-05-04T12:49:00.002Z</time></trkpt><trkpt lat="43.192602988593116" lon="11.467752478252308"><ele>156.0</ele><time>2026-05-04T12:49:01.002Z</time></trkpt><trkpt lat="43.192473014688936" lon="11.467881419358045"><ele>156.0</ele><time>2026-05-04T12:49:02.002Z</time></trkpt><trkpt lat="43.192347637148345" lon="11.468001705874025"><ele>156.75</ele><time>2026-05-04T12:49:03.002Z</time></trkpt><trkpt lat="43.19222967424284" lon="11.4681243390909"><ele>157.5</ele><time>2026-05-04T12:49:04.002Z</time></trkpt><trkpt lat="43.19210609519021" lon="11.468247019478873"><ele>158.25</ele><time>2026-05-04T12:49:05.002Z</time></trkpt><trkpt lat="43.191986809521595" lon="11.468368986412207"><ele>159.0</ele><time>2026-05-04T12:49:06.003Z</time></trkpt><trkpt lat="43.1918649900701" lon="11.46848546803387"><ele>159.0</ele><time>2026-05-04T12:49:07.003Z</time></trkpt><trkpt lat="43.191746185643986" lon="11.468597190596359"><ele>159.0</ele><time>2026-05-04T12:49:08.003Z</time></trkpt><trkpt lat="43.19162835241094" lon="11.468710041018543"><ele>159.0</ele><time>2026-05-04T12:49:09.003Z</time></trkpt><trkpt lat="43.19149459079269" lon="11.468811504833457"><ele>159.0</ele><time>2026-05-04T12:49:10.003Z</time></trkpt><trkpt lat="43.19137866277655" lon="11.468925871539957"><ele>158.5</ele><time>2026-05-04T12:49:11.003Z</time></trkpt><trkpt lat="43.19127229734598" lon="11.469050835520818"><ele>158.0</ele><time>2026-05-04T12:49:12.003Z</time></trkpt><trkpt lat="43.191194526916256" lon="11.469201474729916"><ele>157.5</ele><time>2026-05-04T12:49:13.003Z</time></trkpt><trkpt lat="43.19112421415598" lon="11.469343635753342"><ele>157.0</ele><time>2026-05-04T12:49:14.003Z</time></trkpt><trkpt lat="43.19105865489606" lon="11.469512494070287"><ele>158.25</ele><time>2026-05-04T12:49:15.003Z</time></trkpt><trkpt lat="43.19099733903628" lon="11.469680667468435"><ele>159.5</ele><time>2026-05-04T12:49:16.003Z</time></trkpt><trkpt lat="43.190925039596024" lon="11.469856278827526"><ele>160.75</ele><time>2026-05-04T12:49:17.003Z</time></trkpt><trkpt lat="43.1908465420521" lon="11.470025682685943"><ele>162.0</ele><time>2026-05-04T12:49:18.003Z</time></trkpt><trkpt lat="43.19076714989238" lon="11.470178242749137"><ele>162.0</ele><time>2026-05-04T12:49:19.003Z</time></trkpt><trkpt lat="43.19068860380369" lon="11.470316340749184"><ele>162.0</ele><time>2026-05-04T12:49:20.003Z</time></trkpt><trkpt lat="43.1906046075734" lon="11.470429453763243"><ele>162.0</ele><time>2026-05-04T12:49:21.003Z</time></trkpt><trkpt lat="43.19050877821981" lon="11.470540196869244"><ele>162.0</ele><time>2026-05-04T12:49:22.003Z</time></trkpt><trkpt lat="43.190401132229496" lon="11.470664181280041"><ele>162.75</ele><time>2026-05-04T12:49:23.003Z</time></trkpt><trkpt lat="43.19029072513905" lon="11.470791471171731"><ele>163.5</ele><time>2026-05-04T12:49:24.003Z</time></trkpt><trkpt lat="43.19018213476299" lon="11.470907854391445"><ele>164.25</ele><time>2026-05-04T12:49:25.003Z</time></trkpt><trkpt lat="43.19006875261209" lon="11.47100991871864"><ele>165.0</ele><time>2026-05-04T12:49:26.003Z</time></trkpt><trkpt lat="43.189947201415755" lon="11.471091306067501"><ele>165.5</ele><time>2026-05-04T12:49:27.003Z</time></trkpt><trkpt lat="43.18982007139076" lon="11.471156868261703"><ele>166.0</ele><time>2026-05-04T12:49:28.003Z</time></trkpt><trkpt lat="43.18969360586243" lon="11.471221625553373"><ele>166.5</ele><time>2026-05-04T12:49:29.003Z</time></trkpt><trkpt lat="43.1895691386667" lon="11.471288925402954"><ele>167.0</ele><time>2026-05-04T12:49:30.003Z</time></trkpt><trkpt lat="43.189453591339046" lon="11.471394707414172"><ele>167.0</ele><time>2026-05-04T12:49:31.003Z</time></trkpt><trkpt lat="43.18935189418968" lon="11.471508572606242"><ele>167.0</ele><time>2026-05-04T12:49:32.003Z</time></trkpt><trkpt lat="43.18926404611583" lon="11.471642442946486"><ele>167.0</ele><time>2026-05-04T12:49:33.003Z</time></trkpt><trkpt lat="43.189192517733915" lon="11.471780248205393"><ele>167.0</ele><time>2026-05-04T12:49:34.003Z</time></trkpt><trkpt lat="43.18913467368837" lon="11.471928830038495"><ele>167.0</ele><time>2026-05-04T12:49:35.003Z</time></trkpt><trkpt lat="43.18909020006848" lon="11.47208714774006"><ele>167.0</ele><time>2026-05-04T12:49:36.003Z</time></trkpt><trkpt lat="43.189041653031225" lon="11.472268041127764"><ele>167.0</ele><time>2026-05-04T12:49:37.003Z</time></trkpt><trkpt lat="43.18899427054217" lon="11.472452154201578"><ele>167.0</ele><time>2026-05-04T12:49:38.003Z</time></trkpt><trkpt lat="43.188953274091254" lon="11.472619174178229"><ele>166.6</ele><time>2026-05-04T12:49:39.004Z</time></trkpt><trkpt lat="43.18890882802423" lon="11.472769027771005"><ele>166.2</ele><time>2026-05-04T12:49:40.004Z</time></trkpt><trkpt lat="43.188850798950625" lon="11.472907829910516"><ele>165.8</ele><time>2026-05-04T12:49:41.004Z</time></trkpt><trkpt lat="43.188789278732166" lon="11.47302353093252"><ele>165.4</ele><time>2026-05-04T12:49:42.004Z</time></trkpt><trkpt lat="43.188732024446715" lon="11.473144193324215"><ele>165.0</ele><time>2026-05-04T12:49:43.004Z</time></trkpt><trkpt lat="43.18868340635062" lon="11.473271820228248"><ele>165.0</ele><time>2026-05-04T12:49:44.004Z</time></trkpt><trkpt lat="43.18864051515381" lon="11.473398288004853"><ele>165.0</ele><time>2026-05-04T12:49:45.004Z</time></trkpt><trkpt lat="43.18860138285051" lon="11.473529865789239"><ele>165.0</ele><time>2026-05-04T12:49:46.004Z</time></trkpt><trkpt lat="43.18856896276584" lon="11.473646958908459"><ele>165.0</ele><time>2026-05-04T12:49:47Z</time></trkpt><trkpt lat="43.188537733780734" lon="11.473740516518777"><ele>165.0</ele><time>2026-05-04T12:49:48Z</time></trkpt><trkpt lat="43.18849638747555" lon="11.47384148989794"><ele>165.0</ele><time>2026-05-04T12:49:49Z</time></trkpt><trkpt lat="43.188450048575724" lon="11.473937944911762"><ele>165.0</ele><time>2026-05-04T12:49:50Z</time></trkpt><trkpt lat="43.18839662081542" lon="11.474029246118086"><ele>165.0</ele><time>2026-05-04T12:49:51Z</time></trkpt><trkpt lat="43.188342169224654" lon="11.474099101493625"><ele>165.0</ele><time>2026-05-04T12:49:52Z</time></trkpt><trkpt lat="43.188278068066104" lon="11.47416638586022"><ele>165.0</ele><time>2026-05-04T12:49:53Z</time></trkpt><trkpt lat="43.18819487661051" lon="11.474226998711087"><ele>165.0</ele><time>2026-05-04T12:49:54Z</time></trkpt><trkpt lat="43.18811948946055" lon="11.474274404693697"><ele>164.0</ele><time>2026-05-04T12:49:55Z</time></trkpt><trkpt lat="43.18804409272169" lon="11.474334471402006"><ele>163.0</ele><time>2026-05-04T12:49:56Z</time></trkpt><trkpt lat="43.18798574619147" lon="11.4744125381186"><ele>162.0</ele><time>2026-05-04T12:49:57Z</time></trkpt><trkpt lat="43.187946759132224" lon="11.474517497712784"><ele>161.0</ele><time>2026-05-04T12:49:58Z</time></trkpt><trkpt lat="43.18791491281484" lon="11.474644971455136"><ele>160.0</ele><time>2026-05-04T12:49:59Z</time></trkpt><trkpt lat="43.18789035691245" lon="11.474769924416456"><ele>159.0</ele><time>2026-05-04T12:50:00Z</time></trkpt><trkpt lat="43.18785824357409" lon="11.474861083269179"><ele>159.0</ele><time>2026-05-04T12:50:01Z</time></trkpt><trkpt lat="43.187808479209394" lon="11.474926753117773"><ele>159.0</ele><time>2026-05-04T12:50:02Z</time></trkpt><trkpt lat="43.1877352118593" lon="11.474992012383368"><ele>159.0</ele><time>2026-05-04T12:50:03Z</time></trkpt><trkpt lat="43.18761264130611" lon="11.474962292018148"><ele>159.0</ele><time>2026-05-04T12:50:05Z</time></trkpt><trkpt lat="43.187547554368386" lon="11.474910392085473"><ele>159.0</ele><time>2026-05-04T12:50:06Z</time></trkpt><trkpt lat="43.18748439850667" lon="11.474859189999657"><ele>159.0</ele><time>2026-05-04T12:50:07Z</time></trkpt><trkpt lat="43.18740261815343" lon="11.474804991926133"><ele>158.2</ele><time>2026-05-04T12:50:08Z</time></trkpt><trkpt lat="43.1873359127907" lon="11.474763490597278"><ele>157.4</ele><time>2026-05-04T12:50:09Z</time></trkpt><trkpt lat="43.1872635356652" lon="11.474731758428735"><ele>156.6</ele><time>2026-05-04T12:50:10Z</time></trkpt><trkpt lat="43.18716856957283" lon="11.47472645847784"><ele>155.8</ele><time>2026-05-04T12:50:11.001Z</time></trkpt><trkpt lat="43.187055013201764" lon="11.474735211073764"><ele>155.0</ele><time>2026-05-04T12:50:12.001Z</time></trkpt><trkpt lat="43.186940002796106" lon="11.474747830048203"><ele>155.0</ele><time>2026-05-04T12:50:13.001Z</time></trkpt><trkpt lat="43.18681466439459" lon="11.474767967230955"><ele>155.0</ele><time>2026-05-04T12:50:14.001Z</time></trkpt><trkpt lat="43.18668647846716" lon="11.474790092021063"><ele>155.0</ele><time>2026-05-04T12:50:15.001Z</time></trkpt><trkpt lat="43.18655844184489" lon="11.474825344512826"><ele>155.0</ele><time>2026-05-04T12:50:16.001Z</time></trkpt><trkpt lat="43.186431513022896" lon="11.47481988398767"><ele>154.75</ele><time>2026-05-04T12:50:17.001Z</time></trkpt><trkpt lat="43.18631190915417" lon="11.474822973600322"><ele>154.5</ele><time>2026-05-04T12:50:18.001Z</time></trkpt><trkpt lat="43.18620298589892" lon="11.474826653081658"><ele>154.25</ele><time>2026-05-04T12:50:19.001Z</time></trkpt><trkpt lat="43.18609258605398" lon="11.474846943234763"><ele>154.0</ele><time>2026-05-04T12:50:20.001Z</time></trkpt><trkpt lat="43.185975486527035" lon="11.474900680037727"><ele>154.0</ele><time>2026-05-04T12:50:21.001Z</time></trkpt><trkpt lat="43.185852357817424" lon="11.474973661315474"><ele>154.0</ele><time>2026-05-04T12:50:22.001Z</time></trkpt><trkpt lat="43.18573452198723" lon="11.47506745295881"><ele>154.0</ele><time>2026-05-04T12:50:23.001Z</time></trkpt><trkpt lat="43.18560506869323" lon="11.475170949731153"><ele>154.0</ele><time>2026-05-04T12:50:24.001Z</time></trkpt><trkpt lat="43.185479362765314" lon="11.475279817059649"><ele>154.0</ele><time>2026-05-04T12:50:25.001Z</time></trkpt><trkpt lat="43.185339043262225" lon="11.475397839086954"><ele>154.0</ele><time>2026-05-04T12:50:26.001Z</time></trkpt><trkpt lat="43.185204938053616" lon="11.475514234187198"><ele>154.0</ele><time>2026-05-04T12:50:27.001Z</time></trkpt><trkpt lat="43.185066469274446" lon="11.475630693054386"><ele>154.0</ele><time>2026-05-04T12:50:28.001Z</time></trkpt><trkpt lat="43.18491897105835" lon="11.47575310469195"><ele>154.0</ele><time>2026-05-04T12:50:29.001Z</time></trkpt><trkpt lat="43.184774691063346" lon="11.475868777846664"><ele>154.0</ele><time>2026-05-04T12:50:30.001Z</time></trkpt><trkpt lat="43.18462209275445" lon="11.475997099699015"><ele>154.0</ele><time>2026-05-04T12:50:31.001Z</time></trkpt><trkpt lat="43.184470908617136" lon="11.476119895756643"><ele>154.0</ele><time>2026-05-04T12:50:32.001Z</time></trkpt><trkpt lat="43.18431312193353" lon="11.476250743886466"><ele>154.0</ele><time>2026-05-04T12:50:33.001Z</time></trkpt><trkpt lat="43.184155594708656" lon="11.47637209903603"><ele>153.66666666666669</ele><time>2026-05-04T12:50:34.001Z</time></trkpt><trkpt lat="43.183979628924156" lon="11.47651368091455"><ele>153.33333333333334</ele><time>2026-05-04T12:50:35.001Z</time></trkpt><trkpt lat="43.18381161531331" lon="11.476644790471669"><ele>153.0</ele><time>2026-05-04T12:50:36.001Z</time></trkpt><trkpt lat="43.18363674814442" lon="11.476788646976555"><ele>153.0</ele><time>2026-05-04T12:50:37.001Z</time></trkpt><trkpt lat="43.183465071025246" lon="11.476935528132742"><ele>153.0</ele><time>2026-05-04T12:50:38.002Z</time></trkpt><trkpt lat="43.183301553579774" lon="11.477059645028497"><ele>153.0</ele><time>2026-05-04T12:50:39.002Z</time></trkpt><trkpt lat="43.18312628374267" lon="11.477184455928846"><ele>153.66666666666666</ele><time>2026-05-04T12:50:40.002Z</time></trkpt><trkpt lat="43.18297290811689" lon="11.477315947266701"><ele>154.33333333333331</ele><time>2026-05-04T12:50:41.002Z</time></trkpt><trkpt lat="43.18281665122456" lon="11.477449908819652"><ele>155.0</ele><time>2026-05-04T12:50:42.002Z</time></trkpt><trkpt lat="43.182707963131705" lon="11.477561552629593"><ele>155.0</ele><time>2026-05-04T12:50:43.002Z</time></trkpt><trkpt lat="43.182593569119" lon="11.477662752529346"><ele>155.0</ele><time>2026-05-04T12:50:44.002Z</time></trkpt><trkpt lat="43.182498661745576" lon="11.477739434022283"><ele>155.0</ele><time>2026-05-04T12:50:45.002Z</time></trkpt><trkpt lat="43.182410861884115" lon="11.477796155782185"><ele>155.0</ele><time>2026-05-04T12:50:46.002Z</time></trkpt><trkpt lat="43.18232705836051" lon="11.477828297729825"><ele>155.0</ele><time>2026-05-04T12:50:47.002Z</time></trkpt><trkpt lat="43.18226281145798" lon="11.477833082078373"><ele>155.25</ele><time>2026-05-04T12:50:48.002Z</time></trkpt><trkpt lat="43.182168572115" lon="11.477771814343406"><ele>155.5</ele><time>2026-05-04T12:50:49.002Z</time></trkpt><trkpt lat="43.18202479884491" lon="11.477746023552491"><ele>155.75</ele><time>2026-05-04T12:50:50.002Z</time></trkpt><trkpt lat="43.181853893257106" lon="11.477683529670696"><ele>156.0</ele><time>2026-05-04T12:50:51.002Z</time></trkpt><trkpt lat="43.18167111265958" lon="11.477634218095183"><ele>156.0</ele><time>2026-05-04T12:50:52.002Z</time></trkpt><trkpt lat="43.18148029059651" lon="11.477585381371897"><ele>156.0</ele><time>2026-05-04T12:50:53.002Z</time></trkpt><trkpt lat="43.181295582469005" lon="11.477532760764689"><ele>156.0</ele><time>2026-05-04T12:50:54.002Z</time></trkpt><trkpt lat="43.18111266054953" lon="11.477485061740671"><ele>156.0</ele><time>2026-05-04T12:50:55.002Z</time></trkpt><trkpt lat="43.18092399333972" lon="11.47744362629131"><ele>156.0</ele><time>2026-05-04T12:50:56.002Z</time></trkpt><trkpt lat="43.18074713361693" lon="11.477385209522177"><ele>156.0</ele><time>2026-05-04T12:50:57.002Z</time></trkpt><trkpt lat="43.18056612305236" lon="11.477348110175388"><ele>155.66666666666666</ele><time>2026-05-04T12:50:58.002Z</time></trkpt><trkpt lat="43.18038332359393" lon="11.477307622076186"><ele>155.33333333333331</ele><time>2026-05-04T12:50:59.002Z</time></trkpt><trkpt lat="43.180212660480535" lon="11.477263429019677"><ele>155.0</ele><time>2026-05-04T12:51:00.002Z</time></trkpt><trkpt lat="43.18004147862735" lon="11.4772357939119"><ele>155.0</ele><time>2026-05-04T12:51:01.002Z</time></trkpt><trkpt lat="43.17987442590199" lon="11.477188645815614"><ele>155.0</ele><time>2026-05-04T12:51:02.002Z</time></trkpt><trkpt lat="43.179711983134524" lon="11.477122382585273"><ele>155.0</ele><time>2026-05-04T12:51:03.002Z</time></trkpt><trkpt lat="43.179549642008055" lon="11.47707963024217"><ele>154.66666666666666</ele><time>2026-05-04T12:51:04.002Z</time></trkpt><trkpt lat="43.1793892809852" lon="11.477052407638467"><ele>154.33333333333334</ele><time>2026-05-04T12:51:05.002Z</time></trkpt><trkpt lat="43.17922894783845" lon="11.477046982982742"><ele>154.0</ele><time>2026-05-04T12:51:06.002Z</time></trkpt><trkpt lat="43.17906641071588" lon="11.477076625416112"><ele>155.0</ele><time>2026-05-04T12:51:07.002Z</time></trkpt><trkpt lat="43.178896977935544" lon="11.47714444658905"><ele>156.0</ele><time>2026-05-04T12:51:08.002Z</time></trkpt><trkpt lat="43.178707327041735" lon="11.477177729656498"><ele>157.0</ele><time>2026-05-04T12:51:09.002Z</time></trkpt><trkpt lat="43.17850463180049" lon="11.47723475576928"><ele>157.0</ele><time>2026-05-04T12:51:10.003Z</time></trkpt><trkpt lat="43.17829718296012" lon="11.477300139404557"><ele>157.0</ele><time>2026-05-04T12:51:11.003Z</time></trkpt><trkpt lat="43.17810875456694" lon="11.477333297589066"><ele>157.0</ele><time>2026-05-04T12:51:12.003Z</time></trkpt><trkpt lat="43.17792905430662" lon="11.477360413656578"><ele>158.33333333333334</ele><time>2026-05-04T12:51:13.003Z</time></trkpt><trkpt lat="43.17774836017269" lon="11.477385693795835"><ele>159.66666666666666</ele><time>2026-05-04T12:51:14.003Z</time></trkpt><trkpt lat="43.17756710213638" lon="11.477411074552922"><ele>161.0</ele><time>2026-05-04T12:51:15.003Z</time></trkpt><trkpt lat="43.17740251113665" lon="11.477432357509267"><ele>163.0</ele><time>2026-05-04T12:51:16.003Z</time></trkpt><trkpt lat="43.17725886757587" lon="11.477455556860138"><ele>165.0</ele><time>2026-05-04T12:51:17.003Z</time></trkpt><trkpt lat="43.177115093040925" lon="11.477481857238287"><ele>167.0</ele><time>2026-05-04T12:51:18.003Z</time></trkpt><trkpt lat="43.176998860168545" lon="11.477518596390277"><ele>169.0</ele><time>2026-05-04T12:51:19.003Z</time></trkpt><trkpt lat="43.17688912584935" lon="11.477544645473303"><ele>169.0</ele><time>2026-05-04T12:51:20.003Z</time></trkpt><trkpt lat="43.17679661829177" lon="11.477621148439434"><ele>169.0</ele><time>2026-05-04T12:51:21.003Z</time></trkpt><trkpt lat="43.176729986133815" lon="11.477744703010602"><ele>169.0</ele><time>2026-05-04T12:51:22.003Z</time></trkpt><trkpt lat="43.176709826151146" lon="11.477895594733054"><ele>169.0</ele><time>2026-05-04T12:51:23.003Z</time></trkpt><trkpt lat="43.17669058529784" lon="11.478049127198284"><ele>169.0</ele><time>2026-05-04T12:51:24.003Z</time></trkpt><trkpt lat="43.17666741123223" lon="11.478242541874394"><ele>172.33333333333334</ele><time>2026-05-04T12:51:25.003Z</time></trkpt><trkpt lat="43.176652292840615" lon="11.47846533664381"><ele>175.66666666666666</ele><time>2026-05-04T12:51:26.003Z</time></trkpt><trkpt lat="43.17665152169319" lon="11.478694144480123"><ele>179.0</ele><time>2026-05-04T12:51:27.003Z</time></trkpt><trkpt lat="43.17667021775902" lon="11.47890643450142"><ele>181.0</ele><time>2026-05-04T12:51:28.003Z</time></trkpt><trkpt lat="43.17669248140088" lon="11.479148131697253"><ele>183.0</ele><time>2026-05-04T12:51:29.003Z</time></trkpt><trkpt lat="43.176692056258176" lon="11.47934200896647"><ele>185.0</ele><time>2026-05-04T12:51:30.003Z</time></trkpt><trkpt lat="43.17666720612953" lon="11.479503522756081"><ele>187.0</ele><time>2026-05-04T12:51:31.003Z</time></trkpt><trkpt lat="43.17659522505719" lon="11.479632725576309"><ele>188.5</ele><time>2026-05-04T12:51:32.003Z</time></trkpt><trkpt lat="43.176525147855514" lon="11.479758032471237"><ele>190.0</ele><time>2026-05-04T12:51:33.003Z</time></trkpt><trkpt lat="43.176432332325845" lon="11.479882751171916"><ele>191.5</ele><time>2026-05-04T12:51:34.003Z</time></trkpt><trkpt lat="43.17631144149988" lon="11.480037740833545"><ele>193.0</ele><time>2026-05-04T12:51:35.003Z</time></trkpt><trkpt lat="43.17623945103531" lon="11.480148155712286"><ele>193.0</ele><time>2026-05-04T12:51:36.003Z</time></trkpt><trkpt lat="43.17618755917693" lon="11.480242914638499"><ele>193.0</ele><time>2026-05-04T12:51:37.003Z</time></trkpt><trkpt lat="43.17617294637296" lon="11.480395082665172"><ele>193.0</ele><time>2026-05-04T12:51:38.003Z</time></trkpt><trkpt lat="43.17616305395248" lon="11.480550690869023"><ele>193.0</ele><time>2026-05-04T12:51:39.003Z</time></trkpt><trkpt lat="43.17612532348618" lon="11.4807346219975"><ele>194.25</ele><time>2026-05-04T12:51:40.003Z</time></trkpt><trkpt lat="43.17612289594944" lon="11.48092562275579"><ele>195.5</ele><time>2026-05-04T12:51:41.003Z</time></trkpt><trkpt lat="43.17609297795265" lon="11.481108500467123"><ele>196.75</ele><time>2026-05-04T12:51:42.003Z</time></trkpt><trkpt lat="43.17605501196175" lon="11.481279896002777"><ele>198.0</ele><time>2026-05-04T12:51:43.004Z</time></trkpt><trkpt lat="43.17600925221574" lon="11.481419547949937"><ele>197.5</ele><time>2026-05-04T12:51:44.004Z</time></trkpt><trkpt lat="43.17596157780868" lon="11.481525175877465"><ele>197.0</ele><time>2026-05-04T12:51:45.004Z</time></trkpt><trkpt lat="43.17588848978878" lon="11.481593628384463"><ele>196.5</ele><time>2026-05-04T12:51:46.004Z</time></trkpt><trkpt lat="43.17582406055997" lon="11.481647548697023"><ele>196.0</ele><time>2026-05-04T12:51:47.004Z</time></trkpt><trkpt lat="43.175753279603136" lon="11.481724163183403"><ele>195.5</ele><time>2026-05-04T12:51:48.004Z</time></trkpt><trkpt lat="43.17569142893945" lon="11.48182658691941"><ele>195.0</ele><time>2026-05-04T12:51:49.004Z</time></trkpt><trkpt lat="43.17567522714821" lon="11.481965839453874"><ele>197.0</ele><time>2026-05-04T12:51:50.004Z</time></trkpt><trkpt lat="43.17565385940984" lon="11.482116321428496"><ele>199.0</ele><time>2026-05-04T12:51:51.004Z</time></trkpt><trkpt lat="43.175631172753626" lon="11.482280244591689"><ele>201.0</ele><time>2026-05-04T12:51:52.004Z</time></trkpt><trkpt lat="43.17561371882139" lon="11.482426377251484"><ele>203.0</ele><time>2026-05-04T12:51:53Z</time></trkpt><trkpt lat="43.17560761384656" lon="11.48254345293929"><ele>205.0</ele><time>2026-05-04T12:51:54Z</time></trkpt><trkpt lat="43.175623244815746" lon="11.482647271773045"><ele>205.0</ele><time>2026-05-04T12:51:55Z</time></trkpt><trkpt lat="43.17567003813999" lon="11.482754287562408"><ele>205.0</ele><time>2026-05-04T12:51:56Z</time></trkpt><trkpt lat="43.17572409038074" lon="11.482865221253448"><ele>205.0</ele><time>2026-05-04T12:51:57Z</time></trkpt><trkpt lat="43.17573285605694" lon="11.482988397924217"><ele>205.0</ele><time>2026-05-04T12:51:58Z</time></trkpt><trkpt lat="43.175754777510186" lon="11.483127123312705"><ele>205.0</ele><time>2026-05-04T12:51:59Z</time></trkpt><trkpt lat="43.175765020486764" lon="11.483315201569447"><ele>210.33333333333331</ele><time>2026-05-04T12:52:00Z</time></trkpt><trkpt lat="43.17577902252442" lon="11.48353627796255"><ele>215.66666666666669</ele><time>2026-05-04T12:52:01Z</time></trkpt><trkpt lat="43.17579710822292" lon="11.483742116464569"><ele>221.0</ele><time>2026-05-04T12:52:02Z</time></trkpt><trkpt lat="43.17581015038743" lon="11.483930800011786"><ele>222.60000000000002</ele><time>2026-05-04T12:52:03Z</time></trkpt><trkpt lat="43.17581648941135" lon="11.484079721858299"><ele>224.20000000000002</ele><time>2026-05-04T12:52:04Z</time></trkpt><trkpt lat="43.17581540850418" lon="11.484216400367357"><ele>225.79999999999998</ele><time>2026-05-04T12:52:05Z</time></trkpt><trkpt lat="43.175759018456624" lon="11.484325029351139"><ele>227.39999999999998</ele><time>2026-05-04T12:52:06Z</time></trkpt><trkpt lat="43.175701089741466" lon="11.484458126087542"><ele>229.0</ele><time>2026-05-04T12:52:07Z</time></trkpt><trkpt lat="43.17564052517043" lon="11.484624897415195"><ele>229.0</ele><time>2026-05-04T12:52:08Z</time></trkpt><trkpt lat="43.175563294990766" lon="11.48475954265164"><ele>228.99999999999997</ele><time>2026-05-04T12:52:09Z</time></trkpt><trkpt lat="43.17550924197668" lon="11.484864032306529"><ele>228.99999999999997</ele><time>2026-05-04T12:52:10Z</time></trkpt><trkpt lat="43.17547220320725" lon="11.484946670616425"><ele>229.0</ele><time>2026-05-04T12:52:11Z</time></trkpt><trkpt lat="43.17539257961492" lon="11.48502270589853"><ele>229.0</ele><time>2026-05-04T12:52:13Z</time></trkpt><trkpt lat="43.17530207907732" lon="11.484957919089346"><ele>229.0</ele><time>2026-05-04T12:52:15Z</time></trkpt><trkpt lat="43.175236484940505" lon="11.484917680150074"><ele>229.0</ele><time>2026-05-04T12:52:16.001Z</time></trkpt><trkpt lat="43.17513609202005" lon="11.484854711744129"><ele>229.0</ele><time>2026-05-04T12:52:17.001Z</time></trkpt><trkpt lat="43.17500919154981" lon="11.484796594815231"><ele>229.0</ele><time>2026-05-04T12:52:18.001Z</time></trkpt><trkpt lat="43.17488205818371" lon="11.484710811640973"><ele>229.0</ele><time>2026-05-04T12:52:19.001Z</time></trkpt><trkpt lat="43.17474588831804" lon="11.484627956015366"><ele>229.0</ele><time>2026-05-04T12:52:20.001Z</time></trkpt><trkpt lat="43.174628956223714" lon="11.48455433026018"><ele>229.0</ele><time>2026-05-04T12:52:21.001Z</time></trkpt><trkpt lat="43.174528198807664" lon="11.484486751375943"><ele>229.0</ele><time>2026-05-04T12:52:22.001Z</time></trkpt><trkpt lat="43.174430216180156" lon="11.484444855396685"><ele>228.99999999999997</ele><time>2026-05-04T12:52:23.001Z</time></trkpt><trkpt lat="43.174350329149895" lon="11.484416512923007"><ele>229.0</ele><time>2026-05-04T12:52:24.001Z</time></trkpt><trkpt lat="43.174267443652504" lon="11.484397474036815"><ele>229.0</ele><time>2026-05-04T12:52:25.001Z</time></trkpt><trkpt lat="43.17419566248851" lon="11.484377975756983"><ele>229.0</ele><time>2026-05-04T12:52:26.001Z</time></trkpt><trkpt lat="43.174125995161525" lon="11.484357157311639"><ele>228.99999999999997</ele><time>2026-05-04T12:52:27.001Z</time></trkpt><trkpt lat="43.17405017738502" lon="11.484332888466104"><ele>229.0</ele><time>2026-05-04T12:52:28.001Z</time></trkpt><trkpt lat="43.173975947390765" lon="11.484311042211482"><ele>229.0</ele><time>2026-05-04T12:52:29.001Z</time></trkpt><trkpt lat="43.17390712213459" lon="11.484292947832692"><ele>229.0</ele><time>2026-05-04T12:52:30.001Z</time></trkpt><trkpt lat="43.17383871507851" lon="11.48426713248116"><ele>229.0</ele><time>2026-05-04T12:52:31.001Z</time></trkpt><trkpt lat="43.173774151265974" lon="11.484247369571392"><ele>229.0</ele><time>2026-05-04T12:52:32.001Z</time></trkpt><trkpt lat="43.173700886851734" lon="11.484227084905456"><ele>229.0</ele><time>2026-05-04T12:52:33.001Z</time></trkpt><trkpt lat="43.17362263825299" lon="11.484198724798128"><ele>229.0</ele><time>2026-05-04T12:52:34.001Z</time></trkpt><trkpt lat="43.17354054443065" lon="11.484175251602096"><ele>229.0</ele><time>2026-05-04T12:52:35.001Z</time></trkpt><trkpt lat="43.173457848957085" lon="11.484140223561866"><ele>229.0</ele><time>2026-05-04T12:52:36.001Z</time></trkpt><trkpt lat="43.17338286028086" lon="11.484117985283504"><ele>229.0</ele><time>2026-05-04T12:52:37.001Z</time></trkpt><trkpt lat="43.17330657315051" lon="11.48410350442886"><ele>229.0</ele><time>2026-05-04T12:52:38.001Z</time></trkpt><trkpt lat="43.17322553975033" lon="11.484085713100145"><ele>229.0</ele><time>2026-05-04T12:52:39.001Z</time></trkpt><trkpt lat="43.17315540064584" lon="11.484059999215473"><ele>229.0</ele><time>2026-05-04T12:52:40.001Z</time></trkpt><trkpt lat="43.173088647954756" lon="11.484038755174057"><ele>229.0</ele><time>2026-05-04T12:52:41.001Z</time></trkpt><trkpt lat="43.17301822298924" lon="11.484019521865427"><ele>229.0</ele><time>2026-05-04T12:52:42.001Z</time></trkpt><trkpt lat="43.172892047384536" lon="11.483967831040596"><ele>228.33333333333331</ele><time>2026-05-04T12:52:44.002Z</time></trkpt><trkpt lat="43.17282483989553" lon="11.48394058665911"><ele>227.66666666666666</ele><time>2026-05-04T12:52:45.002Z</time></trkpt><trkpt lat="43.1727547706465" lon="11.483913444473218"><ele>227.0</ele><time>2026-05-04T12:52:46.002Z</time></trkpt><trkpt lat="43.1726820851598" lon="11.483884179308104"><ele>226.33333333333331</ele><time>2026-05-04T12:52:47.002Z</time></trkpt><trkpt lat="43.17260488064597" lon="11.483851343488563"><ele>225.66666666666666</ele><time>2026-05-04T12:52:48.002Z</time></trkpt><trkpt lat="43.17253472724316" lon="11.48382087325846"><ele>225.0</ele><time>2026-05-04T12:52:49.002Z</time></trkpt><trkpt lat="43.17246464879227" lon="11.48376168056546"><ele>224.33333333333334</ele><time>2026-05-04T12:52:50.002Z</time></trkpt><trkpt lat="43.17239289209147" lon="11.483717552417644"><ele>223.66666666666669</ele><time>2026-05-04T12:52:51.002Z</time></trkpt><trkpt lat="43.17232073448255" lon="11.483662719071452"><ele>223.0</ele><time>2026-05-04T12:52:52.002Z</time></trkpt><trkpt lat="43.17225689789125" lon="11.483591607548563"><ele>222.33333333333334</ele><time>2026-05-04T12:52:53.002Z</time></trkpt><trkpt lat="43.17218112376517" lon="11.483509238835284"><ele>221.66666666666669</ele><time>2026-05-04T12:52:54.002Z</time></trkpt><trkpt lat="43.17209240080661" lon="11.4834483226384"><ele>221.0</ele><time>2026-05-04T12:52:55.002Z</time></trkpt><trkpt lat="43.17200806383205" lon="11.483352990121826"><ele>219.0</ele><time>2026-05-04T12:52:56.002Z</time></trkpt><trkpt lat="43.17191883520105" lon="11.483264341574158"><ele>217.00000000000003</ele><time>2026-05-04T12:52:57.002Z</time></trkpt><trkpt lat="43.171837788870334" lon="11.483182493171533"><ele>215.0</ele><time>2026-05-04T12:52:58.002Z</time></trkpt><trkpt lat="43.17177880885285" lon="11.483075860488132"><ele>213.0</ele><time>2026-05-04T12:52:59.002Z</time></trkpt><trkpt lat="43.17171829725794" lon="11.482962473375666"><ele>211.0</ele><time>2026-05-04T12:53:00.002Z</time></trkpt><trkpt lat="43.17165688127342" lon="11.482828737669163"><ele>211.0</ele><time>2026-05-04T12:53:01.002Z</time></trkpt><trkpt lat="43.17158543585932" lon="11.482707136901626"><ele>211.0</ele><time>2026-05-04T12:53:02.002Z</time></trkpt><trkpt lat="43.17153154566145" lon="11.482573901473991"><ele>211.0</ele><time>2026-05-04T12:53:03.002Z</time></trkpt><trkpt lat="43.17148156813595" lon="11.482466073050999"><ele>211.0</ele><time>2026-05-04T12:53:04.002Z</time></trkpt><trkpt lat="43.17144150733743" lon="11.48236443710375"><ele>211.0</ele><time>2026-05-04T12:53:05.002Z</time></trkpt><trkpt lat="43.17139712298841" lon="11.482269528549217"><ele>209.4</ele><time>2026-05-04T12:53:06.002Z</time></trkpt><trkpt lat="43.17135800393594" lon="11.482171484577563"><ele>207.8</ele><time>2026-05-04T12:53:07.002Z</time></trkpt><trkpt lat="43.17132300193844" lon="11.48203919400914"><ele>206.20000000000002</ele><time>2026-05-04T12:53:08.002Z</time></trkpt><trkpt lat="43.171296196745104" lon="11.48188147017295"><ele>204.60000000000002</ele><time>2026-05-04T12:53:09.002Z</time></trkpt><trkpt lat="43.17128638314378" lon="11.481705679149982"><ele>203.0</ele><time>2026-05-04T12:53:10.002Z</time></trkpt><trkpt lat="43.17124479640137" lon="11.481538660693532"><ele>203.0</ele><time>2026-05-04T12:53:11.002Z</time></trkpt><trkpt lat="43.17121714780632" lon="11.481371947475077"><ele>203.0</ele><time>2026-05-04T12:53:12.002Z</time></trkpt><trkpt lat="43.17118954860578" lon="11.481200379928397"><ele>203.0</ele><time>2026-05-04T12:53:13.002Z</time></trkpt><trkpt lat="43.17115628540754" lon="11.48102619372514"><ele>203.0</ele><time>2026-05-04T12:53:14.002Z</time></trkpt><trkpt lat="43.171123810760996" lon="11.480849492612888"><ele>203.0</ele><time>2026-05-04T12:53:15.002Z</time></trkpt><trkpt lat="43.171096701115836" lon="11.480678196473425"><ele>203.0</ele><time>2026-05-04T12:53:16.002Z</time></trkpt><trkpt lat="43.171064378475805" lon="11.480511457766294"><ele>203.0</ele><time>2026-05-04T12:53:17.003Z</time></trkpt><trkpt lat="43.171036425551506" lon="11.480349585564742"><ele>203.0</ele><time>2026-05-04T12:53:18.003Z</time></trkpt><trkpt lat="43.17098614276363" lon="11.48019261997337"><ele>203.2</ele><time>2026-05-04T12:53:19.003Z</time></trkpt><trkpt lat="43.17093506535564" lon="11.480031106678462"><ele>203.4</ele><time>2026-05-04T12:53:20.003Z</time></trkpt><trkpt lat="43.17087651325917" lon="11.479900701771841"><ele>203.6</ele><time>2026-05-04T12:53:21.003Z</time></trkpt><trkpt lat="43.17081042255616" lon="11.479795858644223"><ele>203.79999999999998</ele><time>2026-05-04T12:53:22.003Z</time></trkpt><trkpt lat="43.17072779077589" lon="11.479702037872183"><ele>204.0</ele><time>2026-05-04T12:53:23.003Z</time></trkpt><trkpt lat="43.170645599497966" lon="11.47961465618732"><ele>203.25</ele><time>2026-05-04T12:53:24.003Z</time></trkpt><trkpt lat="43.17053962007557" lon="11.479551980175057"><ele>202.5</ele><time>2026-05-04T12:53:25.003Z</time></trkpt><trkpt lat="43.17042564149927" lon="11.479503302589722"><ele>201.75</ele><time>2026-05-04T12:53:26.003Z</time></trkpt><trkpt lat="43.17030885093347" lon="11.479454461559206"><ele>201.0</ele><time>2026-05-04T12:53:27.003Z</time></trkpt><trkpt lat="43.17020806291465" lon="11.47941225995766"><ele>201.0</ele><time>2026-05-04T12:53:28.003Z</time></trkpt><trkpt lat="43.17010223207926" lon="11.479362192900453"><ele>201.0</ele><time>2026-05-04T12:53:29.003Z</time></trkpt><trkpt lat="43.16999899514299" lon="11.479327951674167"><ele>201.0</ele><time>2026-05-04T12:53:30.003Z</time></trkpt><trkpt lat="43.16992185903188" lon="11.47923517663639"><ele>201.0</ele><time>2026-05-04T12:53:31.003Z</time></trkpt><trkpt lat="43.16984181653974" lon="11.479143164819817"><ele>201.0</ele><time>2026-05-04T12:53:32.003Z</time></trkpt><trkpt lat="43.169766671855285" lon="11.479014628357287"><ele>199.75</ele><time>2026-05-04T12:53:33.003Z</time></trkpt><trkpt lat="43.16969079287117" lon="11.478866973520208"><ele>198.5</ele><time>2026-05-04T12:53:34.003Z</time></trkpt><trkpt lat="43.169600279845895" lon="11.478716296868546"><ele>197.25</ele><time>2026-05-04T12:53:35.003Z</time></trkpt><trkpt lat="43.169530169081526" lon="11.47855988860829"><ele>196.0</ele><time>2026-05-04T12:53:36.003Z</time></trkpt><trkpt lat="43.16946217038454" lon="11.478419688817892"><ele>196.0</ele><time>2026-05-04T12:53:37.003Z</time></trkpt><trkpt lat="43.16940111777194" lon="11.478272616824976"><ele>196.0</ele><time>2026-05-04T12:53:38.003Z</time></trkpt><trkpt lat="43.16930864458761" lon="11.478150133404021"><ele>196.0</ele><time>2026-05-04T12:53:39.003Z</time></trkpt><trkpt lat="43.16920571419115" lon="11.478060102912217"><ele>196.0</ele><time>2026-05-04T12:53:40.003Z</time></trkpt><trkpt lat="43.169087358712304" lon="11.477997953824051"><ele>196.0</ele><time>2026-05-04T12:53:41.003Z</time></trkpt><trkpt lat="43.1689571529579" lon="11.477957292889144"><ele>196.0</ele><time>2026-05-04T12:53:42.003Z</time></trkpt><trkpt lat="43.16881188784783" lon="11.477922501139055"><ele>196.0</ele><time>2026-05-04T12:53:43.003Z</time></trkpt><trkpt lat="43.16865627282088" lon="11.477890287293402"><ele>196.0</ele><time>2026-05-04T12:53:44.003Z</time></trkpt><trkpt lat="43.16850533020259" lon="11.477858184114496"><ele>196.0</ele><time>2026-05-04T12:53:45.003Z</time></trkpt><trkpt lat="43.16835516150313" lon="11.47782143640126"><ele>196.0</ele><time>2026-05-04T12:53:46.003Z</time></trkpt><trkpt lat="43.168222822353975" lon="11.477795668240258"><ele>196.0</ele><time>2026-05-04T12:53:47.003Z</time></trkpt><trkpt lat="43.168085921742936" lon="11.477808906640824"><ele>196.0</ele><time>2026-05-04T12:53:48.003Z</time></trkpt><trkpt lat="43.16795078773599" lon="11.477811804934431"><ele>195.5</ele><time>2026-05-04T12:53:49.003Z</time></trkpt><trkpt lat="43.16780911384592" lon="11.477817187142037"><ele>195.0</ele><time>2026-05-04T12:53:50.004Z</time></trkpt><trkpt lat="43.16766218448858" lon="11.477815726156312"><ele>194.5</ele><time>2026-05-04T12:53:51.004Z</time></trkpt><trkpt lat="43.167510665267336" lon="11.47781040850736"><ele>194.0</ele><time>2026-05-04T12:53:52.004Z</time></trkpt><trkpt lat="43.167369876015194" lon="11.477799294644038"><ele>193.75</ele><time>2026-05-04T12:53:53.004Z</time></trkpt><trkpt lat="43.167239809425055" lon="11.477776341079224"><ele>193.5</ele><time>2026-05-04T12:53:54.004Z</time></trkpt><trkpt lat="43.167129301615915" lon="11.477706166552199"><ele>193.25</ele><time>2026-05-04T12:53:55.004Z</time></trkpt><trkpt lat="43.167030174582244" lon="11.477622997503188"><ele>193.0</ele><time>2026-05-04T12:53:56.004Z</time></trkpt><trkpt lat="43.16692825016492" lon="11.47752111849721"><ele>193.0</ele><time>2026-05-04T12:53:57.004Z</time></trkpt><trkpt lat="43.16682415959639" lon="11.477409013456588"><ele>193.0</ele><time>2026-05-04T12:53:58.004Z</time></trkpt><trkpt lat="43.16671210112488" lon="11.47730563559886"><ele>193.0</ele><time>2026-05-04T12:53:59Z</time></trkpt><trkpt lat="43.166603473620896" lon="11.477188536232047"><ele>193.0</ele><time>2026-05-04T12:53:59.999Z</time></trkpt><trkpt lat="43.1664909467463" lon="11.477078325019894"><ele>192.5</ele><time>2026-05-04T12:54:01Z</time></trkpt><trkpt lat="43.166359102335846" lon="11.476983043362011"><ele>192.0</ele><time>2026-05-04T12:54:02Z</time></trkpt><trkpt lat="43.16624064595322" lon="11.476902707199624"><ele>191.5</ele><time>2026-05-04T12:54:03Z</time></trkpt><trkpt lat="43.16611956791812" lon="11.476822795852145"><ele>191.0</ele><time>2026-05-04T12:54:04Z</time></trkpt><trkpt lat="43.16601993960467" lon="11.476731322540513"><ele>191.0</ele><time>2026-05-04T12:54:05Z</time></trkpt><trkpt lat="43.1659079967189" lon="11.476680169737163"><ele>191.0</ele><time>2026-05-04T12:54:06Z</time></trkpt><trkpt lat="43.16579948718033" lon="11.476600957879988"><ele>191.0</ele><time>2026-05-04T12:54:07Z</time></trkpt><trkpt lat="43.165692415565715" lon="11.47653735368454"><ele>191.0</ele><time>2026-05-04T12:54:08Z</time></trkpt><trkpt lat="43.16560601948342" lon="11.476480515888602"><ele>190.20000000000002</ele><time>2026-05-04T12:54:09Z</time></trkpt><trkpt lat="43.16552371173378" lon="11.476419260932815"><ele>189.4</ele><time>2026-05-04T12:54:10Z</time></trkpt><trkpt lat="43.16544487208648" lon="11.476362466542106"><ele>188.6</ele><time>2026-05-04T12:54:11Z</time></trkpt><trkpt lat="43.16538273005637" lon="11.47631886118875"><ele>187.8</ele><time>2026-05-04T12:54:12Z</time></trkpt><trkpt lat="43.165274372759974" lon="11.476283877340808"><ele>187.0</ele><time>2026-05-04T12:54:14Z</time></trkpt><trkpt lat="43.16512783592424" lon="11.476256137881697"><ele>187.0</ele><time>2026-05-04T12:54:16Z</time></trkpt><trkpt lat="43.165026367467796" lon="11.476225368193877"><ele>187.0</ele><time>2026-05-04T12:54:17Z</time></trkpt><trkpt lat="43.164910857058864" lon="11.47618103004716"><ele>187.0</ele><time>2026-05-04T12:54:18Z</time></trkpt><trkpt lat="43.164787798402735" lon="11.476136654267206"><ele>187.0</ele><time>2026-05-04T12:54:19Z</time></trkpt><trkpt lat="43.164654340865845" lon="11.476091831580762"><ele>187.0</ele><time>2026-05-04T12:54:20Z</time></trkpt><trkpt lat="43.164518898192476" lon="11.476038940404704"><ele>187.0</ele><time>2026-05-04T12:54:21Z</time></trkpt><trkpt lat="43.164388264148414" lon="11.475955486378442"><ele>187.0</ele><time>2026-05-04T12:54:22Z</time></trkpt><trkpt lat="43.16425209543276" lon="11.475880735788458"><ele>187.0</ele><time>2026-05-04T12:54:23Z</time></trkpt><trkpt lat="43.16411367022568" lon="11.475803050982412"><ele>187.0</ele><time>2026-05-04T12:54:24.001Z</time></trkpt><trkpt lat="43.16399000181177" lon="11.475752296105616"><ele>187.0</ele><time>2026-05-04T12:54:25.001Z</time></trkpt><trkpt lat="43.16389254580269" lon="11.475696798742351"><ele>187.0</ele><time>2026-05-04T12:54:26.001Z</time></trkpt><trkpt lat="43.16381017055564" lon="11.475654737340207"><ele>187.0</ele><time>2026-05-04T12:54:27.001Z</time></trkpt><trkpt lat="43.16373475795836" lon="11.475605591982722"><ele>187.0</ele><time>2026-05-04T12:54:28.001Z</time></trkpt><trkpt lat="43.16365915620832" lon="11.475583937855978"><ele>187.0</ele><time>2026-05-04T12:54:29.001Z</time></trkpt><trkpt lat="43.1635896571988" lon="11.475557450225992"><ele>187.0</ele><time>2026-05-04T12:54:30.001Z</time></trkpt><trkpt lat="43.16352821901567" lon="11.475532635903294"><ele>187.0</ele><time>2026-05-04T12:54:31.001Z</time></trkpt><trkpt lat="43.16342089895095" lon="11.475482322412915"><ele>187.0</ele><time>2026-05-04T12:54:33.001Z</time></trkpt><trkpt lat="43.16336162630995" lon="11.475431345830293"><ele>187.0</ele><time>2026-05-04T12:54:34.001Z</time></trkpt><trkpt lat="43.16326725871071" lon="11.475401779727656"><ele>187.0</ele><time>2026-05-04T12:54:35.001Z</time></trkpt><trkpt lat="43.16317055070911" lon="11.475347094724892"><ele>187.6</ele><time>2026-05-04T12:54:36.001Z</time></trkpt><trkpt lat="43.16306291247844" lon="11.475290361574016"><ele>188.2</ele><time>2026-05-04T12:54:37.001Z</time></trkpt><trkpt lat="43.16295292521079" lon="11.475229009190814"><ele>188.8</ele><time>2026-05-04T12:54:38.001Z</time></trkpt><trkpt lat="43.16285095514164" lon="11.475170878953953"><ele>189.4</ele><time>2026-05-04T12:54:39.001Z</time></trkpt><trkpt lat="43.162759451619536" lon="11.475111727917394"><ele>190.0</ele><time>2026-05-04T12:54:40.001Z</time></trkpt><trkpt lat="43.162683175552296" lon="11.4750533070599"><ele>190.0</ele><time>2026-05-04T12:54:41.001Z</time></trkpt><trkpt lat="43.16260297042231" lon="11.475005343928837"><ele>190.0</ele><time>2026-05-04T12:54:42.001Z</time></trkpt><trkpt lat="43.162516025288205" lon="11.474984244991745"><ele>190.0</ele><time>2026-05-04T12:54:43.001Z</time></trkpt><trkpt lat="43.1624254449667" lon="11.474973594475237"><ele>190.0</ele><time>2026-05-04T12:54:44.001Z</time></trkpt><trkpt lat="43.16233554039956" lon="11.47495756952214"><ele>190.0</ele><time>2026-05-04T12:54:45.001Z</time></trkpt><trkpt lat="43.1622423430988" lon="11.474932154491123"><ele>188.6</ele><time>2026-05-04T12:54:46.001Z</time></trkpt><trkpt lat="43.1621513224856" lon="11.4748856393545"><ele>187.2</ele><time>2026-05-04T12:54:47.001Z</time></trkpt><trkpt lat="43.16206994950272" lon="11.47481483391053"><ele>185.8</ele><time>2026-05-04T12:54:48.001Z</time></trkpt><trkpt lat="43.162004555543774" lon="11.474718013915089"><ele>184.4</ele><time>2026-05-04T12:54:49.001Z</time></trkpt><trkpt lat="43.16195414793775" lon="11.474605521488225"><ele>183.0</ele><time>2026-05-04T12:54:50.002Z</time></trkpt><trkpt lat="43.16192364583178" lon="11.474482404552917"><ele>183.0</ele><time>2026-05-04T12:54:51.002Z</time></trkpt><trkpt lat="43.161913022861086" lon="11.47434813437813"><ele>183.0</ele><time>2026-05-04T12:54:52.002Z</time></trkpt><trkpt lat="43.16191486896242" lon="11.474206277997272"><ele>183.0</ele><time>2026-05-04T12:54:53.002Z</time></trkpt><trkpt lat="43.16192195255867" lon="11.474064026835578"><ele>183.0</ele><time>2026-05-04T12:54:54.002Z</time></trkpt><trkpt lat="43.16191810387855" lon="11.473933219579916"><ele>183.0</ele><time>2026-05-04T12:54:55.002Z</time></trkpt><trkpt lat="43.16188925480853" lon="11.473809452386684"><ele>182.16666666666666</ele><time>2026-05-04T12:54:56.002Z</time></trkpt><trkpt lat="43.161849970186154" lon="11.473698165231928"><ele>181.33333333333334</ele><time>2026-05-04T12:54:57.002Z</time></trkpt><trkpt lat="43.16181412104768" lon="11.473588242492154"><ele>180.5</ele><time>2026-05-04T12:54:58.002Z</time></trkpt><trkpt lat="43.16180128364759" lon="11.473491858385499"><ele>179.66666666666669</ele><time>2026-05-04T12:54:59.002Z</time></trkpt><trkpt lat="43.161806098775116" lon="11.473383306602878"><ele>178.83333333333334</ele><time>2026-05-04T12:55:00.002Z</time></trkpt><trkpt lat="43.16180114593131" lon="11.47329135862388"><ele>178.0</ele><time>2026-05-04T12:55:01.002Z</time></trkpt><trkpt lat="43.161729912354026" lon="11.47308855141061"><ele>178.0</ele><time>2026-05-04T12:55:03.002Z</time></trkpt><trkpt lat="43.16169350128095" lon="11.472979246294049"><ele>178.0</ele><time>2026-05-04T12:55:04.002Z</time></trkpt><trkpt lat="43.161662869194494" lon="11.472856049010726"><ele>178.0</ele><time>2026-05-04T12:55:05.002Z</time></trkpt><trkpt lat="43.161635738316136" lon="11.472713325563285"><ele>178.0</ele><time>2026-05-04T12:55:06.002Z</time></trkpt><trkpt lat="43.161612404893106" lon="11.472570293329243"><ele>178.0</ele><time>2026-05-04T12:55:07.002Z</time></trkpt><trkpt lat="43.16158871160315" lon="11.472424030283992"><ele>176.8</ele><time>2026-05-04T12:55:08.002Z</time></trkpt><trkpt lat="43.16156392705356" lon="11.472276492373908"><ele>175.60000000000002</ele><time>2026-05-04T12:55:09.002Z</time></trkpt><trkpt lat="43.16153929367476" lon="11.472129854555316"><ele>174.39999999999998</ele><time>2026-05-04T12:55:10.002Z</time></trkpt><trkpt lat="43.161514047938226" lon="11.471979571765866"><ele>173.2</ele><time>2026-05-04T12:55:11.002Z</time></trkpt><trkpt lat="43.16148793102633" lon="11.471828804561973"><ele>172.0</ele><time>2026-05-04T12:55:12.002Z</time></trkpt><trkpt lat="43.16144626975183" lon="11.471685085504255"><ele>169.6</ele><time>2026-05-04T12:55:13.002Z</time></trkpt><trkpt lat="43.161421736696674" lon="11.47153497752929"><ele>167.2</ele><time>2026-05-04T12:55:14.002Z</time></trkpt><trkpt lat="43.16141068668453" lon="11.471394075407641"><ele>164.8</ele><time>2026-05-04T12:55:15.002Z</time></trkpt><trkpt lat="43.16137746207342" lon="11.471291051196102"><ele>162.4</ele><time>2026-05-04T12:55:16.002Z</time></trkpt><trkpt lat="43.16136064301846" lon="11.47118296390941"><ele>160.0</ele><time>2026-05-04T12:55:17.002Z</time></trkpt><trkpt lat="43.16134551377951" lon="11.471083511650525"><ele>160.0</ele><time>2026-05-04T12:55:18.002Z</time></trkpt><trkpt lat="43.161335102791526" lon="11.470949768818159"><ele>160.0</ele><time>2026-05-04T12:55:20.002Z</time></trkpt><trkpt lat="43.161348076941195" lon="11.47085730370997"><ele>160.0</ele><time>2026-05-04T12:55:29.003Z</time></trkpt><trkpt lat="43.16144742689357" lon="11.47084295385408"><ele>160.0</ele><time>2026-05-04T12:55:31.003Z</time></trkpt><trkpt lat="43.16154806023381" lon="11.470835852921518"><ele>160.0</ele><time>2026-05-04T12:55:33.003Z</time></trkpt><trkpt lat="43.16160774674598" lon="11.470755424907612"><ele>162.16666666666669</ele><time>2026-05-04T12:55:36.003Z</time></trkpt><trkpt lat="43.16158672171746" lon="11.47062940532747"><ele>164.33333333333334</ele><time>2026-05-04T12:55:38.003Z</time></trkpt><trkpt lat="43.161582831645006" lon="11.470537973252647"><ele>166.5</ele><time>2026-05-04T12:55:39.003Z</time></trkpt><trkpt lat="43.1615659603601" lon="11.47044128983444"><ele>168.66666666666666</ele><time>2026-05-04T12:55:40.003Z</time></trkpt><trkpt lat="43.16153357954186" lon="11.470357081294937"><ele>170.83333333333331</ele><time>2026-05-04T12:55:41.003Z</time></trkpt><trkpt lat="43.1615406707429" lon="11.470241911912298"><ele>173.0</ele><time>2026-05-04T12:55:43.003Z</time></trkpt><trkpt lat="43.16154863306299" lon="11.47036190481445"><ele>173.0</ele><time>2026-05-04T12:55:53.003Z</time></trkpt><trkpt lat="43.16155047186425" lon="11.470240204882499"><ele>173.0</ele><time>2026-05-04T12:55:54.003Z</time></trkpt><trkpt lat="43.1615655456551" lon="11.470494132626184"><ele>173.0</ele><time>2026-05-04T12:55:55.004Z</time></trkpt><trkpt lat="43.16158502760117" lon="11.470623641966629"><ele>173.0</ele><time>2026-05-04T12:55:57.004Z</time></trkpt><trkpt lat="43.16160614072433" lon="11.47073250442887"><ele>173.0</ele><time>2026-05-04T12:55:59.004Z</time></trkpt><trkpt lat="43.16156541894387" lon="11.470844236032852"><ele>173.0</ele><time>2026-05-04T12:56:02.004Z</time></trkpt><trkpt lat="43.16147168561233" lon="11.470842551943381"><ele>173.0</ele><time>2026-05-04T12:56:04.004Z</time></trkpt><trkpt lat="43.16137434925588" lon="11.470859862829556"><ele>173.0</ele><time>2026-05-04T12:56:05.999Z</time></trkpt><trkpt lat="43.16131291720232" lon="11.470907712031767"><ele>173.0</ele><time>2026-05-04T12:56:07.999Z</time></trkpt><trkpt lat="43.161310215987434" lon="11.470998966139058"><ele>173.0</ele><time>2026-05-04T12:56:09.999Z</time></trkpt><trkpt lat="43.161339938303215" lon="11.471165258275333"><ele>169.6</ele><time>2026-05-04T12:56:11.999Z</time></trkpt><trkpt lat="43.161364435679445" lon="11.471281808700073"><ele>166.20000000000002</ele><time>2026-05-04T12:56:13Z</time></trkpt><trkpt lat="43.16139235952025" lon="11.471415818958508"><ele>162.8</ele><time>2026-05-04T12:56:14Z</time></trkpt><trkpt lat="43.16141429573447" lon="11.471558626610767"><ele>159.4</ele><time>2026-05-04T12:56:15Z</time></trkpt><trkpt lat="43.16143429137921" lon="11.471702659816206"><ele>156.0</ele><time>2026-05-04T12:56:16Z</time></trkpt><trkpt lat="43.16145826850888" lon="11.471850407719959"><ele>156.0</ele><time>2026-05-04T12:56:17Z</time></trkpt><trkpt lat="43.16148576008446" lon="11.471993508576517"><ele>156.0</ele><time>2026-05-04T12:56:18Z</time></trkpt><trkpt lat="43.16151664957597" lon="11.472147422078558"><ele>156.0</ele><time>2026-05-04T12:56:19Z</time></trkpt><trkpt lat="43.16154603218312" lon="11.472300897083302"><ele>156.0</ele><time>2026-05-04T12:56:20Z</time></trkpt><trkpt lat="43.161575034202464" lon="11.472458882004378"><ele>159.2</ele><time>2026-05-04T12:56:21Z</time></trkpt><trkpt lat="43.161586636520624" lon="11.472621978112379"><ele>162.39999999999998</ele><time>2026-05-04T12:56:22Z</time></trkpt><trkpt lat="43.16162793657342" lon="11.472774837299346"><ele>165.6</ele><time>2026-05-04T12:56:23Z</time></trkpt><trkpt lat="43.16165143102491" lon="11.472907360123394"><ele>168.79999999999998</ele><time>2026-05-04T12:56:24Z</time></trkpt><trkpt lat="43.16167269356592" lon="11.473012891444343"><ele>172.0</ele><time>2026-05-04T12:56:25Z</time></trkpt><trkpt lat="43.16170959413628" lon="11.47313389017838"><ele>172.0</ele><time>2026-05-04T12:56:27Z</time></trkpt><trkpt lat="43.16175547561458" lon="11.473199985748675"><ele>172.0</ele><time>2026-05-04T12:56:29Z</time></trkpt><trkpt lat="43.16188414399648" lon="11.47306968577493"><ele>172.0</ele><time>2026-05-04T12:56:30.001Z</time></trkpt><trkpt lat="43.161930174765" lon="11.472993687628794"><ele>172.0</ele><time>2026-05-04T12:56:31.001Z</time></trkpt><trkpt lat="43.16197978192714" lon="11.472880089978917"><ele>172.0</ele><time>2026-05-04T12:56:32.001Z</time></trkpt><trkpt lat="43.162054569481526" lon="11.472709373389547"><ele>172.0</ele><time>2026-05-04T12:56:33.001Z</time></trkpt><trkpt lat="43.162138138328196" lon="11.47252966341559"><ele>172.0</ele><time>2026-05-04T12:56:34.001Z</time></trkpt><trkpt lat="43.1622200825844" lon="11.472352253913837"><ele>172.0</ele><time>2026-05-04T12:56:35.001Z</time></trkpt><trkpt lat="43.16230728476652" lon="11.472181881109776"><ele>170.75</ele><time>2026-05-04T12:56:36.001Z</time></trkpt><trkpt lat="43.162381356838054" lon="11.472029557934668"><ele>169.5</ele><time>2026-05-04T12:56:37.001Z</time></trkpt><trkpt lat="43.16245050255683" lon="11.471886870804754"><ele>168.25</ele><time>2026-05-04T12:56:38.001Z</time></trkpt><trkpt lat="43.162508139339195" lon="11.471756699558357"><ele>167.0</ele><time>2026-05-04T12:56:39.001Z</time></trkpt><trkpt lat="43.16255301859303" lon="11.471629442889363"><ele>167.0</ele><time>2026-05-04T12:56:40.001Z</time></trkpt><trkpt lat="43.16259072812736" lon="11.471491889013427"><ele>167.0</ele><time>2026-05-04T12:56:41.001Z</time></trkpt><trkpt lat="43.16261023513555" lon="11.471333634496407"><ele>167.0</ele><time>2026-05-04T12:56:42.001Z</time></trkpt><trkpt lat="43.1626210039055" lon="11.471159721778008"><ele>167.0</ele><time>2026-05-04T12:56:43.001Z</time></trkpt><trkpt lat="43.16262699760775" lon="11.470975277528662"><ele>165.75</ele><time>2026-05-04T12:56:44.001Z</time></trkpt><trkpt lat="43.16263112005843" lon="11.470792065965528"><ele>164.5</ele><time>2026-05-04T12:56:45.001Z</time></trkpt><trkpt lat="43.16263929165797" lon="11.470610459671393"><ele>163.25</ele><time>2026-05-04T12:56:46.001Z</time></trkpt><trkpt lat="43.16265280480866" lon="11.470429706730043"><ele>162.0</ele><time>2026-05-04T12:56:47.001Z</time></trkpt><trkpt lat="43.16266516323384" lon="11.470243403503824"><ele>160.75</ele><time>2026-05-04T12:56:48.001Z</time></trkpt><trkpt lat="43.16268443831299" lon="11.470073457066015"><ele>159.5</ele><time>2026-05-04T12:56:49.001Z</time></trkpt><trkpt lat="43.16271765533152" lon="11.469923407570041"><ele>158.25</ele><time>2026-05-04T12:56:50.001Z</time></trkpt><trkpt lat="43.16276790400989" lon="11.469777716931162"><ele>157.0</ele><time>2026-05-04T12:56:51.001Z</time></trkpt><trkpt lat="43.162835817056" lon="11.46964696900725"><ele>156.0</ele><time>2026-05-04T12:56:52.001Z</time></trkpt><trkpt lat="43.1629212526029" lon="11.469533281106719"><ele>155.0</ele><time>2026-05-04T12:56:53.001Z</time></trkpt><trkpt lat="43.163023421678794" lon="11.469429784430078"><ele>154.0</ele><time>2026-05-04T12:56:54.002Z</time></trkpt><trkpt lat="43.1631356371251" lon="11.46933296635966"><ele>153.0</ele><time>2026-05-04T12:56:55.002Z</time></trkpt><trkpt lat="43.163262321942" lon="11.469243899240844"><ele>153.0</ele><time>2026-05-04T12:56:56.002Z</time></trkpt><trkpt lat="43.163383463339926" lon="11.46918582559799"><ele>153.0</ele><time>2026-05-04T12:56:57.002Z</time></trkpt><trkpt lat="43.16350522252168" lon="11.469153038180488"><ele>153.0</ele><time>2026-05-04T12:56:58.002Z</time></trkpt><trkpt lat="43.16363200876167" lon="11.469124018852732"><ele>153.0</ele><time>2026-05-04T12:56:59.002Z</time></trkpt><trkpt lat="43.163745957500446" lon="11.469099202478718"><ele>153.0</ele><time>2026-05-04T12:57:00.002Z</time></trkpt><trkpt lat="43.163846151365995" lon="11.469074339688508"><ele>153.0</ele><time>2026-05-04T12:57:01.002Z</time></trkpt><trkpt lat="43.16394030167831" lon="11.469043293228102"><ele>153.0</ele><time>2026-05-04T12:57:02.002Z</time></trkpt><trkpt lat="43.16401416703801" lon="11.468984828245157"><ele>153.0</ele><time>2026-05-04T12:57:03.002Z</time></trkpt><trkpt lat="43.16407518787189" lon="11.46889510071135"><ele>153.0</ele><time>2026-05-04T12:57:04.002Z</time></trkpt><trkpt lat="43.16410927852614" lon="11.468781774350282"><ele>152.20000000000002</ele><time>2026-05-04T12:57:05.002Z</time></trkpt><trkpt lat="43.16413949578295" lon="11.468657635394761"><ele>151.4</ele><time>2026-05-04T12:57:06.002Z</time></trkpt><trkpt lat="43.16411019888927" lon="11.468524952538248"><ele>150.60000000000002</ele><time>2026-05-04T12:57:07.002Z</time></trkpt><trkpt lat="43.1640787692653" lon="11.468398698691475"><ele>149.8</ele><time>2026-05-04T12:57:08.002Z</time></trkpt><trkpt lat="43.164030310383254" lon="11.468262747103275"><ele>149.0</ele><time>2026-05-04T12:57:09.002Z</time></trkpt><trkpt lat="43.16397396610034" lon="11.468100289944351"><ele>148.4</ele><time>2026-05-04T12:57:10.002Z</time></trkpt><trkpt lat="43.16393419194515" lon="11.467957525267549"><ele>147.8</ele><time>2026-05-04T12:57:11.002Z</time></trkpt><trkpt lat="43.16389755001177" lon="11.467851750239173"><ele>147.2</ele><time>2026-05-04T12:57:12.002Z</time></trkpt><trkpt lat="43.16387629701196" lon="11.467766670431644"><ele>146.6</ele><time>2026-05-04T12:57:13.002Z</time></trkpt><trkpt lat="43.16383305480206" lon="11.467685103188161"><ele>146.0</ele><time>2026-05-04T12:57:15.001Z</time></trkpt><trkpt lat="43.16371849347203" lon="11.467710686600649"><ele>146.0</ele><time>2026-05-04T12:57:17.001Z</time></trkpt><trkpt lat="43.16362944016171" lon="11.467774299350923"><ele>146.0</ele><time>2026-05-04T12:57:18.001Z</time></trkpt><trkpt lat="43.163526458796326" lon="11.467853283544388"><ele>146.0</ele><time>2026-05-04T12:57:19.001Z</time></trkpt><trkpt lat="43.16340965350382" lon="11.467938576641737"><ele>146.0</ele><time>2026-05-04T12:57:20.001Z</time></trkpt><trkpt lat="43.163280013270985" lon="11.468028280257252"><ele>146.66666666666666</ele><time>2026-05-04T12:57:21.001Z</time></trkpt><trkpt lat="43.16313770311535" lon="11.468126327323631"><ele>147.33333333333334</ele><time>2026-05-04T12:57:22.001Z</time></trkpt><trkpt lat="43.16298255940013" lon="11.4682261218973"><ele>148.0</ele><time>2026-05-04T12:57:23.001Z</time></trkpt><trkpt lat="43.162825644560776" lon="11.468312680661771"><ele>148.0</ele><time>2026-05-04T12:57:24.001Z</time></trkpt><trkpt lat="43.162643916490616" lon="11.46837655396393"><ele>148.0</ele><time>2026-05-04T12:57:25.002Z</time></trkpt><trkpt lat="43.16245552919825" lon="11.46841577877215"><ele>148.0</ele><time>2026-05-04T12:57:26.002Z</time></trkpt><trkpt lat="43.1622576618736" lon="11.468443894175756"><ele>149.0</ele><time>2026-05-04T12:57:27.002Z</time></trkpt><trkpt lat="43.162054046085395" lon="11.468469207570845"><ele>150.0</ele><time>2026-05-04T12:57:28.002Z</time></trkpt><trkpt lat="43.1618494842056" lon="11.468502848791577"><ele>151.0</ele><time>2026-05-04T12:57:29.002Z</time></trkpt><trkpt lat="43.16164061874118" lon="11.468540781202504"><ele>150.33333333333334</ele><time>2026-05-04T12:57:30.002Z</time></trkpt><trkpt lat="43.1614353450797" lon="11.468581185449494"><ele>149.66666666666666</ele><time>2026-05-04T12:57:31.002Z</time></trkpt><trkpt lat="43.16123592431373" lon="11.468622983931779"><ele>149.0</ele><time>2026-05-04T12:57:32.002Z</time></trkpt><trkpt lat="43.16104169869493" lon="11.468668615075114"><ele>149.0</ele><time>2026-05-04T12:57:33.002Z</time></trkpt><trkpt lat="43.160861858583594" lon="11.46872155986077"><ele>149.0</ele><time>2026-05-04T12:57:34.002Z</time></trkpt><trkpt lat="43.16068207269606" lon="11.468803086371402"><ele>149.0</ele><time>2026-05-04T12:57:35.002Z</time></trkpt><trkpt lat="43.16050750247282" lon="11.46892315484057"><ele>148.0</ele><time>2026-05-04T12:57:36.002Z</time></trkpt><trkpt lat="43.160336618260736" lon="11.469076040278535"><ele>147.0</ele><time>2026-05-04T12:57:37.002Z</time></trkpt><trkpt lat="43.16016726648181" lon="11.46925063180916"><ele>146.0</ele><time>2026-05-04T12:57:38.002Z</time></trkpt><trkpt lat="43.15999472996652" lon="11.469426807951814"><ele>146.33333333333331</ele><time>2026-05-04T12:57:39.002Z</time></trkpt><trkpt lat="43.15982110056998" lon="11.469598309418833"><ele>146.66666666666666</ele><time>2026-05-04T12:57:40.002Z</time></trkpt><trkpt lat="43.15963678989984" lon="11.469763894055562"><ele>147.0</ele><time>2026-05-04T12:57:41.002Z</time></trkpt><trkpt lat="43.15944956786803" lon="11.46993507613136"><ele>147.0</ele><time>2026-05-04T12:57:42.002Z</time></trkpt><trkpt lat="43.15926491968161" lon="11.470114511055998"><ele>147.0</ele><time>2026-05-04T12:57:43.002Z</time></trkpt><trkpt lat="43.15909048136274" lon="11.47028077820058"><ele>147.0</ele><time>2026-05-04T12:57:44.002Z</time></trkpt><trkpt lat="43.158931629297086" lon="11.470424365002886"><ele>147.0</ele><time>2026-05-04T12:57:45.002Z</time></trkpt><trkpt lat="43.15879488773827" lon="11.470538444196093"><ele>147.0</ele><time>2026-05-04T12:57:46.002Z</time></trkpt><trkpt lat="43.15868943207743" lon="11.470594985358858"><ele>147.0</ele><time>2026-05-04T12:57:47.002Z</time></trkpt><trkpt lat="43.15863347590146" lon="11.470638752874251"><ele>147.0</ele><time>2026-05-04T12:57:48.002Z</time></trkpt><trkpt lat="43.15864079192801" lon="11.470797903309155"><ele>147.0</ele><time>2026-05-04T12:57:50.002Z</time></trkpt><trkpt lat="43.158633991357135" lon="11.470992599614082"><ele>147.0</ele><time>2026-05-04T12:57:52.002Z</time></trkpt><trkpt lat="43.158621926128724" lon="11.471160851078993"><ele>147.0</ele><time>2026-05-04T12:57:53.002Z</time></trkpt><trkpt lat="43.158625400832136" lon="11.471349982064611"><ele>147.0</ele><time>2026-05-04T12:57:54.002Z</time></trkpt><trkpt lat="43.15861032528778" lon="11.471552457389544"><ele>148.25</ele><time>2026-05-04T12:57:55.002Z</time></trkpt><trkpt lat="43.15859561802116" lon="11.471754771052588"><ele>149.5</ele><time>2026-05-04T12:57:56.002Z</time></trkpt><trkpt lat="43.1585808395599" lon="11.471948345671228"><ele>150.75</ele><time>2026-05-04T12:57:57.002Z</time></trkpt><trkpt lat="43.1585724092604" lon="11.472097690094893"><ele>152.0</ele><time>2026-05-04T12:57:58.003Z</time></trkpt><trkpt lat="43.15854443714282" lon="11.472211978330291"><ele>153.5</ele><time>2026-05-04T12:57:59.003Z</time></trkpt><trkpt lat="43.15852304683074" lon="11.472303612344886"><ele>155.0</ele><time>2026-05-04T12:58:00.003Z</time></trkpt><trkpt lat="43.158469548627075" lon="11.47245579308286"><ele>156.5</ele><time>2026-05-04T12:58:02.003Z</time></trkpt><trkpt lat="43.158425352138146" lon="11.472528943687507"><ele>158.0</ele><time>2026-05-04T12:58:03.003Z</time></trkpt><trkpt lat="43.15837666935038" lon="11.47261940299044"><ele>159.5</ele><time>2026-05-04T12:58:04.003Z</time></trkpt><trkpt lat="43.158320958784024" lon="11.472702826178539"><ele>161.0</ele><time>2026-05-04T12:58:05.003Z</time></trkpt><trkpt lat="43.15824568091558" lon="11.472789699248677"><ele>160.25</ele><time>2026-05-04T12:58:06.003Z</time></trkpt><trkpt lat="43.1581548834511" lon="11.472878633585376"><ele>159.5</ele><time>2026-05-04T12:58:07.003Z</time></trkpt><trkpt lat="43.15805542773667" lon="11.472965725855271"><ele>158.75</ele><time>2026-05-04T12:58:08.003Z</time></trkpt><trkpt lat="43.15794544510731" lon="11.473053277568155"><ele>158.0</ele><time>2026-05-04T12:58:09.003Z</time></trkpt><trkpt lat="43.15782821053684" lon="11.473136687499505"><ele>161.4</ele><time>2026-05-04T12:58:09.999Z</time></trkpt><trkpt lat="43.15771666192854" lon="11.47321481252304"><ele>164.8</ele><time>2026-05-04T12:58:10.999Z</time></trkpt><trkpt lat="43.157616077240505" lon="11.473286442882996"><ele>168.2</ele><time>2026-05-04T12:58:11.999Z</time></trkpt><trkpt lat="43.15753620366252" lon="11.473367863708967"><ele>171.6</ele><time>2026-05-04T12:58:12.999Z</time></trkpt><trkpt lat="43.15746646086426" lon="11.473416631918312"><ele>175.0</ele><time>2026-05-04T12:58:13.999Z</time></trkpt><trkpt lat="43.15740945016442" lon="11.473470920692387"><ele>175.0</ele><time>2026-05-04T12:58:14.999Z</time></trkpt><trkpt lat="43.15736523878842" lon="11.473533865200217"><ele>175.0</ele><time>2026-05-04T12:58:15.999Z</time></trkpt><trkpt lat="43.157385125678644" lon="11.473677204084396"><ele>175.0</ele><time>2026-05-04T12:58:17.999Z</time></trkpt><trkpt lat="43.157461270199825" lon="11.473815252391635"><ele>175.0</ele><time>2026-05-04T12:58:19.999Z</time></trkpt><trkpt lat="43.157508257798874" lon="11.473911950674799"><ele>175.0</ele><time>2026-05-04T12:58:20.999Z</time></trkpt><trkpt lat="43.157547664381624" lon="11.474018068821442"><ele>177.2</ele><time>2026-05-04T12:58:21.999Z</time></trkpt><trkpt lat="43.157583922433496" lon="11.474143863272163"><ele>179.4</ele><time>2026-05-04T12:58:23.999Z</time></trkpt><trkpt lat="43.157528549041345" lon="11.474228938812233"><ele>181.60000000000002</ele><time>2026-05-04T12:58:25.999Z</time></trkpt><trkpt lat="43.15749462578316" lon="11.474328164861081"><ele>183.8</ele><time>2026-05-04T12:58:28Z</time></trkpt><trkpt lat="43.15740848923002" lon="11.474392435448868"><ele>186.0</ele><time>2026-05-04T12:58:30Z</time></trkpt><trkpt lat="43.157285217456405" lon="11.474503786642325"><ele>186.25</ele><time>2026-05-04T12:58:32Z</time></trkpt><trkpt lat="43.15716829601412" lon="11.474572655886513"><ele>186.5</ele><time>2026-05-04T12:58:33Z</time></trkpt><trkpt lat="43.157036605014625" lon="11.474626536892025"><ele>186.75</ele><time>2026-05-04T12:58:34Z</time></trkpt><trkpt lat="43.15690375461608" lon="11.474678516227698"><ele>187.0</ele><time>2026-05-04T12:58:35Z</time></trkpt><trkpt lat="43.1567610723858" lon="11.47473898597794"><ele>187.0</ele><time>2026-05-04T12:58:36Z</time></trkpt><trkpt lat="43.156614268839085" lon="11.474801745820773"><ele>187.0</ele><time>2026-05-04T12:58:37Z</time></trkpt><trkpt lat="43.156460650966395" lon="11.474866776992648"><ele>187.0</ele><time>2026-05-04T12:58:38Z</time></trkpt><trkpt lat="43.15635399742039" lon="11.474894791982054"><ele>187.0</ele><time>2026-05-04T12:58:39Z</time></trkpt><trkpt lat="43.15629231073455" lon="11.474918439037877"><ele>187.8</ele><time>2026-05-04T12:58:40Z</time></trkpt><trkpt lat="43.15619607634349" lon="11.474979281550437"><ele>188.6</ele><time>2026-05-04T12:58:42Z</time></trkpt><trkpt lat="43.15610420771065" lon="11.47506115058438"><ele>189.4</ele><time>2026-05-04T12:58:43Z</time></trkpt><trkpt lat="43.156013595208755" lon="11.47513296739558"><ele>190.20000000000002</ele><time>2026-05-04T12:58:44Z</time></trkpt><trkpt lat="43.155892244868696" lon="11.475178800956886"><ele>191.0</ele><time>2026-05-04T12:58:45Z</time></trkpt><trkpt lat="43.155745126298534" lon="11.475218941911521"><ele>191.75</ele><time>2026-05-04T12:58:46Z</time></trkpt><trkpt lat="43.1555974044871" lon="11.475257825403634"><ele>192.5</ele><time>2026-05-04T12:58:47Z</time></trkpt><trkpt lat="43.155483582121185" lon="11.47527681381826"><ele>193.25</ele><time>2026-05-04T12:58:48Z</time></trkpt><trkpt lat="43.155393839524486" lon="11.475306216173319"><ele>194.0</ele><time>2026-05-04T12:58:49Z</time></trkpt><trkpt lat="43.1553096317845" lon="11.475359776612722"><ele>194.0</ele><time>2026-05-04T12:58:50Z</time></trkpt><trkpt lat="43.155241259049966" lon="11.475435631910862"><ele>194.0</ele><time>2026-05-04T12:58:51Z</time></trkpt><trkpt lat="43.15517118716498" lon="11.475537453080698"><ele>194.0</ele><time>2026-05-04T12:58:52Z</time></trkpt><trkpt lat="43.155092722807204" lon="11.47565136733165"><ele>194.0</ele><time>2026-05-04T12:58:53Z</time></trkpt><trkpt lat="43.15502466400826" lon="11.475747564883427"><ele>194.0</ele><time>2026-05-04T12:58:54Z</time></trkpt><trkpt lat="43.15492993331517" lon="11.475838941070828"><ele>197.25</ele><time>2026-05-04T12:58:55Z</time></trkpt><trkpt lat="43.15479239297388" lon="11.475907680736473"><ele>200.5</ele><time>2026-05-04T12:58:56.001Z</time></trkpt><trkpt lat="43.15465908044006" lon="11.475995254066035"><ele>203.75</ele><time>2026-05-04T12:58:57.001Z</time></trkpt><trkpt lat="43.15453965678746" lon="11.476070716722623"><ele>207.0</ele><time>2026-05-04T12:58:58.001Z</time></trkpt><trkpt lat="43.15441467874083" lon="11.476130131206938"><ele>207.0</ele><time>2026-05-04T12:58:59.001Z</time></trkpt><trkpt lat="43.15428395122975" lon="11.476181915112008"><ele>207.0</ele><time>2026-05-04T12:59:00.001Z</time></trkpt><trkpt lat="43.15414652666565" lon="11.476262595352328"><ele>207.0</ele><time>2026-05-04T12:59:01.001Z</time></trkpt><trkpt lat="43.15402289478057" lon="11.4763447575766"><ele>207.0</ele><time>2026-05-04T12:59:02.001Z</time></trkpt><trkpt lat="43.153918349437646" lon="11.47640351667105"><ele>206.0</ele><time>2026-05-04T12:59:03.001Z</time></trkpt><trkpt lat="43.153801852548725" lon="11.476443438652147"><ele>205.0</ele><time>2026-05-04T12:59:04.001Z</time></trkpt><trkpt lat="43.153720237501325" lon="11.476517365175354"><ele>204.0</ele><time>2026-05-04T12:59:05.001Z</time></trkpt><trkpt lat="43.15362603429379" lon="11.476583606307292"><ele>203.0</ele><time>2026-05-04T12:59:06.001Z</time></trkpt><trkpt lat="43.153544831711045" lon="11.476696626852066"><ele>202.0</ele><time>2026-05-04T12:59:07.001Z</time></trkpt><trkpt lat="43.153476035734165" lon="11.476826201085757"><ele>202.0</ele><time>2026-05-04T12:59:08.001Z</time></trkpt><trkpt lat="43.15340386958465" lon="11.476980643148147"><ele>202.0</ele><time>2026-05-04T12:59:09.001Z</time></trkpt><trkpt lat="43.15331351328827" lon="11.477096831075603"><ele>202.0</ele><time>2026-05-04T12:59:10.001Z</time></trkpt><trkpt lat="43.15324308956062" lon="11.477233461489407"><ele>202.0</ele><time>2026-05-04T12:59:11.001Z</time></trkpt><trkpt lat="43.153164751258444" lon="11.477338461841141"><ele>202.2</ele><time>2026-05-04T12:59:12.001Z</time></trkpt><trkpt lat="43.15310703181766" lon="11.477450456444164"><ele>202.39999999999998</ele><time>2026-05-04T12:59:13.001Z</time></trkpt><trkpt lat="43.15306665101041" lon="11.477574615818229"><ele>202.60000000000002</ele><time>2026-05-04T12:59:14.001Z</time></trkpt><trkpt lat="43.153053757421226" lon="11.477687023304943"><ele>202.8</ele><time>2026-05-04T12:59:15.001Z</time></trkpt><trkpt lat="43.15305570140225" lon="11.477797275069275"><ele>203.0</ele><time>2026-05-04T12:59:16.001Z</time></trkpt><trkpt lat="43.15306639054377" lon="11.47793970513045"><ele>203.8</ele><time>2026-05-04T12:59:17.001Z</time></trkpt><trkpt lat="43.15308923405417" lon="11.478082940178554"><ele>204.60000000000002</ele><time>2026-05-04T12:59:18.001Z</time></trkpt><trkpt lat="43.153127441300704" lon="11.47823452848623"><ele>205.39999999999998</ele><time>2026-05-04T12:59:19.001Z</time></trkpt><trkpt lat="43.15316959498377" lon="11.478338964954512"><ele>206.2</ele><time>2026-05-04T12:59:20.001Z</time></trkpt><trkpt lat="43.15322650740778" lon="11.478428694748786"><ele>207.0</ele><time>2026-05-04T12:59:21.001Z</time></trkpt><trkpt lat="43.15330148078169" lon="11.478520360259603"><ele>207.8</ele><time>2026-05-04T12:59:22.001Z</time></trkpt><trkpt lat="43.15338618436122" lon="11.478613036900576"><ele>208.6</ele><time>2026-05-04T12:59:23.001Z</time></trkpt><trkpt lat="43.15344747350108" lon="11.478728017998476"><ele>209.4</ele><time>2026-05-04T12:59:24.001Z</time></trkpt><trkpt lat="43.15350134178441" lon="11.478819645229224"><ele>210.20000000000002</ele><time>2026-05-04T12:59:25.001Z</time></trkpt><trkpt lat="43.15351204828379" lon="11.478984344500574"><ele>211.0</ele><time>2026-05-04T12:59:27.001Z</time></trkpt><trkpt lat="43.153482884444244" lon="11.47907921523465"><ele>213.0</ele><time>2026-05-04T12:59:28.002Z</time></trkpt><trkpt lat="43.1534538667737" lon="11.47918444946817"><ele>215.0</ele><time>2026-05-04T12:59:29.002Z</time></trkpt><trkpt lat="43.153421881604785" lon="11.479340687193977"><ele>217.0</ele><time>2026-05-04T12:59:30.002Z</time></trkpt><trkpt lat="43.153371612702486" lon="11.479506846755303"><ele>219.0</ele><time>2026-05-04T12:59:31.002Z</time></trkpt><trkpt lat="43.1533289886111" lon="11.479680625037163"><ele>219.2</ele><time>2026-05-04T12:59:32.002Z</time></trkpt><trkpt lat="43.15329657639718" lon="11.479806094787682"><ele>219.39999999999998</ele><time>2026-05-04T12:59:33.002Z</time></trkpt><trkpt lat="43.15326091948007" lon="11.479915921994973"><ele>219.6</ele><time>2026-05-04T12:59:34.002Z</time></trkpt><trkpt lat="43.15324238323363" lon="11.48009808085837"><ele>219.8</ele><time>2026-05-04T12:59:36.002Z</time></trkpt><trkpt lat="43.153239554576814" lon="11.480265314965886"><ele>220.0</ele><time>2026-05-04T12:59:38.002Z</time></trkpt><trkpt lat="43.153244223783304" lon="11.480377050528418"><ele>220.16666666666666</ele><time>2026-05-04T12:59:39.002Z</time></trkpt><trkpt lat="43.15325256360322" lon="11.480489485658454"><ele>220.33333333333331</ele><time>2026-05-04T12:59:40.002Z</time></trkpt><trkpt lat="43.15327354629919" lon="11.480581848795142"><ele>220.5</ele><time>2026-05-04T12:59:41.002Z</time></trkpt><trkpt lat="43.15330762183082" lon="11.480692277015665"><ele>220.66666666666669</ele><time>2026-05-04T12:59:42.002Z</time></trkpt><trkpt lat="43.15330790924868" lon="11.480835601965916"><ele>220.83333333333334</ele><time>2026-05-04T12:59:44.002Z</time></trkpt><trkpt lat="43.15325217689178" lon="11.480924528593738"><ele>221.0</ele><time>2026-05-04T12:59:46.002Z</time></trkpt><trkpt lat="43.15316627694974" lon="11.480887262151901"><ele>221.4</ele><time>2026-05-04T12:59:47.002Z</time></trkpt><trkpt lat="43.15309034153038" lon="11.480910511679042"><ele>221.8</ele><time>2026-05-04T12:59:48.002Z</time></trkpt><trkpt lat="43.152997426532686" lon="11.48093676308564"><ele>222.20000000000002</ele><time>2026-05-04T12:59:49.002Z</time></trkpt><trkpt lat="43.15290211623329" lon="11.480979790948565"><ele>222.60000000000002</ele><time>2026-05-04T12:59:50.002Z</time></trkpt><trkpt lat="43.1528063740212" lon="11.48099731530694"><ele>223.0</ele><time>2026-05-04T12:59:51.002Z</time></trkpt><trkpt lat="43.152693083211076" lon="11.481029440817721"><ele>223.0</ele><time>2026-05-04T12:59:52.002Z</time></trkpt><trkpt lat="43.15257681978715" lon="11.481071233649091"><ele>223.0</ele><time>2026-05-04T12:59:53.002Z</time></trkpt><trkpt lat="43.15245214077053" lon="11.481113831650609"><ele>223.0</ele><time>2026-05-04T12:59:54.002Z</time></trkpt><trkpt lat="43.15232753908951" lon="11.481131180588719"><ele>223.0</ele><time>2026-05-04T12:59:55.002Z</time></trkpt><trkpt lat="43.15220313911543" lon="11.481132258130645"><ele>222.4</ele><time>2026-05-04T12:59:56.002Z</time></trkpt><trkpt lat="43.15209762119699" lon="11.481116339379104"><ele>221.8</ele><time>2026-05-04T12:59:57.002Z</time></trkpt><trkpt lat="43.15200070112253" lon="11.481093168643607"><ele>221.2</ele><time>2026-05-04T12:59:58.002Z</time></trkpt><trkpt lat="43.151895088452264" lon="11.481064092917032"><ele>220.6</ele><time>2026-05-04T12:59:59.002Z</time></trkpt><trkpt lat="43.15178630065539" lon="11.481033624095955"><ele>220.0</ele><time>2026-05-04T13:00:00.002Z</time></trkpt><trkpt lat="43.151673585346465" lon="11.481005294223767"><ele>220.0</ele><time>2026-05-04T13:00:01.003Z</time></trkpt><trkpt lat="43.15154838497318" lon="11.481000545190886"><ele>220.0</ele><time>2026-05-04T13:00:02.003Z</time></trkpt><trkpt lat="43.151433564492756" lon="11.480980204262428"><ele>220.0</ele><time>2026-05-04T13:00:03.003Z</time></trkpt><trkpt lat="43.151311940684906" lon="11.480969727186032"><ele>220.0</ele><time>2026-05-04T13:00:04.003Z</time></trkpt><trkpt lat="43.151189652251716" lon="11.480954989751922"><ele>218.75</ele><time>2026-05-04T13:00:05.003Z</time></trkpt><trkpt lat="43.15107112665117" lon="11.480933573853036"><ele>217.5</ele><time>2026-05-04T13:00:06.003Z</time></trkpt><trkpt lat="43.15096076994195" lon="11.480896855307705"><ele>216.25</ele><time>2026-05-04T13:00:07.003Z</time></trkpt><trkpt lat="43.15084796025881" lon="11.480855508327792"><ele>215.0</ele><time>2026-05-04T13:00:08.003Z</time></trkpt><trkpt lat="43.15073125554459" lon="11.48083403295962"><ele>212.8</ele><time>2026-05-04T13:00:09.003Z</time></trkpt><trkpt lat="43.15062043888358" lon="11.480799322198063"><ele>210.6</ele><time>2026-05-04T13:00:10.003Z</time></trkpt><trkpt lat="43.150510285382296" lon="11.480768055449833"><ele>208.39999999999998</ele><time>2026-05-04T13:00:11.003Z</time></trkpt><trkpt lat="43.15040935801264" lon="11.480723203923798"><ele>206.2</ele><time>2026-05-04T13:00:12.003Z</time></trkpt><trkpt lat="43.15031296824083" lon="11.480697692180174"><ele>204.0</ele><time>2026-05-04T13:00:13.003Z</time></trkpt><trkpt lat="43.150232717979456" lon="11.480696114979496"><ele>204.0</ele><time>2026-05-04T13:00:14.003Z</time></trkpt><trkpt lat="43.150171410156" lon="11.480662837841239"><ele>204.0</ele><time>2026-05-04T13:00:15.003Z</time></trkpt><trkpt lat="43.15005742703593" lon="11.480683105253197"><ele>204.0</ele><time>2026-05-04T13:00:16.999Z</time></trkpt><trkpt lat="43.149951976644275" lon="11.48073182826685"><ele>204.0</ele><time>2026-05-04T13:00:18.999Z</time></trkpt><trkpt lat="43.14984695471798" lon="11.48074309199576"><ele>204.0</ele><time>2026-05-04T13:00:20.999Z</time></trkpt><trkpt lat="43.149737799706244" lon="11.480722297107896"><ele>201.6</ele><time>2026-05-04T13:00:22.999Z</time></trkpt><trkpt lat="43.149610331420064" lon="11.480714162492768"><ele>199.2</ele><time>2026-05-04T13:00:24.999Z</time></trkpt><trkpt lat="43.149524177217636" lon="11.48073205354392"><ele>196.79999999999998</ele><time>2026-05-04T13:00:25.999Z</time></trkpt><trkpt lat="43.14943811505267" lon="11.480771785645725"><ele>194.39999999999998</ele><time>2026-05-04T13:00:26.999Z</time></trkpt><trkpt lat="43.14935145408996" lon="11.480813641247027"><ele>192.0</ele><time>2026-05-04T13:00:27.999Z</time></trkpt><trkpt lat="43.14927670530294" lon="11.480847580325191"><ele>191.99999999999997</ele><time>2026-05-04T13:00:28.999Z</time></trkpt><trkpt lat="43.14919553855458" lon="11.480880442126704"><ele>192.0</ele><time>2026-05-04T13:00:29.999Z</time></trkpt><trkpt lat="43.14911623196833" lon="11.480897284830096"><ele>192.0</ele><time>2026-05-04T13:00:30.999Z</time></trkpt><trkpt lat="43.14905027097192" lon="11.480884742239116"><ele>192.0</ele><time>2026-05-04T13:00:31.999Z</time></trkpt><trkpt lat="43.14897826063163" lon="11.480874731669223"><ele>192.0</ele><time>2026-05-04T13:00:32.999Z</time></trkpt><trkpt lat="43.148909001216" lon="11.480869072071751"><ele>191.99999999999997</ele><time>2026-05-04T13:00:34Z</time></trkpt><trkpt lat="43.148845347180185" lon="11.480868556963143"><ele>192.0</ele><time>2026-05-04T13:00:35Z</time></trkpt><trkpt lat="43.14873287406992" lon="11.480948242163366"><ele>189.83333333333334</ele><time>2026-05-04T13:00:37Z</time></trkpt><trkpt lat="43.148695648601354" lon="11.48105517361004"><ele>187.66666666666666</ele><time>2026-05-04T13:00:38Z</time></trkpt><trkpt lat="43.14863740204953" lon="11.481150779238012"><ele>185.5</ele><time>2026-05-04T13:00:39Z</time></trkpt><trkpt lat="43.14857054928108" lon="11.481218604285607"><ele>183.33333333333331</ele><time>2026-05-04T13:00:40Z</time></trkpt><trkpt lat="43.148495330173866" lon="11.48120724088863"><ele>181.16666666666666</ele><time>2026-05-04T13:00:41Z</time></trkpt><trkpt lat="43.148417288493725" lon="11.481178992021077"><ele>179.0</ele><time>2026-05-04T13:00:42Z</time></trkpt><trkpt lat="43.148314349274706" lon="11.48113690285832"><ele>177.25</ele><time>2026-05-04T13:00:43Z</time></trkpt><trkpt lat="43.14819088283094" lon="11.481071576074093"><ele>175.5</ele><time>2026-05-04T13:00:44Z</time></trkpt><trkpt lat="43.148084070742826" lon="11.481032665378773"><ele>173.75</ele><time>2026-05-04T13:00:45Z</time></trkpt><trkpt lat="43.14798209746964" lon="11.480967561160153"><ele>172.0</ele><time>2026-05-04T13:00:46Z</time></trkpt><trkpt lat="43.14787033128507" lon="11.480913294991637"><ele>172.0</ele><time>2026-05-04T13:00:47Z</time></trkpt><trkpt lat="43.147760442418054" lon="11.480857890194335"><ele>172.0</ele><time>2026-05-04T13:00:48Z</time></trkpt><trkpt lat="43.14765045039439" lon="11.48079961846854"><ele>172.0</ele><time>2026-05-04T13:00:49Z</time></trkpt><trkpt lat="43.14754375827339" lon="11.480737851543399"><ele>172.0</ele><time>2026-05-04T13:00:50Z</time></trkpt><trkpt lat="43.14744517655391" lon="11.48066983918035"><ele>169.6</ele><time>2026-05-04T13:00:51Z</time></trkpt><trkpt lat="43.14735049132388" lon="11.480606141871174"><ele>167.2</ele><time>2026-05-04T13:00:52Z</time></trkpt><trkpt lat="43.1472664656761" lon="11.480549613703788"><ele>164.8</ele><time>2026-05-04T13:00:53Z</time></trkpt><trkpt lat="43.14717641144088" lon="11.480516028119792"><ele>162.4</ele><time>2026-05-04T13:00:54Z</time></trkpt><trkpt lat="43.147089424866685" lon="11.48049408203842"><ele>160.0</ele><time>2026-05-04T13:00:55Z</time></trkpt><trkpt lat="43.14699892956869" lon="11.480469918587932"><ele>160.0</ele><time>2026-05-04T13:00:56Z</time></trkpt><trkpt lat="43.14691542484629" lon="11.480459550042566"><ele>160.0</ele><time>2026-05-04T13:00:57Z</time></trkpt><trkpt lat="43.146839695151954" lon="11.480457981350003"><ele>160.0</ele><time>2026-05-04T13:00:58Z</time></trkpt><trkpt lat="43.14676788181003" lon="11.480487840438636"><ele>160.0</ele><time>2026-05-04T13:00:59Z</time></trkpt><trkpt lat="43.14671226835139" lon="11.480551159962992"><ele>160.0</ele><time>2026-05-04T13:01:00Z</time></trkpt><trkpt lat="43.14666550095558" lon="11.480634808549564"><ele>160.0</ele><time>2026-05-04T13:01:01Z</time></trkpt><trkpt lat="43.14662333216267" lon="11.480742284527986"><ele>160.0</ele><time>2026-05-04T13:01:02Z</time></trkpt><trkpt lat="43.146591471424" lon="11.480859985156158"><ele>160.0</ele><time>2026-05-04T13:01:03.001Z</time></trkpt><trkpt lat="43.14656209802464" lon="11.480994187863365"><ele>160.0</ele><time>2026-05-04T13:01:04.001Z</time></trkpt><trkpt lat="43.14653629676325" lon="11.481127564747462"><ele>160.0</ele><time>2026-05-04T13:01:05.001Z</time></trkpt><trkpt lat="43.14650865231376" lon="11.481230081797069"><ele>160.0</ele><time>2026-05-04T13:01:06.001Z</time></trkpt><trkpt lat="43.14647205083229" lon="11.481305907849103"><ele>160.0</ele><time>2026-05-04T13:01:07.001Z</time></trkpt><trkpt lat="43.14641576549065" lon="11.481358726590786"><ele>157.25</ele><time>2026-05-04T13:01:08.001Z</time></trkpt><trkpt lat="43.14633572874917" lon="11.48135036049297"><ele>154.5</ele><time>2026-05-04T13:01:09.001Z</time></trkpt><trkpt lat="43.14623367599898" lon="11.48137828413753"><ele>151.75</ele><time>2026-05-04T13:01:10.001Z</time></trkpt><trkpt lat="43.146082916845224" lon="11.481450515524381"><ele>149.0</ele><time>2026-05-04T13:01:11.001Z</time></trkpt><trkpt lat="43.14588941113542" lon="11.481497407780989"><ele>147.5</ele><time>2026-05-04T13:01:12.001Z</time></trkpt><trkpt lat="43.14567433593841" lon="11.481597237487506"><ele>146.0</ele><time>2026-05-04T13:01:13.001Z</time></trkpt><trkpt lat="43.1454460772565" lon="11.481678839063518"><ele>146.0</ele><time>2026-05-04T13:01:14.001Z</time></trkpt><trkpt lat="43.145221501138494" lon="11.481758920174688"><ele>146.0</ele><time>2026-05-04T13:01:15.001Z</time></trkpt><trkpt lat="43.145014175771095" lon="11.481829912695353"><ele>146.0</ele><time>2026-05-04T13:01:16.001Z</time></trkpt><trkpt lat="43.14482997227049" lon="11.481901933951832"><ele>145.33333333333331</ele><time>2026-05-04T13:01:17.001Z</time></trkpt><trkpt lat="43.14467196610884" lon="11.481984928162518"><ele>144.66666666666666</ele><time>2026-05-04T13:01:18.001Z</time></trkpt><trkpt lat="43.14451600955974" lon="11.4820473595525"><ele>144.0</ele><time>2026-05-04T13:01:19.001Z</time></trkpt><trkpt lat="43.14436677738425" lon="11.482106356547462"><ele>143.75</ele><time>2026-05-04T13:01:20.001Z</time></trkpt><trkpt lat="43.144223854890775" lon="11.482138901223328"><ele>143.5</ele><time>2026-05-04T13:01:21.001Z</time></trkpt><trkpt lat="43.14408863532935" lon="11.482191255486022"><ele>143.25</ele><time>2026-05-04T13:01:22.001Z</time></trkpt><trkpt lat="43.14395652678443" lon="11.482242405289984"><ele>143.0</ele><time>2026-05-04T13:01:23.001Z</time></trkpt><trkpt lat="43.14383244891845" lon="11.482290445707088"><ele>142.83333333333331</ele><time>2026-05-04T13:01:24.001Z</time></trkpt><trkpt lat="43.14372060958626" lon="11.482330705648925"><ele>142.66666666666666</ele><time>2026-05-04T13:01:25.001Z</time></trkpt><trkpt lat="43.14362698218744" lon="11.482356421905168"><ele>142.5</ele><time>2026-05-04T13:01:26.001Z</time></trkpt><trkpt lat="43.143546124434025" lon="11.48236813310137"><ele>142.33333333333334</ele><time>2026-05-04T13:01:27.001Z</time></trkpt><trkpt lat="43.143471480937436" lon="11.482392625812835"><ele>142.16666666666669</ele><time>2026-05-04T13:01:28.001Z</time></trkpt><trkpt lat="43.14340756807412" lon="11.482357813796824"><ele>142.0</ele><time>2026-05-04T13:01:29.001Z</time></trkpt><trkpt lat="43.14337069860661" lon="11.48225726883295"><ele>142.0</ele><time>2026-05-04T13:01:30.001Z</time></trkpt><trkpt lat="43.14328793478911" lon="11.482164274323424"><ele>142.0</ele><time>2026-05-04T13:01:31.001Z</time></trkpt><trkpt lat="43.14317457681947" lon="11.482052292643475"><ele>142.0</ele><time>2026-05-04T13:01:32.001Z</time></trkpt><trkpt lat="43.143036699222606" lon="11.481922865302266"><ele>142.0</ele><time>2026-05-04T13:01:33.001Z</time></trkpt><trkpt lat="43.14290433326909" lon="11.481792723916241"><ele>142.25</ele><time>2026-05-04T13:01:34.001Z</time></trkpt><trkpt lat="43.14277818659064" lon="11.48167666126252"><ele>142.5</ele><time>2026-05-04T13:01:35.002Z</time></trkpt><trkpt lat="43.14267153155587" lon="11.48156708287104"><ele>142.75</ele><time>2026-05-04T13:01:36.002Z</time></trkpt><trkpt lat="43.14260175144474" lon="11.481462859944626"><ele>143.0</ele><time>2026-05-04T13:01:37.002Z</time></trkpt><trkpt lat="43.14253195751666" lon="11.481378266342126"><ele>143.0</ele><time>2026-05-04T13:01:38.002Z</time></trkpt><trkpt lat="43.14246427234497" lon="11.481296228479385"><ele>143.0</ele><time>2026-05-04T13:01:39.002Z</time></trkpt><trkpt lat="43.14239273186458" lon="11.481257732847988"><ele>143.0</ele><time>2026-05-04T13:01:40.002Z</time></trkpt><trkpt lat="43.142316007941076" lon="11.481158418950042"><ele>143.0</ele><time>2026-05-04T13:01:42.002Z</time></trkpt><trkpt lat="43.14225228301565" lon="11.48104184203021"><ele>143.0</ele><time>2026-05-04T13:01:44.002Z</time></trkpt><trkpt lat="43.142236646080974" lon="11.480949358877103"><ele>143.0</ele><time>2026-05-04T13:01:45.002Z</time></trkpt><trkpt lat="43.142195536200475" lon="11.480871713923692"><ele>142.8</ele><time>2026-05-04T13:01:46.002Z</time></trkpt><trkpt lat="43.142156445470725" lon="11.480794484144662"><ele>142.60000000000002</ele><time>2026-05-04T13:01:47.002Z</time></trkpt><trkpt lat="43.14210446886416" lon="11.480699524243175"><ele>142.39999999999998</ele><time>2026-05-04T13:01:49.002Z</time></trkpt><trkpt lat="43.14195465011379" lon="11.48074861457314"><ele>142.2</ele><time>2026-05-04T13:02:08.003Z</time></trkpt><trkpt lat="43.141897747151944" lon="11.480839797572406"><ele>142.0</ele><time>2026-05-04T13:02:09.003Z</time></trkpt><trkpt lat="43.1418357329681" lon="11.480926065948797"><ele>142.0</ele><time>2026-05-04T13:02:10.003Z</time></trkpt><trkpt lat="43.14175838810207" lon="11.48102905125971"><ele>142.0</ele><time>2026-05-04T13:02:11.003Z</time></trkpt><trkpt lat="43.141667928311826" lon="11.481139510576002"><ele>142.0</ele><time>2026-05-04T13:02:12.003Z</time></trkpt><trkpt lat="43.14156324957639" lon="11.481255163239535"><ele>142.0</ele><time>2026-05-04T13:02:13.003Z</time></trkpt><trkpt lat="43.14144991366935" lon="11.48137075828393"><ele>141.66666666666669</ele><time>2026-05-04T13:02:14.003Z</time></trkpt><trkpt lat="43.1413223227764" lon="11.481475736105692"><ele>141.33333333333334</ele><time>2026-05-04T13:02:15.003Z</time></trkpt><trkpt lat="43.141183587472014" lon="11.481574062674268"><ele>141.0</ele><time>2026-05-04T13:02:16.003Z</time></trkpt><trkpt lat="43.14103730001887" lon="11.481678085286298"><ele>141.0</ele><time>2026-05-04T13:02:17.003Z</time></trkpt><trkpt lat="43.14089144077855" lon="11.481782747577592"><ele>141.0</ele><time>2026-05-04T13:02:18.003Z</time></trkpt><trkpt lat="43.140736656380945" lon="11.481892160740768"><ele>141.0</ele><time>2026-05-04T13:02:19.003Z</time></trkpt><trkpt lat="43.14057458610973" lon="11.482005469164672"><ele>141.66666666666666</ele><time>2026-05-04T13:02:20.003Z</time></trkpt><trkpt lat="43.140412929439044" lon="11.482121638400793"><ele>142.33333333333331</ele><time>2026-05-04T13:02:21.003Z</time></trkpt><trkpt lat="43.14024651840942" lon="11.482238087700306"><ele>143.0</ele><time>2026-05-04T13:02:21.999Z</time></trkpt><trkpt lat="43.14007540582866" lon="11.48235689192136"><ele>143.0</ele><time>2026-05-04T13:02:22.999Z</time></trkpt><trkpt lat="43.13990769287304" lon="11.482474822965244"><ele>143.0</ele><time>2026-05-04T13:02:23.999Z</time></trkpt><trkpt lat="43.13975964193163" lon="11.48258096183318"><ele>143.0</ele><time>2026-05-04T13:02:24.999Z</time></trkpt><trkpt lat="43.139627327413" lon="11.482676458912334"><ele>143.4</ele><time>2026-05-04T13:02:25.999Z</time></trkpt><trkpt lat="43.1395098578622" lon="11.482759686015397"><ele>143.8</ele><time>2026-05-04T13:02:26.999Z</time></trkpt><trkpt lat="43.13940666975835" lon="11.482831648148494"><ele>144.2</ele><time>2026-05-04T13:02:27.999Z</time></trkpt><trkpt lat="43.13931598733889" lon="11.482893198188496"><ele>144.6</ele><time>2026-05-04T13:02:28.999Z</time></trkpt><trkpt lat="43.139241757152405" lon="11.48295112175021"><ele>145.0</ele><time>2026-05-04T13:02:29.999Z</time></trkpt><trkpt lat="43.139181003055064" lon="11.482985740994067"><ele>145.0</ele><time>2026-05-04T13:02:30.999Z</time></trkpt><trkpt lat="43.13919825608385" lon="11.483197899195824"><ele>145.0</ele><time>2026-05-04T13:02:32.999Z</time></trkpt><trkpt lat="43.139228171754716" lon="11.483274766561282"><ele>145.0</ele><time>2026-05-04T13:02:33.999Z</time></trkpt><trkpt lat="43.13927635533371" lon="11.48340010593395"><ele>145.0</ele><time>2026-05-04T13:02:35.999Z</time></trkpt><trkpt lat="43.139312593130605" lon="11.483513423115827"><ele>145.0</ele><time>2026-05-04T13:02:37.999Z</time></trkpt><trkpt lat="43.13934038758191" lon="11.483601984005292"><ele>145.0</ele><time>2026-05-04T13:02:40Z</time></trkpt><trkpt lat="43.139377152921746" lon="11.483686660253714"><ele>145.0</ele><time>2026-05-04T13:02:42Z</time></trkpt><trkpt lat="43.13939228069489" lon="11.483780605496351"><ele>145.0</ele><time>2026-05-04T13:02:44Z</time></trkpt><trkpt lat="43.139427378001265" lon="11.483855005481795"><ele>145.0</ele><time>2026-05-04T13:02:46Z</time></trkpt><trkpt lat="43.13944375786794" lon="11.48395646518825"><ele>145.0</ele><time>2026-05-04T13:03:20.001Z</time></trkpt><trkpt lat="43.13947129196702" lon="11.484046734187501"><ele>145.0</ele><time>2026-05-04T13:03:21.001Z</time></trkpt><trkpt lat="43.139504835336815" lon="11.48415788504033"><ele>145.0</ele><time>2026-05-04T13:03:22.001Z</time></trkpt><trkpt lat="43.1395355669206" lon="11.484275758049044"><ele>145.0</ele><time>2026-05-04T13:03:23.001Z</time></trkpt><trkpt lat="43.13956587879783" lon="11.484418416830522"><ele>145.0</ele><time>2026-05-04T13:03:24.001Z</time></trkpt><trkpt lat="43.13959573197312" lon="11.48457589318515"><ele>145.0</ele><time>2026-05-04T13:03:25.001Z</time></trkpt><trkpt lat="43.139627969438784" lon="11.484746081306396"><ele>145.0</ele><time>2026-05-04T13:03:26.001Z</time></trkpt><trkpt lat="43.139664274888396" lon="11.484924428859872"><ele>145.0</ele><time>2026-05-04T13:03:27.001Z</time></trkpt><trkpt lat="43.13970163710747" lon="11.485111534838842"><ele>145.0</ele><time>2026-05-04T13:03:28.001Z</time></trkpt><trkpt lat="43.1397402189012" lon="11.485309952196696"><ele>145.0</ele><time>2026-05-04T13:03:29.001Z</time></trkpt><trkpt lat="43.139779471196405" lon="11.485511945854697"><ele>145.0</ele><time>2026-05-04T13:03:30.001Z</time></trkpt><trkpt lat="43.13981923926793" lon="11.485715557641367"><ele>145.0</ele><time>2026-05-04T13:03:31.001Z</time></trkpt><trkpt lat="43.13985775974165" lon="11.485914227707045"><ele>145.0</ele><time>2026-05-04T13:03:32.001Z</time></trkpt><trkpt lat="43.13990021591061" lon="11.486124551716822"><ele>145.0</ele><time>2026-05-04T13:03:33.001Z</time></trkpt><trkpt lat="43.13994187429734" lon="11.486334799390495"><ele>145.66666666666669</ele><time>2026-05-04T13:03:34.001Z</time></trkpt><trkpt lat="43.1399830762171" lon="11.48654535084369"><ele>146.33333333333334</ele><time>2026-05-04T13:03:35.001Z</time></trkpt><trkpt lat="43.14002607323805" lon="11.486750668954997"><ele>147.0</ele><time>2026-05-04T13:03:36.001Z</time></trkpt><trkpt lat="43.14006669404844" lon="11.486948741639837"><ele>148.0</ele><time>2026-05-04T13:03:37.001Z</time></trkpt><trkpt lat="43.14011720483218" lon="11.487133325337865"><ele>149.0</ele><time>2026-05-04T13:03:38.001Z</time></trkpt><trkpt lat="43.14019650062294" lon="11.487294648174396"><ele>150.0</ele><time>2026-05-04T13:03:39.001Z</time></trkpt><trkpt lat="43.14029859438641" lon="11.487421704035166"><ele>151.0</ele><time>2026-05-04T13:03:40.002Z</time></trkpt><trkpt lat="43.140425954352516" lon="11.487522231786105"><ele>151.0</ele><time>2026-05-04T13:03:41.002Z</time></trkpt><trkpt lat="43.14057041627842" lon="11.487608563444203"><ele>151.0</ele><time>2026-05-04T13:03:42.002Z</time></trkpt><trkpt lat="43.14072696214427" lon="11.487691015869459"><ele>151.0</ele><time>2026-05-04T13:03:43.002Z</time></trkpt><trkpt lat="43.14088626789726" lon="11.487765353808353"><ele>151.33333333333334</ele><time>2026-05-04T13:03:44.002Z</time></trkpt><trkpt lat="43.14102953640035" lon="11.487841654631554"><ele>151.66666666666666</ele><time>2026-05-04T13:03:45.002Z</time></trkpt><trkpt lat="43.141164940230375" lon="11.487947645921913"><ele>152.0</ele><time>2026-05-04T13:03:46.002Z</time></trkpt><trkpt lat="43.141291393451866" lon="11.48809425477653"><ele>152.0</ele><time>2026-05-04T13:03:47.002Z</time></trkpt><trkpt lat="43.14141124388699" lon="11.488265175226209"><ele>152.0</ele><time>2026-05-04T13:03:48.002Z</time></trkpt><trkpt lat="43.141525094273966" lon="11.488448125940387"><ele>152.0</ele><time>2026-05-04T13:03:49.002Z</time></trkpt><trkpt lat="43.14162601490717" lon="11.488634144761267"><ele>151.66666666666666</ele><time>2026-05-04T13:03:50.002Z</time></trkpt><trkpt lat="43.1417001013989" lon="11.488829351222506"><ele>151.33333333333334</ele><time>2026-05-04T13:03:51.002Z</time></trkpt><trkpt lat="43.14174507315333" lon="11.489040106464001"><ele>151.0</ele><time>2026-05-04T13:03:52.002Z</time></trkpt><trkpt lat="43.141781275910844" lon="11.489267713428978"><ele>151.0</ele><time>2026-05-04T13:03:53.002Z</time></trkpt><trkpt lat="43.141823166909354" lon="11.489507675053176"><ele>151.0</ele><time>2026-05-04T13:03:54.002Z</time></trkpt><trkpt lat="43.14186839411016" lon="11.489753217864589"><ele>151.0</ele><time>2026-05-04T13:03:55.002Z</time></trkpt><trkpt lat="43.14191802027733" lon="11.49001317529645"><ele>152.66666666666669</ele><time>2026-05-04T13:03:56.002Z</time></trkpt><trkpt lat="43.14197646107657" lon="11.490281304967498"><ele>154.33333333333334</ele><time>2026-05-04T13:03:57.002Z</time></trkpt><trkpt lat="43.14203729765417" lon="11.490557216508526"><ele>156.0</ele><time>2026-05-04T13:03:58.002Z</time></trkpt><trkpt lat="43.142095674241205" lon="11.490841354802651"><ele>156.66666666666666</ele><time>2026-05-04T13:03:59.002Z</time></trkpt><trkpt lat="43.1421461360028" lon="11.491135209250112"><ele>157.33333333333331</ele><time>2026-05-04T13:04:00.002Z</time></trkpt><trkpt lat="43.14218964052419" lon="11.491437136409345"><ele>158.0</ele><time>2026-05-04T13:04:01.002Z</time></trkpt><trkpt lat="43.142228145684804" lon="11.491749575218591"><ele>160.0</ele><time>2026-05-04T13:04:02.002Z</time></trkpt><trkpt lat="43.14226596154378" lon="11.49206354029582"><ele>162.0</ele><time>2026-05-04T13:04:03.002Z</time></trkpt><trkpt lat="43.14230026712229" lon="11.492380394099689"><ele>161.0</ele><time>2026-05-04T13:04:04.002Z</time></trkpt><trkpt lat="43.14232989655571" lon="11.492700129489972"><ele>160.0</ele><time>2026-05-04T13:04:05.002Z</time></trkpt><trkpt lat="43.142364683779505" lon="11.493004350353488"><ele>156.0</ele><time>2026-05-04T13:04:06.002Z</time></trkpt><trkpt lat="43.14240197018081" lon="11.493291459540071"><ele>152.0</ele><time>2026-05-04T13:04:07.002Z</time></trkpt><trkpt lat="43.14244997526416" lon="11.493565843606868"><ele>148.0</ele><time>2026-05-04T13:04:08.002Z</time></trkpt><trkpt lat="43.142522467977415" lon="11.493824080867071"><ele>147.66666666666669</ele><time>2026-05-04T13:04:09.002Z</time></trkpt><trkpt lat="43.14262204818299" lon="11.494068936335196"><ele>147.33333333333334</ele><time>2026-05-04T13:04:10.002Z</time></trkpt><trkpt lat="43.14274035334462" lon="11.494303602482965"><ele>147.0</ele><time>2026-05-04T13:04:11.002Z</time></trkpt><trkpt lat="43.14285874211765" lon="11.494530441976888"><ele>147.66666666666666</ele><time>2026-05-04T13:04:12.002Z</time></trkpt><trkpt lat="43.14296892722222" lon="11.494746478669288"><ele>148.33333333333331</ele><time>2026-05-04T13:04:13.003Z</time></trkpt><trkpt lat="43.14306736309755" lon="11.494940108335681"><ele>149.0</ele><time>2026-05-04T13:04:14.003Z</time></trkpt><trkpt lat="43.143155391631986" lon="11.495126323857662"><ele>148.25</ele><time>2026-05-04T13:04:15.003Z</time></trkpt><trkpt lat="43.143235508140016" lon="11.495303191118245"><ele>147.5</ele><time>2026-05-04T13:04:16.003Z</time></trkpt><trkpt lat="43.14330604864019" lon="11.495469011782768"><ele>146.75</ele><time>2026-05-04T13:04:17.003Z</time></trkpt><trkpt lat="43.143369247369286" lon="11.495636320259539"><ele>146.0</ele><time>2026-05-04T13:04:18.003Z</time></trkpt><trkpt lat="43.14343172907317" lon="11.495801261074744"><ele>146.0</ele><time>2026-05-04T13:04:19.003Z</time></trkpt><trkpt lat="43.14349247153258" lon="11.495956289546639"><ele>146.0</ele><time>2026-05-04T13:04:20.003Z</time></trkpt><trkpt lat="43.143556869848396" lon="11.496091310994014"><ele>146.0</ele><time>2026-05-04T13:04:21.003Z</time></trkpt><trkpt lat="43.14361646362395" lon="11.49622816288483"><ele>146.0</ele><time>2026-05-04T13:04:22.003Z</time></trkpt><trkpt lat="43.14373023572981" lon="11.496295000673193"><ele>146.25</ele><time>2026-05-04T13:04:23.003Z</time></trkpt><trkpt lat="43.14384078217191" lon="11.496378094649332"><ele>146.5</ele><time>2026-05-04T13:04:24.003Z</time></trkpt><trkpt lat="43.143943442584685" lon="11.496488313440697"><ele>146.75</ele><time>2026-05-04T13:04:25.003Z</time></trkpt><trkpt lat="43.14403006377" lon="11.496630226336409"><ele>147.0</ele><time>2026-05-04T13:04:26.003Z</time></trkpt><trkpt lat="43.14410968091293" lon="11.496792412310922"><ele>147.0</ele><time>2026-05-04T13:04:27.003Z</time></trkpt><trkpt lat="43.144192797536675" lon="11.496952105031614"><ele>147.0</ele><time>2026-05-04T13:04:27.999Z</time></trkpt><trkpt lat="43.14427381945209" lon="11.497118427298652"><ele>147.0</ele><time>2026-05-04T13:04:28.999Z</time></trkpt><trkpt lat="43.14434339541727" lon="11.497292472241268"><ele>147.0</ele><time>2026-05-04T13:04:29.999Z</time></trkpt><trkpt lat="43.14439848837774" lon="11.497474374863941"><ele>148.0</ele><time>2026-05-04T13:04:30.999Z</time></trkpt><trkpt lat="43.14444330105579" lon="11.497670296643"><ele>149.0</ele><time>2026-05-04T13:04:31.999Z</time></trkpt><trkpt lat="43.144477209640336" lon="11.497862181328426"><ele>150.0</ele><time>2026-05-04T13:04:32.999Z</time></trkpt><trkpt lat="43.144502509957505" lon="11.498046747617996"><ele>151.0</ele><time>2026-05-04T13:04:33.999Z</time></trkpt><trkpt lat="43.14452630006422" lon="11.498216681497576"><ele>153.5</ele><time>2026-05-04T13:04:34.999Z</time></trkpt><trkpt lat="43.14454349549383" lon="11.498392805199423"><ele>156.0</ele><time>2026-05-04T13:04:35.999Z</time></trkpt><trkpt lat="43.14453433287557" lon="11.498582687848781"><ele>158.5</ele><time>2026-05-04T13:04:36.999Z</time></trkpt><trkpt lat="43.14452888304809" lon="11.498772925702594"><ele>161.0</ele><time>2026-05-04T13:04:37.999Z</time></trkpt><trkpt lat="43.14452478097482" lon="11.498975731378506"><ele>161.0</ele><time>2026-05-04T13:04:38.999Z</time></trkpt><trkpt lat="43.14449760151464" lon="11.499187035845004"><ele>161.0</ele><time>2026-05-04T13:04:39.999Z</time></trkpt><trkpt lat="43.144462905408915" lon="11.49941049880965"><ele>161.0</ele><time>2026-05-04T13:04:40.999Z</time></trkpt><trkpt lat="43.14443600978354" lon="11.499604659477425"><ele>160.5</ele><time>2026-05-04T13:04:41.999Z</time></trkpt><trkpt lat="43.14441290734484" lon="11.499798600316414"><ele>160.0</ele><time>2026-05-04T13:04:42.999Z</time></trkpt><trkpt lat="43.14439161015564" lon="11.499965399974965"><ele>159.5</ele><time>2026-05-04T13:04:43.999Z</time></trkpt><trkpt lat="43.144352956779116" lon="11.500118234233323"><ele>159.0</ele><time>2026-05-04T13:04:44.999Z</time></trkpt><trkpt lat="43.14434009052412" lon="11.500277758419942"><ele>158.0</ele><time>2026-05-04T13:04:45.999Z</time></trkpt><trkpt lat="43.14434141214438" lon="11.500426811589202"><ele>157.0</ele><time>2026-05-04T13:04:47Z</time></trkpt><trkpt lat="43.14435787806103" lon="11.500571560644213"><ele>156.0</ele><time>2026-05-04T13:04:48Z</time></trkpt><trkpt lat="43.14439460896786" lon="11.500696271599415"><ele>155.0</ele><time>2026-05-04T13:04:49Z</time></trkpt><trkpt lat="43.14445664025277" lon="11.50078537030927"><ele>154.0</ele><time>2026-05-04T13:04:50Z</time></trkpt><trkpt lat="43.1445209405014" lon="11.50085761991739"><ele>154.0</ele><time>2026-05-04T13:04:51Z</time></trkpt><trkpt lat="43.14459391940125" lon="11.500891966499795"><ele>154.0</ele><time>2026-05-04T13:04:52Z</time></trkpt><trkpt lat="43.14468132940685" lon="11.500911723026594"><ele>154.0</ele><time>2026-05-04T13:04:53Z</time></trkpt><trkpt lat="43.144777853606605" lon="11.500941938920493"><ele>154.0</ele><time>2026-05-04T13:04:54Z</time></trkpt><trkpt lat="43.14487629649481" lon="11.500984481012983"><ele>154.0</ele><time>2026-05-04T13:04:55Z</time></trkpt><trkpt lat="43.14498497337734" lon="11.50101971245572"><ele>153.2</ele><time>2026-05-04T13:04:56Z</time></trkpt><trkpt lat="43.14509373512744" lon="11.501052225874142"><ele>152.4</ele><time>2026-05-04T13:04:57Z</time></trkpt><trkpt lat="43.14518771308278" lon="11.501097697359063"><ele>151.6</ele><time>2026-05-04T13:04:58Z</time></trkpt><trkpt lat="43.14526857514786" lon="11.50111043170369"><ele>150.8</ele><time>2026-05-04T13:04:59Z</time></trkpt><trkpt lat="43.14529843903564" lon="11.501266756195129"><ele>150.0</ele><time>2026-05-04T13:05:00Z</time></trkpt><trkpt lat="43.14530906351319" lon="11.501388810468498"><ele>150.0</ele><time>2026-05-04T13:05:01Z</time></trkpt><trkpt lat="43.14528046036056" lon="11.501530512860864"><ele>150.0</ele><time>2026-05-04T13:05:02Z</time></trkpt><trkpt lat="43.145278448073725" lon="11.50171832711927"><ele>150.0</ele><time>2026-05-04T13:05:03Z</time></trkpt><trkpt lat="43.14529098013507" lon="11.501942228041617"><ele>150.0</ele><time>2026-05-04T13:05:04Z</time></trkpt><trkpt lat="43.14527693038707" lon="11.502165530181996"><ele>150.33333333333334</ele><time>2026-05-04T13:05:05Z</time></trkpt><trkpt lat="43.14525759637376" lon="11.502378982331447"><ele>150.66666666666669</ele><time>2026-05-04T13:05:06Z</time></trkpt><trkpt lat="43.14523448034783" lon="11.502613613519602"><ele>151.0</ele><time>2026-05-04T13:05:07Z</time></trkpt><trkpt lat="43.14521395865217" lon="11.502848405139488"><ele>152.33333333333334</ele><time>2026-05-04T13:05:08Z</time></trkpt><trkpt lat="43.145212544777486" lon="11.503089131265476"><ele>153.66666666666666</ele><time>2026-05-04T13:05:09Z</time></trkpt><trkpt lat="43.14520608448316" lon="11.503331585255081"><ele>155.0</ele><time>2026-05-04T13:05:10Z</time></trkpt><trkpt lat="43.14521335469003" lon="11.503563538913786"><ele>155.25</ele><time>2026-05-04T13:05:11Z</time></trkpt><trkpt lat="43.14522249175896" lon="11.503764170368827"><ele>155.5</ele><time>2026-05-04T13:05:12.001Z</time></trkpt><trkpt lat="43.14522815161213" lon="11.503963871680934"><ele>155.75</ele><time>2026-05-04T13:05:13.001Z</time></trkpt><trkpt lat="43.14524295148966" lon="11.504173796785947"><ele>156.0</ele><time>2026-05-04T13:05:14.001Z</time></trkpt><trkpt lat="43.145271683656794" lon="11.504389471105325"><ele>155.66666666666666</ele><time>2026-05-04T13:05:15.001Z</time></trkpt><trkpt lat="43.14531582966795" lon="11.504624322980268"><ele>155.33333333333331</ele><time>2026-05-04T13:05:16.001Z</time></trkpt><trkpt lat="43.14537012566677" lon="11.50486464937208"><ele>155.0</ele><time>2026-05-04T13:05:17.001Z</time></trkpt><trkpt lat="43.145425836550636" lon="11.505105276826935"><ele>155.0</ele><time>2026-05-04T13:05:18.001Z</time></trkpt><trkpt lat="43.14548073222927" lon="11.505349848836104"><ele>155.0</ele><time>2026-05-04T13:05:19.001Z</time></trkpt><trkpt lat="43.14553930065699" lon="11.505591410311691"><ele>155.0</ele><time>2026-05-04T13:05:20.001Z</time></trkpt><trkpt lat="43.14559796656187" lon="11.505819666161065"><ele>154.75</ele><time>2026-05-04T13:05:21.001Z</time></trkpt><trkpt lat="43.145653970373026" lon="11.506017384717582"><ele>154.5</ele><time>2026-05-04T13:05:22.001Z</time></trkpt><trkpt lat="43.14570625766381" lon="11.506197253841696"><ele>154.25</ele><time>2026-05-04T13:05:23.001Z</time></trkpt><trkpt lat="43.145740411301844" lon="11.506357901820921"><ele>154.0</ele><time>2026-05-04T13:05:24.001Z</time></trkpt><trkpt lat="43.14572964810264" lon="11.506523353401855"><ele>154.5</ele><time>2026-05-04T13:05:25.001Z</time></trkpt><trkpt lat="43.14570207883727" lon="11.506662358768859"><ele>155.0</ele><time>2026-05-04T13:05:26.001Z</time></trkpt><trkpt lat="43.14566083560575" lon="11.506808706404007"><ele>155.5</ele><time>2026-05-04T13:05:27.001Z</time></trkpt><trkpt lat="43.14560662122732" lon="11.506971368899611"><ele>156.0</ele><time>2026-05-04T13:05:28.001Z</time></trkpt><trkpt lat="43.14553776690514" lon="11.507162472430753"><ele>157.0</ele><time>2026-05-04T13:05:29.001Z</time></trkpt><trkpt lat="43.14545136744984" lon="11.507351047164741"><ele>158.0</ele><time>2026-05-04T13:05:30.001Z</time></trkpt><trkpt lat="43.145362638015555" lon="11.507526031251786"><ele>159.0</ele><time>2026-05-04T13:05:31.001Z</time></trkpt><trkpt lat="43.145271175184895" lon="11.50768193348215"><ele>159.0</ele><time>2026-05-04T13:05:32.001Z</time></trkpt><trkpt lat="43.145184295941256" lon="11.50782251115663"><ele>159.0</ele><time>2026-05-04T13:05:33.001Z</time></trkpt><trkpt lat="43.145107891261745" lon="11.507958928664493"><ele>159.0</ele><time>2026-05-04T13:05:34.001Z</time></trkpt><trkpt lat="43.145041094886224" lon="11.508120769233471"><ele>159.0</ele><time>2026-05-04T13:05:35.001Z</time></trkpt><trkpt lat="43.14498354310793" lon="11.508300330699932"><ele>159.33333333333334</ele><time>2026-05-04T13:05:36.001Z</time></trkpt><trkpt lat="43.144929190518646" lon="11.508489703821152"><ele>159.66666666666669</ele><time>2026-05-04T13:05:37.001Z</time></trkpt><trkpt lat="43.14487839068042" lon="11.508689855411593"><ele>160.0</ele><time>2026-05-04T13:05:38.001Z</time></trkpt><trkpt lat="43.144824741719894" lon="11.508884457408811"><ele>159.33333333333334</ele><time>2026-05-04T13:05:39.001Z</time></trkpt><trkpt lat="43.14473619780751" lon="11.509060000260572"><ele>158.66666666666666</ele><time>2026-05-04T13:05:40.001Z</time></trkpt><trkpt lat="43.144668983103195" lon="11.509248328295605"><ele>158.0</ele><time>2026-05-04T13:05:41.001Z</time></trkpt><trkpt lat="43.14458314685858" lon="11.509418117653674"><ele>157.0</ele><time>2026-05-04T13:05:42.001Z</time></trkpt><trkpt lat="43.14450337085224" lon="11.509590839664288"><ele>156.0</ele><time>2026-05-04T13:05:43.002Z</time></trkpt><trkpt lat="43.14442006117116" lon="11.509767736409172"><ele>155.0</ele><time>2026-05-04T13:05:44.002Z</time></trkpt><trkpt lat="43.14433752810257" lon="11.509943810866481"><ele>155.0</ele><time>2026-05-04T13:05:45.002Z</time></trkpt><trkpt lat="43.14424526983392" lon="11.510130098009803"><ele>155.0</ele><time>2026-05-04T13:05:46.002Z</time></trkpt><trkpt lat="43.14415567536675" lon="11.510311808134945"><ele>155.0</ele><time>2026-05-04T13:05:47.002Z</time></trkpt><trkpt lat="43.14407400803596" lon="11.510483560404037"><ele>157.25</ele><time>2026-05-04T13:05:48.002Z</time></trkpt><trkpt lat="43.14401132825395" lon="11.510641844665232"><ele>159.5</ele><time>2026-05-04T13:05:49.002Z</time></trkpt><trkpt lat="43.14397514615976" lon="11.510786141428635"><ele>161.75</ele><time>2026-05-04T13:05:50.002Z</time></trkpt><trkpt lat="43.143972884874856" lon="11.510937850940342"><ele>164.0</ele><time>2026-05-04T13:05:51.002Z</time></trkpt><trkpt lat="43.14399278455232" lon="11.51110221571036"><ele>166.0</ele><time>2026-05-04T13:05:52.002Z</time></trkpt><trkpt lat="43.14402799300928" lon="11.511276219177148"><ele>168.0</ele><time>2026-05-04T13:05:53.002Z</time></trkpt><trkpt lat="43.14406657286776" lon="11.51145599723613"><ele>170.0</ele><time>2026-05-04T13:05:54.002Z</time></trkpt><trkpt lat="43.144102546837274" lon="11.51166212222707"><ele>172.0</ele><time>2026-05-04T13:05:55.002Z</time></trkpt><trkpt lat="43.14414219539766" lon="11.511872447879156"><ele>177.33333333333334</ele><time>2026-05-04T13:05:56.002Z</time></trkpt><trkpt lat="43.144183077233876" lon="11.51210058046229"><ele>182.66666666666666</ele><time>2026-05-04T13:05:57.002Z</time></trkpt><trkpt lat="43.144225084624736" lon="11.512337955436692"><ele>188.0</ele><time>2026-05-04T13:05:58.002Z</time></trkpt><trkpt lat="43.144262113144926" lon="11.512579231753373"><ele>188.0</ele><time>2026-05-04T13:05:59.002Z</time></trkpt><trkpt lat="43.144282077153164" lon="11.51282554182959"><ele>188.0</ele><time>2026-05-04T13:06:00.002Z</time></trkpt><trkpt lat="43.14431255622941" lon="11.51304315130589"><ele>188.0</ele><time>2026-05-04T13:06:01.002Z</time></trkpt><trkpt lat="43.14434222467143" lon="11.513255958192563"><ele>191.0</ele><time>2026-05-04T13:06:02.002Z</time></trkpt><trkpt lat="43.14436127720757" lon="11.513457427436093"><ele>194.0</ele><time>2026-05-04T13:06:03.002Z</time></trkpt><trkpt lat="43.144363044414234" lon="11.51363124825485"><ele>197.0</ele><time>2026-05-04T13:06:04.002Z</time></trkpt><trkpt lat="43.144357335218054" lon="11.513817154856147"><ele>200.0</ele><time>2026-05-04T13:06:05.002Z</time></trkpt><trkpt lat="43.14434516836383" lon="11.513979451157923"><ele>202.75</ele><time>2026-05-04T13:06:06.002Z</time></trkpt><trkpt lat="43.14432743840014" lon="11.514149498868623"><ele>205.5</ele><time>2026-05-04T13:06:07.002Z</time></trkpt><trkpt lat="43.14430723209866" lon="11.514316226802096"><ele>208.25</ele><time>2026-05-04T13:06:08.002Z</time></trkpt><trkpt lat="43.14427979113731" lon="11.514485401789667"><ele>211.0</ele><time>2026-05-04T13:06:09.002Z</time></trkpt><trkpt lat="43.14422747884791" lon="11.514657095120787"><ele>212.0</ele><time>2026-05-04T13:06:10.002Z</time></trkpt><trkpt lat="43.14420235815531" lon="11.514828165326215"><ele>213.0</ele><time>2026-05-04T13:06:11.002Z</time></trkpt><trkpt lat="43.144154128679176" lon="11.515000010370361"><ele>214.0</ele><time>2026-05-04T13:06:12.002Z</time></trkpt><trkpt lat="43.14410973356385" lon="11.51516166011554"><ele>215.0</ele><time>2026-05-04T13:06:13.002Z</time></trkpt><trkpt lat="43.14406739301959" lon="11.51531784101081"><ele>215.8</ele><time>2026-05-04T13:06:14.002Z</time></trkpt><trkpt lat="43.14403538923414" lon="11.51547193917436"><ele>216.6</ele><time>2026-05-04T13:06:15.002Z</time></trkpt><trkpt lat="43.144019489934465" lon="11.515620866144555"><ele>217.39999999999998</ele><time>2026-05-04T13:06:16.002Z</time></trkpt><trkpt lat="43.1440078358015" lon="11.515774573355325"><ele>218.2</ele><time>2026-05-04T13:06:17.003Z</time></trkpt><trkpt lat="43.143977364879916" lon="11.515913565071294"><ele>219.0</ele><time>2026-05-04T13:06:18.003Z</time></trkpt><trkpt lat="43.14396220446367" lon="11.516051240674374"><ele>219.0</ele><time>2026-05-04T13:06:19.003Z</time></trkpt><trkpt lat="43.143947203653596" lon="11.516187466700755"><ele>218.99999999999997</ele><time>2026-05-04T13:06:20.003Z</time></trkpt><trkpt lat="43.14393130287654" lon="11.516318338590228"><ele>218.99999999999997</ele><time>2026-05-04T13:06:21.003Z</time></trkpt><trkpt lat="43.14391374269537" lon="11.516461370082924"><ele>219.0</ele><time>2026-05-04T13:06:22.003Z</time></trkpt><trkpt lat="43.143903623136424" lon="11.516631303155844"><ele>219.0</ele><time>2026-05-04T13:06:23.003Z</time></trkpt><trkpt lat="43.14388045843825" lon="11.516817269336302"><ele>223.33333333333331</ele><time>2026-05-04T13:06:24.003Z</time></trkpt><trkpt lat="43.14385627252105" lon="11.517013243555398"><ele>227.66666666666666</ele><time>2026-05-04T13:06:25.003Z</time></trkpt><trkpt lat="43.14383030392006" lon="11.51722054669854"><ele>232.0</ele><time>2026-05-04T13:06:26.003Z</time></trkpt><trkpt lat="43.1438027050005" lon="11.517439294363992"><ele>232.33333333333331</ele><time>2026-05-04T13:06:27.003Z</time></trkpt><trkpt lat="43.143774248766626" lon="11.517671681476312"><ele>232.66666666666669</ele><time>2026-05-04T13:06:28.003Z</time></trkpt><trkpt lat="43.14374735631155" lon="11.517892306804157"><ele>233.0</ele><time>2026-05-04T13:06:29.003Z</time></trkpt><trkpt lat="43.143706284261036" lon="11.518129420130482"><ele>234.66666666666669</ele><time>2026-05-04T13:06:30.003Z</time></trkpt><trkpt lat="43.14367686291541" lon="11.518381595197758"><ele>236.33333333333331</ele><time>2026-05-04T13:06:31.003Z</time></trkpt><trkpt lat="43.14365172477333" lon="11.518626208629069"><ele>238.0</ele><time>2026-05-04T13:06:32.003Z</time></trkpt><trkpt lat="43.14362423017861" lon="11.51885496066566"><ele>239.25</ele><time>2026-05-04T13:06:33.003Z</time></trkpt><trkpt lat="43.14359568722181" lon="11.519066377794445"><ele>240.5</ele><time>2026-05-04T13:06:34.001Z</time></trkpt><trkpt lat="43.14358020385767" lon="11.519264774826508"><ele>241.75</ele><time>2026-05-04T13:06:35.001Z</time></trkpt><trkpt lat="43.14358776835674" lon="11.5194572207342"><ele>243.0</ele><time>2026-05-04T13:06:36.001Z</time></trkpt><trkpt lat="43.14361104442077" lon="11.519669640203634"><ele>244.0</ele><time>2026-05-04T13:06:37.001Z</time></trkpt><trkpt lat="43.14361261808786" lon="11.519894233651108"><ele>245.0</ele><time>2026-05-04T13:06:38.001Z</time></trkpt><trkpt lat="43.14363877834534" lon="11.52008590642533"><ele>246.0</ele><time>2026-05-04T13:06:39.001Z</time></trkpt><trkpt lat="43.143647247807024" lon="11.520228638188758"><ele>247.0</ele><time>2026-05-04T13:06:40.001Z</time></trkpt><trkpt lat="43.14365122026914" lon="11.520357645861944"><ele>248.39999999999998</ele><time>2026-05-04T13:06:41.001Z</time></trkpt><trkpt lat="43.143661996691" lon="11.520479283448195"><ele>249.79999999999998</ele><time>2026-05-04T13:06:42.001Z</time></trkpt><trkpt lat="43.14356629235968" lon="11.520607050091629"><ele>251.2</ele><time>2026-05-04T13:06:43.001Z</time></trkpt><trkpt lat="43.143523817696085" lon="11.520730988931492"><ele>252.6</ele><time>2026-05-04T13:06:44.001Z</time></trkpt><trkpt lat="43.14348317754486" lon="11.520865263836882"><ele>254.0</ele><time>2026-05-04T13:06:45.001Z</time></trkpt><trkpt lat="43.1434479903502" lon="11.520999314188455"><ele>254.0</ele><time>2026-05-04T13:06:46.001Z</time></trkpt><trkpt lat="43.14341638135268" lon="11.521131121575081"><ele>253.99999999999997</ele><time>2026-05-04T13:06:47.001Z</time></trkpt><trkpt lat="43.143391275970295" lon="11.52128150288832"><ele>253.99999999999997</ele><time>2026-05-04T13:06:48.001Z</time></trkpt><trkpt lat="43.143379757248226" lon="11.521432134344016"><ele>254.0</ele><time>2026-05-04T13:06:49.001Z</time></trkpt><trkpt lat="43.14337911659626" lon="11.521581771088721"><ele>254.0</ele><time>2026-05-04T13:06:50.001Z</time></trkpt><trkpt lat="43.14339195164067" lon="11.521720903844937"><ele>253.79999999999998</ele><time>2026-05-04T13:06:51Z</time></trkpt><trkpt lat="43.14342152519263" lon="11.521831758366087"><ele>253.59999999999997</ele><time>2026-05-04T13:06:52Z</time></trkpt><trkpt lat="43.14347067662116" lon="11.521934336008364"><ele>253.4</ele><time>2026-05-04T13:06:53Z</time></trkpt><trkpt lat="43.14353521785093" lon="11.522040479985078"><ele>253.2</ele><time>2026-05-04T13:06:54Z</time></trkpt><trkpt lat="43.14360495205761" lon="11.52212909129937"><ele>253.0</ele><time>2026-05-04T13:06:55Z</time></trkpt><trkpt lat="43.14367928794126" lon="11.522211077891432"><ele>252.66666666666666</ele><time>2026-05-04T13:06:56Z</time></trkpt><trkpt lat="43.14375733600227" lon="11.522280365216595"><ele>252.33333333333331</ele><time>2026-05-04T13:06:57Z</time></trkpt><trkpt lat="43.14384408925669" lon="11.522344133194878"><ele>252.0</ele><time>2026-05-04T13:06:58Z</time></trkpt><trkpt lat="43.1439191736289" lon="11.522404925811312"><ele>251.66666666666669</ele><time>2026-05-04T13:06:59Z</time></trkpt><trkpt lat="43.14397861875688" lon="11.522456693195432"><ele>251.33333333333334</ele><time>2026-05-04T13:07:00Z</time></trkpt><trkpt lat="43.14403507884122" lon="11.522499321373367"><ele>251.0</ele><time>2026-05-04T13:07:01Z</time></trkpt><trkpt lat="43.144110293135554" lon="11.52257834060277"><ele>251.0</ele><time>2026-05-04T13:07:03Z</time></trkpt><trkpt lat="43.14418060157226" lon="11.522692511116526"><ele>251.00000000000003</ele><time>2026-05-04T13:07:09Z</time></trkpt><trkpt lat="43.1442303321509" lon="11.522857181934896"><ele>251.00000000000003</ele><time>2026-05-04T13:07:11Z</time></trkpt><trkpt lat="43.14424623705196" lon="11.522949323436507"><ele>251.0</ele><time>2026-05-04T13:07:12Z</time></trkpt><trkpt lat="43.14426200378291" lon="11.523079962780956"><ele>251.0</ele><time>2026-05-04T13:07:13Z</time></trkpt><trkpt lat="43.144245039007224" lon="11.523248200689109"><ele>250.4</ele><time>2026-05-04T13:07:14Z</time></trkpt><trkpt lat="43.144242794487226" lon="11.523383326925948"><ele>249.8</ele><time>2026-05-04T13:07:15Z</time></trkpt><trkpt lat="43.144258668333435" lon="11.523544207510655"><ele>249.20000000000002</ele><time>2026-05-04T13:07:16Z</time></trkpt><trkpt lat="43.14429979676283" lon="11.52370712719723"><ele>248.60000000000002</ele><time>2026-05-04T13:07:17Z</time></trkpt><trkpt lat="43.14436176435595" lon="11.523822897070133"><ele>248.0</ele><time>2026-05-04T13:07:18Z</time></trkpt><trkpt lat="43.14442509824472" lon="11.523876153113042"><ele>248.0</ele><time>2026-05-04T13:07:19Z</time></trkpt><trkpt lat="43.144480628548635" lon="11.523981971788828"><ele>248.0</ele><time>2026-05-04T13:07:20Z</time></trkpt><trkpt lat="43.14433572810883" lon="11.524284962957779"><ele>248.0</ele><time>2026-05-04T13:07:21Z</time></trkpt><trkpt lat="43.14436419184343" lon="11.524385218609662"><ele>248.0</ele><time>2026-05-04T13:07:22Z</time></trkpt><trkpt lat="43.14442126773212" lon="11.524506419899488"><ele>248.16666666666669</ele><time>2026-05-04T13:07:24Z</time></trkpt><trkpt lat="43.14448629798109" lon="11.5246002332853"><ele>248.33333333333334</ele><time>2026-05-04T13:07:26Z</time></trkpt><trkpt lat="43.14452309150765" lon="11.524686857293826"><ele>248.5</ele><time>2026-05-04T13:07:27Z</time></trkpt><trkpt lat="43.144557877778" lon="11.524780807464095"><ele>248.66666666666669</ele><time>2026-05-04T13:07:28Z</time></trkpt><trkpt lat="43.14459115076364" lon="11.52489812942267"><ele>248.83333333333334</ele><time>2026-05-04T13:07:29Z</time></trkpt><trkpt lat="43.144620092075726" lon="11.525026995034931"><ele>249.0</ele><time>2026-05-04T13:07:30Z</time></trkpt><trkpt lat="43.14463733158848" lon="11.525124155080812"><ele>249.0</ele><time>2026-05-04T13:07:31Z</time></trkpt><trkpt lat="43.14465610045399" lon="11.525236284605826"><ele>249.0</ele><time>2026-05-04T13:07:32Z</time></trkpt><trkpt lat="43.14467963540435" lon="11.525343687176468"><ele>249.0</ele><time>2026-05-04T13:07:33Z</time></trkpt><trkpt lat="43.144702007493024" lon="11.525440251758415"><ele>249.0</ele><time>2026-05-04T13:07:34Z</time></trkpt><trkpt lat="43.144723837476754" lon="11.525526271151389"><ele>249.0</ele><time>2026-05-04T13:07:35Z</time></trkpt><trkpt lat="43.144746809896" lon="11.525649057024982"><ele>249.0</ele><time>2026-05-04T13:07:37.001Z</time></trkpt><trkpt lat="43.144752325724234" lon="11.525735865225446"><ele>250.6</ele><time>2026-05-04T13:07:38.001Z</time></trkpt><trkpt lat="43.144773217220354" lon="11.525894163646592"><ele>252.2</ele><time>2026-05-04T13:07:40.001Z</time></trkpt><trkpt lat="43.14478839174049" lon="11.526001348915143"><ele>253.79999999999998</ele><time>2026-05-04T13:07:41.001Z</time></trkpt><trkpt lat="43.14479993057953" lon="11.526120415160154"><ele>255.39999999999998</ele><time>2026-05-04T13:07:42.001Z</time></trkpt><trkpt lat="43.1448081771869" lon="11.526243338741326"><ele>257.0</ele><time>2026-05-04T13:07:43.001Z</time></trkpt><trkpt lat="43.14481347003599" lon="11.52636741072188"><ele>257.6666666666667</ele><time>2026-05-04T13:07:44.001Z</time></trkpt><trkpt lat="43.14481909560347" lon="11.52650718545358"><ele>258.33333333333337</ele><time>2026-05-04T13:07:45.001Z</time></trkpt><trkpt lat="43.144823569099884" lon="11.526613371835026"><ele>259.0</ele><time>2026-05-04T13:07:46.001Z</time></trkpt><trkpt lat="43.14482666973197" lon="11.526708763059448"><ele>259.6666666666667</ele><time>2026-05-04T13:07:47.001Z</time></trkpt><trkpt lat="43.14483768802083" lon="11.526817693802357"><ele>260.3333333333333</ele><time>2026-05-04T13:07:48.001Z</time></trkpt><trkpt lat="43.14485592588217" lon="11.526934746756542"><ele>261.0</ele><time>2026-05-04T13:07:49.001Z</time></trkpt><trkpt lat="43.144881884762235" lon="11.527037526632517"><ele>263.2</ele><time>2026-05-04T13:07:50.001Z</time></trkpt><trkpt lat="43.14490993115295" lon="11.52712487386364"><ele>265.40000000000003</ele><time>2026-05-04T13:07:51.001Z</time></trkpt><trkpt lat="43.14498530544063" lon="11.52726928185286"><ele>267.6</ele><time>2026-05-04T13:07:53.001Z</time></trkpt><trkpt lat="43.1450479466292" lon="11.527354780163098"><ele>269.8</ele><time>2026-05-04T13:07:54.001Z</time></trkpt><trkpt lat="43.145113837151364" lon="11.527446095196447"><ele>272.0</ele><time>2026-05-04T13:07:55.001Z</time></trkpt><trkpt lat="43.145179591137634" lon="11.527549604671895"><ele>272.0</ele><time>2026-05-04T13:07:56.001Z</time></trkpt><trkpt lat="43.14524725361927" lon="11.527656794249188"><ele>272.0</ele><time>2026-05-04T13:07:57.001Z</time></trkpt><trkpt lat="43.145311085257255" lon="11.527754188868615"><ele>272.0</ele><time>2026-05-04T13:07:58.001Z</time></trkpt><trkpt lat="43.1453716895904" lon="11.527839782358411"><ele>272.0</ele><time>2026-05-04T13:07:59.001Z</time></trkpt><trkpt lat="43.145413588460485" lon="11.52790846417377"><ele>272.0</ele><time>2026-05-04T13:08:00.001Z</time></trkpt><trkpt lat="43.14546003727453" lon="11.52800203565772"><ele>272.0</ele><time>2026-05-04T13:08:01.001Z</time></trkpt><trkpt lat="43.14550790744812" lon="11.528101901352732"><ele>272.4285714285714</ele><time>2026-05-04T13:08:02.001Z</time></trkpt><trkpt lat="43.145555894444016" lon="11.5282009115835"><ele>272.85714285714283</ele><time>2026-05-04T13:08:03.001Z</time></trkpt><trkpt lat="43.14560486131564" lon="11.528273753845227"><ele>273.2857142857143</ele><time>2026-05-04T13:08:04.001Z</time></trkpt><trkpt lat="43.14566106688622" lon="11.52832271647764"><ele>273.71428571428567</ele><time>2026-05-04T13:08:05.001Z</time></trkpt><trkpt lat="43.14572119865586" lon="11.528359380857735"><ele>274.1428571428571</ele><time>2026-05-04T13:08:06.001Z</time></trkpt><trkpt lat="43.14577890293263" lon="11.528403537531405"><ele>274.57142857142856</ele><time>2026-05-04T13:08:07.001Z</time></trkpt><trkpt lat="43.14584944160577" lon="11.528459607562889"><ele>275.0</ele><time>2026-05-04T13:08:08.001Z</time></trkpt><trkpt lat="43.145955040985896" lon="11.528531577964163"><ele>275.0</ele><time>2026-05-04T13:08:10.001Z</time></trkpt><trkpt lat="43.146060876031754" lon="11.528606688249099"><ele>275.0</ele><time>2026-05-04T13:08:12.001Z</time></trkpt><trkpt lat="43.14611862639139" lon="11.528664259031922"><ele>275.0</ele><time>2026-05-04T13:08:13.001Z</time></trkpt><trkpt lat="43.146171610219184" lon="11.528733253572705"><ele>275.0</ele><time>2026-05-04T13:08:14.001Z</time></trkpt><trkpt lat="43.146219009748556" lon="11.528803728899206"><ele>275.0</ele><time>2026-05-04T13:08:15.001Z</time></trkpt><trkpt lat="43.146264742973116" lon="11.528870399208552"><ele>275.0</ele><time>2026-05-04T13:08:16.001Z</time></trkpt><trkpt lat="43.14631507135657" lon="11.528933008405971"><ele>275.0</ele><time>2026-05-04T13:08:17.001Z</time></trkpt><trkpt lat="43.146375553936196" lon="11.52900449162163"><ele>275.0</ele><time>2026-05-04T13:08:18.001Z</time></trkpt><trkpt lat="43.1464414704756" lon="11.529090198956588"><ele>275.0</ele><time>2026-05-04T13:08:19.001Z</time></trkpt><trkpt lat="43.14652108018262" lon="11.52919455413154"><ele>275.0</ele><time>2026-05-04T13:08:20.001Z</time></trkpt><trkpt lat="43.14660900989152" lon="11.529308478241589"><ele>275.0</ele><time>2026-05-04T13:08:21.001Z</time></trkpt><trkpt lat="43.146695756366015" lon="11.529411859752637"><ele>275.8</ele><time>2026-05-04T13:08:22.001Z</time></trkpt><trkpt lat="43.146780087868706" lon="11.529519737757548"><ele>276.6</ele><time>2026-05-04T13:08:23.001Z</time></trkpt><trkpt lat="43.14686834554749" lon="11.529637759783608"><ele>277.4</ele><time>2026-05-04T13:08:24.001Z</time></trkpt><trkpt lat="43.14694571229386" lon="11.529741139020093"><ele>278.2</ele><time>2026-05-04T13:08:25.001Z</time></trkpt><trkpt lat="43.14701534868178" lon="11.529831685994521"><ele>279.0</ele><time>2026-05-04T13:08:26.001Z</time></trkpt><trkpt lat="43.14708521208555" lon="11.529924689976392"><ele>280.0</ele><time>2026-05-04T13:08:27.001Z</time></trkpt><trkpt lat="43.147151781315344" lon="11.530022647389444"><ele>281.0</ele><time>2026-05-04T13:08:28.001Z</time></trkpt><trkpt lat="43.14721379771549" lon="11.530117084801518"><ele>282.0</ele><time>2026-05-04T13:08:29.001Z</time></trkpt><trkpt lat="43.14727894381139" lon="11.530233554386554"><ele>283.0</ele><time>2026-05-04T13:08:30.001Z</time></trkpt><trkpt lat="43.14733899488836" lon="11.530340755533171"><ele>284.0</ele><time>2026-05-04T13:08:31.001Z</time></trkpt><trkpt lat="43.147397216804315" lon="11.53044765905814"><ele>286.8</ele><time>2026-05-04T13:08:32.001Z</time></trkpt><trkpt lat="43.14745192898925" lon="11.530539853127085"><ele>289.59999999999997</ele><time>2026-05-04T13:08:33.001Z</time></trkpt><trkpt lat="43.14749795460866" lon="11.530600533710304"><ele>292.4</ele><time>2026-05-04T13:08:34.001Z</time></trkpt><trkpt lat="43.147549733926255" lon="11.530674600343817"><ele>295.2</ele><time>2026-05-04T13:08:35.001Z</time></trkpt><trkpt lat="43.14759420780521" lon="11.530805647262508"><ele>298.0</ele><time>2026-05-04T13:08:37.001Z</time></trkpt><trkpt lat="43.147623741192405" lon="11.530991584567287"><ele>298.0</ele><time>2026-05-04T13:08:39.002Z</time></trkpt><trkpt lat="43.14764772628017" lon="11.531083894984768"><ele>298.0</ele><time>2026-05-04T13:08:40Z</time></trkpt><trkpt lat="43.147655032660516" lon="11.531217543495153"><ele>298.0</ele><time>2026-05-04T13:08:42Z</time></trkpt><trkpt lat="43.14762084211765" lon="11.531312839107773"><ele>298.0</ele><time>2026-05-04T13:08:44Z</time></trkpt><trkpt lat="43.14764909433935" lon="11.53142862975459"><ele>298.0</ele><time>2026-05-04T13:08:46Z</time></trkpt><trkpt lat="43.14771858575359" lon="11.531544331588963"><ele>298.0</ele><time>2026-05-04T13:08:48Z</time></trkpt><trkpt lat="43.14778849339705" lon="11.531652067724654"><ele>297.66666666666663</ele><time>2026-05-04T13:08:50Z</time></trkpt><trkpt lat="43.147850313275214" lon="11.531759476251898"><ele>297.3333333333333</ele><time>2026-05-04T13:08:52Z</time></trkpt><trkpt lat="43.14790493078947" lon="11.53184278555856"><ele>297.0</ele><time>2026-05-04T13:08:54Z</time></trkpt><trkpt lat="43.14795203447046" lon="11.531927700474322"><ele>296.6666666666667</ele><time>2026-05-04T13:08:56Z</time></trkpt><trkpt lat="43.147992569283545" lon="11.532001772349526"><ele>296.33333333333337</ele><time>2026-05-04T13:08:58Z</time></trkpt><trkpt lat="43.148033125038424" lon="11.532083096424333"><ele>296.0</ele><time>2026-05-04T13:09:01Z</time></trkpt><trkpt lat="43.14808474321951" lon="11.532172157286734"><ele>295.33333333333337</ele><time>2026-05-04T13:09:03Z</time></trkpt><trkpt lat="43.14815451480481" lon="11.532293019949929"><ele>294.6666666666667</ele><time>2026-05-04T13:09:05Z</time></trkpt><trkpt lat="43.14820590884231" lon="11.532367051961431"><ele>294.0</ele><time>2026-05-04T13:09:06Z</time></trkpt><trkpt lat="43.14825583461453" lon="11.53244741124502"><ele>293.3333333333333</ele><time>2026-05-04T13:09:07Z</time></trkpt><trkpt lat="43.148302308279845" lon="11.532537368531163"><ele>292.66666666666663</ele><time>2026-05-04T13:09:08Z</time></trkpt><trkpt lat="43.14834005784181" lon="11.532642438647503"><ele>292.0</ele><time>2026-05-04T13:09:09Z</time></trkpt><trkpt lat="43.148367310510146" lon="11.532752002494833"><ele>292.4</ele><time>2026-05-04T13:09:10Z</time></trkpt><trkpt lat="43.14841637337745" lon="11.532954612702694"><ele>292.79999999999995</ele><time>2026-05-04T13:09:12Z</time></trkpt><trkpt lat="43.14846428296197" lon="11.533045135269429"><ele>293.2</ele><time>2026-05-04T13:09:13Z</time></trkpt><trkpt lat="43.148517675675166" lon="11.533143002748437"><ele>293.59999999999997</ele><time>2026-05-04T13:09:14Z</time></trkpt><trkpt lat="43.14858001381765" lon="11.533264920410634"><ele>294.0</ele><time>2026-05-04T13:09:15Z</time></trkpt><trkpt lat="43.14864506054792" lon="11.533398022776232"><ele>294.0</ele><time>2026-05-04T13:09:16Z</time></trkpt><trkpt lat="43.14871662825861" lon="11.5335322188132"><ele>294.0</ele><time>2026-05-04T13:09:17Z</time></trkpt><trkpt lat="43.14878083685987" lon="11.533642283280635"><ele>294.0</ele><time>2026-05-04T13:09:18Z</time></trkpt><trkpt lat="43.14884011315763" lon="11.533724012332867"><ele>294.0</ele><time>2026-05-04T13:09:19Z</time></trkpt><trkpt lat="43.148906266499374" lon="11.533804420295215"><ele>294.0</ele><time>2026-05-04T13:09:20Z</time></trkpt><trkpt lat="43.148961024084876" lon="11.53388042458839"><ele>293.5</ele><time>2026-05-04T13:09:21Z</time></trkpt><trkpt lat="43.149018072617004" lon="11.53396019165075"><ele>293.0</ele><time>2026-05-04T13:09:22Z</time></trkpt><trkpt lat="43.149085518273715" lon="11.534023824270829"><ele>292.5</ele><time>2026-05-04T13:09:23Z</time></trkpt><trkpt lat="43.14916946441973" lon="11.53409882229202"><ele>292.0</ele><time>2026-05-04T13:09:24Z</time></trkpt><trkpt lat="43.14921843750991" lon="11.534164183665167"><ele>291.5</ele><time>2026-05-04T13:09:25Z</time></trkpt><trkpt lat="43.1492552875141" lon="11.53425509728033"><ele>291.0</ele><time>2026-05-04T13:09:26Z</time></trkpt><trkpt lat="43.1492729691927" lon="11.534357815529086"><ele>292.0</ele><time>2026-05-04T13:09:27Z</time></trkpt><trkpt lat="43.14929922365325" lon="11.534466389646735"><ele>293.0</ele><time>2026-05-04T13:09:28Z</time></trkpt><trkpt lat="43.14934227719808" lon="11.53454478144364"><ele>294.0</ele><time>2026-05-04T13:09:29Z</time></trkpt><trkpt lat="43.14939076064541" lon="11.53462094889672"><ele>295.0</ele><time>2026-05-04T13:09:30Z</time></trkpt><trkpt lat="43.14943758414726" lon="11.534725676081385"><ele>296.0</ele><time>2026-05-04T13:09:31Z</time></trkpt><trkpt lat="43.14948480958769" lon="11.534848115597846"><ele>297.0</ele><time>2026-05-04T13:09:32Z</time></trkpt><trkpt lat="43.14954004047136" lon="11.53497168657768"><ele>297.0</ele><time>2026-05-04T13:09:33Z</time></trkpt><trkpt lat="43.14960006556368" lon="11.535092977089125"><ele>297.0</ele><time>2026-05-04T13:09:34Z</time></trkpt><trkpt lat="43.149666125077594" lon="11.535206844917987"><ele>297.0</ele><time>2026-05-04T13:09:35Z</time></trkpt><trkpt lat="43.149712623738836" lon="11.535319874116341"><ele>297.0</ele><time>2026-05-04T13:09:36Z</time></trkpt><trkpt lat="43.1497514053591" lon="11.535448626541504"><ele>297.0</ele><time>2026-05-04T13:09:37Z</time></trkpt><trkpt lat="43.149788967725144" lon="11.535585363519203"><ele>295.4</ele><time>2026-05-04T13:09:38Z</time></trkpt><trkpt lat="43.149819730293515" lon="11.535701477204602"><ele>293.79999999999995</ele><time>2026-05-04T13:09:39Z</time></trkpt><trkpt lat="43.149849239976405" lon="11.535803152713118"><ele>292.2</ele><time>2026-05-04T13:09:40Z</time></trkpt><trkpt lat="43.14990238590143" lon="11.535960894305727"><ele>290.59999999999997</ele><time>2026-05-04T13:09:42Z</time></trkpt><trkpt lat="43.14993462027416" lon="11.536083804774345"><ele>289.0</ele><time>2026-05-04T13:09:43Z</time></trkpt><trkpt lat="43.149965187643986" lon="11.53616550450217"><ele>292.5</ele><time>2026-05-04T13:09:44Z</time></trkpt><trkpt lat="43.15000465949521" lon="11.536233919482093"><ele>296.0</ele><time>2026-05-04T13:09:45Z</time></trkpt><trkpt lat="43.15005960654262" lon="11.536320353943612"><ele>299.5</ele><time>2026-05-04T13:09:46Z</time></trkpt><trkpt lat="43.15011320938816" lon="11.536377646474753"><ele>303.0</ele><time>2026-05-04T13:09:47Z</time></trkpt><trkpt lat="43.15016533439351" lon="11.536440145743507"><ele>306.5</ele><time>2026-05-04T13:09:48.001Z</time></trkpt><trkpt lat="43.15026626048568" lon="11.536521342597913"><ele>310.0</ele><time>2026-05-04T13:09:50.001Z</time></trkpt><trkpt lat="43.150335053927364" lon="11.536554194343488"><ele>310.0</ele><time>2026-05-04T13:09:51.001Z</time></trkpt><trkpt lat="43.150421722530055" lon="11.536640548826751"><ele>310.0</ele><time>2026-05-04T13:09:53.001Z</time></trkpt><trkpt lat="43.150453573538364" lon="11.536821012965506"><ele>310.0</ele><time>2026-05-04T13:09:55.001Z</time></trkpt><trkpt lat="43.15047632354179" lon="11.536948111763353"><ele>310.0</ele><time>2026-05-04T13:09:56.001Z</time></trkpt><trkpt lat="43.150503431157844" lon="11.53709521842896"><ele>310.0</ele><time>2026-05-04T13:09:57.001Z</time></trkpt><trkpt lat="43.150541890461" lon="11.537248123511265"><ele>309.6</ele><time>2026-05-04T13:09:58.001Z</time></trkpt><trkpt lat="43.15057284749016" lon="11.537404576843567"><ele>309.2</ele><time>2026-05-04T13:09:59.001Z</time></trkpt><trkpt lat="43.15059289092997" lon="11.53753756096897"><ele>308.8</ele><time>2026-05-04T13:10:00.001Z</time></trkpt><trkpt lat="43.150601141844106" lon="11.537636038983548"><ele>308.4</ele><time>2026-05-04T13:10:01.001Z</time></trkpt><trkpt lat="43.15060612720934" lon="11.537742343874267"><ele>308.0</ele><time>2026-05-04T13:10:03.001Z</time></trkpt><trkpt lat="43.15049958424918" lon="11.53783909343233"><ele>309.2</ele><time>2026-05-04T13:10:04.001Z</time></trkpt><trkpt lat="43.1504516291141" lon="11.537975893267243"><ele>310.4</ele><time>2026-05-04T13:10:05.001Z</time></trkpt><trkpt lat="43.15039839750849" lon="11.538100194454293"><ele>311.59999999999997</ele><time>2026-05-04T13:10:06.001Z</time></trkpt><trkpt lat="43.15034455350482" lon="11.53819345464448"><ele>312.8</ele><time>2026-05-04T13:10:07.001Z</time></trkpt><trkpt lat="43.150284068960985" lon="11.538284821261948"><ele>314.0</ele><time>2026-05-04T13:10:08.001Z</time></trkpt><trkpt lat="43.15022484697673" lon="11.538352980700303"><ele>314.0</ele><time>2026-05-04T13:10:09.001Z</time></trkpt><trkpt lat="43.150157858345466" lon="11.538403203140334"><ele>314.0</ele><time>2026-05-04T13:10:10.001Z</time></trkpt><trkpt lat="43.15008795252245" lon="11.538440015530446"><ele>314.0</ele><time>2026-05-04T13:10:11.001Z</time></trkpt><trkpt lat="43.150015491353194" lon="11.538467774557754"><ele>314.0</ele><time>2026-05-04T13:10:12.001Z</time></trkpt><trkpt lat="43.149931656367244" lon="11.53849209805744"><ele>314.0</ele><time>2026-05-04T13:10:13.001Z</time></trkpt><trkpt lat="43.14985365070107" lon="11.538501015600975"><ele>314.0</ele><time>2026-05-04T13:10:14.001Z</time></trkpt><trkpt lat="43.14976329169291" lon="11.538533841541447"><ele>312.5</ele><time>2026-05-04T13:10:15.001Z</time></trkpt><trkpt lat="43.14967419365713" lon="11.538518587137242"><ele>311.0</ele><time>2026-05-04T13:10:16.001Z</time></trkpt><trkpt lat="43.14958294968176" lon="11.538526091729121"><ele>309.5</ele><time>2026-05-04T13:10:17.001Z</time></trkpt><trkpt lat="43.1494970914938" lon="11.538556055599667"><ele>308.0</ele><time>2026-05-04T13:10:18.001Z</time></trkpt><trkpt lat="43.14940654861474" lon="11.538563892351638"><ele>306.5</ele><time>2026-05-04T13:10:19.001Z</time></trkpt><trkpt lat="43.14932810063728" lon="11.538621073592466"><ele>305.0</ele><time>2026-05-04T13:10:20.001Z</time></trkpt><trkpt lat="43.14925434948559" lon="11.538666847136277"><ele>305.0</ele><time>2026-05-04T13:10:21.001Z</time></trkpt><trkpt lat="43.14917842081453" lon="11.538703799892188"><ele>305.0</ele><time>2026-05-04T13:10:22.001Z</time></trkpt><trkpt lat="43.14910248198653" lon="11.53869523135817"><ele>305.0</ele><time>2026-05-04T13:10:23.001Z</time></trkpt><trkpt lat="43.149021699982846" lon="11.538690039976512"><ele>305.0</ele><time>2026-05-04T13:10:24.001Z</time></trkpt><trkpt lat="43.14893719939501" lon="11.538715198316883"><ele>305.0</ele><time>2026-05-04T13:10:25.001Z</time></trkpt><trkpt lat="43.14883595588914" lon="11.538720379489595"><ele>305.0</ele><time>2026-05-04T13:10:26.001Z</time></trkpt><trkpt lat="43.148726031555405" lon="11.538705990429074"><ele>304.8</ele><time>2026-05-04T13:10:27.001Z</time></trkpt><trkpt lat="43.148618061808186" lon="11.53871014759243"><ele>304.6</ele><time>2026-05-04T13:10:28.001Z</time></trkpt><trkpt lat="43.14851800951796" lon="11.538736075231354"><ele>304.4</ele><time>2026-05-04T13:10:29.001Z</time></trkpt><trkpt lat="43.14842332300337" lon="11.53873538319823"><ele>304.2</ele><time>2026-05-04T13:10:30.001Z</time></trkpt><trkpt lat="43.14832946728533" lon="11.538744857875754"><ele>304.0</ele><time>2026-05-04T13:10:31.001Z</time></trkpt><trkpt lat="43.148243063865685" lon="11.53872039455449"><ele>302.66666666666663</ele><time>2026-05-04T13:10:32.001Z</time></trkpt><trkpt lat="43.148157771652016" lon="11.538708062840008"><ele>301.3333333333333</ele><time>2026-05-04T13:10:33.001Z</time></trkpt><trkpt lat="43.148082220357104" lon="11.538661366267894"><ele>300.0</ele><time>2026-05-04T13:10:34.001Z</time></trkpt><trkpt lat="43.14800883359734" lon="11.538608343733092"><ele>298.6666666666667</ele><time>2026-05-04T13:10:35.001Z</time></trkpt><trkpt lat="43.14793497550196" lon="11.538573656392991"><ele>297.33333333333337</ele><time>2026-05-04T13:10:36.001Z</time></trkpt><trkpt lat="43.14784745922774" lon="11.53857676138383"><ele>296.0</ele><time>2026-05-04T13:10:37.001Z</time></trkpt><trkpt lat="43.147774409609994" lon="11.53857400691209"><ele>296.0</ele><time>2026-05-04T13:10:38.001Z</time></trkpt><trkpt lat="43.14769247149373" lon="11.538561185471263"><ele>296.0</ele><time>2026-05-04T13:10:39.001Z</time></trkpt><trkpt lat="43.147602578357855" lon="11.53858463406068"><ele>296.0</ele><time>2026-05-04T13:10:40.001Z</time></trkpt><trkpt lat="43.14753640258981" lon="11.53864221553356"><ele>296.0</ele><time>2026-05-04T13:10:41.001Z</time></trkpt><trkpt lat="43.14747208464883" lon="11.538691588438457"><ele>296.0</ele><time>2026-05-04T13:10:42.001Z</time></trkpt><trkpt lat="43.147413774541356" lon="11.53874560898474"><ele>296.0</ele><time>2026-05-04T13:10:43.001Z</time></trkpt><trkpt lat="43.14734154878616" lon="11.53880850378871"><ele>296.83333333333337</ele><time>2026-05-04T13:10:44.001Z</time></trkpt><trkpt lat="43.14725603119858" lon="11.538819001802644"><ele>297.6666666666667</ele><time>2026-05-04T13:10:45.001Z</time></trkpt><trkpt lat="43.14716808452759" lon="11.53886692348465"><ele>298.5</ele><time>2026-05-04T13:10:46Z</time></trkpt><trkpt lat="43.14708836659844" lon="11.538945166272851"><ele>299.3333333333333</ele><time>2026-05-04T13:10:47Z</time></trkpt><trkpt lat="43.147013361323445" lon="11.539013996269015"><ele>300.16666666666663</ele><time>2026-05-04T13:10:48Z</time></trkpt><trkpt lat="43.146960987006935" lon="11.539068659298085"><ele>301.0</ele><time>2026-05-04T13:10:49Z</time></trkpt><trkpt lat="43.146840786595" lon="11.539053838838305"><ele>301.0</ele><time>2026-05-04T13:10:51Z</time></trkpt><trkpt lat="43.14674208148626" lon="11.539084913918668"><ele>301.0</ele><time>2026-05-04T13:10:52Z</time></trkpt><trkpt lat="43.146634222479946" lon="11.53909974947366"><ele>301.0</ele><time>2026-05-04T13:10:52.999Z</time></trkpt><trkpt lat="43.14653681074309" lon="11.539128440635375"><ele>301.0</ele><time>2026-05-04T13:10:53.999Z</time></trkpt><trkpt lat="43.146459894243" lon="11.53916882319959"><ele>301.0</ele><time>2026-05-04T13:10:54.999Z</time></trkpt><trkpt lat="43.146384803507985" lon="11.539227667914899"><ele>301.5</ele><time>2026-05-04T13:10:55.999Z</time></trkpt><trkpt lat="43.14631474186545" lon="11.539290870158167"><ele>302.0</ele><time>2026-05-04T13:10:56.999Z</time></trkpt><trkpt lat="43.14625248360986" lon="11.539342426781044"><ele>302.5</ele><time>2026-05-04T13:10:57.999Z</time></trkpt><trkpt lat="43.146137471248075" lon="11.53943193869457"><ele>303.0</ele><time>2026-05-04T13:10:59.999Z</time></trkpt><trkpt lat="43.14608815285491" lon="11.539491949748573"><ele>303.5</ele><time>2026-05-04T13:11:00.999Z</time></trkpt><trkpt lat="43.146013168994486" lon="11.539545383981602"><ele>304.0</ele><time>2026-05-04T13:11:01.999Z</time></trkpt><trkpt lat="43.14593092772807" lon="11.539626398678847"><ele>302.2</ele><time>2026-05-04T13:11:02.999Z</time></trkpt><trkpt lat="43.1458503717932" lon="11.53970575318132"><ele>300.4</ele><time>2026-05-04T13:11:04Z</time></trkpt><trkpt lat="43.145785465399996" lon="11.539796330194935"><ele>298.6</ele><time>2026-05-04T13:11:05Z</time></trkpt><trkpt lat="43.145704340610834" lon="11.539869702614293"><ele>296.8</ele><time>2026-05-04T13:11:06Z</time></trkpt><trkpt lat="43.14563814945017" lon="11.539932608533881"><ele>295.0</ele><time>2026-05-04T13:11:07Z</time></trkpt><trkpt lat="43.145569737532945" lon="11.540003096679081"><ele>294.66666666666663</ele><time>2026-05-04T13:11:08Z</time></trkpt><trkpt lat="43.14549736715166" lon="11.5400448611016"><ele>294.3333333333333</ele><time>2026-05-04T13:11:09Z</time></trkpt><trkpt lat="43.14540678194464" lon="11.540138335903302"><ele>294.0</ele><time>2026-05-04T13:11:11Z</time></trkpt><trkpt lat="43.145357176476544" lon="11.540066125498917"><ele>293.6666666666667</ele><time>2026-05-04T13:11:13Z</time></trkpt><trkpt lat="43.14528984166232" lon="11.540009103538639"><ele>293.33333333333337</ele><time>2026-05-04T13:11:15Z</time></trkpt><trkpt lat="43.1452240063331" lon="11.539966705307018"><ele>293.0</ele><time>2026-05-04T13:11:17Z</time></trkpt><trkpt lat="43.145138734291" lon="11.539917652895634"><ele>293.0</ele><time>2026-05-04T13:11:19Z</time></trkpt><trkpt lat="43.14504656698166" lon="11.539877168003159"><ele>293.0</ele><time>2026-05-04T13:11:21Z</time></trkpt><trkpt lat="43.144963664154695" lon="11.539850595351574"><ele>293.0</ele><time>2026-05-04T13:11:23Z</time></trkpt><trkpt lat="43.144865548245335" lon="11.539851090877633"><ele>293.0</ele><time>2026-05-04T13:11:25Z</time></trkpt><trkpt lat="43.14477579366474" lon="11.539840268873844"><ele>293.0</ele><time>2026-05-04T13:11:27Z</time></trkpt><trkpt lat="43.14468087967779" lon="11.539814736114716"><ele>290.33333333333337</ele><time>2026-05-04T13:11:29Z</time></trkpt><trkpt lat="43.14460709434147" lon="11.539778604524589"><ele>287.6666666666667</ele><time>2026-05-04T13:11:31Z</time></trkpt><trkpt lat="43.144510201928476" lon="11.53977092408869"><ele>285.0</ele><time>2026-05-04T13:11:33Z</time></trkpt><trkpt lat="43.14442630385705" lon="11.539780442509972"><ele>282.3333333333333</ele><time>2026-05-04T13:11:35Z</time></trkpt><trkpt lat="43.14435614326055" lon="11.539805102168705"><ele>279.66666666666663</ele><time>2026-05-04T13:11:37Z</time></trkpt><trkpt lat="43.144262605300355" lon="11.539829273150069"><ele>277.0</ele><time>2026-05-04T13:11:39Z</time></trkpt><trkpt lat="43.14415280125081" lon="11.539842913866819"><ele>277.0</ele><time>2026-05-04T13:11:41Z</time></trkpt><trkpt lat="43.14405144547768" lon="11.53989800175895"><ele>277.0</ele><time>2026-05-04T13:11:43Z</time></trkpt><trkpt lat="43.143950910833134" lon="11.539908503074267"><ele>277.0</ele><time>2026-05-04T13:11:45Z</time></trkpt><trkpt lat="43.14385492643291" lon="11.539961968413886"><ele>277.0</ele><time>2026-05-04T13:11:47Z</time></trkpt><trkpt lat="43.14375918388277" lon="11.539992850738459"><ele>277.0</ele><time>2026-05-04T13:11:49Z</time></trkpt><trkpt lat="43.14366380207359" lon="11.540027815003102"><ele>273.8</ele><time>2026-05-04T13:11:51Z</time></trkpt><trkpt lat="43.143566927111294" lon="11.540043825678323"><ele>270.6</ele><time>2026-05-04T13:11:53Z</time></trkpt><trkpt lat="43.1434424665758" lon="11.54010115041127"><ele>267.40000000000003</ele><time>2026-05-04T13:11:55Z</time></trkpt><trkpt lat="43.14335627417021" lon="11.540125309439597"><ele>264.2</ele><time>2026-05-04T13:11:56Z</time></trkpt><trkpt lat="43.14327116794456" lon="11.540153292069164"><ele>261.0</ele><time>2026-05-04T13:11:57Z</time></trkpt><trkpt lat="43.14319786850163" lon="11.540169728162397"><ele>260.0</ele><time>2026-05-04T13:11:58Z</time></trkpt><trkpt lat="43.1431255768336" lon="11.540200197388607"><ele>259.0</ele><time>2026-05-04T13:11:59Z</time></trkpt><trkpt lat="43.1430556691376" lon="11.540234803855224"><ele>258.0</ele><time>2026-05-04T13:12:00Z</time></trkpt><trkpt lat="43.14296884633183" lon="11.540230955582937"><ele>257.0</ele><time>2026-05-04T13:12:01Z</time></trkpt><trkpt lat="43.1428940778257" lon="11.540220898522547"><ele>256.0</ele><time>2026-05-04T13:12:02Z</time></trkpt><trkpt lat="43.14282554064432" lon="11.540205181743646"><ele>255.0</ele><time>2026-05-04T13:12:03Z</time></trkpt><trkpt lat="43.142755716470255" lon="11.540204750731347"><ele>255.0</ele><time>2026-05-04T13:12:04Z</time></trkpt><trkpt lat="43.14267217741676" lon="11.54021084743731"><ele>255.0</ele><time>2026-05-04T13:12:05Z</time></trkpt><trkpt lat="43.14257129034475" lon="11.540196924562279"><ele>255.0</ele><time>2026-05-04T13:12:06Z</time></trkpt><trkpt lat="43.14247686297426" lon="11.540193245296543"><ele>255.0</ele><time>2026-05-04T13:12:07Z</time></trkpt><trkpt lat="43.14239406961244" lon="11.540186115276757"><ele>255.0</ele><time>2026-05-04T13:12:08Z</time></trkpt><trkpt lat="43.142316957945845" lon="11.54019708351184"><ele>255.0</ele><time>2026-05-04T13:12:09Z</time></trkpt><trkpt lat="43.142242978540345" lon="11.540209385092114"><ele>257.2</ele><time>2026-05-04T13:12:10Z</time></trkpt><trkpt lat="43.14216632070726" lon="11.5402702371979"><ele>259.4</ele><time>2026-05-04T13:12:12.001Z</time></trkpt><trkpt lat="43.142131978159846" lon="11.540421662924443"><ele>261.6</ele><time>2026-05-04T13:12:14.001Z</time></trkpt><trkpt lat="43.14211104585981" lon="11.540534680920894"><ele>263.8</ele><time>2026-05-04T13:12:15.001Z</time></trkpt><trkpt lat="43.14209071375816" lon="11.540662178090532"><ele>266.0</ele><time>2026-05-04T13:12:16.001Z</time></trkpt><trkpt lat="43.142073377698665" lon="11.540747933746513"><ele>267.1666666666667</ele><time>2026-05-04T13:12:17.001Z</time></trkpt><trkpt lat="43.141996071622344" lon="11.54081837285861"><ele>268.33333333333337</ele><time>2026-05-04T13:12:19.001Z</time></trkpt><trkpt lat="43.14190582325534" lon="11.540857380292893"><ele>269.5</ele><time>2026-05-04T13:12:21.001Z</time></trkpt><trkpt lat="43.14183252150099" lon="11.540867089704962"><ele>270.6666666666667</ele><time>2026-05-04T13:12:22.001Z</time></trkpt><trkpt lat="43.14174099727166" lon="11.540875192481687"><ele>271.8333333333333</ele><time>2026-05-04T13:12:23.001Z</time></trkpt><trkpt lat="43.141652039542365" lon="11.540876012868978"><ele>273.0</ele><time>2026-05-04T13:12:24.001Z</time></trkpt><trkpt lat="43.14155382948652" lon="11.540876585140298"><ele>274.2</ele><time>2026-05-04T13:12:25.001Z</time></trkpt><trkpt lat="43.14146432105843" lon="11.540876859396981"><ele>275.4</ele><time>2026-05-04T13:12:26.001Z</time></trkpt><trkpt lat="43.141385017380934" lon="11.54087456663707"><ele>276.59999999999997</ele><time>2026-05-04T13:12:27.001Z</time></trkpt><trkpt lat="43.141307770631094" lon="11.540864973165348"><ele>277.8</ele><time>2026-05-04T13:12:28.001Z</time></trkpt><trkpt lat="43.1412266858456" lon="11.540849690491019"><ele>279.0</ele><time>2026-05-04T13:12:29.001Z</time></trkpt><trkpt lat="43.14110565885308" lon="11.540932385198973"><ele>279.0</ele><time>2026-05-04T13:12:31.001Z</time></trkpt><trkpt lat="43.141023178905904" lon="11.541006033757009"><ele>279.0</ele><time>2026-05-04T13:12:32.001Z</time></trkpt><trkpt lat="43.140929021212266" lon="11.541087220173303"><ele>279.0</ele><time>2026-05-04T13:12:33.001Z</time></trkpt><trkpt lat="43.14083563620386" lon="11.541169457798002"><ele>279.0</ele><time>2026-05-04T13:12:34.001Z</time></trkpt><trkpt lat="43.140768542868024" lon="11.541249632468304"><ele>279.0</ele><time>2026-05-04T13:12:35.001Z</time></trkpt><trkpt lat="43.14071327317744" lon="11.541356369317878"><ele>279.75</ele><time>2026-05-04T13:12:36.001Z</time></trkpt><trkpt lat="43.14066080700048" lon="11.541501549185533"><ele>280.5</ele><time>2026-05-04T13:12:37.001Z</time></trkpt><trkpt lat="43.14060373308943" lon="11.541648930651181"><ele>281.25</ele><time>2026-05-04T13:12:38.001Z</time></trkpt><trkpt lat="43.140539642180904" lon="11.541788667540951"><ele>282.0</ele><time>2026-05-04T13:12:39.001Z</time></trkpt><trkpt lat="43.14048005766156" lon="11.54191410020188"><ele>282.0</ele><time>2026-05-04T13:12:40.001Z</time></trkpt><trkpt lat="43.14040960692314" lon="11.542025445685615"><ele>282.0</ele><time>2026-05-04T13:12:41.001Z</time></trkpt><trkpt lat="43.14035605674882" lon="11.542136392324155"><ele>282.0</ele><time>2026-05-04T13:12:42.001Z</time></trkpt><trkpt lat="43.140298115907605" lon="11.542245996096577"><ele>282.0</ele><time>2026-05-04T13:12:43.001Z</time></trkpt><trkpt lat="43.14023024930302" lon="11.542357330794944"><ele>282.0</ele><time>2026-05-04T13:12:44.001Z</time></trkpt><trkpt lat="43.14015341053249" lon="11.542457860945099"><ele>283.2</ele><time>2026-05-04T13:12:45.001Z</time></trkpt><trkpt lat="43.14006383271613" lon="11.542551469012773"><ele>284.4</ele><time>2026-05-04T13:12:46.001Z</time></trkpt><trkpt lat="43.13997617454135" lon="11.54262479699887"><ele>285.6</ele><time>2026-05-04T13:12:47.001Z</time></trkpt><trkpt lat="43.1398985688746" lon="11.542717155916874"><ele>286.8</ele><time>2026-05-04T13:12:48.001Z</time></trkpt><trkpt lat="43.13980496766799" lon="11.542800133155929"><ele>288.0</ele><time>2026-05-04T13:12:49.001Z</time></trkpt><trkpt lat="43.13971157869359" lon="11.542878063380757"><ele>291.2</ele><time>2026-05-04T13:12:50.001Z</time></trkpt><trkpt lat="43.139622479684554" lon="11.542967984453476"><ele>294.4</ele><time>2026-05-04T13:12:51.001Z</time></trkpt><trkpt lat="43.13953244343815" lon="11.543053994123087"><ele>297.59999999999997</ele><time>2026-05-04T13:12:52Z</time></trkpt><trkpt lat="43.1394500198309" lon="11.543141933449691"><ele>300.8</ele><time>2026-05-04T13:12:53Z</time></trkpt><trkpt lat="43.13937491350571" lon="11.543195603211341"><ele>304.0</ele><time>2026-05-04T13:12:54Z</time></trkpt><trkpt lat="43.139315050339725" lon="11.543230855247332"><ele>304.0</ele><time>2026-05-04T13:12:55Z</time></trkpt><trkpt lat="43.1392571962536" lon="11.543280112653482"><ele>304.0</ele><time>2026-05-04T13:12:56Z</time></trkpt><trkpt lat="43.13920135364225" lon="11.543345672387586"><ele>304.0</ele><time>2026-05-04T13:12:57Z</time></trkpt><trkpt lat="43.13913926913899" lon="11.543407041831102"><ele>304.0</ele><time>2026-05-04T13:12:58Z</time></trkpt><trkpt lat="43.13905530598993" lon="11.54347159088745"><ele>304.0</ele><time>2026-05-04T13:12:59Z</time></trkpt><trkpt lat="43.138979003944065" lon="11.543521510927441"><ele>304.0</ele><time>2026-05-04T13:13:00Z</time></trkpt><trkpt lat="43.138906322266706" lon="11.543542468337577"><ele>304.8333333333333</ele><time>2026-05-04T13:13:01Z</time></trkpt><trkpt lat="43.1388380446914" lon="11.543558980361826"><ele>305.66666666666663</ele><time>2026-05-04T13:13:02Z</time></trkpt><trkpt lat="43.13876908340774" lon="11.543566402616323"><ele>306.5</ele><time>2026-05-04T13:13:03Z</time></trkpt><trkpt lat="43.13868006364176" lon="11.54356455584829"><ele>307.3333333333333</ele><time>2026-05-04T13:13:04Z</time></trkpt><trkpt lat="43.138589129121165" lon="11.54355338546037"><ele>308.1666666666667</ele><time>2026-05-04T13:13:05Z</time></trkpt><trkpt lat="43.138519120911425" lon="11.543526418548602"><ele>309.0</ele><time>2026-05-04T13:13:06Z</time></trkpt><trkpt lat="43.13842993109595" lon="11.54349974304943"><ele>309.0</ele><time>2026-05-04T13:13:07Z</time></trkpt><trkpt lat="43.13835484501134" lon="11.543484303868224"><ele>309.0</ele><time>2026-05-04T13:13:08Z</time></trkpt><trkpt lat="43.13828192496236" lon="11.543499320221887"><ele>309.0</ele><time>2026-05-04T13:13:09Z</time></trkpt><trkpt lat="43.13821407786656" lon="11.543508836418095"><ele>309.0</ele><time>2026-05-04T13:13:10Z</time></trkpt><trkpt lat="43.13814194079817" lon="11.543545938509654"><ele>309.0</ele><time>2026-05-04T13:13:11Z</time></trkpt><trkpt lat="43.138047141190654" lon="11.543604967927664"><ele>309.0</ele><time>2026-05-04T13:13:12Z</time></trkpt><trkpt lat="43.13792920953043" lon="11.543645076639187"><ele>308.4</ele><time>2026-05-04T13:13:13Z</time></trkpt><trkpt lat="43.13781303706854" lon="11.543677026118218"><ele>307.79999999999995</ele><time>2026-05-04T13:13:14Z</time></trkpt><trkpt lat="43.13772326219704" lon="11.543718612360953"><ele>307.20000000000005</ele><time>2026-05-04T13:13:15Z</time></trkpt><trkpt lat="43.13764543022203" lon="11.543739748067425"><ele>306.6</ele><time>2026-05-04T13:13:16Z</time></trkpt><trkpt lat="43.13754045196863" lon="11.54381322335337"><ele>306.0</ele><time>2026-05-04T13:13:18Z</time></trkpt><trkpt lat="43.13746400533372" lon="11.543879676027357"><ele>306.0</ele><time>2026-05-04T13:13:19Z</time></trkpt><trkpt lat="43.13738195809584" lon="11.543940394548999"><ele>306.0</ele><time>2026-05-04T13:13:20Z</time></trkpt><trkpt lat="43.13729931118366" lon="11.544008878419707"><ele>306.0</ele><time>2026-05-04T13:13:21Z</time></trkpt><trkpt lat="43.1372289047348" lon="11.544087161041896"><ele>306.0</ele><time>2026-05-04T13:13:22Z</time></trkpt><trkpt lat="43.13715106489246" lon="11.544157709471817"><ele>306.0</ele><time>2026-05-04T13:13:23Z</time></trkpt><trkpt lat="43.13708153384761" lon="11.544231499448943"><ele>306.0</ele><time>2026-05-04T13:13:24Z</time></trkpt><trkpt lat="43.13698839584431" lon="11.5443114937538"><ele>306.0</ele><time>2026-05-04T13:13:25Z</time></trkpt><trkpt lat="43.13689285097448" lon="11.544383698261424"><ele>306.0</ele><time>2026-05-04T13:13:26Z</time></trkpt><trkpt lat="43.13679074028373" lon="11.544439831722023"><ele>306.0</ele><time>2026-05-04T13:13:27Z</time></trkpt><trkpt lat="43.136696537656455" lon="11.544502128224892"><ele>306.0</ele><time>2026-05-04T13:13:28Z</time></trkpt><trkpt lat="43.136588862216804" lon="11.544559012278446"><ele>307.0</ele><time>2026-05-04T13:13:29Z</time></trkpt><trkpt lat="43.13647452154135" lon="11.544597623685993"><ele>308.0</ele><time>2026-05-04T13:13:30Z</time></trkpt><trkpt lat="43.13637294165841" lon="11.544649152143784"><ele>309.0</ele><time>2026-05-04T13:13:31Z</time></trkpt><trkpt lat="43.13629543417013" lon="11.544720905404473"><ele>310.0</ele><time>2026-05-04T13:13:32Z</time></trkpt><trkpt lat="43.13620509545932" lon="11.544780826246049"><ele>311.0</ele><time>2026-05-04T13:13:33Z</time></trkpt><trkpt lat="43.136094236766716" lon="11.544840411205136"><ele>311.0</ele><time>2026-05-04T13:13:34Z</time></trkpt><trkpt lat="43.13598333416228" lon="11.544856088360868"><ele>311.0</ele><time>2026-05-04T13:13:35Z</time></trkpt><trkpt lat="43.13586755063795" lon="11.54488007102345"><ele>311.0</ele><time>2026-05-04T13:13:36Z</time></trkpt><trkpt lat="43.135749897222155" lon="11.54489070556936"><ele>311.0</ele><time>2026-05-04T13:13:37Z</time></trkpt><trkpt lat="43.13563491413795" lon="11.544884372913407"><ele>312.0</ele><time>2026-05-04T13:13:38Z</time></trkpt><trkpt lat="43.13551612616209" lon="11.544866898868978"><ele>313.0</ele><time>2026-05-04T13:13:39Z</time></trkpt><trkpt lat="43.13539658017911" lon="11.544837766684745"><ele>314.0</ele><time>2026-05-04T13:13:40Z</time></trkpt><trkpt lat="43.13528382591171" lon="11.544802948794748"><ele>315.0</ele><time>2026-05-04T13:13:41Z</time></trkpt><trkpt lat="43.13518139462781" lon="11.544765058864566"><ele>315.0</ele><time>2026-05-04T13:13:42Z</time></trkpt><trkpt lat="43.13507211728016" lon="11.54472447702667"><ele>315.0</ele><time>2026-05-04T13:13:43Z</time></trkpt><trkpt lat="43.13496216101634" lon="11.544701028923365"><ele>315.0</ele><time>2026-05-04T13:13:44Z</time></trkpt><trkpt lat="43.13483935855966" lon="11.54466576017561"><ele>315.0</ele><time>2026-05-04T13:13:45Z</time></trkpt><trkpt lat="43.13471167051799" lon="11.544621896091922"><ele>314.6</ele><time>2026-05-04T13:13:46Z</time></trkpt><trkpt lat="43.13459466896844" lon="11.544551024456094"><ele>314.2</ele><time>2026-05-04T13:13:47Z</time></trkpt><trkpt lat="43.13448568977383" lon="11.544503773298661"><ele>313.8</ele><time>2026-05-04T13:13:48Z</time></trkpt><trkpt lat="43.13439191133118" lon="11.544458235844477"><ele>313.4</ele><time>2026-05-04T13:13:49Z</time></trkpt><trkpt lat="43.13431005847341" lon="11.544408350206812"><ele>313.0</ele><time>2026-05-04T13:13:50Z</time></trkpt><trkpt lat="43.134230301448554" lon="11.544352327391518"><ele>313.0</ele><time>2026-05-04T13:13:51Z</time></trkpt><trkpt lat="43.13415448257874" lon="11.54429900070694"><ele>313.0</ele><time>2026-05-04T13:13:52Z</time></trkpt><trkpt lat="43.13406016532904" lon="11.54425818186693"><ele>313.0</ele><time>2026-05-04T13:13:53Z</time></trkpt><trkpt lat="43.13398232414135" lon="11.544193967535927"><ele>313.0</ele><time>2026-05-04T13:13:54Z</time></trkpt><trkpt lat="43.13389370306407" lon="11.544148924948216"><ele>313.0</ele><time>2026-05-04T13:13:55Z</time></trkpt><trkpt lat="43.13379885244544" lon="11.544100311927552"><ele>312.5</ele><time>2026-05-04T13:13:56Z</time></trkpt><trkpt lat="43.13370210305054" lon="11.54404269161941"><ele>312.0</ele><time>2026-05-04T13:13:57Z</time></trkpt><trkpt lat="43.1335915608739" lon="11.54398953978355"><ele>311.5</ele><time>2026-05-04T13:13:58Z</time></trkpt><trkpt lat="43.13348588109214" lon="11.543907471331897"><ele>311.0</ele><time>2026-05-04T13:13:59.001Z</time></trkpt><trkpt lat="43.133366720116975" lon="11.543859245036623"><ele>311.0</ele><time>2026-05-04T13:14:00.001Z</time></trkpt><trkpt lat="43.13325750412065" lon="11.543807020330528"><ele>311.0</ele><time>2026-05-04T13:14:01.001Z</time></trkpt><trkpt lat="43.133160103458344" lon="11.543755017020478"><ele>311.0</ele><time>2026-05-04T13:14:02.001Z</time></trkpt><trkpt lat="43.13306398920965" lon="11.543706402369114"><ele>311.0</ele><time>2026-05-04T13:14:03.001Z</time></trkpt><trkpt lat="43.13298021972002" lon="11.543643317347083"><ele>311.0</ele><time>2026-05-04T13:14:04.001Z</time></trkpt><trkpt lat="43.132897038052946" lon="11.543602802610895"><ele>309.6666666666667</ele><time>2026-05-04T13:14:05.001Z</time></trkpt><trkpt lat="43.13280804482994" lon="11.543581797690438"><ele>308.33333333333337</ele><time>2026-05-04T13:14:06.001Z</time></trkpt><trkpt lat="43.13273554988723" lon="11.543542979377305"><ele>307.0</ele><time>2026-05-04T13:14:07.001Z</time></trkpt><trkpt lat="43.1326624936716" lon="11.543483275124903"><ele>305.6666666666667</ele><time>2026-05-04T13:14:08.001Z</time></trkpt><trkpt lat="43.13259648655496" lon="11.543445256795144"><ele>304.3333333333333</ele><time>2026-05-04T13:14:09.001Z</time></trkpt><trkpt lat="43.13253290404162" lon="11.543422128585906"><ele>303.0</ele><time>2026-05-04T13:14:10.001Z</time></trkpt><trkpt lat="43.13247892146532" lon="11.543376403662968"><ele>303.0</ele><time>2026-05-04T13:14:11.001Z</time></trkpt><trkpt lat="43.13241597163969" lon="11.543366421496168"><ele>303.0</ele><time>2026-05-04T13:14:12.001Z</time></trkpt><trkpt lat="43.13233205634035" lon="11.543310950258022"><ele>303.0</ele><time>2026-05-04T13:14:14.001Z</time></trkpt><trkpt lat="43.13227932826265" lon="11.543361824421556"><ele>303.0</ele><time>2026-05-04T13:14:19.001Z</time></trkpt><trkpt lat="43.13234617164423" lon="11.543616424442048"><ele>303.0</ele><time>2026-05-04T13:14:20.001Z</time></trkpt><trkpt lat="43.13239283104222" lon="11.543709646888395"><ele>302.75</ele><time>2026-05-04T13:14:21.001Z</time></trkpt><trkpt lat="43.13244983776695" lon="11.543839183561317"><ele>302.5</ele><time>2026-05-04T13:14:22.001Z</time></trkpt><trkpt lat="43.13250619316128" lon="11.54401390828737"><ele>302.25</ele><time>2026-05-04T13:14:23.001Z</time></trkpt><trkpt lat="43.13256348662214" lon="11.544233634814438"><ele>302.0</ele><time>2026-05-04T13:14:24.001Z</time></trkpt><trkpt lat="43.13263003938566" lon="11.544502254287584"><ele>300.0</ele><time>2026-05-04T13:14:25.001Z</time></trkpt><trkpt lat="43.13270635081432" lon="11.54481214709195"><ele>298.0</ele><time>2026-05-04T13:14:26.001Z</time></trkpt><trkpt lat="43.13279027801913" lon="11.545158782923723"><ele>296.5</ele><time>2026-05-04T13:14:27.001Z</time></trkpt><trkpt lat="43.132875191579096" lon="11.545533459878087"><ele>295.0</ele><time>2026-05-04T13:14:28.001Z</time></trkpt><trkpt lat="43.132956792563526" lon="11.545884929424293"><ele>295.0</ele><time>2026-05-04T13:14:29.001Z</time></trkpt><trkpt lat="43.13302951534575" lon="11.546202027988071"><ele>295.0</ele><time>2026-05-04T13:14:30.001Z</time></trkpt><trkpt lat="43.13309954224118" lon="11.54648789240979"><ele>295.0</ele><time>2026-05-04T13:14:31.001Z</time></trkpt><trkpt lat="43.133167311607316" lon="11.546778741438638"><ele>295.0</ele><time>2026-05-04T13:14:32.001Z</time></trkpt><trkpt lat="43.13322214390332" lon="11.547021125821855"><ele>295.0</ele><time>2026-05-04T13:14:33.001Z</time></trkpt><trkpt lat="43.133276282570236" lon="11.547255016277804"><ele>300.3333333333333</ele><time>2026-05-04T13:14:34.001Z</time></trkpt><trkpt lat="43.13332899508761" lon="11.547477036921542"><ele>305.6666666666667</ele><time>2026-05-04T13:14:35.001Z</time></trkpt><trkpt lat="43.13337775752504" lon="11.547671553632455"><ele>311.0</ele><time>2026-05-04T13:14:36.001Z</time></trkpt><trkpt lat="43.133416569952225" lon="11.54784783456716"><ele>311.0</ele><time>2026-05-04T13:14:37.001Z</time></trkpt><trkpt lat="43.13344257345876" lon="11.548007502178681"><ele>311.0</ele><time>2026-05-04T13:14:38.001Z</time></trkpt><trkpt lat="43.13344505281867" lon="11.548169780577249"><ele>311.0</ele><time>2026-05-04T13:14:39.001Z</time></trkpt><trkpt lat="43.13342130790261" lon="11.548329786303714"><ele>311.0</ele><time>2026-05-04T13:14:40.001Z</time></trkpt><trkpt lat="43.13337498360246" lon="11.54848518795496"><ele>311.0</ele><time>2026-05-04T13:14:41.001Z</time></trkpt><trkpt lat="43.1333018773558" lon="11.548625380761969"><ele>311.0</ele><time>2026-05-04T13:14:42.001Z</time></trkpt><trkpt lat="43.13321567824053" lon="11.548745616990008"><ele>311.0</ele><time>2026-05-04T13:14:43.001Z</time></trkpt><trkpt lat="43.133102068064325" lon="11.548821887376686"><ele>311.0</ele><time>2026-05-04T13:14:44.001Z</time></trkpt><trkpt lat="43.13297635437491" lon="11.548934519488396"><ele>310.5</ele><time>2026-05-04T13:14:45.001Z</time></trkpt><trkpt lat="43.13282992793902" lon="11.549024451498445"><ele>310.0</ele><time>2026-05-04T13:14:46.001Z</time></trkpt><trkpt lat="43.132699028476466" lon="11.549111842662143"><ele>309.5</ele><time>2026-05-04T13:14:47.001Z</time></trkpt><trkpt lat="43.13257914629901" lon="11.549213761034224"><ele>309.0</ele><time>2026-05-04T13:14:48.001Z</time></trkpt><trkpt lat="43.13246361425705" lon="11.549338932821506"><ele>308.3333333333333</ele><time>2026-05-04T13:14:49.001Z</time></trkpt><trkpt lat="43.13236207159843" lon="11.549483675352219"><ele>307.66666666666663</ele><time>2026-05-04T13:14:50.001Z</time></trkpt><trkpt lat="43.13226867110572" lon="11.54964262812065"><ele>307.0</ele><time>2026-05-04T13:14:51.001Z</time></trkpt><trkpt lat="43.13217620009344" lon="11.549817155117072"><ele>307.0</ele><time>2026-05-04T13:14:52.001Z</time></trkpt><trkpt lat="43.13208253506228" lon="11.549997322464767"><ele>307.0</ele><time>2026-05-04T13:14:53.001Z</time></trkpt><trkpt lat="43.131988190869336" lon="11.55017337173978"><ele>307.0</ele><time>2026-05-04T13:14:54.001Z</time></trkpt><trkpt lat="43.13189385935822" lon="11.550344712393095"><ele>304.0</ele><time>2026-05-04T13:14:55.001Z</time></trkpt><trkpt lat="43.13179643110279" lon="11.550519814252395"><ele>301.0</ele><time>2026-05-04T13:14:56.001Z</time></trkpt><trkpt lat="43.13170166629291" lon="11.55069547911262"><ele>298.0</ele><time>2026-05-04T13:14:57.001Z</time></trkpt><trkpt lat="43.13161076205845" lon="11.550866721334879"><ele>298.75</ele><time>2026-05-04T13:14:58Z</time></trkpt><trkpt lat="43.131524888148206" lon="11.551026874685357"><ele>299.5</ele><time>2026-05-04T13:14:59Z</time></trkpt><trkpt lat="43.131436991815555" lon="11.55118230471083"><ele>300.25</ele><time>2026-05-04T13:15:00Z</time></trkpt><trkpt lat="43.131350936117826" lon="11.551332885655011"><ele>301.0</ele><time>2026-05-04T13:15:01Z</time></trkpt><trkpt lat="43.13127128534694" lon="11.551472602375856"><ele>301.0</ele><time>2026-05-04T13:15:02Z</time></trkpt><trkpt lat="43.13119505805731" lon="11.551604859416884"><ele>301.0</ele><time>2026-05-04T13:15:03Z</time></trkpt><trkpt lat="43.1311358988623" lon="11.551736594613155"><ele>301.0</ele><time>2026-05-04T13:15:04Z</time></trkpt><trkpt lat="43.1310879900962" lon="11.551885304041347"><ele>301.0</ele><time>2026-05-04T13:15:05Z</time></trkpt><trkpt lat="43.131058941770426" lon="11.552042792119037"><ele>298.75</ele><time>2026-05-04T13:15:06Z</time></trkpt><trkpt lat="43.13104868925023" lon="11.552206603593703"><ele>296.5</ele><time>2026-05-04T13:15:07Z</time></trkpt><trkpt lat="43.13106025963539" lon="11.552378057901704"><ele>294.25</ele><time>2026-05-04T13:15:08Z</time></trkpt><trkpt lat="43.131079128100026" lon="11.552564484459825"><ele>292.0</ele><time>2026-05-04T13:15:09Z</time></trkpt><trkpt lat="43.131085542413445" lon="11.552746178448844"><ele>290.2</ele><time>2026-05-04T13:15:10Z</time></trkpt><trkpt lat="43.13108611329166" lon="11.55290863941429"><ele>288.4</ele><time>2026-05-04T13:15:11Z</time></trkpt><trkpt lat="43.131057267934295" lon="11.553053423464975"><ele>286.6</ele><time>2026-05-04T13:15:12Z</time></trkpt><trkpt lat="43.13100256157807" lon="11.5531739789206"><ele>284.8</ele><time>2026-05-04T13:15:13Z</time></trkpt><trkpt lat="43.130926326708234" lon="11.55326883704685"><ele>283.0</ele><time>2026-05-04T13:15:14Z</time></trkpt><trkpt lat="43.130826551890195" lon="11.55334509447612"><ele>281.75</ele><time>2026-05-04T13:15:15Z</time></trkpt><trkpt lat="43.13071398621262" lon="11.553378349235768"><ele>280.5</ele><time>2026-05-04T13:15:16Z</time></trkpt><trkpt lat="43.13060216127778" lon="11.553388195039018"><ele>279.25</ele><time>2026-05-04T13:15:17Z</time></trkpt><trkpt lat="43.130484200128656" lon="11.553367767523056"><ele>278.0</ele><time>2026-05-04T13:15:18Z</time></trkpt><trkpt lat="43.13035921902609" lon="11.55332094696827"><ele>278.0</ele><time>2026-05-04T13:15:19Z</time></trkpt><trkpt lat="43.13021119891092" lon="11.553267374248051"><ele>278.0</ele><time>2026-05-04T13:15:20Z</time></trkpt><trkpt lat="43.130075222416444" lon="11.553218854611732"><ele>278.0</ele><time>2026-05-04T13:15:21Z</time></trkpt><trkpt lat="43.12995198022809" lon="11.553196119572917"><ele>278.0</ele><time>2026-05-04T13:15:22Z</time></trkpt><trkpt lat="43.12984291966511" lon="11.553151076944934"><ele>278.0</ele><time>2026-05-04T13:15:23Z</time></trkpt><trkpt lat="43.12974088710601" lon="11.553098964626361"><ele>278.0</ele><time>2026-05-04T13:15:24Z</time></trkpt><trkpt lat="43.12963834794278" lon="11.553110980934724"><ele>278.0</ele><time>2026-05-04T13:15:25Z</time></trkpt><trkpt lat="43.12953998533799" lon="11.553114216855983"><ele>278.0</ele><time>2026-05-04T13:15:26Z</time></trkpt><trkpt lat="43.129451528988895" lon="11.553147596527335"><ele>278.0</ele><time>2026-05-04T13:15:27Z</time></trkpt><trkpt lat="43.12936928071294" lon="11.553176012126329"><ele>278.0</ele><time>2026-05-04T13:15:28Z</time></trkpt><trkpt lat="43.12931021952776" lon="11.553290928718482"><ele>278.0</ele><time>2026-05-04T13:15:29Z</time></trkpt><trkpt lat="43.12928718421804" lon="11.553437824352153"><ele>278.0</ele><time>2026-05-04T13:15:30Z</time></trkpt><trkpt lat="43.12928846075185" lon="11.553554631306925"><ele>278.0</ele><time>2026-05-04T13:15:31Z</time></trkpt><trkpt lat="43.12931379777427" lon="11.553668832547505"><ele>278.0</ele><time>2026-05-04T13:15:32Z</time></trkpt><trkpt lat="43.129369715493965" lon="11.553748206788597"><ele>275.25</ele><time>2026-05-04T13:15:33Z</time></trkpt><trkpt lat="43.12941780902234" lon="11.553840921451169"><ele>272.5</ele><time>2026-05-04T13:15:34Z</time></trkpt><trkpt lat="43.129541409983155" lon="11.553832840851289"><ele>269.75</ele><time>2026-05-04T13:15:35Z</time></trkpt><trkpt lat="43.129674340326375" lon="11.553844556238342"><ele>267.0</ele><time>2026-05-04T13:15:36Z</time></trkpt><trkpt lat="43.129829407820495" lon="11.553877433480531"><ele>266.6666666666667</ele><time>2026-05-04T13:15:37Z</time></trkpt><trkpt lat="43.12997162053495" lon="11.553967139411835"><ele>266.33333333333337</ele><time>2026-05-04T13:15:38Z</time></trkpt><trkpt lat="43.13009169238" lon="11.554110293326698"><ele>266.0</ele><time>2026-05-04T13:15:39Z</time></trkpt><trkpt lat="43.13021394355624" lon="11.554237685645866"><ele>266.0</ele><time>2026-05-04T13:15:40Z</time></trkpt><trkpt lat="43.13034510112917" lon="11.554390307930984"><ele>266.0</ele><time>2026-05-04T13:15:41Z</time></trkpt><trkpt lat="43.130483338404304" lon="11.55451825859282"><ele>266.0</ele><time>2026-05-04T13:15:42Z</time></trkpt><trkpt lat="43.130600508951595" lon="11.554626022439118"><ele>265.0</ele><time>2026-05-04T13:15:43Z</time></trkpt><trkpt lat="43.13070669751881" lon="11.554755242953675"><ele>264.0</ele><time>2026-05-04T13:15:44Z</time></trkpt><trkpt lat="43.13079378953976" lon="11.554893785236594"><ele>263.0</ele><time>2026-05-04T13:15:45Z</time></trkpt><trkpt lat="43.13085820920967" lon="11.555020148854657"><ele>262.0</ele><time>2026-05-04T13:15:46Z</time></trkpt><trkpt lat="43.130924507987295" lon="11.555100646985645"><ele>262.0</ele><time>2026-05-04T13:15:47Z</time></trkpt><trkpt lat="43.13102255369205" lon="11.555169908992248"><ele>262.0</ele><time>2026-05-04T13:15:48Z</time></trkpt><trkpt lat="43.13113464739181" lon="11.555201678075656"><ele>262.0</ele><time>2026-05-04T13:15:49Z</time></trkpt><trkpt lat="43.131247706227775" lon="11.555213672362894"><ele>262.0</ele><time>2026-05-04T13:15:50Z</time></trkpt><trkpt lat="43.13136070165614" lon="11.555138115927953"><ele>262.0</ele><time>2026-05-04T13:15:51Z</time></trkpt><trkpt lat="43.13148771385186" lon="11.55506789576445"><ele>262.0</ele><time>2026-05-04T13:15:52Z</time></trkpt><trkpt lat="43.13161054800121" lon="11.554941912642906"><ele>262.0</ele><time>2026-05-04T13:15:53Z</time></trkpt><trkpt lat="43.13171631933405" lon="11.554763912426534"><ele>263.3333333333333</ele><time>2026-05-04T13:15:54Z</time></trkpt><trkpt lat="43.13185068364797" lon="11.554595061565344"><ele>264.6666666666667</ele><time>2026-05-04T13:15:55Z</time></trkpt><trkpt lat="43.131970914672365" lon="11.554420369648149"><ele>266.0</ele><time>2026-05-04T13:15:56Z</time></trkpt><trkpt lat="43.132061608193666" lon="11.554296255294929"><ele>266.0</ele><time>2026-05-04T13:15:57Z</time></trkpt><trkpt lat="43.13214652831399" lon="11.554200549238708"><ele>266.0</ele><time>2026-05-04T13:15:58Z</time></trkpt><trkpt lat="43.132235690733246" lon="11.554125413133596"><ele>266.0</ele><time>2026-05-04T13:15:59Z</time></trkpt><trkpt lat="43.132330673131875" lon="11.554065919330968"><ele>266.0</ele><time>2026-05-04T13:16:00Z</time></trkpt><trkpt lat="43.13242523538089" lon="11.554068023462019"><ele>266.0</ele><time>2026-05-04T13:16:01Z</time></trkpt><trkpt lat="43.132500526653246" lon="11.554100080718475"><ele>262.8</ele><time>2026-05-04T13:16:02Z</time></trkpt><trkpt lat="43.132566639784116" lon="11.554171788049443"><ele>259.6</ele><time>2026-05-04T13:16:03Z</time></trkpt><trkpt lat="43.13265631470728" lon="11.554274399291781"><ele>256.4</ele><time>2026-05-04T13:16:04Z</time></trkpt><trkpt lat="43.132732331086" lon="11.55438455220419"><ele>253.2</ele><time>2026-05-04T13:16:05Z</time></trkpt><trkpt lat="43.13279485657834" lon="11.554511862186708"><ele>250.0</ele><time>2026-05-04T13:16:06Z</time></trkpt><trkpt lat="43.13283451513062" lon="11.554641994684417"><ele>249.2</ele><time>2026-05-04T13:16:07Z</time></trkpt><trkpt lat="43.13284393669037" lon="11.554783172338164"><ele>248.4</ele><time>2026-05-04T13:16:08Z</time></trkpt><trkpt lat="43.13282607989226" lon="11.554916349663499"><ele>247.60000000000002</ele><time>2026-05-04T13:16:09.001Z</time></trkpt><trkpt lat="43.13278107806343" lon="11.555047810351134"><ele>246.8</ele><time>2026-05-04T13:16:10.001Z</time></trkpt><trkpt lat="43.13270137231156" lon="11.55517495571663"><ele>246.0</ele><time>2026-05-04T13:16:11.001Z</time></trkpt><trkpt lat="43.13259388605984" lon="11.555294674625861"><ele>245.0</ele><time>2026-05-04T13:16:12.001Z</time></trkpt><trkpt lat="43.13244910837051" lon="11.555436971024474"><ele>244.0</ele><time>2026-05-04T13:16:13.001Z</time></trkpt><trkpt lat="43.1322980525721" lon="11.555591068152141"><ele>243.0</ele><time>2026-05-04T13:16:14.001Z</time></trkpt><trkpt lat="43.13215200547148" lon="11.555745792926466"><ele>243.0</ele><time>2026-05-04T13:16:15.001Z</time></trkpt><trkpt lat="43.13201245271422" lon="11.555882255683002"><ele>243.0</ele><time>2026-05-04T13:16:16.001Z</time></trkpt><trkpt lat="43.1318658751179" lon="11.556025507907393"><ele>243.0</ele><time>2026-05-04T13:16:17.001Z</time></trkpt><trkpt lat="43.13171528681583" lon="11.556148025678516"><ele>240.25</ele><time>2026-05-04T13:16:18.001Z</time></trkpt><trkpt lat="43.13158951740477" lon="11.556251629459771"><ele>237.5</ele><time>2026-05-04T13:16:19.001Z</time></trkpt><trkpt lat="43.131482107632515" lon="11.556336763756034"><ele>234.75</ele><time>2026-05-04T13:16:20.001Z</time></trkpt><trkpt lat="43.1313951442636" lon="11.556408071600844"><ele>232.0</ele><time>2026-05-04T13:16:21.001Z</time></trkpt><trkpt lat="43.13130732695206" lon="11.556451691973809"><ele>231.6</ele><time>2026-05-04T13:16:22.001Z</time></trkpt><trkpt lat="43.13124333042776" lon="11.556502035059289"><ele>231.2</ele><time>2026-05-04T13:16:23.001Z</time></trkpt><trkpt lat="43.13119560206436" lon="11.556562935838778"><ele>230.8</ele><time>2026-05-04T13:16:24.001Z</time></trkpt><trkpt lat="43.13110304310365" lon="11.556648226792797"><ele>230.4</ele><time>2026-05-04T13:16:26.001Z</time></trkpt><trkpt lat="43.13102694516472" lon="11.556802103714613"><ele>230.0</ele><time>2026-05-04T13:16:28.001Z</time></trkpt><trkpt lat="43.13100960959487" lon="11.556905181130947"><ele>230.0</ele><time>2026-05-04T13:16:29.001Z</time></trkpt><trkpt lat="43.131016205769164" lon="11.557018024313878"><ele>230.0</ele><time>2026-05-04T13:16:30.001Z</time></trkpt><trkpt lat="43.131046493464076" lon="11.557127496027663"><ele>230.0</ele><time>2026-05-04T13:16:31.001Z</time></trkpt><trkpt lat="43.13109619709479" lon="11.557236594486012"><ele>230.0</ele><time>2026-05-04T13:16:32.001Z</time></trkpt><trkpt lat="43.13116622000465" lon="11.557329884987114"><ele>230.0</ele><time>2026-05-04T13:16:33.001Z</time></trkpt><trkpt lat="43.131253177275546" lon="11.557400586980997"><ele>226.8</ele><time>2026-05-04T13:16:34.001Z</time></trkpt><trkpt lat="43.13134200512199" lon="11.557423372427294"><ele>223.6</ele><time>2026-05-04T13:16:35.001Z</time></trkpt><trkpt lat="43.13143238277899" lon="11.557414952726697"><ele>220.39999999999998</ele><time>2026-05-04T13:16:36.001Z</time></trkpt><trkpt lat="43.13152601745631" lon="11.557384811341462"><ele>217.2</ele><time>2026-05-04T13:16:37.001Z</time></trkpt><trkpt lat="43.13161679044218" lon="11.557339129866596"><ele>214.0</ele><time>2026-05-04T13:16:38.001Z</time></trkpt><trkpt lat="43.13170859219154" lon="11.557288335761355"><ele>214.0</ele><time>2026-05-04T13:16:39.001Z</time></trkpt><trkpt lat="43.13181482163043" lon="11.55724088980662"><ele>213.99999999999997</ele><time>2026-05-04T13:16:40.001Z</time></trkpt><trkpt lat="43.13192747232646" lon="11.557199749465566"><ele>213.99999999999997</ele><time>2026-05-04T13:16:41.001Z</time></trkpt><trkpt lat="43.13202995603259" lon="11.557155670834103"><ele>214.0</ele><time>2026-05-04T13:16:42.001Z</time></trkpt><trkpt lat="43.13212514219906" lon="11.557108242586382"><ele>214.0</ele><time>2026-05-04T13:16:43.001Z</time></trkpt><trkpt lat="43.132204254065265" lon="11.557051436911143"><ele>215.0</ele><time>2026-05-04T13:16:44.001Z</time></trkpt><trkpt lat="43.13228235214495" lon="11.556973499599987"><ele>216.0</ele><time>2026-05-04T13:16:45.001Z</time></trkpt><trkpt lat="43.13238306752351" lon="11.556875037688302"><ele>217.0</ele><time>2026-05-04T13:16:46.001Z</time></trkpt><trkpt lat="43.13249112796" lon="11.556729468273243"><ele>218.0</ele><time>2026-05-04T13:16:47.001Z</time></trkpt><trkpt lat="43.13259699993959" lon="11.556589824074777"><ele>218.0</ele><time>2026-05-04T13:16:48.001Z</time></trkpt><trkpt lat="43.132690369718794" lon="11.55646634024294"><ele>218.0</ele><time>2026-05-04T13:16:49.001Z</time></trkpt><trkpt lat="43.13278169303203" lon="11.556342263846753"><ele>218.0</ele><time>2026-05-04T13:16:50.001Z</time></trkpt><trkpt lat="43.13286366821573" lon="11.55622164349415"><ele>218.0</ele><time>2026-05-04T13:16:51.001Z</time></trkpt><trkpt lat="43.132942970850344" lon="11.556107911988706"><ele>217.4</ele><time>2026-05-04T13:16:52.001Z</time></trkpt><trkpt lat="43.133025518227456" lon="11.556016423429998"><ele>216.8</ele><time>2026-05-04T13:16:53.001Z</time></trkpt><trkpt lat="43.13310562257675" lon="11.555922257818143"><ele>216.2</ele><time>2026-05-04T13:16:54.001Z</time></trkpt><trkpt lat="43.13320902067997" lon="11.555880345549884"><ele>215.6</ele><time>2026-05-04T13:16:55.001Z</time></trkpt><trkpt lat="43.13331567306429" lon="11.555870345481566"><ele>215.0</ele><time>2026-05-04T13:16:56.001Z</time></trkpt><trkpt lat="43.133415360586085" lon="11.555885401905982"><ele>215.0</ele><time>2026-05-04T13:16:57.001Z</time></trkpt><trkpt lat="43.13350714573456" lon="11.555923196223505"><ele>215.0</ele><time>2026-05-04T13:16:58.001Z</time></trkpt><trkpt lat="43.1335820810218" lon="11.55598877412228"><ele>215.0</ele><time>2026-05-04T13:16:59.001Z</time></trkpt><trkpt lat="43.13364376835573" lon="11.556083288991424"><ele>215.0</ele><time>2026-05-04T13:17:00.001Z</time></trkpt><trkpt lat="43.133696655689604" lon="11.55619716591199"><ele>215.0</ele><time>2026-05-04T13:17:01.001Z</time></trkpt><trkpt lat="43.13373982674979" lon="11.556344519352747"><ele>211.66666666666669</ele><time>2026-05-04T13:17:02.001Z</time></trkpt><trkpt lat="43.13377610848388" lon="11.556530635638989"><ele>208.33333333333331</ele><time>2026-05-04T13:17:03.001Z</time></trkpt><trkpt lat="43.13381704039565" lon="11.556766709334196"><ele>205.0</ele><time>2026-05-04T13:17:04Z</time></trkpt><trkpt lat="43.13386155313436" lon="11.557025486712993"><ele>203.33333333333331</ele><time>2026-05-04T13:17:05Z</time></trkpt><trkpt lat="43.13390672388617" lon="11.557308672669267"><ele>201.66666666666669</ele><time>2026-05-04T13:17:06Z</time></trkpt><trkpt lat="43.133949703563545" lon="11.557617783473516"><ele>200.0</ele><time>2026-05-04T13:17:06.999Z</time></trkpt><trkpt lat="43.13397909664983" lon="11.557902701183778"><ele>200.0</ele><time>2026-05-04T13:17:08Z</time></trkpt><trkpt lat="43.13399119935493" lon="11.558174784027226"><ele>200.0</ele><time>2026-05-04T13:17:09Z</time></trkpt><trkpt lat="43.1339885125086" lon="11.558410950462628"><ele>200.0</ele><time>2026-05-04T13:17:10Z</time></trkpt><trkpt lat="43.133974485166476" lon="11.558640258555739"><ele>200.0</ele><time>2026-05-04T13:17:11Z</time></trkpt><trkpt lat="43.13395972777943" lon="11.558848280979598"><ele>200.0</ele><time>2026-05-04T13:17:12Z</time></trkpt><trkpt lat="43.13395362539785" lon="11.559028496153294"><ele>200.0</ele><time>2026-05-04T13:17:13Z</time></trkpt><trkpt lat="43.13395842072416" lon="11.559199752566721"><ele>200.0</ele><time>2026-05-04T13:17:14Z</time></trkpt><trkpt lat="43.13397342367946" lon="11.559370652549951"><ele>200.25</ele><time>2026-05-04T13:17:15Z</time></trkpt><trkpt lat="43.13400440372741" lon="11.559543147048766"><ele>200.5</ele><time>2026-05-04T13:17:16Z</time></trkpt><trkpt lat="43.13405588259387" lon="11.559702674680103"><ele>200.75</ele><time>2026-05-04T13:17:17Z</time></trkpt><trkpt lat="43.1341273802299" lon="11.55985642573259"><ele>201.0</ele><time>2026-05-04T13:17:18Z</time></trkpt><trkpt lat="43.13422030700428" lon="11.560014011982524"><ele>204.66666666666669</ele><time>2026-05-04T13:17:19Z</time></trkpt><trkpt lat="43.134333634721784" lon="11.56020331757642"><ele>208.33333333333334</ele><time>2026-05-04T13:17:20Z</time></trkpt><trkpt lat="43.13445936835944" lon="11.560431526199492"><ele>212.0</ele><time>2026-05-04T13:17:21Z</time></trkpt><trkpt lat="43.13458861584402" lon="11.560672398176512"><ele>212.0</ele><time>2026-05-04T13:17:22Z</time></trkpt><trkpt lat="43.134716820381215" lon="11.560920406953672"><ele>212.0</ele><time>2026-05-04T13:17:23Z</time></trkpt><trkpt lat="43.13482910110113" lon="11.5611364958641"><ele>212.0</ele><time>2026-05-04T13:17:24Z</time></trkpt><trkpt lat="43.13493600790813" lon="11.561339123841567"><ele>219.0</ele><time>2026-05-04T13:17:25Z</time></trkpt><trkpt lat="43.13503820374167" lon="11.561534912758605"><ele>226.0</ele><time>2026-05-04T13:17:26Z</time></trkpt><trkpt lat="43.1351414092863" lon="11.561730738837232"><ele>233.0</ele><time>2026-05-04T13:17:27Z</time></trkpt><trkpt lat="43.13523821762163" lon="11.561919093565328"><ele>231.33333333333334</ele><time>2026-05-04T13:17:28Z</time></trkpt><trkpt lat="43.13533458524461" lon="11.56209812057313"><ele>229.66666666666669</ele><time>2026-05-04T13:17:29Z</time></trkpt><trkpt lat="43.13543184089172" lon="11.562259327137324"><ele>228.0</ele><time>2026-05-04T13:17:30Z</time></trkpt><trkpt lat="43.13554039114995" lon="11.562415698101391"><ele>228.0</ele><time>2026-05-04T13:17:31Z</time></trkpt><trkpt lat="43.13567284491804" lon="11.562582923291417"><ele>228.0</ele><time>2026-05-04T13:17:32Z</time></trkpt><trkpt lat="43.13582045458776" lon="11.562757501503633"><ele>228.0</ele><time>2026-05-04T13:17:33Z</time></trkpt><trkpt lat="43.135959423998074" lon="11.5629205034396"><ele>231.25</ele><time>2026-05-04T13:17:34Z</time></trkpt><trkpt lat="43.13607367018391" lon="11.56306462794751"><ele>234.5</ele><time>2026-05-04T13:17:35Z</time></trkpt><trkpt lat="43.13617039610186" lon="11.563192757632635"><ele>237.75</ele><time>2026-05-04T13:17:36Z</time></trkpt><trkpt lat="43.136250449755785" lon="11.563316482349771"><ele>241.0</ele><time>2026-05-04T13:17:37Z</time></trkpt><trkpt lat="43.13630570886476" lon="11.563446351384108"><ele>241.0</ele><time>2026-05-04T13:17:38Z</time></trkpt><trkpt lat="43.13633871438774" lon="11.563593160076502"><ele>241.0</ele><time>2026-05-04T13:17:39Z</time></trkpt><trkpt lat="43.1363469620898" lon="11.563746517291746"><ele>241.0</ele><time>2026-05-04T13:17:40Z</time></trkpt><trkpt lat="43.13633401706228" lon="11.563912734756848"><ele>241.0</ele><time>2026-05-04T13:17:41Z</time></trkpt><trkpt lat="43.136298374776395" lon="11.564078587581491"><ele>240.75</ele><time>2026-05-04T13:17:42Z</time></trkpt><trkpt lat="43.136223654305745" lon="11.56421568394772"><ele>240.5</ele><time>2026-05-04T13:17:43Z</time></trkpt><trkpt lat="43.1361599360934" lon="11.564402199451223"><ele>240.25</ele><time>2026-05-04T13:17:44Z</time></trkpt><trkpt lat="43.136083025534006" lon="11.564550514191989"><ele>240.0</ele><time>2026-05-04T13:17:45Z</time></trkpt><trkpt lat="43.13603248968128" lon="11.564688638746974"><ele>241.0</ele><time>2026-05-04T13:17:46Z</time></trkpt><trkpt lat="43.13600469852354" lon="11.564816274278487"><ele>242.0</ele><time>2026-05-04T13:17:47Z</time></trkpt><trkpt lat="43.13599838115014" lon="11.564952195886429"><ele>243.0</ele><time>2026-05-04T13:17:48Z</time></trkpt><trkpt lat="43.1360238155121" lon="11.565077003233867"><ele>244.0</ele><time>2026-05-04T13:17:49Z</time></trkpt><trkpt lat="43.13607682856889" lon="11.565193268798291"><ele>245.0</ele><time>2026-05-04T13:17:50Z</time></trkpt><trkpt lat="43.13615499509392" lon="11.565303297010049"><ele>245.6</ele><time>2026-05-04T13:17:51Z</time></trkpt><trkpt lat="43.136252122190356" lon="11.5654158836334"><ele>246.2</ele><time>2026-05-04T13:17:52Z</time></trkpt><trkpt lat="43.13632677218689" lon="11.565523780434967"><ele>246.8</ele><time>2026-05-04T13:17:53Z</time></trkpt><trkpt lat="43.13636027399275" lon="11.56564025718446"><ele>247.4</ele><time>2026-05-04T13:17:54Z</time></trkpt><trkpt lat="43.13635968669118" lon="11.565769234084025"><ele>248.0</ele><time>2026-05-04T13:17:55Z</time></trkpt><trkpt lat="43.13632821430019" lon="11.565899398613217"><ele>248.0</ele><time>2026-05-04T13:17:56Z</time></trkpt><trkpt lat="43.136273176631086" lon="11.566004753664057"><ele>248.0</ele><time>2026-05-04T13:17:57Z</time></trkpt><trkpt lat="43.1361909051648" lon="11.566118135138101"><ele>248.0</ele><time>2026-05-04T13:17:58Z</time></trkpt><trkpt lat="43.136113735911906" lon="11.56622019434007"><ele>248.0</ele><time>2026-05-04T13:17:59Z</time></trkpt><trkpt lat="43.13607576979116" lon="11.566322604475682"><ele>248.0</ele><time>2026-05-04T13:18:00Z</time></trkpt><trkpt lat="43.136073580805245" lon="11.566427908651441"><ele>248.0</ele><time>2026-05-04T13:18:01Z</time></trkpt><trkpt lat="43.13610496385762" lon="11.566529078764734"><ele>248.0</ele><time>2026-05-04T13:18:02Z</time></trkpt><trkpt lat="43.1361641515682" lon="11.566607464547225"><ele>248.0</ele><time>2026-05-04T13:18:03Z</time></trkpt><trkpt lat="43.13624502077875" lon="11.566628034566369"><ele>248.0</ele><time>2026-05-04T13:18:04Z</time></trkpt><trkpt lat="43.136340607318914" lon="11.566606295327484"><ele>248.0</ele><time>2026-05-04T13:18:05Z</time></trkpt><trkpt lat="43.136443270777505" lon="11.56655297164232"><ele>255.66666666666669</ele><time>2026-05-04T13:18:06Z</time></trkpt><trkpt lat="43.13658207166828" lon="11.566486264969269"><ele>263.3333333333333</ele><time>2026-05-04T13:18:07Z</time></trkpt><trkpt lat="43.1367577170706" lon="11.56643221675661"><ele>271.0</ele><time>2026-05-04T13:18:08Z</time></trkpt><trkpt lat="43.13690234765617" lon="11.566373356774212"><ele>271.0</ele><time>2026-05-04T13:18:09Z</time></trkpt><trkpt lat="43.13700692173649" lon="11.56628073923298"><ele>271.0</ele><time>2026-05-04T13:18:10Z</time></trkpt><trkpt lat="43.13709296639641" lon="11.56619342801226"><ele>271.0</ele><time>2026-05-04T13:18:11Z</time></trkpt><trkpt lat="43.13717526909927" lon="11.566092929287754"><ele>271.0</ele><time>2026-05-04T13:18:12Z</time></trkpt><trkpt lat="43.137237381786" lon="11.565953959473521"><ele>270.5</ele><time>2026-05-04T13:18:13Z</time></trkpt><trkpt lat="43.137273041221725" lon="11.565789419887343"><ele>270.0</ele><time>2026-05-04T13:18:14Z</time></trkpt><trkpt lat="43.137267272771524" lon="11.565603514322692"><ele>269.5</ele><time>2026-05-04T13:18:15Z</time></trkpt><trkpt lat="43.137229989212024" lon="11.565440382536996"><ele>269.0</ele><time>2026-05-04T13:18:16.001Z</time></trkpt><trkpt lat="43.137155785371675" lon="11.565295649325959"><ele>269.0</ele><time>2026-05-04T13:18:17.001Z</time></trkpt><trkpt lat="43.13707580067833" lon="11.565145147034277"><ele>269.0</ele><time>2026-05-04T13:18:18.001Z</time></trkpt><trkpt lat="43.137005427288024" lon="11.56499010773943"><ele>269.0</ele><time>2026-05-04T13:18:19.001Z</time></trkpt><trkpt lat="43.1369775923864" lon="11.564850488541742"><ele>269.0</ele><time>2026-05-04T13:18:20.001Z</time></trkpt><trkpt lat="43.13697678892508" lon="11.564738130070632"><ele>269.0</ele><time>2026-05-04T13:18:21.001Z</time></trkpt><trkpt lat="43.13699437703662" lon="11.564626356589795"><ele>269.0</ele><time>2026-05-04T13:18:22.001Z</time></trkpt><trkpt lat="43.13703684138762" lon="11.564522152410435"><ele>269.0</ele><time>2026-05-04T13:18:23.001Z</time></trkpt><trkpt lat="43.137095593883835" lon="11.564412057445487"><ele>269.0</ele><time>2026-05-04T13:18:24.001Z</time></trkpt><trkpt lat="43.13718958419191" lon="11.56435486125071"><ele>269.0</ele><time>2026-05-04T13:18:25.001Z</time></trkpt><trkpt lat="43.13728524044318" lon="11.564335236698202"><ele>267.8</ele><time>2026-05-04T13:18:26.001Z</time></trkpt><trkpt lat="43.13736908222995" lon="11.564363146014848"><ele>266.59999999999997</ele><time>2026-05-04T13:18:27.001Z</time></trkpt><trkpt lat="43.137429278027476" lon="11.564428688633935"><ele>265.4</ele><time>2026-05-04T13:18:28.001Z</time></trkpt><trkpt lat="43.13748325772188" lon="11.564521289639154"><ele>264.2</ele><time>2026-05-04T13:18:29.001Z</time></trkpt><trkpt lat="43.137542518681016" lon="11.564646587703498"><ele>263.0</ele><time>2026-05-04T13:18:30.001Z</time></trkpt><trkpt lat="43.137630507342436" lon="11.564827187338134"><ele>270.0</ele><time>2026-05-04T13:18:31.001Z</time></trkpt><trkpt lat="43.13771817752336" lon="11.565023013027751"><ele>277.0</ele><time>2026-05-04T13:18:32.001Z</time></trkpt><trkpt lat="43.13778066634432" lon="11.565207860580522"><ele>284.0</ele><time>2026-05-04T13:18:33.001Z</time></trkpt><trkpt lat="43.13781440014814" lon="11.565392806990182"><ele>284.0</ele><time>2026-05-04T13:18:34.001Z</time></trkpt><trkpt lat="43.137829197583066" lon="11.565606386558574"><ele>284.0</ele><time>2026-05-04T13:18:35.001Z</time></trkpt><trkpt lat="43.13783939529133" lon="11.56588110965424"><ele>284.0</ele><time>2026-05-04T13:18:36.001Z</time></trkpt><trkpt lat="43.13785056514428" lon="11.566178712361577"><ele>285.33333333333337</ele><time>2026-05-04T13:18:37.001Z</time></trkpt><trkpt lat="43.137867345689806" lon="11.566422882494635"><ele>286.6666666666667</ele><time>2026-05-04T13:18:38.001Z</time></trkpt><trkpt lat="43.13788521652361" lon="11.566677978914777"><ele>288.0</ele><time>2026-05-04T13:18:39.001Z</time></trkpt><trkpt lat="43.137898927826875" lon="11.56688988439864"><ele>288.3333333333333</ele><time>2026-05-04T13:18:40.001Z</time></trkpt><trkpt lat="43.137901330221695" lon="11.567107640699104"><ele>288.66666666666663</ele><time>2026-05-04T13:18:41.001Z</time></trkpt><trkpt lat="43.13787830163738" lon="11.567322886613512"><ele>289.0</ele><time>2026-05-04T13:18:42.001Z</time></trkpt><trkpt lat="43.13784880114583" lon="11.567507808918755"><ele>289.0</ele><time>2026-05-04T13:18:43.001Z</time></trkpt><trkpt lat="43.137830128121585" lon="11.567665783534233"><ele>289.0</ele><time>2026-05-04T13:18:44.001Z</time></trkpt><trkpt lat="43.13783111758862" lon="11.567796216793008"><ele>289.0</ele><time>2026-05-04T13:18:45.001Z</time></trkpt><trkpt lat="43.13785081911127" lon="11.567925980315598"><ele>289.0</ele><time>2026-05-04T13:18:46.001Z</time></trkpt><trkpt lat="43.13789409423097" lon="11.56805478212417"><ele>289.0</ele><time>2026-05-04T13:18:47.001Z</time></trkpt><trkpt lat="43.13796391965485" lon="11.568180978336256"><ele>287.25</ele><time>2026-05-04T13:18:48.001Z</time></trkpt><trkpt lat="43.13806051314433" lon="11.568302399160165"><ele>285.5</ele><time>2026-05-04T13:18:49.001Z</time></trkpt><trkpt lat="43.13818273773647" lon="11.568445786757177"><ele>283.75</ele><time>2026-05-04T13:18:50.001Z</time></trkpt><trkpt lat="43.1382838945787" lon="11.568579632484523"><ele>282.0</ele><time>2026-05-04T13:18:51.001Z</time></trkpt><trkpt lat="43.138356486443854" lon="11.568726566587896"><ele>288.0</ele><time>2026-05-04T13:18:52.001Z</time></trkpt><trkpt lat="43.13841958046844" lon="11.568893457576511"><ele>294.0</ele><time>2026-05-04T13:18:53.001Z</time></trkpt><trkpt lat="43.13846974594625" lon="11.569065454201573"><ele>300.0</ele><time>2026-05-04T13:18:54.001Z</time></trkpt><trkpt lat="43.138495780078536" lon="11.56924401684547"><ele>306.0</ele><time>2026-05-04T13:18:55.001Z</time></trkpt><trkpt lat="43.138504073058996" lon="11.56944194531203"><ele>305.75</ele><time>2026-05-04T13:18:56.001Z</time></trkpt><trkpt lat="43.138503200292064" lon="11.569638331750337"><ele>305.5</ele><time>2026-05-04T13:18:57.001Z</time></trkpt><trkpt lat="43.138494954032296" lon="11.56981484309364"><ele>305.25</ele><time>2026-05-04T13:18:58.001Z</time></trkpt><trkpt lat="43.138471877377114" lon="11.569981388378151"><ele>305.0</ele><time>2026-05-04T13:18:59.001Z</time></trkpt><trkpt lat="43.138440827536094" lon="11.570124404452029"><ele>305.0</ele><time>2026-05-04T13:19:00.001Z</time></trkpt><trkpt lat="43.13842188401835" lon="11.570261858532579"><ele>305.0</ele><time>2026-05-04T13:19:01.001Z</time></trkpt><trkpt lat="43.13841728053961" lon="11.57039604354588"><ele>305.0</ele><time>2026-05-04T13:19:02.001Z</time></trkpt><trkpt lat="43.138441176362605" lon="11.57052172971352"><ele>305.0</ele><time>2026-05-04T13:19:03.001Z</time></trkpt><trkpt lat="43.13849253655611" lon="11.570656798884734"><ele>305.0</ele><time>2026-05-04T13:19:04.001Z</time></trkpt><trkpt lat="43.13857221749931" lon="11.570795919506594"><ele>304.25</ele><time>2026-05-04T13:19:05.001Z</time></trkpt><trkpt lat="43.13864986813831" lon="11.570947713028687"><ele>303.5</ele><time>2026-05-04T13:19:06.001Z</time></trkpt><trkpt lat="43.138688697724994" lon="11.57109290021722"><ele>302.75</ele><time>2026-05-04T13:19:07.001Z</time></trkpt><trkpt lat="43.13869156749235" lon="11.571243348086455"><ele>302.0</ele><time>2026-05-04T13:19:08.001Z</time></trkpt><trkpt lat="43.13867008698023" lon="11.571392900571006"><ele>302.0</ele><time>2026-05-04T13:19:09.001Z</time></trkpt><trkpt lat="43.13861957352338" lon="11.571534941504709"><ele>302.0</ele><time>2026-05-04T13:19:10Z</time></trkpt><trkpt lat="43.13854052067989" lon="11.571661555502493"><ele>302.0</ele><time>2026-05-04T13:19:11Z</time></trkpt><trkpt lat="43.13842563350709" lon="11.571738714826047"><ele>302.0</ele><time>2026-05-04T13:19:12Z</time></trkpt><trkpt lat="43.13830090752752" lon="11.571813526390471"><ele>300.0</ele><time>2026-05-04T13:19:13Z</time></trkpt><trkpt lat="43.1381609141101" lon="11.571905493673256"><ele>298.0</ele><time>2026-05-04T13:19:14Z</time></trkpt><trkpt lat="43.138048692551436" lon="11.57196772435258"><ele>296.0</ele><time>2026-05-04T13:19:15Z</time></trkpt><trkpt lat="43.13796469959236" lon="11.572055621352362"><ele>294.0</ele><time>2026-05-04T13:19:16Z</time></trkpt><trkpt lat="43.137925672769704" lon="11.572164726259487"><ele>294.0</ele><time>2026-05-04T13:19:17Z</time></trkpt><trkpt lat="43.1379052678933" lon="11.57231564537714"><ele>294.0</ele><time>2026-05-04T13:19:18Z</time></trkpt><trkpt lat="43.137902607907314" lon="11.572506597113309"><ele>294.0</ele><time>2026-05-04T13:19:19Z</time></trkpt><trkpt lat="43.137918329157976" lon="11.572736528237877"><ele>294.0</ele><time>2026-05-04T13:19:20Z</time></trkpt><trkpt lat="43.13793749576015" lon="11.57301064323598"><ele>295.3333333333333</ele><time>2026-05-04T13:19:21Z</time></trkpt><trkpt lat="43.13794808690126" lon="11.573277902374654"><ele>296.66666666666663</ele><time>2026-05-04T13:19:22Z</time></trkpt><trkpt lat="43.13795102635889" lon="11.573517454122094"><ele>298.0</ele><time>2026-05-04T13:19:23Z</time></trkpt><trkpt lat="43.13795478865142" lon="11.573724053918193"><ele>298.75</ele><time>2026-05-04T13:19:24Z</time></trkpt><trkpt lat="43.13796184887008" lon="11.573922044113166"><ele>299.5</ele><time>2026-05-04T13:19:25Z</time></trkpt><trkpt lat="43.13796778233069" lon="11.574099935093775"><ele>300.25</ele><time>2026-05-04T13:19:26Z</time></trkpt><trkpt lat="43.13797049721823" lon="11.574252706167824"><ele>301.0</ele><time>2026-05-04T13:19:27Z</time></trkpt><trkpt lat="43.13797631365226" lon="11.574379726811276"><ele>301.0</ele><time>2026-05-04T13:19:28Z</time></trkpt><trkpt lat="43.137999511600356" lon="11.574499111326627"><ele>301.0</ele><time>2026-05-04T13:19:29Z</time></trkpt><trkpt lat="43.138041421616855" lon="11.57460687190346"><ele>301.0</ele><time>2026-05-04T13:19:30Z</time></trkpt><trkpt lat="43.13810640255077" lon="11.574718212209259"><ele>301.0</ele><time>2026-05-04T13:19:31Z</time></trkpt><trkpt lat="43.138190100521776" lon="11.574830924864445"><ele>301.0</ele><time>2026-05-04T13:19:32Z</time></trkpt><trkpt lat="43.13829626534744" lon="11.574956413761775"><ele>300.25</ele><time>2026-05-04T13:19:33Z</time></trkpt><trkpt lat="43.13840121336115" lon="11.575065080393705"><ele>299.5</ele><time>2026-05-04T13:19:34Z</time></trkpt><trkpt lat="43.1384970047914" lon="11.57517290968065"><ele>298.75</ele><time>2026-05-04T13:19:35Z</time></trkpt><trkpt lat="43.138582713528116" lon="11.575284470450551"><ele>298.0</ele><time>2026-05-04T13:19:36Z</time></trkpt><trkpt lat="43.13865562507176" lon="11.5754009779861"><ele>294.75</ele><time>2026-05-04T13:19:37Z</time></trkpt><trkpt lat="43.13870785885857" lon="11.575540500975505"><ele>291.5</ele><time>2026-05-04T13:19:38Z</time></trkpt><trkpt lat="43.13874068577769" lon="11.575685623700458"><ele>288.25</ele><time>2026-05-04T13:19:39Z</time></trkpt><trkpt lat="43.13875399900268" lon="11.57584111120573"><ele>285.0</ele><time>2026-05-04T13:19:40Z</time></trkpt><trkpt lat="43.138752879527864" lon="11.576012009885813"><ele>285.0</ele><time>2026-05-04T13:19:41Z</time></trkpt><trkpt lat="43.13874959710581" lon="11.576178460932171"><ele>285.0</ele><time>2026-05-04T13:19:42Z</time></trkpt><trkpt lat="43.138748329054344" lon="11.576348369759364"><ele>285.0</ele><time>2026-05-04T13:19:43Z</time></trkpt><trkpt lat="43.13874297429578" lon="11.576508222993688"><ele>285.0</ele><time>2026-05-04T13:19:44Z</time></trkpt><trkpt lat="43.13872517338905" lon="11.576663917921806"><ele>283.6</ele><time>2026-05-04T13:19:45Z</time></trkpt><trkpt lat="43.138694438008855" lon="11.576802255787062"><ele>282.2</ele><time>2026-05-04T13:19:46Z</time></trkpt><trkpt lat="43.138644674090955" lon="11.57692710975301"><ele>280.8</ele><time>2026-05-04T13:19:47Z</time></trkpt><trkpt lat="43.138575659496915" lon="11.57703890130707"><ele>279.4</ele><time>2026-05-04T13:19:48Z</time></trkpt><trkpt lat="43.13849085560934" lon="11.577170532403137"><ele>278.0</ele><time>2026-05-04T13:19:49Z</time></trkpt><trkpt lat="43.138411434001945" lon="11.577296682211504"><ele>277.25</ele><time>2026-05-04T13:19:50Z</time></trkpt><trkpt lat="43.1383383611395" lon="11.57741980833303"><ele>276.5</ele><time>2026-05-04T13:19:51Z</time></trkpt><trkpt lat="43.13826599682332" lon="11.577548820165646"><ele>275.75</ele><time>2026-05-04T13:19:52Z</time></trkpt><trkpt lat="43.13819258025841" lon="11.577683462579422"><ele>275.0</ele><time>2026-05-04T13:19:53Z</time></trkpt><trkpt lat="43.138119266676625" lon="11.577813772711028"><ele>273.6</ele><time>2026-05-04T13:19:54Z</time></trkpt><trkpt lat="43.138050704419996" lon="11.57793608771347"><ele>272.2</ele><time>2026-05-04T13:19:55Z</time></trkpt><trkpt lat="43.137987163925736" lon="11.578041920019754"><ele>270.8</ele><time>2026-05-04T13:19:56Z</time></trkpt><trkpt lat="43.13792067449331" lon="11.578151109810422"><ele>269.4</ele><time>2026-05-04T13:19:57Z</time></trkpt><trkpt lat="43.1378628788946" lon="11.578246789979948"><ele>268.0</ele><time>2026-05-04T13:19:58Z</time></trkpt><trkpt lat="43.137809408772995" lon="11.578333030291095"><ele>268.0</ele><time>2026-05-04T13:19:59Z</time></trkpt><trkpt lat="43.13775302716099" lon="11.578423406129367"><ele>268.0</ele><time>2026-05-04T13:20:00Z</time></trkpt><trkpt lat="43.13770797619754" lon="11.578501226227147"><ele>268.0</ele><time>2026-05-04T13:20:01Z</time></trkpt><trkpt lat="43.13763498130744" lon="11.578619810871459"><ele>268.0</ele><time>2026-05-04T13:20:03Z</time></trkpt><trkpt lat="43.13758208515011" lon="11.578714505261228"><ele>268.0</ele><time>2026-05-04T13:20:05Z</time></trkpt><trkpt lat="43.13746566176277" lon="11.578638496720123"><ele>267.0</ele><time>2026-05-04T13:20:09.001Z</time></trkpt><trkpt lat="43.13736047048894" lon="11.578543612322985"><ele>266.0</ele><time>2026-05-04T13:20:10.001Z</time></trkpt><trkpt lat="43.13724203211179" lon="11.578458638111695"><ele>265.0</ele><time>2026-05-04T13:20:11.001Z</time></trkpt><trkpt lat="43.13712451725849" lon="11.578351919384964"><ele>264.0</ele><time>2026-05-04T13:20:12.001Z</time></trkpt><trkpt lat="43.13699509835499" lon="11.57823456431051"><ele>264.0</ele><time>2026-05-04T13:20:13.001Z</time></trkpt><trkpt lat="43.136859740729896" lon="11.57811556510631"><ele>264.0</ele><time>2026-05-04T13:20:14.001Z</time></trkpt><trkpt lat="43.136705172905884" lon="11.577975686079808"><ele>264.0</ele><time>2026-05-04T13:20:15.001Z</time></trkpt><trkpt lat="43.13654282206121" lon="11.577828932107405"><ele>263.3333333333333</ele><time>2026-05-04T13:20:16.001Z</time></trkpt><trkpt lat="43.136385051276015" lon="11.577686063968283"><ele>262.66666666666663</ele><time>2026-05-04T13:20:17.001Z</time></trkpt><trkpt lat="43.136240249969376" lon="11.577554935589143"><ele>262.0</ele><time>2026-05-04T13:20:18.001Z</time></trkpt><trkpt lat="43.13610954653856" lon="11.57743988335513"><ele>262.0</ele><time>2026-05-04T13:20:19.001Z</time></trkpt><trkpt lat="43.13598706926441" lon="11.577334955578493"><ele>262.0</ele><time>2026-05-04T13:20:20.001Z</time></trkpt><trkpt lat="43.135886143915386" lon="11.577218998082591"><ele>262.0</ele><time>2026-05-04T13:20:21.001Z</time></trkpt><trkpt lat="43.13578228608849" lon="11.577125925868994"><ele>262.0</ele><time>2026-05-04T13:20:22.001Z</time></trkpt><trkpt lat="43.13559603103243" lon="11.576978906908355"><ele>262.25</ele><time>2026-05-04T13:20:23.001Z</time></trkpt><trkpt lat="43.13549085677988" lon="11.57688297542732"><ele>262.5</ele><time>2026-05-04T13:20:24.001Z</time></trkpt><trkpt lat="43.135393400515746" lon="11.576786631181589"><ele>262.75</ele><time>2026-05-04T13:20:25.001Z</time></trkpt><trkpt lat="43.13527185112944" lon="11.576674913127597"><ele>263.0</ele><time>2026-05-04T13:20:26.001Z</time></trkpt><trkpt lat="43.1351401075267" lon="11.576562247434557"><ele>263.0</ele><time>2026-05-04T13:20:27.001Z</time></trkpt><trkpt lat="43.13499709542482" lon="11.576452227730323"><ele>263.0</ele><time>2026-05-04T13:20:28.001Z</time></trkpt><trkpt lat="43.134838988790264" lon="11.5763525484492"><ele>263.0</ele><time>2026-05-04T13:20:29.001Z</time></trkpt><trkpt lat="43.13466741286653" lon="11.576275226310537"><ele>262.33333333333337</ele><time>2026-05-04T13:20:30.001Z</time></trkpt><trkpt lat="43.13448624981042" lon="11.576220906418895"><ele>261.6666666666667</ele><time>2026-05-04T13:20:31.001Z</time></trkpt><trkpt lat="43.13429657897117" lon="11.576171190808205"><ele>261.0</ele><time>2026-05-04T13:20:32.001Z</time></trkpt><trkpt lat="43.13411020931516" lon="11.576112632227487"><ele>262.3333333333333</ele><time>2026-05-04T13:20:33.001Z</time></trkpt><trkpt lat="43.13392229377271" lon="11.576058408109821"><ele>263.66666666666663</ele><time>2026-05-04T13:20:34.001Z</time></trkpt><trkpt lat="43.13373508122303" lon="11.576008289985314"><ele>265.0</ele><time>2026-05-04T13:20:35.001Z</time></trkpt><trkpt lat="43.133538871584875" lon="11.575911703268643"><ele>265.0</ele><time>2026-05-04T13:20:36.001Z</time></trkpt><trkpt lat="43.133324727398175" lon="11.575841277923399"><ele>265.0</ele><time>2026-05-04T13:20:37.001Z</time></trkpt><trkpt lat="43.13310334335023" lon="11.575768471614586"><ele>265.0</ele><time>2026-05-04T13:20:38.001Z</time></trkpt><trkpt lat="43.13287375243205" lon="11.57569426169059"><ele>265.0</ele><time>2026-05-04T13:20:39.001Z</time></trkpt><trkpt lat="43.13263564795531" lon="11.575617566346969"><ele>265.0</ele><time>2026-05-04T13:20:40.001Z</time></trkpt><trkpt lat="43.132390571274144" lon="11.575558985212437"><ele>264.0</ele><time>2026-05-04T13:20:41.001Z</time></trkpt><trkpt lat="43.13214449136455" lon="11.575477213048078"><ele>263.0</ele><time>2026-05-04T13:20:42.001Z</time></trkpt><trkpt lat="43.131891094132975" lon="11.57540797087202"><ele>264.0</ele><time>2026-05-04T13:20:43.001Z</time></trkpt><trkpt lat="43.13163014898766" lon="11.57534232330185"><ele>265.0</ele><time>2026-05-04T13:20:44.001Z</time></trkpt><trkpt lat="43.13136187640997" lon="11.57525241110232"><ele>263.0</ele><time>2026-05-04T13:20:45.001Z</time></trkpt><trkpt lat="43.131090410571844" lon="11.57520308893919"><ele>261.0</ele><time>2026-05-04T13:20:46.001Z</time></trkpt><trkpt lat="43.130819686161445" lon="11.575125991725452"><ele>260.5</ele><time>2026-05-04T13:20:47.001Z</time></trkpt><trkpt lat="43.13054535273875" lon="11.575047030345443"><ele>260.0</ele><time>2026-05-04T13:20:48.001Z</time></trkpt><trkpt lat="43.13027828888712" lon="11.574969308047697"><ele>260.0</ele><time>2026-05-04T13:20:49.001Z</time></trkpt><trkpt lat="43.13000394865916" lon="11.57489423177507"><ele>260.0</ele><time>2026-05-04T13:20:50.001Z</time></trkpt><trkpt lat="43.129770614277014" lon="11.574833974906372"><ele>260.0</ele><time>2026-05-04T13:20:51.001Z</time></trkpt><trkpt lat="43.12955833295916" lon="11.57478230483385"><ele>260.0</ele><time>2026-05-04T13:20:52.001Z</time></trkpt><trkpt lat="43.12936694230826" lon="11.574744819273832"><ele>260.0</ele><time>2026-05-04T13:20:53.001Z</time></trkpt><trkpt lat="43.1291917669181" lon="11.574724685949846"><ele>260.2</ele><time>2026-05-04T13:20:54.001Z</time></trkpt><trkpt lat="43.12904790674298" lon="11.5747207333554"><ele>260.4</ele><time>2026-05-04T13:20:55.001Z</time></trkpt><trkpt lat="43.12892408352911" lon="11.574715544266171"><ele>260.6</ele><time>2026-05-04T13:20:56.001Z</time></trkpt><trkpt lat="43.128832245791536" lon="11.574714452369479"><ele>260.8</ele><time>2026-05-04T13:20:57.001Z</time></trkpt><trkpt lat="43.128769059456786" lon="11.574719282235602"><ele>261.0</ele><time>2026-05-04T13:20:58.001Z</time></trkpt><trkpt lat="43.12882001628435" lon="11.57485384803858"><ele>261.0</ele><time>2026-05-04T13:21:01.001Z</time></trkpt><trkpt lat="43.12895451965993" lon="11.574888575711208"><ele>261.0</ele><time>2026-05-04T13:21:03.001Z</time></trkpt><trkpt lat="43.129040946859945" lon="11.574929931713582"><ele>261.0</ele><time>2026-05-04T13:21:04.001Z</time></trkpt><trkpt lat="43.12910740651236" lon="11.574994974080079"><ele>261.0</ele><time>2026-05-04T13:21:05.001Z</time></trkpt><trkpt lat="43.12915228070746" lon="11.575080658928853"><ele>261.0</ele><time>2026-05-04T13:21:06.001Z</time></trkpt><trkpt lat="43.12914898140526" lon="11.575311606947322"><ele>260.25</ele><time>2026-05-04T13:21:08.001Z</time></trkpt><trkpt lat="43.12913947864105" lon="11.575446356879397"><ele>259.5</ele><time>2026-05-04T13:21:09.001Z</time></trkpt><trkpt lat="43.12912803608412" lon="11.575608425903955"><ele>258.75</ele><time>2026-05-04T13:21:10.001Z</time></trkpt><trkpt lat="43.129119830807376" lon="11.575799898469707"><ele>258.0</ele><time>2026-05-04T13:21:11.001Z</time></trkpt><trkpt lat="43.129104307338096" lon="11.57598151444398"><ele>258.0</ele><time>2026-05-04T13:21:12.001Z</time></trkpt><trkpt lat="43.12909300636766" lon="11.576160538889573"><ele>258.0</ele><time>2026-05-04T13:21:13.001Z</time></trkpt><trkpt lat="43.12908723068117" lon="11.576342692070167"><ele>258.0</ele><time>2026-05-04T13:21:14.001Z</time></trkpt><trkpt lat="43.12908600084487" lon="11.576523512159163"><ele>258.0</ele><time>2026-05-04T13:21:15.001Z</time></trkpt><trkpt lat="43.12908455473509" lon="11.576694041170327"><ele>257.4</ele><time>2026-05-04T13:21:16Z</time></trkpt><trkpt lat="43.12908428547741" lon="11.5768351835403"><ele>256.8</ele><time>2026-05-04T13:21:17Z</time></trkpt><trkpt lat="43.129083809916224" lon="11.576943276665135"><ele>256.2</ele><time>2026-05-04T13:21:18Z</time></trkpt><trkpt lat="43.12911285856388" lon="11.577052539436725"><ele>255.6</ele><time>2026-05-04T13:21:19Z</time></trkpt><trkpt lat="43.12916457357962" lon="11.5771586364084"><ele>255.0</ele><time>2026-05-04T13:21:20Z</time></trkpt><trkpt lat="43.12923742759886" lon="11.577249600644134"><ele>254.6</ele><time>2026-05-04T13:21:21Z</time></trkpt><trkpt lat="43.129326702933696" lon="11.577307675267459"><ele>254.2</ele><time>2026-05-04T13:21:22Z</time></trkpt><trkpt lat="43.12943103662969" lon="11.5773364758568"><ele>253.8</ele><time>2026-05-04T13:21:23Z</time></trkpt><trkpt lat="43.12954461568763" lon="11.577334723039705"><ele>253.4</ele><time>2026-05-04T13:21:24Z</time></trkpt><trkpt lat="43.12967003084228" lon="11.577339779227767"><ele>253.0</ele><time>2026-05-04T13:21:25Z</time></trkpt><trkpt lat="43.12977456914983" lon="11.577375749058811"><ele>253.0</ele><time>2026-05-04T13:21:26Z</time></trkpt><trkpt lat="43.1298620734468" lon="11.57745627418858"><ele>253.0</ele><time>2026-05-04T13:21:27Z</time></trkpt><trkpt lat="43.12994739424971" lon="11.57756944233158"><ele>253.0</ele><time>2026-05-04T13:21:28Z</time></trkpt><trkpt lat="43.130028184941835" lon="11.577700581117643"><ele>253.0</ele><time>2026-05-04T13:21:29Z</time></trkpt><trkpt lat="43.13010239580507" lon="11.577845302271047"><ele>254.75</ele><time>2026-05-04T13:21:30Z</time></trkpt><trkpt lat="43.13016666586364" lon="11.577991687224062"><ele>256.5</ele><time>2026-05-04T13:21:31Z</time></trkpt><trkpt lat="43.13020657088272" lon="11.578128257662975"><ele>258.25</ele><time>2026-05-04T13:21:32Z</time></trkpt><trkpt lat="43.13021883851429" lon="11.578271072977657"><ele>260.0</ele><time>2026-05-04T13:21:33Z</time></trkpt><trkpt lat="43.13021564822977" lon="11.578426181820838"><ele>260.0</ele><time>2026-05-04T13:21:34Z</time></trkpt><trkpt lat="43.13020398236357" lon="11.578593998218237"><ele>260.0</ele><time>2026-05-04T13:21:35Z</time></trkpt><trkpt lat="43.13017833845098" lon="11.578756327920635"><ele>260.0</ele><time>2026-05-04T13:21:36Z</time></trkpt><trkpt lat="43.130129242789884" lon="11.578913141137543"><ele>260.0</ele><time>2026-05-04T13:21:37Z</time></trkpt><trkpt lat="43.13006035749023" lon="11.579073436506603"><ele>260.5</ele><time>2026-05-04T13:21:38Z</time></trkpt><trkpt lat="43.12998213025151" lon="11.579239645603757"><ele>261.0</ele><time>2026-05-04T13:21:39Z</time></trkpt><trkpt lat="43.129901041885226" lon="11.579404453685521"><ele>261.5</ele><time>2026-05-04T13:21:40Z</time></trkpt><trkpt lat="43.1298227217184" lon="11.579573075250336"><ele>262.0</ele><time>2026-05-04T13:21:41Z</time></trkpt><trkpt lat="43.12975029822452" lon="11.579743898349742"><ele>262.0</ele><time>2026-05-04T13:21:42Z</time></trkpt><trkpt lat="43.12969490240745" lon="11.579897688639953"><ele>262.0</ele><time>2026-05-04T13:21:43Z</time></trkpt><trkpt lat="43.12965737866407" lon="11.580040674594011"><ele>262.0</ele><time>2026-05-04T13:21:44Z</time></trkpt><trkpt lat="43.12963034342277" lon="11.580178737713606"><ele>262.0</ele><time>2026-05-04T13:21:45Z</time></trkpt><trkpt lat="43.1296173962419" lon="11.580287179741624"><ele>262.0</ele><time>2026-05-04T13:21:46Z</time></trkpt><trkpt lat="43.129606830443194" lon="11.580373662049738"><ele>262.4</ele><time>2026-05-04T13:21:47Z</time></trkpt><trkpt lat="43.1295960382555" lon="11.580458734695657"><ele>262.79999999999995</ele><time>2026-05-04T13:21:48Z</time></trkpt><trkpt lat="43.12957102043739" lon="11.580593366379343"><ele>263.2</ele><time>2026-05-04T13:21:50Z</time></trkpt><trkpt lat="43.12945267338248" lon="11.580542280885442"><ele>263.59999999999997</ele><time>2026-05-04T13:21:54Z</time></trkpt><trkpt lat="43.12935190187997" lon="11.580479708609372"><ele>264.0</ele><time>2026-05-04T13:21:55Z</time></trkpt><trkpt lat="43.12924690764272" lon="11.580422608812524"><ele>264.0</ele><time>2026-05-04T13:21:56Z</time></trkpt><trkpt lat="43.12915337122551" lon="11.580381005449821"><ele>264.0</ele><time>2026-05-04T13:21:57Z</time></trkpt><trkpt lat="43.12906493086576" lon="11.580360386104859"><ele>264.0</ele><time>2026-05-04T13:21:58Z</time></trkpt><trkpt lat="43.12896304383921" lon="11.580379722277646"><ele>264.0</ele><time>2026-05-04T13:21:59Z</time></trkpt><trkpt lat="43.1288329912803" lon="11.580366347489601"><ele>264.0</ele><time>2026-05-04T13:22:00Z</time></trkpt><trkpt lat="43.12866356149843" lon="11.580381870529209"><ele>263.6666666666667</ele><time>2026-05-04T13:22:01Z</time></trkpt><trkpt lat="43.12846942493806" lon="11.580407324830112"><ele>263.33333333333337</ele><time>2026-05-04T13:22:02Z</time></trkpt><trkpt lat="43.12823105749587" lon="11.5804541839942"><ele>263.0</ele><time>2026-05-04T13:22:03Z</time></trkpt><trkpt lat="43.127974922562814" lon="11.58046830225063"><ele>262.5</ele><time>2026-05-04T13:22:04Z</time></trkpt><trkpt lat="43.127719668699896" lon="11.580468251014997"><ele>262.0</ele><time>2026-05-04T13:22:05Z</time></trkpt><trkpt lat="43.127517093248954" lon="11.580484075698807"><ele>263.0</ele><time>2026-05-04T13:22:06Z</time></trkpt><trkpt lat="43.12732912961857" lon="11.580500832140615"><ele>264.0</ele><time>2026-05-04T13:22:07Z</time></trkpt><trkpt lat="43.12716652549364" lon="11.580515814804265"><ele>265.0</ele><time>2026-05-04T13:22:08Z</time></trkpt><trkpt lat="43.12702902414968" lon="11.580546256309908"><ele>265.0</ele><time>2026-05-04T13:22:09Z</time></trkpt><trkpt lat="43.12690579839773" lon="11.580553677969428"><ele>265.0</ele><time>2026-05-04T13:22:10Z</time></trkpt><trkpt lat="43.12677823344162" lon="11.580572057400744"><ele>265.0</ele><time>2026-05-04T13:22:11Z</time></trkpt><trkpt lat="43.1266537503877" lon="11.58060693924874"><ele>265.0</ele><time>2026-05-04T13:22:12Z</time></trkpt><trkpt lat="43.12652116906754" lon="11.580668034999967"><ele>265.66666666666663</ele><time>2026-05-04T13:22:13Z</time></trkpt><trkpt lat="43.126363759144404" lon="11.58076140011504"><ele>266.3333333333333</ele><time>2026-05-04T13:22:14Z</time></trkpt><trkpt lat="43.126205233242395" lon="11.580861982214223"><ele>267.0</ele><time>2026-05-04T13:22:15Z</time></trkpt><trkpt lat="43.12605773267575" lon="11.580956722420504"><ele>267.0</ele><time>2026-05-04T13:22:16Z</time></trkpt><trkpt lat="43.12591986218056" lon="11.581001409782608"><ele>267.0</ele><time>2026-05-04T13:22:17Z</time></trkpt><trkpt lat="43.125771157558496" lon="11.581055338665381"><ele>267.0</ele><time>2026-05-04T13:22:18Z</time></trkpt><trkpt lat="43.12561944323826" lon="11.581131167153375"><ele>266.6</ele><time>2026-05-04T13:22:19Z</time></trkpt><trkpt lat="43.12547841979659" lon="11.581176192897258"><ele>266.2</ele><time>2026-05-04T13:22:20Z</time></trkpt><trkpt lat="43.12537100117913" lon="11.581229765885803"><ele>265.8</ele><time>2026-05-04T13:22:21Z</time></trkpt><trkpt lat="43.12529201938766" lon="11.581279933380097"><ele>265.4</ele><time>2026-05-04T13:22:22Z</time></trkpt><trkpt lat="43.125219467079816" lon="11.581362141326101"><ele>265.0</ele><time>2026-05-04T13:22:23Z</time></trkpt><trkpt lat="43.12512791568712" lon="11.581468381475238"><ele>265.0</ele><time>2026-05-04T13:22:24Z</time></trkpt><trkpt lat="43.12501458812233" lon="11.581583690983752"><ele>265.0</ele><time>2026-05-04T13:22:25Z</time></trkpt><trkpt lat="43.124871230367575" lon="11.58167157591148"><ele>265.0</ele><time>2026-05-04T13:22:26Z</time></trkpt><trkpt lat="43.12473127841942" lon="11.58177271431319"><ele>265.0</ele><time>2026-05-04T13:22:27Z</time></trkpt><trkpt lat="43.12459299726974" lon="11.581891852667217"><ele>265.0</ele><time>2026-05-04T13:22:28Z</time></trkpt><trkpt lat="43.124462605809754" lon="11.581981725989177"><ele>265.0</ele><time>2026-05-04T13:22:29.001Z</time></trkpt><trkpt lat="43.124336646323776" lon="11.582068081842714"><ele>266.5</ele><time>2026-05-04T13:22:30.001Z</time></trkpt><trkpt lat="43.12422184371516" lon="11.582149030647077"><ele>268.0</ele><time>2026-05-04T13:22:31.001Z</time></trkpt><trkpt lat="43.12410618073257" lon="11.58222501104758"><ele>269.5</ele><time>2026-05-04T13:22:32.001Z</time></trkpt><trkpt lat="43.123996518030516" lon="11.582326395144747"><ele>271.0</ele><time>2026-05-04T13:22:33.001Z</time></trkpt><trkpt lat="43.12387168538051" lon="11.582420841199145"><ele>271.40000000000003</ele><time>2026-05-04T13:22:34.001Z</time></trkpt><trkpt lat="43.12375125491836" lon="11.582503664009947"><ele>271.8</ele><time>2026-05-04T13:22:35.001Z</time></trkpt><trkpt lat="43.12365484946017" lon="11.58257124168261"><ele>272.20000000000005</ele><time>2026-05-04T13:22:36.001Z</time></trkpt><trkpt lat="43.12358226695093" lon="11.582615008382383"><ele>272.6</ele><time>2026-05-04T13:22:37.001Z</time></trkpt><trkpt lat="43.123466755536484" lon="11.58262443631502"><ele>273.0</ele><time>2026-05-04T13:22:39.001Z</time></trkpt><trkpt lat="43.123435159149814" lon="11.582547605210792"><ele>273.0</ele><time>2026-05-04T13:22:40.001Z</time></trkpt><trkpt lat="43.12342707381194" lon="11.582459173165553"><ele>273.0</ele><time>2026-05-04T13:22:41.001Z</time></trkpt><trkpt lat="43.12340235438133" lon="11.582337340267188"><ele>273.0</ele><time>2026-05-04T13:22:42.001Z</time></trkpt><trkpt lat="43.12335266376103" lon="11.582176843369647"><ele>273.0</ele><time>2026-05-04T13:22:43.001Z</time></trkpt><trkpt lat="43.12327718063239" lon="11.58202676962744"><ele>273.0</ele><time>2026-05-04T13:22:44.001Z</time></trkpt><trkpt lat="43.123195965923124" lon="11.581893055467559"><ele>271.75</ele><time>2026-05-04T13:22:45.001Z</time></trkpt><trkpt lat="43.12310269095907" lon="11.581789528572283"><ele>270.5</ele><time>2026-05-04T13:22:46.001Z</time></trkpt><trkpt lat="43.123019672973555" lon="11.581677244806677"><ele>269.25</ele><time>2026-05-04T13:22:47.001Z</time></trkpt><trkpt lat="43.122927794137716" lon="11.581590400289896"><ele>268.0</ele><time>2026-05-04T13:22:48.001Z</time></trkpt><trkpt lat="43.12282333094011" lon="11.581524421446955"><ele>268.0</ele><time>2026-05-04T13:22:49.001Z</time></trkpt><trkpt lat="43.1227052192167" lon="11.5814741901377"><ele>268.0</ele><time>2026-05-04T13:22:50.001Z</time></trkpt><trkpt lat="43.1225738997276" lon="11.581444640693457"><ele>268.0</ele><time>2026-05-04T13:22:51.001Z</time></trkpt><trkpt lat="43.1224310711278" lon="11.581391551333224"><ele>268.0</ele><time>2026-05-04T13:22:52.001Z</time></trkpt><trkpt lat="43.12227448598609" lon="11.58137157418586"><ele>268.75</ele><time>2026-05-04T13:22:53.001Z</time></trkpt><trkpt lat="43.12211923584748" lon="11.581385574988369"><ele>269.5</ele><time>2026-05-04T13:22:54.001Z</time></trkpt><trkpt lat="43.12197790532693" lon="11.581390380678984"><ele>270.25</ele><time>2026-05-04T13:22:55.001Z</time></trkpt><trkpt lat="43.121855928321295" lon="11.581388811845011"><ele>271.0</ele><time>2026-05-04T13:22:56.001Z</time></trkpt><trkpt lat="43.12174852842437" lon="11.581361509378278"><ele>271.0</ele><time>2026-05-04T13:22:57.001Z</time></trkpt><trkpt lat="43.12163971962346" lon="11.581356868330815"><ele>271.0</ele><time>2026-05-04T13:22:58.001Z</time></trkpt><trkpt lat="43.1215297715145" lon="11.581363825513005"><ele>271.0</ele><time>2026-05-04T13:22:59.001Z</time></trkpt><trkpt lat="43.12142941302609" lon="11.58134415380595"><ele>271.0</ele><time>2026-05-04T13:23:00.001Z</time></trkpt><trkpt lat="43.121344599999574" lon="11.581289346849896"><ele>271.0</ele><time>2026-05-04T13:23:01.001Z</time></trkpt><trkpt lat="43.12131038168928" lon="11.581154608730397"><ele>272.0</ele><time>2026-05-04T13:23:02.001Z</time></trkpt><trkpt lat="43.12124939106123" lon="11.581074687629123"><ele>273.0</ele><time>2026-05-04T13:23:03.001Z</time></trkpt><trkpt lat="43.12120217181162" lon="11.581014372662858"><ele>274.0</ele><time>2026-05-04T13:23:04.001Z</time></trkpt><trkpt lat="43.12112466726166" lon="11.581055214945287"><ele>275.0</ele><time>2026-05-04T13:23:06.001Z</time></trkpt><trkpt lat="43.12112093543134" lon="11.581212112405991"><ele>276.0</ele><time>2026-05-04T13:23:08.001Z</time></trkpt><trkpt lat="43.12112849796358" lon="11.581331747894229"><ele>277.0</ele><time>2026-05-04T13:23:09.001Z</time></trkpt><trkpt lat="43.12111578668336" lon="11.58144818456652"><ele>279.0</ele><time>2026-05-04T13:23:10.001Z</time></trkpt><trkpt lat="43.121067558533916" lon="11.581573686092709"><ele>281.0</ele><time>2026-05-04T13:23:11.001Z</time></trkpt><trkpt lat="43.12100651893935" lon="11.581699465359414"><ele>283.0</ele><time>2026-05-04T13:23:12.001Z</time></trkpt><trkpt lat="43.12094460535842" lon="11.581832666358649"><ele>285.0</ele><time>2026-05-04T13:23:13.001Z</time></trkpt><trkpt lat="43.120885864669546" lon="11.581947966705755"><ele>287.0</ele><time>2026-05-04T13:23:14.001Z</time></trkpt><trkpt lat="43.120844694852195" lon="11.582089380267377"><ele>287.4</ele><time>2026-05-04T13:23:15.001Z</time></trkpt><trkpt lat="43.120818614628355" lon="11.582211157521646"><ele>287.79999999999995</ele><time>2026-05-04T13:23:16.001Z</time></trkpt><trkpt lat="43.12078643208869" lon="11.58234330026284"><ele>288.2</ele><time>2026-05-04T13:23:17.001Z</time></trkpt><trkpt lat="43.12073723892535" lon="11.582492028779322"><ele>288.59999999999997</ele><time>2026-05-04T13:23:18.001Z</time></trkpt><trkpt lat="43.120695705515466" lon="11.582606988356307"><ele>289.0</ele><time>2026-05-04T13:23:19.001Z</time></trkpt><trkpt lat="43.120656537739144" lon="11.582717322197407"><ele>289.0</ele><time>2026-05-04T13:23:20.001Z</time></trkpt><trkpt lat="43.12061290364247" lon="11.582845177984941"><ele>289.0</ele><time>2026-05-04T13:23:21.001Z</time></trkpt><trkpt lat="43.12057981327225" lon="11.582965704427327"><ele>289.0</ele><time>2026-05-04T13:23:21.999Z</time></trkpt><trkpt lat="43.120544862862126" lon="11.583120784339505"><ele>289.0</ele><time>2026-05-04T13:23:23.999Z</time></trkpt><trkpt lat="43.12055843796954" lon="11.583213372820172"><ele>289.0</ele><time>2026-05-04T13:23:24.999Z</time></trkpt><trkpt lat="43.12055440663842" lon="11.58333275693149"><ele>290.75</ele><time>2026-05-04T13:23:25.999Z</time></trkpt><trkpt lat="43.12056903503875" lon="11.583490194079886"><ele>292.5</ele><time>2026-05-04T13:23:26.999Z</time></trkpt><trkpt lat="43.12059049025083" lon="11.583683291081565"><ele>294.25</ele><time>2026-05-04T13:23:27.999Z</time></trkpt><trkpt lat="43.120621958016756" lon="11.583864547468181"><ele>296.0</ele><time>2026-05-04T13:23:28.999Z</time></trkpt><trkpt lat="43.12062273275465" lon="11.58401340294902"><ele>297.0</ele><time>2026-05-04T13:23:29.999Z</time></trkpt><trkpt lat="43.12064178128312" lon="11.584183378021464"><ele>298.0</ele><time>2026-05-04T13:23:30.999Z</time></trkpt><trkpt lat="43.120679630071095" lon="11.584392149790856"><ele>299.0</ele><time>2026-05-04T13:23:31.999Z</time></trkpt><trkpt lat="43.1207288109342" lon="11.584614937061323"><ele>301.6666666666667</ele><time>2026-05-04T13:23:32.999Z</time></trkpt><trkpt lat="43.120780513169784" lon="11.584842839303489"><ele>304.3333333333333</ele><time>2026-05-04T13:23:33.999Z</time></trkpt><trkpt lat="43.120831587648794" lon="11.585058275665206"><ele>307.0</ele><time>2026-05-04T13:23:34.999Z</time></trkpt><trkpt lat="43.120886784417216" lon="11.585267127889574"><ele>310.3333333333333</ele><time>2026-05-04T13:23:35.999Z</time></trkpt><trkpt lat="43.12094163013613" lon="11.585475627194992"><ele>313.6666666666667</ele><time>2026-05-04T13:23:36.999Z</time></trkpt><trkpt lat="43.12099725505907" lon="11.585691882804483"><ele>317.0</ele><time>2026-05-04T13:23:37.999Z</time></trkpt><trkpt lat="43.12105637903522" lon="11.585905196370055"><ele>317.0</ele><time>2026-05-04T13:23:38.999Z</time></trkpt><trkpt lat="43.12111021987832" lon="11.586104635461826"><ele>317.0</ele><time>2026-05-04T13:23:39.999Z</time></trkpt><trkpt lat="43.12117411643186" lon="11.586338112619211"><ele>317.0</ele><time>2026-05-04T13:23:40.999Z</time></trkpt><trkpt lat="43.12124650812653" lon="11.586577239215021"><ele>318.0</ele><time>2026-05-04T13:23:41.999Z</time></trkpt><trkpt lat="43.12131613327448" lon="11.586781982194465"><ele>319.0</ele><time>2026-05-04T13:23:42.999Z</time></trkpt><trkpt lat="43.121366885438576" lon="11.58694848931992"><ele>320.0</ele><time>2026-05-04T13:23:43.999Z</time></trkpt><trkpt lat="43.12140932743323" lon="11.587094362500086"><ele>321.0</ele><time>2026-05-04T13:23:44.999Z</time></trkpt><trkpt lat="43.121443139249756" lon="11.587209635275896"><ele>321.5</ele><time>2026-05-04T13:23:45.999Z</time></trkpt><trkpt lat="43.121475026578864" lon="11.587309946478403"><ele>322.0</ele><time>2026-05-04T13:23:46.999Z</time></trkpt><trkpt lat="43.12156365650591" lon="11.587422520989618"><ele>322.5</ele><time>2026-05-04T13:23:49Z</time></trkpt><trkpt lat="43.121629133116805" lon="11.587429284291078"><ele>323.0</ele><time>2026-05-04T13:23:50Z</time></trkpt><trkpt lat="43.12170221483637" lon="11.587409519339726"><ele>323.5</ele><time>2026-05-04T13:23:51Z</time></trkpt><trkpt lat="43.121804915964645" lon="11.58737804036724"><ele>324.0</ele><time>2026-05-04T13:23:52Z</time></trkpt><trkpt lat="43.12194431474798" lon="11.587332066819975"><ele>325.75</ele><time>2026-05-04T13:23:53Z</time></trkpt><trkpt lat="43.12209478749357" lon="11.587288248872941"><ele>327.5</ele><time>2026-05-04T13:23:54Z</time></trkpt><trkpt lat="43.1222272787836" lon="11.587259026501423"><ele>329.25</ele><time>2026-05-04T13:23:55Z</time></trkpt><trkpt lat="43.12232232073478" lon="11.58724823513002"><ele>331.0</ele><time>2026-05-04T13:23:56Z</time></trkpt><trkpt lat="43.12238895882237" lon="11.587265240813673"><ele>331.0</ele><time>2026-05-04T13:23:57Z</time></trkpt><trkpt lat="43.12241216454077" lon="11.587379515441972"><ele>331.0</ele><time>2026-05-04T13:23:59Z</time></trkpt><trkpt lat="43.122366213224495" lon="11.587479237068745"><ele>331.0</ele><time>2026-05-04T13:24:01Z</time></trkpt><trkpt lat="43.12229200829025" lon="11.587457752580285"><ele>331.0</ele><time>2026-05-04T13:24:04Z</time></trkpt><trkpt lat="43.12223066646707" lon="11.587498488834523"><ele>331.0</ele><time>2026-05-04T13:24:05Z</time></trkpt><trkpt lat="43.12213955311348" lon="11.587568092704739"><ele>331.0</ele><time>2026-05-04T13:24:06Z</time></trkpt><trkpt lat="43.12205749295487" lon="11.58764799446599"><ele>331.0</ele><time>2026-05-04T13:24:07Z</time></trkpt><trkpt lat="43.122035446601934" lon="11.58776791804331"><ele>331.0</ele><time>2026-05-04T13:24:08Z</time></trkpt><trkpt lat="43.12201218518313" lon="11.587892444594745"><ele>331.0</ele><time>2026-05-04T13:24:09Z</time></trkpt><trkpt lat="43.12200860467703" lon="11.588034157829545"><ele>331.0</ele><time>2026-05-04T13:24:10Z</time></trkpt><trkpt lat="43.12201865480347" lon="11.588200682202785"><ele>331.0</ele><time>2026-05-04T13:24:11Z</time></trkpt><trkpt lat="43.1220100992468" lon="11.588394669357891"><ele>333.20000000000005</ele><time>2026-05-04T13:24:12Z</time></trkpt><trkpt lat="43.12200068704431" lon="11.5885775775406"><ele>335.40000000000003</ele><time>2026-05-04T13:24:13Z</time></trkpt><trkpt lat="43.121988105364075" lon="11.588740620469522"><ele>337.6</ele><time>2026-05-04T13:24:14Z</time></trkpt><trkpt lat="43.121992406671424" lon="11.588862652653642"><ele>339.8</ele><time>2026-05-04T13:24:15Z</time></trkpt><trkpt lat="43.12199790587628" lon="11.588957233682072"><ele>342.0</ele><time>2026-05-04T13:24:16Z</time></trkpt><trkpt lat="43.12203364414758" lon="11.589054012629731"><ele>343.0</ele><time>2026-05-04T13:24:17Z</time></trkpt><trkpt lat="43.122090868741864" lon="11.589123451169199"><ele>344.0</ele><time>2026-05-04T13:24:18Z</time></trkpt><trkpt lat="43.12214970177904" lon="11.589185035888653"><ele>345.0</ele><time>2026-05-04T13:24:19Z</time></trkpt><trkpt lat="43.122219671207226" lon="11.589254068312233"><ele>346.0</ele><time>2026-05-04T13:24:20Z</time></trkpt><trkpt lat="43.12230198525516" lon="11.589358795214386"><ele>347.0</ele><time>2026-05-04T13:24:21Z</time></trkpt><trkpt lat="43.122394541660896" lon="11.589486204455469"><ele>349.75</ele><time>2026-05-04T13:24:22Z</time></trkpt><trkpt lat="43.12248366916021" lon="11.589626301849492"><ele>352.5</ele><time>2026-05-04T13:24:23Z</time></trkpt><trkpt lat="43.12255991081826" lon="11.589752161481707"><ele>355.25</ele><time>2026-05-04T13:24:24Z</time></trkpt><trkpt lat="43.122621415249924" lon="11.589844584482055"><ele>358.0</ele><time>2026-05-04T13:24:25Z</time></trkpt><trkpt lat="43.12268802941587" lon="11.589955548453684"><ele>358.0</ele><time>2026-05-04T13:24:27Z</time></trkpt><trkpt lat="43.12275207902958" lon="11.590025077009935"><ele>358.0</ele><time>2026-05-04T13:24:30Z</time></trkpt><trkpt lat="43.12268093115818" lon="11.590252971906681"><ele>358.0</ele><time>2026-05-04T13:24:31Z</time></trkpt><trkpt lat="43.12274121288515" lon="11.590388324999235"><ele>358.0</ele><time>2026-05-04T13:24:33Z</time></trkpt><trkpt lat="43.12279549802355" lon="11.590473893872348"><ele>356.2</ele><time>2026-05-04T13:24:34Z</time></trkpt><trkpt lat="43.12286716525488" lon="11.590590571687034"><ele>354.4</ele><time>2026-05-04T13:24:35Z</time></trkpt><trkpt lat="43.12293105093603" lon="11.590693494871308"><ele>352.59999999999997</ele><time>2026-05-04T13:24:36Z</time></trkpt><trkpt lat="43.12298146526377" lon="11.590756565264323"><ele>350.79999999999995</ele><time>2026-05-04T13:24:37Z</time></trkpt><trkpt lat="43.123032723993205" lon="11.590807902766649"><ele>349.0</ele><time>2026-05-04T13:24:38Z</time></trkpt><trkpt lat="43.12311986196445" lon="11.590896292231799"><ele>349.0</ele><time>2026-05-04T13:24:40Z</time></trkpt><trkpt lat="43.12318484125828" lon="11.590965295084807"><ele>349.0</ele><time>2026-05-04T13:24:42Z</time></trkpt><trkpt lat="43.12319548183132" lon="11.59107561281902"><ele>349.0</ele><time>2026-05-04T13:24:45Z</time></trkpt><trkpt lat="43.123173630709" lon="11.591195701616632"><ele>349.0</ele><time>2026-05-04T13:24:47Z</time></trkpt><trkpt lat="43.12315140318262" lon="11.591357258043152"><ele>349.0</ele><time>2026-05-04T13:24:49Z</time></trkpt><trkpt lat="43.123132750011266" lon="11.591528926671979"><ele>347.2</ele><time>2026-05-04T13:24:51.001Z</time></trkpt><trkpt lat="43.12312306852754" lon="11.59162178396211"><ele>345.4</ele><time>2026-05-04T13:24:52.001Z</time></trkpt><trkpt lat="43.123106582268264" lon="11.591787571922458"><ele>343.6</ele><time>2026-05-04T13:24:54.001Z</time></trkpt><trkpt lat="43.1231099711849" lon="11.5919671566053"><ele>341.8</ele><time>2026-05-04T13:24:56.001Z</time></trkpt><trkpt lat="43.123123253129165" lon="11.592055558355451"><ele>340.0</ele><time>2026-05-04T13:24:57.001Z</time></trkpt><trkpt lat="43.12313523682004" lon="11.592147349226959"><ele>339.0</ele><time>2026-05-04T13:24:58.001Z</time></trkpt><trkpt lat="43.12315475152207" lon="11.592237485161109"><ele>338.0</ele><time>2026-05-04T13:24:59.001Z</time></trkpt><trkpt lat="43.12318952127923" lon="11.592395896464337"><ele>337.0</ele><time>2026-05-04T13:25:01.001Z</time></trkpt><trkpt lat="43.12323585519935" lon="11.59249641378947"><ele>336.0</ele><time>2026-05-04T13:25:03.001Z</time></trkpt><trkpt lat="43.123331894993676" lon="11.592556375952553"><ele>335.0</ele><time>2026-05-04T13:25:05.001Z</time></trkpt><trkpt lat="43.1233948238835" lon="11.592574409933157"><ele>334.0</ele><time>2026-05-04T13:25:06.001Z</time></trkpt><trkpt lat="43.12346410072987" lon="11.592593698474959"><ele>338.0</ele><time>2026-05-04T13:25:07.001Z</time></trkpt><trkpt lat="43.12353479489616" lon="11.592619832829223"><ele>342.0</ele><time>2026-05-04T13:25:08.001Z</time></trkpt><trkpt lat="43.12359616977429" lon="11.592643243329402"><ele>346.0</ele><time>2026-05-04T13:25:09.001Z</time></trkpt><trkpt lat="43.12365768858784" lon="11.592677636214265"><ele>350.0</ele><time>2026-05-04T13:25:10.001Z</time></trkpt><trkpt lat="43.12371981847546" lon="11.592719596066942"><ele>354.0</ele><time>2026-05-04T13:25:11.001Z</time></trkpt><trkpt lat="43.12383109134318" lon="11.59277963774352"><ele>358.0</ele><time>2026-05-04T13:25:13.001Z</time></trkpt><trkpt lat="43.12392714616456" lon="11.59283573018433"><ele>355.79999999999995</ele><time>2026-05-04T13:25:15.001Z</time></trkpt><trkpt lat="43.123989019254736" lon="11.592926133343378"><ele>353.6</ele><time>2026-05-04T13:25:17.001Z</time></trkpt><trkpt lat="43.12403975730552" lon="11.593003125801983"><ele>351.4</ele><time>2026-05-04T13:25:19.001Z</time></trkpt><trkpt lat="43.12409002385316" lon="11.593113152158102"><ele>349.20000000000005</ele><time>2026-05-04T13:25:21.001Z</time></trkpt><trkpt lat="43.12410570336051" lon="11.593237926723942"><ele>347.0</ele><time>2026-05-04T13:25:23.001Z</time></trkpt><trkpt lat="43.12410180930181" lon="11.593417074492043"><ele>350.1666666666667</ele><time>2026-05-04T13:25:25.001Z</time></trkpt><trkpt lat="43.12409743835168" lon="11.59351457063373"><ele>353.33333333333337</ele><time>2026-05-04T13:25:26.001Z</time></trkpt><trkpt lat="43.12408846252021" lon="11.59362015512166"><ele>356.5</ele><time>2026-05-04T13:25:27.001Z</time></trkpt><trkpt lat="43.124081602808" lon="11.593744476166314"><ele>359.6666666666667</ele><time>2026-05-04T13:25:27.999Z</time></trkpt><trkpt lat="43.12408192217943" lon="11.593880598573291"><ele>362.8333333333333</ele><time>2026-05-04T13:25:28.999Z</time></trkpt><trkpt lat="43.12407578538797" lon="11.594029969161161"><ele>366.0</ele><time>2026-05-04T13:25:29.999Z</time></trkpt><trkpt lat="43.12407508033985" lon="11.594174189746434"><ele>366.0</ele><time>2026-05-04T13:25:30.999Z</time></trkpt><trkpt lat="43.12408759711599" lon="11.59430515784762"><ele>366.0</ele><time>2026-05-04T13:25:31.999Z</time></trkpt><trkpt lat="43.12413067389507" lon="11.594427071686411"><ele>366.0</ele><time>2026-05-04T13:25:32.999Z</time></trkpt><trkpt lat="43.12418001021822" lon="11.594563435350524"><ele>366.0</ele><time>2026-05-04T13:25:33.999Z</time></trkpt><trkpt lat="43.12423380658076" lon="11.594712346056772"><ele>366.0</ele><time>2026-05-04T13:25:34.999Z</time></trkpt><trkpt lat="43.124291159510534" lon="11.594871951223011"><ele>365.5</ele><time>2026-05-04T13:25:35.999Z</time></trkpt><trkpt lat="43.124347034971564" lon="11.595043061846898"><ele>365.0</ele><time>2026-05-04T13:25:36.999Z</time></trkpt><trkpt lat="43.124393957239114" lon="11.595228529735918"><ele>364.5</ele><time>2026-05-04T13:25:37.999Z</time></trkpt><trkpt lat="43.12443104142311" lon="11.59540023829031"><ele>364.0</ele><time>2026-05-04T13:25:38.999Z</time></trkpt><trkpt lat="43.12445932075482" lon="11.595569539659484"><ele>362.75</ele><time>2026-05-04T13:25:39.999Z</time></trkpt><trkpt lat="43.124470202106046" lon="11.595743280240928"><ele>361.5</ele><time>2026-05-04T13:25:40.999Z</time></trkpt><trkpt lat="43.1244612779015" lon="11.595928276366955"><ele>360.25</ele><time>2026-05-04T13:25:41.999Z</time></trkpt><trkpt lat="43.1244415577143" lon="11.59612209830686"><ele>359.0</ele><time>2026-05-04T13:25:42.999Z</time></trkpt><trkpt lat="43.12441185228946" lon="11.596335046047253"><ele>359.0</ele><time>2026-05-04T13:25:43.999Z</time></trkpt><trkpt lat="43.12438542641015" lon="11.596549755075621"><ele>359.0</ele><time>2026-05-04T13:25:44.999Z</time></trkpt><trkpt lat="43.124366420568535" lon="11.5967715157593"><ele>359.0</ele><time>2026-05-04T13:25:45.999Z</time></trkpt><trkpt lat="43.12435212667438" lon="11.597007639394366"><ele>361.33333333333337</ele><time>2026-05-04T13:25:46.999Z</time></trkpt><trkpt lat="43.12434628798054" lon="11.597252739125494"><ele>363.6666666666667</ele><time>2026-05-04T13:25:47.999Z</time></trkpt><trkpt lat="43.12433644115235" lon="11.597491922483867"><ele>366.0</ele><time>2026-05-04T13:25:48.999Z</time></trkpt><trkpt lat="43.12432740476809" lon="11.597694759053082"><ele>366.5</ele><time>2026-05-04T13:25:49.999Z</time></trkpt><trkpt lat="43.124320687167256" lon="11.597879863233784"><ele>367.0</ele><time>2026-05-04T13:25:50.999Z</time></trkpt><trkpt lat="43.12431298307884" lon="11.598048046879404"><ele>367.5</ele><time>2026-05-04T13:25:51.999Z</time></trkpt><trkpt lat="43.12428864058559" lon="11.598232737093493"><ele>368.0</ele><time>2026-05-04T13:25:52.999Z</time></trkpt><trkpt lat="43.12422982266883" lon="11.598422648029723"><ele>368.0</ele><time>2026-05-04T13:25:53.999Z</time></trkpt><trkpt lat="43.12415556484137" lon="11.598617971375281"><ele>368.0</ele><time>2026-05-04T13:25:54.999Z</time></trkpt><trkpt lat="43.124082095182374" lon="11.598795109752064"><ele>368.0</ele><time>2026-05-04T13:25:56Z</time></trkpt><trkpt lat="43.124027104424556" lon="11.598949376376023"><ele>368.0</ele><time>2026-05-04T13:25:57Z</time></trkpt><trkpt lat="43.12399928666612" lon="11.599096330518112"><ele>368.5</ele><time>2026-05-04T13:25:58Z</time></trkpt><trkpt lat="43.1240007680531" lon="11.599242895185755"><ele>369.0</ele><time>2026-05-04T13:25:59Z</time></trkpt><trkpt lat="43.124041143265366" lon="11.59939251782269"><ele>369.5</ele><time>2026-05-04T13:26:00Z</time></trkpt><trkpt lat="43.12411715597208" lon="11.599546314957866"><ele>370.0</ele><time>2026-05-04T13:26:01Z</time></trkpt><trkpt lat="43.12421618027657" lon="11.599716350149711"><ele>370.3333333333333</ele><time>2026-05-04T13:26:02Z</time></trkpt><trkpt lat="43.124321474673245" lon="11.59990501831709"><ele>370.6666666666667</ele><time>2026-05-04T13:26:03Z</time></trkpt><trkpt lat="43.124423257745626" lon="11.600102060975013"><ele>371.0</ele><time>2026-05-04T13:26:04Z</time></trkpt><trkpt lat="43.124519004820094" lon="11.600293577230978"><ele>368.33333333333337</ele><time>2026-05-04T13:26:05Z</time></trkpt><trkpt lat="43.12460736473898" lon="11.600487404040388"><ele>365.6666666666667</ele><time>2026-05-04T13:26:06Z</time></trkpt><trkpt lat="43.12469540681768" lon="11.600683806722216"><ele>363.0</ele><time>2026-05-04T13:26:07Z</time></trkpt><trkpt lat="43.1247720549547" lon="11.600885333896892"><ele>363.0</ele><time>2026-05-04T13:26:08Z</time></trkpt><trkpt lat="43.12483249297637" lon="11.601068332911623"><ele>363.0</ele><time>2026-05-04T13:26:09Z</time></trkpt><trkpt lat="43.124891996571044" lon="11.601248209868054"><ele>363.0</ele><time>2026-05-04T13:26:10Z</time></trkpt><trkpt lat="43.12495235234857" lon="11.601423214544619"><ele>363.0</ele><time>2026-05-04T13:26:11Z</time></trkpt><trkpt lat="43.125009768207434" lon="11.601585063975289"><ele>362.75</ele><time>2026-05-04T13:26:12Z</time></trkpt><trkpt lat="43.12506781749794" lon="11.60174738345777"><ele>362.5</ele><time>2026-05-04T13:26:13Z</time></trkpt><trkpt lat="43.12512573084034" lon="11.601898928111192"><ele>362.25</ele><time>2026-05-04T13:26:14Z</time></trkpt><trkpt lat="43.12518416823488" lon="11.602047542923215"><ele>362.0</ele><time>2026-05-04T13:26:15Z</time></trkpt><trkpt lat="43.125238447699395" lon="11.602181448914177"><ele>362.0</ele><time>2026-05-04T13:26:16Z</time></trkpt><trkpt lat="43.125292819451005" lon="11.602313594347489"><ele>362.0</ele><time>2026-05-04T13:26:17Z</time></trkpt><trkpt lat="43.12534571948354" lon="11.602438899986073"><ele>362.0</ele><time>2026-05-04T13:26:18Z</time></trkpt><trkpt lat="43.12539769260833" lon="11.602556837037223"><ele>362.0</ele><time>2026-05-04T13:26:19Z</time></trkpt><trkpt lat="43.12544891230527" lon="11.602679409844654"><ele>362.0</ele><time>2026-05-04T13:26:20Z</time></trkpt><trkpt lat="43.12550240819468" lon="11.602819175334126"><ele>362.75</ele><time>2026-05-04T13:26:21Z</time></trkpt><trkpt lat="43.12556021628778" lon="11.602967517797978"><ele>363.5</ele><time>2026-05-04T13:26:22Z</time></trkpt><trkpt lat="43.12562560173638" lon="11.603123800426593"><ele>364.25</ele><time>2026-05-04T13:26:23Z</time></trkpt><trkpt lat="43.12569898013944" lon="11.603290676224875"><ele>365.0</ele><time>2026-05-04T13:26:24Z</time></trkpt><trkpt lat="43.12577264996415" lon="11.603463150717898"><ele>365.0</ele><time>2026-05-04T13:26:25Z</time></trkpt><trkpt lat="43.125846221592376" lon="11.603647554905713"><ele>365.0</ele><time>2026-05-04T13:26:26Z</time></trkpt><trkpt lat="43.12592680467979" lon="11.603841530247797"><ele>365.0</ele><time>2026-05-04T13:26:27Z</time></trkpt><trkpt lat="43.12601011543245" lon="11.604034130532755"><ele>365.33333333333337</ele><time>2026-05-04T13:26:28Z</time></trkpt><trkpt lat="43.12609592741278" lon="11.604246463297692"><ele>365.6666666666667</ele><time>2026-05-04T13:26:29Z</time></trkpt><trkpt lat="43.12617612997417" lon="11.604445175237736"><ele>366.0</ele><time>2026-05-04T13:26:30Z</time></trkpt><trkpt lat="43.12625198530313" lon="11.60463005899328"><ele>365.25</ele><time>2026-05-04T13:26:31Z</time></trkpt><trkpt lat="43.12632225114023" lon="11.604793561255997"><ele>364.5</ele><time>2026-05-04T13:26:32Z</time></trkpt><trkpt lat="43.12639380210867" lon="11.604946662120067"><ele>363.75</ele><time>2026-05-04T13:26:33Z</time></trkpt><trkpt lat="43.12647603025" lon="11.60507336270241"><ele>363.0</ele><time>2026-05-04T13:26:34Z</time></trkpt><trkpt lat="43.12657705110494" lon="11.605195571173162"><ele>363.0</ele><time>2026-05-04T13:26:35Z</time></trkpt><trkpt lat="43.126696774089716" lon="11.605313709367273"><ele>363.0</ele><time>2026-05-04T13:26:36Z</time></trkpt><trkpt lat="43.126834277230856" lon="11.605434876989536"><ele>363.0</ele><time>2026-05-04T13:26:37Z</time></trkpt><trkpt lat="43.12696970060946" lon="11.605555074346398"><ele>362.75</ele><time>2026-05-04T13:26:38Z</time></trkpt><trkpt lat="43.12708839594864" lon="11.605687114017494"><ele>362.5</ele><time>2026-05-04T13:26:39Z</time></trkpt><trkpt lat="43.12718191933033" lon="11.60583604726268"><ele>362.25</ele><time>2026-05-04T13:26:40Z</time></trkpt><trkpt lat="43.12725768232249" lon="11.606009269274752"><ele>362.0</ele><time>2026-05-04T13:26:41Z</time></trkpt><trkpt lat="43.127312457497005" lon="11.606216678719525"><ele>360.6666666666667</ele><time>2026-05-04T13:26:42Z</time></trkpt><trkpt lat="43.1273443570212" lon="11.606422686930674"><ele>359.3333333333333</ele><time>2026-05-04T13:26:43Z</time></trkpt><trkpt lat="43.12737154537014" lon="11.606633100536493"><ele>358.0</ele><time>2026-05-04T13:26:44Z</time></trkpt><trkpt lat="43.12741467221706" lon="11.606828644297535"><ele>361.0</ele><time>2026-05-04T13:26:45Z</time></trkpt><trkpt lat="43.12747123385676" lon="11.607012773817786"><ele>364.0</ele><time>2026-05-04T13:26:46Z</time></trkpt><trkpt lat="43.1275223696822" lon="11.607160373298074"><ele>367.0</ele><time>2026-05-04T13:26:47Z</time></trkpt><trkpt lat="43.12756547597962" lon="11.607293575730813"><ele>370.0</ele><time>2026-05-04T13:26:48Z</time></trkpt><trkpt lat="43.12761092730202" lon="11.607426439641154"><ele>370.0</ele><time>2026-05-04T13:26:49Z</time></trkpt><trkpt lat="43.12765655834722" lon="11.607562071995103"><ele>370.0</ele><time>2026-05-04T13:26:50.001Z</time></trkpt><trkpt lat="43.12770960026146" lon="11.60769206192988"><ele>370.0</ele><time>2026-05-04T13:26:51.001Z</time></trkpt><trkpt lat="43.12776933745802" lon="11.607813806321493"><ele>370.0</ele><time>2026-05-04T13:26:52.001Z</time></trkpt><trkpt lat="43.12784390369471" lon="11.607933987982973"><ele>370.0</ele><time>2026-05-04T13:26:53.001Z</time></trkpt><trkpt lat="43.12793673616136" lon="11.608061924656052"><ele>369.75</ele><time>2026-05-04T13:26:54.001Z</time></trkpt><trkpt lat="43.12803126604496" lon="11.608197606206243"><ele>369.5</ele><time>2026-05-04T13:26:55.001Z</time></trkpt><trkpt lat="43.12811187333346" lon="11.608338008429152"><ele>369.25</ele><time>2026-05-04T13:26:56.001Z</time></trkpt><trkpt lat="43.12818239741866" lon="11.608492508649137"><ele>369.0</ele><time>2026-05-04T13:26:57.001Z</time></trkpt><trkpt lat="43.12825317255033" lon="11.608672940518135"><ele>369.0</ele><time>2026-05-04T13:26:58.001Z</time></trkpt><trkpt lat="43.1283271594876" lon="11.608866676917147"><ele>369.0</ele><time>2026-05-04T13:26:59.001Z</time></trkpt><trkpt lat="43.12840543998279" lon="11.609063682220311"><ele>369.0</ele><time>2026-05-04T13:27:00.001Z</time></trkpt><trkpt lat="43.128487183646534" lon="11.609257802341855"><ele>369.0</ele><time>2026-05-04T13:27:01.001Z</time></trkpt><trkpt lat="43.12856230274502" lon="11.609429196381084"><ele>369.0</ele><time>2026-05-04T13:27:02.001Z</time></trkpt><trkpt lat="43.12863864087793" lon="11.609595381128448"><ele>369.0</ele><time>2026-05-04T13:27:03.001Z</time></trkpt><trkpt lat="43.12870142443579" lon="11.609760402969759"><ele>369.0</ele><time>2026-05-04T13:27:04.001Z</time></trkpt><trkpt lat="43.12875355009063" lon="11.60993554143789"><ele>365.6666666666667</ele><time>2026-05-04T13:27:05.001Z</time></trkpt><trkpt lat="43.128803459901235" lon="11.610136081916105"><ele>362.33333333333337</ele><time>2026-05-04T13:27:06.001Z</time></trkpt><trkpt lat="43.128840692507374" lon="11.610334718101925"><ele>359.0</ele><time>2026-05-04T13:27:07.001Z</time></trkpt><trkpt lat="43.12886183832281" lon="11.610539700680588"><ele>357.75</ele><time>2026-05-04T13:27:08.001Z</time></trkpt><trkpt lat="43.12886512920645" lon="11.610728556653903"><ele>356.5</ele><time>2026-05-04T13:27:09.001Z</time></trkpt><trkpt lat="43.128852235741235" lon="11.610931049633757"><ele>355.25</ele><time>2026-05-04T13:27:10.001Z</time></trkpt><trkpt lat="43.128841185026204" lon="11.611139680531583"><ele>354.0</ele><time>2026-05-04T13:27:11.001Z</time></trkpt><trkpt lat="43.128828223791025" lon="11.61136581811639"><ele>354.0</ele><time>2026-05-04T13:27:12.001Z</time></trkpt><trkpt lat="43.12881761359445" lon="11.611584169363756"><ele>354.0</ele><time>2026-05-04T13:27:13.001Z</time></trkpt><trkpt lat="43.128803774253086" lon="11.611807561872052"><ele>354.0</ele><time>2026-05-04T13:27:14.001Z</time></trkpt><trkpt lat="43.12879555931648" lon="11.612017063524899"><ele>355.75</ele><time>2026-05-04T13:27:15.001Z</time></trkpt><trkpt lat="43.12879069830534" lon="11.612226593456988"><ele>357.5</ele><time>2026-05-04T13:27:16.001Z</time></trkpt><trkpt lat="43.1287916044637" lon="11.612407232802207"><ele>359.25</ele><time>2026-05-04T13:27:17.001Z</time></trkpt><trkpt lat="43.12878900364398" lon="11.61255977630781"><ele>361.0</ele><time>2026-05-04T13:27:18.001Z</time></trkpt><trkpt lat="43.12878386472138" lon="11.612692251499643"><ele>361.0</ele><time>2026-05-04T13:27:19.001Z</time></trkpt><trkpt lat="43.128766310403655" lon="11.61279771411224"><ele>361.0</ele><time>2026-05-04T13:27:20.001Z</time></trkpt><trkpt lat="43.128722103681156" lon="11.612888953927259"><ele>361.0</ele><time>2026-05-04T13:27:21.001Z</time></trkpt><trkpt lat="43.12865434025567" lon="11.612962885572314"><ele>361.0</ele><time>2026-05-04T13:27:22.001Z</time></trkpt><trkpt lat="43.12854719322927" lon="11.613032134423289"><ele>361.0</ele><time>2026-05-04T13:27:23.001Z</time></trkpt><trkpt lat="43.12842293326727" lon="11.613102372531865"><ele>363.3333333333333</ele><time>2026-05-04T13:27:24.001Z</time></trkpt><trkpt lat="43.12828980091027" lon="11.613188388297"><ele>365.6666666666667</ele><time>2026-05-04T13:27:25.001Z</time></trkpt><trkpt lat="43.128152103651225" lon="11.613286481359049"><ele>368.0</ele><time>2026-05-04T13:27:26.001Z</time></trkpt><trkpt lat="43.12802066655675" lon="11.613387620317582"><ele>368.5</ele><time>2026-05-04T13:27:27.001Z</time></trkpt><trkpt lat="43.127921791276975" lon="11.613474214577339"><ele>369.0</ele><time>2026-05-04T13:27:28.001Z</time></trkpt><trkpt lat="43.12783118104625" lon="11.613567054590307"><ele>369.5</ele><time>2026-05-04T13:27:29.001Z</time></trkpt><trkpt lat="43.12775033813043" lon="11.61367456698426"><ele>370.0</ele><time>2026-05-04T13:27:30.001Z</time></trkpt><trkpt lat="43.12766956908493" lon="11.613797831426005"><ele>371.25</ele><time>2026-05-04T13:27:31.001Z</time></trkpt><trkpt lat="43.12758662771137" lon="11.613927474298235"><ele>372.5</ele><time>2026-05-04T13:27:32.001Z</time></trkpt><trkpt lat="43.12749975638364" lon="11.614049274303783"><ele>373.75</ele><time>2026-05-04T13:27:33.001Z</time></trkpt><trkpt lat="43.12742050186477" lon="11.61415610578575"><ele>375.0</ele><time>2026-05-04T13:27:34Z</time></trkpt><trkpt lat="43.12733719183355" lon="11.61425581296673"><ele>375.75</ele><time>2026-05-04T13:27:35Z</time></trkpt><trkpt lat="43.12724086659086" lon="11.61433702667612"><ele>376.5</ele><time>2026-05-04T13:27:36Z</time></trkpt><trkpt lat="43.12712606108527" lon="11.61435928815571"><ele>377.25</ele><time>2026-05-04T13:27:37Z</time></trkpt><trkpt lat="43.1270067338041" lon="11.614402558377996"><ele>378.0</ele><time>2026-05-04T13:27:38Z</time></trkpt><trkpt lat="43.12687349497267" lon="11.614390344929127"><ele>378.0</ele><time>2026-05-04T13:27:39Z</time></trkpt><trkpt lat="43.12672175351662" lon="11.6144188272356"><ele>378.0</ele><time>2026-05-04T13:27:40Z</time></trkpt><trkpt lat="43.126558964114004" lon="11.614432784273653"><ele>378.0</ele><time>2026-05-04T13:27:41Z</time></trkpt><trkpt lat="43.126389106963195" lon="11.614447786923199"><ele>378.3333333333333</ele><time>2026-05-04T13:27:42Z</time></trkpt><trkpt lat="43.1262121563317" lon="11.614468966167504"><ele>378.66666666666663</ele><time>2026-05-04T13:27:43Z</time></trkpt><trkpt lat="43.12603628333289" lon="11.614497387211136"><ele>379.0</ele><time>2026-05-04T13:27:44Z</time></trkpt><trkpt lat="43.12587906470152" lon="11.614502210937284"><ele>378.5</ele><time>2026-05-04T13:27:45Z</time></trkpt><trkpt lat="43.12573211328654" lon="11.61451945513093"><ele>378.0</ele><time>2026-05-04T13:27:46Z</time></trkpt><trkpt lat="43.125601031251165" lon="11.61453680287964"><ele>377.5</ele><time>2026-05-04T13:27:47Z</time></trkpt><trkpt lat="43.125472054438916" lon="11.614455489949071"><ele>377.0</ele><time>2026-05-04T13:27:48Z</time></trkpt><trkpt lat="43.12533057335961" lon="11.61438632847148"><ele>378.25</ele><time>2026-05-04T13:27:49Z</time></trkpt><trkpt lat="43.12519571439361" lon="11.614322050027564"><ele>379.5</ele><time>2026-05-04T13:27:50Z</time></trkpt><trkpt lat="43.12506945556761" lon="11.614255215473667"><ele>380.75</ele><time>2026-05-04T13:27:51Z</time></trkpt><trkpt lat="43.12494161964919" lon="11.614204985958924"><ele>382.0</ele><time>2026-05-04T13:27:52Z</time></trkpt><trkpt lat="43.12480747026608" lon="11.614188251510097"><ele>383.75</ele><time>2026-05-04T13:27:53Z</time></trkpt><trkpt lat="43.124671687301145" lon="11.614223362623028"><ele>385.5</ele><time>2026-05-04T13:27:54Z</time></trkpt><trkpt lat="43.12453621406087" lon="11.61425462303683"><ele>387.25</ele><time>2026-05-04T13:27:55Z</time></trkpt><trkpt lat="43.12439382037577" lon="11.614261364817251"><ele>389.0</ele><time>2026-05-04T13:27:56Z</time></trkpt><trkpt lat="43.124258816771025" lon="11.614290526897525"><ele>389.0</ele><time>2026-05-04T13:27:57Z</time></trkpt><trkpt lat="43.12414235079517" lon="11.614330013037566"><ele>389.0</ele><time>2026-05-04T13:27:58Z</time></trkpt><trkpt lat="43.12402852116579" lon="11.614393863743851"><ele>389.0</ele><time>2026-05-04T13:27:59Z</time></trkpt><trkpt lat="43.12391020748887" lon="11.6144760305543"><ele>389.0</ele><time>2026-05-04T13:28:00Z</time></trkpt><trkpt lat="43.12379017792337" lon="11.614596170146429"><ele>386.66666666666663</ele><time>2026-05-04T13:28:01Z</time></trkpt><trkpt lat="43.12368697682842" lon="11.614746211254133"><ele>384.3333333333333</ele><time>2026-05-04T13:28:02Z</time></trkpt><trkpt lat="43.12358368992355" lon="11.614886947624935"><ele>382.0</ele><time>2026-05-04T13:28:03Z</time></trkpt><trkpt lat="43.12347824129356" lon="11.615057529303346"><ele>382.0</ele><time>2026-05-04T13:28:04Z</time></trkpt><trkpt lat="43.12336906428786" lon="11.615250447321559"><ele>382.0</ele><time>2026-05-04T13:28:05Z</time></trkpt><trkpt lat="43.12326427216882" lon="11.615440568541151"><ele>382.0</ele><time>2026-05-04T13:28:06Z</time></trkpt><trkpt lat="43.12316421336793" lon="11.615632432309601"><ele>379.3333333333333</ele><time>2026-05-04T13:28:07Z</time></trkpt><trkpt lat="43.123070377242435" lon="11.6158310152589"><ele>376.6666666666667</ele><time>2026-05-04T13:28:08Z</time></trkpt><trkpt lat="43.12298913998242" lon="11.616021134194641"><ele>374.0</ele><time>2026-05-04T13:28:09Z</time></trkpt><trkpt lat="43.12290356767173" lon="11.61620703092532"><ele>374.0</ele><time>2026-05-04T13:28:10Z</time></trkpt><trkpt lat="43.12280814751408" lon="11.616392858060353"><ele>374.0</ele><time>2026-05-04T13:28:11Z</time></trkpt><trkpt lat="43.122707542152774" lon="11.61658309887719"><ele>374.0</ele><time>2026-05-04T13:28:12Z</time></trkpt><trkpt lat="43.1225927185079" lon="11.616773188412402"><ele>374.0</ele><time>2026-05-04T13:28:13Z</time></trkpt><trkpt lat="43.12246618735916" lon="11.616950178952965"><ele>374.0</ele><time>2026-05-04T13:28:14Z</time></trkpt><trkpt lat="43.122340828885434" lon="11.61710490873643"><ele>374.0</ele><time>2026-05-04T13:28:15Z</time></trkpt><trkpt lat="43.12220691134991" lon="11.617241178208635"><ele>376.25</ele><time>2026-05-04T13:28:16Z</time></trkpt><trkpt lat="43.12208119003489" lon="11.617353931584825"><ele>378.5</ele><time>2026-05-04T13:28:17Z</time></trkpt><trkpt lat="43.12196535885689" lon="11.617465806162466"><ele>380.75</ele><time>2026-05-04T13:28:18Z</time></trkpt><trkpt lat="43.12185821608414" lon="11.617574661108671"><ele>383.0</ele><time>2026-05-04T13:28:19Z</time></trkpt><trkpt lat="43.12175596280094" lon="11.617682259798864"><ele>383.0</ele><time>2026-05-04T13:28:20Z</time></trkpt><trkpt lat="43.121666106798635" lon="11.617777888135093"><ele>383.0</ele><time>2026-05-04T13:28:21Z</time></trkpt><trkpt lat="43.12158220111571" lon="11.617869169501981"><ele>383.0</ele><time>2026-05-04T13:28:22Z</time></trkpt><trkpt lat="43.12149949802344" lon="11.617965386858653"><ele>383.0</ele><time>2026-05-04T13:28:23Z</time></trkpt><trkpt lat="43.12139555674877" lon="11.618049602801683"><ele>382.25</ele><time>2026-05-04T13:28:24Z</time></trkpt><trkpt lat="43.121287784674585" lon="11.618165214763634"><ele>381.5</ele><time>2026-05-04T13:28:25Z</time></trkpt><trkpt lat="43.121170943327506" lon="11.61830248189594"><ele>380.75</ele><time>2026-05-04T13:28:26Z</time></trkpt><trkpt lat="43.12105742688383" lon="11.618425174653817"><ele>380.0</ele><time>2026-05-04T13:28:27Z</time></trkpt><trkpt lat="43.12094736252341" lon="11.618536715120895"><ele>380.0</ele><time>2026-05-04T13:28:28Z</time></trkpt><trkpt lat="43.12084358450579" lon="11.6186261222992"><ele>380.0</ele><time>2026-05-04T13:28:29Z</time></trkpt><trkpt lat="43.120736012382665" lon="11.618699883918604"><ele>380.0</ele><time>2026-05-04T13:28:30Z</time></trkpt><trkpt lat="43.12061312029737" lon="11.618746029754602"><ele>380.0</ele><time>2026-05-04T13:28:31Z</time></trkpt><trkpt lat="43.120483656256454" lon="11.618730255961239"><ele>378.33333333333337</ele><time>2026-05-04T13:28:32Z</time></trkpt><trkpt lat="43.120343243121475" lon="11.618725806354865"><ele>376.6666666666667</ele><time>2026-05-04T13:28:33Z</time></trkpt><trkpt lat="43.12018707926156" lon="11.618698870901934"><ele>375.0</ele><time>2026-05-04T13:28:34Z</time></trkpt><trkpt lat="43.12000518647227" lon="11.618675898221726"><ele>373.0</ele><time>2026-05-04T13:28:35Z</time></trkpt><trkpt lat="43.119806462223536" lon="11.618667244031345"><ele>371.0</ele><time>2026-05-04T13:28:36Z</time></trkpt><trkpt lat="43.11962218078656" lon="11.618680383919221"><ele>369.0</ele><time>2026-05-04T13:28:37Z</time></trkpt><trkpt lat="43.119439384791356" lon="11.61864186963976"><ele>369.0</ele><time>2026-05-04T13:28:38Z</time></trkpt><trkpt lat="43.11926684065835" lon="11.618619084962763"><ele>369.0</ele><time>2026-05-04T13:28:39Z</time></trkpt><trkpt lat="43.119087296333284" lon="11.618592132165329"><ele>369.0</ele><time>2026-05-04T13:28:40Z</time></trkpt><trkpt lat="43.11891120316478" lon="11.618565097051679"><ele>369.6666666666667</ele><time>2026-05-04T13:28:41Z</time></trkpt><trkpt lat="43.11872232297186" lon="11.618548373381753"><ele>370.33333333333337</ele><time>2026-05-04T13:28:42Z</time></trkpt><trkpt lat="43.11854557683584" lon="11.61854119393541"><ele>371.0</ele><time>2026-05-04T13:28:43Z</time></trkpt><trkpt lat="43.11835575666771" lon="11.618556600148873"><ele>371.6666666666667</ele><time>2026-05-04T13:28:44Z</time></trkpt><trkpt lat="43.1181645820911" lon="11.618555472841326"><ele>372.3333333333333</ele><time>2026-05-04T13:28:45Z</time></trkpt><trkpt lat="43.11796895291212" lon="11.618531524673212"><ele>373.0</ele><time>2026-05-04T13:28:46Z</time></trkpt><trkpt lat="43.11776201176136" lon="11.618528343937708"><ele>373.0</ele><time>2026-05-04T13:28:47Z</time></trkpt><trkpt lat="43.117562307805635" lon="11.618519639118515"><ele>373.0</ele><time>2026-05-04T13:28:48Z</time></trkpt><trkpt lat="43.117370256400875" lon="11.618500093115864"><ele>373.0</ele><time>2026-05-04T13:28:49Z</time></trkpt><trkpt lat="43.1171906436342" lon="11.618478030842471"><ele>374.66666666666663</ele><time>2026-05-04T13:28:50Z</time></trkpt><trkpt lat="43.117033560849336" lon="11.618454459740109"><ele>376.3333333333333</ele><time>2026-05-04T13:28:51Z</time></trkpt><trkpt lat="43.11688149134161" lon="11.618432420822057"><ele>378.0</ele><time>2026-05-04T13:28:52Z</time></trkpt><trkpt lat="43.11673337009944" lon="11.61844655319134"><ele>378.0</ele><time>2026-05-04T13:28:53Z</time></trkpt><trkpt lat="43.116575888757765" lon="11.618459512132144"><ele>378.0</ele><time>2026-05-04T13:28:54Z</time></trkpt><trkpt lat="43.11638900534987" lon="11.618506847118073"><ele>378.0</ele><time>2026-05-04T13:28:55Z</time></trkpt><trkpt lat="43.116208031633796" lon="11.618565967090962"><ele>380.0</ele><time>2026-05-04T13:28:56.001Z</time></trkpt><trkpt lat="43.11606189144258" lon="11.618611332461564"><ele>382.0</ele><time>2026-05-04T13:28:57.001Z</time></trkpt><trkpt lat="43.11591555768205" lon="11.618618445299402"><ele>384.0</ele><time>2026-05-04T13:28:58.001Z</time></trkpt><trkpt lat="43.11578845292734" lon="11.618615287349792"><ele>386.0</ele><time>2026-05-04T13:28:59.001Z</time></trkpt><trkpt lat="43.11567007866347" lon="11.618602544241583"><ele>386.49999999999994</ele><time>2026-05-04T13:29:00.001Z</time></trkpt><trkpt lat="43.11558311438674" lon="11.618581806677673"><ele>387.0</ele><time>2026-05-04T13:29:01.001Z</time></trkpt><trkpt lat="43.1154967758381" lon="11.618555979811795"><ele>387.5</ele><time>2026-05-04T13:29:02.001Z</time></trkpt><trkpt lat="43.11540250577592" lon="11.618526368210434"><ele>388.0</ele><time>2026-05-04T13:29:03.001Z</time></trkpt><trkpt lat="43.11530369562548" lon="11.61849822565906"><ele>388.49999999999994</ele><time>2026-05-04T13:29:04.001Z</time></trkpt><trkpt lat="43.11523061767308" lon="11.618477881606784"><ele>389.0</ele><time>2026-05-04T13:29:05.001Z</time></trkpt><trkpt lat="43.11516455978445" lon="11.618459491867956"><ele>389.0</ele><time>2026-05-04T13:29:06.001Z</time></trkpt><trkpt lat="43.11508674866136" lon="11.618492106628109"><ele>389.0</ele><time>2026-05-04T13:29:07.001Z</time></trkpt><trkpt lat="43.11502926858855" lon="11.61853243923683"><ele>389.0</ele><time>2026-05-04T13:29:08.001Z</time></trkpt><trkpt lat="43.11504789395664" lon="11.618736469304949"><ele>389.0</ele><time>2026-05-04T13:29:09.001Z</time></trkpt><trkpt lat="43.11502154381826" lon="11.618879779876828"><ele>389.0</ele><time>2026-05-04T13:29:10.001Z</time></trkpt><trkpt lat="43.11499431833599" lon="11.619065218217678"><ele>388.3333333333333</ele><time>2026-05-04T13:29:11.001Z</time></trkpt><trkpt lat="43.114950624453336" lon="11.619292005753488"><ele>387.66666666666663</ele><time>2026-05-04T13:29:12.001Z</time></trkpt><trkpt lat="43.114901025503144" lon="11.619537536475377"><ele>387.0</ele><time>2026-05-04T13:29:13.001Z</time></trkpt><trkpt lat="43.11485659753505" lon="11.61977637319622"><ele>387.25</ele><time>2026-05-04T13:29:14.001Z</time></trkpt><trkpt lat="43.11481553313071" lon="11.61998828844138"><ele>387.5</ele><time>2026-05-04T13:29:15.001Z</time></trkpt><trkpt lat="43.11477515741417" lon="11.620175849622761"><ele>387.75</ele><time>2026-05-04T13:29:16.001Z</time></trkpt><trkpt lat="43.11473850917077" lon="11.620349158776746"><ele>388.0</ele><time>2026-05-04T13:29:17.001Z</time></trkpt><trkpt lat="43.11469996627049" lon="11.620531596272032"><ele>388.0</ele><time>2026-05-04T13:29:18.001Z</time></trkpt><trkpt lat="43.11466383257177" lon="11.62071865874862"><ele>388.0</ele><time>2026-05-04T13:29:19.001Z</time></trkpt><trkpt lat="43.114632286739536" lon="11.620912355926938"><ele>388.0</ele><time>2026-05-04T13:29:20.001Z</time></trkpt><trkpt lat="43.114610926641014" lon="11.621113350375662"><ele>388.0</ele><time>2026-05-04T13:29:21.001Z</time></trkpt><trkpt lat="43.11459621125906" lon="11.62132086764234"><ele>386.0</ele><time>2026-05-04T13:29:22.001Z</time></trkpt><trkpt lat="43.114581114346336" lon="11.621529278817615"><ele>384.0</ele><time>2026-05-04T13:29:23.001Z</time></trkpt><trkpt lat="43.11456468035124" lon="11.621748624047685"><ele>382.0</ele><time>2026-05-04T13:29:24.001Z</time></trkpt><trkpt lat="43.114548164887026" lon="11.621966288093413"><ele>379.66666666666663</ele><time>2026-05-04T13:29:25.001Z</time></trkpt><trkpt lat="43.114530040988555" lon="11.622186438892093"><ele>377.3333333333333</ele><time>2026-05-04T13:29:26.001Z</time></trkpt><trkpt lat="43.11450971906378" lon="11.622407629335383"><ele>375.0</ele><time>2026-05-04T13:29:27.001Z</time></trkpt><trkpt lat="43.114490303113634" lon="11.62264488785991"><ele>374.3333333333333</ele><time>2026-05-04T13:29:28.001Z</time></trkpt><trkpt lat="43.114471504921916" lon="11.622875120132244"><ele>373.66666666666663</ele><time>2026-05-04T13:29:29.001Z</time></trkpt><trkpt lat="43.114452335744346" lon="11.623090535504453"><ele>373.0</ele><time>2026-05-04T13:29:30.001Z</time></trkpt><trkpt lat="43.11443425376383" lon="11.623315886840047"><ele>373.0</ele><time>2026-05-04T13:29:31.001Z</time></trkpt><trkpt lat="43.11442492080662" lon="11.623526418805382"><ele>373.0</ele><time>2026-05-04T13:29:32.001Z</time></trkpt><trkpt lat="43.11441966100908" lon="11.623754709317016"><ele>373.0</ele><time>2026-05-04T13:29:33.001Z</time></trkpt><trkpt lat="43.114428330630105" lon="11.623973461527742"><ele>372.66666666666663</ele><time>2026-05-04T13:29:34.001Z</time></trkpt><trkpt lat="43.11445642537853" lon="11.624194102782532"><ele>372.3333333333333</ele><time>2026-05-04T13:29:35.001Z</time></trkpt><trkpt lat="43.11449854462812" lon="11.624415237788916"><ele>372.0</ele><time>2026-05-04T13:29:36.001Z</time></trkpt><trkpt lat="43.114551140823" lon="11.624640525677826"><ele>371.0</ele><time>2026-05-04T13:29:37.001Z</time></trkpt><trkpt lat="43.11460345092694" lon="11.62488549060319"><ele>370.0</ele><time>2026-05-04T13:29:38.001Z</time></trkpt><trkpt lat="43.11464803364693" lon="11.625127602338841"><ele>369.0</ele><time>2026-05-04T13:29:39.001Z</time></trkpt><trkpt lat="43.114683336746246" lon="11.625358049250224"><ele>368.3333333333333</ele><time>2026-05-04T13:29:40Z</time></trkpt><trkpt lat="43.1147140049637" lon="11.62559156291832"><ele>367.66666666666663</ele><time>2026-05-04T13:29:41Z</time></trkpt><trkpt lat="43.11472667430908" lon="11.625794071524789"><ele>367.0</ele><time>2026-05-04T13:29:42Z</time></trkpt><trkpt lat="43.114712370418445" lon="11.625989222029071"><ele>368.3333333333333</ele><time>2026-05-04T13:29:43Z</time></trkpt><trkpt lat="43.11467839411723" lon="11.626182202069277"><ele>369.6666666666667</ele><time>2026-05-04T13:29:44.001Z</time></trkpt><trkpt lat="43.11462255022361" lon="11.626391390419345"><ele>371.0</ele><time>2026-05-04T13:29:45.001Z</time></trkpt><trkpt lat="43.11455262089881" lon="11.626622379916276"><ele>371.0</ele><time>2026-05-04T13:29:46.001Z</time></trkpt><trkpt lat="43.11447657220961" lon="11.62687425879192"><ele>371.0</ele><time>2026-05-04T13:29:47.001Z</time></trkpt><trkpt lat="43.11440955882313" lon="11.627122443085408"><ele>371.0</ele><time>2026-05-04T13:29:48.001Z</time></trkpt><trkpt lat="43.114351695682316" lon="11.627354824795583"><ele>372.33333333333337</ele><time>2026-05-04T13:29:49.001Z</time></trkpt><trkpt lat="43.11431061685941" lon="11.627559880279856"><ele>373.6666666666667</ele><time>2026-05-04T13:29:50.001Z</time></trkpt><trkpt lat="43.11428652680247" lon="11.627764859053038"><ele>375.0</ele><time>2026-05-04T13:29:51.001Z</time></trkpt><trkpt lat="43.114278691662165" lon="11.627967760223987"><ele>376.0</ele><time>2026-05-04T13:29:52.001Z</time></trkpt><trkpt lat="43.11429144404581" lon="11.628184263290725"><ele>377.0</ele><time>2026-05-04T13:29:53.001Z</time></trkpt><trkpt lat="43.11432129679749" lon="11.628419543627153"><ele>378.0</ele><time>2026-05-04T13:29:54.001Z</time></trkpt><trkpt lat="43.11435512124283" lon="11.62867490267686"><ele>378.6666666666667</ele><time>2026-05-04T13:29:55.001Z</time></trkpt><trkpt lat="43.11438522924905" lon="11.628939125891804"><ele>379.33333333333337</ele><time>2026-05-04T13:29:56.001Z</time></trkpt><trkpt lat="43.114418189065084" lon="11.629203380566713"><ele>380.0</ele><time>2026-05-04T13:29:57.001Z</time></trkpt><trkpt lat="43.11445101568777" lon="11.629480935483546"><ele>380.33333333333337</ele><time>2026-05-04T13:29:58.001Z</time></trkpt><trkpt lat="43.114489866012605" lon="11.6297507567664"><ele>380.6666666666667</ele><time>2026-05-04T13:29:59.001Z</time></trkpt><trkpt lat="43.11453441196699" lon="11.63003601133348"><ele>381.0</ele><time>2026-05-04T13:30:00.001Z</time></trkpt><trkpt lat="43.11458511232515" lon="11.630303399340015"><ele>380.3333333333333</ele><time>2026-05-04T13:30:01.001Z</time></trkpt><trkpt lat="43.11464323542909" lon="11.630540109589868"><ele>379.66666666666663</ele><time>2026-05-04T13:30:02.001Z</time></trkpt><trkpt lat="43.11470764111876" lon="11.630753450436313"><ele>379.0</ele><time>2026-05-04T13:30:03.001Z</time></trkpt><trkpt lat="43.1147902374467" lon="11.630961129361133"><ele>377.66666666666663</ele><time>2026-05-04T13:30:04.001Z</time></trkpt><trkpt lat="43.11487959034574" lon="11.631159312892994"><ele>376.3333333333333</ele><time>2026-05-04T13:30:05.001Z</time></trkpt><trkpt lat="43.11496196020195" lon="11.631326705228126"><ele>375.0</ele><time>2026-05-04T13:30:06.001Z</time></trkpt><trkpt lat="43.115048579734896" lon="11.63148187880807"><ele>375.0</ele><time>2026-05-04T13:30:07.001Z</time></trkpt><trkpt lat="43.11514989520682" lon="11.631622884411591"><ele>375.0</ele><time>2026-05-04T13:30:08.001Z</time></trkpt><trkpt lat="43.115268783907645" lon="11.63176028499619"><ele>375.0</ele><time>2026-05-04T13:30:09.001Z</time></trkpt><trkpt lat="43.11539515146356" lon="11.631873196647916"><ele>373.6666666666667</ele><time>2026-05-04T13:30:10.001Z</time></trkpt><trkpt lat="43.11553300666259" lon="11.63198545111342"><ele>372.33333333333337</ele><time>2026-05-04T13:30:11.001Z</time></trkpt><trkpt lat="43.115672172179764" lon="11.632100136633717"><ele>371.0</ele><time>2026-05-04T13:30:12.001Z</time></trkpt><trkpt lat="43.11579546536128" lon="11.632212469342802"><ele>371.0</ele><time>2026-05-04T13:30:13.001Z</time></trkpt><trkpt lat="43.11590715784631" lon="11.632331169321407"><ele>371.0</ele><time>2026-05-04T13:30:14.001Z</time></trkpt><trkpt lat="43.11600063935538" lon="11.632454787966111"><ele>371.0</ele><time>2026-05-04T13:30:15.001Z</time></trkpt><trkpt lat="43.11607497921038" lon="11.632588257568202"><ele>371.0</ele><time>2026-05-04T13:30:16.001Z</time></trkpt><trkpt lat="43.116128269165465" lon="11.6327303336255"><ele>370.75</ele><time>2026-05-04T13:30:17.001Z</time></trkpt><trkpt lat="43.11616772375194" lon="11.632894882642553"><ele>370.5</ele><time>2026-05-04T13:30:18.001Z</time></trkpt><trkpt lat="43.11620109305811" lon="11.633085094795408"><ele>370.25</ele><time>2026-05-04T13:30:19.001Z</time></trkpt><trkpt lat="43.11624107413198" lon="11.633291070833437"><ele>370.0</ele><time>2026-05-04T13:30:20.001Z</time></trkpt><trkpt lat="43.11628834905926" lon="11.633498115932008"><ele>369.0</ele><time>2026-05-04T13:30:21.001Z</time></trkpt><trkpt lat="43.11633364904781" lon="11.633681191670238"><ele>368.0</ele><time>2026-05-04T13:30:22.001Z</time></trkpt><trkpt lat="43.116375720256734" lon="11.633854174071336"><ele>367.0</ele><time>2026-05-04T13:30:23.001Z</time></trkpt><trkpt lat="43.11642170177352" lon="11.634016699697808"><ele>366.0</ele><time>2026-05-04T13:30:24.001Z</time></trkpt><trkpt lat="43.11648543622442" lon="11.634164862965687"><ele>366.0</ele><time>2026-05-04T13:30:25.001Z</time></trkpt><trkpt lat="43.1165683394377" lon="11.634301329305169"><ele>366.0</ele><time>2026-05-04T13:30:26.001Z</time></trkpt><trkpt lat="43.11665186577532" lon="11.634416869277025"><ele>366.0</ele><time>2026-05-04T13:30:27.001Z</time></trkpt><trkpt lat="43.116723111709504" lon="11.634530837325418"><ele>366.0</ele><time>2026-05-04T13:30:28.001Z</time></trkpt><trkpt lat="43.116773297547525" lon="11.634639519093433"><ele>365.20000000000005</ele><time>2026-05-04T13:30:29.001Z</time></trkpt><trkpt lat="43.116804987249154" lon="11.634770138737025"><ele>364.40000000000003</ele><time>2026-05-04T13:30:30.001Z</time></trkpt><trkpt lat="43.116818452295426" lon="11.634924125601788"><ele>363.6</ele><time>2026-05-04T13:30:31.001Z</time></trkpt><trkpt lat="43.116817072774296" lon="11.635087612315925"><ele>362.8</ele><time>2026-05-04T13:30:32.001Z</time></trkpt><trkpt lat="43.11681675392652" lon="11.635233524535327"><ele>362.0</ele><time>2026-05-04T13:30:33.001Z</time></trkpt><trkpt lat="43.11682753171463" lon="11.635361795117639"><ele>360.8</ele><time>2026-05-04T13:30:34.001Z</time></trkpt><trkpt lat="43.11685910893523" lon="11.635472977976875"><ele>359.6</ele><time>2026-05-04T13:30:35.001Z</time></trkpt><trkpt lat="43.11690661204051" lon="11.635578631055399"><ele>358.40000000000003</ele><time>2026-05-04T13:30:36.001Z</time></trkpt><trkpt lat="43.11697462076326" lon="11.635664575123982"><ele>357.20000000000005</ele><time>2026-05-04T13:30:37.001Z</time></trkpt><trkpt lat="43.11705684649448" lon="11.635722142090486"><ele>356.0</ele><time>2026-05-04T13:30:38.001Z</time></trkpt><trkpt lat="43.11715686747092" lon="11.635745407320467"><ele>356.0</ele><time>2026-05-04T13:30:39.001Z</time></trkpt><trkpt lat="43.11728497103892" lon="11.63576453646781"><ele>356.0</ele><time>2026-05-04T13:30:40.001Z</time></trkpt><trkpt lat="43.117428109645296" lon="11.635810827919231"><ele>356.0</ele><time>2026-05-04T13:30:41.001Z</time></trkpt><trkpt lat="43.11759113903063" lon="11.63583298814726"><ele>356.0</ele><time>2026-05-04T13:30:42.001Z</time></trkpt><trkpt lat="43.117757347918605" lon="11.635833156467195"><ele>356.25</ele><time>2026-05-04T13:30:43.001Z</time></trkpt><trkpt lat="43.117903223934015" lon="11.635850842054383"><ele>356.5</ele><time>2026-05-04T13:30:44.001Z</time></trkpt><trkpt lat="43.11803410151456" lon="11.635864795036722"><ele>356.75</ele><time>2026-05-04T13:30:45.001Z</time></trkpt><trkpt lat="43.11815786542678" lon="11.635878956778846"><ele>357.0</ele><time>2026-05-04T13:30:46.001Z</time></trkpt><trkpt lat="43.11828131348109" lon="11.635898082406065"><ele>356.5</ele><time>2026-05-04T13:30:47.001Z</time></trkpt><trkpt lat="43.11839590707039" lon="11.635920458633652"><ele>356.0</ele><time>2026-05-04T13:30:48.001Z</time></trkpt><trkpt lat="43.11851118158557" lon="11.635949550355935"><ele>355.5</ele><time>2026-05-04T13:30:49.001Z</time></trkpt><trkpt lat="43.11863403031621" lon="11.636002010739414"><ele>355.0</ele><time>2026-05-04T13:30:50.001Z</time></trkpt><trkpt lat="43.11874698269014" lon="11.636066311813046"><ele>354.5</ele><time>2026-05-04T13:30:51.001Z</time></trkpt><trkpt lat="43.11886026293607" lon="11.636154310785718"><ele>354.0</ele><time>2026-05-04T13:30:52.001Z</time></trkpt><trkpt lat="43.11897254840201" lon="11.636268084643111"><ele>353.5</ele><time>2026-05-04T13:30:53.001Z</time></trkpt><trkpt lat="43.119089350682756" lon="11.636398718089332"><ele>353.0</ele><time>2026-05-04T13:30:54.001Z</time></trkpt><trkpt lat="43.119214862391374" lon="11.636520635405995"><ele>353.0</ele><time>2026-05-04T13:30:55.001Z</time></trkpt><trkpt lat="43.11935667751627" lon="11.63662071187"><ele>353.0</ele><time>2026-05-04T13:30:56.001Z</time></trkpt><trkpt lat="43.11952157189383" lon="11.63669737146922"><ele>353.0</ele><time>2026-05-04T13:30:57.001Z</time></trkpt><trkpt lat="43.11969706389027" lon="11.636762059533332"><ele>353.0</ele><time>2026-05-04T13:30:58.001Z</time></trkpt><trkpt lat="43.11985849076173" lon="11.636831135715427"><ele>353.0</ele><time>2026-05-04T13:30:59.001Z</time></trkpt><trkpt lat="43.11999630982606" lon="11.636905199250256"><ele>353.0</ele><time>2026-05-04T13:31:00.001Z</time></trkpt><trkpt lat="43.12011728043964" lon="11.6369892228688"><ele>352.25</ele><time>2026-05-04T13:31:01.001Z</time></trkpt><trkpt lat="43.12022487066455" lon="11.637094505283603"><ele>351.5</ele><time>2026-05-04T13:31:02.001Z</time></trkpt><trkpt lat="43.12031254342494" lon="11.637224662483842"><ele>350.75</ele><time>2026-05-04T13:31:03.001Z</time></trkpt><trkpt lat="43.12039844775762" lon="11.637377242809631"><ele>350.0</ele><time>2026-05-04T13:31:04.001Z</time></trkpt><trkpt lat="43.12048551827684" lon="11.637565214429392"><ele>350.0</ele><time>2026-05-04T13:31:05.001Z</time></trkpt><trkpt lat="43.1205861931928" lon="11.6377633546134"><ele>350.0</ele><time>2026-05-04T13:31:06.001Z</time></trkpt><trkpt lat="43.12069157716253" lon="11.637961987788014"><ele>350.0</ele><time>2026-05-04T13:31:07.001Z</time></trkpt><trkpt lat="43.12078261817365" lon="11.638132662301619"><ele>351.0</ele><time>2026-05-04T13:31:08.001Z</time></trkpt><trkpt lat="43.12085845934494" lon="11.638291453586291"><ele>352.0</ele><time>2026-05-04T13:31:09.001Z</time></trkpt><trkpt lat="43.12091995531661" lon="11.638438455109343"><ele>353.0</ele><time>2026-05-04T13:31:10.001Z</time></trkpt><trkpt lat="43.12097935870182" lon="11.638606930728148"><ele>354.0</ele><time>2026-05-04T13:31:11.001Z</time></trkpt><trkpt lat="43.12102989120425" lon="11.638786964453532"><ele>354.0</ele><time>2026-05-04T13:31:12.001Z</time></trkpt><trkpt lat="43.1210712994491" lon="11.638978492417257"><ele>354.0</ele><time>2026-05-04T13:31:13.002Z</time></trkpt><trkpt lat="43.12109774577705" lon="11.639161893615169"><ele>354.0</ele><time>2026-05-04T13:31:14.002Z</time></trkpt><trkpt lat="43.12111698108181" lon="11.639364148414591"><ele>354.0</ele><time>2026-05-04T13:31:15.002Z</time></trkpt><trkpt lat="43.12113920270902" lon="11.639569255691242"><ele>355.5</ele><time>2026-05-04T13:31:16.002Z</time></trkpt><trkpt lat="43.12116558849814" lon="11.63978156449909"><ele>357.0</ele><time>2026-05-04T13:31:17.002Z</time></trkpt><trkpt lat="43.121188712978075" lon="11.639956916766655"><ele>358.5</ele><time>2026-05-04T13:31:18.002Z</time></trkpt><trkpt lat="43.12120417274049" lon="11.640102564238862"><ele>360.0</ele><time>2026-05-04T13:31:19.002Z</time></trkpt><trkpt lat="43.121209340345644" lon="11.640235261451565"><ele>361.8</ele><time>2026-05-04T13:31:20.002Z</time></trkpt><trkpt lat="43.1211914383313" lon="11.640362955578842"><ele>363.6</ele><time>2026-05-04T13:31:21.002Z</time></trkpt><trkpt lat="43.12114749476988" lon="11.640492777659778"><ele>365.4</ele><time>2026-05-04T13:31:22.002Z</time></trkpt><trkpt lat="43.12107678875135" lon="11.6406230993944"><ele>367.2</ele><time>2026-05-04T13:31:23.002Z</time></trkpt><trkpt lat="43.12098607164554" lon="11.6407450450567"><ele>369.0</ele><time>2026-05-04T13:31:24.002Z</time></trkpt><trkpt lat="43.12088792883928" lon="11.640869489838131"><ele>369.0</ele><time>2026-05-04T13:31:25.002Z</time></trkpt><trkpt lat="43.120777205773805" lon="11.641003340196422"><ele>369.0</ele><time>2026-05-04T13:31:26.002Z</time></trkpt><trkpt lat="43.12065781706974" lon="11.641154834172244"><ele>369.0</ele><time>2026-05-04T13:31:27.002Z</time></trkpt><trkpt lat="43.12056101931607" lon="11.641291287249658"><ele>369.0</ele><time>2026-05-04T13:31:28.002Z</time></trkpt><trkpt lat="43.12048948354157" lon="11.641422834727718"><ele>368.25</ele><time>2026-05-04T13:31:29.002Z</time></trkpt><trkpt lat="43.12044197766458" lon="11.641558629830648"><ele>367.5</ele><time>2026-05-04T13:31:30.002Z</time></trkpt><trkpt lat="43.12041504389626" lon="11.641714702860702"><ele>366.75</ele><time>2026-05-04T13:31:31.002Z</time></trkpt><trkpt lat="43.12038995420281" lon="11.641903220221286"><ele>366.0</ele><time>2026-05-04T13:31:32.002Z</time></trkpt><trkpt lat="43.12035291303632" lon="11.642111168388272"><ele>368.0</ele><time>2026-05-04T13:31:33.002Z</time></trkpt><trkpt lat="43.12030038347596" lon="11.642280238046508"><ele>370.0</ele><time>2026-05-04T13:31:34.002Z</time></trkpt><trkpt lat="43.12022365302131" lon="11.64242972380746"><ele>372.0</ele><time>2026-05-04T13:31:35.002Z</time></trkpt><trkpt lat="43.120132475409676" lon="11.642566916914417"><ele>374.0</ele><time>2026-05-04T13:31:36.002Z</time></trkpt><trkpt lat="43.120058635356216" lon="11.64269462872779"><ele>375.0</ele><time>2026-05-04T13:31:37.002Z</time></trkpt><trkpt lat="43.12001050065689" lon="11.642834705646008"><ele>376.0</ele><time>2026-05-04T13:31:38.002Z</time></trkpt><trkpt lat="43.11998458926482" lon="11.64299557763073"><ele>377.0</ele><time>2026-05-04T13:31:39.002Z</time></trkpt><trkpt lat="43.11997653330891" lon="11.64317815036516"><ele>378.0</ele><time>2026-05-04T13:31:40.002Z</time></trkpt><trkpt lat="43.11997637656775" lon="11.643387177975928"><ele>378.0</ele><time>2026-05-04T13:31:41.002Z</time></trkpt><trkpt lat="43.11996919823562" lon="11.643617582922408"><ele>378.0</ele><time>2026-05-04T13:31:42.002Z</time></trkpt><trkpt lat="43.11994202242697" lon="11.643852297993556"><ele>378.0</ele><time>2026-05-04T13:31:43.002Z</time></trkpt><trkpt lat="43.11990065485715" lon="11.644094913244333"><ele>375.3333333333333</ele><time>2026-05-04T13:31:44.002Z</time></trkpt><trkpt lat="43.1198562448273" lon="11.644338652703961"><ele>372.66666666666663</ele><time>2026-05-04T13:31:45.002Z</time></trkpt><trkpt lat="43.11980904047981" lon="11.644600350031808"><ele>370.0</ele><time>2026-05-04T13:31:46.001Z</time></trkpt><trkpt lat="43.11976012084917" lon="11.644870711677184"><ele>370.0</ele><time>2026-05-04T13:31:47.001Z</time></trkpt><trkpt lat="43.11970897811299" lon="11.645133984122198"><ele>370.0</ele><time>2026-05-04T13:31:48.001Z</time></trkpt><trkpt lat="43.11966235930177" lon="11.64537905150526"><ele>370.0</ele><time>2026-05-04T13:31:49.001Z</time></trkpt><trkpt lat="43.11962215334457" lon="11.645614347220688"><ele>372.25</ele><time>2026-05-04T13:31:50.001Z</time></trkpt><trkpt lat="43.11959222283298" lon="11.645822134680214"><ele>374.5</ele><time>2026-05-04T13:31:51.001Z</time></trkpt><trkpt lat="43.11956357378722" lon="11.64600025621976"><ele>376.75</ele><time>2026-05-04T13:31:52.001Z</time></trkpt><trkpt lat="43.11953098787732" lon="11.646152817936342"><ele>379.0</ele><time>2026-05-04T13:31:53.001Z</time></trkpt><trkpt lat="43.11954319247247" lon="11.646311877237352"><ele>380.0</ele><time>2026-05-04T13:31:54.001Z</time></trkpt><trkpt lat="43.11956572817422" lon="11.646463264791722"><ele>381.0</ele><time>2026-05-04T13:31:55.001Z</time></trkpt><trkpt lat="43.11961183770049" lon="11.646603634933339"><ele>382.0</ele><time>2026-05-04T13:31:56.001Z</time></trkpt><trkpt lat="43.1196742720176" lon="11.646739294927603"><ele>383.0</ele><time>2026-05-04T13:31:57.001Z</time></trkpt><trkpt lat="43.11975649420798" lon="11.646878321003655"><ele>383.0</ele><time>2026-05-04T13:31:58.001Z</time></trkpt><trkpt lat="43.11984576688868" lon="11.64701819511903"><ele>383.0</ele><time>2026-05-04T13:31:59.001Z</time></trkpt><trkpt lat="43.119931645589546" lon="11.647126965281968"><ele>383.0</ele><time>2026-05-04T13:32:00.001Z</time></trkpt><trkpt lat="43.1200294459665" lon="11.647213880531146"><ele>383.0</ele><time>2026-05-04T13:32:01.001Z</time></trkpt><trkpt lat="43.12013764656814" lon="11.6472554152104"><ele>385.5</ele><time>2026-05-04T13:32:02.001Z</time></trkpt><trkpt lat="43.12025702767369" lon="11.647272756699577"><ele>388.0</ele><time>2026-05-04T13:32:03.001Z</time></trkpt><trkpt lat="43.12040471957089" lon="11.647290949551474"><ele>390.5</ele><time>2026-05-04T13:32:04.001Z</time></trkpt><trkpt lat="43.120564975220375" lon="11.64731817585228"><ele>393.0</ele><time>2026-05-04T13:32:05.001Z</time></trkpt><trkpt lat="43.12070749651877" lon="11.647370573814282"><ele>395.0</ele><time>2026-05-04T13:32:06.001Z</time></trkpt><trkpt lat="43.12081348743892" lon="11.647438115004958"><ele>397.0</ele><time>2026-05-04T13:32:07.001Z</time></trkpt><trkpt lat="43.120887949294" lon="11.647511782501791"><ele>399.0</ele><time>2026-05-04T13:32:08.001Z</time></trkpt><trkpt lat="43.12093362723725" lon="11.64759902682243"><ele>401.0</ele><time>2026-05-04T13:32:09.001Z</time></trkpt><trkpt lat="43.120956396878626" lon="11.64770754335017"><ele>403.0</ele><time>2026-05-04T13:32:10.001Z</time></trkpt><trkpt lat="43.12094591331518" lon="11.64784744340013"><ele>404.25</ele><time>2026-05-04T13:32:11.001Z</time></trkpt><trkpt lat="43.120916784138956" lon="11.648001890058872"><ele>405.5</ele><time>2026-05-04T13:32:12.001Z</time></trkpt><trkpt lat="43.12086745810248" lon="11.648149304527058"><ele>406.75</ele><time>2026-05-04T13:32:13.001Z</time></trkpt><trkpt lat="43.12079577520889" lon="11.64827354708638"><ele>408.0</ele><time>2026-05-04T13:32:14.001Z</time></trkpt><trkpt lat="43.12070495973795" lon="11.648392014088813"><ele>407.33333333333337</ele><time>2026-05-04T13:32:15.001Z</time></trkpt><trkpt lat="43.120596044108275" lon="11.648520283543762"><ele>406.6666666666667</ele><time>2026-05-04T13:32:16.001Z</time></trkpt><trkpt lat="43.120482040280805" lon="11.648658727375379"><ele>406.0</ele><time>2026-05-04T13:32:17.001Z</time></trkpt><trkpt lat="43.120360725118516" lon="11.648812119542633"><ele>406.0</ele><time>2026-05-04T13:32:18.001Z</time></trkpt><trkpt lat="43.12026078139609" lon="11.648954999228115"><ele>406.0</ele><time>2026-05-04T13:32:19.001Z</time></trkpt><trkpt lat="43.12016935130648" lon="11.649098105597904"><ele>406.0</ele><time>2026-05-04T13:32:20.001Z</time></trkpt><trkpt lat="43.12009672579733" lon="11.649245058682082"><ele>406.0</ele><time>2026-05-04T13:32:21.001Z</time></trkpt><trkpt lat="43.120039940701915" lon="11.649409214333387"><ele>408.6666666666667</ele><time>2026-05-04T13:32:22.001Z</time></trkpt><trkpt lat="43.11999936864014" lon="11.649600303547828"><ele>411.33333333333337</ele><time>2026-05-04T13:32:23.001Z</time></trkpt><trkpt lat="43.119953859895624" lon="11.649817979712312"><ele>414.0</ele><time>2026-05-04T13:32:24.001Z</time></trkpt><trkpt lat="43.11990897494547" lon="11.650040899239624"><ele>411.0</ele><time>2026-05-04T13:32:25.001Z</time></trkpt><trkpt lat="43.119861539051264" lon="11.650270494225692"><ele>408.0</ele><time>2026-05-04T13:32:26.001Z</time></trkpt><trkpt lat="43.11982126010484" lon="11.65049906802076"><ele>405.0</ele><time>2026-05-04T13:32:27.001Z</time></trkpt><trkpt lat="43.11979329698802" lon="11.650721323407144"><ele>405.0</ele><time>2026-05-04T13:32:28.001Z</time></trkpt><trkpt lat="43.11977404040625" lon="11.650943675879514"><ele>405.0</ele><time>2026-05-04T13:32:29.001Z</time></trkpt><trkpt lat="43.119763335816224" lon="11.651184155477178"><ele>405.0</ele><time>2026-05-04T13:32:30.001Z</time></trkpt><trkpt lat="43.119758454503405" lon="11.65138949883593"><ele>405.25</ele><time>2026-05-04T13:32:31.001Z</time></trkpt><trkpt lat="43.119755580393665" lon="11.651577347165636"><ele>405.5</ele><time>2026-05-04T13:32:32.001Z</time></trkpt><trkpt lat="43.119763728165644" lon="11.651742086512298"><ele>405.75</ele><time>2026-05-04T13:32:33.001Z</time></trkpt><trkpt lat="43.119784234141235" lon="11.651904887226241"><ele>406.0</ele><time>2026-05-04T13:32:34.001Z</time></trkpt><trkpt lat="43.11983253429044" lon="11.652053906409458"><ele>406.0</ele><time>2026-05-04T13:32:35.001Z</time></trkpt><trkpt lat="43.11989282347736" lon="11.652223516031023"><ele>406.0</ele><time>2026-05-04T13:32:36.001Z</time></trkpt><trkpt lat="43.11998607745849" lon="11.652394527577933"><ele>406.0</ele><time>2026-05-04T13:32:37.001Z</time></trkpt><trkpt lat="43.120099129625515" lon="11.652544597660873"><ele>407.33333333333337</ele><time>2026-05-04T13:32:38.001Z</time></trkpt><trkpt lat="43.120210385347725" lon="11.652709142201914"><ele>408.66666666666663</ele><time>2026-05-04T13:32:39.001Z</time></trkpt><trkpt lat="43.120332233931656" lon="11.652886485153456"><ele>410.0</ele><time>2026-05-04T13:32:40.001Z</time></trkpt><trkpt lat="43.12044466740798" lon="11.653051021585119"><ele>410.0</ele><time>2026-05-04T13:32:41.001Z</time></trkpt><trkpt lat="43.12054304893002" lon="11.653217264980114"><ele>410.0</ele><time>2026-05-04T13:32:42.001Z</time></trkpt><trkpt lat="43.12062265585424" lon="11.653377412428146"><ele>410.0</ele><time>2026-05-04T13:32:43.001Z</time></trkpt><trkpt lat="43.120685691702825" lon="11.653551274378492"><ele>410.0</ele><time>2026-05-04T13:32:44.001Z</time></trkpt><trkpt lat="43.120728223350014" lon="11.653726676819872"><ele>411.0</ele><time>2026-05-04T13:32:45.001Z</time></trkpt><trkpt lat="43.120753521820305" lon="11.653917532183433"><ele>412.0</ele><time>2026-05-04T13:32:46.001Z</time></trkpt><trkpt lat="43.120778340114526" lon="11.654080193672396"><ele>413.0</ele><time>2026-05-04T13:32:47.001Z</time></trkpt><trkpt lat="43.1207990635281" lon="11.654236291393694"><ele>414.0</ele><time>2026-05-04T13:32:48.001Z</time></trkpt><trkpt lat="43.12080246656939" lon="11.654397283321051"><ele>414.25</ele><time>2026-05-04T13:32:49.001Z</time></trkpt><trkpt lat="43.12078264586708" lon="11.654564557553297"><ele>414.5</ele><time>2026-05-04T13:32:50.001Z</time></trkpt><trkpt lat="43.120740686501414" lon="11.654733412062177"><ele>414.75</ele><time>2026-05-04T13:32:51.001Z</time></trkpt><trkpt lat="43.12068134035863" lon="11.654894160271365"><ele>415.0</ele><time>2026-05-04T13:32:52.001Z</time></trkpt><trkpt lat="43.12059810532634" lon="11.655048944067136"><ele>414.5</ele><time>2026-05-04T13:32:53.001Z</time></trkpt><trkpt lat="43.120507145392686" lon="11.65519273909012"><ele>414.0</ele><time>2026-05-04T13:32:54.001Z</time></trkpt><trkpt lat="43.12042471208979" lon="11.655328083319187"><ele>413.5</ele><time>2026-05-04T13:32:55.001Z</time></trkpt><trkpt lat="43.120371428939755" lon="11.655448873753784"><ele>413.0</ele><time>2026-05-04T13:32:56.001Z</time></trkpt><trkpt lat="43.12033522535371" lon="11.655550392025"><ele>413.0</ele><time>2026-05-04T13:32:57.001Z</time></trkpt><trkpt lat="43.120360285666294" lon="11.655682435473082"><ele>413.0</ele><time>2026-05-04T13:32:58.001Z</time></trkpt><trkpt lat="43.12039902981829" lon="11.655814584861432"><ele>413.0</ele><time>2026-05-04T13:32:59.001Z</time></trkpt><trkpt lat="43.12046505061124" lon="11.655964703663683"><ele>413.0</ele><time>2026-05-04T13:33:00.001Z</time></trkpt><trkpt lat="43.12055098039456" lon="11.656128981149381"><ele>412.3333333333333</ele><time>2026-05-04T13:33:01.001Z</time></trkpt><trkpt lat="43.12064558850299" lon="11.656319249895724"><ele>411.66666666666663</ele><time>2026-05-04T13:33:02.001Z</time></trkpt><trkpt lat="43.12073726723474" lon="11.656498967739147"><ele>411.0</ele><time>2026-05-04T13:33:03.001Z</time></trkpt><trkpt lat="43.12082315118167" lon="11.656656381238902"><ele>411.0</ele><time>2026-05-04T13:33:04.001Z</time></trkpt><trkpt lat="43.120884606538375" lon="11.656780319301676"><ele>411.0</ele><time>2026-05-04T13:33:05.001Z</time></trkpt><trkpt lat="43.12093521339242" lon="11.656877288511257"><ele>411.0</ele><time>2026-05-04T13:33:06.001Z</time></trkpt><trkpt lat="43.12098091509892" lon="11.656982282017225"><ele>411.0</ele><time>2026-05-04T13:33:08.001Z</time></trkpt><trkpt lat="43.12089300997432" lon="11.657074325237613"><ele>411.0</ele><time>2026-05-04T13:33:11.001Z</time></trkpt><trkpt lat="43.12080444284986" lon="11.657119172775914"><ele>410.75</ele><time>2026-05-04T13:33:12.001Z</time></trkpt><trkpt lat="43.12069870338135" lon="11.657171743682188"><ele>410.5</ele><time>2026-05-04T13:33:13.001Z</time></trkpt><trkpt lat="43.12058086215907" lon="11.6572310858813"><ele>410.25</ele><time>2026-05-04T13:33:14.001Z</time></trkpt><trkpt lat="43.1204469391949" lon="11.657297468135676"><ele>410.0</ele><time>2026-05-04T13:33:15.001Z</time></trkpt><trkpt lat="43.12030236050496" lon="11.657369769125417"><ele>410.0</ele><time>2026-05-04T13:33:16.001Z</time></trkpt><trkpt lat="43.12014719142525" lon="11.657447918526683"><ele>410.0</ele><time>2026-05-04T13:33:17.001Z</time></trkpt><trkpt lat="43.11998052429144" lon="11.657530625391262"><ele>410.0</ele><time>2026-05-04T13:33:18.001Z</time></trkpt><trkpt lat="43.119811122076364" lon="11.657613903774863"><ele>410.66666666666663</ele><time>2026-05-04T13:33:19.001Z</time></trkpt><trkpt lat="43.11963361977643" lon="11.65769986067262"><ele>411.33333333333337</ele><time>2026-05-04T13:33:20.001Z</time></trkpt><trkpt lat="43.119470068722464" lon="11.657780893529546"><ele>412.0</ele><time>2026-05-04T13:33:21.001Z</time></trkpt><trkpt lat="43.11930470382049" lon="11.657864576342073"><ele>412.0</ele><time>2026-05-04T13:33:22.001Z</time></trkpt><trkpt lat="43.11913090538133" lon="11.657954751979476"><ele>412.0</ele><time>2026-05-04T13:33:23.001Z</time></trkpt><trkpt lat="43.11894136484349" lon="11.658046882753068"><ele>412.0</ele><time>2026-05-04T13:33:24.001Z</time></trkpt><trkpt lat="43.11874036274743" lon="11.658145788599281"><ele>411.33333333333337</ele><time>2026-05-04T13:33:25.001Z</time></trkpt><trkpt lat="43.11853321706141" lon="11.658247890287136"><ele>410.66666666666663</ele><time>2026-05-04T13:33:26.001Z</time></trkpt><trkpt lat="43.11832447167848" lon="11.658353578225283"><ele>410.0</ele><time>2026-05-04T13:33:27.001Z</time></trkpt><trkpt lat="43.11810422718787" lon="11.658462908487511"><ele>407.0</ele><time>2026-05-04T13:33:28.001Z</time></trkpt><trkpt lat="43.1178929927871" lon="11.65858296776686"><ele>404.0</ele><time>2026-05-04T13:33:29.001Z</time></trkpt><trkpt lat="43.1176658343738" lon="11.658696026008466"><ele>402.5</ele><time>2026-05-04T13:33:30.001Z</time></trkpt><trkpt lat="43.1174311110741" lon="11.658810001236523"><ele>401.0</ele><time>2026-05-04T13:33:31.001Z</time></trkpt><trkpt lat="43.11718721489284" lon="11.658933167565785"><ele>400.5</ele><time>2026-05-04T13:33:32.001Z</time></trkpt><trkpt lat="43.11693956950405" lon="11.659059995510631"><ele>400.0</ele><time>2026-05-04T13:33:33.001Z</time></trkpt><trkpt lat="43.11668708260806" lon="11.659185300810453"><ele>400.5</ele><time>2026-05-04T13:33:34.001Z</time></trkpt><trkpt lat="43.11643821328163" lon="11.65930914834248"><ele>401.0</ele><time>2026-05-04T13:33:35.001Z</time></trkpt><trkpt lat="43.116194259644814" lon="11.659432517406763"><ele>398.66666666666663</ele><time>2026-05-04T13:33:36.002Z</time></trkpt><trkpt lat="43.11598342226038" lon="11.659543869384917"><ele>396.33333333333337</ele><time>2026-05-04T13:33:37.002Z</time></trkpt><trkpt lat="43.11578526882398" lon="11.659648831323087"><ele>394.0</ele><time>2026-05-04T13:33:38.002Z</time></trkpt><trkpt lat="43.11559339283921" lon="11.659745394855463"><ele>394.0</ele><time>2026-05-04T13:33:39.002Z</time></trkpt><trkpt lat="43.1154101093352" lon="11.659824874456225"><ele>394.0</ele><time>2026-05-04T13:33:40.002Z</time></trkpt><trkpt lat="43.115217152804014" lon="11.659876467372042"><ele>394.0</ele><time>2026-05-04T13:33:41.002Z</time></trkpt><trkpt lat="43.11500801541072" lon="11.65990100841569"><ele>391.0</ele><time>2026-05-04T13:33:42.002Z</time></trkpt><trkpt lat="43.1147861248966" lon="11.659914840582088"><ele>388.0</ele><time>2026-05-04T13:33:43.002Z</time></trkpt><trkpt lat="43.11455733779972" lon="11.659931576474875"><ele>388.0</ele><time>2026-05-04T13:33:44.002Z</time></trkpt><trkpt lat="43.11431656175491" lon="11.659950983353443"><ele>388.0</ele><time>2026-05-04T13:33:45.002Z</time></trkpt><trkpt lat="43.1140714771951" lon="11.6599758557158"><ele>385.6666666666667</ele><time>2026-05-04T13:33:46.002Z</time></trkpt><trkpt lat="43.11384756453455" lon="11.65999837956819"><ele>383.33333333333337</ele><time>2026-05-04T13:33:47.002Z</time></trkpt><trkpt lat="43.11364129847223" lon="11.660019756876023"><ele>381.0</ele><time>2026-05-04T13:33:48.002Z</time></trkpt><trkpt lat="43.113436988065544" lon="11.660024253534216"><ele>378.6666666666667</ele><time>2026-05-04T13:33:49.002Z</time></trkpt><trkpt lat="43.11323545165496" lon="11.660006037756308"><ele>376.33333333333337</ele><time>2026-05-04T13:33:50.002Z</time></trkpt><trkpt lat="43.1130422226674" lon="11.659934180062097"><ele>374.0</ele><time>2026-05-04T13:33:51.002Z</time></trkpt><trkpt lat="43.112833359535564" lon="11.659864900335856"><ele>374.0</ele><time>2026-05-04T13:33:52.001Z</time></trkpt><trkpt lat="43.11261354471324" lon="11.659807109591272"><ele>374.0</ele><time>2026-05-04T13:33:53.001Z</time></trkpt><trkpt lat="43.112392878811946" lon="11.659744209423028"><ele>374.0</ele><time>2026-05-04T13:33:54.001Z</time></trkpt><trkpt lat="43.112151331246764" lon="11.659694007116617"><ele>373.5</ele><time>2026-05-04T13:33:55.001Z</time></trkpt><trkpt lat="43.11191411645672" lon="11.65965446799764"><ele>373.0</ele><time>2026-05-04T13:33:56.001Z</time></trkpt><trkpt lat="43.111674761360256" lon="11.659619452350094"><ele>373.0</ele><time>2026-05-04T13:33:57.001Z</time></trkpt><trkpt lat="43.11145306828696" lon="11.659572164864334"><ele>373.0</ele><time>2026-05-04T13:33:58.001Z</time></trkpt><trkpt lat="43.11125552870694" lon="11.659514072797517"><ele>373.0</ele><time>2026-05-04T13:33:59.001Z</time></trkpt><trkpt lat="43.11107405739818" lon="11.659375518795173"><ele>373.0</ele><time>2026-05-04T13:34:00.001Z</time></trkpt><trkpt lat="43.11092242640507" lon="11.659260035862994"><ele>373.0</ele><time>2026-05-04T13:34:01Z</time></trkpt><trkpt lat="43.11078870204838" lon="11.659200986026477"><ele>373.0</ele><time>2026-05-04T13:34:02Z</time></trkpt><trkpt lat="43.11065577819933" lon="11.659161441098833"><ele>373.0</ele><time>2026-05-04T13:34:03Z</time></trkpt><trkpt lat="43.11050942189988" lon="11.659161741903837"><ele>373.0</ele><time>2026-05-04T13:34:04Z</time></trkpt><trkpt lat="43.11036680324976" lon="11.659216129077189"><ele>373.0</ele><time>2026-05-04T13:34:05Z</time></trkpt><trkpt lat="43.11022342974713" lon="11.659329025790457"><ele>373.0</ele><time>2026-05-04T13:34:06Z</time></trkpt><trkpt lat="43.110065560068094" lon="11.659448644174658"><ele>373.0</ele><time>2026-05-04T13:34:07Z</time></trkpt><trkpt lat="43.10987611933272" lon="11.659568789615186"><ele>373.0</ele><time>2026-05-04T13:34:08Z</time></trkpt><trkpt lat="43.109677068197556" lon="11.6596866609024"><ele>369.3333333333333</ele><time>2026-05-04T13:34:09Z</time></trkpt><trkpt lat="43.10946661295467" lon="11.659816712132498"><ele>365.6666666666667</ele><time>2026-05-04T13:34:10Z</time></trkpt><trkpt lat="43.10926937821007" lon="11.659941553902721"><ele>362.0</ele><time>2026-05-04T13:34:11Z</time></trkpt><trkpt lat="43.10909232832264" lon="11.660048744675152"><ele>361.33333333333337</ele><time>2026-05-04T13:34:12Z</time></trkpt><trkpt lat="43.108930263735324" lon="11.660118429190637"><ele>360.6666666666667</ele><time>2026-05-04T13:34:13Z</time></trkpt><trkpt lat="43.108771104708474" lon="11.660165960367541"><ele>360.0</ele><time>2026-05-04T13:34:14Z</time></trkpt><trkpt lat="43.10858706356861" lon="11.66006162955895"><ele>360.0</ele><time>2026-05-04T13:34:15Z</time></trkpt><trkpt lat="43.10841201841527" lon="11.659963116969006"><ele>360.0</ele><time>2026-05-04T13:34:16Z</time></trkpt><trkpt lat="43.10823266795514" lon="11.659894848438391"><ele>360.0</ele><time>2026-05-04T13:34:17Z</time></trkpt><trkpt lat="43.108028447059105" lon="11.659891655285815"><ele>357.6666666666667</ele><time>2026-05-04T13:34:18Z</time></trkpt><trkpt lat="43.10781295800561" lon="11.659926175235583"><ele>355.33333333333337</ele><time>2026-05-04T13:34:19Z</time></trkpt><trkpt lat="43.10759319274452" lon="11.659988929709321"><ele>353.0</ele><time>2026-05-04T13:34:20Z</time></trkpt><trkpt lat="43.10735480576695" lon="11.660020264790525"><ele>350.33333333333337</ele><time>2026-05-04T13:34:21Z</time></trkpt><trkpt lat="43.10712327133845" lon="11.660013845127285"><ele>347.6666666666667</ele><time>2026-05-04T13:34:22Z</time></trkpt><trkpt lat="43.1069122350058" lon="11.659987348804677"><ele>345.0</ele><time>2026-05-04T13:34:23Z</time></trkpt><trkpt lat="43.10671783557858" lon="11.659958119567793"><ele>343.0</ele><time>2026-05-04T13:34:24Z</time></trkpt><trkpt lat="43.10653014595866" lon="11.659919324113972"><ele>341.0</ele><time>2026-05-04T13:34:25Z</time></trkpt><trkpt lat="43.106368266917" lon="11.659869925331348"><ele>339.0</ele><time>2026-05-04T13:34:26Z</time></trkpt><trkpt lat="43.10621238175065" lon="11.659825682799719"><ele>339.0</ele><time>2026-05-04T13:34:27.001Z</time></trkpt><trkpt lat="43.106054346421224" lon="11.659802565892727"><ele>339.0</ele><time>2026-05-04T13:34:28.001Z</time></trkpt><trkpt lat="43.105881564001905" lon="11.659824329259921"><ele>339.0</ele><time>2026-05-04T13:34:29.001Z</time></trkpt><trkpt lat="43.10568623332053" lon="11.65988500762518"><ele>338.3333333333333</ele><time>2026-05-04T13:34:30.001Z</time></trkpt><trkpt lat="43.10548667484217" lon="11.65995208582436"><ele>337.66666666666663</ele><time>2026-05-04T13:34:31.001Z</time></trkpt><trkpt lat="43.105271937795884" lon="11.6600053256172"><ele>337.0</ele><time>2026-05-04T13:34:32.001Z</time></trkpt><trkpt lat="43.10506414193509" lon="11.660054301208726"><ele>338.0</ele><time>2026-05-04T13:34:33.001Z</time></trkpt><trkpt lat="43.10486182755224" lon="11.66014472801553"><ele>339.0</ele><time>2026-05-04T13:34:34.001Z</time></trkpt><trkpt lat="43.10466091821712" lon="11.66028714774811"><ele>340.0</ele><time>2026-05-04T13:34:35.001Z</time></trkpt><trkpt lat="43.104464031579575" lon="11.660423233251992"><ele>340.3333333333333</ele><time>2026-05-04T13:34:36.001Z</time></trkpt><trkpt lat="43.10428969365338" lon="11.660532000171047"><ele>340.6666666666667</ele><time>2026-05-04T13:34:37.001Z</time></trkpt><trkpt lat="43.10413048031279" lon="11.660617467358264"><ele>341.0</ele><time>2026-05-04T13:34:38.001Z</time></trkpt><trkpt lat="43.10396689567719" lon="11.660669781897205"><ele>341.0</ele><time>2026-05-04T13:34:39.001Z</time></trkpt><trkpt lat="43.10380615259498" lon="11.660665665333616"><ele>341.0</ele><time>2026-05-04T13:34:40.001Z</time></trkpt><trkpt lat="43.103630686083655" lon="11.660613376059924"><ele>341.0</ele><time>2026-05-04T13:34:41.001Z</time></trkpt><trkpt lat="43.103437282766876" lon="11.660551346149559"><ele>341.33333333333337</ele><time>2026-05-04T13:34:42.001Z</time></trkpt><trkpt lat="43.10323389981668" lon="11.660479807028842"><ele>341.6666666666667</ele><time>2026-05-04T13:34:43.001Z</time></trkpt><trkpt lat="43.10301888628629" lon="11.660393599795466"><ele>342.0</ele><time>2026-05-04T13:34:44.001Z</time></trkpt><trkpt lat="43.10279877147715" lon="11.660310214497"><ele>344.0</ele><time>2026-05-04T13:34:45.001Z</time></trkpt><trkpt lat="43.10257202196369" lon="11.660226831129918"><ele>346.0</ele><time>2026-05-04T13:34:46.001Z</time></trkpt><trkpt lat="43.10236272682994" lon="11.660155316349567"><ele>346.66666666666663</ele><time>2026-05-04T13:34:47.001Z</time></trkpt><trkpt lat="43.10217272899102" lon="11.660094981225422"><ele>347.3333333333333</ele><time>2026-05-04T13:34:48.001Z</time></trkpt><trkpt lat="43.102005294383375" lon="11.660057563528813"><ele>348.0</ele><time>2026-05-04T13:34:49.001Z</time></trkpt><trkpt lat="43.101850240812894" lon="11.660053088166121"><ele>348.0</ele><time>2026-05-04T13:34:50.001Z</time></trkpt><trkpt lat="43.10169233095534" lon="11.660099282074118"><ele>348.0</ele><time>2026-05-04T13:34:51.001Z</time></trkpt><trkpt lat="43.101525330276246" lon="11.660186200328091"><ele>348.0</ele><time>2026-05-04T13:34:52.001Z</time></trkpt><trkpt lat="43.10134046518476" lon="11.660304633555073"><ele>348.6666666666667</ele><time>2026-05-04T13:34:53.001Z</time></trkpt><trkpt lat="43.10113743127713" lon="11.660420419963364"><ele>349.33333333333337</ele><time>2026-05-04T13:34:54.001Z</time></trkpt><trkpt lat="43.100924831530484" lon="11.660539087333913"><ele>350.0</ele><time>2026-05-04T13:34:55.001Z</time></trkpt><trkpt lat="43.100705890514206" lon="11.660666329162678"><ele>352.0</ele><time>2026-05-04T13:34:56.001Z</time></trkpt><trkpt lat="43.100489760939276" lon="11.660800480552002"><ele>354.0</ele><time>2026-05-04T13:34:57.001Z</time></trkpt><trkpt lat="43.1002866683635" lon="11.660924330529207"><ele>354.0</ele><time>2026-05-04T13:34:58.001Z</time></trkpt><trkpt lat="43.10008273610964" lon="11.661019576499422"><ele>354.0</ele><time>2026-05-04T13:34:59.001Z</time></trkpt><trkpt lat="43.09987455969243" lon="11.661075833839885"><ele>354.0</ele><time>2026-05-04T13:35:00.001Z</time></trkpt><trkpt lat="43.099661663306016" lon="11.661066623388919"><ele>355.6666666666667</ele><time>2026-05-04T13:35:01.001Z</time></trkpt><trkpt lat="43.09945401097158" lon="11.661033526933437"><ele>357.33333333333337</ele><time>2026-05-04T13:35:02.001Z</time></trkpt><trkpt lat="43.099239917202816" lon="11.661005873343042"><ele>359.0</ele><time>2026-05-04T13:35:03.001Z</time></trkpt><trkpt lat="43.09901854031631" lon="11.660975187626823"><ele>361.5</ele><time>2026-05-04T13:35:04.001Z</time></trkpt><trkpt lat="43.09878908627201" lon="11.660924478285857"><ele>364.0</ele><time>2026-05-04T13:35:05.001Z</time></trkpt><trkpt lat="43.098560630141456" lon="11.660859463958088"><ele>364.0</ele><time>2026-05-04T13:35:06.001Z</time></trkpt><trkpt lat="43.09833485240633" lon="11.660799300010599"><ele>364.0</ele><time>2026-05-04T13:35:07.001Z</time></trkpt><trkpt lat="43.09812204033235" lon="11.660748455646496"><ele>364.0</ele><time>2026-05-04T13:35:08.001Z</time></trkpt><trkpt lat="43.09793503072969" lon="11.660723435584075"><ele>366.3333333333333</ele><time>2026-05-04T13:35:09.001Z</time></trkpt><trkpt lat="43.09775474276501" lon="11.66074282406406"><ele>368.6666666666667</ele><time>2026-05-04T13:35:10.001Z</time></trkpt><trkpt lat="43.097565445506035" lon="11.6607992959033"><ele>371.0</ele><time>2026-05-04T13:35:11.001Z</time></trkpt><trkpt lat="43.097365487254024" lon="11.660868192090216"><ele>372.6666666666667</ele><time>2026-05-04T13:35:12.001Z</time></trkpt><trkpt lat="43.09714830522181" lon="11.660923686986402"><ele>374.3333333333333</ele><time>2026-05-04T13:35:13.001Z</time></trkpt><trkpt lat="43.09693813648573" lon="11.66097292735883"><ele>376.0</ele><time>2026-05-04T13:35:14.001Z</time></trkpt><trkpt lat="43.096749099987335" lon="11.661018922733573"><ele>377.66666666666663</ele><time>2026-05-04T13:35:15.001Z</time></trkpt><trkpt lat="43.09657540340679" lon="11.661054803832172"><ele>379.3333333333333</ele><time>2026-05-04T13:35:16.001Z</time></trkpt><trkpt lat="43.09638944200986" lon="11.661062406310089"><ele>381.0</ele><time>2026-05-04T13:35:17.001Z</time></trkpt><trkpt lat="43.09619546695013" lon="11.661031343490075"><ele>381.0</ele><time>2026-05-04T13:35:18.001Z</time></trkpt><trkpt lat="43.096003212635814" lon="11.660973017115813"><ele>381.0</ele><time>2026-05-04T13:35:19.001Z</time></trkpt><trkpt lat="43.095810861637055" lon="11.660895900781412"><ele>381.0</ele><time>2026-05-04T13:35:20.001Z</time></trkpt><trkpt lat="43.09561796516273" lon="11.660813098615657"><ele>383.66666666666663</ele><time>2026-05-04T13:35:21.001Z</time></trkpt><trkpt lat="43.09543506343733" lon="11.660745606225598"><ele>386.3333333333333</ele><time>2026-05-04T13:35:22.001Z</time></trkpt><trkpt lat="43.09526357133315" lon="11.660728506218636"><ele>389.0</ele><time>2026-05-04T13:35:23.001Z</time></trkpt><trkpt lat="43.09508965935708" lon="11.660777915029517"><ele>389.0</ele><time>2026-05-04T13:35:24.001Z</time></trkpt><trkpt lat="43.09492630350468" lon="11.660889102486738"><ele>389.0</ele><time>2026-05-04T13:35:25.001Z</time></trkpt><trkpt lat="43.09476705771679" lon="11.66099671109899"><ele>389.0</ele><time>2026-05-04T13:35:26.001Z</time></trkpt><trkpt lat="43.09459785599136" lon="11.661008407506023"><ele>390.3333333333333</ele><time>2026-05-04T13:35:27.001Z</time></trkpt><trkpt lat="43.09439888677102" lon="11.661009116306452"><ele>391.66666666666663</ele><time>2026-05-04T13:35:28.001Z</time></trkpt><trkpt lat="43.09420332826507" lon="11.661020690124213"><ele>393.0</ele><time>2026-05-04T13:35:29.001Z</time></trkpt><trkpt lat="43.09400278159707" lon="11.66101193362081"><ele>394.33333333333337</ele><time>2026-05-04T13:35:30.001Z</time></trkpt><trkpt lat="43.09379686585306" lon="11.66101455884144"><ele>395.6666666666667</ele><time>2026-05-04T13:35:31.001Z</time></trkpt><trkpt lat="43.09358360498925" lon="11.661019975196885"><ele>397.0</ele><time>2026-05-04T13:35:32.001Z</time></trkpt><trkpt lat="43.0933568939847" lon="11.661025590204176"><ele>399.33333333333337</ele><time>2026-05-04T13:35:33.001Z</time></trkpt><trkpt lat="43.09313660275434" lon="11.66103528009128"><ele>401.66666666666663</ele><time>2026-05-04T13:35:34.001Z</time></trkpt><trkpt lat="43.09290906260423" lon="11.661037886669117"><ele>404.0</ele><time>2026-05-04T13:35:35.001Z</time></trkpt><trkpt lat="43.09267674447461" lon="11.661048311655536"><ele>404.0</ele><time>2026-05-04T13:35:36.001Z</time></trkpt><trkpt lat="43.09243925854668" lon="11.66106386387528"><ele>404.0</ele><time>2026-05-04T13:35:37.001Z</time></trkpt><trkpt lat="43.09220646642527" lon="11.661085446587656"><ele>407.5</ele><time>2026-05-04T13:35:38.001Z</time></trkpt><trkpt lat="43.09196050181591" lon="11.661109641179745"><ele>411.0</ele><time>2026-05-04T13:35:39.001Z</time></trkpt><trkpt lat="43.09172429500478" lon="11.661134755072467"><ele>414.5</ele><time>2026-05-04T13:35:40.001Z</time></trkpt><trkpt lat="43.09147996560615" lon="11.661165944373272"><ele>418.0</ele><time>2026-05-04T13:35:41.001Z</time></trkpt><trkpt lat="43.09125549010409" lon="11.661202592858416"><ele>418.0</ele><time>2026-05-04T13:35:42.001Z</time></trkpt><trkpt lat="43.09106209364019" lon="11.661234173987905"><ele>418.0</ele><time>2026-05-04T13:35:43.001Z</time></trkpt><trkpt lat="43.09088357321432" lon="11.6612573200927"><ele>418.0</ele><time>2026-05-04T13:35:44.001Z</time></trkpt><trkpt lat="43.09069136504567" lon="11.661235954761484"><ele>420.6666666666667</ele><time>2026-05-04T13:35:45.001Z</time></trkpt><trkpt lat="43.09050698845864" lon="11.661208496473886"><ele>423.33333333333337</ele><time>2026-05-04T13:35:46.001Z</time></trkpt><trkpt lat="43.0903149866544" lon="11.661181072223151"><ele>426.0</ele><time>2026-05-04T13:35:47.001Z</time></trkpt><trkpt lat="43.09012627097517" lon="11.661123427638554"><ele>425.33333333333337</ele><time>2026-05-04T13:35:48.001Z</time></trkpt><trkpt lat="43.0899470176328" lon="11.661081041670341"><ele>424.6666666666667</ele><time>2026-05-04T13:35:49.001Z</time></trkpt><trkpt lat="43.089764629562346" lon="11.661063305006659"><ele>424.0</ele><time>2026-05-04T13:35:50.001Z</time></trkpt><trkpt lat="43.089576283165535" lon="11.661084854641974"><ele>427.6666666666667</ele><time>2026-05-04T13:35:51.001Z</time></trkpt><trkpt lat="43.089394592578664" lon="11.661151576163226"><ele>431.33333333333337</ele><time>2026-05-04T13:35:52.001Z</time></trkpt><trkpt lat="43.08921967425265" lon="11.661259553394908"><ele>435.0</ele><time>2026-05-04T13:35:53.001Z</time></trkpt><trkpt lat="43.08905195085107" lon="11.661411954701201"><ele>436.0</ele><time>2026-05-04T13:35:54.001Z</time></trkpt><trkpt lat="43.088891760606664" lon="11.661588721419179"><ele>437.0</ele><time>2026-05-04T13:35:55.001Z</time></trkpt><trkpt lat="43.088747151677104" lon="11.661750509713649"><ele>438.0</ele><time>2026-05-04T13:35:56.001Z</time></trkpt><trkpt lat="43.08860619032776" lon="11.661890488000463"><ele>437.66666666666663</ele><time>2026-05-04T13:35:57.001Z</time></trkpt><trkpt lat="43.08845692122682" lon="11.662001042494072"><ele>437.3333333333333</ele><time>2026-05-04T13:35:58Z</time></trkpt><trkpt lat="43.08827995812792" lon="11.662075736506823"><ele>437.0</ele><time>2026-05-04T13:35:59Z</time></trkpt><trkpt lat="43.08808885087375" lon="11.6621199379934"><ele>439.0</ele><time>2026-05-04T13:36:00Z</time></trkpt><trkpt lat="43.087891345617116" lon="11.66215389277177"><ele>441.0</ele><time>2026-05-04T13:36:01Z</time></trkpt><trkpt lat="43.08771537178781" lon="11.662196429950678"><ele>443.0</ele><time>2026-05-04T13:36:02Z</time></trkpt><trkpt lat="43.08754906397338" lon="11.662277108434266"><ele>445.0</ele><time>2026-05-04T13:36:03Z</time></trkpt><trkpt lat="43.087382833752294" lon="11.662423746575069"><ele>447.0</ele><time>2026-05-04T13:36:04Z</time></trkpt><trkpt lat="43.087215879456174" lon="11.662613465604043"><ele>449.0</ele><time>2026-05-04T13:36:05Z</time></trkpt><trkpt lat="43.087049021403054" lon="11.662830697973835"><ele>449.0</ele><time>2026-05-04T13:36:06Z</time></trkpt><trkpt lat="43.08688781121794" lon="11.663061624096319"><ele>449.0</ele><time>2026-05-04T13:36:07Z</time></trkpt><trkpt lat="43.086743854219264" lon="11.663291574757709"><ele>450.3333333333333</ele><time>2026-05-04T13:36:08Z</time></trkpt><trkpt lat="43.08658728231289" lon="11.663489174265862"><ele>451.66666666666663</ele><time>2026-05-04T13:36:09Z</time></trkpt><trkpt lat="43.08641975633971" lon="11.66366733060612"><ele>453.0</ele><time>2026-05-04T13:36:10Z</time></trkpt><trkpt lat="43.0862527138538" lon="11.663841075324736"><ele>453.0</ele><time>2026-05-04T13:36:11Z</time></trkpt><trkpt lat="43.08609819405991" lon="11.663996394680854"><ele>453.0</ele><time>2026-05-04T13:36:12Z</time></trkpt><trkpt lat="43.085956513869526" lon="11.664107623544075"><ele>453.0</ele><time>2026-05-04T13:36:13Z</time></trkpt><trkpt lat="43.085797298899905" lon="11.664205328071327"><ele>454.66666666666663</ele><time>2026-05-04T13:36:14Z</time></trkpt><trkpt lat="43.085633579483584" lon="11.664272923491174"><ele>456.3333333333333</ele><time>2026-05-04T13:36:15Z</time></trkpt><trkpt lat="43.08546969011648" lon="11.664335450321769"><ele>458.0</ele><time>2026-05-04T13:36:16Z</time></trkpt><trkpt lat="43.08531502634536" lon="11.66438503589894"><ele>458.0</ele><time>2026-05-04T13:36:17Z</time></trkpt><trkpt lat="43.085217465973315" lon="11.66441462637277"><ele>457.99999999999994</ele><time>2026-05-04T13:36:18Z</time></trkpt><trkpt lat="43.085155048432426" lon="11.664427133811175"><ele>457.99999999999994</ele><time>2026-05-04T13:36:19Z</time></trkpt><trkpt lat="43.08507336984217" lon="11.664451546364939"><ele>458.0</ele><time>2026-05-04T13:36:22Z</time></trkpt><trkpt lat="43.08503155231701" lon="11.664615995408262"><ele>458.0</ele><time>2026-05-04T13:36:23Z</time></trkpt><trkpt lat="43.084981278505445" lon="11.664768139131022"><ele>459.3333333333333</ele><time>2026-05-04T13:36:24Z</time></trkpt><trkpt lat="43.084914368381185" lon="11.664935337696818"><ele>460.66666666666663</ele><time>2026-05-04T13:36:25Z</time></trkpt><trkpt lat="43.08482846612544" lon="11.665112234550774"><ele>462.0</ele><time>2026-05-04T13:36:26Z</time></trkpt><trkpt lat="43.08473196043434" lon="11.665298720973702"><ele>462.0</ele><time>2026-05-04T13:36:27Z</time></trkpt><trkpt lat="43.08462789630954" lon="11.665499630305428"><ele>462.0</ele><time>2026-05-04T13:36:28Z</time></trkpt><trkpt lat="43.084517134400926" lon="11.665717826044599"><ele>462.0</ele><time>2026-05-04T13:36:29Z</time></trkpt><trkpt lat="43.08440616677196" lon="11.665938148103551"><ele>462.33333333333337</ele><time>2026-05-04T13:36:30Z</time></trkpt><trkpt lat="43.08429165902296" lon="11.666164367660535"><ele>462.6666666666667</ele><time>2026-05-04T13:36:31Z</time></trkpt><trkpt lat="43.08417037900303" lon="11.666405563128759"><ele>463.0</ele><time>2026-05-04T13:36:32Z</time></trkpt><trkpt lat="43.08405387299188" lon="11.666652475004927"><ele>463.6666666666667</ele><time>2026-05-04T13:36:33Z</time></trkpt><trkpt lat="43.08395325353399" lon="11.666921751504969"><ele>464.33333333333337</ele><time>2026-05-04T13:36:34Z</time></trkpt><trkpt lat="43.08387060371223" lon="11.667206584509538"><ele>465.0</ele><time>2026-05-04T13:36:35Z</time></trkpt><trkpt lat="43.08379433961973" lon="11.667499087897989"><ele>466.5</ele><time>2026-05-04T13:36:36Z</time></trkpt><trkpt lat="43.08370040577983" lon="11.667779866929497"><ele>468.0</ele><time>2026-05-04T13:36:37Z</time></trkpt><trkpt lat="43.08361270136836" lon="11.668094228726"><ele>468.0</ele><time>2026-05-04T13:36:38Z</time></trkpt><trkpt lat="43.08351720878584" lon="11.66837475531606"><ele>468.0</ele><time>2026-05-04T13:36:39Z</time></trkpt><trkpt lat="43.0834177075388" lon="11.668649947879919"><ele>468.33333333333337</ele><time>2026-05-04T13:36:40Z</time></trkpt><trkpt lat="43.08332021338763" lon="11.668916250560349"><ele>468.6666666666667</ele><time>2026-05-04T13:36:41Z</time></trkpt><trkpt lat="43.08322650935652" lon="11.66918159623741"><ele>469.0</ele><time>2026-05-04T13:36:42Z</time></trkpt><trkpt lat="43.08313126463087" lon="11.669452670600142"><ele>471.0</ele><time>2026-05-04T13:36:43Z</time></trkpt><trkpt lat="43.08304287019914" lon="11.66970218105353"><ele>473.0</ele><time>2026-05-04T13:36:44.001Z</time></trkpt><trkpt lat="43.08296247048218" lon="11.669928574054042"><ele>475.0</ele><time>2026-05-04T13:36:45.001Z</time></trkpt><trkpt lat="43.08288589444579" lon="11.670136615004544"><ele>475.33333333333337</ele><time>2026-05-04T13:36:46.001Z</time></trkpt><trkpt lat="43.08280877224348" lon="11.670319972492651"><ele>475.66666666666663</ele><time>2026-05-04T13:36:47.001Z</time></trkpt><trkpt lat="43.082720315015195" lon="11.670502848301282"><ele>476.0</ele><time>2026-05-04T13:36:48.001Z</time></trkpt><trkpt lat="43.08262829230598" lon="11.670678444204821"><ele>476.0</ele><time>2026-05-04T13:36:49.001Z</time></trkpt><trkpt lat="43.08254802305659" lon="11.67082473723233"><ele>476.0</ele><time>2026-05-04T13:36:50.001Z</time></trkpt><trkpt lat="43.08246824939389" lon="11.670949237281752"><ele>476.0</ele><time>2026-05-04T13:36:51.001Z</time></trkpt><trkpt lat="43.082378718472405" lon="11.671058878706873"><ele>476.0</ele><time>2026-05-04T13:36:52.001Z</time></trkpt><trkpt lat="43.08227758849389" lon="11.671172503523666"><ele>476.3333333333333</ele><time>2026-05-04T13:36:53.001Z</time></trkpt><trkpt lat="43.08217162380186" lon="11.671298432478414"><ele>476.66666666666663</ele><time>2026-05-04T13:36:54.001Z</time></trkpt><trkpt lat="43.08200977775173" lon="11.671368298210188"><ele>477.0</ele><time>2026-05-04T13:36:55.001Z</time></trkpt><trkpt lat="43.08186340233354" lon="11.671429562339865"><ele>477.0</ele><time>2026-05-04T13:36:56.001Z</time></trkpt><trkpt lat="43.08172646660515" lon="11.67146059263748"><ele>477.0</ele><time>2026-05-04T13:36:57.001Z</time></trkpt><trkpt lat="43.0816008916592" lon="11.671483082804004"><ele>477.0</ele><time>2026-05-04T13:36:58.001Z</time></trkpt><trkpt lat="43.08148401203572" lon="11.671511937013666"><ele>477.0</ele><time>2026-05-04T13:36:59.001Z</time></trkpt><trkpt lat="43.08137681992436" lon="11.671537338741347"><ele>478.0</ele><time>2026-05-04T13:37:00.001Z</time></trkpt><trkpt lat="43.08126463137896" lon="11.6715671795564"><ele>479.0</ele><time>2026-05-04T13:37:01.001Z</time></trkpt><trkpt lat="43.08116320736571" lon="11.671598233611986"><ele>480.0</ele><time>2026-05-04T13:37:02.001Z</time></trkpt><trkpt lat="43.0810612098084" lon="11.671658920015703"><ele>481.0</ele><time>2026-05-04T13:37:03.001Z</time></trkpt><trkpt lat="43.08094944723532" lon="11.671768148687965"><ele>481.0</ele><time>2026-05-04T13:37:04.001Z</time></trkpt><trkpt lat="43.08082760173123" lon="11.67189507814592"><ele>481.0</ele><time>2026-05-04T13:37:05.001Z</time></trkpt><trkpt lat="43.08072308624492" lon="11.672013032869154"><ele>481.0</ele><time>2026-05-04T13:37:06.001Z</time></trkpt><trkpt lat="43.080633036504565" lon="11.672118282866991"><ele>481.0</ele><time>2026-05-04T13:37:07.001Z</time></trkpt><trkpt lat="43.08054576183347" lon="11.672244930736497"><ele>481.6666666666667</ele><time>2026-05-04T13:37:08.001Z</time></trkpt><trkpt lat="43.080446425230974" lon="11.672392364555984"><ele>482.33333333333337</ele><time>2026-05-04T13:37:09.001Z</time></trkpt><trkpt lat="43.08032762692244" lon="11.672536602467499"><ele>483.0</ele><time>2026-05-04T13:37:10.001Z</time></trkpt><trkpt lat="43.08019131677106" lon="11.672676324785392"><ele>482.66666666666663</ele><time>2026-05-04T13:37:11.001Z</time></trkpt><trkpt lat="43.08006469135509" lon="11.67284606163038"><ele>482.3333333333333</ele><time>2026-05-04T13:37:12.001Z</time></trkpt><trkpt lat="43.07994110069761" lon="11.673031980094455"><ele>482.0</ele><time>2026-05-04T13:37:13.001Z</time></trkpt><trkpt lat="43.079824658966324" lon="11.67320000348854"><ele>483.3333333333333</ele><time>2026-05-04T13:37:14.001Z</time></trkpt><trkpt lat="43.07970878019229" lon="11.67336751805219"><ele>484.66666666666663</ele><time>2026-05-04T13:37:15.001Z</time></trkpt><trkpt lat="43.07961121376204" lon="11.673540794952745"><ele>486.0</ele><time>2026-05-04T13:37:16.001Z</time></trkpt><trkpt lat="43.079549156524436" lon="11.67369143094349"><ele>486.0</ele><time>2026-05-04T13:37:17.001Z</time></trkpt><trkpt lat="43.079513646978405" lon="11.67383257344013"><ele>486.0</ele><time>2026-05-04T13:37:18.001Z</time></trkpt><trkpt lat="43.079448103580425" lon="11.673940309267602"><ele>486.0</ele><time>2026-05-04T13:37:19.001Z</time></trkpt><trkpt lat="43.07940058184375" lon="11.674091054832289"><ele>486.0</ele><time>2026-05-04T13:37:20.001Z</time></trkpt><trkpt lat="43.07931968567071" lon="11.674230733537053"><ele>486.0</ele><time>2026-05-04T13:37:21.001Z</time></trkpt><trkpt lat="43.079232805380904" lon="11.674384196083627"><ele>486.0</ele><time>2026-05-04T13:37:22.001Z</time></trkpt><trkpt lat="43.07913311447446" lon="11.674547423359483"><ele>486.0</ele><time>2026-05-04T13:37:23.001Z</time></trkpt><trkpt lat="43.079023951586485" lon="11.674721638248663"><ele>486.66666666666663</ele><time>2026-05-04T13:37:24.001Z</time></trkpt><trkpt lat="43.07891512067411" lon="11.674899599684878"><ele>487.3333333333333</ele><time>2026-05-04T13:37:25.001Z</time></trkpt><trkpt lat="43.078805241212265" lon="11.675067498191353"><ele>488.0</ele><time>2026-05-04T13:37:26.001Z</time></trkpt><trkpt lat="43.07869958544172" lon="11.675230752376015"><ele>488.25</ele><time>2026-05-04T13:37:27.001Z</time></trkpt><trkpt lat="43.078607599679174" lon="11.675379943614233"><ele>488.5</ele><time>2026-05-04T13:37:28.001Z</time></trkpt><trkpt lat="43.07852214774349" lon="11.675521201523539"><ele>488.75</ele><time>2026-05-04T13:37:29.001Z</time></trkpt><trkpt lat="43.07844160486869" lon="11.675649193898767"><ele>489.0</ele><time>2026-05-04T13:37:30.001Z</time></trkpt><trkpt lat="43.07836557675901" lon="11.675755770884464"><ele>489.0</ele><time>2026-05-04T13:37:31.001Z</time></trkpt><trkpt lat="43.07829087545168" lon="11.67586267125056"><ele>489.0</ele><time>2026-05-04T13:37:32.001Z</time></trkpt><trkpt lat="43.07822395736002" lon="11.675963377357244"><ele>489.0</ele><time>2026-05-04T13:37:33.001Z</time></trkpt><trkpt lat="43.078163966932095" lon="11.676062940205865"><ele>489.0</ele><time>2026-05-04T13:37:34.001Z</time></trkpt><trkpt lat="43.07810966087754" lon="11.676153502456142"><ele>489.0</ele><time>2026-05-04T13:37:35.001Z</time></trkpt><trkpt lat="43.07805669643384" lon="11.676245805897624"><ele>489.0</ele><time>2026-05-04T13:37:36.001Z</time></trkpt><trkpt lat="43.07799921275001" lon="11.676357804329005"><ele>489.0</ele><time>2026-05-04T13:37:37.001Z</time></trkpt><trkpt lat="43.077915115946155" lon="11.676465149526939"><ele>489.0</ele><time>2026-05-04T13:37:38.001Z</time></trkpt><trkpt lat="43.07784758358957" lon="11.676590658105493"><ele>489.0</ele><time>2026-05-04T13:37:39.001Z</time></trkpt><trkpt lat="43.07776533513674" lon="11.676693302539237"><ele>489.0</ele><time>2026-05-04T13:37:40.001Z</time></trkpt><trkpt lat="43.077713477426066" lon="11.676789770242888"><ele>489.0</ele><time>2026-05-04T13:37:41.001Z</time></trkpt><trkpt lat="43.077679836068825" lon="11.676892534166658"><ele>489.0</ele><time>2026-05-04T13:37:42.001Z</time></trkpt><trkpt lat="43.07766481626404" lon="11.676993773827284"><ele>489.0</ele><time>2026-05-04T13:37:43.001Z</time></trkpt><trkpt lat="43.07764570229881" lon="11.67708076049628"><ele>489.0</ele><time>2026-05-04T13:37:44.001Z</time></trkpt><trkpt lat="43.07761438594334" lon="11.677251057317218"><ele>489.0</ele><time>2026-05-04T13:37:46.001Z</time></trkpt><trkpt lat="43.07759920711673" lon="11.677363541510859"><ele>489.0</ele><time>2026-05-04T13:37:47.001Z</time></trkpt><trkpt lat="43.07758294312539" lon="11.677487517586368"><ele>489.2</ele><time>2026-05-04T13:37:48.001Z</time></trkpt><trkpt lat="43.07757513223924" lon="11.677624175499135"><ele>489.4</ele><time>2026-05-04T13:37:49.001Z</time></trkpt><trkpt lat="43.07757011348281" lon="11.677771407440558"><ele>489.6</ele><time>2026-05-04T13:37:50.001Z</time></trkpt><trkpt lat="43.07756384976583" lon="11.677916319626954"><ele>489.8</ele><time>2026-05-04T13:37:51.001Z</time></trkpt><trkpt lat="43.077558720180676" lon="11.67804036914794"><ele>490.0</ele><time>2026-05-04T13:37:52.001Z</time></trkpt><trkpt lat="43.077552882774285" lon="11.678156490074358"><ele>490.1666666666667</ele><time>2026-05-04T13:37:53.001Z</time></trkpt><trkpt lat="43.0775483595494" lon="11.678262041613895"><ele>490.33333333333337</ele><time>2026-05-04T13:37:54.001Z</time></trkpt><trkpt lat="43.07754435441165" lon="11.678363144905045"><ele>490.5</ele><time>2026-05-04T13:37:55.001Z</time></trkpt><trkpt lat="43.07753936949593" lon="11.678449224670588"><ele>490.66666666666663</ele><time>2026-05-04T13:37:56.001Z</time></trkpt><trkpt lat="43.07752394082524" lon="11.67856719969481"><ele>490.8333333333333</ele><time>2026-05-04T13:37:58.001Z</time></trkpt><trkpt lat="43.0775168847774" lon="11.678661022045292"><ele>491.0</ele><time>2026-05-04T13:38:00.001Z</time></trkpt><trkpt lat="43.077506324830985" lon="11.678770918300117"><ele>490.99999999999994</ele><time>2026-05-04T13:38:03.001Z</time></trkpt><trkpt lat="43.07751877200416" lon="11.678879989697945"><ele>491.0</ele><time>2026-05-04T13:38:05Z</time></trkpt><trkpt lat="43.07748544886283" lon="11.679035913379463"><ele>491.0</ele><time>2026-05-04T13:38:07Z</time></trkpt><trkpt lat="43.07748241511763" lon="11.67913203585371"><ele>491.0</ele><time>2026-05-04T13:38:08Z</time></trkpt><trkpt lat="43.077476651502245" lon="11.679237976263488"><ele>490.99999999999994</ele><time>2026-05-04T13:38:09Z</time></trkpt><trkpt lat="43.07746805067518" lon="11.679346593924059"><ele>491.0</ele><time>2026-05-04T13:38:10Z</time></trkpt><trkpt lat="43.07745427509615" lon="11.679464334574746"><ele>491.8333333333333</ele><time>2026-05-04T13:38:11Z</time></trkpt><trkpt lat="43.077431631787036" lon="11.679580886223437"><ele>492.66666666666663</ele><time>2026-05-04T13:38:12Z</time></trkpt><trkpt lat="43.077405671508686" lon="11.679693446259394"><ele>493.5</ele><time>2026-05-04T13:38:13Z</time></trkpt><trkpt lat="43.077377367959315" lon="11.679800230583284"><ele>494.33333333333337</ele><time>2026-05-04T13:38:14Z</time></trkpt><trkpt lat="43.077354552258114" lon="11.679902861965594"><ele>495.1666666666667</ele><time>2026-05-04T13:38:15Z</time></trkpt><trkpt lat="43.0773335777099" lon="11.679994519846849"><ele>496.0</ele><time>2026-05-04T13:38:16Z</time></trkpt><trkpt lat="43.07729973510194" lon="11.680143218627117"><ele>496.00000000000006</ele><time>2026-05-04T13:38:18Z</time></trkpt><trkpt lat="43.077274980155394" lon="11.680237612893023"><ele>496.0</ele><time>2026-05-04T13:38:20Z</time></trkpt><trkpt lat="43.07725239397772" lon="11.680326481065539"><ele>496.0</ele><time>2026-05-04T13:38:22Z</time></trkpt><trkpt lat="43.077218200295846" lon="11.68044715086843"><ele>496.0</ele><time>2026-05-04T13:38:24Z</time></trkpt><trkpt lat="43.07717956962003" lon="11.680609498393567"><ele>496.00000000000006</ele><time>2026-05-04T13:38:26Z</time></trkpt><trkpt lat="43.077156473667664" lon="11.680709130786692"><ele>496.0</ele><time>2026-05-04T13:38:27Z</time></trkpt><trkpt lat="43.07713496294211" lon="11.680824495494974"><ele>495.4</ele><time>2026-05-04T13:38:28Z</time></trkpt><trkpt lat="43.077108456318136" lon="11.680949661072871"><ele>494.8</ele><time>2026-05-04T13:38:29Z</time></trkpt><trkpt lat="43.07706866068941" lon="11.681059354082318"><ele>494.19999999999993</ele><time>2026-05-04T13:38:30Z</time></trkpt><trkpt lat="43.077061602758285" lon="11.681181473536205"><ele>493.59999999999997</ele><time>2026-05-04T13:38:31Z</time></trkpt><trkpt lat="43.07704679163786" lon="11.681306169998638"><ele>493.0</ele><time>2026-05-04T13:38:32Z</time></trkpt><trkpt lat="43.07701322718602" lon="11.681469798458913"><ele>491.0</ele><time>2026-05-04T13:38:33Z</time></trkpt><trkpt lat="43.07699520230651" lon="11.681613947579292"><ele>488.99999999999994</ele><time>2026-05-04T13:38:34Z</time></trkpt><trkpt lat="43.07698151207973" lon="11.681724580068758"><ele>486.99999999999994</ele><time>2026-05-04T13:38:35Z</time></trkpt><trkpt lat="43.0769249069556" lon="11.681779310854003"><ele>485.0</ele><time>2026-05-04T13:38:36Z</time></trkpt><trkpt lat="43.076804456347126" lon="11.681791087061146"><ele>483.0</ele><time>2026-05-04T13:38:37Z</time></trkpt><trkpt lat="43.07665329039862" lon="11.68180513892384"><ele>480.5</ele><time>2026-05-04T13:38:38Z</time></trkpt><trkpt lat="43.07650016513035" lon="11.681814699266617"><ele>478.0</ele><time>2026-05-04T13:38:39Z</time></trkpt><trkpt lat="43.076378304956194" lon="11.681813825427115"><ele>475.5</ele><time>2026-05-04T13:38:40Z</time></trkpt><trkpt lat="43.076263661719885" lon="11.681778121567822"><ele>473.0</ele><time>2026-05-04T13:38:41Z</time></trkpt><trkpt lat="43.076171182725304" lon="11.681700000378342"><ele>473.0</ele><time>2026-05-04T13:38:42Z</time></trkpt><trkpt lat="43.07614738268378" lon="11.681589556221187"><ele>472.99999999999994</ele><time>2026-05-04T13:38:43Z</time></trkpt><trkpt lat="43.076076019652255" lon="11.681615680143016"><ele>472.99999999999994</ele><time>2026-05-04T13:38:46Z</time></trkpt><trkpt lat="43.07606987535817" lon="11.681754960099635"><ele>473.0</ele><time>2026-05-04T13:38:48Z</time></trkpt><trkpt lat="43.07619044927936" lon="11.681832906121572"><ele>473.0</ele><time>2026-05-04T13:38:49Z</time></trkpt><trkpt lat="43.076259696962026" lon="11.681945696818795"><ele>472.0</ele><time>2026-05-04T13:38:51Z</time></trkpt><trkpt lat="43.07633403757382" lon="11.682043172569633"><ele>470.99999999999994</ele><time>2026-05-04T13:38:53Z</time></trkpt><trkpt lat="43.076387242857706" lon="11.682103396034869"><ele>469.99999999999994</ele><time>2026-05-04T13:38:55Z</time></trkpt><trkpt lat="43.076472824427775" lon="11.682171627319608"><ele>469.0</ele><time>2026-05-04T13:38:57Z</time></trkpt><trkpt lat="43.076526873565804" lon="11.682219081033432"><ele>468.0</ele><time>2026-05-04T13:38:58Z</time></trkpt><trkpt lat="43.07663062409607" lon="11.682318237294183"><ele>468.0</ele><time>2026-05-04T13:39:00Z</time></trkpt><trkpt lat="43.07668330602468" lon="11.682367291432085"><ele>468.00000000000006</ele><time>2026-05-04T13:39:01Z</time></trkpt><trkpt lat="43.07673694392349" lon="11.682412749163495"><ele>468.0</ele><time>2026-05-04T13:39:02Z</time></trkpt><trkpt lat="43.076796323760576" lon="11.68246052444255"><ele>468.0</ele><time>2026-05-04T13:39:03Z</time></trkpt><trkpt lat="43.07686090827528" lon="11.68251391466923"><ele>468.00000000000006</ele><time>2026-05-04T13:39:04Z</time></trkpt><trkpt lat="43.07693432152679" lon="11.682581470205951"><ele>468.0</ele><time>2026-05-04T13:39:05Z</time></trkpt><trkpt lat="43.07699684365677" lon="11.682638611534026"><ele>468.0</ele><time>2026-05-04T13:39:06.001Z</time></trkpt><trkpt lat="43.077062428243316" lon="11.682723265775296"><ele>465.59999999999997</ele><time>2026-05-04T13:39:07.001Z</time></trkpt><trkpt lat="43.077124547717084" lon="11.682790571346192"><ele>463.19999999999993</ele><time>2026-05-04T13:39:08.001Z</time></trkpt><trkpt lat="43.07720294950723" lon="11.682866842111189"><ele>460.8</ele><time>2026-05-04T13:39:09.001Z</time></trkpt><trkpt lat="43.077280338795454" lon="11.682941112073618"><ele>458.4</ele><time>2026-05-04T13:39:10.001Z</time></trkpt><trkpt lat="43.07736113551111" lon="11.683024016089535"><ele>456.0</ele><time>2026-05-04T13:39:11.001Z</time></trkpt><trkpt lat="43.077447039114496" lon="11.683093849883512"><ele>456.0</ele><time>2026-05-04T13:39:12.001Z</time></trkpt><trkpt lat="43.077534017702035" lon="11.683172143311518"><ele>456.0</ele><time>2026-05-04T13:39:13.001Z</time></trkpt><trkpt lat="43.07762544921098" lon="11.683250580436056"><ele>456.0</ele><time>2026-05-04T13:39:14.001Z</time></trkpt><trkpt lat="43.07771976181675" lon="11.68332799565893"><ele>456.0</ele><time>2026-05-04T13:39:15.001Z</time></trkpt><trkpt lat="43.07781097793521" lon="11.683408091803331"><ele>456.0</ele><time>2026-05-04T13:39:16.001Z</time></trkpt><trkpt lat="43.07790254346648" lon="11.68348416052399"><ele>456.0</ele><time>2026-05-04T13:39:17.001Z</time></trkpt><trkpt lat="43.07798648480772" lon="11.683555623978194"><ele>456.0</ele><time>2026-05-04T13:39:18.001Z</time></trkpt><trkpt lat="43.078069583308114" lon="11.683625932140085"><ele>456.0</ele><time>2026-05-04T13:39:19.001Z</time></trkpt><trkpt lat="43.07815516242133" lon="11.68369796001063"><ele>456.0</ele><time>2026-05-04T13:39:20.001Z</time></trkpt><trkpt lat="43.07824617623334" lon="11.683776375077224"><ele>456.0</ele><time>2026-05-04T13:39:21.001Z</time></trkpt><trkpt lat="43.07834171934174" lon="11.683862144403866"><ele>453.8</ele><time>2026-05-04T13:39:22.001Z</time></trkpt><trkpt lat="43.07842987349" lon="11.683940531056768"><ele>451.6</ele><time>2026-05-04T13:39:23.001Z</time></trkpt><trkpt lat="43.07851086356126" lon="11.684017706606014"><ele>449.4</ele><time>2026-05-04T13:39:24.001Z</time></trkpt><trkpt lat="43.07858497504243" lon="11.684090308041638"><ele>447.2</ele><time>2026-05-04T13:39:25.001Z</time></trkpt><trkpt lat="43.07865478846282" lon="11.684158265296913"><ele>445.0</ele><time>2026-05-04T13:39:26.001Z</time></trkpt><trkpt lat="43.07872169017523" lon="11.684227345846137"><ele>445.00000000000006</ele><time>2026-05-04T13:39:27.001Z</time></trkpt><trkpt lat="43.07878198543489" lon="11.684296379758152"><ele>445.0</ele><time>2026-05-04T13:39:28.001Z</time></trkpt><trkpt lat="43.078843071733935" lon="11.68436118489191"><ele>445.0</ele><time>2026-05-04T13:39:29.001Z</time></trkpt><trkpt lat="43.07890140411492" lon="11.68442240610635"><ele>445.0</ele><time>2026-05-04T13:39:30.001Z</time></trkpt><trkpt lat="43.07895653184999" lon="11.684475778112908"><ele>445.00000000000006</ele><time>2026-05-04T13:39:31.001Z</time></trkpt><trkpt lat="43.07901510711591" lon="11.684531425631459"><ele>445.0</ele><time>2026-05-04T13:39:32.001Z</time></trkpt><trkpt lat="43.07911341453662" lon="11.684619458673497"><ele>442.2</ele><time>2026-05-04T13:39:34.001Z</time></trkpt><trkpt lat="43.079194798179564" lon="11.684697694515306"><ele>439.4</ele><time>2026-05-04T13:39:36.001Z</time></trkpt><trkpt lat="43.0792940428243" lon="11.684787562688582"><ele>436.6</ele><time>2026-05-04T13:39:38.001Z</time></trkpt><trkpt lat="43.07939828279782" lon="11.684889103123623"><ele>433.8</ele><time>2026-05-04T13:39:40.001Z</time></trkpt><trkpt lat="43.07945202741108" lon="11.684936354760444"><ele>431.0</ele><time>2026-05-04T13:39:41.001Z</time></trkpt><trkpt lat="43.07954641414901" lon="11.685024500015707"><ele>430.99999999999994</ele><time>2026-05-04T13:39:43.001Z</time></trkpt><trkpt lat="43.079647682539964" lon="11.685114621117775"><ele>431.0</ele><time>2026-05-04T13:39:45.001Z</time></trkpt><trkpt lat="43.07971365202815" lon="11.68516434511688"><ele>431.0</ele><time>2026-05-04T13:39:46.001Z</time></trkpt><trkpt lat="43.07979135109789" lon="11.685215100763958"><ele>431.0</ele><time>2026-05-04T13:39:47.001Z</time></trkpt><trkpt lat="43.07987013835292" lon="11.685270124385548"><ele>430.99999999999994</ele><time>2026-05-04T13:39:48.001Z</time></trkpt><trkpt lat="43.07993724677294" lon="11.685312624005753"><ele>431.0</ele><time>2026-05-04T13:39:49.001Z</time></trkpt><trkpt lat="43.08000593769235" lon="11.685356276205802"><ele>427.6</ele><time>2026-05-04T13:39:50.001Z</time></trkpt><trkpt lat="43.080080944954354" lon="11.685406727904306"><ele>424.20000000000005</ele><time>2026-05-04T13:39:51.001Z</time></trkpt><trkpt lat="43.08015929248734" lon="11.685475254135682"><ele>420.79999999999995</ele><time>2026-05-04T13:39:52.001Z</time></trkpt><trkpt lat="43.08022954480762" lon="11.685564752912864"><ele>417.4</ele><time>2026-05-04T13:39:53.001Z</time></trkpt><trkpt lat="43.08028838191451" lon="11.685669154808618"><ele>414.0</ele><time>2026-05-04T13:39:54.001Z</time></trkpt><trkpt lat="43.0803528834634" lon="11.685792856468003"><ele>414.0</ele><time>2026-05-04T13:39:55.001Z</time></trkpt><trkpt lat="43.080421008942814" lon="11.685919092645245"><ele>414.0</ele><time>2026-05-04T13:39:56.001Z</time></trkpt><trkpt lat="43.080481017199176" lon="11.686024495181586"><ele>414.0</ele><time>2026-05-04T13:39:57.001Z</time></trkpt><trkpt lat="43.080528540644956" lon="11.686100923445624"><ele>414.0</ele><time>2026-05-04T13:39:58.001Z</time></trkpt><trkpt lat="43.080601598838015" lon="11.686192678540008"><ele>414.0</ele><time>2026-05-04T13:40:00.001Z</time></trkpt><trkpt lat="43.08066564846987" lon="11.686176000288649"><ele>412.2</ele><time>2026-05-04T13:40:02.001Z</time></trkpt><trkpt lat="43.08078845595462" lon="11.686077962386541"><ele>410.4</ele><time>2026-05-04T13:40:04.001Z</time></trkpt><trkpt lat="43.080810071698075" lon="11.685917145154793"><ele>408.6</ele><time>2026-05-04T13:40:05.001Z</time></trkpt><trkpt lat="43.08083869076477" lon="11.685818328652207"><ele>406.8</ele><time>2026-05-04T13:40:06.001Z</time></trkpt><trkpt lat="43.08087321239981" lon="11.685729852557206"><ele>405.0</ele><time>2026-05-04T13:40:07.001Z</time></trkpt><trkpt lat="43.080995521286475" lon="11.685708528437186"><ele>405.0</ele><time>2026-05-04T13:40:09.001Z</time></trkpt><trkpt lat="43.08107659816106" lon="11.685743420363673"><ele>405.0</ele><time>2026-05-04T13:40:10Z</time></trkpt><trkpt lat="43.08115129098394" lon="11.685809022612032"><ele>405.0</ele><time>2026-05-04T13:40:11Z</time></trkpt><trkpt lat="43.081238371436775" lon="11.685897303540008"><ele>405.0</ele><time>2026-05-04T13:40:12Z</time></trkpt><trkpt lat="43.08131671920028" lon="11.685985791618185"><ele>405.0</ele><time>2026-05-04T13:40:13Z</time></trkpt><trkpt lat="43.08139089789096" lon="11.686099360524247"><ele>404.5</ele><time>2026-05-04T13:40:14Z</time></trkpt><trkpt lat="43.08145603758359" lon="11.686228704497612"><ele>404.0</ele><time>2026-05-04T13:40:15Z</time></trkpt><trkpt lat="43.08152676608781" lon="11.686384747230521"><ele>403.5</ele><time>2026-05-04T13:40:16Z</time></trkpt><trkpt lat="43.08160373896851" lon="11.686551525319343"><ele>403.0</ele><time>2026-05-04T13:40:17Z</time></trkpt><trkpt lat="43.081674564274195" lon="11.686715243054099"><ele>405.2</ele><time>2026-05-04T13:40:18Z</time></trkpt><trkpt lat="43.08173324248124" lon="11.686855234675509"><ele>407.4</ele><time>2026-05-04T13:40:19Z</time></trkpt><trkpt lat="43.08177920358352" lon="11.686975319540446"><ele>409.59999999999997</ele><time>2026-05-04T13:40:20Z</time></trkpt><trkpt lat="43.08181759679646" lon="11.687080129663991"><ele>411.79999999999995</ele><time>2026-05-04T13:40:21Z</time></trkpt><trkpt lat="43.08184815267942" lon="11.687172495262658"><ele>414.0</ele><time>2026-05-04T13:40:22Z</time></trkpt><trkpt lat="43.08186861811445" lon="11.687271021517187"><ele>414.6</ele><time>2026-05-04T13:40:23Z</time></trkpt><trkpt lat="43.081860096757" lon="11.687381170785532"><ele>415.2</ele><time>2026-05-04T13:40:24Z</time></trkpt><trkpt lat="43.08180172424605" lon="11.68748003855441"><ele>415.8</ele><time>2026-05-04T13:40:25Z</time></trkpt><trkpt lat="43.08174077926556" lon="11.68759594958855"><ele>416.40000000000003</ele><time>2026-05-04T13:40:26Z</time></trkpt><trkpt lat="43.08167140138061" lon="11.687740653426983"><ele>417.0</ele><time>2026-05-04T13:40:27Z</time></trkpt><trkpt lat="43.081574997873055" lon="11.6878624495648"><ele>417.75</ele><time>2026-05-04T13:40:28Z</time></trkpt><trkpt lat="43.08146599436893" lon="11.687940523537609"><ele>418.5</ele><time>2026-05-04T13:40:29Z</time></trkpt><trkpt lat="43.081364857575196" lon="11.688023809682868"><ele>419.25</ele><time>2026-05-04T13:40:30Z</time></trkpt><trkpt lat="43.08126477160557" lon="11.68808630893315"><ele>420.0</ele><time>2026-05-04T13:40:31Z</time></trkpt><trkpt lat="43.081169638353416" lon="11.688140445773758"><ele>420.0</ele><time>2026-05-04T13:40:32Z</time></trkpt><trkpt lat="43.081084140091185" lon="11.6881970065025"><ele>420.0</ele><time>2026-05-04T13:40:33Z</time></trkpt><trkpt lat="43.08099843866422" lon="11.688230294875636"><ele>420.0</ele><time>2026-05-04T13:40:34Z</time></trkpt><trkpt lat="43.08092630936379" lon="11.68826882688515"><ele>420.0</ele><time>2026-05-04T13:40:35Z</time></trkpt><trkpt lat="43.080864668393275" lon="11.688309821279375"><ele>420.0</ele><time>2026-05-04T13:40:36Z</time></trkpt><trkpt lat="43.08078632559914" lon="11.688327024715354"><ele>420.0</ele><time>2026-05-04T13:40:37Z</time></trkpt><trkpt lat="43.08070626291922" lon="11.68836367929472"><ele>418.3333333333333</ele><time>2026-05-04T13:40:38Z</time></trkpt><trkpt lat="43.08062329425368" lon="11.688401664300125"><ele>416.66666666666663</ele><time>2026-05-04T13:40:39Z</time></trkpt><trkpt lat="43.08054165229991" lon="11.688437689684667"><ele>415.0</ele><time>2026-05-04T13:40:40Z</time></trkpt><trkpt lat="43.08047596124974" lon="11.688466172013376"><ele>413.3333333333333</ele><time>2026-05-04T13:40:41Z</time></trkpt><trkpt lat="43.08039611095319" lon="11.688500793508611"><ele>411.66666666666663</ele><time>2026-05-04T13:40:42Z</time></trkpt><trkpt lat="43.08031624735416" lon="11.68853587652828"><ele>410.0</ele><time>2026-05-04T13:40:43Z</time></trkpt><trkpt lat="43.08024155686611" lon="11.688569649626075"><ele>409.8</ele><time>2026-05-04T13:40:44Z</time></trkpt><trkpt lat="43.08015678502475" lon="11.688612938784257"><ele>409.6</ele><time>2026-05-04T13:40:45Z</time></trkpt><trkpt lat="43.080070277042886" lon="11.68867019052251"><ele>409.4</ele><time>2026-05-04T13:40:46Z</time></trkpt><trkpt lat="43.07999013732512" lon="11.688751782663921"><ele>409.2</ele><time>2026-05-04T13:40:47Z</time></trkpt><trkpt lat="43.07988971449473" lon="11.68881992618435"><ele>409.0</ele><time>2026-05-04T13:40:48Z</time></trkpt><trkpt lat="43.07977018722025" lon="11.688888354433569"><ele>409.0</ele><time>2026-05-04T13:40:49Z</time></trkpt><trkpt lat="43.079631514401484" lon="11.688914362543343"><ele>409.0</ele><time>2026-05-04T13:40:50Z</time></trkpt><trkpt lat="43.079503957401364" lon="11.688939122500352"><ele>409.0</ele><time>2026-05-04T13:40:51Z</time></trkpt><trkpt lat="43.07939000488569" lon="11.689003982135615"><ele>409.0</ele><time>2026-05-04T13:40:52Z</time></trkpt><trkpt lat="43.07928103722763" lon="11.689066725179906"><ele>409.0</ele><time>2026-05-04T13:40:53Z</time></trkpt><trkpt lat="43.079174532330065" lon="11.689146665626248"><ele>409.0</ele><time>2026-05-04T13:40:54Z</time></trkpt><trkpt lat="43.079058107964926" lon="11.689240677268186"><ele>409.0</ele><time>2026-05-04T13:40:55Z</time></trkpt><trkpt lat="43.07893853747746" lon="11.689319490670353"><ele>409.0</ele><time>2026-05-04T13:40:56Z</time></trkpt><trkpt lat="43.07882535660584" lon="11.689392108944514"><ele>409.25</ele><time>2026-05-04T13:40:57Z</time></trkpt><trkpt lat="43.078723587482266" lon="11.689481298965077"><ele>409.5</ele><time>2026-05-04T13:40:58Z</time></trkpt><trkpt lat="43.07863175503251" lon="11.689584005370705"><ele>409.75</ele><time>2026-05-04T13:40:59Z</time></trkpt><trkpt lat="43.078542862704296" lon="11.689706212426044"><ele>410.0</ele><time>2026-05-04T13:41:00Z</time></trkpt><trkpt lat="43.07844249019464" lon="11.689855929739975"><ele>410.0</ele><time>2026-05-04T13:41:01Z</time></trkpt><trkpt lat="43.07835469019537" lon="11.689971967601604"><ele>410.0</ele><time>2026-05-04T13:41:02Z</time></trkpt><trkpt lat="43.07826416591062" lon="11.690048192724863"><ele>410.0</ele><time>2026-05-04T13:41:03Z</time></trkpt><trkpt lat="43.07815872326237" lon="11.690056938187677"><ele>410.0</ele><time>2026-05-04T13:41:04Z</time></trkpt><trkpt lat="43.07803898466825" lon="11.690055295146145"><ele>410.0</ele><time>2026-05-04T13:41:05Z</time></trkpt><trkpt lat="43.07789693467746" lon="11.690054656718038"><ele>410.0</ele><time>2026-05-04T13:41:06Z</time></trkpt><trkpt lat="43.077738507758866" lon="11.690066622705505"><ele>410.0</ele><time>2026-05-04T13:41:07Z</time></trkpt><trkpt lat="43.07756717616531" lon="11.690068521133316"><ele>410.0</ele><time>2026-05-04T13:41:08Z</time></trkpt><trkpt lat="43.077382276990754" lon="11.690071009972801"><ele>410.0</ele><time>2026-05-04T13:41:09Z</time></trkpt><trkpt lat="43.077189201542964" lon="11.690073345705402"><ele>410.0</ele><time>2026-05-04T13:41:10Z</time></trkpt><trkpt lat="43.076993742449744" lon="11.690079110831393"><ele>410.0</ele><time>2026-05-04T13:41:11Z</time></trkpt><trkpt lat="43.07679791024472" lon="11.690083168130336"><ele>410.0</ele><time>2026-05-04T13:41:12Z</time></trkpt><trkpt lat="43.07659866699099" lon="11.690091028422385"><ele>410.0</ele><time>2026-05-04T13:41:13Z</time></trkpt><trkpt lat="43.07640986095657" lon="11.690107288160632"><ele>409.66666666666663</ele><time>2026-05-04T13:41:14Z</time></trkpt><trkpt lat="43.07621124435705" lon="11.69012263033501"><ele>409.33333333333337</ele><time>2026-05-04T13:41:15Z</time></trkpt><trkpt lat="43.07601179736031" lon="11.69013560048925"><ele>409.0</ele><time>2026-05-04T13:41:16.001Z</time></trkpt><trkpt lat="43.075820716067895" lon="11.690141593655339"><ele>411.0</ele><time>2026-05-04T13:41:17.001Z</time></trkpt><trkpt lat="43.07562652910615" lon="11.69014552112941"><ele>413.0</ele><time>2026-05-04T13:41:18.001Z</time></trkpt><trkpt lat="43.075436310832636" lon="11.690150496047671"><ele>415.0</ele><time>2026-05-04T13:41:19.001Z</time></trkpt><trkpt lat="43.075259291739016" lon="11.69011210134256"><ele>415.0</ele><time>2026-05-04T13:41:20.001Z</time></trkpt><trkpt lat="43.075075871027224" lon="11.690073947163475"><ele>415.0</ele><time>2026-05-04T13:41:21.001Z</time></trkpt><trkpt lat="43.07488278028328" lon="11.69005549999116"><ele>415.0</ele><time>2026-05-04T13:41:22.001Z</time></trkpt><trkpt lat="43.07469971186163" lon="11.690011224146332"><ele>418.33333333333337</ele><time>2026-05-04T13:41:23.001Z</time></trkpt><trkpt lat="43.07453483733187" lon="11.68997575015285"><ele>421.66666666666663</ele><time>2026-05-04T13:41:24.001Z</time></trkpt><trkpt lat="43.074374781338236" lon="11.689951289294887"><ele>425.0</ele><time>2026-05-04T13:41:25.001Z</time></trkpt><trkpt lat="43.07424210725243" lon="11.689952738766076"><ele>425.0</ele><time>2026-05-04T13:41:26.001Z</time></trkpt><trkpt lat="43.07410954019125" lon="11.689973941501691"><ele>425.0</ele><time>2026-05-04T13:41:27.001Z</time></trkpt><trkpt lat="43.07397640396337" lon="11.690020347493059"><ele>425.0</ele><time>2026-05-04T13:41:28.001Z</time></trkpt><trkpt lat="43.073851289756014" lon="11.690091735052691"><ele>425.0</ele><time>2026-05-04T13:41:29.001Z</time></trkpt><trkpt lat="43.0737350668919" lon="11.690167295418927"><ele>427.25</ele><time>2026-05-04T13:41:30.001Z</time></trkpt><trkpt lat="43.07362505347259" lon="11.690241867461646"><ele>429.5</ele><time>2026-05-04T13:41:31.001Z</time></trkpt><trkpt lat="43.07355514080123" lon="11.690364885773977"><ele>431.75</ele><time>2026-05-04T13:41:32.001Z</time></trkpt><trkpt lat="43.07348356182207" lon="11.690489271966513"><ele>434.0</ele><time>2026-05-04T13:41:33.001Z</time></trkpt><trkpt lat="43.07342722230938" lon="11.69062683740895"><ele>434.75</ele><time>2026-05-04T13:41:34.001Z</time></trkpt><trkpt lat="43.07337876214471" lon="11.69078372427807"><ele>435.5</ele><time>2026-05-04T13:41:35.001Z</time></trkpt><trkpt lat="43.073317340551434" lon="11.690964838513963"><ele>436.25</ele><time>2026-05-04T13:41:36.001Z</time></trkpt><trkpt lat="43.073228126118856" lon="11.69115888850624"><ele>437.0</ele><time>2026-05-04T13:41:37.001Z</time></trkpt><trkpt lat="43.0731325620983" lon="11.691352875258993"><ele>441.66666666666663</ele><time>2026-05-04T13:41:38.001Z</time></trkpt><trkpt lat="43.073035918712314" lon="11.691553992316763"><ele>446.33333333333337</ele><time>2026-05-04T13:41:39.001Z</time></trkpt><trkpt lat="43.072939150887834" lon="11.691757955840867"><ele>451.0</ele><time>2026-05-04T13:41:40.001Z</time></trkpt><trkpt lat="43.072834265023374" lon="11.691944158419629"><ele>451.0</ele><time>2026-05-04T13:41:41.001Z</time></trkpt><trkpt lat="43.072733037575695" lon="11.692141411569558"><ele>451.0</ele><time>2026-05-04T13:41:42.001Z</time></trkpt><trkpt lat="43.07264012697673" lon="11.692318663522636"><ele>451.0</ele><time>2026-05-04T13:41:43.001Z</time></trkpt><trkpt lat="43.07257070350988" lon="11.692501989557597"><ele>451.0</ele><time>2026-05-04T13:41:44.001Z</time></trkpt><trkpt lat="43.07250421399027" lon="11.69266714856045"><ele>451.0</ele><time>2026-05-04T13:41:45.001Z</time></trkpt><trkpt lat="43.07244827265315" lon="11.69283259519181"><ele>451.0</ele><time>2026-05-04T13:41:46.001Z</time></trkpt><trkpt lat="43.07239992204428" lon="11.692975452917311"><ele>451.0</ele><time>2026-05-04T13:41:47.001Z</time></trkpt><trkpt lat="43.07235747023699" lon="11.693088955041626"><ele>450.4</ele><time>2026-05-04T13:41:48.001Z</time></trkpt><trkpt lat="43.07230004815405" lon="11.693195658859137"><ele>449.8</ele><time>2026-05-04T13:41:49.001Z</time></trkpt><trkpt lat="43.07223253898286" lon="11.693297137094111"><ele>449.19999999999993</ele><time>2026-05-04T13:41:50.001Z</time></trkpt><trkpt lat="43.07216585739445" lon="11.693397881364929"><ele>448.59999999999997</ele><time>2026-05-04T13:41:51.001Z</time></trkpt><trkpt lat="43.07209213430746" lon="11.693481900840021"><ele>448.0</ele><time>2026-05-04T13:41:52.001Z</time></trkpt><trkpt lat="43.07203368277549" lon="11.693567076886287"><ele>445.83333333333337</ele><time>2026-05-04T13:41:53.001Z</time></trkpt><trkpt lat="43.07197000412178" lon="11.69363298983128"><ele>443.6666666666667</ele><time>2026-05-04T13:41:54.001Z</time></trkpt><trkpt lat="43.0718978395193" lon="11.693642173998903"><ele>441.5</ele><time>2026-05-04T13:41:55.001Z</time></trkpt><trkpt lat="43.071823075203206" lon="11.693652047182056"><ele>439.33333333333337</ele><time>2026-05-04T13:41:56.001Z</time></trkpt><trkpt lat="43.07170689710312" lon="11.693656294786765"><ele>437.1666666666667</ele><time>2026-05-04T13:41:58.001Z</time></trkpt><trkpt lat="43.07166514818202" lon="11.693770450059375"><ele>435.0</ele><time>2026-05-04T13:42:00.001Z</time></trkpt><trkpt lat="43.07171585159732" lon="11.693851537287625"><ele>435.0</ele><time>2026-05-04T13:42:01.001Z</time></trkpt><trkpt lat="43.07175903268156" lon="11.693928018612738"><ele>435.0</ele><time>2026-05-04T13:42:02.001Z</time></trkpt><trkpt lat="43.07180264099771" lon="11.694039736837912"><ele>435.0</ele><time>2026-05-04T13:42:03.001Z</time></trkpt><trkpt lat="43.07184069941616" lon="11.69416726932418"><ele>435.0</ele><time>2026-05-04T13:42:04.001Z</time></trkpt><trkpt lat="43.07183926350622" lon="11.694283283128618"><ele>435.0</ele><time>2026-05-04T13:42:05.001Z</time></trkpt><trkpt lat="43.071859466223245" lon="11.694401917071591"><ele>435.0</ele><time>2026-05-04T13:42:06.001Z</time></trkpt><trkpt lat="43.07185689068713" lon="11.694524657485497"><ele>433.3333333333333</ele><time>2026-05-04T13:42:07.001Z</time></trkpt><trkpt lat="43.07184313217733" lon="11.694641093778205"><ele>431.66666666666663</ele><time>2026-05-04T13:42:08.001Z</time></trkpt><trkpt lat="43.07181471787985" lon="11.694759761131698"><ele>430.0</ele><time>2026-05-04T13:42:09.001Z</time></trkpt><trkpt lat="43.071781357816164" lon="11.694870884131989"><ele>428.3333333333333</ele><time>2026-05-04T13:42:10.001Z</time></trkpt><trkpt lat="43.07172142947421" lon="11.694958048647115"><ele>426.66666666666663</ele><time>2026-05-04T13:42:11.001Z</time></trkpt><trkpt lat="43.07167395701832" lon="11.695043209049533"><ele>425.0</ele><time>2026-05-04T13:42:12.001Z</time></trkpt><trkpt lat="43.07162040724666" lon="11.695121458790531"><ele>424.4</ele><time>2026-05-04T13:42:13.001Z</time></trkpt><trkpt lat="43.07155563359577" lon="11.69519889637393"><ele>423.8</ele><time>2026-05-04T13:42:14.001Z</time></trkpt><trkpt lat="43.071473420761556" lon="11.695276852650183"><ele>423.20000000000005</ele><time>2026-05-04T13:42:15.001Z</time></trkpt><trkpt lat="43.071370905140625" lon="11.695358584304973"><ele>422.6</ele><time>2026-05-04T13:42:16Z</time></trkpt><trkpt lat="43.071261176136964" lon="11.695437097196631"><ele>422.0</ele><time>2026-05-04T13:42:17Z</time></trkpt><trkpt lat="43.071152648575726" lon="11.695524871296845"><ele>419.0</ele><time>2026-05-04T13:42:18Z</time></trkpt><trkpt lat="43.07103560782688" lon="11.695595458988674"><ele>416.0</ele><time>2026-05-04T13:42:19Z</time></trkpt><trkpt lat="43.070922368738565" lon="11.695662064447037"><ele>413.0</ele><time>2026-05-04T13:42:20Z</time></trkpt><trkpt lat="43.07081280104732" lon="11.695728151124507"><ele>410.0</ele><time>2026-05-04T13:42:21Z</time></trkpt><trkpt lat="43.07070742221635" lon="11.695801153685068"><ele>409.25</ele><time>2026-05-04T13:42:22Z</time></trkpt><trkpt lat="43.07060558143118" lon="11.695895958618872"><ele>408.5</ele><time>2026-05-04T13:42:23Z</time></trkpt><trkpt lat="43.07049973126383" lon="11.696014894054345"><ele>407.75</ele><time>2026-05-04T13:42:24Z</time></trkpt><trkpt lat="43.0703940467376" lon="11.696135201775709"><ele>407.0</ele><time>2026-05-04T13:42:25Z</time></trkpt><trkpt lat="43.07029484467497" lon="11.696246266218473"><ele>405.8</ele><time>2026-05-04T13:42:26Z</time></trkpt><trkpt lat="43.0702065795426" lon="11.696356245482937"><ele>404.6</ele><time>2026-05-04T13:42:27Z</time></trkpt><trkpt lat="43.070129951100554" lon="11.696454371302686"><ele>403.40000000000003</ele><time>2026-05-04T13:42:28Z</time></trkpt><trkpt lat="43.070058312011554" lon="11.696536216658304"><ele>402.20000000000005</ele><time>2026-05-04T13:42:29Z</time></trkpt><trkpt lat="43.069983376811486" lon="11.696604687586126"><ele>401.0</ele><time>2026-05-04T13:42:30Z</time></trkpt><trkpt lat="43.06993978437164" lon="11.696695861973566"><ele>399.49999999999994</ele><time>2026-05-04T13:42:31Z</time></trkpt><trkpt lat="43.06989750403291" lon="11.69676025074715"><ele>398.0</ele><time>2026-05-04T13:42:32Z</time></trkpt><trkpt lat="43.0698405374296" lon="11.696906998273915"><ele>396.5</ele><time>2026-05-04T13:42:34Z</time></trkpt><trkpt lat="43.06983545466745" lon="11.697016758458739"><ele>395.0</ele><time>2026-05-04T13:42:35Z</time></trkpt><trkpt lat="43.06984642435663" lon="11.697125860722355"><ele>393.49999999999994</ele><time>2026-05-04T13:42:36Z</time></trkpt><trkpt lat="43.069880742545266" lon="11.697223065393688"><ele>392.0</ele><time>2026-05-04T13:42:37Z</time></trkpt><trkpt lat="43.069925410585135" lon="11.697310016321998"><ele>391.49999999999994</ele><time>2026-05-04T13:42:38Z</time></trkpt><trkpt lat="43.0699811206134" lon="11.697400213513909"><ele>391.0</ele><time>2026-05-04T13:42:39Z</time></trkpt><trkpt lat="43.070039575790226" lon="11.69749150716024"><ele>390.5</ele><time>2026-05-04T13:42:40Z</time></trkpt><trkpt lat="43.070093366932426" lon="11.69759133848631"><ele>390.0</ele><time>2026-05-04T13:42:41Z</time></trkpt><trkpt lat="43.07014119023412" lon="11.697685325700622"><ele>389.49999999999994</ele><time>2026-05-04T13:42:42Z</time></trkpt><trkpt lat="43.07017666816549" lon="11.697793869882037"><ele>389.0</ele><time>2026-05-04T13:42:43Z</time></trkpt><trkpt lat="43.070185058483816" lon="11.697918393948846"><ele>387.0</ele><time>2026-05-04T13:42:44Z</time></trkpt><trkpt lat="43.07018131927731" lon="11.698058104325801"><ele>385.0</ele><time>2026-05-04T13:42:45Z</time></trkpt><trkpt lat="43.07014639902883" lon="11.698166907982564"><ele>383.0</ele><time>2026-05-04T13:42:46Z</time></trkpt><trkpt lat="43.0701042784022" lon="11.6982953828387"><ele>381.0</ele><time>2026-05-04T13:42:47Z</time></trkpt><trkpt lat="43.070056158217376" lon="11.698410413579348"><ele>379.0</ele><time>2026-05-04T13:42:48Z</time></trkpt><trkpt lat="43.07001119293856" lon="11.698543220395981"><ele>377.6</ele><time>2026-05-04T13:42:49Z</time></trkpt><trkpt lat="43.06995506635964" lon="11.69867035104526"><ele>376.2</ele><time>2026-05-04T13:42:50Z</time></trkpt><trkpt lat="43.06989684772456" lon="11.698787125956262"><ele>374.8</ele><time>2026-05-04T13:42:51Z</time></trkpt><trkpt lat="43.069835331347534" lon="11.698901641787952"><ele>373.40000000000003</ele><time>2026-05-04T13:42:52Z</time></trkpt><trkpt lat="43.069790490170384" lon="11.699026797703576"><ele>372.0</ele><time>2026-05-04T13:42:53Z</time></trkpt><trkpt lat="43.06974498562386" lon="11.699155480876492"><ele>371.6</ele><time>2026-05-04T13:42:54Z</time></trkpt><trkpt lat="43.06971298443987" lon="11.699288606677177"><ele>371.20000000000005</ele><time>2026-05-04T13:42:55Z</time></trkpt><trkpt lat="43.069692084221636" lon="11.699426650800463"><ele>370.8</ele><time>2026-05-04T13:42:56Z</time></trkpt><trkpt lat="43.06967291518373" lon="11.699560949158125"><ele>370.4</ele><time>2026-05-04T13:42:57Z</time></trkpt><trkpt lat="43.069665921741624" lon="11.699695293347995"><ele>370.0</ele><time>2026-05-04T13:42:58Z</time></trkpt><trkpt lat="43.069650700163386" lon="11.699832051106354"><ele>368.8333333333333</ele><time>2026-05-04T13:42:59Z</time></trkpt><trkpt lat="43.06964456301965" lon="11.699957056527667"><ele>367.66666666666663</ele><time>2026-05-04T13:43:00Z</time></trkpt><trkpt lat="43.069634828430615" lon="11.70008072451574"><ele>366.5</ele><time>2026-05-04T13:43:01Z</time></trkpt><trkpt lat="43.06963153226803" lon="11.700201430968256"><ele>365.3333333333333</ele><time>2026-05-04T13:43:02Z</time></trkpt><trkpt lat="43.069628539283514" lon="11.700305275506283"><ele>364.1666666666667</ele><time>2026-05-04T13:43:03Z</time></trkpt><trkpt lat="43.0696203940223" lon="11.700412745284524"><ele>363.0</ele><time>2026-05-04T13:43:04Z</time></trkpt><trkpt lat="43.06960713479726" lon="11.700520602433228"><ele>361.1666666666667</ele><time>2026-05-04T13:43:05Z</time></trkpt><trkpt lat="43.06959109146537" lon="11.700641642224152"><ele>359.3333333333333</ele><time>2026-05-04T13:43:06Z</time></trkpt><trkpt lat="43.06957169944359" lon="11.700738944069531"><ele>357.5</ele><time>2026-05-04T13:43:07Z</time></trkpt><trkpt lat="43.069554092972936" lon="11.70084590654849"><ele>355.66666666666663</ele><time>2026-05-04T13:43:08Z</time></trkpt><trkpt lat="43.06953621058996" lon="11.700954693177419"><ele>353.8333333333333</ele><time>2026-05-04T13:43:09Z</time></trkpt><trkpt lat="43.06951622215582" lon="11.701054949823819"><ele>352.0</ele><time>2026-05-04T13:43:10Z</time></trkpt><trkpt lat="43.069485865727586" lon="11.701162025569458"><ele>350.3333333333333</ele><time>2026-05-04T13:43:11Z</time></trkpt><trkpt lat="43.06945744783694" lon="11.701255126738808"><ele>348.66666666666663</ele><time>2026-05-04T13:43:12Z</time></trkpt><trkpt lat="43.0694264328556" lon="11.701354374696857"><ele>347.0</ele><time>2026-05-04T13:43:13.001Z</time></trkpt><trkpt lat="43.06939811148409" lon="11.701446446296584"><ele>345.3333333333333</ele><time>2026-05-04T13:43:14Z</time></trkpt><trkpt lat="43.06942057885676" lon="11.701561035100324"><ele>343.6666666666667</ele><time>2026-05-04T13:43:15Z</time></trkpt><trkpt lat="43.0694427064322" lon="11.70167056764623"><ele>342.0</ele><time>2026-05-04T13:43:16Z</time></trkpt><trkpt lat="43.06947817014305" lon="11.701772812359241"><ele>342.0</ele><time>2026-05-04T13:43:17Z</time></trkpt><trkpt lat="43.0695280473126" lon="11.70188058862543"><ele>342.0</ele><time>2026-05-04T13:43:18Z</time></trkpt><trkpt lat="43.06958024299355" lon="11.701984884624661"><ele>342.0</ele><time>2026-05-04T13:43:19Z</time></trkpt><trkpt lat="43.0696320629963" lon="11.70210544729198"><ele>342.0</ele><time>2026-05-04T13:43:20Z</time></trkpt><trkpt lat="43.069674191925024" lon="11.702235847664715"><ele>342.0</ele><time>2026-05-04T13:43:21Z</time></trkpt><trkpt lat="43.069696264461065" lon="11.702370151802539"><ele>340.8</ele><time>2026-05-04T13:43:22Z</time></trkpt><trkpt lat="43.06969715619849" lon="11.702518180960542"><ele>339.6</ele><time>2026-05-04T13:43:23Z</time></trkpt><trkpt lat="43.06966103974732" lon="11.702646354831161"><ele>338.40000000000003</ele><time>2026-05-04T13:43:24Z</time></trkpt><trkpt lat="43.0696254206303" lon="11.702772960174354"><ele>337.20000000000005</ele><time>2026-05-04T13:43:25Z</time></trkpt><trkpt lat="43.069599085551324" lon="11.702903133774697"><ele>336.0</ele><time>2026-05-04T13:43:26Z</time></trkpt><trkpt lat="43.069548688887046" lon="11.703034949153386"><ele>335.3333333333333</ele><time>2026-05-04T13:43:27Z</time></trkpt><trkpt lat="43.06949054210127" lon="11.703146878493442"><ele>334.6666666666667</ele><time>2026-05-04T13:43:28Z</time></trkpt><trkpt lat="43.069444733726" lon="11.703251729600094"><ele>334.0</ele><time>2026-05-04T13:43:29Z</time></trkpt><trkpt lat="43.06940551195438" lon="11.703329597339327"><ele>333.33333333333337</ele><time>2026-05-04T13:43:30Z</time></trkpt><trkpt lat="43.06934213746215" lon="11.703380203872486"><ele>332.6666666666667</ele><time>2026-05-04T13:43:33.001Z</time></trkpt><trkpt lat="43.069294996308926" lon="11.703286211503592"><ele>332.0</ele><time>2026-05-04T13:43:36.001Z</time></trkpt><trkpt lat="43.069255078512505" lon="11.703206066115586"><ele>332.0</ele><time>2026-05-04T13:43:37.001Z</time></trkpt><trkpt lat="43.06920033979673" lon="11.70310130791449"><ele>332.0</ele><time>2026-05-04T13:43:38.001Z</time></trkpt><trkpt lat="43.06913784928474" lon="11.702985268985396"><ele>332.0</ele><time>2026-05-04T13:43:39.001Z</time></trkpt><trkpt lat="43.069070541793934" lon="11.702864725812958"><ele>332.0</ele><time>2026-05-04T13:43:40.001Z</time></trkpt><trkpt lat="43.06899499594564" lon="11.702730371266668"><ele>332.0</ele><time>2026-05-04T13:43:41.001Z</time></trkpt><trkpt lat="43.068904372600294" lon="11.70260414636495"><ele>332.0</ele><time>2026-05-04T13:43:42.001Z</time></trkpt><trkpt lat="43.06882487307829" lon="11.702453052757187"><ele>332.0</ele><time>2026-05-04T13:43:43.001Z</time></trkpt><trkpt lat="43.068740609666705" lon="11.702300020841708"><ele>332.0</ele><time>2026-05-04T13:43:44.001Z</time></trkpt><trkpt lat="43.06865931592432" lon="11.702142203215656"><ele>332.0</ele><time>2026-05-04T13:43:45.001Z</time></trkpt><trkpt lat="43.06858616547188" lon="11.701978574991875"><ele>334.25</ele><time>2026-05-04T13:43:46.001Z</time></trkpt><trkpt lat="43.06854212627937" lon="11.70180348353757"><ele>336.5</ele><time>2026-05-04T13:43:47.001Z</time></trkpt><trkpt lat="43.06849392366717" lon="11.701627179571963"><ele>338.75</ele><time>2026-05-04T13:43:48.001Z</time></trkpt><trkpt lat="43.068451933835725" lon="11.7014317309337"><ele>341.0</ele><time>2026-05-04T13:43:49.001Z</time></trkpt><trkpt lat="43.06839367734599" lon="11.701228875504194"><ele>341.6666666666667</ele><time>2026-05-04T13:43:50.001Z</time></trkpt><trkpt lat="43.0683460101261" lon="11.70101772602764"><ele>342.3333333333333</ele><time>2026-05-04T13:43:51.001Z</time></trkpt><trkpt lat="43.06828570532951" lon="11.700804764792599"><ele>343.0</ele><time>2026-05-04T13:43:52.001Z</time></trkpt><trkpt lat="43.06820756776186" lon="11.700588829872009"><ele>343.0</ele><time>2026-05-04T13:43:53.001Z</time></trkpt><trkpt lat="43.068119626346146" lon="11.70038447890739"><ele>343.0</ele><time>2026-05-04T13:43:54.001Z</time></trkpt><trkpt lat="43.06802693190915" lon="11.70017899303236"><ele>343.0</ele><time>2026-05-04T13:43:55.001Z</time></trkpt><trkpt lat="43.06795251664261" lon="11.69995662778629"><ele>345.25</ele><time>2026-05-04T13:43:56.001Z</time></trkpt><trkpt lat="43.067860805522706" lon="11.699772059970488"><ele>347.5</ele><time>2026-05-04T13:43:57.001Z</time></trkpt><trkpt lat="43.06778622344447" lon="11.699594297072194"><ele>349.75</ele><time>2026-05-04T13:43:58.001Z</time></trkpt><trkpt lat="43.067709097850226" lon="11.69944849275229"><ele>352.0</ele><time>2026-05-04T13:43:59.001Z</time></trkpt><trkpt lat="43.06763098117937" lon="11.69933000949828"><ele>351.5</ele><time>2026-05-04T13:44:00.001Z</time></trkpt><trkpt lat="43.06754076646502" lon="11.699234904290673"><ele>351.0</ele><time>2026-05-04T13:44:01.001Z</time></trkpt><trkpt lat="43.06743709918442" lon="11.699159228080115"><ele>350.5</ele><time>2026-05-04T13:44:02.001Z</time></trkpt><trkpt lat="43.06732194934033" lon="11.699048636543957"><ele>350.0</ele><time>2026-05-04T13:44:03.001Z</time></trkpt><trkpt lat="43.06718657754051" lon="11.698940509048365"><ele>350.0</ele><time>2026-05-04T13:44:04.001Z</time></trkpt><trkpt lat="43.06704599443903" lon="11.69882821908471"><ele>350.0</ele><time>2026-05-04T13:44:05.001Z</time></trkpt><trkpt lat="43.06692388486726" lon="11.698730528972229"><ele>350.0</ele><time>2026-05-04T13:44:06.001Z</time></trkpt><trkpt lat="43.066799431066755" lon="11.698630260489136"><ele>350.0</ele><time>2026-05-04T13:44:07.001Z</time></trkpt><trkpt lat="43.06667497341524" lon="11.698529987448003"><ele>349.0</ele><time>2026-05-04T13:44:08.001Z</time></trkpt><trkpt lat="43.066543366166044" lon="11.698423953793583"><ele>348.0</ele><time>2026-05-04T13:44:09.001Z</time></trkpt><trkpt lat="43.066418710589225" lon="11.698323521171766"><ele>347.0</ele><time>2026-05-04T13:44:10.001Z</time></trkpt><trkpt lat="43.06629802342016" lon="11.698227356713407"><ele>346.0</ele><time>2026-05-04T13:44:11.001Z</time></trkpt><trkpt lat="43.06618584079056" lon="11.69813823048921"><ele>346.0</ele><time>2026-05-04T13:44:12.001Z</time></trkpt><trkpt lat="43.06607516534627" lon="11.698050301456792"><ele>346.0</ele><time>2026-05-04T13:44:13.001Z</time></trkpt><trkpt lat="43.065979191387754" lon="11.697974052293556"><ele>346.0</ele><time>2026-05-04T13:44:14.001Z</time></trkpt><trkpt lat="43.065889943486525" lon="11.697903147108729"><ele>346.0</ele><time>2026-05-04T13:44:15.001Z</time></trkpt><trkpt lat="43.06580552973123" lon="11.697826822999025"><ele>346.0</ele><time>2026-05-04T13:44:16.001Z</time></trkpt><trkpt lat="43.06571626730987" lon="11.697750456800117"><ele>344.0</ele><time>2026-05-04T13:44:17.001Z</time></trkpt><trkpt lat="43.065668898300785" lon="11.69759960024413"><ele>342.0</ele><time>2026-05-04T13:44:18.001Z</time></trkpt><trkpt lat="43.06562892048717" lon="11.697459273101309"><ele>340.0</ele><time>2026-05-04T13:44:19.001Z</time></trkpt><trkpt lat="43.06560931785218" lon="11.697306692790516"><ele>338.0</ele><time>2026-05-04T13:44:20.001Z</time></trkpt><trkpt lat="43.06558832014759" lon="11.697125136265804"><ele>339.6666666666667</ele><time>2026-05-04T13:44:21.001Z</time></trkpt><trkpt lat="43.06555187695927" lon="11.6969129024866"><ele>341.3333333333333</ele><time>2026-05-04T13:44:22Z</time></trkpt><trkpt lat="43.0655243794948" lon="11.696689555735441"><ele>343.0</ele><time>2026-05-04T13:44:23Z</time></trkpt><trkpt lat="43.065484320204575" lon="11.696453490118639"><ele>343.0</ele><time>2026-05-04T13:44:24Z</time></trkpt><trkpt lat="43.0654476431164" lon="11.696204706318182"><ele>343.0</ele><time>2026-05-04T13:44:25Z</time></trkpt><trkpt lat="43.065408035870554" lon="11.695944202001993"><ele>343.0</ele><time>2026-05-04T13:44:26Z</time></trkpt><trkpt lat="43.06537386566647" lon="11.695671404630554"><ele>344.66666666666663</ele><time>2026-05-04T13:44:27Z</time></trkpt><trkpt lat="43.06533492584855" lon="11.69540487133216"><ele>346.3333333333333</ele><time>2026-05-04T13:44:28Z</time></trkpt><trkpt lat="43.065290279651194" lon="11.695117720553531"><ele>348.0</ele><time>2026-05-04T13:44:29Z</time></trkpt><trkpt lat="43.06524697398254" lon="11.694842653048036"><ele>348.3333333333333</ele><time>2026-05-04T13:44:30Z</time></trkpt><trkpt lat="43.065205890622835" lon="11.694584362429081"><ele>348.66666666666663</ele><time>2026-05-04T13:44:31Z</time></trkpt><trkpt lat="43.06516624154864" lon="11.694345845650272"><ele>349.0</ele><time>2026-05-04T13:44:32Z</time></trkpt><trkpt lat="43.06513251330257" lon="11.694136369783882"><ele>350.25</ele><time>2026-05-04T13:44:33Z</time></trkpt><trkpt lat="43.065135113536826" lon="11.693944571781628"><ele>351.5</ele><time>2026-05-04T13:44:34Z</time></trkpt><trkpt lat="43.06512791013464" lon="11.693758139966306"><ele>352.75</ele><time>2026-05-04T13:44:35Z</time></trkpt><trkpt lat="43.065151883528785" lon="11.693543850877269"><ele>354.0</ele><time>2026-05-04T13:44:36Z</time></trkpt><trkpt lat="43.06518136740357" lon="11.693320604581142"><ele>354.6666666666667</ele><time>2026-05-04T13:44:37Z</time></trkpt><trkpt lat="43.065210826843156" lon="11.69308596799644"><ele>355.33333333333337</ele><time>2026-05-04T13:44:38Z</time></trkpt><trkpt lat="43.065243457538536" lon="11.69283449624188"><ele>356.0</ele><time>2026-05-04T13:44:39Z</time></trkpt><trkpt lat="43.065275819126214" lon="11.692575008572515"><ele>356.33333333333337</ele><time>2026-05-04T13:44:40Z</time></trkpt><trkpt lat="43.06530516776488" lon="11.692328036408988"><ele>356.6666666666667</ele><time>2026-05-04T13:44:41Z</time></trkpt><trkpt lat="43.06533518978151" lon="11.692077291063379"><ele>357.0</ele><time>2026-05-04T13:44:42Z</time></trkpt><trkpt lat="43.06536729028806" lon="11.691828758158579"><ele>359.0</ele><time>2026-05-04T13:44:43Z</time></trkpt><trkpt lat="43.06539877885174" lon="11.691601534476503"><ele>361.0</ele><time>2026-05-04T13:44:44Z</time></trkpt><trkpt lat="43.06542551487121" lon="11.69138889004267"><ele>363.0</ele><time>2026-05-04T13:44:45Z</time></trkpt><trkpt lat="43.06545239445495" lon="11.691178106949137"><ele>363.25</ele><time>2026-05-04T13:44:46Z</time></trkpt><trkpt lat="43.06547317152382" lon="11.69098291368682"><ele>363.5</ele><time>2026-05-04T13:44:47Z</time></trkpt><trkpt lat="43.065478566787455" lon="11.690808694223323"><ele>363.75</ele><time>2026-05-04T13:44:48Z</time></trkpt><trkpt lat="43.06546202801019" lon="11.690647089815965"><ele>364.0</ele><time>2026-05-04T13:44:49Z</time></trkpt><trkpt lat="43.06543786291207" lon="11.690492488670216"><ele>364.0</ele><time>2026-05-04T13:44:50Z</time></trkpt><trkpt lat="43.0653705510631" lon="11.690347573959341"><ele>364.0</ele><time>2026-05-04T13:44:51Z</time></trkpt><trkpt lat="43.06531275573507" lon="11.690189968617927"><ele>364.0</ele><time>2026-05-04T13:44:52Z</time></trkpt><trkpt lat="43.065258787657925" lon="11.690039325153451"><ele>364.0</ele><time>2026-05-04T13:44:53Z</time></trkpt><trkpt lat="43.06521670430105" lon="11.689888986957829"><ele>363.25</ele><time>2026-05-04T13:44:54Z</time></trkpt><trkpt lat="43.065197227100946" lon="11.689733738243966"><ele>362.5</ele><time>2026-05-04T13:44:55Z</time></trkpt><trkpt lat="43.06520935160844" lon="11.689558727847304"><ele>361.75</ele><time>2026-05-04T13:44:56Z</time></trkpt><trkpt lat="43.06520221559735" lon="11.689364431098808"><ele>361.0</ele><time>2026-05-04T13:44:57Z</time></trkpt><trkpt lat="43.06521702982074" lon="11.689176143928533"><ele>360.25</ele><time>2026-05-04T13:44:58Z</time></trkpt><trkpt lat="43.065235002369555" lon="11.688994066428705"><ele>359.5</ele><time>2026-05-04T13:44:59Z</time></trkpt><trkpt lat="43.06525092370133" lon="11.68882151785858"><ele>358.75</ele><time>2026-05-04T13:45:00Z</time></trkpt><trkpt lat="43.06527087792107" lon="11.688651444689308"><ele>358.0</ele><time>2026-05-04T13:45:01Z</time></trkpt><trkpt lat="43.06529454290137" lon="11.688491462597282"><ele>357.2</ele><time>2026-05-04T13:45:02Z</time></trkpt><trkpt lat="43.06532439017561" lon="11.688351204016781"><ele>356.4</ele><time>2026-05-04T13:45:03Z</time></trkpt><trkpt lat="43.06536244939826" lon="11.688221554732019"><ele>355.59999999999997</ele><time>2026-05-04T13:45:04Z</time></trkpt><trkpt lat="43.06542189766166" lon="11.688113476081384"><ele>354.79999999999995</ele><time>2026-05-04T13:45:05Z</time></trkpt><trkpt lat="43.065497968354755" lon="11.688020277224734"><ele>354.0</ele><time>2026-05-04T13:45:06Z</time></trkpt><trkpt lat="43.065584559497765" lon="11.68792441308224"><ele>354.0</ele><time>2026-05-04T13:45:07Z</time></trkpt><trkpt lat="43.06566133238794" lon="11.687802700498334"><ele>354.0</ele><time>2026-05-04T13:45:08Z</time></trkpt><trkpt lat="43.06571427737634" lon="11.687674698369309"><ele>354.0</ele><time>2026-05-04T13:45:09Z</time></trkpt><trkpt lat="43.06573726938937" lon="11.687517501399212"><ele>354.0</ele><time>2026-05-04T13:45:10Z</time></trkpt><trkpt lat="43.06575541829454" lon="11.68734472982527"><ele>353.5</ele><time>2026-05-04T13:45:11Z</time></trkpt><trkpt lat="43.065770696245565" lon="11.687175229943557"><ele>353.0</ele><time>2026-05-04T13:45:12Z</time></trkpt><trkpt lat="43.06579524743667" lon="11.687002433478197"><ele>352.5</ele><time>2026-05-04T13:45:13Z</time></trkpt><trkpt lat="43.06581739163861" lon="11.68682031552158"><ele>352.0</ele><time>2026-05-04T13:45:14Z</time></trkpt><trkpt lat="43.06584024312581" lon="11.68665228559222"><ele>352.0</ele><time>2026-05-04T13:45:15Z</time></trkpt><trkpt lat="43.065868746762796" lon="11.686478609024157"><ele>352.0</ele><time>2026-05-04T13:45:16Z</time></trkpt><trkpt lat="43.06589559282262" lon="11.686310058057735"><ele>352.0</ele><time>2026-05-04T13:45:17Z</time></trkpt><trkpt lat="43.06593260314493" lon="11.686151667888513"><ele>352.0</ele><time>2026-05-04T13:45:18Z</time></trkpt><trkpt lat="43.065999284019554" lon="11.686016675443284"><ele>350.8</ele><time>2026-05-04T13:45:19Z</time></trkpt><trkpt lat="43.066046425908624" lon="11.685872903850479"><ele>349.6</ele><time>2026-05-04T13:45:20Z</time></trkpt><trkpt lat="43.06610429323514" lon="11.685759108409929"><ele>348.40000000000003</ele><time>2026-05-04T13:45:21Z</time></trkpt><trkpt lat="43.06615638077495" lon="11.68565375124016"><ele>347.20000000000005</ele><time>2026-05-04T13:45:22Z</time></trkpt><trkpt lat="43.06619942283299" lon="11.685557210572815"><ele>346.0</ele><time>2026-05-04T13:45:23Z</time></trkpt><trkpt lat="43.06625295462888" lon="11.685489187377044"><ele>346.0</ele><time>2026-05-04T13:45:24Z</time></trkpt><trkpt lat="43.0662602945709" lon="11.685397563763583"><ele>346.0</ele><time>2026-05-04T13:45:25Z</time></trkpt><trkpt lat="43.06628761554234" lon="11.685306193678947"><ele>346.0</ele><time>2026-05-04T13:45:26Z</time></trkpt><trkpt lat="43.066264949010474" lon="11.685194175343398"><ele>346.0</ele><time>2026-05-04T13:45:27Z</time></trkpt><trkpt lat="43.0662103265821" lon="11.68508835060662"><ele>346.0</ele><time>2026-05-04T13:45:28Z</time></trkpt><trkpt lat="43.0661293567814" lon="11.685057556652243"><ele>346.0</ele><time>2026-05-04T13:45:29Z</time></trkpt><trkpt lat="43.0660605746591" lon="11.685021037931918"><ele>344.20000000000005</ele><time>2026-05-04T13:45:30Z</time></trkpt><trkpt lat="43.06598378929164" lon="11.68498007256097"><ele>342.40000000000003</ele><time>2026-05-04T13:45:31Z</time></trkpt><trkpt lat="43.06592537331021" lon="11.684892105113727"><ele>340.6</ele><time>2026-05-04T13:45:32Z</time></trkpt><trkpt lat="43.06587286529497" lon="11.68478577368699"><ele>338.8</ele><time>2026-05-04T13:45:33Z</time></trkpt><trkpt lat="43.06584320547733" lon="11.68465011410604"><ele>337.0</ele><time>2026-05-04T13:45:34Z</time></trkpt><trkpt lat="43.06581514067145" lon="11.684483878614051"><ele>332.3333333333333</ele><time>2026-05-04T13:45:35Z</time></trkpt><trkpt lat="43.06577842079169" lon="11.68430078479918"><ele>327.6666666666667</ele><time>2026-05-04T13:45:36Z</time></trkpt><trkpt lat="43.06573161672156" lon="11.684100640400816"><ele>323.0</ele><time>2026-05-04T13:45:37Z</time></trkpt><trkpt lat="43.06567143894057" lon="11.683892213572888"><ele>323.0</ele><time>2026-05-04T13:45:38Z</time></trkpt><trkpt lat="43.06559795815318" lon="11.683704505171546"><ele>323.0</ele><time>2026-05-04T13:45:39Z</time></trkpt><trkpt lat="43.06553338804222" lon="11.683513417698686"><ele>323.0</ele><time>2026-05-04T13:45:40.001Z</time></trkpt><trkpt lat="43.065465097705136" lon="11.683313689806088"><ele>322.6666666666667</ele><time>2026-05-04T13:45:41.001Z</time></trkpt><trkpt lat="43.06539155669976" lon="11.683098578528975"><ele>322.3333333333333</ele><time>2026-05-04T13:45:42.001Z</time></trkpt><trkpt lat="43.065310792290255" lon="11.682871852033504"><ele>322.0</ele><time>2026-05-04T13:45:43.001Z</time></trkpt><trkpt lat="43.06524250741267" lon="11.682626722928017"><ele>321.3333333333333</ele><time>2026-05-04T13:45:44.001Z</time></trkpt><trkpt lat="43.065158875744075" lon="11.682387886393517"><ele>320.6666666666667</ele><time>2026-05-04T13:45:45.001Z</time></trkpt><trkpt lat="43.06508417484634" lon="11.682174211085133"><ele>320.0</ele><time>2026-05-04T13:45:46.001Z</time></trkpt><trkpt lat="43.065020514173526" lon="11.681982127598463"><ele>320.0</ele><time>2026-05-04T13:45:47.001Z</time></trkpt><trkpt lat="43.06496133393452" lon="11.681805284373095"><ele>320.0</ele><time>2026-05-04T13:45:48.001Z</time></trkpt><trkpt lat="43.06490855092437" lon="11.681652004242148"><ele>320.0</ele><time>2026-05-04T13:45:49.001Z</time></trkpt><trkpt lat="43.064847249351594" lon="11.681531870460578"><ele>320.0</ele><time>2026-05-04T13:45:50.001Z</time></trkpt><trkpt lat="43.06481854361952" lon="11.681422014989877"><ele>320.0</ele><time>2026-05-04T13:45:51.001Z</time></trkpt><trkpt lat="43.064800636870075" lon="11.681292439968795"><ele>320.0</ele><time>2026-05-04T13:45:53.001Z</time></trkpt><trkpt lat="43.06491593517321" lon="11.68124249799334"><ele>320.0</ele><time>2026-05-04T13:45:56.001Z</time></trkpt><trkpt lat="43.06501531235191" lon="11.681219724487239"><ele>320.0</ele><time>2026-05-04T13:45:57.001Z</time></trkpt><trkpt lat="43.06512480371398" lon="11.681205324231867"><ele>320.0</ele><time>2026-05-04T13:45:58.001Z</time></trkpt><trkpt lat="43.06524505445544" lon="11.68118350442088"><ele>320.0</ele><time>2026-05-04T13:45:59.001Z</time></trkpt><trkpt lat="43.06537981102268" lon="11.681166443180398"><ele>320.0</ele><time>2026-05-04T13:46:00.001Z</time></trkpt><trkpt lat="43.06552630945571" lon="11.681150549631543"><ele>320.0</ele><time>2026-05-04T13:46:01.001Z</time></trkpt><trkpt lat="43.065685058708496" lon="11.681132498791554"><ele>320.0</ele><time>2026-05-04T13:46:02.001Z</time></trkpt><trkpt lat="43.06583766401867" lon="11.681113986716248"><ele>320.75</ele><time>2026-05-04T13:46:03.001Z</time></trkpt><trkpt lat="43.06596688165036" lon="11.681081450529064"><ele>321.5</ele><time>2026-05-04T13:46:04.001Z</time></trkpt><trkpt lat="43.06607312959525" lon="11.681001196232273"><ele>322.25</ele><time>2026-05-04T13:46:05.001Z</time></trkpt><trkpt lat="43.06615175840756" lon="11.680864704143236"><ele>323.0</ele><time>2026-05-04T13:46:06.001Z</time></trkpt><trkpt lat="43.06617584884616" lon="11.680693469917912"><ele>323.0</ele><time>2026-05-04T13:46:07.001Z</time></trkpt><trkpt lat="43.06615578417861" lon="11.680508123747297"><ele>323.0</ele><time>2026-05-04T13:46:08.001Z</time></trkpt><trkpt lat="43.06611474075327" lon="11.680309346726144"><ele>323.0</ele><time>2026-05-04T13:46:09.001Z</time></trkpt><trkpt lat="43.06606753150504" lon="11.680100172755301"><ele>323.0</ele><time>2026-05-04T13:46:10.001Z</time></trkpt><trkpt lat="43.066017863435874" lon="11.679874388570061"><ele>324.0</ele><time>2026-05-04T13:46:11.001Z</time></trkpt><trkpt lat="43.06595566546384" lon="11.679649619196285"><ele>325.0</ele><time>2026-05-04T13:46:12.001Z</time></trkpt><trkpt lat="43.06588954449948" lon="11.679424095263833"><ele>326.0</ele><time>2026-05-04T13:46:13.001Z</time></trkpt><trkpt lat="43.06579194807947" lon="11.679205975073979"><ele>324.0</ele><time>2026-05-04T13:46:14.001Z</time></trkpt><trkpt lat="43.06572164851308" lon="11.67900183428471"><ele>322.0</ele><time>2026-05-04T13:46:15.001Z</time></trkpt><trkpt lat="43.0657315347033" lon="11.678808904341173"><ele>320.0</ele><time>2026-05-04T13:46:16.001Z</time></trkpt><trkpt lat="43.065773854959055" lon="11.678628930873268"><ele>318.0</ele><time>2026-05-04T13:46:17.001Z</time></trkpt><trkpt lat="43.06583995452751" lon="11.67842509119584"><ele>323.3333333333333</ele><time>2026-05-04T13:46:18.001Z</time></trkpt><trkpt lat="43.06591383542467" lon="11.678218010997188"><ele>328.66666666666663</ele><time>2026-05-04T13:46:19.001Z</time></trkpt><trkpt lat="43.066027404448874" lon="11.678062059137813"><ele>334.0</ele><time>2026-05-04T13:46:20.001Z</time></trkpt><trkpt lat="43.06614982266111" lon="11.677969139793127"><ele>334.0</ele><time>2026-05-04T13:46:21.001Z</time></trkpt><trkpt lat="43.06627950955659" lon="11.67793311176477"><ele>334.0</ele><time>2026-05-04T13:46:22.001Z</time></trkpt><trkpt lat="43.066425616025676" lon="11.677964848683478"><ele>334.0</ele><time>2026-05-04T13:46:23.001Z</time></trkpt><trkpt lat="43.066559979179225" lon="11.678046110228106"><ele>334.0</ele><time>2026-05-04T13:46:24.001Z</time></trkpt><trkpt lat="43.066701720435134" lon="11.67815281001573"><ele>337.0</ele><time>2026-05-04T13:46:25.001Z</time></trkpt><trkpt lat="43.06686501101308" lon="11.678252790542464"><ele>340.0</ele><time>2026-05-04T13:46:26.001Z</time></trkpt><trkpt lat="43.067022764507506" lon="11.678374907918709"><ele>343.0</ele><time>2026-05-04T13:46:27.001Z</time></trkpt><trkpt lat="43.0671959860088" lon="11.678472494162008"><ele>343.0</ele><time>2026-05-04T13:46:28Z</time></trkpt><trkpt lat="43.067380174519485" lon="11.678551025543868"><ele>343.0</ele><time>2026-05-04T13:46:29Z</time></trkpt><trkpt lat="43.067558939376674" lon="11.678605690690413"><ele>343.0</ele><time>2026-05-04T13:46:30Z</time></trkpt><trkpt lat="43.06770992887611" lon="11.678654290820589"><ele>344.0</ele><time>2026-05-04T13:46:31Z</time></trkpt><trkpt lat="43.06785875546603" lon="11.678670287148762"><ele>345.0</ele><time>2026-05-04T13:46:32Z</time></trkpt><trkpt lat="43.068023660034335" lon="11.678626748241152"><ele>346.0</ele><time>2026-05-04T13:46:33Z</time></trkpt><trkpt lat="43.06818628596821" lon="11.678550225279"><ele>348.0</ele><time>2026-05-04T13:46:34Z</time></trkpt><trkpt lat="43.06832166693754" lon="11.678476917128275"><ele>350.0</ele><time>2026-05-04T13:46:35Z</time></trkpt><trkpt lat="43.068418751948776" lon="11.678479235555146"><ele>352.0</ele><time>2026-05-04T13:46:36Z</time></trkpt><trkpt lat="43.06853894425331" lon="11.678487308311352"><ele>354.0</ele><time>2026-05-04T13:46:38Z</time></trkpt><trkpt lat="43.06858566879797" lon="11.678362456176515"><ele>354.0</ele><time>2026-05-04T13:46:39Z</time></trkpt><trkpt lat="43.06862376188756" lon="11.678223397384812"><ele>354.0</ele><time>2026-05-04T13:46:41Z</time></trkpt><trkpt lat="43.06865804750624" lon="11.678108015438081"><ele>354.0</ele><time>2026-05-04T13:46:43Z</time></trkpt><trkpt lat="43.068725661987855" lon="11.677994241531605"><ele>354.0</ele><time>2026-05-04T13:46:45Z</time></trkpt><trkpt lat="43.06876516782077" lon="11.677898209161713"><ele>354.0</ele><time>2026-05-04T13:46:46Z</time></trkpt><trkpt lat="43.068816493836856" lon="11.677772327357486"><ele>352.0</ele><time>2026-05-04T13:46:47Z</time></trkpt><trkpt lat="43.068873048880995" lon="11.677629807653199"><ele>350.0</ele><time>2026-05-04T13:46:48Z</time></trkpt><trkpt lat="43.06893391306076" lon="11.677474965884008"><ele>348.0</ele><time>2026-05-04T13:46:49Z</time></trkpt><trkpt lat="43.06899728440259" lon="11.677321287098632"><ele>346.0</ele><time>2026-05-04T13:46:50Z</time></trkpt><trkpt lat="43.06905208591093" lon="11.67718421818379"><ele>346.0</ele><time>2026-05-04T13:46:51Z</time></trkpt><trkpt lat="43.06907911637761" lon="11.677047327136512"><ele>346.0</ele><time>2026-05-04T13:46:52Z</time></trkpt><trkpt lat="43.069081591824705" lon="11.676906439266146"><ele>346.0</ele><time>2026-05-04T13:46:53Z</time></trkpt><trkpt lat="43.06904889015254" lon="11.676769951701258"><ele>346.0</ele><time>2026-05-04T13:46:54Z</time></trkpt><trkpt lat="43.06894574549485" lon="11.676661267175572"><ele>346.0</ele><time>2026-05-04T13:46:55Z</time></trkpt><trkpt lat="43.068849564228486" lon="11.67653469038416"><ele>346.5</ele><time>2026-05-04T13:46:56Z</time></trkpt><trkpt lat="43.06874599698511" lon="11.67637210611776"><ele>347.0</ele><time>2026-05-04T13:46:57Z</time></trkpt><trkpt lat="43.06864436333216" lon="11.676239203558316"><ele>347.5</ele><time>2026-05-04T13:46:58Z</time></trkpt><trkpt lat="43.06855215317149" lon="11.676118303743669"><ele>348.0</ele><time>2026-05-04T13:46:59Z</time></trkpt><trkpt lat="43.0684640696729" lon="11.676002782887528"><ele>348.0</ele><time>2026-05-04T13:47:00Z</time></trkpt><trkpt lat="43.06837601254825" lon="11.675887296839257"><ele>348.0</ele><time>2026-05-04T13:47:01Z</time></trkpt><trkpt lat="43.06829065801173" lon="11.675775354906492"><ele>348.0</ele><time>2026-05-04T13:47:02Z</time></trkpt><trkpt lat="43.06821573273564" lon="11.675675524261814"><ele>348.0</ele><time>2026-05-04T13:47:03Z</time></trkpt><trkpt lat="43.06814480033776" lon="11.67557773923652"><ele>348.0</ele><time>2026-05-04T13:47:04Z</time></trkpt><trkpt lat="43.068076910209015" lon="11.67548414822087"><ele>347.3333333333333</ele><time>2026-05-04T13:47:05Z</time></trkpt><trkpt lat="43.068014137202724" lon="11.67539761148554"><ele>346.6666666666667</ele><time>2026-05-04T13:47:06Z</time></trkpt><trkpt lat="43.067954192089765" lon="11.675316936016795"><ele>346.0</ele><time>2026-05-04T13:47:07Z</time></trkpt><trkpt lat="43.06789217314308" lon="11.675245013453814"><ele>345.33333333333337</ele><time>2026-05-04T13:47:08Z</time></trkpt><trkpt lat="43.06782635149825" lon="11.675180908374253"><ele>344.6666666666667</ele><time>2026-05-04T13:47:09Z</time></trkpt><trkpt lat="43.06775065248766" lon="11.675129301488179"><ele>344.0</ele><time>2026-05-04T13:47:10Z</time></trkpt><trkpt lat="43.06766705974438" lon="11.675108743767769"><ele>344.0</ele><time>2026-05-04T13:47:11Z</time></trkpt><trkpt lat="43.06758489723079" lon="11.67506844935868"><ele>344.0</ele><time>2026-05-04T13:47:12Z</time></trkpt><trkpt lat="43.06749218976332" lon="11.675026289776222"><ele>344.0</ele><time>2026-05-04T13:47:13Z</time></trkpt><trkpt lat="43.06741174010429" lon="11.674963439531577"><ele>344.0</ele><time>2026-05-04T13:47:14Z</time></trkpt><trkpt lat="43.0673192741752" lon="11.674917706065282"><ele>344.0</ele><time>2026-05-04T13:47:15Z</time></trkpt><trkpt lat="43.06722226399017" lon="11.674882261349948"><ele>341.6</ele><time>2026-05-04T13:47:16Z</time></trkpt><trkpt lat="43.067115994982565" lon="11.674833647455356"><ele>339.2</ele><time>2026-05-04T13:47:17Z</time></trkpt><trkpt lat="43.06701630597698" lon="11.674786150934207"><ele>336.8</ele><time>2026-05-04T13:47:18Z</time></trkpt><trkpt lat="43.06693022356877" lon="11.6747377599897"><ele>334.40000000000003</ele><time>2026-05-04T13:47:19Z</time></trkpt><trkpt lat="43.06687129614503" lon="11.674660864417644"><ele>332.0</ele><time>2026-05-04T13:47:20Z</time></trkpt><trkpt lat="43.06681660392979" lon="11.674580132056953"><ele>332.0</ele><time>2026-05-04T13:47:21Z</time></trkpt><trkpt lat="43.06677839904443" lon="11.67447052677202"><ele>332.0</ele><time>2026-05-04T13:47:22Z</time></trkpt><trkpt lat="43.06675357721371" lon="11.674354406728586"><ele>332.0</ele><time>2026-05-04T13:47:23Z</time></trkpt><trkpt lat="43.06672247924402" lon="11.674201424928036"><ele>332.0</ele><time>2026-05-04T13:47:24Z</time></trkpt><trkpt lat="43.066677817670836" lon="11.674070791032364"><ele>332.0</ele><time>2026-05-04T13:47:25Z</time></trkpt><trkpt lat="43.06664197397576" lon="11.673956305453583"><ele>330.1666666666667</ele><time>2026-05-04T13:47:26Z</time></trkpt><trkpt lat="43.06658902537379" lon="11.673842566868409"><ele>328.33333333333337</ele><time>2026-05-04T13:47:27Z</time></trkpt><trkpt lat="43.06653403594886" lon="11.673741458962057"><ele>326.5</ele><time>2026-05-04T13:47:28Z</time></trkpt><trkpt lat="43.0664999888667" lon="11.6736395305328"><ele>324.6666666666667</ele><time>2026-05-04T13:47:29Z</time></trkpt><trkpt lat="43.06648857962255" lon="11.673524447323118"><ele>322.8333333333333</ele><time>2026-05-04T13:47:30Z</time></trkpt><trkpt lat="43.0665084091305" lon="11.673410350625405"><ele>321.0</ele><time>2026-05-04T13:47:31Z</time></trkpt><trkpt lat="43.066554734629676" lon="11.67331986019734"><ele>321.1666666666667</ele><time>2026-05-04T13:47:32Z</time></trkpt><trkpt lat="43.066612838375804" lon="11.673225515108584"><ele>321.3333333333333</ele><time>2026-05-04T13:47:33Z</time></trkpt><trkpt lat="43.06666604603552" lon="11.67313132088266"><ele>321.5</ele><time>2026-05-04T13:47:34Z</time></trkpt><trkpt lat="43.06670215991198" lon="11.67303728745555"><ele>321.66666666666663</ele><time>2026-05-04T13:47:35Z</time></trkpt><trkpt lat="43.066736765856604" lon="11.672943621183322"><ele>321.8333333333333</ele><time>2026-05-04T13:47:36Z</time></trkpt><trkpt lat="43.06673001054326" lon="11.67282070051305"><ele>322.0</ele><time>2026-05-04T13:47:37Z</time></trkpt><trkpt lat="43.06669620951362" lon="11.672710802621026"><ele>322.0</ele><time>2026-05-04T13:47:38Z</time></trkpt><trkpt lat="43.066637653578375" lon="11.672621657213247"><ele>322.0</ele><time>2026-05-04T13:47:39Z</time></trkpt><trkpt lat="43.06652798341341" lon="11.67259834123828"><ele>322.0</ele><time>2026-05-04T13:47:40Z</time></trkpt><trkpt lat="43.06644850758791" lon="11.672534659340842"><ele>322.0</ele><time>2026-05-04T13:47:41Z</time></trkpt><trkpt lat="43.06636803726396" lon="11.672492122092027"><ele>322.0</ele><time>2026-05-04T13:47:42Z</time></trkpt><trkpt lat="43.06630921017721" lon="11.672389716541815"><ele>321.0</ele><time>2026-05-04T13:47:43Z</time></trkpt><trkpt lat="43.066296606339975" lon="11.672261112087625"><ele>320.0</ele><time>2026-05-04T13:47:44Z</time></trkpt><trkpt lat="43.06625056429934" lon="11.67215496317789"><ele>319.0</ele><time>2026-05-04T13:47:45Z</time></trkpt><trkpt lat="43.06618314738478" lon="11.672063182308777"><ele>318.0</ele><time>2026-05-04T13:47:46Z</time></trkpt><trkpt lat="43.06609285882903" lon="11.671992942057457"><ele>317.0</ele><time>2026-05-04T13:47:47Z</time></trkpt><trkpt lat="43.06599135313573" lon="11.671940577538827"><ele>315.8</ele><time>2026-05-04T13:47:48Z</time></trkpt><trkpt lat="43.0658966378133" lon="11.671895045049471"><ele>314.6</ele><time>2026-05-04T13:47:49Z</time></trkpt><trkpt lat="43.065803607394905" lon="11.671862257707371"><ele>313.40000000000003</ele><time>2026-05-04T13:47:50Z</time></trkpt><trkpt lat="43.065718619427315" lon="11.671846324157347"><ele>312.2</ele><time>2026-05-04T13:47:51Z</time></trkpt><trkpt lat="43.0656321521535" lon="11.671864737207763"><ele>311.0</ele><time>2026-05-04T13:47:52.001Z</time></trkpt><trkpt lat="43.06553864598768" lon="11.671927516370337"><ele>310.6</ele><time>2026-05-04T13:47:53.001Z</time></trkpt><trkpt lat="43.06547614346216" lon="11.672049512146826"><ele>310.20000000000005</ele><time>2026-05-04T13:47:54.001Z</time></trkpt><trkpt lat="43.06540174117595" lon="11.67213630196063"><ele>309.79999999999995</ele><time>2026-05-04T13:47:55.001Z</time></trkpt><trkpt lat="43.065318909502594" lon="11.672183516055735"><ele>309.4</ele><time>2026-05-04T13:47:56.001Z</time></trkpt><trkpt lat="43.06523549353256" lon="11.67222175174675"><ele>309.0</ele><time>2026-05-04T13:47:57.001Z</time></trkpt><trkpt lat="43.06513651075317" lon="11.6721506469106"><ele>309.0</ele><time>2026-05-04T13:47:58.001Z</time></trkpt><trkpt lat="43.065038646831276" lon="11.672073238509181"><ele>309.0</ele><time>2026-05-04T13:47:59.001Z</time></trkpt><trkpt lat="43.06492818483342" lon="11.671991994320361"><ele>309.0</ele><time>2026-05-04T13:48:00.001Z</time></trkpt><trkpt lat="43.06480623447374" lon="11.67190309033136"><ele>309.0</ele><time>2026-05-04T13:48:01.001Z</time></trkpt><trkpt lat="43.06467595672138" lon="11.671812391450572"><ele>307.0</ele><time>2026-05-04T13:48:02.001Z</time></trkpt><trkpt lat="43.064527222211716" lon="11.671716672480377"><ele>305.0</ele><time>2026-05-04T13:48:03.001Z</time></trkpt><trkpt lat="43.064363780232604" lon="11.671613312959892"><ele>303.0</ele><time>2026-05-04T13:48:04.001Z</time></trkpt><trkpt lat="43.06419534124403" lon="11.67150124373326"><ele>302.0</ele><time>2026-05-04T13:48:05.001Z</time></trkpt><trkpt lat="43.06401279976476" lon="11.671379506549373"><ele>301.0</ele><time>2026-05-04T13:48:06.001Z</time></trkpt><trkpt lat="43.06382180441037" lon="11.671253802163509"><ele>300.0</ele><time>2026-05-04T13:48:07.001Z</time></trkpt><trkpt lat="43.06364142863147" lon="11.671136322595915"><ele>299.6666666666667</ele><time>2026-05-04T13:48:08.001Z</time></trkpt><trkpt lat="43.063462703188215" lon="11.6710184049324"><ele>299.33333333333337</ele><time>2026-05-04T13:48:09.001Z</time></trkpt><trkpt lat="43.06329274658525" lon="11.670903517048659"><ele>299.0</ele><time>2026-05-04T13:48:10.001Z</time></trkpt><trkpt lat="43.06311609373001" lon="11.670781300181503"><ele>298.0</ele><time>2026-05-04T13:48:11.001Z</time></trkpt><trkpt lat="43.06294540133264" lon="11.670663174675088"><ele>297.0</ele><time>2026-05-04T13:48:12.001Z</time></trkpt><trkpt lat="43.06278989408649" lon="11.670558072484491"><ele>296.0</ele><time>2026-05-04T13:48:13.001Z</time></trkpt><trkpt lat="43.06264834971823" lon="11.67046240740716"><ele>296.0</ele><time>2026-05-04T13:48:14.001Z</time></trkpt><trkpt lat="43.0625030851904" lon="11.670363770507189"><ele>296.0</ele><time>2026-05-04T13:48:15.001Z</time></trkpt><trkpt lat="43.062349197468784" lon="11.670259215610727"><ele>296.0</ele><time>2026-05-04T13:48:16.001Z</time></trkpt><trkpt lat="43.062189323635295" lon="11.670150593574885"><ele>295.33333333333337</ele><time>2026-05-04T13:48:17.001Z</time></trkpt><trkpt lat="43.06202175413919" lon="11.67003545116606"><ele>294.6666666666667</ele><time>2026-05-04T13:48:18.001Z</time></trkpt><trkpt lat="43.06185181176297" lon="11.669914960776335"><ele>294.0</ele><time>2026-05-04T13:48:19.001Z</time></trkpt><trkpt lat="43.061685620039505" lon="11.66978006324681"><ele>293.6666666666667</ele><time>2026-05-04T13:48:20.001Z</time></trkpt><trkpt lat="43.061535576492105" lon="11.669642222216433"><ele>293.33333333333337</ele><time>2026-05-04T13:48:21.001Z</time></trkpt><trkpt lat="43.06138892306032" lon="11.66950417204267"><ele>293.0</ele><time>2026-05-04T13:48:22.001Z</time></trkpt><trkpt lat="43.06126681121698" lon="11.669388963702472"><ele>293.0</ele><time>2026-05-04T13:48:23.001Z</time></trkpt><trkpt lat="43.06115864156816" lon="11.66927968494457"><ele>293.0</ele><time>2026-05-04T13:48:24.001Z</time></trkpt><trkpt lat="43.061079357263274" lon="11.669173058301357"><ele>293.0</ele><time>2026-05-04T13:48:25.001Z</time></trkpt><trkpt lat="43.06101994670455" lon="11.669065160506502"><ele>293.0</ele><time>2026-05-04T13:48:26.001Z</time></trkpt><trkpt lat="43.060983121538534" lon="11.668942924144707"><ele>293.0</ele><time>2026-05-04T13:48:27.001Z</time></trkpt><trkpt lat="43.060935579133016" lon="11.668753680775675"><ele>293.0</ele><time>2026-05-04T13:48:28.001Z</time></trkpt><trkpt lat="43.06088278471091" lon="11.668511075327219"><ele>293.0</ele><time>2026-05-04T13:48:29.001Z</time></trkpt><trkpt lat="43.06080713426324" lon="11.66823493881429"><ele>293.0</ele><time>2026-05-04T13:48:30.001Z</time></trkpt><trkpt lat="43.0607323356248" lon="11.667951721002595"><ele>293.33333333333337</ele><time>2026-05-04T13:48:31.001Z</time></trkpt><trkpt lat="43.06067894231724" lon="11.66767327086423"><ele>293.6666666666667</ele><time>2026-05-04T13:48:32.001Z</time></trkpt><trkpt lat="43.06061430240892" lon="11.667416319203879"><ele>294.0</ele><time>2026-05-04T13:48:33.001Z</time></trkpt><trkpt lat="43.06055413273244" lon="11.667171255630691"><ele>294.0</ele><time>2026-05-04T13:48:34Z</time></trkpt><trkpt lat="43.06048371539754" lon="11.666956891697888"><ele>294.0</ele><time>2026-05-04T13:48:35Z</time></trkpt><trkpt lat="43.060439033308775" lon="11.66675320935987"><ele>294.0</ele><time>2026-05-04T13:48:36Z</time></trkpt><trkpt lat="43.06038666468061" lon="11.666568618197411"><ele>294.0</ele><time>2026-05-04T13:48:37Z</time></trkpt><trkpt lat="43.06032785051445" lon="11.666409890960528"><ele>294.0</ele><time>2026-05-04T13:48:38Z</time></trkpt><trkpt lat="43.060264681395715" lon="11.666238296456028"><ele>294.0</ele><time>2026-05-04T13:48:39Z</time></trkpt><trkpt lat="43.06014837922459" lon="11.666104934326734"><ele>294.0</ele><time>2026-05-04T13:48:40Z</time></trkpt><trkpt lat="43.06005061565967" lon="11.665967353853716"><ele>293.5</ele><time>2026-05-04T13:48:41Z</time></trkpt><trkpt lat="43.059951938343694" lon="11.665831188516577"><ele>293.0</ele><time>2026-05-04T13:48:42Z</time></trkpt><trkpt lat="43.05985676883945" lon="11.665701671004651"><ele>292.5</ele><time>2026-05-04T13:48:43Z</time></trkpt><trkpt lat="43.059764348803114" lon="11.665572372305466"><ele>292.0</ele><time>2026-05-04T13:48:44Z</time></trkpt><trkpt lat="43.059663198848824" lon="11.665422638947932"><ele>293.0</ele><time>2026-05-04T13:48:45Z</time></trkpt><trkpt lat="43.0595535578575" lon="11.665272816677408"><ele>294.0</ele><time>2026-05-04T13:48:46Z</time></trkpt><trkpt lat="43.05944583682603" lon="11.665114202833538"><ele>295.0</ele><time>2026-05-04T13:48:47Z</time></trkpt><trkpt lat="43.059325704261795" lon="11.66495671259868"><ele>295.0</ele><time>2026-05-04T13:48:48Z</time></trkpt><trkpt lat="43.0592094697754" lon="11.66479643451136"><ele>295.0</ele><time>2026-05-04T13:48:49Z</time></trkpt><trkpt lat="43.05909677682164" lon="11.664643448239298"><ele>295.0</ele><time>2026-05-04T13:48:50Z</time></trkpt><trkpt lat="43.05898938714783" lon="11.664496031966577"><ele>293.0</ele><time>2026-05-04T13:48:51Z</time></trkpt><trkpt lat="43.0588881711225" lon="11.664361790445788"><ele>291.0</ele><time>2026-05-04T13:48:52Z</time></trkpt><trkpt lat="43.058779080705555" lon="11.664223421407062"><ele>289.0</ele><time>2026-05-04T13:48:53Z</time></trkpt><trkpt lat="43.058669858333815" lon="11.664047924093202"><ele>289.0</ele><time>2026-05-04T13:48:54Z</time></trkpt><trkpt lat="43.058535181385146" lon="11.663867952539832"><ele>289.0</ele><time>2026-05-04T13:48:55Z</time></trkpt><trkpt lat="43.05839026925113" lon="11.66367430366122"><ele>289.0</ele><time>2026-05-04T13:48:56Z</time></trkpt><trkpt lat="43.05824039292695" lon="11.663475018090141"><ele>288.5</ele><time>2026-05-04T13:48:57Z</time></trkpt><trkpt lat="43.05807980737152" lon="11.663263132633377"><ele>288.0</ele><time>2026-05-04T13:48:58Z</time></trkpt><trkpt lat="43.05791458804992" lon="11.663047390339532"><ele>288.0</ele><time>2026-05-04T13:48:59Z</time></trkpt><trkpt lat="43.05774092909141" lon="11.662850082329282"><ele>288.0</ele><time>2026-05-04T13:49:00Z</time></trkpt><trkpt lat="43.057576463428205" lon="11.66262986404447"><ele>288.0</ele><time>2026-05-04T13:49:01Z</time></trkpt><trkpt lat="43.05744995945589" lon="11.662428282478862"><ele>288.0</ele><time>2026-05-04T13:49:02Z</time></trkpt><trkpt lat="43.057323689759485" lon="11.662260309061628"><ele>288.0</ele><time>2026-05-04T13:49:03Z</time></trkpt><trkpt lat="43.057205814883325" lon="11.662107002412068"><ele>288.0</ele><time>2026-05-04T13:49:04Z</time></trkpt><trkpt lat="43.057088723801456" lon="11.66198655341207"><ele>288.0</ele><time>2026-05-04T13:49:05Z</time></trkpt><trkpt lat="43.05699664558055" lon="11.66186259734871"><ele>288.0</ele><time>2026-05-04T13:49:06Z</time></trkpt><trkpt lat="43.05691091890171" lon="11.661758042572144"><ele>288.0</ele><time>2026-05-04T13:49:07Z</time></trkpt><trkpt lat="43.056827011847446" lon="11.661654254569317"><ele>287.75</ele><time>2026-05-04T13:49:08Z</time></trkpt><trkpt lat="43.056710771836514" lon="11.661590804796202"><ele>287.5</ele><time>2026-05-04T13:49:09Z</time></trkpt><trkpt lat="43.05657227664327" lon="11.661549117461997"><ele>287.25</ele><time>2026-05-04T13:49:10Z</time></trkpt><trkpt lat="43.05641744032456" lon="11.661523285818587"><ele>287.0</ele><time>2026-05-04T13:49:11Z</time></trkpt><trkpt lat="43.05624077148848" lon="11.661491226789577"><ele>287.6666666666667</ele><time>2026-05-04T13:49:12Z</time></trkpt><trkpt lat="43.05606597632727" lon="11.661454105912588"><ele>288.3333333333333</ele><time>2026-05-04T13:49:13Z</time></trkpt><trkpt lat="43.05587934955908" lon="11.661413672504404"><ele>289.0</ele><time>2026-05-04T13:49:14Z</time></trkpt><trkpt lat="43.055696846503956" lon="11.661373220500835"><ele>290.0</ele><time>2026-05-04T13:49:15Z</time></trkpt><trkpt lat="43.05551400117208" lon="11.66133235759493"><ele>291.0</ele><time>2026-05-04T13:49:16Z</time></trkpt><trkpt lat="43.05534124175003" lon="11.661282538401109"><ele>292.0</ele><time>2026-05-04T13:49:17Z</time></trkpt><trkpt lat="43.05519074056131" lon="11.661226032132056"><ele>292.0</ele><time>2026-05-04T13:49:18Z</time></trkpt><trkpt lat="43.0550424047185" lon="11.66115098351846"><ele>292.0</ele><time>2026-05-04T13:49:19Z</time></trkpt><trkpt lat="43.05489754381349" lon="11.661055178354966"><ele>292.0</ele><time>2026-05-04T13:49:20Z</time></trkpt><trkpt lat="43.05476231016641" lon="11.660955106690462"><ele>293.0</ele><time>2026-05-04T13:49:21Z</time></trkpt><trkpt lat="43.05464248079158" lon="11.660861585442998"><ele>294.0</ele><time>2026-05-04T13:49:22Z</time></trkpt><trkpt lat="43.05453486868645" lon="11.660766524212915"><ele>295.0</ele><time>2026-05-04T13:49:23Z</time></trkpt><trkpt lat="43.05444379900229" lon="11.660666863873976"><ele>296.0</ele><time>2026-05-04T13:49:24Z</time></trkpt><trkpt lat="43.054365650975846" lon="11.660561931838084"><ele>296.0</ele><time>2026-05-04T13:49:25Z</time></trkpt><trkpt lat="43.05430667492025" lon="11.660461908610758"><ele>296.0</ele><time>2026-05-04T13:49:26Z</time></trkpt><trkpt lat="43.05425855188943" lon="11.660374182048287"><ele>296.0</ele><time>2026-05-04T13:49:27Z</time></trkpt><trkpt lat="43.05421887775976" lon="11.66029926871118"><ele>296.0</ele><time>2026-05-04T13:49:28Z</time></trkpt><trkpt lat="43.05411186020562" lon="11.660311390917984"><ele>296.0</ele><time>2026-05-04T13:49:29Z</time></trkpt><trkpt lat="43.054053805213854" lon="11.660256252623899"><ele>296.0</ele><time>2026-05-04T13:49:30Z</time></trkpt><trkpt lat="43.053970682354795" lon="11.660192110214043"><ele>298.40000000000003</ele><time>2026-05-04T13:49:32Z</time></trkpt><trkpt lat="43.05388601974246" lon="11.660125364976667"><ele>300.8</ele><time>2026-05-04T13:49:35Z</time></trkpt><trkpt lat="43.05380596940818" lon="11.66006142815482"><ele>303.20000000000005</ele><time>2026-05-04T13:49:37Z</time></trkpt><trkpt lat="43.05373135907233" lon="11.660001805432842"><ele>305.6</ele><time>2026-05-04T13:49:39Z</time></trkpt><trkpt lat="43.05364587361648" lon="11.659934388141721"><ele>308.0</ele><time>2026-05-04T13:49:41Z</time></trkpt><trkpt lat="43.05355678819011" lon="11.659864131817157"><ele>308.0</ele><time>2026-05-04T13:49:43Z</time></trkpt><trkpt lat="43.05343800609497" lon="11.6597704555568"><ele>308.0</ele><time>2026-05-04T13:49:45Z</time></trkpt><trkpt lat="43.05333613270561" lon="11.659710792548042"><ele>308.0</ele><time>2026-05-04T13:49:46Z</time></trkpt><trkpt lat="43.053225792862044" lon="11.659629131107287"><ele>308.0</ele><time>2026-05-04T13:49:47Z</time></trkpt><trkpt lat="43.05310155603147" lon="11.659569056639251"><ele>309.0</ele><time>2026-05-04T13:49:48Z</time></trkpt><trkpt lat="43.052982169316884" lon="11.659493472318157"><ele>310.0</ele><time>2026-05-04T13:49:49Z</time></trkpt><trkpt lat="43.05286113373483" lon="11.65943248773597"><ele>311.0</ele><time>2026-05-04T13:49:50Z</time></trkpt><trkpt lat="43.052753221083954" lon="11.659373481652816"><ele>312.0</ele><time>2026-05-04T13:49:51Z</time></trkpt><trkpt lat="43.05268154008915" lon="11.659333809137893"><ele>312.0</ele><time>2026-05-04T13:49:52Z</time></trkpt><trkpt lat="43.05258642459497" lon="11.659280086399432"><ele>312.0</ele><time>2026-05-04T13:49:54Z</time></trkpt><trkpt lat="43.05248719502187" lon="11.659312670846019"><ele>312.0</ele><time>2026-05-04T13:49:56Z</time></trkpt><trkpt lat="43.05246673089433" lon="11.65941721863817"><ele>312.0</ele><time>2026-05-04T13:49:57Z</time></trkpt><trkpt lat="43.05253010201847" lon="11.659502900622432"><ele>312.0</ele><time>2026-05-04T13:49:58Z</time></trkpt><trkpt lat="43.05260489397014" lon="11.659603279555979"><ele>313.5</ele><time>2026-05-04T13:50:00Z</time></trkpt><trkpt lat="43.052605062707606" lon="11.659696331450318"><ele>315.0</ele><time>2026-05-04T13:50:06.001Z</time></trkpt><trkpt lat="43.052674957065854" lon="11.659804642430084"><ele>316.5</ele><time>2026-05-04T13:50:08.001Z</time></trkpt><trkpt lat="43.05261827446366" lon="11.659741577346043"><ele>318.0</ele><time>2026-05-04T13:50:09.001Z</time></trkpt><trkpt lat="43.052599782311376" lon="11.659646963387319"><ele>319.5</ele><time>2026-05-04T13:50:15.001Z</time></trkpt><trkpt lat="43.052578104925914" lon="11.659548535330105"><ele>321.0</ele><time>2026-05-04T13:50:28.001Z</time></trkpt><trkpt lat="43.05250206817792" lon="11.659460071581636"><ele>321.0</ele><time>2026-05-04T13:50:55Z</time></trkpt><trkpt lat="43.05248072145832" lon="11.659362968419483"><ele>321.0</ele><time>2026-05-04T13:50:57Z</time></trkpt><trkpt lat="43.05250577675675" lon="11.659450449804524"><ele>321.0</ele><time>2026-05-04T13:50:59Z</time></trkpt><trkpt lat="43.052575460923634" lon="11.659575341439615"><ele>321.0</ele><time>2026-05-04T13:51:01Z</time></trkpt><trkpt lat="43.05262374374364" lon="11.659641322701527"><ele>321.0</ele><time>2026-05-04T13:51:02Z</time></trkpt><trkpt lat="43.05267568172506" lon="11.659753366467081"><ele>321.0</ele><time>2026-05-04T13:51:04Z</time></trkpt><trkpt lat="43.052723097196235" lon="11.65981693334978"><ele>321.0</ele><time>2026-05-04T13:51:05Z</time></trkpt><trkpt lat="43.053067396568586" lon="11.659568281078101"><ele>321.0</ele><time>2026-05-04T13:51:06Z</time></trkpt><trkpt lat="43.053144659534844" lon="11.659603743268432"><ele>321.0</ele><time>2026-05-04T13:51:07Z</time></trkpt><trkpt lat="43.05321430385712" lon="11.65963411773826"><ele>321.0</ele><time>2026-05-04T13:51:08Z</time></trkpt><trkpt lat="43.05327594816327" lon="11.659706203246687"><ele>321.0</ele><time>2026-05-04T13:51:09Z</time></trkpt><trkpt lat="43.05334994411791" lon="11.659756308350198"><ele>321.0</ele><time>2026-05-04T13:51:10Z</time></trkpt><trkpt lat="43.05341803659632" lon="11.659807170350458"><ele>321.0</ele><time>2026-05-04T13:51:11Z</time></trkpt><trkpt lat="43.05349613785241" lon="11.659860364423428"><ele>321.0</ele><time>2026-05-04T13:51:12Z</time></trkpt><trkpt lat="43.05356850536369" lon="11.659918747167643"><ele>318.8333333333333</ele><time>2026-05-04T13:51:13Z</time></trkpt><trkpt lat="43.0536345708789" lon="11.659972868090746"><ele>316.6666666666667</ele><time>2026-05-04T13:51:14Z</time></trkpt><trkpt lat="43.05370156514254" lon="11.66002829809668"><ele>314.5</ele><time>2026-05-04T13:51:15Z</time></trkpt><trkpt lat="43.053764952081295" lon="11.660079802740702"><ele>312.33333333333337</ele><time>2026-05-04T13:51:16Z</time></trkpt><trkpt lat="43.05383329105126" lon="11.660130043856697"><ele>310.1666666666667</ele><time>2026-05-04T13:51:17Z</time></trkpt><trkpt lat="43.05389501098374" lon="11.660171488893592"><ele>308.0</ele><time>2026-05-04T13:51:18Z</time></trkpt><trkpt lat="43.05396095810826" lon="11.660219780463542"><ele>308.0</ele><time>2026-05-04T13:51:19Z</time></trkpt><trkpt lat="43.05401787057946" lon="11.660263392918148"><ele>308.0</ele><time>2026-05-04T13:51:20Z</time></trkpt><trkpt lat="43.054073769422" lon="11.660310625563534"><ele>308.0</ele><time>2026-05-04T13:51:21Z</time></trkpt><trkpt lat="43.05414486240509" lon="11.660371315204879"><ele>308.0</ele><time>2026-05-04T13:51:23Z</time></trkpt><trkpt lat="43.05415015814572" lon="11.66017233150378"><ele>308.0</ele><time>2026-05-04T13:51:29Z</time></trkpt><trkpt lat="43.05408248405822" lon="11.660021437652265"><ele>308.0</ele><time>2026-05-04T13:51:30Z</time></trkpt><trkpt lat="43.054006834188726" lon="11.659874241907694"><ele>308.0</ele><time>2026-05-04T13:51:31Z</time></trkpt><trkpt lat="43.05392217302263" lon="11.659708202617713"><ele>308.0</ele><time>2026-05-04T13:51:32Z</time></trkpt><trkpt lat="43.05383082250964" lon="11.659526341082682"><ele>308.0</ele><time>2026-05-04T13:51:33Z</time></trkpt><trkpt lat="43.05373320700988" lon="11.659327524151903"><ele>304.6666666666667</ele><time>2026-05-04T13:51:34Z</time></trkpt><trkpt lat="43.05363446282271" lon="11.659123902701149"><ele>301.3333333333333</ele><time>2026-05-04T13:51:35Z</time></trkpt><trkpt lat="43.05354382189962" lon="11.658927037146341"><ele>298.0</ele><time>2026-05-04T13:51:36Z</time></trkpt><trkpt lat="43.05345263727411" lon="11.658728733574037"><ele>298.0</ele><time>2026-05-04T13:51:37Z</time></trkpt><trkpt lat="43.05336345324147" lon="11.658538916447638"><ele>298.0</ele><time>2026-05-04T13:51:38Z</time></trkpt><trkpt lat="43.05327622505277" lon="11.658356209649838"><ele>298.0</ele><time>2026-05-04T13:51:39Z</time></trkpt><trkpt lat="43.05319550405617" lon="11.658190401402187"><ele>298.0</ele><time>2026-05-04T13:51:40Z</time></trkpt><trkpt lat="43.05311877619838" lon="11.658047700065607"><ele>298.0</ele><time>2026-05-04T13:51:41Z</time></trkpt><trkpt lat="43.05304988936245" lon="11.657929666844396"><ele>298.0</ele><time>2026-05-04T13:51:42Z</time></trkpt><trkpt lat="43.05297882070513" lon="11.657831739152309"><ele>298.0</ele><time>2026-05-04T13:51:43Z</time></trkpt><trkpt lat="43.05288074018103" lon="11.657738865316048"><ele>295.66666666666663</ele><time>2026-05-04T13:51:44Z</time></trkpt><trkpt lat="43.052755071586134" lon="11.657641552067593"><ele>293.3333333333333</ele><time>2026-05-04T13:51:45Z</time></trkpt><trkpt lat="43.052608769954595" lon="11.657524862481763"><ele>291.0</ele><time>2026-05-04T13:51:46Z</time></trkpt><trkpt lat="43.05245253950938" lon="11.657401089700462"><ele>291.0</ele><time>2026-05-04T13:51:47Z</time></trkpt><trkpt lat="43.05230465560318" lon="11.657282427636932"><ele>291.0</ele><time>2026-05-04T13:51:48Z</time></trkpt><trkpt lat="43.05216835923837" lon="11.65717722981938"><ele>291.0</ele><time>2026-05-04T13:51:49Z</time></trkpt><trkpt lat="43.05203564831907" lon="11.65710469021966"><ele>291.0</ele><time>2026-05-04T13:51:50Z</time></trkpt><trkpt lat="43.05192127747821" lon="11.657013080376037"><ele>291.0</ele><time>2026-05-04T13:51:51Z</time></trkpt><trkpt lat="43.05178445901024" lon="11.65694928973117"><ele>291.0</ele><time>2026-05-04T13:51:52Z</time></trkpt><trkpt lat="43.05161273028771" lon="11.656892671416026"><ele>288.3333333333333</ele><time>2026-05-04T13:51:53.001Z</time></trkpt><trkpt lat="43.051448305831784" lon="11.65684904828916"><ele>285.66666666666663</ele><time>2026-05-04T13:51:54.001Z</time></trkpt><trkpt lat="43.051303754852015" lon="11.656821471759773"><ele>283.0</ele><time>2026-05-04T13:51:55.001Z</time></trkpt><trkpt lat="43.05116417879355" lon="11.656809736211173"><ele>283.0</ele><time>2026-05-04T13:51:56.001Z</time></trkpt><trkpt lat="43.05101425839256" lon="11.656821727750225"><ele>283.0</ele><time>2026-05-04T13:51:57.001Z</time></trkpt><trkpt lat="43.05084987838663" lon="11.656855154212401"><ele>283.0</ele><time>2026-05-04T13:51:58.001Z</time></trkpt><trkpt lat="43.05068431525456" lon="11.65689653360918"><ele>283.0</ele><time>2026-05-04T13:51:59.001Z</time></trkpt><trkpt lat="43.05053852844561" lon="11.656936176153403"><ele>283.0</ele><time>2026-05-04T13:52:00.001Z</time></trkpt><trkpt lat="43.05041120850618" lon="11.65696570335467"><ele>283.0</ele><time>2026-05-04T13:52:01.001Z</time></trkpt><trkpt lat="43.0502914552647" lon="11.65699483522328"><ele>283.0</ele><time>2026-05-04T13:52:02.001Z</time></trkpt><trkpt lat="43.05017287884106" lon="11.656973527448608"><ele>283.0</ele><time>2026-05-04T13:52:03.001Z</time></trkpt><trkpt lat="43.05007644550259" lon="11.656879010994578"><ele>283.0</ele><time>2026-05-04T13:52:04.001Z</time></trkpt><trkpt lat="43.0499811199925" lon="11.656781944642573"><ele>283.0</ele><time>2026-05-04T13:52:05.001Z</time></trkpt><trkpt lat="43.04985803931581" lon="11.656661557651843"><ele>283.0</ele><time>2026-05-04T13:52:06.001Z</time></trkpt><trkpt lat="43.049702649493064" lon="11.656527960567864"><ele>282.3333333333333</ele><time>2026-05-04T13:52:07.001Z</time></trkpt><trkpt lat="43.049541833145405" lon="11.656356555544276"><ele>281.6666666666667</ele><time>2026-05-04T13:52:08.001Z</time></trkpt><trkpt lat="43.049377712958794" lon="11.656161874876446"><ele>281.0</ele><time>2026-05-04T13:52:09.001Z</time></trkpt><trkpt lat="43.049197469421586" lon="11.655974605918457"><ele>280.33333333333337</ele><time>2026-05-04T13:52:10.001Z</time></trkpt><trkpt lat="43.04901869932933" lon="11.655796544138045"><ele>279.6666666666667</ele><time>2026-05-04T13:52:11.001Z</time></trkpt><trkpt lat="43.048837320044726" lon="11.655618294676406"><ele>279.0</ele><time>2026-05-04T13:52:12.001Z</time></trkpt><trkpt lat="43.04865465442755" lon="11.655463076754318"><ele>279.0</ele><time>2026-05-04T13:52:13.001Z</time></trkpt><trkpt lat="43.04849977715375" lon="11.655310257833158"><ele>279.0</ele><time>2026-05-04T13:52:14.001Z</time></trkpt><trkpt lat="43.048373260714854" lon="11.655158021500705"><ele>279.0</ele><time>2026-05-04T13:52:15.001Z</time></trkpt><trkpt lat="43.04825674646061" lon="11.655032059419336"><ele>279.5</ele><time>2026-05-04T13:52:16.001Z</time></trkpt><trkpt lat="43.048139766692955" lon="11.654905309138318"><ele>280.0</ele><time>2026-05-04T13:52:17.001Z</time></trkpt><trkpt lat="43.04802878658796" lon="11.654797891020381"><ele>280.5</ele><time>2026-05-04T13:52:18.001Z</time></trkpt><trkpt lat="43.047925852732284" lon="11.654706414926"><ele>281.0</ele><time>2026-05-04T13:52:19.001Z</time></trkpt><trkpt lat="43.04782050891995" lon="11.654632227564097"><ele>281.0</ele><time>2026-05-04T13:52:20.001Z</time></trkpt><trkpt lat="43.04770100315096" lon="11.654587260562087"><ele>281.0</ele><time>2026-05-04T13:52:21.001Z</time></trkpt><trkpt lat="43.047570135535324" lon="11.654582432392411"><ele>281.0</ele><time>2026-05-04T13:52:22.001Z</time></trkpt><trkpt lat="43.04742868570932" lon="11.654598695313602"><ele>281.0</ele><time>2026-05-04T13:52:23.001Z</time></trkpt><trkpt lat="43.047266651107364" lon="11.654621516554334"><ele>281.0</ele><time>2026-05-04T13:52:24.001Z</time></trkpt><trkpt lat="43.04709535084223" lon="11.654648420263134"><ele>281.0</ele><time>2026-05-04T13:52:25.001Z</time></trkpt><trkpt lat="43.04691606364086" lon="11.654696097173504"><ele>281.0</ele><time>2026-05-04T13:52:26.001Z</time></trkpt><trkpt lat="43.046741672363716" lon="11.65470751487419"><ele>280.25</ele><time>2026-05-04T13:52:27.001Z</time></trkpt><trkpt lat="43.04659731484705" lon="11.654714276235481"><ele>279.5</ele><time>2026-05-04T13:52:28.001Z</time></trkpt><trkpt lat="43.046480298664285" lon="11.654706218042145"><ele>278.75</ele><time>2026-05-04T13:52:29.001Z</time></trkpt><trkpt lat="43.04638259687942" lon="11.654678908913706"><ele>278.0</ele><time>2026-05-04T13:52:30.001Z</time></trkpt><trkpt lat="43.04629606564669" lon="11.654623866993955"><ele>278.0</ele><time>2026-05-04T13:52:31.001Z</time></trkpt><trkpt lat="43.04621682448908" lon="11.65453587670306"><ele>278.0</ele><time>2026-05-04T13:52:32.001Z</time></trkpt><trkpt lat="43.04616208041156" lon="11.654402424707659"><ele>278.0</ele><time>2026-05-04T13:52:33.001Z</time></trkpt><trkpt lat="43.04609521053557" lon="11.654278299572983"><ele>278.0</ele><time>2026-05-04T13:52:34.001Z</time></trkpt><trkpt lat="43.04601677011517" lon="11.654126500013508"><ele>279.33333333333337</ele><time>2026-05-04T13:52:35.001Z</time></trkpt><trkpt lat="43.04591650502277" lon="11.653966623839946"><ele>280.6666666666667</ele><time>2026-05-04T13:52:36.001Z</time></trkpt><trkpt lat="43.04582427199592" lon="11.653784651131087"><ele>282.0</ele><time>2026-05-04T13:52:37.001Z</time></trkpt><trkpt lat="43.04572111299859" lon="11.65357829721014"><ele>284.6666666666667</ele><time>2026-05-04T13:52:38.001Z</time></trkpt><trkpt lat="43.045620948178446" lon="11.653378276985464"><ele>287.33333333333337</ele><time>2026-05-04T13:52:39.001Z</time></trkpt><trkpt lat="43.04550885321836" lon="11.653169928850158"><ele>290.0</ele><time>2026-05-04T13:52:40.001Z</time></trkpt><trkpt lat="43.0454130385429" lon="11.652945662529971"><ele>290.33333333333337</ele><time>2026-05-04T13:52:41.001Z</time></trkpt><trkpt lat="43.04529326504721" lon="11.652742522527095"><ele>290.6666666666667</ele><time>2026-05-04T13:52:42.001Z</time></trkpt><trkpt lat="43.04519110037462" lon="11.65253978101021"><ele>291.0</ele><time>2026-05-04T13:52:43.001Z</time></trkpt><trkpt lat="43.04511795509301" lon="11.652351693165919"><ele>291.0</ele><time>2026-05-04T13:52:44.001Z</time></trkpt><trkpt lat="43.04504636556883" lon="11.652203515900942"><ele>291.0</ele><time>2026-05-04T13:52:45.001Z</time></trkpt><trkpt lat="43.04496892898547" lon="11.652077921784686"><ele>291.0</ele><time>2026-05-04T13:52:45.999Z</time></trkpt><trkpt lat="43.044877952527074" lon="11.651969435969825"><ele>291.0</ele><time>2026-05-04T13:52:46.999Z</time></trkpt><trkpt lat="43.04477242230755" lon="11.65188093287158"><ele>291.5</ele><time>2026-05-04T13:52:47.999Z</time></trkpt><trkpt lat="43.04466683484697" lon="11.651800740858139"><ele>292.0</ele><time>2026-05-04T13:52:48.999Z</time></trkpt><trkpt lat="43.04455727631539" lon="11.651728382673127"><ele>292.5</ele><time>2026-05-04T13:52:49.999Z</time></trkpt><trkpt lat="43.04444934173182" lon="11.651659157400253"><ele>293.0</ele><time>2026-05-04T13:52:50.999Z</time></trkpt><trkpt lat="43.04436429215449" lon="11.651568425872007"><ele>293.0</ele><time>2026-05-04T13:52:51.999Z</time></trkpt><trkpt lat="43.044299186775575" lon="11.651462433174393"><ele>293.0</ele><time>2026-05-04T13:52:52.999Z</time></trkpt><trkpt lat="43.04424326816058" lon="11.651333935414327"><ele>293.0</ele><time>2026-05-04T13:52:53.999Z</time></trkpt><trkpt lat="43.04417971507109" lon="11.65118885817702"><ele>293.0</ele><time>2026-05-04T13:52:54.999Z</time></trkpt><trkpt lat="43.04411121400683" lon="11.65103248614777"><ele>292.75</ele><time>2026-05-04T13:52:55.999Z</time></trkpt><trkpt lat="43.044042027009894" lon="11.650876073272771"><ele>292.5</ele><time>2026-05-04T13:52:56.999Z</time></trkpt><trkpt lat="43.04397007854411" lon="11.650718350853117"><ele>292.25</ele><time>2026-05-04T13:52:57.999Z</time></trkpt><trkpt lat="43.04389399882954" lon="11.650557228242135"><ele>292.0</ele><time>2026-05-04T13:52:58.999Z</time></trkpt><trkpt lat="43.04381461370344" lon="11.65038910543384"><ele>291.0</ele><time>2026-05-04T13:52:59.999Z</time></trkpt><trkpt lat="43.04373313648971" lon="11.650215887042252"><ele>290.0</ele><time>2026-05-04T13:53:00.999Z</time></trkpt><trkpt lat="43.04365379726235" lon="11.650045197514704"><ele>289.0</ele><time>2026-05-04T13:53:01.999Z</time></trkpt><trkpt lat="43.04357310478357" lon="11.64987159655722"><ele>288.0</ele><time>2026-05-04T13:53:02.999Z</time></trkpt><trkpt lat="43.04348849560645" lon="11.649689568812786"><ele>288.0</ele><time>2026-05-04T13:53:03.999Z</time></trkpt><trkpt lat="43.043404892375584" lon="11.649509705584787"><ele>288.0</ele><time>2026-05-04T13:53:04.999Z</time></trkpt><trkpt lat="43.04332422761191" lon="11.649333691916489"><ele>288.0</ele><time>2026-05-04T13:53:05.999Z</time></trkpt><trkpt lat="43.04324974535002" lon="11.649170489557376"><ele>288.0</ele><time>2026-05-04T13:53:06.999Z</time></trkpt><trkpt lat="43.04317674665522" lon="11.649028083264858"><ele>288.0</ele><time>2026-05-04T13:53:07.999Z</time></trkpt><trkpt lat="43.04308826499431" lon="11.648885787555043"><ele>288.0</ele><time>2026-05-04T13:53:08.999Z</time></trkpt><trkpt lat="43.04298260634746" lon="11.648763403079833"><ele>288.0</ele><time>2026-05-04T13:53:09.999Z</time></trkpt><trkpt lat="43.04286028433466" lon="11.648660790676686"><ele>288.0</ele><time>2026-05-04T13:53:10.999Z</time></trkpt><trkpt lat="43.042722662431345" lon="11.648571685884955"><ele>286.0</ele><time>2026-05-04T13:53:11.999Z</time></trkpt><trkpt lat="43.042577369231886" lon="11.648490857778372"><ele>284.0</ele><time>2026-05-04T13:53:12.999Z</time></trkpt><trkpt lat="43.04242495237474" lon="11.64840751777829"><ele>282.0</ele><time>2026-05-04T13:53:13.999Z</time></trkpt><trkpt lat="43.04226826009366" lon="11.648321838320008"><ele>281.5</ele><time>2026-05-04T13:53:14.999Z</time></trkpt><trkpt lat="43.04211680781735" lon="11.648237295978623"><ele>281.0</ele><time>2026-05-04T13:53:15.999Z</time></trkpt><trkpt lat="43.04199007502491" lon="11.648160302082093"><ele>280.5</ele><time>2026-05-04T13:53:16.999Z</time></trkpt><trkpt lat="43.04187085410634" lon="11.648085101032507"><ele>280.0</ele><time>2026-05-04T13:53:17.999Z</time></trkpt><trkpt lat="43.04175229781603" lon="11.648013402545102"><ele>280.0</ele><time>2026-05-04T13:53:18.999Z</time></trkpt><trkpt lat="43.04164834919748" lon="11.647958602649249"><ele>280.0</ele><time>2026-05-04T13:53:19.999Z</time></trkpt><trkpt lat="43.04154228372757" lon="11.647912530813418"><ele>280.0</ele><time>2026-05-04T13:53:20.999Z</time></trkpt><trkpt lat="43.0414312509137" lon="11.647889751070778"><ele>280.0</ele><time>2026-05-04T13:53:21.999Z</time></trkpt><trkpt lat="43.04131671652701" lon="11.647896106922998"><ele>279.0</ele><time>2026-05-04T13:53:22.999Z</time></trkpt><trkpt lat="43.04119046494566" lon="11.647932471294483"><ele>278.0</ele><time>2026-05-04T13:53:23.999Z</time></trkpt><trkpt lat="43.041055847212924" lon="11.647970277736427"><ele>277.0</ele><time>2026-05-04T13:53:24.999Z</time></trkpt><trkpt lat="43.0409169330661" lon="11.648011450706386"><ele>276.0</ele><time>2026-05-04T13:53:25.999Z</time></trkpt><trkpt lat="43.0407688952019" lon="11.6480547654999"><ele>274.6666666666667</ele><time>2026-05-04T13:53:26.999Z</time></trkpt><trkpt lat="43.040616718039466" lon="11.648097132762246"><ele>273.33333333333337</ele><time>2026-05-04T13:53:27.999Z</time></trkpt><trkpt lat="43.04045562934764" lon="11.648140810948519"><ele>272.0</ele><time>2026-05-04T13:53:28.999Z</time></trkpt><trkpt lat="43.04029939463815" lon="11.648183173004385"><ele>272.0</ele><time>2026-05-04T13:53:30Z</time></trkpt><trkpt lat="43.040161295610744" lon="11.648222569285874"><ele>272.0</ele><time>2026-05-04T13:53:31Z</time></trkpt><trkpt lat="43.040034549938184" lon="11.648258441661339"><ele>272.0</ele><time>2026-05-04T13:53:32Z</time></trkpt><trkpt lat="43.03991038122667" lon="11.64829057058479"><ele>272.0</ele><time>2026-05-04T13:53:33Z</time></trkpt><trkpt lat="43.03979581687831" lon="11.648318758283825"><ele>271.25</ele><time>2026-05-04T13:53:34Z</time></trkpt><trkpt lat="43.03968408975631" lon="11.648341861607683"><ele>270.5</ele><time>2026-05-04T13:53:35Z</time></trkpt><trkpt lat="43.03957176277968" lon="11.64835245760811"><ele>269.75</ele><time>2026-05-04T13:53:36Z</time></trkpt><trkpt lat="43.03945912306503" lon="11.648349483467435"><ele>269.0</ele><time>2026-05-04T13:53:37Z</time></trkpt><trkpt lat="43.03933543377662" lon="11.648332034526625"><ele>269.0</ele><time>2026-05-04T13:53:38Z</time></trkpt><trkpt lat="43.03919663209029" lon="11.648320574820005"><ele>269.0</ele><time>2026-05-04T13:53:39Z</time></trkpt><trkpt lat="43.03905868230156" lon="11.648289964160279"><ele>269.0</ele><time>2026-05-04T13:53:40Z</time></trkpt><trkpt lat="43.038918001975375" lon="11.648249326430136"><ele>269.0</ele><time>2026-05-04T13:53:41Z</time></trkpt><trkpt lat="43.03878866449461" lon="11.648213064313788"><ele>269.0</ele><time>2026-05-04T13:53:42Z</time></trkpt><trkpt lat="43.03866248095893" lon="11.648160915205759"><ele>269.0</ele><time>2026-05-04T13:53:43Z</time></trkpt><trkpt lat="43.0385538244824" lon="11.648067710710485"><ele>269.0</ele><time>2026-05-04T13:53:44Z</time></trkpt><trkpt lat="43.0384323734739" lon="11.647983178461848"><ele>269.0</ele><time>2026-05-04T13:53:45Z</time></trkpt><trkpt lat="43.038309872977244" lon="11.647888436723624"><ele>268.6666666666667</ele><time>2026-05-04T13:53:46Z</time></trkpt><trkpt lat="43.038178748911164" lon="11.64780734539744"><ele>268.3333333333333</ele><time>2026-05-04T13:53:47Z</time></trkpt><trkpt lat="43.03804841304746" lon="11.647696522739926"><ele>268.0</ele><time>2026-05-04T13:53:48Z</time></trkpt><trkpt lat="43.03790713359453" lon="11.647584186658921"><ele>267.3333333333333</ele><time>2026-05-04T13:53:49Z</time></trkpt><trkpt lat="43.03778051257534" lon="11.647452640781173"><ele>266.6666666666667</ele><time>2026-05-04T13:53:50Z</time></trkpt><trkpt lat="43.037637821983715" lon="11.647354214196906"><ele>266.0</ele><time>2026-05-04T13:53:51Z</time></trkpt><trkpt lat="43.037503157229544" lon="11.647238877629707"><ele>266.0</ele><time>2026-05-04T13:53:52Z</time></trkpt><trkpt lat="43.03737187076481" lon="11.647134536073889"><ele>266.0</ele><time>2026-05-04T13:53:53Z</time></trkpt><trkpt lat="43.03724137998616" lon="11.647032552517889"><ele>266.0</ele><time>2026-05-04T13:53:54Z</time></trkpt><trkpt lat="43.03711468434953" lon="11.646941680354768"><ele>266.0</ele><time>2026-05-04T13:53:55Z</time></trkpt><trkpt lat="43.03697644695925" lon="11.646859080580368"><ele>265.6666666666667</ele><time>2026-05-04T13:53:56Z</time></trkpt><trkpt lat="43.03683359634825" lon="11.646792827220018"><ele>265.3333333333333</ele><time>2026-05-04T13:53:57Z</time></trkpt><trkpt lat="43.03668504936267" lon="11.646730274713335"><ele>265.0</ele><time>2026-05-04T13:53:58Z</time></trkpt><trkpt lat="43.036538802865145" lon="11.64666999381954"><ele>265.0</ele><time>2026-05-04T13:53:59Z</time></trkpt><trkpt lat="43.03638624834317" lon="11.646600064224163"><ele>265.0</ele><time>2026-05-04T13:54:00Z</time></trkpt><trkpt lat="43.03623333403594" lon="11.646517753184458"><ele>265.0</ele><time>2026-05-04T13:54:01Z</time></trkpt><trkpt lat="43.03608870481521" lon="11.646400903237714"><ele>265.0</ele><time>2026-05-04T13:54:02Z</time></trkpt><trkpt lat="43.03594778447647" lon="11.646294617144537"><ele>265.0</ele><time>2026-05-04T13:54:03Z</time></trkpt><trkpt lat="43.035822365002744" lon="11.646179611597763"><ele>265.0</ele><time>2026-05-04T13:54:04Z</time></trkpt><trkpt lat="43.035688751766614" lon="11.646063816155397"><ele>265.0</ele><time>2026-05-04T13:54:05Z</time></trkpt><trkpt lat="43.035574554384674" lon="11.645929420742645"><ele>265.0</ele><time>2026-05-04T13:54:06Z</time></trkpt><trkpt lat="43.035462034702775" lon="11.6457863240389"><ele>265.0</ele><time>2026-05-04T13:54:07Z</time></trkpt><trkpt lat="43.03534917217621" lon="11.645654177897015"><ele>265.0</ele><time>2026-05-04T13:54:08Z</time></trkpt><trkpt lat="43.035243933542056" lon="11.645533781062218"><ele>265.0</ele><time>2026-05-04T13:54:09Z</time></trkpt><trkpt lat="43.03515177247794" lon="11.645430415794888"><ele>265.0</ele><time>2026-05-04T13:54:10Z</time></trkpt><trkpt lat="43.03507589879379" lon="11.645343130117036"><ele>265.0</ele><time>2026-05-04T13:54:11Z</time></trkpt><trkpt lat="43.03500783509997" lon="11.64526946115964"><ele>265.0</ele><time>2026-05-04T13:54:12Z</time></trkpt><trkpt lat="43.034952957277554" lon="11.64522020336487"><ele>265.0</ele><time>2026-05-04T13:54:13Z</time></trkpt><trkpt lat="43.03488376622932" lon="11.64516586281305"><ele>265.0</ele><time>2026-05-04T13:54:15Z</time></trkpt><trkpt lat="43.034811527929264" lon="11.645319477542861"><ele>265.0</ele><time>2026-05-04T13:54:36Z</time></trkpt><trkpt lat="43.03481518483043" lon="11.645472634691709"><ele>265.0</ele><time>2026-05-04T13:54:37Z</time></trkpt><trkpt lat="43.03480653457504" lon="11.645632781391507"><ele>265.0</ele><time>2026-05-04T13:54:38Z</time></trkpt><trkpt lat="43.03478913969224" lon="11.645813808536634"><ele>265.0</ele><time>2026-05-04T13:54:39Z</time></trkpt><trkpt lat="43.03476679142662" lon="11.646009567030745"><ele>265.0</ele><time>2026-05-04T13:54:40Z</time></trkpt><trkpt lat="43.03474263968791" lon="11.64621627812234"><ele>265.0</ele><time>2026-05-04T13:54:41Z</time></trkpt><trkpt lat="43.034715123972596" lon="11.646436247765863"><ele>265.3333333333333</ele><time>2026-05-04T13:54:42Z</time></trkpt><trkpt lat="43.034686973699856" lon="11.646667446890465"><ele>265.6666666666667</ele><time>2026-05-04T13:54:43Z</time></trkpt><trkpt lat="43.03466005050033" lon="11.64690389216673"><ele>266.0</ele><time>2026-05-04T13:54:44Z</time></trkpt><trkpt lat="43.034630976074695" lon="11.647144578725278"><ele>266.0</ele><time>2026-05-04T13:54:45Z</time></trkpt><trkpt lat="43.034600037389815" lon="11.647391457925503"><ele>266.0</ele><time>2026-05-04T13:54:46Z</time></trkpt><trkpt lat="43.03456745098795" lon="11.647646725908194"><ele>266.0</ele><time>2026-05-04T13:54:47Z</time></trkpt><trkpt lat="43.03453561427838" lon="11.647899675672242"><ele>266.33333333333337</ele><time>2026-05-04T13:54:48Z</time></trkpt><trkpt lat="43.03450213683479" lon="11.648155841223835"><ele>266.6666666666667</ele><time>2026-05-04T13:54:49Z</time></trkpt><trkpt lat="43.034463380206056" lon="11.648453584576917"><ele>267.0</ele><time>2026-05-04T13:54:50Z</time></trkpt><trkpt lat="43.03443226127761" lon="11.648737638132426"><ele>267.3333333333333</ele><time>2026-05-04T13:54:51Z</time></trkpt><trkpt lat="43.03439434735799" lon="11.649030960550938"><ele>267.66666666666663</ele><time>2026-05-04T13:54:51.998Z</time></trkpt><trkpt lat="43.03435531912668" lon="11.64933053481139"><ele>268.0</ele><time>2026-05-04T13:54:52.998Z</time></trkpt><trkpt lat="43.03431728106963" lon="11.649630300975643"><ele>268.0</ele><time>2026-05-04T13:54:53.998Z</time></trkpt><trkpt lat="43.034278829666384" lon="11.649936495463903"><ele>268.0</ele><time>2026-05-04T13:54:54.998Z</time></trkpt><trkpt lat="43.03424296839502" lon="11.650237223623362"><ele>268.0</ele><time>2026-05-04T13:54:55.998Z</time></trkpt><trkpt lat="43.034206973134665" lon="11.650536111740607"><ele>268.0</ele><time>2026-05-04T13:54:56.998Z</time></trkpt><trkpt lat="43.03417002999409" lon="11.650831685580005"><ele>268.0</ele><time>2026-05-04T13:54:57.998Z</time></trkpt><trkpt lat="43.03412431583606" lon="11.65124123615869"><ele>268.0</ele><time>2026-05-04T13:54:58.998Z</time></trkpt><trkpt lat="43.03407934403152" lon="11.651570626679092"><ele>268.0</ele><time>2026-05-04T13:54:59.998Z</time></trkpt><trkpt lat="43.0340363906099" lon="11.651901805982062"><ele>269.5</ele><time>2026-05-04T13:55:00.998Z</time></trkpt><trkpt lat="43.033994730709146" lon="11.65222756024046"><ele>271.0</ele><time>2026-05-04T13:55:01.998Z</time></trkpt><trkpt lat="43.03395276490121" lon="11.65254692569432"><ele>271.3333333333333</ele><time>2026-05-04T13:55:02.998Z</time></trkpt><trkpt lat="43.033911883555966" lon="11.65285781406748"><ele>271.6666666666667</ele><time>2026-05-04T13:55:03.998Z</time></trkpt><trkpt lat="43.033878131353106" lon="11.653142019072945"><ele>272.0</ele><time>2026-05-04T13:55:04.998Z</time></trkpt><trkpt lat="43.03384551389635" lon="11.65341405067409"><ele>272.0</ele><time>2026-05-04T13:55:05.998Z</time></trkpt><trkpt lat="43.03381254440599" lon="11.653694281371406"><ele>272.0</ele><time>2026-05-04T13:55:06.998Z</time></trkpt><trkpt lat="43.03377722316046" lon="11.653972432423547"><ele>272.0</ele><time>2026-05-04T13:55:07.998Z</time></trkpt><trkpt lat="43.03374263439356" lon="11.654256572114377"><ele>272.0</ele><time>2026-05-04T13:55:08.998Z</time></trkpt><trkpt lat="43.03370806374681" lon="11.65454003569865"><ele>272.0</ele><time>2026-05-04T13:55:09.998Z</time></trkpt><trkpt lat="43.033672647408615" lon="11.654816646496354"><ele>272.0</ele><time>2026-05-04T13:55:10.998Z</time></trkpt><trkpt lat="43.03363688443643" lon="11.655093709440864"><ele>272.6666666666667</ele><time>2026-05-04T13:55:11.998Z</time></trkpt><trkpt lat="43.03360475383553" lon="11.65536860357941"><ele>273.3333333333333</ele><time>2026-05-04T13:55:12.998Z</time></trkpt><trkpt lat="43.0335720433354" lon="11.655636922963724"><ele>274.0</ele><time>2026-05-04T13:55:13.999Z</time></trkpt><trkpt lat="43.03354359516142" lon="11.655874923187064"><ele>274.0</ele><time>2026-05-04T13:55:14.999Z</time></trkpt><trkpt lat="43.03351554638203" lon="11.656095532669369"><ele>274.0</ele><time>2026-05-04T13:55:15.999Z</time></trkpt><trkpt lat="43.033487830150314" lon="11.656317541635199"><ele>274.0</ele><time>2026-05-04T13:55:16.999Z</time></trkpt><trkpt lat="43.033462677584986" lon="11.656533489756752"><ele>275.0</ele><time>2026-05-04T13:55:17.999Z</time></trkpt><trkpt lat="43.033437811700594" lon="11.656742427951482"><ele>276.0</ele><time>2026-05-04T13:55:18.999Z</time></trkpt><trkpt lat="43.03341260852058" lon="11.656954111739099"><ele>277.0</ele><time>2026-05-04T13:55:19.999Z</time></trkpt><trkpt lat="43.033384642338795" lon="11.657170912627516"><ele>277.3333333333333</ele><time>2026-05-04T13:55:20.999Z</time></trkpt><trkpt lat="43.03335484232202" lon="11.65738943428579"><ele>277.6666666666667</ele><time>2026-05-04T13:55:21.999Z</time></trkpt><trkpt lat="43.03332489098115" lon="11.65761857706308"><ele>278.0</ele><time>2026-05-04T13:55:22.999Z</time></trkpt><trkpt lat="43.03329857775233" lon="11.657834300062387"><ele>277.0</ele><time>2026-05-04T13:55:23.999Z</time></trkpt><trkpt lat="43.03327304775161" lon="11.658055947669446"><ele>276.0</ele><time>2026-05-04T13:55:24.999Z</time></trkpt><trkpt lat="43.03324880919467" lon="11.658262411012869"><ele>275.0</ele><time>2026-05-04T13:55:25.999Z</time></trkpt><trkpt lat="43.03322488845149" lon="11.658450532595461"><ele>275.5</ele><time>2026-05-04T13:55:26.999Z</time></trkpt><trkpt lat="43.03320097363181" lon="11.65862767417514"><ele>276.0</ele><time>2026-05-04T13:55:27.999Z</time></trkpt><trkpt lat="43.03318120688646" lon="11.658790945963014"><ele>276.5</ele><time>2026-05-04T13:55:28.999Z</time></trkpt><trkpt lat="43.033163516770614" lon="11.658948988626868"><ele>277.0</ele><time>2026-05-04T13:55:29.999Z</time></trkpt><trkpt lat="43.03314416724009" lon="11.659098001209715"><ele>277.0</ele><time>2026-05-04T13:55:30.999Z</time></trkpt><trkpt lat="43.033125537026386" lon="11.659231480528021"><ele>277.0</ele><time>2026-05-04T13:55:31.999Z</time></trkpt><trkpt lat="43.03311003474017" lon="11.659356252262638"><ele>277.0</ele><time>2026-05-04T13:55:32.999Z</time></trkpt><trkpt lat="43.033099316343815" lon="11.659464007548511"><ele>277.0</ele><time>2026-05-04T13:55:33.999Z</time></trkpt><trkpt lat="43.033078472993665" lon="11.659546713607716"><ele>277.0</ele><time>2026-05-04T13:55:34.999Z</time></trkpt><trkpt lat="43.033065994013654" lon="11.659647400546273"><ele>277.0</ele><time>2026-05-04T13:55:36.999Z</time></trkpt><trkpt lat="43.0331770350484" lon="11.659683405286676"><ele>276.8333333333333</ele><time>2026-05-04T13:55:37.999Z</time></trkpt><trkpt lat="43.03324137053958" lon="11.65970099112766"><ele>276.66666666666663</ele><time>2026-05-04T13:55:39.999Z</time></trkpt><trkpt lat="43.03333982041152" lon="11.659729823182985"><ele>276.5</ele><time>2026-05-04T13:55:45.999Z</time></trkpt><trkpt lat="43.03339069944582" lon="11.659832754309113"><ele>276.3333333333333</ele><time>2026-05-04T13:55:46.999Z</time></trkpt><trkpt lat="43.03346827359611" lon="11.6598577060435"><ele>276.1666666666667</ele><time>2026-05-04T13:55:47.999Z</time></trkpt><trkpt lat="43.03355470588616" lon="11.6598847121948"><ele>276.0</ele><time>2026-05-04T13:55:48.999Z</time></trkpt><trkpt lat="43.033651399314294" lon="11.659914663061256"><ele>277.2</ele><time>2026-05-04T13:55:49.999Z</time></trkpt><trkpt lat="43.03374236630839" lon="11.659942794545016"><ele>278.40000000000003</ele><time>2026-05-04T13:55:51Z</time></trkpt><trkpt lat="43.03384405589652" lon="11.65997819073681"><ele>279.6</ele><time>2026-05-04T13:55:52Z</time></trkpt><trkpt lat="43.0339484829072" lon="11.660014901393922"><ele>280.8</ele><time>2026-05-04T13:55:53Z</time></trkpt><trkpt lat="43.034053705938504" lon="11.66005425630007"><ele>282.0</ele><time>2026-05-04T13:55:54Z</time></trkpt><trkpt lat="43.034151431987205" lon="11.660087005705531"><ele>282.8</ele><time>2026-05-04T13:55:55Z</time></trkpt><trkpt lat="43.03425852608928" lon="11.660117159384658"><ele>283.6</ele><time>2026-05-04T13:55:56Z</time></trkpt><trkpt lat="43.03434451365589" lon="11.660143131293577"><ele>284.40000000000003</ele><time>2026-05-04T13:55:57Z</time></trkpt><trkpt lat="43.0344329966833" lon="11.660170514699145"><ele>285.2</ele><time>2026-05-04T13:55:58Z</time></trkpt><trkpt lat="43.03449563322211" lon="11.660202541076831"><ele>286.0</ele><time>2026-05-04T13:55:59Z</time></trkpt><trkpt lat="43.03457451622004" lon="11.660316997963905"><ele>286.0</ele><time>2026-05-04T13:56:01Z</time></trkpt><trkpt lat="43.034580818877124" lon="11.66042057682519"><ele>286.0</ele><time>2026-05-04T13:56:02Z</time></trkpt><trkpt lat="43.034609568119016" lon="11.660516831007019"><ele>286.0</ele><time>2026-05-04T13:56:03Z</time></trkpt><trkpt lat="43.03465783799353" lon="11.660619927613157"><ele>286.0</ele><time>2026-05-04T13:56:04Z</time></trkpt><trkpt lat="43.034666830482294" lon="11.660711896590836"><ele>286.0</ele><time>2026-05-04T13:56:05Z</time></trkpt><trkpt lat="43.03472318605818" lon="11.660838316188384"><ele>286.0</ele><time>2026-05-04T13:56:07Z</time></trkpt><trkpt lat="43.034731915030925" lon="11.66094271088871"><ele>285.5</ele><time>2026-05-04T13:56:09Z</time></trkpt><trkpt lat="43.034605391906176" lon="11.661127149832199"><ele>285.0</ele><time>2026-05-04T13:56:12Z</time></trkpt><trkpt lat="43.03454916491963" lon="11.661251870242847"><ele>284.5</ele><time>2026-05-04T13:56:13Z</time></trkpt><trkpt lat="43.03449565696216" lon="11.661403532425544"><ele>284.0</ele><time>2026-05-04T13:56:14Z</time></trkpt><trkpt lat="43.03441217375243" lon="11.661551785933225"><ele>284.0</ele><time>2026-05-04T13:56:15Z</time></trkpt><trkpt lat="43.03434635767704" lon="11.661729691375216"><ele>284.0</ele><time>2026-05-04T13:56:16Z</time></trkpt><trkpt lat="43.034249757780266" lon="11.661902596173551"><ele>284.0</ele><time>2026-05-04T13:56:17Z</time></trkpt><trkpt lat="43.03416369474225" lon="11.662087793244707"><ele>282.6666666666667</ele><time>2026-05-04T13:56:18Z</time></trkpt><trkpt lat="43.034091118002756" lon="11.662286611856773"><ele>281.3333333333333</ele><time>2026-05-04T13:56:19Z</time></trkpt><trkpt lat="43.03400300926414" lon="11.662476043700053"><ele>280.0</ele><time>2026-05-04T13:56:20Z</time></trkpt><trkpt lat="43.03391479895185" lon="11.662674184056996"><ele>280.66666666666663</ele><time>2026-05-04T13:56:21Z</time></trkpt><trkpt lat="43.03382796864099" lon="11.662864508914332"><ele>281.3333333333333</ele><time>2026-05-04T13:56:22Z</time></trkpt><trkpt lat="43.033736225780395" lon="11.663053775485407"><ele>282.0</ele><time>2026-05-04T13:56:23Z</time></trkpt><trkpt lat="43.033647533810345" lon="11.66324031466437"><ele>282.0</ele><time>2026-05-04T13:56:24Z</time></trkpt><trkpt lat="43.0335569542475" lon="11.663436533666736"><ele>282.0</ele><time>2026-05-04T13:56:25Z</time></trkpt><trkpt lat="43.03347450157341" lon="11.663616534574398"><ele>282.0</ele><time>2026-05-04T13:56:26Z</time></trkpt><trkpt lat="43.03339400489674" lon="11.663792527151648"><ele>282.0</ele><time>2026-05-04T13:56:27Z</time></trkpt><trkpt lat="43.03331091848247" lon="11.663970463819206"><ele>282.0</ele><time>2026-05-04T13:56:28Z</time></trkpt><trkpt lat="43.03323713488178" lon="11.66412966769445"><ele>282.0</ele><time>2026-05-04T13:56:29Z</time></trkpt><trkpt lat="43.03316513558361" lon="11.664288560152437"><ele>282.0</ele><time>2026-05-04T13:56:30Z</time></trkpt><trkpt lat="43.033075146301286" lon="11.664437158870738"><ele>282.3333333333333</ele><time>2026-05-04T13:56:31Z</time></trkpt><trkpt lat="43.032998806950914" lon="11.664594945951198"><ele>282.66666666666663</ele><time>2026-05-04T13:56:32Z</time></trkpt><trkpt lat="43.03291212908904" lon="11.664780653952324"><ele>283.0</ele><time>2026-05-04T13:56:33Z</time></trkpt><trkpt lat="43.03283312519625" lon="11.664983972102432"><ele>283.0</ele><time>2026-05-04T13:56:34Z</time></trkpt><trkpt lat="43.03276382332667" lon="11.665141038802046"><ele>283.0</ele><time>2026-05-04T13:56:35Z</time></trkpt><trkpt lat="43.032696099922504" lon="11.665290780572494"><ele>283.0</ele><time>2026-05-04T13:56:36Z</time></trkpt><trkpt lat="43.03262718919266" lon="11.665438065190235"><ele>283.0</ele><time>2026-05-04T13:56:37Z</time></trkpt><trkpt lat="43.03256537419669" lon="11.665579737653912"><ele>282.6</ele><time>2026-05-04T13:56:38Z</time></trkpt><trkpt lat="43.03251492652864" lon="11.665697528717452"><ele>282.20000000000005</ele><time>2026-05-04T13:56:39Z</time></trkpt><trkpt lat="43.03245087326418" lon="11.665809930325548"><ele>281.8</ele><time>2026-05-04T13:56:40Z</time></trkpt><trkpt lat="43.032400187490836" lon="11.665922189286414"><ele>281.40000000000003</ele><time>2026-05-04T13:56:41Z</time></trkpt><trkpt lat="43.03236679263232" lon="11.665997935729642"><ele>281.0</ele><time>2026-05-04T13:56:42Z</time></trkpt><trkpt lat="43.032319056095005" lon="11.666101290660144"><ele>280.75</ele><time>2026-05-04T13:56:44Z</time></trkpt><trkpt lat="43.03225829449069" lon="11.666198047770623"><ele>280.5</ele><time>2026-05-04T13:56:47Z</time></trkpt><trkpt lat="43.03220802264325" lon="11.666317193349089"><ele>280.25</ele><time>2026-05-04T13:56:48Z</time></trkpt><trkpt lat="43.032204355558854" lon="11.666526912657734"><ele>280.0</ele><time>2026-05-04T13:56:49Z</time></trkpt><trkpt lat="43.03217041418583" lon="11.666736201040205"><ele>281.66666666666663</ele><time>2026-05-04T13:56:50Z</time></trkpt><trkpt lat="43.03213553323376" lon="11.666950067271168"><ele>283.3333333333333</ele><time>2026-05-04T13:56:51Z</time></trkpt><trkpt lat="43.0320977159451" lon="11.667155537954763"><ele>285.0</ele><time>2026-05-04T13:56:52Z</time></trkpt><trkpt lat="43.03206157252195" lon="11.66735459729354"><ele>285.0</ele><time>2026-05-04T13:56:53Z</time></trkpt><trkpt lat="43.03202783451496" lon="11.667546773111527"><ele>285.0</ele><time>2026-05-04T13:56:54Z</time></trkpt><trkpt lat="43.03199556217239" lon="11.667744772905227"><ele>285.0</ele><time>2026-05-04T13:56:55.001Z</time></trkpt><trkpt lat="43.03196329648356" lon="11.667942593276585"><ele>285.0</ele><time>2026-05-04T13:56:56.001Z</time></trkpt><trkpt lat="43.03192851779242" lon="11.668137955877198"><ele>284.5</ele><time>2026-05-04T13:56:57.001Z</time></trkpt><trkpt lat="43.03189740848558" lon="11.668319700871052"><ele>284.0</ele><time>2026-05-04T13:56:57.998Z</time></trkpt><trkpt lat="43.031866078686726" lon="11.668506344907009"><ele>283.5</ele><time>2026-05-04T13:56:58.998Z</time></trkpt><trkpt lat="43.03183557349241" lon="11.668700773626396"><ele>283.0</ele><time>2026-05-04T13:56:59.998Z</time></trkpt><trkpt lat="43.0318031584256" lon="11.668897591093458"><ele>283.0</ele><time>2026-05-04T13:57:00.998Z</time></trkpt><trkpt lat="43.03177423377645" lon="11.669102271222616"><ele>283.0</ele><time>2026-05-04T13:57:01.998Z</time></trkpt><trkpt lat="43.03174233812968" lon="11.669308792953355"><ele>283.0</ele><time>2026-05-04T13:57:02.998Z</time></trkpt><trkpt lat="43.03170431849091" lon="11.669522733414636"><ele>283.0</ele><time>2026-05-04T13:57:03.998Z</time></trkpt><trkpt lat="43.03166360279557" lon="11.669743888788165"><ele>283.0</ele><time>2026-05-04T13:57:04.998Z</time></trkpt><trkpt lat="43.03162545649882" lon="11.669968935297954"><ele>283.0</ele><time>2026-05-04T13:57:05.998Z</time></trkpt><trkpt lat="43.031572758662406" lon="11.670205085685227"><ele>281.3333333333333</ele><time>2026-05-04T13:57:06.998Z</time></trkpt><trkpt lat="43.03153002730699" lon="11.67045709883463"><ele>279.6666666666667</ele><time>2026-05-04T13:57:07.998Z</time></trkpt><trkpt lat="43.03148414690252" lon="11.670727684029925"><ele>278.0</ele><time>2026-05-04T13:57:08.998Z</time></trkpt><trkpt lat="43.031434987844925" lon="11.67101703514553"><ele>278.33333333333337</ele><time>2026-05-04T13:57:09.998Z</time></trkpt><trkpt lat="43.03138761765752" lon="11.671291001296057"><ele>278.6666666666667</ele><time>2026-05-04T13:57:10.999Z</time></trkpt><trkpt lat="43.031337067524426" lon="11.671583358583213"><ele>279.0</ele><time>2026-05-04T13:57:11.999Z</time></trkpt><trkpt lat="43.03128604234784" lon="11.671878463220754"><ele>278.3333333333333</ele><time>2026-05-04T13:57:12.999Z</time></trkpt><trkpt lat="43.031233546534565" lon="11.672181112937562"><ele>277.66666666666663</ele><time>2026-05-04T13:57:13.999Z</time></trkpt><trkpt lat="43.031197450456915" lon="11.672468824410418"><ele>277.0</ele><time>2026-05-04T13:57:14.999Z</time></trkpt><trkpt lat="43.03115054525834" lon="11.672727958411185"><ele>276.66666666666663</ele><time>2026-05-04T13:57:15.999Z</time></trkpt><trkpt lat="43.03110718819306" lon="11.672977718103501"><ele>276.3333333333333</ele><time>2026-05-04T13:57:16.999Z</time></trkpt><trkpt lat="43.03107488145471" lon="11.67317839560745"><ele>276.0</ele><time>2026-05-04T13:57:17.999Z</time></trkpt><trkpt lat="43.031044211529654" lon="11.673360559659558"><ele>276.0</ele><time>2026-05-04T13:57:18.999Z</time></trkpt><trkpt lat="43.03101448752897" lon="11.67353127886642"><ele>276.0</ele><time>2026-05-04T13:57:19.999Z</time></trkpt><trkpt lat="43.030986983866185" lon="11.67369149633913"><ele>276.0</ele><time>2026-05-04T13:57:20.999Z</time></trkpt><trkpt lat="43.03094455567097" lon="11.673847098843797"><ele>276.0</ele><time>2026-05-04T13:57:21.999Z</time></trkpt><trkpt lat="43.03091430584425" lon="11.674014810390682"><ele>276.0</ele><time>2026-05-04T13:57:22.999Z</time></trkpt><trkpt lat="43.030882472752296" lon="11.674185479485852"><ele>276.0</ele><time>2026-05-04T13:57:23.999Z</time></trkpt><trkpt lat="43.0308630438236" lon="11.674355966260718"><ele>276.0</ele><time>2026-05-04T13:57:24.999Z</time></trkpt><trkpt lat="43.03081535655578" lon="11.67452416372263"><ele>276.0</ele><time>2026-05-04T13:57:25.999Z</time></trkpt><trkpt lat="43.03074315906791" lon="11.674673141975136"><ele>276.25</ele><time>2026-05-04T13:57:26.999Z</time></trkpt><trkpt lat="43.03068951999877" lon="11.674818939906519"><ele>276.5</ele><time>2026-05-04T13:57:27.999Z</time></trkpt><trkpt lat="43.030649197625586" lon="11.674970680837868"><ele>276.75</ele><time>2026-05-04T13:57:28.999Z</time></trkpt><trkpt lat="43.03059981509855" lon="11.675106315404001"><ele>277.0</ele><time>2026-05-04T13:57:29.999Z</time></trkpt><trkpt lat="43.03053278883915" lon="11.675236169477916"><ele>276.8</ele><time>2026-05-04T13:57:30.999Z</time></trkpt><trkpt lat="43.03048010214269" lon="11.675372969542995"><ele>276.6</ele><time>2026-05-04T13:57:31.999Z</time></trkpt><trkpt lat="43.030429262789255" lon="11.67550645464676"><ele>276.40000000000003</ele><time>2026-05-04T13:57:32.999Z</time></trkpt><trkpt lat="43.03038973587853" lon="11.675656255770095"><ele>276.2</ele><time>2026-05-04T13:57:33.999Z</time></trkpt><trkpt lat="43.03033943578723" lon="11.675785083009455"><ele>276.0</ele><time>2026-05-04T13:57:34.999Z</time></trkpt><trkpt lat="43.03028856412346" lon="11.675917926873217"><ele>276.0</ele><time>2026-05-04T13:57:36Z</time></trkpt><trkpt lat="43.030237744491" lon="11.676059631958209"><ele>276.0</ele><time>2026-05-04T13:57:37Z</time></trkpt><trkpt lat="43.030181835240974" lon="11.676204447909802"><ele>276.0</ele><time>2026-05-04T13:57:38Z</time></trkpt><trkpt lat="43.030130238806905" lon="11.676352036804534"><ele>276.0</ele><time>2026-05-04T13:57:39Z</time></trkpt><trkpt lat="43.030083238358415" lon="11.676506503138992"><ele>276.25</ele><time>2026-05-04T13:57:40Z</time></trkpt><trkpt lat="43.03004096940051" lon="11.676668635804058"><ele>276.5</ele><time>2026-05-04T13:57:41Z</time></trkpt><trkpt lat="43.03000133809881" lon="11.676834206829994"><ele>276.75</ele><time>2026-05-04T13:57:42Z</time></trkpt><trkpt lat="43.02996689411596" lon="11.676991910522032"><ele>277.0</ele><time>2026-05-04T13:57:43Z</time></trkpt><trkpt lat="43.0299355528233" lon="11.677151201240642"><ele>276.75</ele><time>2026-05-04T13:57:44Z</time></trkpt><trkpt lat="43.02990528498099" lon="11.677309610176366"><ele>276.5</ele><time>2026-05-04T13:57:45Z</time></trkpt><trkpt lat="43.029871970813865" lon="11.677472861981968"><ele>276.25</ele><time>2026-05-04T13:57:46Z</time></trkpt><trkpt lat="43.02983598773457" lon="11.677642560846984"><ele>276.0</ele><time>2026-05-04T13:57:47Z</time></trkpt><trkpt lat="43.0297990523196" lon="11.677817916541624"><ele>276.0</ele><time>2026-05-04T13:57:48Z</time></trkpt><trkpt lat="43.029762751881215" lon="11.67799706361965"><ele>276.0</ele><time>2026-05-04T13:57:49Z</time></trkpt><trkpt lat="43.02972443047736" lon="11.678180401302587"><ele>276.0</ele><time>2026-05-04T13:57:50Z</time></trkpt><trkpt lat="43.02968141789599" lon="11.678376753023665"><ele>276.0</ele><time>2026-05-04T13:57:51Z</time></trkpt><trkpt lat="43.02964108388056" lon="11.67857926173935"><ele>276.3333333333333</ele><time>2026-05-04T13:57:52Z</time></trkpt><trkpt lat="43.02959630877401" lon="11.678793818583683"><ele>276.66666666666663</ele><time>2026-05-04T13:57:53Z</time></trkpt><trkpt lat="43.02955093560205" lon="11.679021840504015"><ele>277.0</ele><time>2026-05-04T13:57:54Z</time></trkpt><trkpt lat="43.02950929361476" lon="11.679265061326365"><ele>277.3333333333333</ele><time>2026-05-04T13:57:55Z</time></trkpt><trkpt lat="43.02944826887927" lon="11.679514226555796"><ele>277.6666666666667</ele><time>2026-05-04T13:57:56Z</time></trkpt><trkpt lat="43.029396673012045" lon="11.679769603831643"><ele>278.0</ele><time>2026-05-04T13:57:57Z</time></trkpt><trkpt lat="43.02934036824379" lon="11.68004828794016"><ele>277.6666666666667</ele><time>2026-05-04T13:57:58Z</time></trkpt><trkpt lat="43.029282822577564" lon="11.680333114122414"><ele>277.3333333333333</ele><time>2026-05-04T13:57:59Z</time></trkpt><trkpt lat="43.029232978391605" lon="11.680637002627817"><ele>277.0</ele><time>2026-05-04T13:58:00Z</time></trkpt><trkpt lat="43.02916166118012" lon="11.680945967683929"><ele>278.0</ele><time>2026-05-04T13:58:01Z</time></trkpt><trkpt lat="43.02908937903968" lon="11.681262127315776"><ele>279.0</ele><time>2026-05-04T13:58:02Z</time></trkpt><trkpt lat="43.029012927685926" lon="11.681593941082873"><ele>279.0</ele><time>2026-05-04T13:58:03Z</time></trkpt><trkpt lat="43.028967729697364" lon="11.681886251685762"><ele>279.0</ele><time>2026-05-04T13:58:04Z</time></trkpt><trkpt lat="43.02890581733197" lon="11.682205999095363"><ele>279.5</ele><time>2026-05-04T13:58:05Z</time></trkpt><trkpt lat="43.02884283844797" lon="11.682531395004862"><ele>280.0</ele><time>2026-05-04T13:58:06Z</time></trkpt><trkpt lat="43.02877858667042" lon="11.682861622733318"><ele>280.5</ele><time>2026-05-04T13:58:07Z</time></trkpt><trkpt lat="43.02871482467036" lon="11.683195760518126"><ele>281.0</ele><time>2026-05-04T13:58:08Z</time></trkpt><trkpt lat="43.028648385367546" lon="11.683529197297391"><ele>281.5</ele><time>2026-05-04T13:58:09Z</time></trkpt><trkpt lat="43.02857826871832" lon="11.683872711173837"><ele>282.0</ele><time>2026-05-04T13:58:10Z</time></trkpt><trkpt lat="43.02851050052444" lon="11.684213753636106"><ele>282.5</ele><time>2026-05-04T13:58:11Z</time></trkpt><trkpt lat="43.02844089656445" lon="11.684557660653594"><ele>283.0</ele><time>2026-05-04T13:58:12Z</time></trkpt><trkpt lat="43.02837152670144" lon="11.68490433145404"><ele>282.0</ele><time>2026-05-04T13:58:13Z</time></trkpt><trkpt lat="43.02829920124787" lon="11.685254983836591"><ele>281.0</ele><time>2026-05-04T13:58:14Z</time></trkpt><trkpt lat="43.02822741013466" lon="11.685605386519793"><ele>280.5</ele><time>2026-05-04T13:58:15Z</time></trkpt><trkpt lat="43.02816026842829" lon="11.685939681523758"><ele>280.0</ele><time>2026-05-04T13:58:16Z</time></trkpt><trkpt lat="43.02810043952074" lon="11.68623801348981"><ele>280.0</ele><time>2026-05-04T13:58:17Z</time></trkpt><trkpt lat="43.028047882952784" lon="11.68650058933894"><ele>280.0</ele><time>2026-05-04T13:58:18Z</time></trkpt><trkpt lat="43.0280022515942" lon="11.6867362734425"><ele>280.0</ele><time>2026-05-04T13:58:19Z</time></trkpt><trkpt lat="43.02796063176095" lon="11.686953986817269"><ele>280.3333333333333</ele><time>2026-05-04T13:58:20Z</time></trkpt><trkpt lat="43.02791735837535" lon="11.687175051536343"><ele>280.6666666666667</ele><time>2026-05-04T13:58:21Z</time></trkpt><trkpt lat="43.02787031103082" lon="11.687421498470577"><ele>281.0</ele><time>2026-05-04T13:58:22Z</time></trkpt><trkpt lat="43.02781883136252" lon="11.687686280524849"><ele>281.0</ele><time>2026-05-04T13:58:23Z</time></trkpt><trkpt lat="43.02776261027775" lon="11.687961980959587"><ele>281.0</ele><time>2026-05-04T13:58:24Z</time></trkpt><trkpt lat="43.027704273709745" lon="11.688246505538968"><ele>281.0</ele><time>2026-05-04T13:58:25.001Z</time></trkpt><trkpt lat="43.027642951511154" lon="11.688542110829507"><ele>280.5</ele><time>2026-05-04T13:58:26.001Z</time></trkpt><trkpt lat="43.02757644779229" lon="11.68884407451045"><ele>280.0</ele><time>2026-05-04T13:58:27.001Z</time></trkpt><trkpt lat="43.027498832671775" lon="11.689144368777873"><ele>280.0</ele><time>2026-05-04T13:58:28.001Z</time></trkpt><trkpt lat="43.027386645976605" lon="11.689430020224515"><ele>280.0</ele><time>2026-05-04T13:58:29.001Z</time></trkpt><trkpt lat="43.02727784958373" lon="11.689724599520925"><ele>280.0</ele><time>2026-05-04T13:58:30.001Z</time></trkpt><trkpt lat="43.02718325842472" lon="11.690025736012176"><ele>280.0</ele><time>2026-05-04T13:58:31.001Z</time></trkpt><trkpt lat="43.02706957722876" lon="11.690322275847441"><ele>280.3333333333333</ele><time>2026-05-04T13:58:32.001Z</time></trkpt><trkpt lat="43.02696352290901" lon="11.690604552980636"><ele>280.6666666666667</ele><time>2026-05-04T13:58:33.001Z</time></trkpt><trkpt lat="43.02687360506823" lon="11.690844768508054"><ele>281.0</ele><time>2026-05-04T13:58:34.001Z</time></trkpt><trkpt lat="43.02679664331922" lon="11.691048394911663"><ele>281.40000000000003</ele><time>2026-05-04T13:58:35.001Z</time></trkpt><trkpt lat="43.026730118353534" lon="11.691222686967281"><ele>281.8</ele><time>2026-05-04T13:58:36.001Z</time></trkpt><trkpt lat="43.02667414267055" lon="11.69135235692735"><ele>282.20000000000005</ele><time>2026-05-04T13:58:37.001Z</time></trkpt><trkpt lat="43.02662730501511" lon="11.691455357540766"><ele>282.6</ele><time>2026-05-04T13:58:38.001Z</time></trkpt><trkpt lat="43.02658403465275" lon="11.691564176898316"><ele>283.0</ele><time>2026-05-04T13:58:40.001Z</time></trkpt><trkpt lat="43.026538144331546" lon="11.691706447970772"><ele>282.6</ele><time>2026-05-04T13:58:42.001Z</time></trkpt><trkpt lat="43.02650623913123" lon="11.691799552492272"><ele>282.20000000000005</ele><time>2026-05-04T13:58:43.001Z</time></trkpt><trkpt lat="43.026465317527425" lon="11.691912436055787"><ele>281.8</ele><time>2026-05-04T13:58:44.001Z</time></trkpt><trkpt lat="43.02641770400937" lon="11.692046636502797"><ele>281.40000000000003</ele><time>2026-05-04T13:58:45.001Z</time></trkpt><trkpt lat="43.02636750838695" lon="11.692192354470002"><ele>281.0</ele><time>2026-05-04T13:58:46.001Z</time></trkpt><trkpt lat="43.02630544530997" lon="11.692365369402916"><ele>281.0</ele><time>2026-05-04T13:58:47.001Z</time></trkpt><trkpt lat="43.02623440962873" lon="11.692558577283226"><ele>281.0</ele><time>2026-05-04T13:58:48.001Z</time></trkpt><trkpt lat="43.026190002215785" lon="11.69268402100902"><ele>281.0</ele><time>2026-05-04T13:58:49.001Z</time></trkpt><trkpt lat="43.02610874183606" lon="11.69288755694584"><ele>281.0</ele><time>2026-05-04T13:58:50.001Z</time></trkpt><trkpt lat="43.026031859696545" lon="11.693097726509874"><ele>282.0</ele><time>2026-05-04T13:58:51.001Z</time></trkpt><trkpt lat="43.0259486570217" lon="11.693318670170553"><ele>283.0</ele><time>2026-05-04T13:58:52.001Z</time></trkpt><trkpt lat="43.02586434342327" lon="11.693549642456881"><ele>284.0</ele><time>2026-05-04T13:58:53.001Z</time></trkpt><trkpt lat="43.02577834118875" lon="11.693792874823881"><ele>284.0</ele><time>2026-05-04T13:58:54.001Z</time></trkpt><trkpt lat="43.02568541281707" lon="11.694038977021322"><ele>284.0</ele><time>2026-05-04T13:58:55.001Z</time></trkpt><trkpt lat="43.025589947164974" lon="11.694291460615567"><ele>284.0</ele><time>2026-05-04T13:58:56.001Z</time></trkpt><trkpt lat="43.02549501136834" lon="11.694556555978052"><ele>285.0</ele><time>2026-05-04T13:58:57.001Z</time></trkpt><trkpt lat="43.02539369024866" lon="11.69482702094862"><ele>286.0</ele><time>2026-05-04T13:58:58.001Z</time></trkpt><trkpt lat="43.025289041972336" lon="11.695099528161235"><ele>287.0</ele><time>2026-05-04T13:58:59.001Z</time></trkpt><trkpt lat="43.02518412360855" lon="11.695378331081887"><ele>287.0</ele><time>2026-05-04T13:59:00.001Z</time></trkpt><trkpt lat="43.025076367386276" lon="11.695656418081818"><ele>287.0</ele><time>2026-05-04T13:59:01.001Z</time></trkpt><trkpt lat="43.024969876773305" lon="11.695947758798917"><ele>287.0</ele><time>2026-05-04T13:59:02.001Z</time></trkpt><trkpt lat="43.02486187738305" lon="11.696239480509252"><ele>287.0</ele><time>2026-05-04T13:59:03.001Z</time></trkpt><trkpt lat="43.02475093573799" lon="11.69653664695337"><ele>287.0</ele><time>2026-05-04T13:59:03.999Z</time></trkpt><trkpt lat="43.024649359479966" lon="11.696824851291703"><ele>287.0</ele><time>2026-05-04T13:59:04.999Z</time></trkpt><trkpt lat="43.02455711501896" lon="11.697110942595758"><ele>286.6666666666667</ele><time>2026-05-04T13:59:05.999Z</time></trkpt><trkpt lat="43.02447299979712" lon="11.697390929803113"><ele>286.3333333333333</ele><time>2026-05-04T13:59:06.999Z</time></trkpt><trkpt lat="43.02440333201642" lon="11.69766919230159"><ele>286.0</ele><time>2026-05-04T13:59:07.999Z</time></trkpt><trkpt lat="43.02434061089236" lon="11.697957343158896"><ele>286.0</ele><time>2026-05-04T13:59:08.999Z</time></trkpt><trkpt lat="43.02428546579985" lon="11.69825082434166"><ele>286.0</ele><time>2026-05-04T13:59:09.999Z</time></trkpt><trkpt lat="43.024244463412856" lon="11.698546526998093"><ele>286.0</ele><time>2026-05-04T13:59:10.999Z</time></trkpt><trkpt lat="43.02422112302668" lon="11.698833594885832"><ele>286.3333333333333</ele><time>2026-05-04T13:59:11.999Z</time></trkpt><trkpt lat="43.02421088459684" lon="11.699085485022039"><ele>286.6666666666667</ele><time>2026-05-04T13:59:12.999Z</time></trkpt><trkpt lat="43.02419800796647" lon="11.699322364737894"><ele>287.0</ele><time>2026-05-04T13:59:13.999Z</time></trkpt><trkpt lat="43.024193140146366" lon="11.699562336784236"><ele>287.0</ele><time>2026-05-04T13:59:14.999Z</time></trkpt><trkpt lat="43.024188305066566" lon="11.699804903171787"><ele>287.0</ele><time>2026-05-04T13:59:15.999Z</time></trkpt><trkpt lat="43.02418699323899" lon="11.700046565014796"><ele>287.0</ele><time>2026-05-04T13:59:16.999Z</time></trkpt><trkpt lat="43.024186139532375" lon="11.700291866245815"><ele>287.0</ele><time>2026-05-04T13:59:17.999Z</time></trkpt><trkpt lat="43.024184885672504" lon="11.70054556216409"><ele>287.0</ele><time>2026-05-04T13:59:18.999Z</time></trkpt><trkpt lat="43.02418011596136" lon="11.700807956101961"><ele>287.0</ele><time>2026-05-04T13:59:19.999Z</time></trkpt><trkpt lat="43.02417589179223" lon="11.701079683722446"><ele>287.33333333333337</ele><time>2026-05-04T13:59:20.999Z</time></trkpt><trkpt lat="43.024172422888974" lon="11.701356910220797"><ele>287.6666666666667</ele><time>2026-05-04T13:59:22Z</time></trkpt><trkpt lat="43.0241680389748" lon="11.701638198841078"><ele>288.0</ele><time>2026-05-04T13:59:23Z</time></trkpt><trkpt lat="43.02416253743805" lon="11.70192238754695"><ele>288.0</ele><time>2026-05-04T13:59:24Z</time></trkpt><trkpt lat="43.02415550765641" lon="11.702216960709867"><ele>288.0</ele><time>2026-05-04T13:59:25Z</time></trkpt><trkpt lat="43.02412078273847" lon="11.702511263309313"><ele>288.0</ele><time>2026-05-04T13:59:26Z</time></trkpt><trkpt lat="43.02410653979615" lon="11.702800972323733"><ele>286.3333333333333</ele><time>2026-05-04T13:59:27Z</time></trkpt><trkpt lat="43.024066739383954" lon="11.70309101141308"><ele>284.66666666666663</ele><time>2026-05-04T13:59:28Z</time></trkpt><trkpt lat="43.02402415052431" lon="11.703394145766087"><ele>283.0</ele><time>2026-05-04T13:59:29Z</time></trkpt><trkpt lat="43.0239838276132" lon="11.703690187328728"><ele>282.5</ele><time>2026-05-04T13:59:30Z</time></trkpt><trkpt lat="43.023947970052184" lon="11.703995547973097"><ele>282.0</ele><time>2026-05-04T13:59:31Z</time></trkpt><trkpt lat="43.023912076938785" lon="11.704305178123445"><ele>283.0</ele><time>2026-05-04T13:59:32Z</time></trkpt><trkpt lat="43.02387520712144" lon="11.704608403031626"><ele>284.0</ele><time>2026-05-04T13:59:33Z</time></trkpt><trkpt lat="43.02383606639133" lon="11.704926570699028"><ele>284.0</ele><time>2026-05-04T13:59:34Z</time></trkpt><trkpt lat="43.02379464539427" lon="11.705238594947811"><ele>284.0</ele><time>2026-05-04T13:59:35Z</time></trkpt><trkpt lat="43.0237552210774" lon="11.705563972829669"><ele>285.5</ele><time>2026-05-04T13:59:36Z</time></trkpt><trkpt lat="43.023711673148824" lon="11.705891272742516"><ele>287.0</ele><time>2026-05-04T13:59:37Z</time></trkpt><trkpt lat="43.023665462229694" lon="11.706222889450329"><ele>287.5</ele><time>2026-05-04T13:59:38Z</time></trkpt><trkpt lat="43.023628067499835" lon="11.706555720981322"><ele>288.0</ele><time>2026-05-04T13:59:39Z</time></trkpt><trkpt lat="43.023591652335654" lon="11.706891881641797"><ele>288.5</ele><time>2026-05-04T13:59:40Z</time></trkpt><trkpt lat="43.02356947674781" lon="11.707236808735296"><ele>289.0</ele><time>2026-05-04T13:59:41Z</time></trkpt><trkpt lat="43.023563612415195" lon="11.707586252694696"><ele>288.5</ele><time>2026-05-04T13:59:42Z</time></trkpt><trkpt lat="43.02357148569376" lon="11.707935651092786"><ele>288.0</ele><time>2026-05-04T13:59:43Z</time></trkpt><trkpt lat="43.02359524720447" lon="11.70828187872716"><ele>288.0</ele><time>2026-05-04T13:59:44Z</time></trkpt><trkpt lat="43.0236450937403" lon="11.708621414124321"><ele>288.0</ele><time>2026-05-04T13:59:45Z</time></trkpt><trkpt lat="43.023719901044515" lon="11.708954812255724"><ele>288.0</ele><time>2026-05-04T13:59:46Z</time></trkpt><trkpt lat="43.02380305172691" lon="11.709282388464352"><ele>288.0</ele><time>2026-05-04T13:59:47Z</time></trkpt><trkpt lat="43.02384823051586" lon="11.709604850467104"><ele>288.0</ele><time>2026-05-04T13:59:48Z</time></trkpt><trkpt lat="43.02388887569833" lon="11.709942146094138"><ele>288.0</ele><time>2026-05-04T13:59:49Z</time></trkpt><trkpt lat="43.023913531908754" lon="11.710277535662057"><ele>288.5</ele><time>2026-05-04T13:59:50Z</time></trkpt><trkpt lat="43.02394926145187" lon="11.710620912136658"><ele>289.0</ele><time>2026-05-04T13:59:51Z</time></trkpt><trkpt lat="43.02396726020844" lon="11.710965807280783"><ele>288.5</ele><time>2026-05-04T13:59:52Z</time></trkpt><trkpt lat="43.023986480746714" lon="11.711306796403115"><ele>288.0</ele><time>2026-05-04T13:59:53Z</time></trkpt><trkpt lat="43.024006098845135" lon="11.71164864054465"><ele>289.0</ele><time>2026-05-04T13:59:54Z</time></trkpt><trkpt lat="43.02402591833037" lon="11.711984949404387"><ele>290.0</ele><time>2026-05-04T13:59:55Z</time></trkpt><trkpt lat="43.02404030642826" lon="11.712335174223984"><ele>290.0</ele><time>2026-05-04T13:59:56Z</time></trkpt><trkpt lat="43.024045149215056" lon="11.712681001944116"><ele>290.0</ele><time>2026-05-04T13:59:57Z</time></trkpt><trkpt lat="43.024038730541776" lon="11.713025112888511"><ele>290.5</ele><time>2026-05-04T13:59:58Z</time></trkpt><trkpt lat="43.02401829576063" lon="11.713372854014231"><ele>291.0</ele><time>2026-05-04T13:59:59Z</time></trkpt><trkpt lat="43.0239940056896" lon="11.713717970238815"><ele>292.0</ele><time>2026-05-04T14:00:00Z</time></trkpt><trkpt lat="43.023973841739355" lon="11.714039868161137"><ele>293.0</ele><time>2026-05-04T14:00:01Z</time></trkpt><trkpt lat="43.02395720992756" lon="11.714339433178576"><ele>292.6666666666667</ele><time>2026-05-04T14:00:02.001Z</time></trkpt><trkpt lat="43.023940682019905" lon="11.71462806328951"><ele>292.3333333333333</ele><time>2026-05-04T14:00:03.001Z</time></trkpt><trkpt lat="43.02392664604037" lon="11.714880370622398"><ele>292.0</ele><time>2026-05-04T14:00:04.001Z</time></trkpt><trkpt lat="43.02391314200985" lon="11.715110707179287"><ele>292.25</ele><time>2026-05-04T14:00:05.001Z</time></trkpt><trkpt lat="43.02390195170538" lon="11.715307424525262"><ele>292.5</ele><time>2026-05-04T14:00:06.001Z</time></trkpt><trkpt lat="43.023892929672336" lon="11.715482440354036"><ele>292.75</ele><time>2026-05-04T14:00:07.001Z</time></trkpt><trkpt lat="43.02388469372291" lon="11.715643857187391"><ele>293.0</ele><time>2026-05-04T14:00:08.001Z</time></trkpt><trkpt lat="43.02387611400943" lon="11.715775729024525"><ele>293.0</ele><time>2026-05-04T14:00:09.001Z</time></trkpt><trkpt lat="43.02383679720067" lon="11.715894874298785"><ele>293.0</ele><time>2026-05-04T14:00:11.001Z</time></trkpt><trkpt lat="43.023754283740416" lon="11.715891101113105"><ele>293.0</ele><time>2026-05-04T14:00:13.001Z</time></trkpt><trkpt lat="43.02366130928964" lon="11.7158733771787"><ele>293.0</ele><time>2026-05-04T14:00:15.001Z</time></trkpt><trkpt lat="43.023597352078085" lon="11.71586830795926"><ele>293.0</ele><time>2026-05-04T14:00:16.001Z</time></trkpt><trkpt lat="43.023486108557215" lon="11.715843424061541"><ele>293.0</ele><time>2026-05-04T14:00:18.001Z</time></trkpt><trkpt lat="43.023408974997245" lon="11.715825090163532"><ele>293.0</ele><time>2026-05-04T14:00:19.001Z</time></trkpt><trkpt lat="43.02331990406565" lon="11.715808153279827"><ele>293.0</ele><time>2026-05-04T14:00:20.001Z</time></trkpt><trkpt lat="43.023236798920905" lon="11.715790596659025"><ele>293.0</ele><time>2026-05-04T14:00:21.001Z</time></trkpt><trkpt lat="43.023161399217436" lon="11.715764423481165"><ele>293.0</ele><time>2026-05-04T14:00:22.001Z</time></trkpt><trkpt lat="43.02307053896699" lon="11.715730825868055"><ele>293.0</ele><time>2026-05-04T14:00:23.001Z</time></trkpt><trkpt lat="43.022989160309066" lon="11.715703282408874"><ele>293.0</ele><time>2026-05-04T14:00:24.001Z</time></trkpt><trkpt lat="43.022915827131655" lon="11.715680914760602"><ele>292.83333333333337</ele><time>2026-05-04T14:00:25.001Z</time></trkpt><trkpt lat="43.0228386001256" lon="11.715651891651536"><ele>292.6666666666667</ele><time>2026-05-04T14:00:26.001Z</time></trkpt><trkpt lat="43.02277053048055" lon="11.715634792530782"><ele>292.5</ele><time>2026-05-04T14:00:27.001Z</time></trkpt><trkpt lat="43.022702728011836" lon="11.715617288620965"><ele>292.3333333333333</ele><time>2026-05-04T14:00:28.001Z</time></trkpt><trkpt lat="43.022635599401376" lon="11.715589671094175"><ele>292.16666666666663</ele><time>2026-05-04T14:00:29.001Z</time></trkpt><trkpt lat="43.022557503842606" lon="11.71556361279281"><ele>292.0</ele><time>2026-05-04T14:00:30.001Z</time></trkpt><trkpt lat="43.02246329745929" lon="11.715545751873629"><ele>291.6</ele><time>2026-05-04T14:00:31.001Z</time></trkpt><trkpt lat="43.0223690592155" lon="11.715521173920028"><ele>291.2</ele><time>2026-05-04T14:00:32.001Z</time></trkpt><trkpt lat="43.02227155456684" lon="11.715488774312211"><ele>290.8</ele><time>2026-05-04T14:00:33.001Z</time></trkpt><trkpt lat="43.02216577314385" lon="11.715453718836397"><ele>290.4</ele><time>2026-05-04T14:00:34.001Z</time></trkpt><trkpt lat="43.02207820076103" lon="11.715421858920347"><ele>290.0</ele><time>2026-05-04T14:00:35.001Z</time></trkpt><trkpt lat="43.02198668585713" lon="11.715398196612322"><ele>290.0</ele><time>2026-05-04T14:00:36.001Z</time></trkpt><trkpt lat="43.02190312969824" lon="11.715380047163826"><ele>290.0</ele><time>2026-05-04T14:00:37.001Z</time></trkpt><trkpt lat="43.021819281971794" lon="11.71535200374427"><ele>290.0</ele><time>2026-05-04T14:00:38.001Z</time></trkpt><trkpt lat="43.02173617639195" lon="11.715318692641286"><ele>290.0</ele><time>2026-05-04T14:00:39.001Z</time></trkpt><trkpt lat="43.02164292307827" lon="11.715293797357546"><ele>290.0</ele><time>2026-05-04T14:00:40.001Z</time></trkpt><trkpt lat="43.02155274335352" lon="11.715269916836016"><ele>290.0</ele><time>2026-05-04T14:00:41.001Z</time></trkpt><trkpt lat="43.02146308431349" lon="11.715244385506693"><ele>289.6666666666667</ele><time>2026-05-04T14:00:42.001Z</time></trkpt><trkpt lat="43.02137178259638" lon="11.715219788599816"><ele>289.33333333333337</ele><time>2026-05-04T14:00:43.001Z</time></trkpt><trkpt lat="43.0212760626117" lon="11.715189288264988"><ele>289.0</ele><time>2026-05-04T14:00:44.001Z</time></trkpt><trkpt lat="43.02120148633742" lon="11.715163755232972"><ele>288.6666666666667</ele><time>2026-05-04T14:00:45.001Z</time></trkpt><trkpt lat="43.02111715066388" lon="11.715141505025318"><ele>288.3333333333333</ele><time>2026-05-04T14:00:46.001Z</time></trkpt><trkpt lat="43.021042557695225" lon="11.715124769659502"><ele>288.0</ele><time>2026-05-04T14:00:47.001Z</time></trkpt><trkpt lat="43.0209703169965" lon="11.715103679176613"><ele>288.0</ele><time>2026-05-04T14:00:48.001Z</time></trkpt><trkpt lat="43.020887427228374" lon="11.715076179041136"><ele>288.0</ele><time>2026-05-04T14:00:49.001Z</time></trkpt><trkpt lat="43.02080842835963" lon="11.715047250965881"><ele>288.0</ele><time>2026-05-04T14:00:50.001Z</time></trkpt><trkpt lat="43.020731534606476" lon="11.715022725922704"><ele>288.0</ele><time>2026-05-04T14:00:51.001Z</time></trkpt><trkpt lat="43.02066097501572" lon="11.715005308989674"><ele>288.0</ele><time>2026-05-04T14:00:52.001Z</time></trkpt><trkpt lat="43.02058067846751" lon="11.714985213180432"><ele>288.0</ele><time>2026-05-04T14:00:53.002Z</time></trkpt><trkpt lat="43.02048242107621" lon="11.714960474852877"><ele>287.8</ele><time>2026-05-04T14:00:54.002Z</time></trkpt><trkpt lat="43.02039168700599" lon="11.714938188475758"><ele>287.6</ele><time>2026-05-04T14:00:55.002Z</time></trkpt><trkpt lat="43.02029754020176" lon="11.71491302639357"><ele>287.4</ele><time>2026-05-04T14:00:56.002Z</time></trkpt><trkpt lat="43.02019548510885" lon="11.71487986449369"><ele>287.2</ele><time>2026-05-04T14:00:57.002Z</time></trkpt><trkpt lat="43.02009515938327" lon="11.71484460052537"><ele>287.0</ele><time>2026-05-04T14:00:58.002Z</time></trkpt><trkpt lat="43.01999852789508" lon="11.71481551178395"><ele>286.8</ele><time>2026-05-04T14:00:59.002Z</time></trkpt><trkpt lat="43.01989749186204" lon="11.714786853486851"><ele>286.6</ele><time>2026-05-04T14:01:00.002Z</time></trkpt><trkpt lat="43.01979111214112" lon="11.714758256416413"><ele>286.40000000000003</ele><time>2026-05-04T14:01:01.002Z</time></trkpt><trkpt lat="43.01969195519326" lon="11.714724552799437"><ele>286.2</ele><time>2026-05-04T14:01:02.002Z</time></trkpt><trkpt lat="43.01959209942164" lon="11.714669194616533"><ele>286.0</ele><time>2026-05-04T14:01:03.002Z</time></trkpt><trkpt lat="43.01949187997894" lon="11.714640982424319"><ele>286.0</ele><time>2026-05-04T14:01:04.002Z</time></trkpt><trkpt lat="43.01938685337183" lon="11.7146329450939"><ele>286.0</ele><time>2026-05-04T14:01:05.002Z</time></trkpt><trkpt lat="43.019290744128746" lon="11.71458405428234"><ele>286.0</ele><time>2026-05-04T14:01:06.002Z</time></trkpt><trkpt lat="43.019179658042056" lon="11.714549997787215"><ele>286.0</ele><time>2026-05-04T14:01:07.002Z</time></trkpt><trkpt lat="43.01907540995033" lon="11.714516158613662"><ele>286.0</ele><time>2026-05-04T14:01:08.002Z</time></trkpt><trkpt lat="43.01898389272461" lon="11.714483556479705"><ele>285.85714285714283</ele><time>2026-05-04T14:01:09.002Z</time></trkpt><trkpt lat="43.01890561147727" lon="11.714454039192894"><ele>285.7142857142857</ele><time>2026-05-04T14:01:10Z</time></trkpt><trkpt lat="43.01883334414111" lon="11.714447995145584"><ele>285.57142857142856</ele><time>2026-05-04T14:01:11Z</time></trkpt><trkpt lat="43.01877126335002" lon="11.714405795872777"><ele>285.42857142857144</ele><time>2026-05-04T14:01:12Z</time></trkpt><trkpt lat="43.018704631149284" lon="11.714407520508896"><ele>285.2857142857143</ele><time>2026-05-04T14:01:13Z</time></trkpt><trkpt lat="43.018635891695325" lon="11.714366434790596"><ele>285.1428571428571</ele><time>2026-05-04T14:01:14Z</time></trkpt><trkpt lat="43.01857091573217" lon="11.71434925125162"><ele>285.0</ele><time>2026-05-04T14:01:15Z</time></trkpt><trkpt lat="43.018473106458146" lon="11.714323384606217"><ele>285.0</ele><time>2026-05-04T14:01:17Z</time></trkpt><trkpt lat="43.01836747976804" lon="11.714316037204844"><ele>285.0</ele><time>2026-05-04T14:01:19Z</time></trkpt><trkpt lat="43.018267944414156" lon="11.714257408404416"><ele>285.0</ele><time>2026-05-04T14:01:21Z</time></trkpt><trkpt lat="43.01820888039318" lon="11.714225538484659"><ele>285.0</ele><time>2026-05-04T14:01:22Z</time></trkpt><trkpt lat="43.01814040281128" lon="11.71418883987812"><ele>285.0</ele><time>2026-05-04T14:01:23Z</time></trkpt><trkpt lat="43.01807991235508" lon="11.71415642164122"><ele>285.0</ele><time>2026-05-04T14:01:24Z</time></trkpt><trkpt lat="43.0179968681615" lon="11.714097165764002"><ele>284.8</ele><time>2026-05-04T14:01:26Z</time></trkpt><trkpt lat="43.017889678822804" lon="11.71411966060825"><ele>284.6</ele><time>2026-05-04T14:01:28Z</time></trkpt><trkpt lat="43.017853843434" lon="11.714243774585517"><ele>284.4</ele><time>2026-05-04T14:01:29Z</time></trkpt><trkpt lat="43.01787392347915" lon="11.714356576480455"><ele>284.2</ele><time>2026-05-04T14:01:30Z</time></trkpt><trkpt lat="43.017849920578186" lon="11.714437826833299"><ele>284.0</ele><time>2026-05-04T14:01:31Z</time></trkpt><trkpt lat="43.017782426498" lon="11.71454553387006"><ele>284.0</ele><time>2026-05-04T14:01:33Z</time></trkpt><trkpt lat="43.017716568276406" lon="11.714692205665772"><ele>284.0</ele><time>2026-05-04T14:01:35Z</time></trkpt><trkpt lat="43.01766499224536" lon="11.714785857268563"><ele>284.0</ele><time>2026-05-04T14:01:36Z</time></trkpt><trkpt lat="43.0176349981463" lon="11.714875876846998"><ele>284.0</ele><time>2026-05-04T14:01:37Z</time></trkpt><trkpt lat="43.01761428011007" lon="11.714967909458105"><ele>284.0</ele><time>2026-05-04T14:01:38Z</time></trkpt><trkpt lat="43.01759200013776" lon="11.71509435008057"><ele>284.0</ele><time>2026-05-04T14:01:39Z</time></trkpt><trkpt lat="43.01756861309738" lon="11.715218458217215"><ele>284.0</ele><time>2026-05-04T14:01:40Z</time></trkpt><trkpt lat="43.01752717657547" lon="11.715335590502336"><ele>284.0</ele><time>2026-05-04T14:01:41Z</time></trkpt><trkpt lat="43.01749421367196" lon="11.715446720287247"><ele>284.0</ele><time>2026-05-04T14:01:42Z</time></trkpt><trkpt lat="43.01747895581857" lon="11.715543585631496"><ele>284.0</ele><time>2026-05-04T14:01:43Z</time></trkpt><trkpt lat="43.01745033770697" lon="11.715625732047437"><ele>284.0</ele><time>2026-05-04T14:01:44Z</time></trkpt><trkpt lat="43.01742343800021" lon="11.715733754615158"><ele>284.0</ele><time>2026-05-04T14:01:45Z</time></trkpt><trkpt lat="43.017393613337234" lon="11.715850304450159"><ele>284.0</ele><time>2026-05-04T14:01:46Z</time></trkpt><trkpt lat="43.017372870060875" lon="11.715955082823394"><ele>284.0</ele><time>2026-05-04T14:01:47Z</time></trkpt><trkpt lat="43.017337577424506" lon="11.716086023299258"><ele>284.0</ele><time>2026-05-04T14:01:48Z</time></trkpt><trkpt lat="43.01733298782812" lon="11.716223450010322"><ele>284.0</ele><time>2026-05-04T14:01:49Z</time></trkpt><trkpt lat="43.01731203230548" lon="11.716355906045722"><ele>284.0</ele><time>2026-05-04T14:01:50Z</time></trkpt><trkpt lat="43.0172905732902" lon="11.716489842590242"><ele>284.2</ele><time>2026-05-04T14:01:51Z</time></trkpt><trkpt lat="43.01726406364776" lon="11.7166388797723"><ele>284.4</ele><time>2026-05-04T14:01:52Z</time></trkpt><trkpt lat="43.01724196735663" lon="11.71678793905327"><ele>284.6</ele><time>2026-05-04T14:01:53Z</time></trkpt><trkpt lat="43.0172217049972" lon="11.716932751931253"><ele>284.8</ele><time>2026-05-04T14:01:54Z</time></trkpt><trkpt lat="43.017201882481935" lon="11.717052128638999"><ele>285.0</ele><time>2026-05-04T14:01:55Z</time></trkpt><trkpt lat="43.01719739311761" lon="11.717172949205535"><ele>285.0</ele><time>2026-05-04T14:01:56Z</time></trkpt><trkpt lat="43.01718947592079" lon="11.717279919810037"><ele>285.0</ele><time>2026-05-04T14:01:57.001Z</time></trkpt><trkpt lat="43.01716954775941" lon="11.71739314536079"><ele>285.0</ele><time>2026-05-04T14:01:58.001Z</time></trkpt><trkpt lat="43.01715429459794" lon="11.717525095178896"><ele>285.0</ele><time>2026-05-04T14:01:59.001Z</time></trkpt><trkpt lat="43.01711855308914" lon="11.717680962848405"><ele>285.0</ele><time>2026-05-04T14:02:00.001Z</time></trkpt><trkpt lat="43.01708691412422" lon="11.717858725446948"><ele>285.5</ele><time>2026-05-04T14:02:01.001Z</time></trkpt><trkpt lat="43.01705506224459" lon="11.71805195589689"><ele>286.0</ele><time>2026-05-04T14:02:02.001Z</time></trkpt><trkpt lat="43.01702049639592" lon="11.718238637268147"><ele>286.5</ele><time>2026-05-04T14:02:03.001Z</time></trkpt><trkpt lat="43.016966516612335" lon="11.718386072888539"><ele>287.0</ele><time>2026-05-04T14:02:04.001Z</time></trkpt><trkpt lat="43.01692660588745" lon="11.71850948120773"><ele>286.4</ele><time>2026-05-04T14:02:05.001Z</time></trkpt><trkpt lat="43.0168906110081" lon="11.718632538425599"><ele>285.79999999999995</ele><time>2026-05-04T14:02:06.001Z</time></trkpt><trkpt lat="43.016858852819205" lon="11.718767317149918"><ele>285.2</ele><time>2026-05-04T14:02:07.001Z</time></trkpt><trkpt lat="43.016825432327195" lon="11.718883060407551"><ele>284.59999999999997</ele><time>2026-05-04T14:02:08.001Z</time></trkpt><trkpt lat="43.01678697101522" lon="11.718969391129074"><ele>284.0</ele><time>2026-05-04T14:02:09.001Z</time></trkpt><trkpt lat="43.016771047693204" lon="11.719087200154812"><ele>284.0</ele><time>2026-05-04T14:02:10.001Z</time></trkpt><trkpt lat="43.01675279463509" lon="11.71920564177514"><ele>284.0</ele><time>2026-05-04T14:02:11.001Z</time></trkpt><trkpt lat="43.016742856422454" lon="11.71929238959094"><ele>284.0</ele><time>2026-05-04T14:02:12.001Z</time></trkpt><trkpt lat="43.01671230528449" lon="11.719420031337881"><ele>284.0</ele><time>2026-05-04T14:02:14.001Z</time></trkpt><trkpt lat="43.01665874405708" lon="11.719538764507007"><ele>284.0</ele><time>2026-05-04T14:02:17.001Z</time></trkpt><trkpt lat="43.01663320171896" lon="11.719639658127624"><ele>284.0</ele><time>2026-05-04T14:02:19.001Z</time></trkpt><trkpt lat="43.016661979997004" lon="11.719531369487113"><ele>284.0</ele><time>2026-05-04T14:02:44.001Z</time></trkpt><trkpt lat="43.01669556661382" lon="11.719454618231193"><ele>284.0</ele><time>2026-05-04T14:02:47.002Z</time></trkpt><trkpt lat="43.01674090931257" lon="11.719369434999761"><ele>284.0</ele><time>2026-05-04T14:02:49.002Z</time></trkpt><trkpt lat="43.01673619852492" lon="11.719529374765798"><ele>284.0</ele><time>2026-05-04T14:02:56.002Z</time></trkpt><trkpt lat="43.01699998095055" lon="11.719688402126387"><ele>283.6666666666667</ele><time>2026-05-04T14:02:58.002Z</time></trkpt><trkpt lat="43.017093855008056" lon="11.7198054540944"><ele>283.33333333333337</ele><time>2026-05-04T14:03:00.002Z</time></trkpt><trkpt lat="43.0171440891524" lon="11.71987090093228"><ele>283.0</ele><time>2026-05-04T14:03:01.002Z</time></trkpt><trkpt lat="43.017196321746816" lon="11.719935082663032"><ele>282.6666666666667</ele><time>2026-05-04T14:03:02.002Z</time></trkpt><trkpt lat="43.01723674310759" lon="11.720004502048699"><ele>282.3333333333333</ele><time>2026-05-04T14:03:03.002Z</time></trkpt><trkpt lat="43.017276671502806" lon="11.72008181971447"><ele>282.0</ele><time>2026-05-04T14:03:04.002Z</time></trkpt><trkpt lat="43.01735340942808" lon="11.72020700565382"><ele>282.75</ele><time>2026-05-04T14:03:06.002Z</time></trkpt><trkpt lat="43.01744662038952" lon="11.720273213562148"><ele>283.5</ele><time>2026-05-04T14:03:08.002Z</time></trkpt><trkpt lat="43.01755931589427" lon="11.72030947360554"><ele>284.25</ele><time>2026-05-04T14:03:10.002Z</time></trkpt><trkpt lat="43.017679420303786" lon="11.720362356248312"><ele>285.0</ele><time>2026-05-04T14:03:12.002Z</time></trkpt><trkpt lat="43.01776716803689" lon="11.720437559822601"><ele>285.2</ele><time>2026-05-04T14:03:14.002Z</time></trkpt><trkpt lat="43.01779979229958" lon="11.720550694319293"><ele>285.4</ele><time>2026-05-04T14:03:17Z</time></trkpt><trkpt lat="43.017729917987126" lon="11.720671879513564"><ele>285.6</ele><time>2026-05-04T14:03:20Z</time></trkpt><trkpt lat="43.01769116869107" lon="11.720800057217572"><ele>285.8</ele><time>2026-05-04T14:03:22Z</time></trkpt><trkpt lat="43.01769411577283" lon="11.720922329095693"><ele>286.0</ele><time>2026-05-04T14:03:24Z</time></trkpt><trkpt lat="43.0176537306275" lon="11.720988952046635"><ele>286.16666666666663</ele><time>2026-05-04T14:03:33Z</time></trkpt><trkpt lat="43.01766923586535" lon="11.721137709116489"><ele>286.3333333333333</ele><time>2026-05-04T14:03:36Z</time></trkpt><trkpt lat="43.0176907684658" lon="11.721221444909306"><ele>286.5</ele><time>2026-05-04T14:03:37Z</time></trkpt><trkpt lat="43.01770560604236" lon="11.7213157161935"><ele>286.6666666666667</ele><time>2026-05-04T14:03:38Z</time></trkpt><trkpt lat="43.017717832837896" lon="11.72141300449801"><ele>286.83333333333337</ele><time>2026-05-04T14:03:39Z</time></trkpt><trkpt lat="43.01772840187408" lon="11.72149910309125"><ele>287.0</ele><time>2026-05-04T14:03:40.001Z</time></trkpt><trkpt lat="43.01774366131282" lon="11.721606946005897"><ele>287.0</ele><time>2026-05-04T14:03:41.001Z</time></trkpt><trkpt lat="43.017764181714206" lon="11.72171095681146"><ele>287.0</ele><time>2026-05-04T14:03:42.001Z</time></trkpt><trkpt lat="43.01777957632234" lon="11.721828619471754"><ele>287.0</ele><time>2026-05-04T14:03:43.001Z</time></trkpt><trkpt lat="43.01778618260893" lon="11.721934838371087"><ele>287.0</ele><time>2026-05-04T14:03:44.001Z</time></trkpt><trkpt lat="43.01779385941509" lon="11.722035847267403"><ele>287.0</ele><time>2026-05-04T14:03:45.001Z</time></trkpt><trkpt lat="43.01780477022105" lon="11.72214926612668"><ele>287.0</ele><time>2026-05-04T14:03:46.001Z</time></trkpt><trkpt lat="43.01782392890237" lon="11.722281209074133"><ele>287.4</ele><time>2026-05-04T14:03:47.001Z</time></trkpt><trkpt lat="43.017842282079265" lon="11.722387060741683"><ele>287.79999999999995</ele><time>2026-05-04T14:03:48.001Z</time></trkpt><trkpt lat="43.01787957751344" lon="11.722541803399958"><ele>288.2</ele><time>2026-05-04T14:03:50.001Z</time></trkpt><trkpt lat="43.01796839896165" lon="11.722667007491804"><ele>288.59999999999997</ele><time>2026-05-04T14:03:52.001Z</time></trkpt><trkpt lat="43.01804358467262" lon="11.72270701245525"><ele>289.0</ele><time>2026-05-04T14:03:53.001Z</time></trkpt><trkpt lat="43.0181329865483" lon="11.722728735371874"><ele>289.0</ele><time>2026-05-04T14:03:54.001Z</time></trkpt><trkpt lat="43.01824461585224" lon="11.72273781557223"><ele>289.0</ele><time>2026-05-04T14:03:55.001Z</time></trkpt><trkpt lat="43.01834874918163" lon="11.722744792866148"><ele>289.0</ele><time>2026-05-04T14:03:56.001Z</time></trkpt><trkpt lat="43.0184234356284" lon="11.722753114269842"><ele>289.0</ele><time>2026-05-04T14:03:57.001Z</time></trkpt><trkpt lat="43.01849702572045" lon="11.72278126536411"><ele>289.0</ele><time>2026-05-04T14:03:58.001Z</time></trkpt><trkpt lat="43.01856064286291" lon="11.722825010349073"><ele>289.0</ele><time>2026-05-04T14:03:59.001Z</time></trkpt><trkpt lat="43.01865443247488" lon="11.72291222471922"><ele>288.8333333333333</ele><time>2026-05-04T14:04:01.001Z</time></trkpt><trkpt lat="43.018715293860446" lon="11.722971588271706"><ele>288.66666666666663</ele><time>2026-05-04T14:04:03.001Z</time></trkpt><trkpt lat="43.01879811809359" lon="11.723057151753865"><ele>288.5</ele><time>2026-05-04T14:04:05.001Z</time></trkpt><trkpt lat="43.018860149390136" lon="11.72312510759971"><ele>288.3333333333333</ele><time>2026-05-04T14:04:06.001Z</time></trkpt><trkpt lat="43.01893362895026" lon="11.72317289458209"><ele>288.1666666666667</ele><time>2026-05-04T14:04:07.001Z</time></trkpt><trkpt lat="43.019002105647004" lon="11.723245383373996"><ele>288.0</ele><time>2026-05-04T14:04:08.001Z</time></trkpt><trkpt lat="43.01908775592333" lon="11.723279885760014"><ele>287.8</ele><time>2026-05-04T14:04:09.001Z</time></trkpt><trkpt lat="43.01918542021405" lon="11.723341416109497"><ele>287.6</ele><time>2026-05-04T14:04:10.001Z</time></trkpt><trkpt lat="43.01928552721692" lon="11.723403779828018"><ele>287.4</ele><time>2026-05-04T14:04:11.001Z</time></trkpt><trkpt lat="43.01939299501854" lon="11.723463140569912"><ele>287.2</ele><time>2026-05-04T14:04:12.001Z</time></trkpt><trkpt lat="43.019485751629475" lon="11.723500993842954"><ele>287.0</ele><time>2026-05-04T14:04:13.001Z</time></trkpt><trkpt lat="43.01956827821999" lon="11.723557952675916"><ele>287.1666666666667</ele><time>2026-05-04T14:04:14.001Z</time></trkpt><trkpt lat="43.0196566122267" lon="11.723595758895062"><ele>287.33333333333337</ele><time>2026-05-04T14:04:15.001Z</time></trkpt><trkpt lat="43.01974390009545" lon="11.723631505994986"><ele>287.5</ele><time>2026-05-04T14:04:16.001Z</time></trkpt><trkpt lat="43.01983037696507" lon="11.723665925045013"><ele>287.6666666666667</ele><time>2026-05-04T14:04:17.001Z</time></trkpt><trkpt lat="43.01991178023241" lon="11.723674132990567"><ele>287.8333333333333</ele><time>2026-05-04T14:04:18.001Z</time></trkpt><trkpt lat="43.01999018591588" lon="11.723719384660713"><ele>288.0</ele><time>2026-05-04T14:04:19.001Z</time></trkpt><trkpt lat="43.02008108263206" lon="11.723744914983328"><ele>288.0</ele><time>2026-05-04T14:04:20.001Z</time></trkpt><trkpt lat="43.02018433984402" lon="11.723771735424757"><ele>288.0</ele><time>2026-05-04T14:04:21.001Z</time></trkpt><trkpt lat="43.020277629632396" lon="11.723801669364406"><ele>288.0</ele><time>2026-05-04T14:04:22.001Z</time></trkpt><trkpt lat="43.020354360530085" lon="11.723828846034452"><ele>288.0</ele><time>2026-05-04T14:04:23.001Z</time></trkpt><trkpt lat="43.02041499726507" lon="11.723880180329887"><ele>288.0</ele><time>2026-05-04T14:04:24.001Z</time></trkpt><trkpt lat="43.02050263789361" lon="11.723946976378867"><ele>288.0</ele><time>2026-05-04T14:04:26.001Z</time></trkpt><trkpt lat="43.02054503696043" lon="11.724020252484005"><ele>288.0</ele><time>2026-05-04T14:04:28.001Z</time></trkpt><trkpt lat="43.020589516750334" lon="11.724170360700658"><ele>288.0</ele><time>2026-05-04T14:04:30.001Z</time></trkpt><trkpt lat="43.020637099530575" lon="11.724274244152708"><ele>288.0</ele><time>2026-05-04T14:04:31.002Z</time></trkpt><trkpt lat="43.020666211675334" lon="11.724376300810805"><ele>288.0</ele><time>2026-05-04T14:04:32.002Z</time></trkpt><trkpt lat="43.02070512966151" lon="11.724477728146198"><ele>288.0</ele><time>2026-05-04T14:04:33.002Z</time></trkpt><trkpt lat="43.02074739029463" lon="11.72460055044261"><ele>288.3333333333333</ele><time>2026-05-04T14:04:34.002Z</time></trkpt><trkpt lat="43.02076968758843" lon="11.724691900131013"><ele>288.6666666666667</ele><time>2026-05-04T14:04:35.002Z</time></trkpt><trkpt lat="43.02077677533693" lon="11.724796913875725"><ele>289.0</ele><time>2026-05-04T14:04:37.002Z</time></trkpt><trkpt lat="43.02080398170809" lon="11.724880961123525"><ele>289.33333333333337</ele><time>2026-05-04T14:04:43.002Z</time></trkpt><trkpt lat="43.02082561611095" lon="11.725034752875718"><ele>289.6666666666667</ele><time>2026-05-04T14:04:45.002Z</time></trkpt><trkpt lat="43.02083891306743" lon="11.725124725003688"><ele>290.0</ele><time>2026-05-04T14:04:46.002Z</time></trkpt><trkpt lat="43.020866472658525" lon="11.725287974485699"><ele>290.14285714285717</ele><time>2026-05-04T14:04:48.002Z</time></trkpt><trkpt lat="43.02088105805858" lon="11.725387516999668"><ele>290.28571428571433</ele><time>2026-05-04T14:04:49.002Z</time></trkpt><trkpt lat="43.02089913232921" lon="11.72549165981839"><ele>290.42857142857144</ele><time>2026-05-04T14:04:50.002Z</time></trkpt><trkpt lat="43.02091887309107" lon="11.725583267650302"><ele>290.57142857142856</ele><time>2026-05-04T14:04:51.002Z</time></trkpt><trkpt lat="43.020937321799316" lon="11.725679329127022"><ele>290.71428571428567</ele><time>2026-05-04T14:04:52.002Z</time></trkpt><trkpt lat="43.02095139266875" lon="11.725763409358109"><ele>290.85714285714283</ele><time>2026-05-04T14:04:53.002Z</time></trkpt><trkpt lat="43.020970792973856" lon="11.725871641330166"><ele>291.0</ele><time>2026-05-04T14:04:54.002Z</time></trkpt><trkpt lat="43.0209970331398" lon="11.726010553747082"><ele>291.0</ele><time>2026-05-04T14:04:55.002Z</time></trkpt><trkpt lat="43.0210187056285" lon="11.726127782380285"><ele>291.0</ele><time>2026-05-04T14:04:56.002Z</time></trkpt><trkpt lat="43.02103903758613" lon="11.726236971973252"><ele>291.0</ele><time>2026-05-04T14:04:57.002Z</time></trkpt><trkpt lat="43.02106055399554" lon="11.726371201166499"><ele>291.0</ele><time>2026-05-04T14:04:58.002Z</time></trkpt><trkpt lat="43.02108174132987" lon="11.726487552353712"><ele>291.0</ele><time>2026-05-04T14:04:59.002Z</time></trkpt><trkpt lat="43.021109394060105" lon="11.726642690725336"><ele>291.0</ele><time>2026-05-04T14:05:00.002Z</time></trkpt><trkpt lat="43.02114252142628" lon="11.726796728609092"><ele>291.0</ele><time>2026-05-04T14:05:01.002Z</time></trkpt><trkpt lat="43.02118189708771" lon="11.726954856764417"><ele>291.0</ele><time>2026-05-04T14:05:02.002Z</time></trkpt><trkpt lat="43.021216351497166" lon="11.727119031645742"><ele>291.0</ele><time>2026-05-04T14:05:03.002Z</time></trkpt><trkpt lat="43.02126821987272" lon="11.727260442209372"><ele>291.0</ele><time>2026-05-04T14:05:04.002Z</time></trkpt><trkpt lat="43.02130046530613" lon="11.727389166601222"><ele>291.0</ele><time>2026-05-04T14:05:05.002Z</time></trkpt><trkpt lat="43.02133067656779" lon="11.72749766743851"><ele>291.0</ele><time>2026-05-04T14:05:06.002Z</time></trkpt><trkpt lat="43.02133430809335" lon="11.727587380143111"><ele>291.0</ele><time>2026-05-04T14:05:07.002Z</time></trkpt><trkpt lat="43.021351230520374" lon="11.727682421498104"><ele>291.0</ele><time>2026-05-04T14:05:08.002Z</time></trkpt><trkpt lat="43.02135128752415" lon="11.727846636040596"><ele>291.0</ele><time>2026-05-04T14:05:10.002Z</time></trkpt><trkpt lat="43.021342867261374" lon="11.727937223943643"><ele>290.8333333333333</ele><time>2026-05-04T14:05:11.002Z</time></trkpt><trkpt lat="43.021324057943865" lon="11.728117299927312"><ele>290.6666666666667</ele><time>2026-05-04T14:05:13.002Z</time></trkpt><trkpt lat="43.021299570459085" lon="11.728207616892595"><ele>290.5</ele><time>2026-05-04T14:05:14.002Z</time></trkpt><trkpt lat="43.02128907683763" lon="11.728293194057535"><ele>290.33333333333337</ele><time>2026-05-04T14:05:15.002Z</time></trkpt><trkpt lat="43.02127088105205" lon="11.728387259473706"><ele>290.1666666666667</ele><time>2026-05-04T14:05:16.002Z</time></trkpt><trkpt lat="43.02125561484468" lon="11.728481946874535"><ele>290.0</ele><time>2026-05-04T14:05:17.002Z</time></trkpt><trkpt lat="43.02123599446915" lon="11.728571032790844"><ele>289.8</ele><time>2026-05-04T14:05:18.002Z</time></trkpt><trkpt lat="43.021191860298345" lon="11.72872848644085"><ele>289.6</ele><time>2026-05-04T14:05:20.003Z</time></trkpt><trkpt lat="43.021172576018145" lon="11.728822497232365"><ele>289.4</ele><time>2026-05-04T14:05:21.003Z</time></trkpt><trkpt lat="43.02117343745199" lon="11.728936805905779"><ele>289.2</ele><time>2026-05-04T14:05:23.002Z</time></trkpt><trkpt lat="43.02120738480519" lon="11.728816660434491"><ele>289.0</ele><time>2026-05-04T14:07:37.003Z</time></trkpt><trkpt lat="43.0212370028035" lon="11.728652492730546"><ele>289.2</ele><time>2026-05-04T14:07:39.003Z</time></trkpt><trkpt lat="43.02125863308617" lon="11.728504652423291"><ele>289.4</ele><time>2026-05-04T14:07:41.002Z</time></trkpt><trkpt lat="43.02126971427507" lon="11.728396883189573"><ele>289.6</ele><time>2026-05-04T14:07:42.002Z</time></trkpt><trkpt lat="43.02128723659048" lon="11.728254934675368"><ele>289.8</ele><time>2026-05-04T14:07:44.002Z</time></trkpt><trkpt lat="43.021308448352585" lon="11.728127763386187"><ele>290.0</ele><time>2026-05-04T14:07:47.002Z</time></trkpt><trkpt lat="43.02135236962789" lon="11.727989297769435"><ele>290.0</ele><time>2026-05-04T14:07:49.002Z</time></trkpt><trkpt lat="43.021376786841536" lon="11.727836232917284"><ele>290.0</ele><time>2026-05-04T14:07:51.002Z</time></trkpt><trkpt lat="43.02136964532615" lon="11.72765316473466"><ele>290.0</ele><time>2026-05-04T14:07:53.002Z</time></trkpt><trkpt lat="43.021355581677945" lon="11.727567222809318"><ele>290.0</ele><time>2026-05-04T14:07:54.002Z</time></trkpt><trkpt lat="43.02131735653756" lon="11.727403690338734"><ele>290.0</ele><time>2026-05-04T14:07:56.002Z</time></trkpt><trkpt lat="43.02129036189893" lon="11.72730892200965"><ele>290.1666666666667</ele><time>2026-05-04T14:07:57.002Z</time></trkpt><trkpt lat="43.021260668366466" lon="11.727204514526587"><ele>290.33333333333337</ele><time>2026-05-04T14:07:58.002Z</time></trkpt><trkpt lat="43.0212308226699" lon="11.727088403496833"><ele>290.5</ele><time>2026-05-04T14:07:59.002Z</time></trkpt><trkpt lat="43.02120055095959" lon="11.72696823672912"><ele>290.6666666666667</ele><time>2026-05-04T14:08:00.002Z</time></trkpt><trkpt lat="43.02117187143355" lon="11.726857337465418"><ele>290.8333333333333</ele><time>2026-05-04T14:08:01.002Z</time></trkpt><trkpt lat="43.02114257161907" lon="11.726741457887305"><ele>291.0</ele><time>2026-05-04T14:08:02.002Z</time></trkpt><trkpt lat="43.021115741111316" lon="11.726627665008467"><ele>291.0</ele><time>2026-05-04T14:08:03.002Z</time></trkpt><trkpt lat="43.0210919812423" lon="11.72650862934147"><ele>291.0</ele><time>2026-05-04T14:08:04.002Z</time></trkpt><trkpt lat="43.02106409389969" lon="11.726385945910026"><ele>291.0</ele><time>2026-05-04T14:08:05.002Z</time></trkpt><trkpt lat="43.02104542144208" lon="11.72629677865788"><ele>291.0</ele><time>2026-05-04T14:08:06.002Z</time></trkpt><trkpt lat="43.02102238462816" lon="11.726194593162507"><ele>291.0</ele><time>2026-05-04T14:08:07.002Z</time></trkpt><trkpt lat="43.02099884843468" lon="11.726090862569626"><ele>291.0</ele><time>2026-05-04T14:08:08.002Z</time></trkpt><trkpt lat="43.020981456888336" lon="11.725974402383057"><ele>291.0</ele><time>2026-05-04T14:08:09.002Z</time></trkpt><trkpt lat="43.02097228440207" lon="11.72588097764928"><ele>291.0</ele><time>2026-05-04T14:08:10.002Z</time></trkpt><trkpt lat="43.02095628319165" lon="11.725789951082433"><ele>291.0</ele><time>2026-05-04T14:08:11.002Z</time></trkpt><trkpt lat="43.02093341882296" lon="11.725681588620363"><ele>291.0</ele><time>2026-05-04T14:08:13.002Z</time></trkpt><trkpt lat="43.02090454000234" lon="11.725521981945757"><ele>291.0</ele><time>2026-05-04T14:08:15.002Z</time></trkpt><trkpt lat="43.020886464477826" lon="11.725437074436714"><ele>291.0</ele><time>2026-05-04T14:08:16.002Z</time></trkpt><trkpt lat="43.020862859996754" lon="11.725315241455894"><ele>291.0</ele><time>2026-05-04T14:08:17.002Z</time></trkpt><trkpt lat="43.02084705634094" lon="11.725220966424688"><ele>291.0</ele><time>2026-05-04T14:08:18.002Z</time></trkpt><trkpt lat="43.02082542798565" lon="11.725080508896541"><ele>291.0</ele><time>2026-05-04T14:08:20.002Z</time></trkpt><trkpt lat="43.020806159301074" lon="11.724923370778514"><ele>291.0</ele><time>2026-05-04T14:08:22.002Z</time></trkpt><trkpt lat="43.02080982457285" lon="11.724814000304859"><ele>291.0</ele><time>2026-05-04T14:08:25.002Z</time></trkpt><trkpt lat="43.020779095325196" lon="11.72467823600766"><ele>290.8333333333333</ele><time>2026-05-04T14:08:27.002Z</time></trkpt><trkpt lat="43.02074510757592" lon="11.724575183542278"><ele>290.6666666666667</ele><time>2026-05-04T14:08:28.002Z</time></trkpt><trkpt lat="43.02070866314132" lon="11.724467887821184"><ele>290.5</ele><time>2026-05-04T14:08:29.002Z</time></trkpt><trkpt lat="43.020673255925445" lon="11.724376256913704"><ele>290.33333333333337</ele><time>2026-05-04T14:08:30.002Z</time></trkpt><trkpt lat="43.0206308941551" lon="11.724255926578037"><ele>290.1666666666667</ele><time>2026-05-04T14:08:31.002Z</time></trkpt><trkpt lat="43.02060316244035" lon="11.724156765832989"><ele>290.0</ele><time>2026-05-04T14:08:32.002Z</time></trkpt><trkpt lat="43.02058117967875" lon="11.724066910966936"><ele>289.6</ele><time>2026-05-04T14:08:33.002Z</time></trkpt><trkpt lat="43.02055086121273" lon="11.723963696280148"><ele>289.2</ele><time>2026-05-04T14:08:35.002Z</time></trkpt><trkpt lat="43.020465897453704" lon="11.723861549386"><ele>288.8</ele><time>2026-05-04T14:08:37.002Z</time></trkpt><trkpt lat="43.0203623017315" lon="11.723813917963561"><ele>288.4</ele><time>2026-05-04T14:08:39.002Z</time></trkpt><trkpt lat="43.020289302409616" lon="11.723791109138217"><ele>288.0</ele><time>2026-05-04T14:08:40.002Z</time></trkpt><trkpt lat="43.020205518653114" lon="11.723766832494936"><ele>288.0</ele><time>2026-05-04T14:08:41.002Z</time></trkpt><trkpt lat="43.02012809353749" lon="11.723744997864111"><ele>288.0</ele><time>2026-05-04T14:08:42.002Z</time></trkpt><trkpt lat="43.020063279647395" lon="11.723726000727183"><ele>288.0</ele><time>2026-05-04T14:08:43.002Z</time></trkpt><trkpt lat="43.01999467719103" lon="11.723703806689644"><ele>288.0</ele><time>2026-05-04T14:08:44.002Z</time></trkpt><trkpt lat="43.01991632689137" lon="11.723672254994112"><ele>288.0</ele><time>2026-05-04T14:08:45.002Z</time></trkpt><trkpt lat="43.019842601111016" lon="11.723628898192286"><ele>288.0</ele><time>2026-05-04T14:08:46.002Z</time></trkpt><trkpt lat="43.0197786416609" lon="11.723581412839252"><ele>287.8</ele><time>2026-05-04T14:08:47.002Z</time></trkpt><trkpt lat="43.01971518834452" lon="11.723557670164137"><ele>287.6</ele><time>2026-05-04T14:08:48.002Z</time></trkpt><trkpt lat="43.0196296668885" lon="11.723544397692871"><ele>287.4</ele><time>2026-05-04T14:08:49.002Z</time></trkpt><trkpt lat="43.01952747510914" lon="11.723520193749417"><ele>287.2</ele><time>2026-05-04T14:08:50.002Z</time></trkpt><trkpt lat="43.01942778063703" lon="11.723485939348796"><ele>287.0</ele><time>2026-05-04T14:08:51.002Z</time></trkpt><trkpt lat="43.01933787362921" lon="11.72344601539268"><ele>287.0</ele><time>2026-05-04T14:08:52.002Z</time></trkpt><trkpt lat="43.01924464816021" lon="11.723390017610653"><ele>287.0</ele><time>2026-05-04T14:08:53.002Z</time></trkpt><trkpt lat="43.01913939598434" lon="11.723321777689755"><ele>287.0</ele><time>2026-05-04T14:08:54.002Z</time></trkpt><trkpt lat="43.01903346140442" lon="11.723248360273079"><ele>287.0</ele><time>2026-05-04T14:08:55.002Z</time></trkpt><trkpt lat="43.01893196243268" lon="11.723170771969047"><ele>287.2</ele><time>2026-05-04T14:08:56.002Z</time></trkpt><trkpt lat="43.01884314158635" lon="11.723101189478768"><ele>287.4</ele><time>2026-05-04T14:08:57.002Z</time></trkpt><trkpt lat="43.018758395830226" lon="11.723023832865257"><ele>287.6</ele><time>2026-05-04T14:08:58.002Z</time></trkpt><trkpt lat="43.01867896434023" lon="11.722935575183621"><ele>287.8</ele><time>2026-05-04T14:08:59.003Z</time></trkpt><trkpt lat="43.01860490523493" lon="11.722854376207701"><ele>288.0</ele><time>2026-05-04T14:09:00.003Z</time></trkpt><trkpt lat="43.01853099299689" lon="11.722791814818441"><ele>288.0</ele><time>2026-05-04T14:09:01.003Z</time></trkpt><trkpt lat="43.018449778511346" lon="11.722750049609663"><ele>288.0</ele><time>2026-05-04T14:09:02.003Z</time></trkpt><trkpt lat="43.01836244562137" lon="11.722723940146604"><ele>288.0</ele><time>2026-05-04T14:09:03.003Z</time></trkpt><trkpt lat="43.01827586827859" lon="11.722718362819016"><ele>288.0</ele><time>2026-05-04T14:09:04.003Z</time></trkpt><trkpt lat="43.01816828180027" lon="11.722723401508151"><ele>288.0</ele><time>2026-05-04T14:09:05.003Z</time></trkpt><trkpt lat="43.018077942451846" lon="11.722712140212751"><ele>288.14285714285717</ele><time>2026-05-04T14:09:06.003Z</time></trkpt><trkpt lat="43.018008982006975" lon="11.722683942418707"><ele>288.2857142857143</ele><time>2026-05-04T14:09:07.003Z</time></trkpt><trkpt lat="43.01795405586554" lon="11.722639407359491"><ele>288.42857142857144</ele><time>2026-05-04T14:09:08.003Z</time></trkpt><trkpt lat="43.01790141760129" lon="11.722567503696483"><ele>288.57142857142856</ele><time>2026-05-04T14:09:09.003Z</time></trkpt><trkpt lat="43.017856795128075" lon="11.72246995558992"><ele>288.7142857142857</ele><time>2026-05-04T14:09:10.003Z</time></trkpt><trkpt lat="43.01783575341401" lon="11.722382099911062"><ele>288.8571428571429</ele><time>2026-05-04T14:09:11.003Z</time></trkpt><trkpt lat="43.01782560054912" lon="11.72227281829733"><ele>289.0</ele><time>2026-05-04T14:09:12.003Z</time></trkpt><trkpt lat="43.017815617856236" lon="11.722151724581833"><ele>289.0</ele><time>2026-05-04T14:09:13.003Z</time></trkpt><trkpt lat="43.01780234972293" lon="11.72202668355927"><ele>289.0</ele><time>2026-05-04T14:09:14.003Z</time></trkpt><trkpt lat="43.01778823271319" lon="11.721886468037432"><ele>289.0</ele><time>2026-05-04T14:09:15.003Z</time></trkpt><trkpt lat="43.01777605502823" lon="11.72177043362105"><ele>289.0</ele><time>2026-05-04T14:09:16.003Z</time></trkpt><trkpt lat="43.017763805710516" lon="11.72165663209288"><ele>289.0</ele><time>2026-05-04T14:09:17.003Z</time></trkpt><trkpt lat="43.01774464944805" lon="11.721539198558142"><ele>288.66666666666663</ele><time>2026-05-04T14:09:18.003Z</time></trkpt><trkpt lat="43.01772205616239" lon="11.721421593325307"><ele>288.3333333333333</ele><time>2026-05-04T14:09:19.003Z</time></trkpt><trkpt lat="43.01770808852029" lon="11.721322614182933"><ele>288.0</ele><time>2026-05-04T14:09:20.003Z</time></trkpt><trkpt lat="43.0176975029293" lon="11.721235326613638"><ele>287.6666666666667</ele><time>2026-05-04T14:09:21.003Z</time></trkpt><trkpt lat="43.017666942265684" lon="11.721081611185376"><ele>287.33333333333337</ele><time>2026-05-04T14:09:23.003Z</time></trkpt><trkpt lat="43.01762117133057" lon="11.720988529354347"><ele>287.0</ele><time>2026-05-04T14:09:25.003Z</time></trkpt><trkpt lat="43.01756100017039" lon="11.720951459191074"><ele>286.6666666666667</ele><time>2026-05-04T14:09:27.003Z</time></trkpt><trkpt lat="43.01744543796451" lon="11.720890860995107"><ele>286.33333333333337</ele><time>2026-05-04T14:09:29.003Z</time></trkpt><trkpt lat="43.01737641569517" lon="11.720865493885643"><ele>286.0</ele><time>2026-05-04T14:09:30.003Z</time></trkpt><trkpt lat="43.01729591426803" lon="11.720840410499582"><ele>285.6666666666667</ele><time>2026-05-04T14:09:31.003Z</time></trkpt><trkpt lat="43.017221437962036" lon="11.72081498771605"><ele>285.3333333333333</ele><time>2026-05-04T14:09:32.003Z</time></trkpt><trkpt lat="43.01714305696487" lon="11.720798896896875"><ele>285.0</ele><time>2026-05-04T14:09:33.003Z</time></trkpt><trkpt lat="43.017076136890545" lon="11.720793060383667"><ele>285.0</ele><time>2026-05-04T14:09:34.002Z</time></trkpt><trkpt lat="43.01693809662453" lon="11.720795815848978"><ele>285.0</ele><time>2026-05-04T14:09:36.002Z</time></trkpt><trkpt lat="43.01685794776812" lon="11.720776647396631"><ele>285.0</ele><time>2026-05-04T14:09:37.002Z</time></trkpt><trkpt lat="43.01678338490121" lon="11.720748566324863"><ele>285.0</ele><time>2026-05-04T14:09:38.002Z</time></trkpt><trkpt lat="43.01672391944402" lon="11.720712979286864"><ele>285.0</ele><time>2026-05-04T14:09:39.002Z</time></trkpt><trkpt lat="43.01665634477218" lon="11.720617188566614"><ele>287.0</ele><time>2026-05-04T14:09:41.002Z</time></trkpt><trkpt lat="43.01661839527617" lon="11.720487986366056"><ele>289.0</ele><time>2026-05-04T14:09:43.002Z</time></trkpt><trkpt lat="43.016597373648665" lon="11.720370725773202"><ele>291.0</ele><time>2026-05-04T14:09:45.002Z</time></trkpt><trkpt lat="43.01658509309344" lon="11.720283553407883"><ele>293.0</ele><time>2026-05-04T14:09:47.002Z</time></trkpt><trkpt lat="43.01661125400884" lon="11.72036806217916"><ele>295.0</ele><time>2026-05-04T14:10:16.001Z</time></trkpt><trkpt lat="43.01660384006539" lon="11.720471774473937"><ele>297.0</ele><time>2026-05-04T14:10:30.001Z</time></trkpt><trkpt lat="43.01660235171276" lon="11.720610508220494"><ele>297.0</ele><time>2026-05-04T14:10:32.001Z</time></trkpt><trkpt lat="43.016569773705946" lon="11.720785439098298"><ele>297.0</ele><time>2026-05-04T14:10:34.001Z</time></trkpt><trkpt lat="43.01649282702516" lon="11.720914856207791"><ele>297.0</ele><time>2026-05-04T14:10:36.001Z</time></trkpt><trkpt lat="43.01644959781223" lon="11.72101713603899"><ele>297.0</ele><time>2026-05-04T14:10:38.001Z</time></trkpt><trkpt lat="43.016419425561594" lon="11.721117410467494"><ele>297.0</ele><time>2026-05-04T14:10:41.002Z</time></trkpt><trkpt lat="43.01644656119014" lon="11.721229302013134"><ele>296.4</ele><time>2026-05-04T14:10:43.002Z</time></trkpt><trkpt lat="43.01650546452707" lon="11.721324137909999"><ele>295.79999999999995</ele><time>2026-05-04T14:10:45.002Z</time></trkpt><trkpt lat="43.016537379171474" lon="11.721423857250205"><ele>295.2</ele><time>2026-05-04T14:10:47.002Z</time></trkpt><trkpt lat="43.01656014784504" lon="11.72160761362774"><ele>294.59999999999997</ele><time>2026-05-04T14:10:49.002Z</time></trkpt><trkpt lat="43.016567432676105" lon="11.721701604455001"><ele>294.0</ele><time>2026-05-04T14:10:50.002Z</time></trkpt><trkpt lat="43.01657872339071" lon="11.721837295827555"><ele>293.8</ele><time>2026-05-04T14:10:52.002Z</time></trkpt><trkpt lat="43.016606507688664" lon="11.721986783742532"><ele>293.59999999999997</ele><time>2026-05-04T14:10:54.002Z</time></trkpt><trkpt lat="43.016605962532296" lon="11.722138032484727"><ele>293.4</ele><time>2026-05-04T14:10:56.002Z</time></trkpt><trkpt lat="43.01662450218157" lon="11.722305245472702"><ele>293.2</ele><time>2026-05-04T14:10:58.002Z</time></trkpt><trkpt lat="43.016633710616716" lon="11.722395118725133"><ele>293.0</ele><time>2026-05-04T14:10:59.002Z</time></trkpt><trkpt lat="43.016666722696925" lon="11.722538522805303"><ele>292.0</ele><time>2026-05-04T14:11:01.002Z</time></trkpt><trkpt lat="43.016681024788646" lon="11.722630087295428"><ele>291.0</ele><time>2026-05-04T14:11:02.002Z</time></trkpt><trkpt lat="43.016695222842266" lon="11.722726555091459"><ele>290.0</ele><time>2026-05-04T14:11:03.002Z</time></trkpt><trkpt lat="43.01671023323573" lon="11.722852642575056"><ele>289.0</ele><time>2026-05-04T14:11:05.002Z</time></trkpt><trkpt lat="43.01674043435393" lon="11.72294130633331"><ele>288.0</ele><time>2026-05-04T14:11:07.002Z</time></trkpt><trkpt lat="43.01678670592637" lon="11.723058277556566"><ele>287.0</ele><time>2026-05-04T14:11:09.002Z</time></trkpt><trkpt lat="43.016803473752276" lon="11.723172200075116"><ele>287.0</ele><time>2026-05-04T14:11:11.002Z</time></trkpt><trkpt lat="43.01680073622086" lon="11.72333749871449"><ele>287.0</ele><time>2026-05-04T14:11:13.002Z</time></trkpt><trkpt lat="43.016797747625674" lon="11.72346868305867"><ele>287.0</ele><time>2026-05-04T14:11:15.002Z</time></trkpt><trkpt lat="43.01683860804469" lon="11.723588669741856"><ele>287.0</ele><time>2026-05-04T14:11:17.002Z</time></trkpt><trkpt lat="43.01687573409454" lon="11.7236653053288"><ele>287.0</ele><time>2026-05-04T14:11:18.002Z</time></trkpt><trkpt lat="43.01691971579055" lon="11.723757511315167"><ele>287.33333333333337</ele><time>2026-05-04T14:11:19.002Z</time></trkpt><trkpt lat="43.01695447988071" lon="11.723837261507587"><ele>287.6666666666667</ele><time>2026-05-04T14:11:20.002Z</time></trkpt><trkpt lat="43.01698829150229" lon="11.723913409339143"><ele>288.0</ele><time>2026-05-04T14:11:21.002Z</time></trkpt><trkpt lat="43.01705020978827" lon="11.724024051700493"><ele>288.3333333333333</ele><time>2026-05-04T14:11:24.002Z</time></trkpt><trkpt lat="43.017083422320674" lon="11.724117797612337"><ele>288.66666666666663</ele><time>2026-05-04T14:11:26.002Z</time></trkpt><trkpt lat="43.017146045354906" lon="11.724211770980364"><ele>289.0</ele><time>2026-05-04T14:11:29.002Z</time></trkpt><trkpt lat="43.01721152960354" lon="11.724323818888683"><ele>289.0</ele><time>2026-05-04T14:11:32.002Z</time></trkpt><trkpt lat="43.01726065327702" lon="11.724407433300383"><ele>289.0</ele><time>2026-05-04T14:11:35.002Z</time></trkpt><trkpt lat="43.017307233722306" lon="11.724473035943697"><ele>289.0</ele><time>2026-05-04T14:11:37.002Z</time></trkpt><trkpt lat="43.01736916084795" lon="11.724544657725412"><ele>289.0</ele><time>2026-05-04T14:11:40.001Z</time></trkpt><trkpt lat="43.01742025057262" lon="11.724604583512196"><ele>289.0</ele><time>2026-05-04T14:11:42.001Z</time></trkpt><trkpt lat="43.017475757315246" lon="11.724662915729331"><ele>289.0</ele><time>2026-05-04T14:11:45.001Z</time></trkpt><trkpt lat="43.01752768119884" lon="11.724721646324575"><ele>289.0</ele><time>2026-05-04T14:11:49.001Z</time></trkpt><trkpt lat="43.01745622564449" lon="11.72464252958794"><ele>289.0</ele><time>2026-05-04T14:12:38.001Z</time></trkpt><trkpt lat="43.017398050559464" lon="11.724581309956786"><ele>289.0</ele><time>2026-05-04T14:12:40.001Z</time></trkpt><trkpt lat="43.01734672594425" lon="11.724529789054777"><ele>289.0</ele><time>2026-05-04T14:12:42.001Z</time></trkpt><trkpt lat="43.017297813125374" lon="11.724461450743089"><ele>289.0</ele><time>2026-05-04T14:12:45.001Z</time></trkpt><trkpt lat="43.01722646074647" lon="11.72435579692698"><ele>289.0</ele><time>2026-05-04T14:12:48.001Z</time></trkpt><trkpt lat="43.01717241698715" lon="11.72426378369546"><ele>289.0</ele><time>2026-05-04T14:12:51.001Z</time></trkpt><trkpt lat="43.01711838876117" lon="11.724173901744763"><ele>289.0</ele><time>2026-05-04T14:12:53.001Z</time></trkpt><trkpt lat="43.01705335332243" lon="11.724046215564407"><ele>289.0</ele><time>2026-05-04T14:12:55.001Z</time></trkpt><trkpt lat="43.01700491038884" lon="11.72396164428471"><ele>289.0</ele><time>2026-05-04T14:12:56.001Z</time></trkpt><trkpt lat="43.01696296696322" lon="11.723857340545571"><ele>289.0</ele><time>2026-05-04T14:12:57.001Z</time></trkpt><trkpt lat="43.0169091739367" lon="11.723748367410057"><ele>289.0</ele><time>2026-05-04T14:12:58.001Z</time></trkpt><trkpt lat="43.016876541996666" lon="11.723672273362508"><ele>289.0</ele><time>2026-05-04T14:12:59.001Z</time></trkpt><trkpt lat="43.016844569138264" lon="11.723590527238864"><ele>288.59999999999997</ele><time>2026-05-04T14:13:00.001Z</time></trkpt><trkpt lat="43.016804049731405" lon="11.72349934267735"><ele>288.2</ele><time>2026-05-04T14:13:01.001Z</time></trkpt><trkpt lat="43.016774864473476" lon="11.723370365189416"><ele>287.79999999999995</ele><time>2026-05-04T14:13:03.001Z</time></trkpt><trkpt lat="43.016800562238785" lon="11.723212488081266"><ele>287.4</ele><time>2026-05-04T14:13:05.001Z</time></trkpt><trkpt lat="43.016796364519706" lon="11.723120404747007"><ele>287.0</ele><time>2026-05-04T14:13:06.001Z</time></trkpt><trkpt lat="43.0167683384842" lon="11.722980768332196"><ele>287.0</ele><time>2026-05-04T14:13:08.001Z</time></trkpt><trkpt lat="43.01670634945001" lon="11.72284743702471"><ele>287.0</ele><time>2026-05-04T14:13:10.001Z</time></trkpt><trkpt lat="43.01668300595898" lon="11.722718331575354"><ele>287.0</ele><time>2026-05-04T14:13:12.001Z</time></trkpt><trkpt lat="43.01665948846172" lon="11.72252136150821"><ele>287.0</ele><time>2026-05-04T14:13:14.001Z</time></trkpt><trkpt lat="43.016644134895266" lon="11.722412226437008"><ele>287.0</ele><time>2026-05-04T14:13:15.001Z</time></trkpt><trkpt lat="43.01661416228676" lon="11.72225892315362"><ele>288.0</ele><time>2026-05-04T14:13:17.001Z</time></trkpt><trkpt lat="43.016604886278934" lon="11.722153494965557"><ele>289.0</ele><time>2026-05-04T14:13:18.001Z</time></trkpt><trkpt lat="43.01659596164601" lon="11.722035130392523"><ele>290.0</ele><time>2026-05-04T14:13:19.001Z</time></trkpt><trkpt lat="43.01659534156855" lon="11.7219445644834"><ele>291.0</ele><time>2026-05-04T14:13:20.001Z</time></trkpt><trkpt lat="43.01657525133858" lon="11.72178729054823"><ele>292.0</ele><time>2026-05-04T14:13:22.001Z</time></trkpt><trkpt lat="43.01655405778608" lon="11.721693703957245"><ele>293.0</ele><time>2026-05-04T14:13:23.002Z</time></trkpt><trkpt lat="43.01654715188453" lon="11.721599377077467"><ele>293.1666666666667</ele><time>2026-05-04T14:13:24.002Z</time></trkpt><trkpt lat="43.01653733304626" lon="11.721510551507661"><ele>293.33333333333337</ele><time>2026-05-04T14:13:25.002Z</time></trkpt><trkpt lat="43.01652474949898" lon="11.721410644851384"><ele>293.5</ele><time>2026-05-04T14:13:26.002Z</time></trkpt><trkpt lat="43.016494888566584" lon="11.721290757949884"><ele>293.6666666666667</ele><time>2026-05-04T14:13:28.002Z</time></trkpt><trkpt lat="43.01644263491284" lon="11.721193308495986"><ele>293.8333333333333</ele><time>2026-05-04T14:13:31.002Z</time></trkpt><trkpt lat="43.01642121134718" lon="11.72106678572098"><ele>294.0</ele><time>2026-05-04T14:13:34.002Z</time></trkpt><trkpt lat="43.016470489879545" lon="11.720975020942731"><ele>294.5</ele><time>2026-05-04T14:13:36.002Z</time></trkpt><trkpt lat="43.016539841904574" lon="11.72084030951627"><ele>295.0</ele><time>2026-05-04T14:13:38.002Z</time></trkpt><trkpt lat="43.016579340894474" lon="11.72075629973299"><ele>295.5</ele><time>2026-05-04T14:13:39.002Z</time></trkpt><trkpt lat="43.01661389993993" lon="11.720626322037536"><ele>296.0</ele><time>2026-05-04T14:13:41.002Z</time></trkpt><trkpt lat="43.01667995990932" lon="11.720615027166373"><ele>296.5</ele><time>2026-05-04T14:13:45.002Z</time></trkpt><trkpt lat="43.0167238440847" lon="11.720686054972491"><ele>297.0</ele><time>2026-05-04T14:13:47.001Z</time></trkpt><trkpt lat="43.016800542723935" lon="11.720755051786272"><ele>295.0</ele><time>2026-05-04T14:13:49.001Z</time></trkpt><trkpt lat="43.01692509211533" lon="11.720791027253412"><ele>293.0</ele><time>2026-05-04T14:13:51.001Z</time></trkpt><trkpt lat="43.0169919147615" lon="11.720808409910425"><ele>291.0</ele><time>2026-05-04T14:13:52.001Z</time></trkpt><trkpt lat="43.01706288584079" lon="11.720816006320403"><ele>289.0</ele><time>2026-05-04T14:13:53.001Z</time></trkpt><trkpt lat="43.01713186013904" lon="11.720814058366969"><ele>287.0</ele><time>2026-05-04T14:13:54.001Z</time></trkpt><trkpt lat="43.017205919076495" lon="11.720822227273493"><ele>285.0</ele><time>2026-05-04T14:13:55.001Z</time></trkpt><trkpt lat="43.017282914148616" lon="11.720843152695043"><ele>285.0</ele><time>2026-05-04T14:13:56.001Z</time></trkpt><trkpt lat="43.01735142500507" lon="11.72086659199361"><ele>285.0</ele><time>2026-05-04T14:13:57.001Z</time></trkpt><trkpt lat="43.01741079348682" lon="11.720895636438668"><ele>285.0</ele><time>2026-05-04T14:13:58.001Z</time></trkpt><trkpt lat="43.01751074936645" lon="11.720933868136994"><ele>285.0</ele><time>2026-05-04T14:14:00.001Z</time></trkpt><trkpt lat="43.01760221400224" lon="11.720986274704863"><ele>285.0</ele><time>2026-05-04T14:14:02.001Z</time></trkpt><trkpt lat="43.01767649704069" lon="11.720948016733086"><ele>285.0</ele><time>2026-05-04T14:14:05.001Z</time></trkpt><trkpt lat="43.01771507224469" lon="11.720858730254262"><ele>285.2</ele><time>2026-05-04T14:14:07.001Z</time></trkpt><trkpt lat="43.01771053687187" lon="11.720725412488614"><ele>285.4</ele><time>2026-05-04T14:14:09.001Z</time></trkpt><trkpt lat="43.017755090930955" lon="11.72059086839913"><ele>285.6</ele><time>2026-05-04T14:14:11.001Z</time></trkpt><trkpt lat="43.017809540028274" lon="11.720511413550264"><ele>285.8</ele><time>2026-05-04T14:14:13.001Z</time></trkpt><trkpt lat="43.017778184005344" lon="11.720404367229731"><ele>286.0</ele><time>2026-05-04T14:14:15.001Z</time></trkpt><trkpt lat="43.017672042340905" lon="11.720365810152716"><ele>286.0</ele><time>2026-05-04T14:14:17.001Z</time></trkpt><trkpt lat="43.01759395264783" lon="11.720320376474193"><ele>286.0</ele><time>2026-05-04T14:14:18.001Z</time></trkpt><trkpt lat="43.017527291794096" lon="11.720285670370146"><ele>286.0</ele><time>2026-05-04T14:14:19.001Z</time></trkpt><trkpt lat="43.017451728829776" lon="11.720255307904859"><ele>286.0</ele><time>2026-05-04T14:14:20.001Z</time></trkpt><trkpt lat="43.01738341202039" lon="11.720215533469467"><ele>286.0</ele><time>2026-05-04T14:14:21.001Z</time></trkpt><trkpt lat="43.01729098860378" lon="11.720111919908101"><ele>286.0</ele><time>2026-05-04T14:14:23.001Z</time></trkpt><trkpt lat="43.01723690493978" lon="11.720012137588824"><ele>285.2</ele><time>2026-05-04T14:14:24.001Z</time></trkpt><trkpt lat="43.01716974225512" lon="11.719892461625356"><ele>284.40000000000003</ele><time>2026-05-04T14:14:25.001Z</time></trkpt><trkpt lat="43.017100815532096" lon="11.719786930248377"><ele>283.6</ele><time>2026-05-04T14:14:26.001Z</time></trkpt><trkpt lat="43.01701636370487" lon="11.719684224897767"><ele>282.8</ele><time>2026-05-04T14:14:27.001Z</time></trkpt><trkpt lat="43.01694255446734" lon="11.719594466184317"><ele>282.0</ele><time>2026-05-04T14:14:28.001Z</time></trkpt><trkpt lat="43.01688326949706" lon="11.719509447145121"><ele>282.0</ele><time>2026-05-04T14:14:29.001Z</time></trkpt><trkpt lat="43.016807569881124" lon="11.719418220195756"><ele>282.0</ele><time>2026-05-04T14:14:31.001Z</time></trkpt><trkpt lat="43.016765408824064" lon="11.719329405659177"><ele>282.0</ele><time>2026-05-04T14:14:33.001Z</time></trkpt><trkpt lat="43.01674022818053" lon="11.719233885609455"><ele>282.0</ele><time>2026-05-04T14:14:35.001Z</time></trkpt><trkpt lat="43.01675966940286" lon="11.719087319196388"><ele>282.0</ele><time>2026-05-04T14:14:37.001Z</time></trkpt><trkpt lat="43.01678477904035" lon="11.719008215452893"><ele>282.0</ele><time>2026-05-04T14:14:38.001Z</time></trkpt><trkpt lat="43.016819290529675" lon="11.718898788110891"><ele>282.3333333333333</ele><time>2026-05-04T14:14:39.001Z</time></trkpt><trkpt lat="43.016858270686534" lon="11.718782529520713"><ele>282.6666666666667</ele><time>2026-05-04T14:14:40.001Z</time></trkpt><trkpt lat="43.01689091651089" lon="11.718679685630569"><ele>283.0</ele><time>2026-05-04T14:14:41.001Z</time></trkpt><trkpt lat="43.01692106043749" lon="11.718589095193131"><ele>283.33333333333337</ele><time>2026-05-04T14:14:42.001Z</time></trkpt><trkpt lat="43.01694768828416" lon="11.718504333630008"><ele>283.6666666666667</ele><time>2026-05-04T14:14:43.001Z</time></trkpt><trkpt lat="43.016978509688194" lon="11.718400390281584"><ele>284.0</ele><time>2026-05-04T14:14:44.001Z</time></trkpt><trkpt lat="43.01700679498772" lon="11.718278620746155"><ele>284.2</ele><time>2026-05-04T14:14:45.001Z</time></trkpt><trkpt lat="43.017026869228836" lon="11.718156937530479"><ele>284.4</ele><time>2026-05-04T14:14:46.001Z</time></trkpt><trkpt lat="43.01704367555152" lon="11.718054899177611"><ele>284.6</ele><time>2026-05-04T14:14:47.001Z</time></trkpt><trkpt lat="43.01706734624949" lon="11.717950101274786"><ele>284.8</ele><time>2026-05-04T14:14:48.001Z</time></trkpt><trkpt lat="43.01709845435651" lon="11.717819557905644"><ele>285.0</ele><time>2026-05-04T14:14:49.001Z</time></trkpt><trkpt lat="43.01712807863495" lon="11.717677540978203"><ele>285.0</ele><time>2026-05-04T14:14:50.001Z</time></trkpt><trkpt lat="43.01715302190788" lon="11.717537873531402"><ele>285.0</ele><time>2026-05-04T14:14:51.001Z</time></trkpt><trkpt lat="43.017180348185896" lon="11.717416379714942"><ele>285.0</ele><time>2026-05-04T14:14:52.001Z</time></trkpt><trkpt lat="43.017210983489775" lon="11.717309188776664"><ele>285.0</ele><time>2026-05-04T14:14:53.001Z</time></trkpt><trkpt lat="43.017230292949876" lon="11.71721584147203"><ele>285.0</ele><time>2026-05-04T14:14:54.001Z</time></trkpt><trkpt lat="43.01723772123975" lon="11.71709476563327"><ele>285.0</ele><time>2026-05-04T14:14:55.001Z</time></trkpt><trkpt lat="43.01722786719551" lon="11.71694661350647"><ele>285.0</ele><time>2026-05-04T14:14:56.001Z</time></trkpt><trkpt lat="43.017234523263" lon="11.716760113450839"><ele>285.0</ele><time>2026-05-04T14:14:57.001Z</time></trkpt><trkpt lat="43.01726568062782" lon="11.716563452455077"><ele>285.0</ele><time>2026-05-04T14:14:58.001Z</time></trkpt><trkpt lat="43.01731272779902" lon="11.716342449850535"><ele>285.0</ele><time>2026-05-04T14:14:59.001Z</time></trkpt><trkpt lat="43.01735148676193" lon="11.716119528310559"><ele>285.0</ele><time>2026-05-04T14:15:00.001Z</time></trkpt><trkpt lat="43.017383100174875" lon="11.715919886932374"><ele>285.0</ele><time>2026-05-04T14:15:01.001Z</time></trkpt><trkpt lat="43.01740994513484" lon="11.715759541425005"><ele>285.0</ele><time>2026-05-04T14:15:02.001Z</time></trkpt><trkpt lat="43.017444313709035" lon="11.71561319347458"><ele>284.75</ele><time>2026-05-04T14:15:03.001Z</time></trkpt><trkpt lat="43.01749278229074" lon="11.715467676106531"><ele>284.5</ele><time>2026-05-04T14:15:04.001Z</time></trkpt><trkpt lat="43.01754693203272" lon="11.71529341577775"><ele>284.25</ele><time>2026-05-04T14:15:05.001Z</time></trkpt><trkpt lat="43.01758496168647" lon="11.715126070817808"><ele>284.0</ele><time>2026-05-04T14:15:06.001Z</time></trkpt><trkpt lat="43.0176175884234" lon="11.714962924620355"><ele>284.0</ele><time>2026-05-04T14:15:07.001Z</time></trkpt><trkpt lat="43.0176521235784" lon="11.71482544513825"><ele>284.0</ele><time>2026-05-04T14:15:08.001Z</time></trkpt><trkpt lat="43.01768958859177" lon="11.714725104320486"><ele>284.0</ele><time>2026-05-04T14:15:09.001Z</time></trkpt><trkpt lat="43.01774295759973" lon="11.714640794528314"><ele>284.0</ele><time>2026-05-04T14:15:10.001Z</time></trkpt><trkpt lat="43.01780346903082" lon="11.714558246061616"><ele>284.0</ele><time>2026-05-04T14:15:11.001Z</time></trkpt><trkpt lat="43.01786074331008" lon="11.714490108365686"><ele>284.0</ele><time>2026-05-04T14:15:12.001Z</time></trkpt><trkpt lat="43.017890411525364" lon="11.714414136790671"><ele>283.83333333333337</ele><time>2026-05-04T14:15:13.001Z</time></trkpt><trkpt lat="43.01790408745831" lon="11.714318813103256"><ele>283.6666666666667</ele><time>2026-05-04T14:15:14.001Z</time></trkpt><trkpt lat="43.01794557835596" lon="11.71419096944319"><ele>283.5</ele><time>2026-05-04T14:15:16.001Z</time></trkpt><trkpt lat="43.01803099616602" lon="11.714178924004894"><ele>283.3333333333333</ele><time>2026-05-04T14:15:18.001Z</time></trkpt><trkpt lat="43.01810139811856" lon="11.71420145312958"><ele>283.16666666666663</ele><time>2026-05-04T14:15:19.001Z</time></trkpt><trkpt lat="43.01817785212788" lon="11.714238098370753"><ele>283.0</ele><time>2026-05-04T14:15:20.001Z</time></trkpt><trkpt lat="43.018233926105616" lon="11.71427754789517"><ele>283.4</ele><time>2026-05-04T14:15:21.001Z</time></trkpt><trkpt lat="43.018346488523605" lon="11.714339893262247"><ele>283.8</ele><time>2026-05-04T14:15:23.001Z</time></trkpt><trkpt lat="43.01846286738425" lon="11.714362868813922"><ele>284.2</ele><time>2026-05-04T14:15:25.001Z</time></trkpt><trkpt lat="43.018579524325006" lon="11.714402618700815"><ele>284.6</ele><time>2026-05-04T14:15:27.001Z</time></trkpt><trkpt lat="43.01864194081243" lon="11.714422209281937"><ele>285.0</ele><time>2026-05-04T14:15:28.001Z</time></trkpt><trkpt lat="43.01870538812076" lon="11.714439777878505"><ele>285.0</ele><time>2026-05-04T14:15:29.001Z</time></trkpt><trkpt lat="43.018773956356114" lon="11.714457016302955"><ele>285.0</ele><time>2026-05-04T14:15:30.001Z</time></trkpt><trkpt lat="43.01885361036319" lon="11.714478240015058"><ele>285.0</ele><time>2026-05-04T14:15:31.001Z</time></trkpt><trkpt lat="43.01892456484607" lon="11.714498924670533"><ele>285.0</ele><time>2026-05-04T14:15:32.001Z</time></trkpt><trkpt lat="43.01898548481617" lon="11.71452621717065"><ele>285.0</ele><time>2026-05-04T14:15:33.001Z</time></trkpt><trkpt lat="43.01910497263349" lon="11.714560518171055"><ele>285.0</ele><time>2026-05-04T14:15:35.001Z</time></trkpt><trkpt lat="43.019178063534035" lon="11.714579254187484"><ele>285.1666666666667</ele><time>2026-05-04T14:15:36.001Z</time></trkpt><trkpt lat="43.019244724584695" lon="11.714598739444757"><ele>285.3333333333333</ele><time>2026-05-04T14:15:37.001Z</time></trkpt><trkpt lat="43.0193102626547" lon="11.714627577850246"><ele>285.5</ele><time>2026-05-04T14:15:38.001Z</time></trkpt><trkpt lat="43.01943258836591" lon="11.714651875768983"><ele>285.66666666666663</ele><time>2026-05-04T14:15:40.001Z</time></trkpt><trkpt lat="43.019511705587156" lon="11.714670251133306"><ele>285.8333333333333</ele><time>2026-05-04T14:15:41.001Z</time></trkpt><trkpt lat="43.01959154209239" lon="11.714696508043168"><ele>286.0</ele><time>2026-05-04T14:15:42.001Z</time></trkpt><trkpt lat="43.0196591765667" lon="11.714720842049879"><ele>285.99999999999994</ele><time>2026-05-04T14:15:43.001Z</time></trkpt><trkpt lat="43.01972192547216" lon="11.71474269857431"><ele>286.0</ele><time>2026-05-04T14:15:44.001Z</time></trkpt><trkpt lat="43.01980188635115" lon="11.714766717054363"><ele>286.0</ele><time>2026-05-04T14:15:45.001Z</time></trkpt><trkpt lat="43.01989305660132" lon="11.714791202670321"><ele>286.0</ele><time>2026-05-04T14:15:46.001Z</time></trkpt><trkpt lat="43.01995924392312" lon="11.714801815366682"><ele>286.0</ele><time>2026-05-04T14:15:47.001Z</time></trkpt><trkpt lat="43.02002190167241" lon="11.714815567271808"><ele>285.99999999999994</ele><time>2026-05-04T14:15:48.001Z</time></trkpt><trkpt lat="43.02008338675365" lon="11.714834873685934"><ele>286.0</ele><time>2026-05-04T14:15:49.001Z</time></trkpt><trkpt lat="43.02017645599926" lon="11.714865703862934"><ele>286.2</ele><time>2026-05-04T14:15:50.001Z</time></trkpt><trkpt lat="43.02025217513839" lon="11.714892248491491"><ele>286.40000000000003</ele><time>2026-05-04T14:15:51.001Z</time></trkpt><trkpt lat="43.02032975167538" lon="11.714913506676051"><ele>286.6</ele><time>2026-05-04T14:15:52Z</time></trkpt><trkpt lat="43.0204109706078" lon="11.714935644865639"><ele>286.8</ele><time>2026-05-04T14:15:53Z</time></trkpt><trkpt lat="43.02051313786352" lon="11.714962695214599"><ele>287.0</ele><time>2026-05-04T14:15:54Z</time></trkpt><trkpt lat="43.02061995109722" lon="11.7149921260657"><ele>287.0</ele><time>2026-05-04T14:15:55Z</time></trkpt><trkpt lat="43.02071954152571" lon="11.715015720478725"><ele>287.0</ele><time>2026-05-04T14:15:56Z</time></trkpt><trkpt lat="43.02082610808692" lon="11.715044649725678"><ele>287.0</ele><time>2026-05-04T14:15:57Z</time></trkpt><trkpt lat="43.02092163983738" lon="11.715075342767392"><ele>287.0</ele><time>2026-05-04T14:15:58Z</time></trkpt><trkpt lat="43.020994485037185" lon="11.715102045970008"><ele>287.0</ele><time>2026-05-04T14:15:59Z</time></trkpt><trkpt lat="43.021067335089484" lon="11.715122794309575"><ele>287.1666666666667</ele><time>2026-05-04T14:16:00Z</time></trkpt><trkpt lat="43.02114272382211" lon="11.715142487218248"><ele>287.33333333333337</ele><time>2026-05-04T14:16:01Z</time></trkpt><trkpt lat="43.02121740578197" lon="11.715168320413387"><ele>287.5</ele><time>2026-05-04T14:16:02Z</time></trkpt><trkpt lat="43.0213030936981" lon="11.715197483688979"><ele>287.6666666666667</ele><time>2026-05-04T14:16:03Z</time></trkpt><trkpt lat="43.02138442542273" lon="11.71522468917716"><ele>287.8333333333333</ele><time>2026-05-04T14:16:04Z</time></trkpt><trkpt lat="43.021462179518" lon="11.715243227801553"><ele>288.0</ele><time>2026-05-04T14:16:05Z</time></trkpt><trkpt lat="43.02154721816219" lon="11.715268223660663"><ele>288.1666666666667</ele><time>2026-05-04T14:16:06Z</time></trkpt><trkpt lat="43.02163054640585" lon="11.715288947718827"><ele>288.3333333333333</ele><time>2026-05-04T14:16:07Z</time></trkpt><trkpt lat="43.021707610245585" lon="11.715312656062862"><ele>288.5</ele><time>2026-05-04T14:16:08Z</time></trkpt><trkpt lat="43.0218002693933" lon="11.715350082987007"><ele>288.66666666666663</ele><time>2026-05-04T14:16:09Z</time></trkpt><trkpt lat="43.02188136503783" lon="11.715368201466982"><ele>288.8333333333333</ele><time>2026-05-04T14:16:10Z</time></trkpt><trkpt lat="43.02195012222301" lon="11.715393852418213"><ele>289.0</ele><time>2026-05-04T14:16:11Z</time></trkpt><trkpt lat="43.022018905260246" lon="11.715425228893466"><ele>289.2</ele><time>2026-05-04T14:16:12Z</time></trkpt><trkpt lat="43.02212410886457" lon="11.715458185176397"><ele>289.4</ele><time>2026-05-04T14:16:13Z</time></trkpt><trkpt lat="43.02224041982371" lon="11.715491863651053"><ele>289.6</ele><time>2026-05-04T14:16:14Z</time></trkpt><trkpt lat="43.0223510765099" lon="11.715520639449966"><ele>289.8</ele><time>2026-05-04T14:16:15Z</time></trkpt><trkpt lat="43.02244338117357" lon="11.71555217819719"><ele>290.0</ele><time>2026-05-04T14:16:16Z</time></trkpt><trkpt lat="43.02252660422" lon="11.715572628222827"><ele>290.4</ele><time>2026-05-04T14:16:17Z</time></trkpt><trkpt lat="43.02260872141209" lon="11.715591254540417"><ele>290.8</ele><time>2026-05-04T14:16:18Z</time></trkpt><trkpt lat="43.02268876480427" lon="11.715611203260714"><ele>291.2</ele><time>2026-05-04T14:16:19Z</time></trkpt><trkpt lat="43.022820136399496" lon="11.71565756284462"><ele>291.6</ele><time>2026-05-04T14:16:21Z</time></trkpt><trkpt lat="43.02289709392159" lon="11.715677338422205"><ele>292.0</ele><time>2026-05-04T14:16:22Z</time></trkpt><trkpt lat="43.02297627150176" lon="11.715700307283589"><ele>292.0</ele><time>2026-05-04T14:16:23Z</time></trkpt><trkpt lat="43.02305781864697" lon="11.715730631057339"><ele>292.0</ele><time>2026-05-04T14:16:24Z</time></trkpt><trkpt lat="43.023158957649855" lon="11.715759575228613"><ele>292.0</ele><time>2026-05-04T14:16:25Z</time></trkpt><trkpt lat="43.02325898893848" lon="11.71579027678343"><ele>292.0</ele><time>2026-05-04T14:16:26Z</time></trkpt><trkpt lat="43.02335658500106" lon="11.715819029751556"><ele>292.0</ele><time>2026-05-04T14:16:27Z</time></trkpt><trkpt lat="43.02346544712011" lon="11.715847603044166"><ele>292.2</ele><time>2026-05-04T14:16:28Z</time></trkpt><trkpt lat="43.02357612157508" lon="11.715866726646551"><ele>292.4</ele><time>2026-05-04T14:16:29Z</time></trkpt><trkpt lat="43.02366573227966" lon="11.715887683564821"><ele>292.6</ele><time>2026-05-04T14:16:30Z</time></trkpt><trkpt lat="43.02377799984458" lon="11.715898095232562"><ele>292.8</ele><time>2026-05-04T14:16:32Z</time></trkpt><trkpt lat="43.02384339299894" lon="11.715908557468646"><ele>293.0</ele><time>2026-05-04T14:16:34Z</time></trkpt><trkpt lat="43.02386813308696" lon="11.716006577768894"><ele>293.0</ele><time>2026-05-04T14:16:37Z</time></trkpt><trkpt lat="43.02386893056391" lon="11.716133642789208"><ele>293.0</ele><time>2026-05-04T14:16:38Z</time></trkpt><trkpt lat="43.02384827625536" lon="11.716308361943849"><ele>293.0</ele><time>2026-05-04T14:16:39Z</time></trkpt><trkpt lat="43.02383049194483" lon="11.716498852411705"><ele>293.0</ele><time>2026-05-04T14:16:40Z</time></trkpt><trkpt lat="43.02381927251088" lon="11.716697010670735"><ele>293.33333333333337</ele><time>2026-05-04T14:16:41Z</time></trkpt><trkpt lat="43.02380510642519" lon="11.71691151110977"><ele>293.6666666666667</ele><time>2026-05-04T14:16:42Z</time></trkpt><trkpt lat="43.02379304501263" lon="11.717139906606379"><ele>294.0</ele><time>2026-05-04T14:16:43Z</time></trkpt><trkpt lat="43.023782017951" lon="11.717372903514407"><ele>294.0</ele><time>2026-05-04T14:16:44Z</time></trkpt><trkpt lat="43.02376992612969" lon="11.717617524963158"><ele>294.0</ele><time>2026-05-04T14:16:45Z</time></trkpt><trkpt lat="43.02376216917432" lon="11.71787202379416"><ele>294.0</ele><time>2026-05-04T14:16:46Z</time></trkpt><trkpt lat="43.02375659148856" lon="11.718131955491142"><ele>294.0</ele><time>2026-05-04T14:16:47Z</time></trkpt><trkpt lat="43.02374940385159" lon="11.718392948819941"><ele>294.0</ele><time>2026-05-04T14:16:48Z</time></trkpt><trkpt lat="43.02374094231952" lon="11.718667116211924"><ele>294.0</ele><time>2026-05-04T14:16:49Z</time></trkpt><trkpt lat="43.02373464358652" lon="11.718952577014077"><ele>294.0</ele><time>2026-05-04T14:16:50Z</time></trkpt><trkpt lat="43.023731925415106" lon="11.719231119630933"><ele>294.0</ele><time>2026-05-04T14:16:51Z</time></trkpt><trkpt lat="43.023726222550884" lon="11.71951979973734"><ele>294.0</ele><time>2026-05-04T14:16:52Z</time></trkpt><trkpt lat="43.02372177122745" lon="11.719805103681926"><ele>294.3333333333333</ele><time>2026-05-04T14:16:53Z</time></trkpt><trkpt lat="43.02371809289598" lon="11.720088723470061"><ele>294.66666666666663</ele><time>2026-05-04T14:16:54Z</time></trkpt><trkpt lat="43.023712382191825" lon="11.72038231438505"><ele>295.0</ele><time>2026-05-04T14:16:55Z</time></trkpt><trkpt lat="43.0237087964769" lon="11.72067380377769"><ele>295.0</ele><time>2026-05-04T14:16:56.001Z</time></trkpt><trkpt lat="43.023705629435916" lon="11.720968360179011"><ele>295.0</ele><time>2026-05-04T14:16:57.001Z</time></trkpt><trkpt lat="43.023699605296855" lon="11.721266701306602"><ele>295.0</ele><time>2026-05-04T14:16:58.001Z</time></trkpt><trkpt lat="43.023693131919515" lon="11.721568676578624"><ele>295.3333333333333</ele><time>2026-05-04T14:16:59.001Z</time></trkpt><trkpt lat="43.02368622870054" lon="11.721870740241846"><ele>295.6666666666667</ele><time>2026-05-04T14:17:00.001Z</time></trkpt><trkpt lat="43.02367862974523" lon="11.72217484758921"><ele>296.0</ele><time>2026-05-04T14:17:01.001Z</time></trkpt><trkpt lat="43.0236715408261" lon="11.722483229966906"><ele>296.5</ele><time>2026-05-04T14:17:02.001Z</time></trkpt><trkpt lat="43.0236663057592" lon="11.722791017406166"><ele>297.0</ele><time>2026-05-04T14:17:03.001Z</time></trkpt><trkpt lat="43.023657947925365" lon="11.723108037812235"><ele>297.0</ele><time>2026-05-04T14:17:04.001Z</time></trkpt><trkpt lat="43.023651095141794" lon="11.723426001488676"><ele>297.0</ele><time>2026-05-04T14:17:05.001Z</time></trkpt><trkpt lat="43.02364372781151" lon="11.723737391432376"><ele>296.5</ele><time>2026-05-04T14:17:06.001Z</time></trkpt><trkpt lat="43.02363580265983" lon="11.724059696570283"><ele>296.0</ele><time>2026-05-04T14:17:07.001Z</time></trkpt><trkpt lat="43.023620148240205" lon="11.724381896996055"><ele>296.0</ele><time>2026-05-04T14:17:08.001Z</time></trkpt><trkpt lat="43.02359088229039" lon="11.724710970649252"><ele>296.0</ele><time>2026-05-04T14:17:09.001Z</time></trkpt><trkpt lat="43.023530311791845" lon="11.725021939538355"><ele>297.0</ele><time>2026-05-04T14:17:10.001Z</time></trkpt><trkpt lat="43.02344547043577" lon="11.725321116469663"><ele>298.0</ele><time>2026-05-04T14:17:11.001Z</time></trkpt><trkpt lat="43.02335522219227" lon="11.725609262546383"><ele>294.5</ele><time>2026-05-04T14:17:12.001Z</time></trkpt><trkpt lat="43.02326677026444" lon="11.725905972424146"><ele>291.0</ele><time>2026-05-04T14:17:13.001Z</time></trkpt><trkpt lat="43.02319402118238" lon="11.72619119492203"><ele>291.0</ele><time>2026-05-04T14:17:14.001Z</time></trkpt><trkpt lat="43.02311811140034" lon="11.72649636437448"><ele>291.0</ele><time>2026-05-04T14:17:15.001Z</time></trkpt><trkpt lat="43.023042830816344" lon="11.726798348292277"><ele>292.0</ele><time>2026-05-04T14:17:16.001Z</time></trkpt><trkpt lat="43.02296451793997" lon="11.727103966482108"><ele>293.0</ele><time>2026-05-04T14:17:17.001Z</time></trkpt><trkpt lat="43.02288418181526" lon="11.727409577151914"><ele>293.0</ele><time>2026-05-04T14:17:18.001Z</time></trkpt><trkpt lat="43.02280702128015" lon="11.72771022027208"><ele>293.0</ele><time>2026-05-04T14:17:19.001Z</time></trkpt><trkpt lat="43.022733266849194" lon="11.727997511231594"><ele>294.0</ele><time>2026-05-04T14:17:20.001Z</time></trkpt><trkpt lat="43.022673626596436" lon="11.728251641212154"><ele>295.0</ele><time>2026-05-04T14:17:21.001Z</time></trkpt><trkpt lat="43.022615243036725" lon="11.728493453286466"><ele>296.0</ele><time>2026-05-04T14:17:22.001Z</time></trkpt><trkpt lat="43.022555527305336" lon="11.728722915052298"><ele>297.0</ele><time>2026-05-04T14:17:23.001Z</time></trkpt><trkpt lat="43.02249820583954" lon="11.728930029723777"><ele>298.0</ele><time>2026-05-04T14:17:24.001Z</time></trkpt><trkpt lat="43.02244584234289" lon="11.729122108358034"><ele>299.0</ele><time>2026-05-04T14:17:25.001Z</time></trkpt><trkpt lat="43.02239226174002" lon="11.729315691727315"><ele>298.0</ele><time>2026-05-04T14:17:26.001Z</time></trkpt><trkpt lat="43.02233150823852" lon="11.729527102622317"><ele>297.0</ele><time>2026-05-04T14:17:27.001Z</time></trkpt><trkpt lat="43.022262430835816" lon="11.729757676586834"><ele>296.0</ele><time>2026-05-04T14:17:28.001Z</time></trkpt><trkpt lat="43.02219155494496" lon="11.730001791749686"><ele>297.0</ele><time>2026-05-04T14:17:29.001Z</time></trkpt><trkpt lat="43.02211590476804" lon="11.730266611390954"><ele>298.0</ele><time>2026-05-04T14:17:30.001Z</time></trkpt><trkpt lat="43.022042096264016" lon="11.730539947198144"><ele>299.0</ele><time>2026-05-04T14:17:31.001Z</time></trkpt><trkpt lat="43.021976177974445" lon="11.730835791302724"><ele>300.0</ele><time>2026-05-04T14:17:32.001Z</time></trkpt><trkpt lat="43.02192148516084" lon="11.73111450715098"><ele>301.0</ele><time>2026-05-04T14:17:33.001Z</time></trkpt><trkpt lat="43.021878888948564" lon="11.731370718150178"><ele>302.0</ele><time>2026-05-04T14:17:34.001Z</time></trkpt><trkpt lat="43.02184035810115" lon="11.731606068266094"><ele>302.0</ele><time>2026-05-04T14:17:35.001Z</time></trkpt><trkpt lat="43.021800219128416" lon="11.731819219500057"><ele>302.0</ele><time>2026-05-04T14:17:36.001Z</time></trkpt><trkpt lat="43.02174659040111" lon="11.732003915545652"><ele>302.0</ele><time>2026-05-04T14:17:37.001Z</time></trkpt><trkpt lat="43.02166782226407" lon="11.732155370710004"><ele>302.0</ele><time>2026-05-04T14:17:38.001Z</time></trkpt><trkpt lat="43.02155046637647" lon="11.73226464680603"><ele>303.6666666666667</ele><time>2026-05-04T14:17:39.001Z</time></trkpt><trkpt lat="43.02141130516221" lon="11.732318272563141"><ele>305.3333333333333</ele><time>2026-05-04T14:17:40.001Z</time></trkpt><trkpt lat="43.021259315217954" lon="11.732317580411474"><ele>307.0</ele><time>2026-05-04T14:17:41.001Z</time></trkpt><trkpt lat="43.02110083611282" lon="11.732290967340672"><ele>307.0</ele><time>2026-05-04T14:17:42.001Z</time></trkpt><trkpt lat="43.02093068319509" lon="11.7323065572764"><ele>307.0</ele><time>2026-05-04T14:17:43.001Z</time></trkpt><trkpt lat="43.020764746341705" lon="11.732407906637704"><ele>307.0</ele><time>2026-05-04T14:17:44.001Z</time></trkpt><trkpt lat="43.020591553425234" lon="11.732555686344643"><ele>308.66666666666663</ele><time>2026-05-04T14:17:45.001Z</time></trkpt><trkpt lat="43.02042925403137" lon="11.732722814045255"><ele>310.3333333333333</ele><time>2026-05-04T14:17:46.001Z</time></trkpt><trkpt lat="43.020277052891174" lon="11.73290340975475"><ele>312.0</ele><time>2026-05-04T14:17:47.001Z</time></trkpt><trkpt lat="43.02012586721166" lon="11.733082292558224"><ele>309.6666666666667</ele><time>2026-05-04T14:17:48.001Z</time></trkpt><trkpt lat="43.019976095495174" lon="11.733266549656058"><ele>307.33333333333337</ele><time>2026-05-04T14:17:49.001Z</time></trkpt><trkpt lat="43.01984738325361" lon="11.733465612046206"><ele>305.0</ele><time>2026-05-04T14:17:50.001Z</time></trkpt><trkpt lat="43.01973520545409" lon="11.733698530443782"><ele>305.0</ele><time>2026-05-04T14:17:51.001Z</time></trkpt><trkpt lat="43.019640701192266" lon="11.733951426854855"><ele>305.0</ele><time>2026-05-04T14:17:52.001Z</time></trkpt><trkpt lat="43.01956048665552" lon="11.734212738184535"><ele>305.0</ele><time>2026-05-04T14:17:53.001Z</time></trkpt><trkpt lat="43.01948224092954" lon="11.734487715471294"><ele>307.0</ele><time>2026-05-04T14:17:54.001Z</time></trkpt><trkpt lat="43.01940355102413" lon="11.734756236238994"><ele>309.0</ele><time>2026-05-04T14:17:55.001Z</time></trkpt><trkpt lat="43.01933791797286" lon="11.734984216643804"><ele>311.0</ele><time>2026-05-04T14:17:56.001Z</time></trkpt><trkpt lat="43.01926607209044" lon="11.735182500910382"><ele>309.33333333333337</ele><time>2026-05-04T14:17:57.001Z</time></trkpt><trkpt lat="43.01917250094418" lon="11.735343061662206"><ele>307.6666666666667</ele><time>2026-05-04T14:17:58Z</time></trkpt><trkpt lat="43.019046189915855" lon="11.73547661840454"><ele>306.0</ele><time>2026-05-04T14:17:59Z</time></trkpt><trkpt lat="43.018893361227654" lon="11.7355611116732"><ele>306.0</ele><time>2026-05-04T14:18:00Z</time></trkpt><trkpt lat="43.01872327815045" lon="11.735616607608728"><ele>306.0</ele><time>2026-05-04T14:18:00.999Z</time></trkpt><trkpt lat="43.01855911566311" lon="11.73569694009853"><ele>306.0</ele><time>2026-05-04T14:18:01.999Z</time></trkpt><trkpt lat="43.018394453319104" lon="11.735823444468908"><ele>304.6666666666667</ele><time>2026-05-04T14:18:02.999Z</time></trkpt><trkpt lat="43.01824251321163" lon="11.735985970060623"><ele>303.33333333333337</ele><time>2026-05-04T14:18:03.999Z</time></trkpt><trkpt lat="43.01810721271582" lon="11.736174754675062"><ele>302.0</ele><time>2026-05-04T14:18:04.999Z</time></trkpt><trkpt lat="43.017987760716466" lon="11.736375570286658"><ele>302.0</ele><time>2026-05-04T14:18:05.999Z</time></trkpt><trkpt lat="43.01786973958733" lon="11.736586588301792"><ele>302.0</ele><time>2026-05-04T14:18:06.999Z</time></trkpt><trkpt lat="43.0177549369449" lon="11.736817360572461"><ele>302.0</ele><time>2026-05-04T14:18:07.999Z</time></trkpt><trkpt lat="43.01765852587521" lon="11.737064615509437"><ele>302.33333333333337</ele><time>2026-05-04T14:18:08.999Z</time></trkpt><trkpt lat="43.01756413041699" lon="11.737330274894088"><ele>302.6666666666667</ele><time>2026-05-04T14:18:09.999Z</time></trkpt><trkpt lat="43.01747521150145" lon="11.737604190017908"><ele>303.0</ele><time>2026-05-04T14:18:10.999Z</time></trkpt><trkpt lat="43.017382243066145" lon="11.73788203842894"><ele>302.3333333333333</ele><time>2026-05-04T14:18:11.999Z</time></trkpt><trkpt lat="43.017287178342485" lon="11.738157172724176"><ele>301.66666666666663</ele><time>2026-05-04T14:18:13Z</time></trkpt><trkpt lat="43.01719248904331" lon="11.738427803835192"><ele>301.0</ele><time>2026-05-04T14:18:14Z</time></trkpt><trkpt lat="43.01708808051926" lon="11.738705064721612"><ele>301.0</ele><time>2026-05-04T14:18:15Z</time></trkpt><trkpt lat="43.01698798435756" lon="11.738972978130864"><ele>301.0</ele><time>2026-05-04T14:18:16Z</time></trkpt><trkpt lat="43.01689375299255" lon="11.739219103435074"><ele>301.0</ele><time>2026-05-04T14:18:17Z</time></trkpt><trkpt lat="43.01679314462614" lon="11.739437813849664"><ele>300.75</ele><time>2026-05-04T14:18:18Z</time></trkpt><trkpt lat="43.016690098074726" lon="11.739608664825624"><ele>300.5</ele><time>2026-05-04T14:18:19Z</time></trkpt><trkpt lat="43.01657847486875" lon="11.739738649796653"><ele>300.25</ele><time>2026-05-04T14:18:20Z</time></trkpt><trkpt lat="43.01648045262144" lon="11.739847513459127"><ele>300.0</ele><time>2026-05-04T14:18:21Z</time></trkpt><trkpt lat="43.01640888032715" lon="11.739924581178734"><ele>300.0</ele><time>2026-05-04T14:18:22Z</time></trkpt><trkpt lat="43.01635684690172" lon="11.739986820591934"><ele>300.0</ele><time>2026-05-04T14:18:23Z</time></trkpt><trkpt lat="43.01633417542208" lon="11.74008967548431"><ele>300.0</ele><time>2026-05-04T14:18:25Z</time></trkpt><trkpt lat="43.01634884013571" lon="11.740175205254468"><ele>300.0</ele><time>2026-05-04T14:18:27Z</time></trkpt><trkpt lat="43.01631364267007" lon="11.74026704043046"><ele>300.0</ele><time>2026-05-04T14:18:29Z</time></trkpt><trkpt lat="43.01641140195359" lon="11.740323614002726"><ele>300.0</ele><time>2026-05-04T14:18:39Z</time></trkpt><trkpt lat="43.016479856837115" lon="11.740285923890248"><ele>300.0</ele><time>2026-05-04T14:18:40Z</time></trkpt><trkpt lat="43.0165629527727" lon="11.74021458800391"><ele>300.0</ele><time>2026-05-04T14:18:42Z</time></trkpt><trkpt lat="43.016666723568925" lon="11.740166819360757"><ele>300.0</ele><time>2026-05-04T14:18:44Z</time></trkpt><trkpt lat="43.01674343455742" lon="11.740082631859321"><ele>300.0</ele><time>2026-05-04T14:18:46Z</time></trkpt><trkpt lat="43.01678285142179" lon="11.739959997430265"><ele>300.0</ele><time>2026-05-04T14:18:48Z</time></trkpt><trkpt lat="43.016812474453424" lon="11.739878953522457"><ele>300.6</ele><time>2026-05-04T14:18:49Z</time></trkpt><trkpt lat="43.01685623353987" lon="11.739784746057433"><ele>301.2</ele><time>2026-05-04T14:18:50Z</time></trkpt><trkpt lat="43.01691082427871" lon="11.739687600299028"><ele>301.8</ele><time>2026-05-04T14:18:51Z</time></trkpt><trkpt lat="43.0169714494104" lon="11.739587582414714"><ele>302.4</ele><time>2026-05-04T14:18:52Z</time></trkpt><trkpt lat="43.017042578081494" lon="11.739476687134202"><ele>303.0</ele><time>2026-05-04T14:18:53Z</time></trkpt><trkpt lat="43.01709955020155" lon="11.739384887525034"><ele>302.6</ele><time>2026-05-04T14:18:54Z</time></trkpt><trkpt lat="43.01715647245849" lon="11.739288516356773"><ele>302.20000000000005</ele><time>2026-05-04T14:18:55Z</time></trkpt><trkpt lat="43.017201130030884" lon="11.739179078545181"><ele>301.8</ele><time>2026-05-04T14:18:56Z</time></trkpt><trkpt lat="43.017223114372065" lon="11.739059046542247"><ele>301.40000000000003</ele><time>2026-05-04T14:18:57Z</time></trkpt><trkpt lat="43.01725383967729" lon="11.738909479608127"><ele>301.0</ele><time>2026-05-04T14:18:58Z</time></trkpt><trkpt lat="43.01728902913152" lon="11.738765600418597"><ele>301.0</ele><time>2026-05-04T14:18:59Z</time></trkpt><trkpt lat="43.01733183580681" lon="11.738612693563121"><ele>301.0</ele><time>2026-05-04T14:19:00Z</time></trkpt><trkpt lat="43.01736783069158" lon="11.738487302285264"><ele>301.0</ele><time>2026-05-04T14:19:01Z</time></trkpt><trkpt lat="43.01740877815812" lon="11.738384560932252"><ele>301.0</ele><time>2026-05-04T14:19:02Z</time></trkpt><trkpt lat="43.017454416081264" lon="11.738301704226878"><ele>301.0</ele><time>2026-05-04T14:19:03Z</time></trkpt><trkpt lat="43.017502020678215" lon="11.738243773514045"><ele>301.0</ele><time>2026-05-04T14:19:04Z</time></trkpt><trkpt lat="43.0176154265578" lon="11.738209856503316"><ele>301.3333333333333</ele><time>2026-05-04T14:19:06Z</time></trkpt><trkpt lat="43.0176779349183" lon="11.738228617583827"><ele>301.66666666666663</ele><time>2026-05-04T14:19:07Z</time></trkpt><trkpt lat="43.017747837825304" lon="11.738259610074312"><ele>302.0</ele><time>2026-05-04T14:19:08Z</time></trkpt><trkpt lat="43.01784400811767" lon="11.738283062606117"><ele>302.3333333333333</ele><time>2026-05-04T14:19:10Z</time></trkpt><trkpt lat="43.01788568743067" lon="11.7383577454368"><ele>302.6666666666667</ele><time>2026-05-04T14:19:12Z</time></trkpt><trkpt lat="43.01791744770371" lon="11.738443437564028"><ele>303.0</ele><time>2026-05-04T14:19:13Z</time></trkpt><trkpt lat="43.01795728710938" lon="11.738562078477461"><ele>304.25</ele><time>2026-05-04T14:19:14Z</time></trkpt><trkpt lat="43.018005930227204" lon="11.73871449003794"><ele>305.5</ele><time>2026-05-04T14:19:15Z</time></trkpt><trkpt lat="43.01805410035015" lon="11.738869308032617"><ele>306.75</ele><time>2026-05-04T14:19:16Z</time></trkpt><trkpt lat="43.01811387384224" lon="11.739023352800611"><ele>308.0</ele><time>2026-05-04T14:19:17Z</time></trkpt><trkpt lat="43.01817840829966" lon="11.73919121475972"><ele>308.0</ele><time>2026-05-04T14:19:18Z</time></trkpt><trkpt lat="43.018246982035" lon="11.739367157008578"><ele>308.0</ele><time>2026-05-04T14:19:19Z</time></trkpt><trkpt lat="43.01831355673289" lon="11.739553620345246"><ele>308.0</ele><time>2026-05-04T14:19:20Z</time></trkpt><trkpt lat="43.018375986924624" lon="11.739739822345223"><ele>308.0</ele><time>2026-05-04T14:19:21Z</time></trkpt><trkpt lat="43.018439929419216" lon="11.739910553859097"><ele>309.6</ele><time>2026-05-04T14:19:22Z</time></trkpt><trkpt lat="43.01849754089322" lon="11.740060187389249"><ele>311.20000000000005</ele><time>2026-05-04T14:19:23Z</time></trkpt><trkpt lat="43.01853862449121" lon="11.740164870115443"><ele>312.8</ele><time>2026-05-04T14:19:24Z</time></trkpt><trkpt lat="43.018575611339365" lon="11.740239683999562"><ele>314.40000000000003</ele><time>2026-05-04T14:19:25Z</time></trkpt><trkpt lat="43.01867522561756" lon="11.740297217623691"><ele>316.0</ele><time>2026-05-04T14:19:27Z</time></trkpt><trkpt lat="43.018743131172336" lon="11.740265702180842"><ele>316.0</ele><time>2026-05-04T14:19:28Z</time></trkpt><trkpt lat="43.01881475367842" lon="11.740209651434803"><ele>316.0</ele><time>2026-05-04T14:19:29Z</time></trkpt><trkpt lat="43.01888501318074" lon="11.740119201678304"><ele>316.0</ele><time>2026-05-04T14:19:30Z</time></trkpt><trkpt lat="43.018962444423785" lon="11.74004633171119"><ele>316.0</ele><time>2026-05-04T14:19:31Z</time></trkpt><trkpt lat="43.01903164459423" lon="11.740021077281297"><ele>316.0</ele><time>2026-05-04T14:19:32Z</time></trkpt><trkpt lat="43.01910266445242" lon="11.740025944147101"><ele>316.0</ele><time>2026-05-04T14:19:33Z</time></trkpt><trkpt lat="43.019166686778874" lon="11.740064381502583"><ele>317.8</ele><time>2026-05-04T14:19:34Z</time></trkpt><trkpt lat="43.01925298168087" lon="11.74019276659813"><ele>319.6</ele><time>2026-05-04T14:19:36Z</time></trkpt><trkpt lat="43.019280425426125" lon="11.740286988222547"><ele>321.4</ele><time>2026-05-04T14:19:37Z</time></trkpt><trkpt lat="43.01930688010799" lon="11.740430647162606"><ele>323.2</ele><time>2026-05-04T14:19:38Z</time></trkpt><trkpt lat="43.01934139439491" lon="11.740609602775336"><ele>325.0</ele><time>2026-05-04T14:19:39Z</time></trkpt><trkpt lat="43.019383482277355" lon="11.740767907684022"><ele>325.8</ele><time>2026-05-04T14:19:40Z</time></trkpt><trkpt lat="43.019416050553865" lon="11.740868524735628"><ele>326.6</ele><time>2026-05-04T14:19:41Z</time></trkpt><trkpt lat="43.019512136417696" lon="11.741009308223125"><ele>327.4</ele><time>2026-05-04T14:19:43.001Z</time></trkpt><trkpt lat="43.0195854991174" lon="11.741056620657158"><ele>328.2</ele><time>2026-05-04T14:19:44.001Z</time></trkpt><trkpt lat="43.01966185623865" lon="11.741075334081199"><ele>329.0</ele><time>2026-05-04T14:19:45.001Z</time></trkpt><trkpt lat="43.01975000843879" lon="11.741081419183434"><ele>329.0</ele><time>2026-05-04T14:19:46.001Z</time></trkpt><trkpt lat="43.0198716497693" lon="11.741068166556966"><ele>329.0</ele><time>2026-05-04T14:19:47.001Z</time></trkpt><trkpt lat="43.02001758099822" lon="11.741064499426875"><ele>329.0</ele><time>2026-05-04T14:19:48.001Z</time></trkpt><trkpt lat="43.02015096147668" lon="11.741068736121557"><ele>329.0</ele><time>2026-05-04T14:19:49.001Z</time></trkpt><trkpt lat="43.02025618792956" lon="11.741073514526985"><ele>331.6666666666667</ele><time>2026-05-04T14:19:50.001Z</time></trkpt><trkpt lat="43.02037176351524" lon="11.74107558893089"><ele>334.33333333333337</ele><time>2026-05-04T14:19:51.001Z</time></trkpt><trkpt lat="43.02046199276396" lon="11.74107291442803"><ele>337.0</ele><time>2026-05-04T14:19:52.001Z</time></trkpt><trkpt lat="43.020543415680336" lon="11.74109019775695"><ele>339.6666666666667</ele><time>2026-05-04T14:19:53.001Z</time></trkpt><trkpt lat="43.02060475687243" lon="11.741130057481294"><ele>342.3333333333333</ele><time>2026-05-04T14:19:54.001Z</time></trkpt><trkpt lat="43.02065106002967" lon="11.741195496338502"><ele>345.0</ele><time>2026-05-04T14:19:55.001Z</time></trkpt><trkpt lat="43.0206687444244" lon="11.741354716569615"><ele>345.0</ele><time>2026-05-04T14:19:57.001Z</time></trkpt><trkpt lat="43.0206447960316" lon="11.741436161140419"><ele>345.0</ele><time>2026-05-04T14:19:58.001Z</time></trkpt><trkpt lat="43.02059837595291" lon="11.741508203208413"><ele>345.0</ele><time>2026-05-04T14:19:59.001Z</time></trkpt><trkpt lat="43.02053516599575" lon="11.741592769364642"><ele>345.0</ele><time>2026-05-04T14:20:00.001Z</time></trkpt><trkpt lat="43.02046436742481" lon="11.741705121960223"><ele>345.0</ele><time>2026-05-04T14:20:01.001Z</time></trkpt><trkpt lat="43.02042962876837" lon="11.741794174979534"><ele>345.0</ele><time>2026-05-04T14:20:02.001Z</time></trkpt><trkpt lat="43.020462393762294" lon="11.741958959355546"><ele>345.2</ele><time>2026-05-04T14:20:03.998Z</time></trkpt><trkpt lat="43.02058362052808" lon="11.742033663350128"><ele>345.4</ele><time>2026-05-04T14:20:05.998Z</time></trkpt><trkpt lat="43.020662774860256" lon="11.742030153727057"><ele>345.6</ele><time>2026-05-04T14:20:06.998Z</time></trkpt><trkpt lat="43.02076305879986" lon="11.742023381959186"><ele>345.8</ele><time>2026-05-04T14:20:07.998Z</time></trkpt><trkpt lat="43.02087471921299" lon="11.742037409031914"><ele>346.0</ele><time>2026-05-04T14:20:08.998Z</time></trkpt><trkpt lat="43.02095444054554" lon="11.74207465490026"><ele>348.3333333333333</ele><time>2026-05-04T14:20:09.998Z</time></trkpt><trkpt lat="43.02103759705558" lon="11.742138762690248"><ele>350.66666666666663</ele><time>2026-05-04T14:20:10.998Z</time></trkpt><trkpt lat="43.021090343261996" lon="11.74220200143538"><ele>353.0</ele><time>2026-05-04T14:20:11.998Z</time></trkpt><trkpt lat="43.02113101850926" lon="11.742281577462672"><ele>355.3333333333333</ele><time>2026-05-04T14:20:12.998Z</time></trkpt><trkpt lat="43.02115260047757" lon="11.742381735527283"><ele>357.6666666666667</ele><time>2026-05-04T14:20:13.998Z</time></trkpt><trkpt lat="43.021180497399655" lon="11.742524361203687"><ele>360.0</ele><time>2026-05-04T14:20:14.998Z</time></trkpt><trkpt lat="43.02120643107692" lon="11.742705190814478"><ele>360.25</ele><time>2026-05-04T14:20:15.998Z</time></trkpt><trkpt lat="43.02124219683904" lon="11.742905380170242"><ele>360.5</ele><time>2026-05-04T14:20:16.998Z</time></trkpt><trkpt lat="43.02126882705249" lon="11.743095796922029"><ele>360.75</ele><time>2026-05-04T14:20:17.999Z</time></trkpt><trkpt lat="43.021298180021816" lon="11.743269009729648"><ele>361.0</ele><time>2026-05-04T14:20:18.999Z</time></trkpt><trkpt lat="43.02132066237697" lon="11.743420644948769"><ele>361.0</ele><time>2026-05-04T14:20:19.999Z</time></trkpt><trkpt lat="43.02133857233141" lon="11.743542250025175"><ele>361.0</ele><time>2026-05-04T14:20:20.999Z</time></trkpt><trkpt lat="43.021357017884405" lon="11.74363816723217"><ele>361.0</ele><time>2026-05-04T14:20:21.999Z</time></trkpt><trkpt lat="43.021423083608354" lon="11.743758352180258"><ele>361.0</ele><time>2026-05-04T14:20:23.999Z</time></trkpt><trkpt lat="43.02152680467584" lon="11.743812736811277"><ele>361.0</ele><time>2026-05-04T14:20:25.999Z</time></trkpt><trkpt lat="43.02159186038512" lon="11.74382366359533"><ele>363.20000000000005</ele><time>2026-05-04T14:20:26.999Z</time></trkpt><trkpt lat="43.021699821490756" lon="11.743723672087308"><ele>365.40000000000003</ele><time>2026-05-04T14:20:28.999Z</time></trkpt><trkpt lat="43.02177644568209" lon="11.74364811904852"><ele>367.6</ele><time>2026-05-04T14:20:29.999Z</time></trkpt><trkpt lat="43.021866825036646" lon="11.743570841022468"><ele>369.8</ele><time>2026-05-04T14:20:30.999Z</time></trkpt><trkpt lat="43.021952332624586" lon="11.74352237878781"><ele>372.0</ele><time>2026-05-04T14:20:31.999Z</time></trkpt><trkpt lat="43.02205064745896" lon="11.743480139602903"><ele>372.0</ele><time>2026-05-04T14:20:32.999Z</time></trkpt><trkpt lat="43.02215962892942" lon="11.74344761945593"><ele>372.0</ele><time>2026-05-04T14:20:33.999Z</time></trkpt><trkpt lat="43.02227150061308" lon="11.74342417578755"><ele>372.0</ele><time>2026-05-04T14:20:34.999Z</time></trkpt><trkpt lat="43.022366944139456" lon="11.743409055407907"><ele>372.0</ele><time>2026-05-04T14:20:35.999Z</time></trkpt><trkpt lat="43.02243464805608" lon="11.743407002343158"><ele>372.0</ele><time>2026-05-04T14:20:36.999Z</time></trkpt><trkpt lat="43.0225449183231" lon="11.743447268573656"><ele>373.6</ele><time>2026-05-04T14:20:38.999Z</time></trkpt><trkpt lat="43.02259869638414" lon="11.743507481137678"><ele>375.20000000000005</ele><time>2026-05-04T14:20:39.999Z</time></trkpt><trkpt lat="43.02263541640858" lon="11.743665696341502"><ele>376.8</ele><time>2026-05-04T14:20:41.999Z</time></trkpt><trkpt lat="43.022586106693225" lon="11.74384610153459"><ele>378.4</ele><time>2026-05-04T14:20:43.999Z</time></trkpt><trkpt lat="43.02255555451952" lon="11.743971436572213"><ele>380.0</ele><time>2026-05-04T14:20:44.999Z</time></trkpt><trkpt lat="43.0225501411707" lon="11.744073780923555"><ele>381.33333333333337</ele><time>2026-05-04T14:20:45.999Z</time></trkpt><trkpt lat="43.022574082334565" lon="11.744154897262108"><ele>382.6666666666667</ele><time>2026-05-04T14:20:46.999Z</time></trkpt><trkpt lat="43.022611618285474" lon="11.744233457417936"><ele>384.0</ele><time>2026-05-04T14:20:47.999Z</time></trkpt><trkpt lat="43.022665385569326" lon="11.744293623138384"><ele>385.33333333333337</ele><time>2026-05-04T14:20:48.999Z</time></trkpt><trkpt lat="43.02273889908496" lon="11.744348381745287"><ele>386.6666666666667</ele><time>2026-05-04T14:20:49.999Z</time></trkpt><trkpt lat="43.02283156213754" lon="11.74439478906293"><ele>388.0</ele><time>2026-05-04T14:20:51Z</time></trkpt><trkpt lat="43.02294782583665" lon="11.744443252177179"><ele>390.25</ele><time>2026-05-04T14:20:52Z</time></trkpt><trkpt lat="43.02306995454547" lon="11.74449060152195"><ele>392.5</ele><time>2026-05-04T14:20:53Z</time></trkpt><trkpt lat="43.02317794740102" lon="11.744542827557176"><ele>394.75</ele><time>2026-05-04T14:20:54Z</time></trkpt><trkpt lat="43.02328369387841" lon="11.744584859003691"><ele>397.0</ele><time>2026-05-04T14:20:55Z</time></trkpt><trkpt lat="43.02339893923121" lon="11.744635049669357"><ele>398.6</ele><time>2026-05-04T14:20:56Z</time></trkpt><trkpt lat="43.02351315486664" lon="11.744693185080177"><ele>400.20000000000005</ele><time>2026-05-04T14:20:57Z</time></trkpt><trkpt lat="43.02360096931971" lon="11.744741268762187"><ele>401.8</ele><time>2026-05-04T14:20:58Z</time></trkpt><trkpt lat="43.02367076583219" lon="11.744794285633613"><ele>403.4</ele><time>2026-05-04T14:20:59Z</time></trkpt><trkpt lat="43.0237323307612" lon="11.744937381536934"><ele>405.0</ele><time>2026-05-04T14:21:01Z</time></trkpt><trkpt lat="43.023734289055625" lon="11.745027018034927"><ele>405.0</ele><time>2026-05-04T14:21:02Z</time></trkpt><trkpt lat="43.02372263011784" lon="11.745121125090176"><ele>405.0</ele><time>2026-05-04T14:21:04Z</time></trkpt><trkpt lat="43.023651290183885" lon="11.74517948291694"><ele>405.0</ele><time>2026-05-04T14:21:20Z</time></trkpt><trkpt lat="43.02357308543041" lon="11.745236535183793"><ele>405.0</ele><time>2026-05-04T14:21:22Z</time></trkpt><trkpt lat="43.02347197587347" lon="11.745302101723956"><ele>405.0</ele><time>2026-05-04T14:21:24Z</time></trkpt><trkpt lat="43.02341375626608" lon="11.74533962555101"><ele>405.0</ele><time>2026-05-04T14:21:25Z</time></trkpt><trkpt lat="43.02331685324959" lon="11.7454113173865"><ele>404.6</ele><time>2026-05-04T14:21:27Z</time></trkpt><trkpt lat="43.023260251718895" lon="11.745521950028664"><ele>404.2</ele><time>2026-05-04T14:21:29Z</time></trkpt><trkpt lat="43.02326722471256" lon="11.745639455511876"><ele>403.79999999999995</ele><time>2026-05-04T14:21:31Z</time></trkpt><trkpt lat="43.02331765934792" lon="11.745749349108447"><ele>403.4</ele><time>2026-05-04T14:21:33Z</time></trkpt><trkpt lat="43.023406143943184" lon="11.745805684793444"><ele>403.0</ele><time>2026-05-04T14:21:35Z</time></trkpt><trkpt lat="43.02352095999678" lon="11.745799483253284"><ele>404.83333333333337</ele><time>2026-05-04T14:21:37Z</time></trkpt><trkpt lat="43.023595020334646" lon="11.745799720010353"><ele>406.6666666666667</ele><time>2026-05-04T14:21:38Z</time></trkpt><trkpt lat="43.02366467929953" lon="11.745792267800336"><ele>408.5</ele><time>2026-05-04T14:21:39Z</time></trkpt><trkpt lat="43.02373361158221" lon="11.745828700238102"><ele>410.33333333333337</ele><time>2026-05-04T14:21:41Z</time></trkpt><trkpt lat="43.023802898816555" lon="11.745940299326177"><ele>412.1666666666667</ele><time>2026-05-04T14:21:43Z</time></trkpt><trkpt lat="43.023809743291814" lon="11.746094764588902"><ele>414.0</ele><time>2026-05-04T14:21:45Z</time></trkpt><trkpt lat="43.023782103289726" lon="11.746259986415334"><ele>415.0</ele><time>2026-05-04T14:21:47Z</time></trkpt><trkpt lat="43.023759578060364" lon="11.746353713988023"><ele>416.0</ele><time>2026-05-04T14:21:48Z</time></trkpt><trkpt lat="43.02372883263481" lon="11.746448658536371"><ele>417.0</ele><time>2026-05-04T14:21:49Z</time></trkpt><trkpt lat="43.02369135990549" lon="11.746598001780258"><ele>418.0</ele><time>2026-05-04T14:21:51Z</time></trkpt><trkpt lat="43.02372282771753" lon="11.746735324763733"><ele>419.0</ele><time>2026-05-04T14:21:53Z</time></trkpt><trkpt lat="43.023812273552956" lon="11.746831358775408"><ele>419.0</ele><time>2026-05-04T14:21:55Z</time></trkpt><trkpt lat="43.023879072180996" lon="11.746867365826219"><ele>419.0</ele><time>2026-05-04T14:21:56Z</time></trkpt><trkpt lat="43.02396405992654" lon="11.746900732770643"><ele>419.0</ele><time>2026-05-04T14:21:57Z</time></trkpt><trkpt lat="43.024062195658765" lon="11.746959359054607"><ele>419.0</ele><time>2026-05-04T14:21:58Z</time></trkpt><trkpt lat="43.024164451867506" lon="11.747022504501182"><ele>419.0</ele><time>2026-05-04T14:21:59Z</time></trkpt><trkpt lat="43.02427168885657" lon="11.747092835895465"><ele>422.0</ele><time>2026-05-04T14:22:00Z</time></trkpt><trkpt lat="43.024374659182065" lon="11.747169930597476"><ele>425.0</ele><time>2026-05-04T14:22:01Z</time></trkpt><trkpt lat="43.02447952694805" lon="11.747239972929979"><ele>428.0</ele><time>2026-05-04T14:22:02Z</time></trkpt><trkpt lat="43.02458142808894" lon="11.74732886441896"><ele>431.0</ele><time>2026-05-04T14:22:03Z</time></trkpt><trkpt lat="43.02467412392114" lon="11.74742365213198"><ele>431.0</ele><time>2026-05-04T14:22:04Z</time></trkpt><trkpt lat="43.02476710966965" lon="11.7475173180427"><ele>431.0</ele><time>2026-05-04T14:22:05Z</time></trkpt><trkpt lat="43.024854805893895" lon="11.747610168839405"><ele>431.0</ele><time>2026-05-04T14:22:06Z</time></trkpt><trkpt lat="43.02493978337922" lon="11.74769566601477"><ele>431.0</ele><time>2026-05-04T14:22:07Z</time></trkpt><trkpt lat="43.02500651035235" lon="11.747788186892459"><ele>431.0</ele><time>2026-05-04T14:22:08Z</time></trkpt><trkpt lat="43.0250663630715" lon="11.747888295744538"><ele>433.4</ele><time>2026-05-04T14:22:09Z</time></trkpt><trkpt lat="43.02511472209773" lon="11.74800297147984"><ele>435.8</ele><time>2026-05-04T14:22:09.998Z</time></trkpt><trkpt lat="43.02515118107183" lon="11.748108122509613"><ele>438.19999999999993</ele><time>2026-05-04T14:22:10.998Z</time></trkpt><trkpt lat="43.02518891832549" lon="11.748235904180708"><ele>440.59999999999997</ele><time>2026-05-04T14:22:11.998Z</time></trkpt><trkpt lat="43.025225258089705" lon="11.748375598980976"><ele>443.0</ele><time>2026-05-04T14:22:12.998Z</time></trkpt><trkpt lat="43.02526047180848" lon="11.748523913388418"><ele>444.4</ele><time>2026-05-04T14:22:13.998Z</time></trkpt><trkpt lat="43.02529374869764" lon="11.748657783253451"><ele>445.79999999999995</ele><time>2026-05-04T14:22:14.998Z</time></trkpt><trkpt lat="43.0253340403274" lon="11.748804698209955"><ele>447.2</ele><time>2026-05-04T14:22:15.998Z</time></trkpt><trkpt lat="43.02536361581226" lon="11.748927366024938"><ele>448.6</ele><time>2026-05-04T14:22:16.998Z</time></trkpt><trkpt lat="43.025379520606094" lon="11.749014619455915"><ele>450.0</ele><time>2026-05-04T14:22:17.998Z</time></trkpt><trkpt lat="43.02541289007948" lon="11.749139802055954"><ele>450.0</ele><time>2026-05-04T14:22:18.999Z</time></trkpt><trkpt lat="43.02542897425763" lon="11.749241119042317"><ele>450.0</ele><time>2026-05-04T14:22:19.999Z</time></trkpt><trkpt lat="43.02542064277782" lon="11.749352168220879"><ele>450.0</ele><time>2026-05-04T14:22:20.999Z</time></trkpt><trkpt lat="43.02540371562778" lon="11.749439213098018"><ele>450.0</ele><time>2026-05-04T14:22:21.999Z</time></trkpt><trkpt lat="43.02535911992173" lon="11.749535440086"><ele>450.0</ele><time>2026-05-04T14:22:22.999Z</time></trkpt><trkpt lat="43.025299146515565" lon="11.749637080538262"><ele>450.0</ele><time>2026-05-04T14:22:23.999Z</time></trkpt><trkpt lat="43.02523668598495" lon="11.749748582225692"><ele>451.4</ele><time>2026-05-04T14:22:24.999Z</time></trkpt><trkpt lat="43.02516652211162" lon="11.749869668325745"><ele>452.8</ele><time>2026-05-04T14:22:25.999Z</time></trkpt><trkpt lat="43.025099999047264" lon="11.749991606236115"><ele>454.20000000000005</ele><time>2026-05-04T14:22:26.999Z</time></trkpt><trkpt lat="43.02504487360795" lon="11.750103101630831"><ele>455.6</ele><time>2026-05-04T14:22:27.999Z</time></trkpt><trkpt lat="43.02499061855904" lon="11.750209029874307"><ele>457.0</ele><time>2026-05-04T14:22:28.999Z</time></trkpt><trkpt lat="43.02496254806907" lon="11.750302850691275"><ele>457.5</ele><time>2026-05-04T14:22:29.999Z</time></trkpt><trkpt lat="43.02497887249627" lon="11.750440377393854"><ele>458.0</ele><time>2026-05-04T14:22:31.999Z</time></trkpt><trkpt lat="43.02507601008836" lon="11.750537164484685"><ele>458.5</ele><time>2026-05-04T14:22:33.999Z</time></trkpt><trkpt lat="43.02520046603643" lon="11.750608351864429"><ele>459.0</ele><time>2026-05-04T14:22:35.999Z</time></trkpt><trkpt lat="43.02528971919551" lon="11.750671257639683"><ele>460.0</ele><time>2026-05-04T14:22:36.999Z</time></trkpt><trkpt lat="43.025374418638286" lon="11.750730621637816"><ele>461.0</ele><time>2026-05-04T14:22:37.999Z</time></trkpt><trkpt lat="43.025441494850234" lon="11.750801988179607"><ele>462.0</ele><time>2026-05-04T14:22:38.999Z</time></trkpt><trkpt lat="43.025477694710105" lon="11.750887983956131"><ele>463.0</ele><time>2026-05-04T14:22:39.999Z</time></trkpt><trkpt lat="43.025499185146494" lon="11.750975832960153"><ele>464.0</ele><time>2026-05-04T14:22:40.999Z</time></trkpt><trkpt lat="43.02550633077787" lon="11.75112397982138"><ele>465.0</ele><time>2026-05-04T14:22:43Z</time></trkpt><trkpt lat="43.02543644865424" lon="11.751271226029768"><ele>466.8</ele><time>2026-05-04T14:22:45Z</time></trkpt><trkpt lat="43.025376312122425" lon="11.751380030210482"><ele>468.6</ele><time>2026-05-04T14:22:46Z</time></trkpt><trkpt lat="43.02530996179359" lon="11.75149502496429"><ele>470.4</ele><time>2026-05-04T14:22:47Z</time></trkpt><trkpt lat="43.02524355407549" lon="11.751615752707332"><ele>472.2</ele><time>2026-05-04T14:22:48Z</time></trkpt><trkpt lat="43.02517629451241" lon="11.751727952204089"><ele>474.0</ele><time>2026-05-04T14:22:49Z</time></trkpt><trkpt lat="43.02512652526631" lon="11.751822783900966"><ele>475.0</ele><time>2026-05-04T14:22:50Z</time></trkpt><trkpt lat="43.0250400221819" lon="11.752001019572402"><ele>476.0</ele><time>2026-05-04T14:22:52Z</time></trkpt><trkpt lat="43.024996879860915" lon="11.75207499341439"><ele>477.0</ele><time>2026-05-04T14:22:53Z</time></trkpt><trkpt lat="43.024944284557236" lon="11.752176320961015"><ele>478.0</ele><time>2026-05-04T14:22:54Z</time></trkpt><trkpt lat="43.02488538727476" lon="11.7522890411355"><ele>479.0</ele><time>2026-05-04T14:22:55Z</time></trkpt><trkpt lat="43.02483027201806" lon="11.752399028289211"><ele>479.0</ele><time>2026-05-04T14:22:56Z</time></trkpt><trkpt lat="43.024768668526264" lon="11.752523950336178"><ele>479.0</ele><time>2026-05-04T14:22:57Z</time></trkpt><trkpt lat="43.02470098978723" lon="11.752650842770258"><ele>479.0</ele><time>2026-05-04T14:22:58Z</time></trkpt><trkpt lat="43.02462646860491" lon="11.752791026901832"><ele>479.0</ele><time>2026-05-04T14:22:59Z</time></trkpt><trkpt lat="43.02456555195981" lon="11.75290432112818"><ele>480.0</ele><time>2026-05-04T14:23:00Z</time></trkpt><trkpt lat="43.02450761225647" lon="11.75301701912113"><ele>481.0</ele><time>2026-05-04T14:23:01Z</time></trkpt><trkpt lat="43.02444770617376" lon="11.753133410751236"><ele>482.0</ele><time>2026-05-04T14:23:02Z</time></trkpt><trkpt lat="43.02439010394826" lon="11.75324506557524"><ele>483.0</ele><time>2026-05-04T14:23:03Z</time></trkpt><trkpt lat="43.02433888123675" lon="11.75334750174325"><ele>484.0</ele><time>2026-05-04T14:23:04Z</time></trkpt><trkpt lat="43.02430532355738" lon="11.753421064606508"><ele>484.00000000000006</ele><time>2026-05-04T14:23:05Z</time></trkpt><trkpt lat="43.02427609111013" lon="11.753500383057387"><ele>484.0</ele><time>2026-05-04T14:23:06Z</time></trkpt><trkpt lat="43.024250421420156" lon="11.75359440445342"><ele>484.0</ele><time>2026-05-04T14:23:07Z</time></trkpt><trkpt lat="43.0242397057059" lon="11.753748129985544"><ele>484.0</ele><time>2026-05-04T14:23:09Z</time></trkpt><trkpt lat="43.02426911109085" lon="11.753897804111542"><ele>484.00000000000006</ele><time>2026-05-04T14:23:11Z</time></trkpt><trkpt lat="43.02428923683207" lon="11.75400817585896"><ele>484.0</ele><time>2026-05-04T14:23:12Z</time></trkpt><trkpt lat="43.02432139965201" lon="11.754118911333965"><ele>485.1666666666667</ele><time>2026-05-04T14:23:13Z</time></trkpt><trkpt lat="43.02435500669715" lon="11.754219495879855"><ele>486.33333333333337</ele><time>2026-05-04T14:23:14Z</time></trkpt><trkpt lat="43.02438174651922" lon="11.754342189993935"><ele>487.5</ele><time>2026-05-04T14:23:15Z</time></trkpt><trkpt lat="43.0244001508136" lon="11.754452711098219"><ele>488.66666666666663</ele><time>2026-05-04T14:23:16Z</time></trkpt><trkpt lat="43.02442618176247" lon="11.75454812043843"><ele>489.8333333333333</ele><time>2026-05-04T14:23:17Z</time></trkpt><trkpt lat="43.024452318905375" lon="11.754659897783776"><ele>491.0</ele><time>2026-05-04T14:23:18Z</time></trkpt><trkpt lat="43.02447449717273" lon="11.754780275863519"><ele>491.8333333333333</ele><time>2026-05-04T14:23:19Z</time></trkpt><trkpt lat="43.02449730416492" lon="11.75487787079565"><ele>492.66666666666663</ele><time>2026-05-04T14:23:20Z</time></trkpt><trkpt lat="43.024536784037615" lon="11.754988786310916"><ele>493.5</ele><time>2026-05-04T14:23:21Z</time></trkpt><trkpt lat="43.02455389819551" lon="11.755084886485744"><ele>494.33333333333337</ele><time>2026-05-04T14:23:22Z</time></trkpt><trkpt lat="43.02460551562884" lon="11.755246421481692"><ele>495.1666666666667</ele><time>2026-05-04T14:23:24Z</time></trkpt><trkpt lat="43.024646660005544" lon="11.75531175333564"><ele>496.0</ele><time>2026-05-04T14:23:25Z</time></trkpt><trkpt lat="43.02469813864081" lon="11.755375672514056"><ele>497.8</ele><time>2026-05-04T14:23:26Z</time></trkpt><trkpt lat="43.02482266994252" lon="11.75544991332174"><ele>499.6</ele><time>2026-05-04T14:23:28Z</time></trkpt><trkpt lat="43.02491309836629" lon="11.755486765321228"><ele>501.4</ele><time>2026-05-04T14:23:29Z</time></trkpt><trkpt lat="43.025018242062146" lon="11.755524820908795"><ele>503.2</ele><time>2026-05-04T14:23:30Z</time></trkpt><trkpt lat="43.02511829906367" lon="11.755563055403792"><ele>505.0</ele><time>2026-05-04T14:23:31Z</time></trkpt><trkpt lat="43.025232562362945" lon="11.75560844744347"><ele>507.0</ele><time>2026-05-04T14:23:32Z</time></trkpt><trkpt lat="43.02534588226926" lon="11.755632168908164"><ele>509.0</ele><time>2026-05-04T14:23:33Z</time></trkpt><trkpt lat="43.02546364044359" lon="11.755645245591063"><ele>511.0</ele><time>2026-05-04T14:23:34Z</time></trkpt><trkpt lat="43.02558299805566" lon="11.755654422214949"><ele>513.0</ele><time>2026-05-04T14:23:35Z</time></trkpt><trkpt lat="43.02569442039667" lon="11.755675712215062"><ele>513.0</ele><time>2026-05-04T14:23:36Z</time></trkpt><trkpt lat="43.02579186777543" lon="11.755691094824721"><ele>513.0</ele><time>2026-05-04T14:23:37.001Z</time></trkpt><trkpt lat="43.02588180371051" lon="11.755707699541125"><ele>513.0</ele><time>2026-05-04T14:23:38.001Z</time></trkpt><trkpt lat="43.02595836300748" lon="11.755727399027124"><ele>513.0</ele><time>2026-05-04T14:23:39.001Z</time></trkpt><trkpt lat="43.02606150261369" lon="11.755810795364305"><ele>513.0</ele><time>2026-05-04T14:23:41.001Z</time></trkpt><trkpt lat="43.02610595347917" lon="11.755982189970197"><ele>515.5</ele><time>2026-05-04T14:23:43.001Z</time></trkpt><trkpt lat="43.02609643278415" lon="11.7560744675744"><ele>518.0</ele><time>2026-05-04T14:23:44.001Z</time></trkpt><trkpt lat="43.02607079035179" lon="11.756176492400336"><ele>520.5</ele><time>2026-05-04T14:23:45.001Z</time></trkpt><trkpt lat="43.02605372840586" lon="11.756275093596786"><ele>523.0</ele><time>2026-05-04T14:23:46.001Z</time></trkpt><trkpt lat="43.026032589365485" lon="11.75639563966981"><ele>525.5</ele><time>2026-05-04T14:23:47.001Z</time></trkpt><trkpt lat="43.026010198272274" lon="11.756511714358375"><ele>528.0</ele><time>2026-05-04T14:23:48.001Z</time></trkpt><trkpt lat="43.025985530978325" lon="11.756635001091226"><ele>528.0</ele><time>2026-05-04T14:23:49.001Z</time></trkpt><trkpt lat="43.02595603133705" lon="11.756769990475659"><ele>528.0</ele><time>2026-05-04T14:23:50.001Z</time></trkpt><trkpt lat="43.025932667781944" lon="11.756890425545212"><ele>528.0</ele><time>2026-05-04T14:23:51.001Z</time></trkpt><trkpt lat="43.02591878725964" lon="11.757015946329611"><ele>528.0</ele><time>2026-05-04T14:23:52.001Z</time></trkpt><trkpt lat="43.02594588135719" lon="11.757179076793024"><ele>528.0</ele><time>2026-05-04T14:23:54.001Z</time></trkpt><trkpt lat="43.02597292964898" lon="11.75726337377596"><ele>527.8333333333334</ele><time>2026-05-04T14:23:55.001Z</time></trkpt><trkpt lat="43.02594056267497" lon="11.757361395438556"><ele>527.6666666666666</ele><time>2026-05-04T14:23:58.001Z</time></trkpt><trkpt lat="43.025880471131906" lon="11.75740167462023"><ele>527.5</ele><time>2026-05-04T14:23:59.001Z</time></trkpt><trkpt lat="43.02578335070985" lon="11.757463328205876"><ele>527.3333333333333</ele><time>2026-05-04T14:24:00.001Z</time></trkpt><trkpt lat="43.02570337885251" lon="11.757527872097139"><ele>527.1666666666666</ele><time>2026-05-04T14:24:01.001Z</time></trkpt><trkpt lat="43.0256464880425" lon="11.757593066115179"><ele>527.0</ele><time>2026-05-04T14:24:02.001Z</time></trkpt><trkpt lat="43.025612586029446" lon="11.757673386511417"><ele>527.8333333333333</ele><time>2026-05-04T14:24:03.001Z</time></trkpt><trkpt lat="43.02557618112459" lon="11.757765177839529"><ele>528.6666666666666</ele><time>2026-05-04T14:24:04.001Z</time></trkpt><trkpt lat="43.025515993834766" lon="11.757886849164507"><ele>529.5</ele><time>2026-05-04T14:24:05.001Z</time></trkpt><trkpt lat="43.025462616956816" lon="11.757996589906817"><ele>530.3333333333334</ele><time>2026-05-04T14:24:06.001Z</time></trkpt><trkpt lat="43.025426166384904" lon="11.758102786495346"><ele>531.1666666666667</ele><time>2026-05-04T14:24:07.001Z</time></trkpt><trkpt lat="43.0254093440855" lon="11.758191430134705"><ele>532.0</ele><time>2026-05-04T14:24:08.001Z</time></trkpt><trkpt lat="43.02543242341904" lon="11.758335470029355"><ele>532.0</ele><time>2026-05-04T14:24:10.001Z</time></trkpt><trkpt lat="43.025466201466415" lon="11.758415988236855"><ele>532.0</ele><time>2026-05-04T14:24:11.001Z</time></trkpt><trkpt lat="43.02550073267964" lon="11.758502425318028"><ele>532.0</ele><time>2026-05-04T14:24:12.001Z</time></trkpt><trkpt lat="43.0255370075749" lon="11.758607806798699"><ele>532.0</ele><time>2026-05-04T14:24:13.001Z</time></trkpt><trkpt lat="43.02557777866189" lon="11.758720634141495"><ele>532.0</ele><time>2026-05-04T14:24:14.001Z</time></trkpt><trkpt lat="43.02561549345674" lon="11.758816378555274"><ele>532.0</ele><time>2026-05-04T14:24:15.001Z</time></trkpt><trkpt lat="43.0256564406122" lon="11.75892606447973"><ele>531.8333333333334</ele><time>2026-05-04T14:24:16Z</time></trkpt><trkpt lat="43.025691266326454" lon="11.759023372328707"><ele>531.6666666666667</ele><time>2026-05-04T14:24:17Z</time></trkpt><trkpt lat="43.02572297735466" lon="11.759114303133643"><ele>531.5</ele><time>2026-05-04T14:24:18Z</time></trkpt><trkpt lat="43.02575181043865" lon="11.759206187782134"><ele>531.3333333333334</ele><time>2026-05-04T14:24:19Z</time></trkpt><trkpt lat="43.02580275836543" lon="11.759368157068074"><ele>531.1666666666666</ele><time>2026-05-04T14:24:21Z</time></trkpt><trkpt lat="43.025830606238785" lon="11.759458982588999"><ele>531.0</ele><time>2026-05-04T14:24:22Z</time></trkpt><trkpt lat="43.02586049581668" lon="11.759543092964895"><ele>529.8571428571429</ele><time>2026-05-04T14:24:23Z</time></trkpt><trkpt lat="43.02590006477668" lon="11.759611801220178"><ele>528.7142857142858</ele><time>2026-05-04T14:24:24Z</time></trkpt><trkpt lat="43.02594180569094" lon="11.759687448685263"><ele>527.5714285714286</ele><time>2026-05-04T14:24:25Z</time></trkpt><trkpt lat="43.02598918548918" lon="11.759753370603432"><ele>526.4285714285714</ele><time>2026-05-04T14:24:26Z</time></trkpt><trkpt lat="43.026049638181114" lon="11.759838894406007"><ele>525.2857142857142</ele><time>2026-05-04T14:24:27Z</time></trkpt><trkpt lat="43.02610888466744" lon="11.759916424009534"><ele>524.1428571428571</ele><time>2026-05-04T14:24:28Z</time></trkpt><trkpt lat="43.026165246723174" lon="11.759991261718403"><ele>523.0</ele><time>2026-05-04T14:24:29Z</time></trkpt><trkpt lat="43.0262238720242" lon="11.760067875083683"><ele>523.0</ele><time>2026-05-04T14:24:30Z</time></trkpt><trkpt lat="43.02628373314982" lon="11.760151534134682"><ele>523.0</ele><time>2026-05-04T14:24:31Z</time></trkpt><trkpt lat="43.02633016518886" lon="11.760242657158491"><ele>523.0</ele><time>2026-05-04T14:24:32Z</time></trkpt><trkpt lat="43.026368555788665" lon="11.760343393807922"><ele>523.0</ele><time>2026-05-04T14:24:33Z</time></trkpt><trkpt lat="43.026406745563484" lon="11.76045729611802"><ele>523.0</ele><time>2026-05-04T14:24:34Z</time></trkpt><trkpt lat="43.026441227922525" lon="11.760552570794081"><ele>523.0</ele><time>2026-05-04T14:24:35Z</time></trkpt><trkpt lat="43.02647548123947" lon="11.7606478985097"><ele>521.1666666666667</ele><time>2026-05-04T14:24:36Z</time></trkpt><trkpt lat="43.0265083863816" lon="11.760735126935108"><ele>519.3333333333334</ele><time>2026-05-04T14:24:37Z</time></trkpt><trkpt lat="43.02653364769728" lon="11.760820273792433"><ele>517.5</ele><time>2026-05-04T14:24:38Z</time></trkpt><trkpt lat="43.02652169792709" lon="11.760969598003557"><ele>515.6666666666666</ele><time>2026-05-04T14:24:40Z</time></trkpt><trkpt lat="43.026442373272936" lon="11.761082879520263"><ele>513.8333333333333</ele><time>2026-05-04T14:24:42Z</time></trkpt><trkpt lat="43.02637346771214" lon="11.761135044501135"><ele>512.0</ele><time>2026-05-04T14:24:43Z</time></trkpt><trkpt lat="43.026306640669894" lon="11.761170779707157"><ele>510.66666666666663</ele><time>2026-05-04T14:24:44Z</time></trkpt><trkpt lat="43.02622565157618" lon="11.761211006791251"><ele>509.3333333333333</ele><time>2026-05-04T14:24:45Z</time></trkpt><trkpt lat="43.026168175078766" lon="11.761253982557909"><ele>508.0</ele><time>2026-05-04T14:24:46Z</time></trkpt><trkpt lat="43.02610013327999" lon="11.761345025035373"><ele>506.66666666666663</ele><time>2026-05-04T14:24:48Z</time></trkpt><trkpt lat="43.02609542128901" lon="11.761488282923871"><ele>505.3333333333333</ele><time>2026-05-04T14:24:50Z</time></trkpt><trkpt lat="43.02610760272487" lon="11.761576663010597"><ele>504.0</ele><time>2026-05-04T14:24:51Z</time></trkpt><trkpt lat="43.02610679055786" lon="11.761732140315212"><ele>504.0</ele><time>2026-05-04T14:24:53Z</time></trkpt><trkpt lat="43.026036966158074" lon="11.761856562387415"><ele>504.0</ele><time>2026-05-04T14:24:55Z</time></trkpt><trkpt lat="43.025972194021186" lon="11.761913384282245"><ele>504.0</ele><time>2026-05-04T14:24:56Z</time></trkpt><trkpt lat="43.02590440944736" lon="11.761950019145424"><ele>504.0</ele><time>2026-05-04T14:24:57Z</time></trkpt><trkpt lat="43.025835673650676" lon="11.76198905576827"><ele>504.0</ele><time>2026-05-04T14:24:58Z</time></trkpt><trkpt lat="43.02577540133001" lon="11.762044639669003"><ele>504.0</ele><time>2026-05-04T14:24:59Z</time></trkpt><trkpt lat="43.02572152470706" lon="11.762112117200472"><ele>501.42857142857144</ele><time>2026-05-04T14:25:00Z</time></trkpt><trkpt lat="43.02567016027721" lon="11.762194099052588"><ele>498.8571428571429</ele><time>2026-05-04T14:25:01Z</time></trkpt><trkpt lat="43.02562304954375" lon="11.762279704030066"><ele>496.2857142857143</ele><time>2026-05-04T14:25:02Z</time></trkpt><trkpt lat="43.02557537663243" lon="11.762366569805174"><ele>493.7142857142857</ele><time>2026-05-04T14:25:03Z</time></trkpt><trkpt lat="43.025528831367545" lon="11.76245137779246"><ele>491.14285714285717</ele><time>2026-05-04T14:25:04Z</time></trkpt><trkpt lat="43.025493290119094" lon="11.762522962860096"><ele>488.57142857142856</ele><time>2026-05-04T14:25:05Z</time></trkpt><trkpt lat="43.025457161317554" lon="11.762598340699236"><ele>486.0</ele><time>2026-05-04T14:25:06Z</time></trkpt><trkpt lat="43.02535892971247" lon="11.762712285891222"><ele>484.42857142857144</ele><time>2026-05-04T14:25:08.001Z</time></trkpt><trkpt lat="43.02529736237377" lon="11.762759342625753"><ele>482.8571428571429</ele><time>2026-05-04T14:25:09.001Z</time></trkpt><trkpt lat="43.02523593076994" lon="11.762782841337023"><ele>481.28571428571433</ele><time>2026-05-04T14:25:10.001Z</time></trkpt><trkpt lat="43.025169756094" lon="11.76277702879777"><ele>479.7142857142857</ele><time>2026-05-04T14:25:11.001Z</time></trkpt><trkpt lat="43.02508871113413" lon="11.762757426881564"><ele>478.1428571428572</ele><time>2026-05-04T14:25:12.001Z</time></trkpt><trkpt lat="43.02501240022272" lon="11.762724622897135"><ele>476.5714285714286</ele><time>2026-05-04T14:25:13.001Z</time></trkpt><trkpt lat="43.024936965443956" lon="11.762686443313333"><ele>475.0</ele><time>2026-05-04T14:25:14.001Z</time></trkpt><trkpt lat="43.024872581503594" lon="11.762678390898689"><ele>472.50000000000006</ele><time>2026-05-04T14:25:15.001Z</time></trkpt><trkpt lat="43.024808664061084" lon="11.762700541637194"><ele>470.0</ele><time>2026-05-04T14:25:16.001Z</time></trkpt><trkpt lat="43.024754470114146" lon="11.762749259600037"><ele>467.5</ele><time>2026-05-04T14:25:17.001Z</time></trkpt><trkpt lat="43.02473077030488" lon="11.762873527629132"><ele>465.0</ele><time>2026-05-04T14:25:19.001Z</time></trkpt><trkpt lat="43.02475799029762" lon="11.763023121078009"><ele>462.50000000000006</ele><time>2026-05-04T14:25:21.001Z</time></trkpt><trkpt lat="43.02482610794734" lon="11.763118987724583"><ele>460.0</ele><time>2026-05-04T14:25:23.001Z</time></trkpt><trkpt lat="43.024925396850755" lon="11.763222227513944"><ele>460.00000000000006</ele><time>2026-05-04T14:25:25.001Z</time></trkpt><trkpt lat="43.02498667095588" lon="11.763270650698203"><ele>460.0</ele><time>2026-05-04T14:25:26.001Z</time></trkpt><trkpt lat="43.02505431637511" lon="11.763319739855568"><ele>460.0</ele><time>2026-05-04T14:25:27.001Z</time></trkpt><trkpt lat="43.025119835805896" lon="11.76337374153456"><ele>460.0</ele><time>2026-05-04T14:25:28.001Z</time></trkpt><trkpt lat="43.02518344642891" lon="11.763425259833355"><ele>460.00000000000006</ele><time>2026-05-04T14:25:29.001Z</time></trkpt><trkpt lat="43.025256607533024" lon="11.76348477498864"><ele>460.0</ele><time>2026-05-04T14:25:30.001Z</time></trkpt><trkpt lat="43.02531761273137" lon="11.763535401969587"><ele>460.00000000000006</ele><time>2026-05-04T14:25:31.001Z</time></trkpt><trkpt lat="43.025383685319554" lon="11.763591223739521"><ele>460.0</ele><time>2026-05-04T14:25:32.001Z</time></trkpt><trkpt lat="43.025459624911115" lon="11.763648096381564"><ele>460.0</ele><time>2026-05-04T14:25:33.001Z</time></trkpt><trkpt lat="43.02552985988451" lon="11.763705502710584"><ele>460.0</ele><time>2026-05-04T14:25:34.001Z</time></trkpt><trkpt lat="43.02559999792867" lon="11.763760246460302"><ele>460.00000000000006</ele><time>2026-05-04T14:25:35.001Z</time></trkpt><trkpt lat="43.025665327900725" lon="11.763817648869022"><ele>460.0</ele><time>2026-05-04T14:25:36.001Z</time></trkpt><trkpt lat="43.02572435982961" lon="11.76387052237873"><ele>460.00000000000006</ele><time>2026-05-04T14:25:37.001Z</time></trkpt><trkpt lat="43.025785185453245" lon="11.76392320044677"><ele>460.0</ele><time>2026-05-04T14:25:38.001Z</time></trkpt><trkpt lat="43.02584888068045" lon="11.763971108778302"><ele>460.0</ele><time>2026-05-04T14:25:39.001Z</time></trkpt><trkpt lat="43.02590789894687" lon="11.764016066388427"><ele>460.0</ele><time>2026-05-04T14:25:40.001Z</time></trkpt><trkpt lat="43.025964021847315" lon="11.764061812246496"><ele>460.00000000000006</ele><time>2026-05-04T14:25:41.001Z</time></trkpt><trkpt lat="43.02604783162953" lon="11.764170623140092"><ele>460.0</ele><time>2026-05-04T14:25:43.001Z</time></trkpt><trkpt lat="43.02604430311248" lon="11.764315764655796"><ele>457.4</ele><time>2026-05-04T14:25:45.001Z</time></trkpt><trkpt lat="43.02595379197233" lon="11.764452635558929"><ele>454.8</ele><time>2026-05-04T14:25:47.001Z</time></trkpt><trkpt lat="43.02588570958292" lon="11.764506106911172"><ele>452.20000000000005</ele><time>2026-05-04T14:25:48.001Z</time></trkpt><trkpt lat="43.02580530905522" lon="11.76456303308846"><ele>449.6</ele><time>2026-05-04T14:25:49.001Z</time></trkpt><trkpt lat="43.0257198751244" lon="11.764618591223645"><ele>447.0</ele><time>2026-05-04T14:25:50.001Z</time></trkpt><trkpt lat="43.02564267360034" lon="11.76467713317991"><ele>446.8</ele><time>2026-05-04T14:25:51.001Z</time></trkpt><trkpt lat="43.02555981913069" lon="11.764733708643048"><ele>446.6</ele><time>2026-05-04T14:25:52.001Z</time></trkpt><trkpt lat="43.025477110981626" lon="11.764782869058877"><ele>446.40000000000003</ele><time>2026-05-04T14:25:53.001Z</time></trkpt><trkpt lat="43.02538745124248" lon="11.764820981862421"><ele>446.20000000000005</ele><time>2026-05-04T14:25:54.001Z</time></trkpt><trkpt lat="43.02529730015065" lon="11.764855831967914"><ele>446.0</ele><time>2026-05-04T14:25:55.001Z</time></trkpt><trkpt lat="43.02520704238649" lon="11.764894387413635"><ele>445.99999999999994</ele><time>2026-05-04T14:25:56.001Z</time></trkpt><trkpt lat="43.02512057823533" lon="11.764929297300025"><ele>446.0</ele><time>2026-05-04T14:25:57.001Z</time></trkpt><trkpt lat="43.02503674111019" lon="11.764962634811232"><ele>446.0</ele><time>2026-05-04T14:25:58.001Z</time></trkpt><trkpt lat="43.024961840980446" lon="11.765002650563588"><ele>446.0</ele><time>2026-05-04T14:25:59.001Z</time></trkpt><trkpt lat="43.024892830191554" lon="11.765052394721973"><ele>445.99999999999994</ele><time>2026-05-04T14:26:00.001Z</time></trkpt><trkpt lat="43.02483202352948" lon="11.76511129639105"><ele>446.0</ele><time>2026-05-04T14:26:01.001Z</time></trkpt><trkpt lat="43.02476753685947" lon="11.765186600376284"><ele>443.16666666666663</ele><time>2026-05-04T14:26:02.001Z</time></trkpt><trkpt lat="43.02470173112051" lon="11.765265512978567"><ele>440.3333333333333</ele><time>2026-05-04T14:26:03.001Z</time></trkpt><trkpt lat="43.024640268992236" lon="11.765341923291144"><ele>437.5</ele><time>2026-05-04T14:26:04.001Z</time></trkpt><trkpt lat="43.02457755703467" lon="11.765416961894097"><ele>434.66666666666663</ele><time>2026-05-04T14:26:05.001Z</time></trkpt><trkpt lat="43.02452850502428" lon="11.765478558717675"><ele>431.8333333333333</ele><time>2026-05-04T14:26:06.001Z</time></trkpt><trkpt lat="43.02448876038044" lon="11.765552909395618"><ele>429.0</ele><time>2026-05-04T14:26:07.001Z</time></trkpt><trkpt lat="43.02448455845553" lon="11.765703423417014"><ele>429.0</ele><time>2026-05-04T14:26:09.002Z</time></trkpt><trkpt lat="43.02455512759945" lon="11.765847545507452"><ele>429.0</ele><time>2026-05-04T14:26:11.002Z</time></trkpt><trkpt lat="43.024616215334255" lon="11.765920888470557"><ele>429.0</ele><time>2026-05-04T14:26:12.002Z</time></trkpt><trkpt lat="43.02468675975087" lon="11.765979831943902"><ele>429.0</ele><time>2026-05-04T14:26:13.002Z</time></trkpt><trkpt lat="43.02476388718838" lon="11.766019764086142"><ele>429.0</ele><time>2026-05-04T14:26:14.002Z</time></trkpt><trkpt lat="43.02484411450864" lon="11.766053665892986"><ele>427.6666666666667</ele><time>2026-05-04T14:26:15.002Z</time></trkpt><trkpt lat="43.02492306937358" lon="11.766074119306271"><ele>426.33333333333337</ele><time>2026-05-04T14:26:16.002Z</time></trkpt><trkpt lat="43.025000448161144" lon="11.766087203782607"><ele>425.0</ele><time>2026-05-04T14:26:17.002Z</time></trkpt><trkpt lat="43.02508985883291" lon="11.766103460989601"><ele>423.6666666666667</ele><time>2026-05-04T14:26:18.002Z</time></trkpt><trkpt lat="43.02517482919534" lon="11.766129808512794"><ele>422.33333333333337</ele><time>2026-05-04T14:26:19.002Z</time></trkpt><trkpt lat="43.02526960750782" lon="11.76615661254191"><ele>421.0</ele><time>2026-05-04T14:26:20.002Z</time></trkpt><trkpt lat="43.025363323500315" lon="11.766167596716386"><ele>421.00000000000006</ele><time>2026-05-04T14:26:21.002Z</time></trkpt><trkpt lat="43.02546221298108" lon="11.766176857366126"><ele>421.0</ele><time>2026-05-04T14:26:22Z</time></trkpt><trkpt lat="43.02556091704434" lon="11.766180666946983"><ele>421.0</ele><time>2026-05-04T14:26:23Z</time></trkpt><trkpt lat="43.02564520581827" lon="11.766185271699399"><ele>421.0</ele><time>2026-05-04T14:26:24Z</time></trkpt><trkpt lat="43.02572330455333" lon="11.766200765057302"><ele>421.00000000000006</ele><time>2026-05-04T14:26:25Z</time></trkpt><trkpt lat="43.02578610272006" lon="11.766235579651632"><ele>421.0</ele><time>2026-05-04T14:26:26Z</time></trkpt><trkpt lat="43.025857993825795" lon="11.766359716936243"><ele>421.6666666666667</ele><time>2026-05-04T14:26:28Z</time></trkpt><trkpt lat="43.02587904804212" lon="11.766441757249998"><ele>422.33333333333337</ele><time>2026-05-04T14:26:29Z</time></trkpt><trkpt lat="43.02591307595554" lon="11.76654527571674"><ele>423.0</ele><time>2026-05-04T14:26:30Z</time></trkpt><trkpt lat="43.02593830796987" lon="11.766650589917647"><ele>423.66666666666663</ele><time>2026-05-04T14:26:31Z</time></trkpt><trkpt lat="43.02592863022286" lon="11.766801479553838"><ele>424.3333333333333</ele><time>2026-05-04T14:26:33Z</time></trkpt><trkpt lat="43.02588473832493" lon="11.766890969912073"><ele>425.0</ele><time>2026-05-04T14:26:34Z</time></trkpt><trkpt lat="43.02582835711224" lon="11.766999434308486"><ele>425.4</ele><time>2026-05-04T14:26:35Z</time></trkpt><trkpt lat="43.02577759940446" lon="11.767130981937257"><ele>425.8</ele><time>2026-05-04T14:26:36Z</time></trkpt><trkpt lat="43.025730089483076" lon="11.767267774705667"><ele>426.20000000000005</ele><time>2026-05-04T14:26:37Z</time></trkpt><trkpt lat="43.025667122961984" lon="11.767396519421641"><ele>426.6</ele><time>2026-05-04T14:26:38Z</time></trkpt><trkpt lat="43.02560365579873" lon="11.76750316353179"><ele>427.0</ele><time>2026-05-04T14:26:39Z</time></trkpt><trkpt lat="43.0255395809454" lon="11.767586629651198"><ele>427.0</ele><time>2026-05-04T14:26:40Z</time></trkpt><trkpt lat="43.02546332660446" lon="11.767647675373771"><ele>427.00000000000006</ele><time>2026-05-04T14:26:41Z</time></trkpt><trkpt lat="43.02537355790314" lon="11.767689900297201"><ele>427.00000000000006</ele><time>2026-05-04T14:26:42Z</time></trkpt><trkpt lat="43.025272174203394" lon="11.767759825109026"><ele>427.0</ele><time>2026-05-04T14:26:43Z</time></trkpt><trkpt lat="43.02516276211457" lon="11.76782143690839"><ele>427.0</ele><time>2026-05-04T14:26:44Z</time></trkpt><trkpt lat="43.02504825781464" lon="11.76785569929309"><ele>428.1666666666667</ele><time>2026-05-04T14:26:45Z</time></trkpt><trkpt lat="43.02495652578956" lon="11.767859263278394"><ele>429.33333333333337</ele><time>2026-05-04T14:26:46Z</time></trkpt><trkpt lat="43.02487860983798" lon="11.767882079305847"><ele>430.5</ele><time>2026-05-04T14:26:47Z</time></trkpt><trkpt lat="43.02482674299018" lon="11.767939426670724"><ele>431.66666666666663</ele><time>2026-05-04T14:26:48Z</time></trkpt><trkpt lat="43.02479503403745" lon="11.768018483412371"><ele>432.8333333333333</ele><time>2026-05-04T14:26:49Z</time></trkpt><trkpt lat="43.024778644856774" lon="11.76812283674136"><ele>434.0</ele><time>2026-05-04T14:26:50Z</time></trkpt><trkpt lat="43.024768536052946" lon="11.768259524095932"><ele>434.0</ele><time>2026-05-04T14:26:51Z</time></trkpt><trkpt lat="43.02476364211257" lon="11.768421127334092"><ele>434.0</ele><time>2026-05-04T14:26:52Z</time></trkpt><trkpt lat="43.024767179201355" lon="11.768600924265867"><ele>434.0</ele><time>2026-05-04T14:26:53Z</time></trkpt><trkpt lat="43.02477049479345" lon="11.768777133735265"><ele>434.0</ele><time>2026-05-04T14:26:54Z</time></trkpt><trkpt lat="43.024781158735294" lon="11.768936126752301"><ele>434.6</ele><time>2026-05-04T14:26:55Z</time></trkpt><trkpt lat="43.02478450633609" lon="11.769066588178292"><ele>435.2</ele><time>2026-05-04T14:26:56Z</time></trkpt><trkpt lat="43.02478861393186" lon="11.769180577443619"><ele>435.80000000000007</ele><time>2026-05-04T14:26:57Z</time></trkpt><trkpt lat="43.02479184104449" lon="11.769272237159893"><ele>436.40000000000003</ele><time>2026-05-04T14:26:58Z</time></trkpt><trkpt lat="43.02478943318378" lon="11.769427056076317"><ele>437.0</ele><time>2026-05-04T14:27:01Z</time></trkpt><trkpt lat="43.02483128978198" lon="11.769541497489925"><ele>438.40000000000003</ele><time>2026-05-04T14:27:03.001Z</time></trkpt><trkpt lat="43.02490442271" lon="11.769524502796934"><ele>439.80000000000007</ele><time>2026-05-04T14:27:05.001Z</time></trkpt><trkpt lat="43.0249694686058" lon="11.769479506648258"><ele>441.2</ele><time>2026-05-04T14:27:06.001Z</time></trkpt><trkpt lat="43.025057936625394" lon="11.769395662488604"><ele>442.6</ele><time>2026-05-04T14:27:07.001Z</time></trkpt><trkpt lat="43.02515528515442" lon="11.76930130069115"><ele>444.0</ele><time>2026-05-04T14:27:08.001Z</time></trkpt><trkpt lat="43.02527626736196" lon="11.769212854596516"><ele>444.0</ele><time>2026-05-04T14:27:09.001Z</time></trkpt><trkpt lat="43.02542104268631" lon="11.769177970093754"><ele>444.0</ele><time>2026-05-04T14:27:10.001Z</time></trkpt><trkpt lat="43.025584240005486" lon="11.769195605285953"><ele>444.0</ele><time>2026-05-04T14:27:11.001Z</time></trkpt><trkpt lat="43.02574105097568" lon="11.769269999368476"><ele>447.0</ele><time>2026-05-04T14:27:12.001Z</time></trkpt><trkpt lat="43.02590494707678" lon="11.76937447050014"><ele>450.0</ele><time>2026-05-04T14:27:13.001Z</time></trkpt><trkpt lat="43.02606556751366" lon="11.769491604345166"><ele>453.0</ele><time>2026-05-04T14:27:14.001Z</time></trkpt><trkpt lat="43.02623876580198" lon="11.7695831737588"><ele>453.0</ele><time>2026-05-04T14:27:15.001Z</time></trkpt><trkpt lat="43.02642471509306" lon="11.76960252499811"><ele>453.0</ele><time>2026-05-04T14:27:16.001Z</time></trkpt><trkpt lat="43.026616567682275" lon="11.76957277039188"><ele>453.0</ele><time>2026-05-04T14:27:17.001Z</time></trkpt><trkpt lat="43.02681980189391" lon="11.769522140407604"><ele>452.33333333333337</ele><time>2026-05-04T14:27:18.001Z</time></trkpt><trkpt lat="43.02700615990912" lon="11.769481182860698"><ele>451.6666666666667</ele><time>2026-05-04T14:27:19.001Z</time></trkpt><trkpt lat="43.02719391807262" lon="11.769426149406437"><ele>451.0</ele><time>2026-05-04T14:27:20.001Z</time></trkpt><trkpt lat="43.02737021146051" lon="11.76932471027496"><ele>453.6666666666667</ele><time>2026-05-04T14:27:21.001Z</time></trkpt><trkpt lat="43.02752682652391" lon="11.769172965299047"><ele>456.33333333333337</ele><time>2026-05-04T14:27:22.001Z</time></trkpt><trkpt lat="43.02767345658988" lon="11.768973811846406"><ele>459.0</ele><time>2026-05-04T14:27:23.001Z</time></trkpt><trkpt lat="43.027816655473806" lon="11.768773700143743"><ele>459.0</ele><time>2026-05-04T14:27:24.001Z</time></trkpt><trkpt lat="43.02795515332399" lon="11.768604182443887"><ele>459.0</ele><time>2026-05-04T14:27:25.001Z</time></trkpt><trkpt lat="43.02809479937111" lon="11.768484242105126"><ele>459.0</ele><time>2026-05-04T14:27:26.001Z</time></trkpt><trkpt lat="43.02825244202335" lon="11.768406808921227"><ele>460.0</ele><time>2026-05-04T14:27:27.001Z</time></trkpt><trkpt lat="43.02842610074293" lon="11.768396235064877"><ele>461.0</ele><time>2026-05-04T14:27:28.001Z</time></trkpt><trkpt lat="43.0285935933627" lon="11.768495629770422"><ele>462.0</ele><time>2026-05-04T14:27:29.001Z</time></trkpt><trkpt lat="43.02872575599253" lon="11.768659032727076"><ele>464.0</ele><time>2026-05-04T14:27:30.001Z</time></trkpt><trkpt lat="43.02884125127185" lon="11.76886240240705"><ele>466.0</ele><time>2026-05-04T14:27:31.001Z</time></trkpt><trkpt lat="43.02895298290103" lon="11.769091707252674"><ele>468.0</ele><time>2026-05-04T14:27:32.001Z</time></trkpt><trkpt lat="43.02907236737401" lon="11.769325836065295"><ele>470.0</ele><time>2026-05-04T14:27:33.001Z</time></trkpt><trkpt lat="43.02920442293" lon="11.76955966001544"><ele>472.0</ele><time>2026-05-04T14:27:34.001Z</time></trkpt><trkpt lat="43.02933257259746" lon="11.769784006363649"><ele>474.0</ele><time>2026-05-04T14:27:35.001Z</time></trkpt><trkpt lat="43.02944239233532" lon="11.76997718828448"><ele>474.0</ele><time>2026-05-04T14:27:36.001Z</time></trkpt><trkpt lat="43.029554919057425" lon="11.770147443298844"><ele>474.0</ele><time>2026-05-04T14:27:37.001Z</time></trkpt><trkpt lat="43.029676266153366" lon="11.770248314974353"><ele>474.0</ele><time>2026-05-04T14:27:38.001Z</time></trkpt><trkpt lat="43.02982381471367" lon="11.770297634734865"><ele>476.33333333333337</ele><time>2026-05-04T14:27:39.001Z</time></trkpt><trkpt lat="43.02999500193947" lon="11.770284400244838"><ele>478.6666666666667</ele><time>2026-05-04T14:27:40.001Z</time></trkpt><trkpt lat="43.0301552639598" lon="11.770234478562363"><ele>481.0</ele><time>2026-05-04T14:27:41.001Z</time></trkpt><trkpt lat="43.03029816997331" lon="11.770253805623785"><ele>481.0</ele><time>2026-05-04T14:27:42.001Z</time></trkpt><trkpt lat="43.030397310979126" lon="11.770370506799743"><ele>481.0</ele><time>2026-05-04T14:27:43.001Z</time></trkpt><trkpt lat="43.03045245586938" lon="11.770540095854312"><ele>481.0</ele><time>2026-05-04T14:27:44.001Z</time></trkpt><trkpt lat="43.030435346389815" lon="11.7707282012926"><ele>481.0</ele><time>2026-05-04T14:27:45.001Z</time></trkpt><trkpt lat="43.030370639180845" lon="11.770882199416299"><ele>481.0</ele><time>2026-05-04T14:27:46.001Z</time></trkpt><trkpt lat="43.03025645247496" lon="11.770970628486532"><ele>481.0</ele><time>2026-05-04T14:27:47.001Z</time></trkpt><trkpt lat="43.030115365586965" lon="11.770982969287727"><ele>481.0</ele><time>2026-05-04T14:27:48.001Z</time></trkpt><trkpt lat="43.029967673714125" lon="11.77099048997147"><ele>481.0</ele><time>2026-05-04T14:27:49.001Z</time></trkpt><trkpt lat="43.02980991427182" lon="11.771024769189685"><ele>483.33333333333337</ele><time>2026-05-04T14:27:50.001Z</time></trkpt><trkpt lat="43.029652430613645" lon="11.771055104764814"><ele>485.66666666666663</ele><time>2026-05-04T14:27:51.001Z</time></trkpt><trkpt lat="43.02950769673903" lon="11.771110752152145"><ele>488.0</ele><time>2026-05-04T14:27:52.001Z</time></trkpt><trkpt lat="43.02938761863329" lon="11.771217160988021"><ele>488.0</ele><time>2026-05-04T14:27:53.001Z</time></trkpt><trkpt lat="43.02932311109484" lon="11.771380426496146"><ele>488.0</ele><time>2026-05-04T14:27:54.001Z</time></trkpt><trkpt lat="43.02930484135454" lon="11.771567599110758"><ele>488.0</ele><time>2026-05-04T14:27:55.001Z</time></trkpt><trkpt lat="43.02933622425757" lon="11.77174816088839"><ele>488.0</ele><time>2026-05-04T14:27:56.001Z</time></trkpt><trkpt lat="43.02940734906551" lon="11.77189938626846"><ele>489.4</ele><time>2026-05-04T14:27:57.001Z</time></trkpt><trkpt lat="43.029506934767284" lon="11.772012330894793"><ele>490.79999999999995</ele><time>2026-05-04T14:27:58.001Z</time></trkpt><trkpt lat="43.02961673528291" lon="11.772083103523299"><ele>492.2</ele><time>2026-05-04T14:27:59.001Z</time></trkpt><trkpt lat="43.02970030274315" lon="11.772118649610402"><ele>493.6</ele><time>2026-05-04T14:28:00.001Z</time></trkpt><trkpt lat="43.02977651084433" lon="11.772171396435478"><ele>495.0</ele><time>2026-05-04T14:28:01.002Z</time></trkpt><trkpt lat="43.029854333967236" lon="11.772218100327361"><ele>495.0</ele><time>2026-05-04T14:28:02.002Z</time></trkpt><trkpt lat="43.02992646404189" lon="11.772267382848021"><ele>495.0</ele><time>2026-05-04T14:28:03.002Z</time></trkpt><trkpt lat="43.029993761088456" lon="11.772332201728712"><ele>495.0</ele><time>2026-05-04T14:28:04.002Z</time></trkpt><trkpt lat="43.030054774109445" lon="11.772423804484687"><ele>495.0</ele><time>2026-05-04T14:28:05.002Z</time></trkpt><trkpt lat="43.03009844947661" lon="11.772531150625273"><ele>495.0</ele><time>2026-05-04T14:28:06.002Z</time></trkpt><trkpt lat="43.030116797520975" lon="11.772656688033663"><ele>495.0</ele><time>2026-05-04T14:28:07.002Z</time></trkpt><trkpt lat="43.030112125673355" lon="11.772791375115359"><ele>497.0</ele><time>2026-05-04T14:28:08.002Z</time></trkpt><trkpt lat="43.030083473766425" lon="11.772930058531873"><ele>499.0</ele><time>2026-05-04T14:28:09.002Z</time></trkpt><trkpt lat="43.030038557883366" lon="11.773053667331503"><ele>501.0</ele><time>2026-05-04T14:28:10.002Z</time></trkpt><trkpt lat="43.029976836353654" lon="11.773199851279735"><ele>503.0</ele><time>2026-05-04T14:28:11.002Z</time></trkpt><trkpt lat="43.029888964828594" lon="11.77336314172144"><ele>505.0</ele><time>2026-05-04T14:28:12.002Z</time></trkpt><trkpt lat="43.02977657247204" lon="11.773525042986158"><ele>507.0</ele><time>2026-05-04T14:28:13.002Z</time></trkpt><trkpt lat="43.02967632505609" lon="11.773671088105623"><ele>509.0</ele><time>2026-05-04T14:28:14.002Z</time></trkpt><trkpt lat="43.02958609581161" lon="11.77380185396399"><ele>511.0</ele><time>2026-05-04T14:28:15.002Z</time></trkpt><trkpt lat="43.02949211398287" lon="11.773920472482517"><ele>511.0</ele><time>2026-05-04T14:28:16.002Z</time></trkpt><trkpt lat="43.02938508855943" lon="11.7740256596163"><ele>511.0</ele><time>2026-05-04T14:28:17.002Z</time></trkpt><trkpt lat="43.029277897030475" lon="11.77411260406982"><ele>511.0</ele><time>2026-05-04T14:28:18.002Z</time></trkpt><trkpt lat="43.02917313837621" lon="11.774178480513337"><ele>511.0</ele><time>2026-05-04T14:28:19.002Z</time></trkpt><trkpt lat="43.0290682268989" lon="11.774227952120821"><ele>510.8</ele><time>2026-05-04T14:28:20.002Z</time></trkpt><trkpt lat="43.02896417382923" lon="11.77426636868724"><ele>510.6</ele><time>2026-05-04T14:28:21.002Z</time></trkpt><trkpt lat="43.02885984030323" lon="11.774304386002004"><ele>510.4</ele><time>2026-05-04T14:28:22.002Z</time></trkpt><trkpt lat="43.02875673330137" lon="11.774348648035906"><ele>510.2</ele><time>2026-05-04T14:28:23.002Z</time></trkpt><trkpt lat="43.02865099203537" lon="11.774387846073394"><ele>510.0</ele><time>2026-05-04T14:28:24.002Z</time></trkpt><trkpt lat="43.02854579428897" lon="11.774429634722415"><ele>510.8</ele><time>2026-05-04T14:28:25.002Z</time></trkpt><trkpt lat="43.02843374733574" lon="11.77445951847687"><ele>511.6</ele><time>2026-05-04T14:28:26.002Z</time></trkpt><trkpt lat="43.028326787498564" lon="11.774487828392699"><ele>512.4</ele><time>2026-05-04T14:28:27.002Z</time></trkpt><trkpt lat="43.02827326637628" lon="11.774630498588946"><ele>513.2</ele><time>2026-05-04T14:28:28Z</time></trkpt><trkpt lat="43.028212603201744" lon="11.774724141486683"><ele>514.0</ele><time>2026-05-04T14:28:29Z</time></trkpt><trkpt lat="43.028169035313994" lon="11.774834862232801"><ele>514.0</ele><time>2026-05-04T14:28:30Z</time></trkpt><trkpt lat="43.02813110708062" lon="11.77500770820132"><ele>514.0</ele><time>2026-05-04T14:28:31Z</time></trkpt><trkpt lat="43.02808543433367" lon="11.775224756930417"><ele>514.0</ele><time>2026-05-04T14:28:32Z</time></trkpt><trkpt lat="43.028010009187085" lon="11.775436857745927"><ele>517.6666666666667</ele><time>2026-05-04T14:28:33Z</time></trkpt><trkpt lat="43.02790905332373" lon="11.775657957855708"><ele>521.3333333333334</ele><time>2026-05-04T14:28:34Z</time></trkpt><trkpt lat="43.02778928632997" lon="11.775879502491618"><ele>525.0</ele><time>2026-05-04T14:28:35Z</time></trkpt><trkpt lat="43.02764679692391" lon="11.776087748313568"><ele>530.3333333333334</ele><time>2026-05-04T14:28:36Z</time></trkpt><trkpt lat="43.02746932355781" lon="11.77625788145844"><ele>535.6666666666667</ele><time>2026-05-04T14:28:37Z</time></trkpt><trkpt lat="43.02726093996457" lon="11.776394456012572"><ele>541.0</ele><time>2026-05-04T14:28:38Z</time></trkpt><trkpt lat="43.02704123996608" lon="11.77650728234221"><ele>541.0</ele><time>2026-05-04T14:28:39Z</time></trkpt><trkpt lat="43.026814756178716" lon="11.776600000494785"><ele>541.0</ele><time>2026-05-04T14:28:40Z</time></trkpt><trkpt lat="43.026581579781656" lon="11.776669671442141"><ele>538.3333333333334</ele><time>2026-05-04T14:28:41Z</time></trkpt><trkpt lat="43.026382548366335" lon="11.776723513421693"><ele>535.6666666666666</ele><time>2026-05-04T14:28:42Z</time></trkpt><trkpt lat="43.02621590707482" lon="11.776769999990316"><ele>533.0</ele><time>2026-05-04T14:28:43Z</time></trkpt><trkpt lat="43.026083440107485" lon="11.776824802414243"><ele>534.25</ele><time>2026-05-04T14:28:44Z</time></trkpt><trkpt lat="43.02598061663946" lon="11.776914215551933"><ele>535.5</ele><time>2026-05-04T14:28:45Z</time></trkpt><trkpt lat="43.02587511667106" lon="11.777066394761661"><ele>536.75</ele><time>2026-05-04T14:28:46Z</time></trkpt><trkpt lat="43.0257762975925" lon="11.77726046385463"><ele>538.0</ele><time>2026-05-04T14:28:47Z</time></trkpt><trkpt lat="43.02568670336247" lon="11.777456406295164"><ele>538.0</ele><time>2026-05-04T14:28:48Z</time></trkpt><trkpt lat="43.0255819813033" lon="11.777607405797244"><ele>538.0</ele><time>2026-05-04T14:28:49.001Z</time></trkpt><trkpt lat="43.02545078473767" lon="11.777718336047759"><ele>538.0</ele><time>2026-05-04T14:28:50.001Z</time></trkpt><trkpt lat="43.02530987828381" lon="11.777821936706799"><ele>540.4</ele><time>2026-05-04T14:28:51.001Z</time></trkpt><trkpt lat="43.02519075780163" lon="11.777933537109975"><ele>542.8</ele><time>2026-05-04T14:28:52.001Z</time></trkpt><trkpt lat="43.025115950671335" lon="11.77805105236604"><ele>545.2</ele><time>2026-05-04T14:28:53.001Z</time></trkpt><trkpt lat="43.02508690287105" lon="11.778139973282052"><ele>547.6</ele><time>2026-05-04T14:28:54.001Z</time></trkpt><trkpt lat="43.02501799684175" lon="11.778185781922831"><ele>550.0</ele><time>2026-05-04T14:28:56.001Z</time></trkpt><trkpt lat="43.02494401652183" lon="11.778181094348284"><ele>550.0</ele><time>2026-05-04T14:28:59.001Z</time></trkpt><trkpt lat="43.024859983476325" lon="11.778181671826351"><ele>550.0</ele><time>2026-05-04T14:29:02.001Z</time></trkpt><trkpt lat="43.02473779387006" lon="11.778248299521618"><ele>550.0</ele><time>2026-05-04T14:29:04.001Z</time></trkpt><trkpt lat="43.02468351343162" lon="11.778305012833961"><ele>550.0</ele><time>2026-05-04T14:29:05.001Z</time></trkpt><trkpt lat="43.024624400413146" lon="11.77837005764183"><ele>550.0</ele><time>2026-05-04T14:29:06.001Z</time></trkpt><trkpt lat="43.02456348554127" lon="11.778429381845081"><ele>550.0</ele><time>2026-05-04T14:29:07.001Z</time></trkpt><trkpt lat="43.024508448053986" lon="11.778484665906333"><ele>550.0</ele><time>2026-05-04T14:29:08.001Z</time></trkpt><trkpt lat="43.02443345794455" lon="11.778519855584904"><ele>550.0</ele><time>2026-05-04T14:29:10.001Z</time></trkpt><trkpt lat="43.0245395894046" lon="11.778432001928204"><ele>550.0</ele><time>2026-05-04T14:29:18.001Z</time></trkpt><trkpt lat="43.0246049435314" lon="11.778357518098293"><ele>550.0</ele><time>2026-05-04T14:29:19.001Z</time></trkpt><trkpt lat="43.02467886743919" lon="11.778299299810302"><ele>550.0</ele><time>2026-05-04T14:29:20.001Z</time></trkpt><trkpt lat="43.02475241745398" lon="11.77824527772249"><ele>550.0</ele><time>2026-05-04T14:29:21.001Z</time></trkpt><trkpt lat="43.024858025916615" lon="11.778198163086119"><ele>550.0</ele><time>2026-05-04T14:29:23.001Z</time></trkpt><trkpt lat="43.02493005872995" lon="11.778202690966939"><ele>550.0</ele><time>2026-05-04T14:29:25.001Z</time></trkpt><trkpt lat="43.02502197673289" lon="11.778183956954376"><ele>550.0</ele><time>2026-05-04T14:29:27.001Z</time></trkpt><trkpt lat="43.02510614413844" lon="11.778176450440412"><ele>550.0</ele><time>2026-05-04T14:29:29.001Z</time></trkpt><trkpt lat="43.02513923305317" lon="11.77827057061684"><ele>550.0</ele><time>2026-05-04T14:29:32.001Z</time></trkpt><trkpt lat="43.025128895177176" lon="11.778360299781474"><ele>550.2</ele><time>2026-05-04T14:29:33.001Z</time></trkpt><trkpt lat="43.02510163480478" lon="11.778489525738037"><ele>550.4</ele><time>2026-05-04T14:29:34.001Z</time></trkpt><trkpt lat="43.025079116996345" lon="11.778630978760393"><ele>550.6</ele><time>2026-05-04T14:29:35.001Z</time></trkpt><trkpt lat="43.02506335460947" lon="11.778786641685059"><ele>550.8</ele><time>2026-05-04T14:29:36.001Z</time></trkpt><trkpt lat="43.02504858405699" lon="11.778932415422576"><ele>551.0</ele><time>2026-05-04T14:29:37.001Z</time></trkpt><trkpt lat="43.02503389853915" lon="11.779051186123262"><ele>552.0</ele><time>2026-05-04T14:29:38.001Z</time></trkpt><trkpt lat="43.02501741449589" lon="11.779141276107717"><ele>553.0</ele><time>2026-05-04T14:29:39.001Z</time></trkpt><trkpt lat="43.024941839514874" lon="11.77924116370103"><ele>554.0</ele><time>2026-05-04T14:29:41.001Z</time></trkpt><trkpt lat="43.024811544444304" lon="11.779314543499584"><ele>555.0</ele><time>2026-05-04T14:29:43.001Z</time></trkpt><trkpt lat="43.024743332685475" lon="11.779419491899413"><ele>556.0</ele><time>2026-05-04T14:29:45.001Z</time></trkpt><trkpt lat="43.02474975060968" lon="11.779558188751619"><ele>557.5</ele><time>2026-05-04T14:29:47.001Z</time></trkpt><trkpt lat="43.02477369145282" lon="11.779650079129574"><ele>559.0</ele><time>2026-05-04T14:29:48.001Z</time></trkpt><trkpt lat="43.02479936978056" lon="11.779780484136605"><ele>560.5</ele><time>2026-05-04T14:29:49.002Z</time></trkpt><trkpt lat="43.02482227789022" lon="11.779879785480071"><ele>562.0</ele><time>2026-05-04T14:29:50.002Z</time></trkpt><trkpt lat="43.024816839978044" lon="11.780029025527272"><ele>563.5</ele><time>2026-05-04T14:29:52.002Z</time></trkpt><trkpt lat="43.02477909273515" lon="11.780099866235489"><ele>565.0</ele><time>2026-05-04T14:29:53.002Z</time></trkpt><trkpt lat="43.02471362045321" lon="11.780174614362151"><ele>565.5</ele><time>2026-05-04T14:29:54.002Z</time></trkpt><trkpt lat="43.02463564520766" lon="11.78024633868584"><ele>566.0</ele><time>2026-05-04T14:29:55.002Z</time></trkpt><trkpt lat="43.0245504021501" lon="11.780338227172637"><ele>566.5</ele><time>2026-05-04T14:29:56.002Z</time></trkpt><trkpt lat="43.02445819503742" lon="11.780449529670594"><ele>567.0</ele><time>2026-05-04T14:29:57.002Z</time></trkpt><trkpt lat="43.02435923770058" lon="11.780567438016291"><ele>567.0</ele><time>2026-05-04T14:29:58.002Z</time></trkpt><trkpt lat="43.02425922788447" lon="11.780680339325519"><ele>567.0</ele><time>2026-05-04T14:29:59.002Z</time></trkpt><trkpt lat="43.024176180123135" lon="11.780775952406872"><ele>567.0</ele><time>2026-05-04T14:30:00.002Z</time></trkpt><trkpt lat="43.02412053285835" lon="11.780859881268382"><ele>567.0</ele><time>2026-05-04T14:30:01.002Z</time></trkpt><trkpt lat="43.02402749170107" lon="11.780937769940113"><ele>567.0</ele><time>2026-05-04T14:30:03.002Z</time></trkpt><trkpt lat="43.02396646743372" lon="11.780885638075256"><ele>570.3333333333334</ele><time>2026-05-04T14:30:05.002Z</time></trkpt><trkpt lat="43.02392452702979" lon="11.780820960075477"><ele>573.6666666666666</ele><time>2026-05-04T14:30:06.002Z</time></trkpt><trkpt lat="43.02388414776208" lon="11.78073137557372"><ele>577.0</ele><time>2026-05-04T14:30:07.002Z</time></trkpt><trkpt lat="43.02383659986586" lon="11.780631776847798"><ele>580.3333333333333</ele><time>2026-05-04T14:30:08.002Z</time></trkpt><trkpt lat="43.02377659974131" lon="11.78052831727608"><ele>583.6666666666666</ele><time>2026-05-04T14:30:09.002Z</time></trkpt><trkpt lat="43.02371191997472" lon="11.780428151951073"><ele>587.0</ele><time>2026-05-04T14:30:10.002Z</time></trkpt><trkpt lat="43.02365122144251" lon="11.78033926082249"><ele>587.0</ele><time>2026-05-04T14:30:11.002Z</time></trkpt><trkpt lat="43.023594783208225" lon="11.780253241883077"><ele>587.0</ele><time>2026-05-04T14:30:12.002Z</time></trkpt><trkpt lat="43.023534173997376" lon="11.78016035199562"><ele>587.0</ele><time>2026-05-04T14:30:13.002Z</time></trkpt><trkpt lat="43.02348225720896" lon="11.780074283077264"><ele>587.0</ele><time>2026-05-04T14:30:14.002Z</time></trkpt><trkpt lat="43.02343449353596" lon="11.779996433597324"><ele>587.0</ele><time>2026-05-04T14:30:15.002Z</time></trkpt><trkpt lat="43.023350714340026" lon="11.779927114035797"><ele>587.0</ele><time>2026-05-04T14:30:17.002Z</time></trkpt><trkpt lat="43.023258249601476" lon="11.77995781182004"><ele>586.0</ele><time>2026-05-04T14:30:19.002Z</time></trkpt><trkpt lat="43.02315480791471" lon="11.78003764725314"><ele>585.0</ele><time>2026-05-04T14:30:21.002Z</time></trkpt><trkpt lat="43.02307396873914" lon="11.780163866875707"><ele>584.0</ele><time>2026-05-04T14:30:23.002Z</time></trkpt><trkpt lat="43.02303177562593" lon="11.78026489143881"><ele>583.0</ele><time>2026-05-04T14:30:24.002Z</time></trkpt><trkpt lat="43.02299136827438" lon="11.780371132202344"><ele>582.0</ele><time>2026-05-04T14:30:25.002Z</time></trkpt><trkpt lat="43.022938144435145" lon="11.780525475175569"><ele>586.75</ele><time>2026-05-04T14:30:26.002Z</time></trkpt><trkpt lat="43.02287321283513" lon="11.78067052022798"><ele>591.5</ele><time>2026-05-04T14:30:27.002Z</time></trkpt><trkpt lat="43.02278956870969" lon="11.780822436706796"><ele>596.25</ele><time>2026-05-04T14:30:28.002Z</time></trkpt><trkpt lat="43.02272160952125" lon="11.78092292328402"><ele>601.0</ele><time>2026-05-04T14:30:29.002Z</time></trkpt><trkpt lat="43.02263091106232" lon="11.781042086516647"><ele>602.0</ele><time>2026-05-04T14:30:30.002Z</time></trkpt><trkpt lat="43.022520092176485" lon="11.781187798897882"><ele>603.0</ele><time>2026-05-04T14:30:31.002Z</time></trkpt><trkpt lat="43.02243381732835" lon="11.781310388529137"><ele>604.0</ele><time>2026-05-04T14:30:32.002Z</time></trkpt><trkpt lat="43.022361225802705" lon="11.781425066178496"><ele>605.0</ele><time>2026-05-04T14:30:33.002Z</time></trkpt><trkpt lat="43.02230985471668" lon="11.781543854139883"><ele>605.0</ele><time>2026-05-04T14:30:34.001Z</time></trkpt><trkpt lat="43.022268631673825" lon="11.781662849502526"><ele>605.0</ele><time>2026-05-04T14:30:35.001Z</time></trkpt><trkpt lat="43.022245062290786" lon="11.78178331662446"><ele>605.0</ele><time>2026-05-04T14:30:36.001Z</time></trkpt><trkpt lat="43.022211678437316" lon="11.78194007521898"><ele>605.0</ele><time>2026-05-04T14:30:37.001Z</time></trkpt><trkpt lat="43.02220003291782" lon="11.78209096446021"><ele>605.0</ele><time>2026-05-04T14:30:38.001Z</time></trkpt><trkpt lat="43.02217861321094" lon="11.782230025818011"><ele>607.0</ele><time>2026-05-04T14:30:39.001Z</time></trkpt><trkpt lat="43.02215072684355" lon="11.782334026072292"><ele>609.0</ele><time>2026-05-04T14:30:40.001Z</time></trkpt><trkpt lat="43.02210209108943" lon="11.782446364176344"><ele>611.0</ele><time>2026-05-04T14:30:41.001Z</time></trkpt><trkpt lat="43.022035374234676" lon="11.78256370996002"><ele>613.0</ele><time>2026-05-04T14:30:42.001Z</time></trkpt><trkpt lat="43.02195641900856" lon="11.782689972179671"><ele>615.0</ele><time>2026-05-04T14:30:43.001Z</time></trkpt><trkpt lat="43.02186646358652" lon="11.782826477470449"><ele>615.75</ele><time>2026-05-04T14:30:44.001Z</time></trkpt><trkpt lat="43.02177060010539" lon="11.782970207662128"><ele>616.5</ele><time>2026-05-04T14:30:45.001Z</time></trkpt><trkpt lat="43.02167010204729" lon="11.783123451500723"><ele>617.25</ele><time>2026-05-04T14:30:46.001Z</time></trkpt><trkpt lat="43.02157275698049" lon="11.783279064378283"><ele>618.0</ele><time>2026-05-04T14:30:47.001Z</time></trkpt><trkpt lat="43.02145689482603" lon="11.783439519118549"><ele>622.0</ele><time>2026-05-04T14:30:48.001Z</time></trkpt><trkpt lat="43.021362351038356" lon="11.783556300023394"><ele>626.0</ele><time>2026-05-04T14:30:49.001Z</time></trkpt><trkpt lat="43.021268201475664" lon="11.78363401258248"><ele>630.0</ele><time>2026-05-04T14:30:50.001Z</time></trkpt><trkpt lat="43.02117670995596" lon="11.7836647009465"><ele>634.0</ele><time>2026-05-04T14:30:51.001Z</time></trkpt><trkpt lat="43.02109446513115" lon="11.783667831187671"><ele>638.0</ele><time>2026-05-04T14:30:52.001Z</time></trkpt><trkpt lat="43.02102142647296" lon="11.78365289875123"><ele>638.0</ele><time>2026-05-04T14:30:53.001Z</time></trkpt><trkpt lat="43.020953667469804" lon="11.783653268774156"><ele>638.0</ele><time>2026-05-04T14:30:54.001Z</time></trkpt><trkpt lat="43.02089022543919" lon="11.78367596720915"><ele>638.0</ele><time>2026-05-04T14:30:55.001Z</time></trkpt><trkpt lat="43.02080942161549" lon="11.78373124253268"><ele>638.0</ele><time>2026-05-04T14:30:56.001Z</time></trkpt><trkpt lat="43.020728986165125" lon="11.783812355731898"><ele>638.0</ele><time>2026-05-04T14:30:57.001Z</time></trkpt><trkpt lat="43.0206446946673" lon="11.783907766440745"><ele>638.0</ele><time>2026-05-04T14:30:58.001Z</time></trkpt><trkpt lat="43.02056703168318" lon="11.784019993050958"><ele>637.0</ele><time>2026-05-04T14:30:59.001Z</time></trkpt><trkpt lat="43.020482828211854" lon="11.784143891281401"><ele>636.0</ele><time>2026-05-04T14:31:00.001Z</time></trkpt><trkpt lat="43.02039201980793" lon="11.784279401343774"><ele>635.0</ele><time>2026-05-04T14:31:01.001Z</time></trkpt><trkpt lat="43.020284298312966" lon="11.78441436351606"><ele>634.0</ele><time>2026-05-04T14:31:02.001Z</time></trkpt><trkpt lat="43.02016626972527" lon="11.784540895240749"><ele>636.5</ele><time>2026-05-04T14:31:03.001Z</time></trkpt><trkpt lat="43.02004974546077" lon="11.784651811158039"><ele>639.0</ele><time>2026-05-04T14:31:04.001Z</time></trkpt><trkpt lat="43.01994628628255" lon="11.7847640213134"><ele>641.5</ele><time>2026-05-04T14:31:05.001Z</time></trkpt><trkpt lat="43.01984615681482" lon="11.784890862028686"><ele>644.0</ele><time>2026-05-04T14:31:06.001Z</time></trkpt><trkpt lat="43.01975313079004" lon="11.785012433641883"><ele>644.0</ele><time>2026-05-04T14:31:07.001Z</time></trkpt><trkpt lat="43.01966182705571" lon="11.785095101865188"><ele>644.0</ele><time>2026-05-04T14:31:08.001Z</time></trkpt><trkpt lat="43.01957292337602" lon="11.785125794694762"><ele>644.0</ele><time>2026-05-04T14:31:09.001Z</time></trkpt><trkpt lat="43.01948694735175" lon="11.785150954903916"><ele>644.0</ele><time>2026-05-04T14:31:10.001Z</time></trkpt><trkpt lat="43.01942043751632" lon="11.785195307902445"><ele>644.0</ele><time>2026-05-04T14:31:11.001Z</time></trkpt><trkpt lat="43.01935381990984" lon="11.785275212916558"><ele>644.5</ele><time>2026-05-04T14:31:12.001Z</time></trkpt><trkpt lat="43.01927408339693" lon="11.785402428674374"><ele>645.0</ele><time>2026-05-04T14:31:13.001Z</time></trkpt><trkpt lat="43.019181695208395" lon="11.78553825185235"><ele>645.5</ele><time>2026-05-04T14:31:14.001Z</time></trkpt><trkpt lat="43.019091020256816" lon="11.785674192934973"><ele>646.0</ele><time>2026-05-04T14:31:15.001Z</time></trkpt><trkpt lat="43.01902240744817" lon="11.785785559660942"><ele>646.0</ele><time>2026-05-04T14:31:16.001Z</time></trkpt><trkpt lat="43.01896910892016" lon="11.78587302748931"><ele>646.0</ele><time>2026-05-04T14:31:17.001Z</time></trkpt><trkpt lat="43.0189215754063" lon="11.786006284225563"><ele>646.0</ele><time>2026-05-04T14:31:19.001Z</time></trkpt><trkpt lat="43.01892992636943" lon="11.786200340008339"><ele>646.0</ele><time>2026-05-04T14:31:21.001Z</time></trkpt><trkpt lat="43.018942751132364" lon="11.786334096056997"><ele>646.0</ele><time>2026-05-04T14:31:22.001Z</time></trkpt><trkpt lat="43.01893971066993" lon="11.78649197330263"><ele>648.5</ele><time>2026-05-04T14:31:23.001Z</time></trkpt><trkpt lat="43.01891433754955" lon="11.786644015720423"><ele>651.0</ele><time>2026-05-04T14:31:24.001Z</time></trkpt><trkpt lat="43.01887198893838" lon="11.78678785287286"><ele>653.5</ele><time>2026-05-04T14:31:25.001Z</time></trkpt><trkpt lat="43.018822082339334" lon="11.786934555313206"><ele>656.0</ele><time>2026-05-04T14:31:26.001Z</time></trkpt><trkpt lat="43.01876256657654" lon="11.787060454294867"><ele>659.75</ele><time>2026-05-04T14:31:27.001Z</time></trkpt><trkpt lat="43.01868311803582" lon="11.787172180377107"><ele>663.5</ele><time>2026-05-04T14:31:28.001Z</time></trkpt><trkpt lat="43.01858453141105" lon="11.787282659304122"><ele>667.25</ele><time>2026-05-04T14:31:29.001Z</time></trkpt><trkpt lat="43.01848623051835" lon="11.787396208155215"><ele>671.0</ele><time>2026-05-04T14:31:30.001Z</time></trkpt><trkpt lat="43.01841433485966" lon="11.787493327456554"><ele>671.0</ele><time>2026-05-04T14:31:31.001Z</time></trkpt><trkpt lat="43.01836940327386" lon="11.787569154540364"><ele>671.0</ele><time>2026-05-04T14:31:32.001Z</time></trkpt><trkpt lat="43.018347932090194" lon="11.787658668942097"><ele>671.0</ele><time>2026-05-04T14:31:33.001Z</time></trkpt><trkpt lat="43.01833027981519" lon="11.787768927915057"><ele>671.0</ele><time>2026-05-04T14:31:34.001Z</time></trkpt><trkpt lat="43.0183167846523" lon="11.787902571436137"><ele>671.0</ele><time>2026-05-04T14:31:35.001Z</time></trkpt><trkpt lat="43.01829629645159" lon="11.78805357607106"><ele>671.0</ele><time>2026-05-04T14:31:36.001Z</time></trkpt><trkpt lat="43.018269104132116" lon="11.788231843698808"><ele>671.3333333333333</ele><time>2026-05-04T14:31:37.001Z</time></trkpt><trkpt lat="43.01823026379578" lon="11.788431042369476"><ele>671.6666666666666</ele><time>2026-05-04T14:31:38.001Z</time></trkpt><trkpt lat="43.01818603159885" lon="11.788640222199163"><ele>672.0</ele><time>2026-05-04T14:31:39.001Z</time></trkpt><trkpt lat="43.01813597872264" lon="11.788871098206831"><ele>672.0</ele><time>2026-05-04T14:31:40.001Z</time></trkpt><trkpt lat="43.01808691667633" lon="11.78910794018972"><ele>672.0</ele><time>2026-05-04T14:31:41.001Z</time></trkpt><trkpt lat="43.01803790857394" lon="11.789346838215252"><ele>672.0</ele><time>2026-05-04T14:31:42.001Z</time></trkpt><trkpt lat="43.0179981518073" lon="11.789579942345002"><ele>674.75</ele><time>2026-05-04T14:31:43.001Z</time></trkpt><trkpt lat="43.01796616440976" lon="11.789780600155778"><ele>677.5</ele><time>2026-05-04T14:31:44.001Z</time></trkpt><trkpt lat="43.017939146566" lon="11.789974798457768"><ele>680.25</ele><time>2026-05-04T14:31:45.001Z</time></trkpt><trkpt lat="43.0179180226174" lon="11.790132423673528"><ele>683.0</ele><time>2026-05-04T14:31:46.001Z</time></trkpt><trkpt lat="43.017897511523095" lon="11.79027168917547"><ele>686.25</ele><time>2026-05-04T14:31:47.001Z</time></trkpt><trkpt lat="43.01787473971951" lon="11.790439127686069"><ele>689.5</ele><time>2026-05-04T14:31:48.002Z</time></trkpt><trkpt lat="43.01785478223071" lon="11.790643732698292"><ele>692.75</ele><time>2026-05-04T14:31:49.002Z</time></trkpt><trkpt lat="43.01783946642841" lon="11.790860106108445"><ele>696.0</ele><time>2026-05-04T14:31:50.002Z</time></trkpt><trkpt lat="43.01782500634793" lon="11.791071805119476"><ele>697.0</ele><time>2026-05-04T14:31:51.002Z</time></trkpt><trkpt lat="43.01780208344318" lon="11.791253668433015"><ele>698.0</ele><time>2026-05-04T14:31:52.002Z</time></trkpt><trkpt lat="43.0177757702668" lon="11.791413203774715"><ele>699.0</ele><time>2026-05-04T14:31:53.002Z</time></trkpt><trkpt lat="43.01775114977572" lon="11.791537859073085"><ele>700.0</ele><time>2026-05-04T14:31:54.002Z</time></trkpt><trkpt lat="43.017718482983895" lon="11.791636669346593"><ele>701.0</ele><time>2026-05-04T14:31:55.002Z</time></trkpt><trkpt lat="43.017672461175955" lon="11.791744719490383"><ele>701.25</ele><time>2026-05-04T14:31:56.002Z</time></trkpt><trkpt lat="43.01762404228698" lon="11.791864992755825"><ele>701.5</ele><time>2026-05-04T14:31:57.002Z</time></trkpt><trkpt lat="43.01757197223854" lon="11.791997177922976"><ele>701.75</ele><time>2026-05-04T14:31:58.002Z</time></trkpt><trkpt lat="43.017519781927916" lon="11.792143055085594"><ele>702.0</ele><time>2026-05-04T14:31:59.002Z</time></trkpt><trkpt lat="43.01746654185555" lon="11.792294217996771"><ele>701.75</ele><time>2026-05-04T14:32:00.002Z</time></trkpt><trkpt lat="43.01740800933985" lon="11.792445559736839"><ele>701.5</ele><time>2026-05-04T14:32:01.002Z</time></trkpt><trkpt lat="43.01734769161158" lon="11.792608737843349"><ele>701.25</ele><time>2026-05-04T14:32:02.002Z</time></trkpt><trkpt lat="43.01728562231538" lon="11.792774104530713"><ele>701.0</ele><time>2026-05-04T14:32:03.002Z</time></trkpt><trkpt lat="43.01722420190134" lon="11.79294479683832"><ele>701.0</ele><time>2026-05-04T14:32:04.002Z</time></trkpt><trkpt lat="43.01715873050312" lon="11.793127418315514"><ele>701.0</ele><time>2026-05-04T14:32:05.002Z</time></trkpt><trkpt lat="43.017091039245564" lon="11.79331830345975"><ele>701.0</ele><time>2026-05-04T14:32:06.002Z</time></trkpt><trkpt lat="43.017016381682865" lon="11.793512215576987"><ele>702.0</ele><time>2026-05-04T14:32:07.002Z</time></trkpt><trkpt lat="43.01694716780661" lon="11.793698273774352"><ele>703.0</ele><time>2026-05-04T14:32:08.002Z</time></trkpt><trkpt lat="43.01688155042158" lon="11.793872578750785"><ele>704.0</ele><time>2026-05-04T14:32:09.002Z</time></trkpt><trkpt lat="43.01682440244025" lon="11.794041113016325"><ele>705.0</ele><time>2026-05-04T14:32:10.002Z</time></trkpt><trkpt lat="43.01676729550031" lon="11.794214614110121"><ele>705.0</ele><time>2026-05-04T14:32:11.002Z</time></trkpt><trkpt lat="43.01670111072837" lon="11.794390757715922"><ele>705.0</ele><time>2026-05-04T14:32:12.002Z</time></trkpt><trkpt lat="43.01663570878411" lon="11.794563229561476"><ele>705.0</ele><time>2026-05-04T14:32:13.002Z</time></trkpt><trkpt lat="43.01657163306299" lon="11.794734401380707"><ele>705.0</ele><time>2026-05-04T14:32:14.002Z</time></trkpt><trkpt lat="43.01650972677788" lon="11.794908309617684"><ele>705.75</ele><time>2026-05-04T14:32:15.002Z</time></trkpt><trkpt lat="43.01644458624508" lon="11.795079000015129"><ele>706.5</ele><time>2026-05-04T14:32:16.002Z</time></trkpt><trkpt lat="43.01638245119264" lon="11.795245817033923"><ele>707.25</ele><time>2026-05-04T14:32:17.002Z</time></trkpt><trkpt lat="43.01632133698132" lon="11.795416873215368"><ele>708.0</ele><time>2026-05-04T14:32:18.002Z</time></trkpt><trkpt lat="43.016262746727264" lon="11.795590345416295"><ele>708.0</ele><time>2026-05-04T14:32:19.002Z</time></trkpt><trkpt lat="43.016211927475744" lon="11.795760046938007"><ele>708.0</ele><time>2026-05-04T14:32:20.002Z</time></trkpt><trkpt lat="43.01614975266597" lon="11.79593199532545"><ele>708.0</ele><time>2026-05-04T14:32:21.002Z</time></trkpt><trkpt lat="43.01608339707337" lon="11.796102729268515"><ele>708.0</ele><time>2026-05-04T14:32:22.002Z</time></trkpt><trkpt lat="43.01601120045503" lon="11.79629032090373"><ele>708.0</ele><time>2026-05-04T14:32:23.002Z</time></trkpt><trkpt lat="43.01593768554349" lon="11.796482034121702"><ele>708.0</ele><time>2026-05-04T14:32:24.002Z</time></trkpt><trkpt lat="43.015857646634174" lon="11.796683389488946"><ele>708.0</ele><time>2026-05-04T14:32:25.002Z</time></trkpt><trkpt lat="43.01578211696744" lon="11.796893906135715"><ele>708.0</ele><time>2026-05-04T14:32:26.002Z</time></trkpt><trkpt lat="43.01570595388169" lon="11.797105711527964"><ele>708.0</ele><time>2026-05-04T14:32:27.002Z</time></trkpt><trkpt lat="43.01562323943502" lon="11.797321519539578"><ele>708.0</ele><time>2026-05-04T14:32:28.002Z</time></trkpt><trkpt lat="43.01554599884905" lon="11.7975330714295"><ele>708.0</ele><time>2026-05-04T14:32:29.002Z</time></trkpt><trkpt lat="43.0154658113677" lon="11.797750190156318"><ele>708.0</ele><time>2026-05-04T14:32:30.002Z</time></trkpt><trkpt lat="43.015385030271055" lon="11.797963285246054"><ele>708.0</ele><time>2026-05-04T14:32:31.002Z</time></trkpt><trkpt lat="43.015300026488845" lon="11.798187524787101"><ele>708.0</ele><time>2026-05-04T14:32:32.002Z</time></trkpt><trkpt lat="43.01522290264395" lon="11.798408971103314"><ele>708.0</ele><time>2026-05-04T14:32:33.002Z</time></trkpt><trkpt lat="43.01514213442615" lon="11.798631298481913"><ele>708.0</ele><time>2026-05-04T14:32:34.002Z</time></trkpt><trkpt lat="43.01506931803931" lon="11.798839330671116"><ele>707.75</ele><time>2026-05-04T14:32:35.002Z</time></trkpt><trkpt lat="43.01500992513265" lon="11.799033776045938"><ele>707.5</ele><time>2026-05-04T14:32:36.002Z</time></trkpt><trkpt lat="43.014960155337" lon="11.799213222890184"><ele>707.25</ele><time>2026-05-04T14:32:37.002Z</time></trkpt><trkpt lat="43.01490813176186" lon="11.799407949106127"><ele>707.0</ele><time>2026-05-04T14:32:38.002Z</time></trkpt><trkpt lat="43.01485452630821" lon="11.799606521776852"><ele>704.4000000000001</ele><time>2026-05-04T14:32:39.002Z</time></trkpt><trkpt lat="43.01480201636082" lon="11.799792513347327"><ele>701.8000000000001</ele><time>2026-05-04T14:32:40.001Z</time></trkpt><trkpt lat="43.01475931241191" lon="11.799951394686387"><ele>699.2</ele><time>2026-05-04T14:32:41.001Z</time></trkpt><trkpt lat="43.01472830763008" lon="11.800075537114338"><ele>696.6</ele><time>2026-05-04T14:32:42.001Z</time></trkpt><trkpt lat="43.01470355171829" lon="11.800182432267484"><ele>694.0</ele><time>2026-05-04T14:32:43.001Z</time></trkpt><trkpt lat="43.014687431241924" lon="11.800268414447158"><ele>694.0</ele><time>2026-05-04T14:32:44.001Z</time></trkpt><trkpt lat="43.01466430838325" lon="11.800392189143611"><ele>694.0</ele><time>2026-05-04T14:32:46.001Z</time></trkpt><trkpt lat="43.014646449359006" lon="11.800514903884284"><ele>694.0</ele><time>2026-05-04T14:32:48.001Z</time></trkpt><trkpt lat="43.014627924246525" lon="11.80064375375746"><ele>694.0</ele><time>2026-05-04T14:32:50.001Z</time></trkpt><trkpt lat="43.01459752265871" lon="11.800801383926274"><ele>694.0</ele><time>2026-05-04T14:32:52.001Z</time></trkpt><trkpt lat="43.01457959234763" lon="11.80088597197095"><ele>694.0</ele><time>2026-05-04T14:32:53.001Z</time></trkpt><trkpt lat="43.01456270979696" lon="11.800972010189012"><ele>694.0</ele><time>2026-05-04T14:32:54.001Z</time></trkpt><trkpt lat="43.0145433633942" lon="11.801063431351448"><ele>694.0</ele><time>2026-05-04T14:32:55.001Z</time></trkpt><trkpt lat="43.014522873577214" lon="11.801160884689349"><ele>694.0</ele><time>2026-05-04T14:32:56.001Z</time></trkpt><trkpt lat="43.01448284825556" lon="11.801248358660711"><ele>694.0</ele><time>2026-05-04T14:32:57.001Z</time></trkpt><trkpt lat="43.01445971536216" lon="11.801353948791371"><ele>694.0</ele><time>2026-05-04T14:32:58.001Z</time></trkpt><trkpt lat="43.014450380976676" lon="11.801471172839223"><ele>694.8000000000001</ele><time>2026-05-04T14:32:59.001Z</time></trkpt><trkpt lat="43.01442193953592" lon="11.801584931553737"><ele>695.6</ele><time>2026-05-04T14:33:00.001Z</time></trkpt><trkpt lat="43.01439271266225" lon="11.801695998474438"><ele>696.4</ele><time>2026-05-04T14:33:01.001Z</time></trkpt><trkpt lat="43.01436691239175" lon="11.801811954889248"><ele>697.2</ele><time>2026-05-04T14:33:02.001Z</time></trkpt><trkpt lat="43.014329266872544" lon="11.801938578556346"><ele>698.0</ele><time>2026-05-04T14:33:03.001Z</time></trkpt><trkpt lat="43.014286104022574" lon="11.802055054669992"><ele>698.0</ele><time>2026-05-04T14:33:04.001Z</time></trkpt><trkpt lat="43.014241208409025" lon="11.802162919980274"><ele>698.0</ele><time>2026-05-04T14:33:05.001Z</time></trkpt><trkpt lat="43.014182628502525" lon="11.802243244428228"><ele>698.0</ele><time>2026-05-04T14:33:06.001Z</time></trkpt><trkpt lat="43.014143793320436" lon="11.802359253233238"><ele>698.0</ele><time>2026-05-04T14:33:07.001Z</time></trkpt><trkpt lat="43.01413657570039" lon="11.802496097269643"><ele>698.0</ele><time>2026-05-04T14:33:08.001Z</time></trkpt><trkpt lat="43.0141315435455" lon="11.802647995779179"><ele>700.3333333333333</ele><time>2026-05-04T14:33:09.001Z</time></trkpt><trkpt lat="43.01413770663308" lon="11.802826895273832"><ele>702.6666666666666</ele><time>2026-05-04T14:33:10.001Z</time></trkpt><trkpt lat="43.014138238107165" lon="11.803034671979821"><ele>705.0</ele><time>2026-05-04T14:33:11.001Z</time></trkpt><trkpt lat="43.01412980163904" lon="11.803271817291742"><ele>705.6666666666666</ele><time>2026-05-04T14:33:12.001Z</time></trkpt><trkpt lat="43.01411518393316" lon="11.803521432901693"><ele>706.3333333333333</ele><time>2026-05-04T14:33:13.001Z</time></trkpt><trkpt lat="43.014099641621925" lon="11.803765737329645"><ele>707.0</ele><time>2026-05-04T14:33:14.001Z</time></trkpt><trkpt lat="43.01408708139978" lon="11.803986664098671"><ele>707.0</ele><time>2026-05-04T14:33:15.001Z</time></trkpt><trkpt lat="43.014064713311654" lon="11.804193498401466"><ele>707.0</ele><time>2026-05-04T14:33:16.001Z</time></trkpt><trkpt lat="43.01403408951134" lon="11.80438061887781"><ele>707.0</ele><time>2026-05-04T14:33:17.001Z</time></trkpt><trkpt lat="43.01399154059565" lon="11.804548070793023"><ele>707.0</ele><time>2026-05-04T14:33:18.001Z</time></trkpt><trkpt lat="43.01393945436102" lon="11.804688619414472"><ele>707.75</ele><time>2026-05-04T14:33:19.001Z</time></trkpt><trkpt lat="43.01385615728797" lon="11.804799837371279"><ele>708.5</ele><time>2026-05-04T14:33:20.001Z</time></trkpt><trkpt lat="43.01375481866472" lon="11.804913072852537"><ele>709.25</ele><time>2026-05-04T14:33:21.001Z</time></trkpt><trkpt lat="43.01365024572412" lon="11.805077403028928"><ele>710.0</ele><time>2026-05-04T14:33:22.001Z</time></trkpt><trkpt lat="43.01351482920005" lon="11.805226949831965"><ele>711.4</ele><time>2026-05-04T14:33:23.001Z</time></trkpt><trkpt lat="43.01339718954784" lon="11.805365977893457"><ele>712.8</ele><time>2026-05-04T14:33:24.001Z</time></trkpt><trkpt lat="43.013293237545085" lon="11.805422958341065"><ele>714.2</ele><time>2026-05-04T14:33:25.001Z</time></trkpt><trkpt lat="43.01321349772841" lon="11.805459524201886"><ele>715.6</ele><time>2026-05-04T14:33:26.001Z</time></trkpt><trkpt lat="43.01313609395264" lon="11.80547664284304"><ele>717.0</ele><time>2026-05-04T14:33:27.001Z</time></trkpt><trkpt lat="43.01303924000409" lon="11.80550595307138"><ele>718.6666666666666</ele><time>2026-05-04T14:33:28.001Z</time></trkpt><trkpt lat="43.01294403056258" lon="11.805530140246772"><ele>720.3333333333334</ele><time>2026-05-04T14:33:29.001Z</time></trkpt><trkpt lat="43.01287216418709" lon="11.805574603291255"><ele>722.0</ele><time>2026-05-04T14:33:30.001Z</time></trkpt><trkpt lat="43.01280017792744" lon="11.805610238560682"><ele>723.6666666666667</ele><time>2026-05-04T14:33:31.001Z</time></trkpt><trkpt lat="43.01272789439043" lon="11.80561526648457"><ele>725.3333333333334</ele><time>2026-05-04T14:33:32.001Z</time></trkpt><trkpt lat="43.01264622463491" lon="11.8055469591617"><ele>727.0</ele><time>2026-05-04T14:33:33.001Z</time></trkpt><trkpt lat="43.01252267038108" lon="11.805507575429495"><ele>729.25</ele><time>2026-05-04T14:33:34.001Z</time></trkpt><trkpt lat="43.012372624030924" lon="11.805488197066364"><ele>731.5</ele><time>2026-05-04T14:33:35.001Z</time></trkpt><trkpt lat="43.012228773092005" lon="11.805427124792475"><ele>733.75</ele><time>2026-05-04T14:33:36.001Z</time></trkpt><trkpt lat="43.012116261130046" lon="11.80536231689564"><ele>736.0</ele><time>2026-05-04T14:33:37.002Z</time></trkpt><trkpt lat="43.01201772061892" lon="11.805285952055737"><ele>736.0</ele><time>2026-05-04T14:33:38.002Z</time></trkpt><trkpt lat="43.0119063734218" lon="11.80518641893898"><ele>736.0</ele><time>2026-05-04T14:33:39.002Z</time></trkpt><trkpt lat="43.01177714158068" lon="11.805054734574759"><ele>736.0</ele><time>2026-05-04T14:33:40.002Z</time></trkpt><trkpt lat="43.01164898092343" lon="11.804906037077094"><ele>737.0</ele><time>2026-05-04T14:33:41.002Z</time></trkpt><trkpt lat="43.0115308135746" lon="11.804776305232723"><ele>738.0</ele><time>2026-05-04T14:33:42.002Z</time></trkpt><trkpt lat="43.01140353820621" lon="11.804641000317266"><ele>739.0</ele><time>2026-05-04T14:33:43.002Z</time></trkpt><trkpt lat="43.01129594374319" lon="11.804528529072277"><ele>740.0</ele><time>2026-05-04T14:33:44.002Z</time></trkpt><trkpt lat="43.01123888975526" lon="11.804473737182905"><ele>740.0</ele><time>2026-05-04T14:33:45.002Z</time></trkpt><trkpt lat="43.01117263361827" lon="11.804468094388854"><ele>740.0</ele><time>2026-05-04T14:33:47.002Z</time></trkpt><trkpt lat="43.01111536198306" lon="11.80454580113819"><ele>740.0</ele><time>2026-05-04T14:33:49.002Z</time></trkpt><trkpt lat="43.0110866132274" lon="11.804635166798926"><ele>740.0</ele><time>2026-05-04T14:33:50.002Z</time></trkpt><trkpt lat="43.01107101863972" lon="11.804758003898119"><ele>740.0</ele><time>2026-05-04T14:33:51.002Z</time></trkpt><trkpt lat="43.011051868073984" lon="11.804910826638597"><ele>740.0</ele><time>2026-05-04T14:33:52.002Z</time></trkpt><trkpt lat="43.0110277833233" lon="11.805067248520912"><ele>741.6666666666666</ele><time>2026-05-04T14:33:53.002Z</time></trkpt><trkpt lat="43.01099928656645" lon="11.805195002701607"><ele>743.3333333333333</ele><time>2026-05-04T14:33:54.002Z</time></trkpt><trkpt lat="43.010969705220525" lon="11.805298150135902"><ele>745.0</ele><time>2026-05-04T14:33:55.002Z</time></trkpt><trkpt lat="43.010922931790944" lon="11.805381470242184"><ele>746.6666666666666</ele><time>2026-05-04T14:33:56.002Z</time></trkpt><trkpt lat="43.010858177151924" lon="11.805435479531925"><ele>748.3333333333334</ele><time>2026-05-04T14:33:57.002Z</time></trkpt><trkpt lat="43.01076888221401" lon="11.805431276326107"><ele>750.0</ele><time>2026-05-04T14:33:58.002Z</time></trkpt><trkpt lat="43.01066591299626" lon="11.805485381363793"><ele>752.6666666666666</ele><time>2026-05-04T14:33:59.002Z</time></trkpt><trkpt lat="43.01051980310721" lon="11.80551444332314"><ele>755.3333333333333</ele><time>2026-05-04T14:34:00.002Z</time></trkpt><trkpt lat="43.010355783844304" lon="11.805552223608055"><ele>758.0</ele><time>2026-05-04T14:34:01.002Z</time></trkpt><trkpt lat="43.01019358643173" lon="11.805590740558719"><ele>758.0</ele><time>2026-05-04T14:34:02.002Z</time></trkpt><trkpt lat="43.0100351398792" lon="11.805622308772799"><ele>758.0</ele><time>2026-05-04T14:34:03.002Z</time></trkpt><trkpt lat="43.00989100958605" lon="11.80565071091808"><ele>758.0</ele><time>2026-05-04T14:34:04.002Z</time></trkpt><trkpt lat="43.00974642073781" lon="11.805673838156265"><ele>758.5</ele><time>2026-05-04T14:34:05.002Z</time></trkpt><trkpt lat="43.009598715064676" lon="11.805706041799924"><ele>759.0</ele><time>2026-05-04T14:34:06.002Z</time></trkpt><trkpt lat="43.00946069697817" lon="11.805745594756935"><ele>759.5</ele><time>2026-05-04T14:34:07.002Z</time></trkpt><trkpt lat="43.00932523538669" lon="11.805793061808354"><ele>760.0</ele><time>2026-05-04T14:34:08.002Z</time></trkpt><trkpt lat="43.0091894096308" lon="11.80585584854983"><ele>760.25</ele><time>2026-05-04T14:34:09.002Z</time></trkpt><trkpt lat="43.00904408280503" lon="11.805934855302665"><ele>760.5</ele><time>2026-05-04T14:34:10.002Z</time></trkpt><trkpt lat="43.00891122890875" lon="11.806007405979782"><ele>760.75</ele><time>2026-05-04T14:34:11.002Z</time></trkpt><trkpt lat="43.0087933587349" lon="11.806067925838484"><ele>761.0</ele><time>2026-05-04T14:34:12.002Z</time></trkpt><trkpt lat="43.00868819667864" lon="11.80613763096064"><ele>763.0</ele><time>2026-05-04T14:34:13.002Z</time></trkpt><trkpt lat="43.00858581930495" lon="11.806221545712235"><ele>765.0</ele><time>2026-05-04T14:34:14.002Z</time></trkpt><trkpt lat="43.00849058674576" lon="11.806320354083633"><ele>767.0</ele><time>2026-05-04T14:34:15.002Z</time></trkpt><trkpt lat="43.00840631129986" lon="11.806418665765133"><ele>769.0</ele><time>2026-05-04T14:34:16.002Z</time></trkpt><trkpt lat="43.00832480637354" lon="11.806524016274714"><ele>769.0</ele><time>2026-05-04T14:34:17.002Z</time></trkpt><trkpt lat="43.00824869298331" lon="11.806638377769014"><ele>769.0</ele><time>2026-05-04T14:34:18.002Z</time></trkpt><trkpt lat="43.00818016043678" lon="11.806764025484439"><ele>769.0</ele><time>2026-05-04T14:34:19.002Z</time></trkpt><trkpt lat="43.00812061794129" lon="11.806883721439146"><ele>769.0</ele><time>2026-05-04T14:34:20.002Z</time></trkpt><trkpt lat="43.00805548326592" lon="11.80700118658872"><ele>769.0</ele><time>2026-05-04T14:34:21.002Z</time></trkpt><trkpt lat="43.007978191182694" lon="11.807125923693745"><ele>769.4000000000001</ele><time>2026-05-04T14:34:22.002Z</time></trkpt><trkpt lat="43.007907400601205" lon="11.807259836709955"><ele>769.8</ele><time>2026-05-04T14:34:23.002Z</time></trkpt><trkpt lat="43.00781585545357" lon="11.807377161953687"><ele>770.2</ele><time>2026-05-04T14:34:24.002Z</time></trkpt><trkpt lat="43.007755724625866" lon="11.807474474693887"><ele>770.5999999999999</ele><time>2026-05-04T14:34:25.002Z</time></trkpt><trkpt lat="43.007706995412555" lon="11.807566415282576"><ele>771.0</ele><time>2026-05-04T14:34:26.002Z</time></trkpt><trkpt lat="43.00766957474258" lon="11.807646955113784"><ele>771.0</ele><time>2026-05-04T14:34:27.002Z</time></trkpt><trkpt lat="43.007613683998414" lon="11.807723520814381"><ele>771.0</ele><time>2026-05-04T14:34:28.002Z</time></trkpt><trkpt lat="43.00755739933447" lon="11.807805677034466"><ele>771.0</ele><time>2026-05-04T14:34:29.002Z</time></trkpt><trkpt lat="43.00749792236228" lon="11.807891374275519"><ele>771.0</ele><time>2026-05-04T14:34:30.002Z</time></trkpt><trkpt lat="43.00742459013194" lon="11.807997034790152"><ele>771.0</ele><time>2026-05-04T14:34:31.002Z</time></trkpt><trkpt lat="43.007346325697824" lon="11.808133160451273"><ele>769.25</ele><time>2026-05-04T14:34:32.002Z</time></trkpt><trkpt lat="43.00724026761501" lon="11.808258575283357"><ele>767.5</ele><time>2026-05-04T14:34:33.002Z</time></trkpt><trkpt lat="43.00714386243838" lon="11.808392785849552"><ele>765.75</ele><time>2026-05-04T14:34:34.002Z</time></trkpt><trkpt lat="43.00704202536742" lon="11.808528617349033"><ele>764.0</ele><time>2026-05-04T14:34:35.002Z</time></trkpt><trkpt lat="43.006944210872014" lon="11.808656380799345"><ele>764.0</ele><time>2026-05-04T14:34:36.002Z</time></trkpt><trkpt lat="43.00684012964815" lon="11.808786542685723"><ele>764.0</ele><time>2026-05-04T14:34:37.002Z</time></trkpt><trkpt lat="43.006738733298505" lon="11.808907235115022"><ele>764.0</ele><time>2026-05-04T14:34:38.002Z</time></trkpt><trkpt lat="43.00663304153169" lon="11.8090390933412"><ele>764.0</ele><time>2026-05-04T14:34:39.002Z</time></trkpt><trkpt lat="43.00653492988762" lon="11.809155692507666"><ele>765.5</ele><time>2026-05-04T14:34:40.002Z</time></trkpt><trkpt lat="43.006427159693494" lon="11.809272617647357"><ele>767.0</ele><time>2026-05-04T14:34:41.002Z</time></trkpt><trkpt lat="43.006325607591606" lon="11.809384515963508"><ele>768.5</ele><time>2026-05-04T14:34:42.002Z</time></trkpt><trkpt lat="43.00623698453587" lon="11.809491553509877"><ele>770.0</ele><time>2026-05-04T14:34:43.002Z</time></trkpt><trkpt lat="43.00614360514871" lon="11.809564751124235"><ele>770.0</ele><time>2026-05-04T14:34:44.002Z</time></trkpt><trkpt lat="43.006061083109934" lon="11.80965023896638"><ele>770.0</ele><time>2026-05-04T14:34:45.002Z</time></trkpt><trkpt lat="43.005986490466185" lon="11.809767364499127"><ele>770.0</ele><time>2026-05-04T14:34:46.002Z</time></trkpt><trkpt lat="43.005916081238816" lon="11.809916933138776"><ele>770.0</ele><time>2026-05-04T14:34:47.002Z</time></trkpt><trkpt lat="43.005846862636545" lon="11.810059324350238"><ele>769.1666666666667</ele><time>2026-05-04T14:34:48.002Z</time></trkpt><trkpt lat="43.00577019412798" lon="11.810155064322101"><ele>768.3333333333334</ele><time>2026-05-04T14:34:49.002Z</time></trkpt><trkpt lat="43.00570113847679" lon="11.81021555528123"><ele>767.5</ele><time>2026-05-04T14:34:50.002Z</time></trkpt><trkpt lat="43.00564460221923" lon="11.810255089914815"><ele>766.6666666666667</ele><time>2026-05-04T14:34:51.002Z</time></trkpt><trkpt lat="43.005562200667256" lon="11.810268199467501"><ele>765.8333333333334</ele><time>2026-05-04T14:34:53.002Z</time></trkpt><trkpt lat="43.00548355731432" lon="11.81028533947269"><ele>765.0</ele><time>2026-05-04T14:34:54.002Z</time></trkpt><trkpt lat="43.00539289769223" lon="11.810277668728482"><ele>767.3333333333334</ele><time>2026-05-04T14:34:55.001Z</time></trkpt><trkpt lat="43.0053074454016" lon="11.810283064150209"><ele>769.6666666666667</ele><time>2026-05-04T14:34:56.001Z</time></trkpt><trkpt lat="43.005246502224296" lon="11.81031864705435"><ele>772.0</ele><time>2026-05-04T14:34:57.001Z</time></trkpt><trkpt lat="43.00518718233952" lon="11.810458782559285"><ele>774.3333333333334</ele><time>2026-05-04T14:34:59.001Z</time></trkpt><trkpt lat="43.0051505835693" lon="11.81053440873628"><ele>776.6666666666667</ele><time>2026-05-04T14:35:00.001Z</time></trkpt><trkpt lat="43.005103619262094" lon="11.810622272265677"><ele>779.0</ele><time>2026-05-04T14:35:01.001Z</time></trkpt><trkpt lat="43.00505926424725" lon="11.81071037619303"><ele>775.4000000000001</ele><time>2026-05-04T14:35:02.001Z</time></trkpt><trkpt lat="43.00499209704895" lon="11.810778171542122"><ele>771.8</ele><time>2026-05-04T14:35:03.001Z</time></trkpt><trkpt lat="43.00490768159752" lon="11.810815358245184"><ele>768.2</ele><time>2026-05-04T14:35:04.001Z</time></trkpt><trkpt lat="43.00481699438945" lon="11.81085140840101"><ele>764.5999999999999</ele><time>2026-05-04T14:35:05.001Z</time></trkpt><trkpt lat="43.00472616244867" lon="11.81090196026315"><ele>761.0</ele><time>2026-05-04T14:35:06.001Z</time></trkpt><trkpt lat="43.00465261147882" lon="11.810963617676737"><ele>763.5999999999999</ele><time>2026-05-04T14:35:07.001Z</time></trkpt><trkpt lat="43.0045818315745" lon="11.811041093892324"><ele>766.2</ele><time>2026-05-04T14:35:08.001Z</time></trkpt><trkpt lat="43.00454456141835" lon="11.811158037324178"><ele>768.8</ele><time>2026-05-04T14:35:09.001Z</time></trkpt><trkpt lat="43.004490178188284" lon="11.811267427247614"><ele>771.4000000000001</ele><time>2026-05-04T14:35:10.001Z</time></trkpt><trkpt lat="43.00445452424871" lon="11.811391882708373"><ele>774.0</ele><time>2026-05-04T14:35:11.001Z</time></trkpt><trkpt lat="43.00443252638483" lon="11.81150472085134"><ele>774.0</ele><time>2026-05-04T14:35:12.001Z</time></trkpt><trkpt lat="43.00441836341451" lon="11.811630382446843"><ele>774.0</ele><time>2026-05-04T14:35:13.001Z</time></trkpt><trkpt lat="43.004383445386466" lon="11.811770111242271"><ele>774.0</ele><time>2026-05-04T14:35:14.001Z</time></trkpt><trkpt lat="43.00436588707967" lon="11.81189871281469"><ele>774.0</ele><time>2026-05-04T14:35:15.001Z</time></trkpt><trkpt lat="43.00433185464526" lon="11.811984738969777"><ele>774.0</ele><time>2026-05-04T14:35:16.001Z</time></trkpt><trkpt lat="43.00430454659387" lon="11.812073220873756"><ele>774.0</ele><time>2026-05-04T14:35:17.001Z</time></trkpt><trkpt lat="43.00428819752373" lon="11.812183516870638"><ele>775.4000000000001</ele><time>2026-05-04T14:35:18.001Z</time></trkpt><trkpt lat="43.00427258325182" lon="11.812315333189057"><ele>776.8</ele><time>2026-05-04T14:35:19.001Z</time></trkpt><trkpt lat="43.00425434302014" lon="11.8124558205992"><ele>778.2</ele><time>2026-05-04T14:35:20.001Z</time></trkpt><trkpt lat="43.00424290360307" lon="11.812603320753666"><ele>779.5999999999999</ele><time>2026-05-04T14:35:21.001Z</time></trkpt><trkpt lat="43.00423785338602" lon="11.812761363936836"><ele>781.0</ele><time>2026-05-04T14:35:22.001Z</time></trkpt><trkpt lat="43.00423456738912" lon="11.812926140857298"><ele>781.5</ele><time>2026-05-04T14:35:23.001Z</time></trkpt><trkpt lat="43.00420869161927" lon="11.813107737942433"><ele>782.0</ele><time>2026-05-04T14:35:24.001Z</time></trkpt><trkpt lat="43.00419048372946" lon="11.813295885236963"><ele>782.5</ele><time>2026-05-04T14:35:25.001Z</time></trkpt><trkpt lat="43.00417347076661" lon="11.813484792732806"><ele>783.0</ele><time>2026-05-04T14:35:26.001Z</time></trkpt><trkpt lat="43.004160693166725" lon="11.813649244190291"><ele>785.4</ele><time>2026-05-04T14:35:27.001Z</time></trkpt><trkpt lat="43.004151386652715" lon="11.813797835512162"><ele>787.8</ele><time>2026-05-04T14:35:28.001Z</time></trkpt><trkpt lat="43.0041423483223" lon="11.813935738669503"><ele>790.2</ele><time>2026-05-04T14:35:29.001Z</time></trkpt><trkpt lat="43.00414172262983" lon="11.814061144590829"><ele>792.6</ele><time>2026-05-04T14:35:30.001Z</time></trkpt><trkpt lat="43.0041323039138" lon="11.814178896768093"><ele>795.0</ele><time>2026-05-04T14:35:31.001Z</time></trkpt><trkpt lat="43.004130715520624" lon="11.814289011693809"><ele>795.3333333333334</ele><time>2026-05-04T14:35:32.001Z</time></trkpt><trkpt lat="43.00414627824794" lon="11.81440912834011"><ele>795.6666666666667</ele><time>2026-05-04T14:35:33.001Z</time></trkpt><trkpt lat="43.00417658559518" lon="11.814519889560245"><ele>796.0</ele><time>2026-05-04T14:35:34.001Z</time></trkpt><trkpt lat="43.00422199978819" lon="11.814616874023313"><ele>796.3333333333334</ele><time>2026-05-04T14:35:35.001Z</time></trkpt><trkpt lat="43.00426408365981" lon="11.814708667266455"><ele>796.6666666666667</ele><time>2026-05-04T14:35:36.001Z</time></trkpt><trkpt lat="43.004292954666425" lon="11.814812265350689"><ele>797.0</ele><time>2026-05-04T14:35:37.001Z</time></trkpt><trkpt lat="43.004314839921804" lon="11.814909960810873"><ele>797.0</ele><time>2026-05-04T14:35:38.002Z</time></trkpt><trkpt lat="43.004316748950004" lon="11.814997967576303"><ele>797.0</ele><time>2026-05-04T14:35:39.002Z</time></trkpt><trkpt lat="43.00423975088115" lon="11.815105871954513"><ele>797.0</ele><time>2026-05-04T14:35:41.002Z</time></trkpt><trkpt lat="43.00417128450464" lon="11.815171556120474"><ele>797.0</ele><time>2026-05-04T14:35:42.002Z</time></trkpt><trkpt lat="43.004104715675936" lon="11.815235208333533"><ele>797.0</ele><time>2026-05-04T14:35:43.002Z</time></trkpt><trkpt lat="43.00402800792295" lon="11.815370957034506"><ele>796.8</ele><time>2026-05-04T14:35:45.002Z</time></trkpt><trkpt lat="43.003990380720964" lon="11.81547500091273"><ele>796.6</ele><time>2026-05-04T14:35:46.002Z</time></trkpt><trkpt lat="43.00396677677643" lon="11.815596871183665"><ele>796.4</ele><time>2026-05-04T14:35:47.002Z</time></trkpt><trkpt lat="43.00393234179799" lon="11.815736532667579"><ele>796.1999999999999</ele><time>2026-05-04T14:35:48.002Z</time></trkpt><trkpt lat="43.00389194217809" lon="11.81590739551167"><ele>796.0</ele><time>2026-05-04T14:35:49.002Z</time></trkpt><trkpt lat="43.00386164132209" lon="11.816100494555098"><ele>796.0</ele><time>2026-05-04T14:35:50.002Z</time></trkpt><trkpt lat="43.0038171885701" lon="11.816263661605513"><ele>796.0</ele><time>2026-05-04T14:35:51.002Z</time></trkpt><trkpt lat="43.00378729520492" lon="11.816410353300329"><ele>796.0</ele><time>2026-05-04T14:35:52.002Z</time></trkpt><trkpt lat="43.00373722783125" lon="11.816558412426858"><ele>796.0</ele><time>2026-05-04T14:35:53.002Z</time></trkpt><trkpt lat="43.00369552076865" lon="11.816732367730163"><ele>796.25</ele><time>2026-05-04T14:35:54.002Z</time></trkpt><trkpt lat="43.003655461474914" lon="11.816906124209368"><ele>796.5</ele><time>2026-05-04T14:35:55.002Z</time></trkpt><trkpt lat="43.00359176711162" lon="11.817083404753111"><ele>796.75</ele><time>2026-05-04T14:35:56.002Z</time></trkpt><trkpt lat="43.003539038553996" lon="11.817251680987821"><ele>797.0</ele><time>2026-05-04T14:35:57.002Z</time></trkpt><trkpt lat="43.003487118404955" lon="11.817387246895281"><ele>797.0</ele><time>2026-05-04T14:35:58.002Z</time></trkpt><trkpt lat="43.003449632302285" lon="11.817511852560807"><ele>797.0</ele><time>2026-05-04T14:35:59.002Z</time></trkpt><trkpt lat="43.003430129727164" lon="11.817615233050171"><ele>797.0</ele><time>2026-05-04T14:36:00.002Z</time></trkpt><trkpt lat="43.00341472203511" lon="11.817728081066294"><ele>797.0</ele><time>2026-05-04T14:36:01.002Z</time></trkpt><trkpt lat="43.00337187018814" lon="11.817803778381753"><ele>797.0</ele><time>2026-05-04T14:36:02.002Z</time></trkpt><trkpt lat="43.00328754421032" lon="11.817954118881286"><ele>797.4000000000001</ele><time>2026-05-04T14:36:04.002Z</time></trkpt><trkpt lat="43.00322141831284" lon="11.818017691846798"><ele>797.8000000000001</ele><time>2026-05-04T14:36:05.002Z</time></trkpt><trkpt lat="43.003119546012364" lon="11.8181111375426"><ele>798.2</ele><time>2026-05-04T14:36:07.002Z</time></trkpt><trkpt lat="43.00302906321794" lon="11.818144957647773"><ele>798.6</ele><time>2026-05-04T14:36:08.002Z</time></trkpt><trkpt lat="43.00293918110623" lon="11.818156416325714"><ele>799.0</ele><time>2026-05-04T14:36:09.002Z</time></trkpt><trkpt lat="43.002847376114836" lon="11.818171875497283"><ele>798.9999999999999</ele><time>2026-05-04T14:36:10.002Z</time></trkpt><trkpt lat="43.00276946109049" lon="11.818210195948652"><ele>799.0</ele><time>2026-05-04T14:36:11.002Z</time></trkpt><trkpt lat="43.002688785605145" lon="11.81824289384187"><ele>799.0</ele><time>2026-05-04T14:36:12.002Z</time></trkpt><trkpt lat="43.00262456673869" lon="11.818323325179579"><ele>799.0</ele><time>2026-05-04T14:36:13.002Z</time></trkpt><trkpt lat="43.00259603649876" lon="11.818439360849437"><ele>798.9999999999999</ele><time>2026-05-04T14:36:14.002Z</time></trkpt><trkpt lat="43.00258187256458" lon="11.818545137136585"><ele>799.0</ele><time>2026-05-04T14:36:15.002Z</time></trkpt><trkpt lat="43.00257189473748" lon="11.81868348985411"><ele>797.3333333333333</ele><time>2026-05-04T14:36:16.002Z</time></trkpt><trkpt lat="43.00256176339753" lon="11.818826702579665"><ele>795.6666666666666</ele><time>2026-05-04T14:36:17.002Z</time></trkpt><trkpt lat="43.00254341743824" lon="11.81893525198125"><ele>794.0</ele><time>2026-05-04T14:36:18.002Z</time></trkpt><trkpt lat="43.00251582492746" lon="11.819020061333028"><ele>792.3333333333333</ele><time>2026-05-04T14:36:19.002Z</time></trkpt><trkpt lat="43.0024507533987" lon="11.819082249874333"><ele>790.6666666666666</ele><time>2026-05-04T14:36:20.002Z</time></trkpt><trkpt lat="43.00238512935789" lon="11.819162123980789"><ele>789.0</ele><time>2026-05-04T14:36:21.002Z</time></trkpt><trkpt lat="43.00231001526167" lon="11.819259612144194"><ele>785.4000000000001</ele><time>2026-05-04T14:36:22.002Z</time></trkpt><trkpt lat="43.00221686210548" lon="11.819327458823235"><ele>781.8</ele><time>2026-05-04T14:36:23.002Z</time></trkpt><trkpt lat="43.00212115770334" lon="11.819363819407759"><ele>778.2</ele><time>2026-05-04T14:36:24.002Z</time></trkpt><trkpt lat="43.0020258362327" lon="11.819412230114365"><ele>774.5999999999999</ele><time>2026-05-04T14:36:25.002Z</time></trkpt><trkpt lat="43.00194657367712" lon="11.819431653778043"><ele>771.0</ele><time>2026-05-04T14:36:26.002Z</time></trkpt><trkpt lat="43.00186840343825" lon="11.819440346967605"><ele>771.0</ele><time>2026-05-04T14:36:27.002Z</time></trkpt><trkpt lat="43.001782459596924" lon="11.819453921496898"><ele>771.0</ele><time>2026-05-04T14:36:28.002Z</time></trkpt><trkpt lat="43.00169687710992" lon="11.819407842762"><ele>771.0</ele><time>2026-05-04T14:36:29.002Z</time></trkpt><trkpt lat="43.001603589278254" lon="11.819365280607913"><ele>771.0</ele><time>2026-05-04T14:36:30.002Z</time></trkpt><trkpt lat="43.00150193658944" lon="11.819329861574696"><ele>771.0</ele><time>2026-05-04T14:36:31.002Z</time></trkpt><trkpt lat="43.001390842012135" lon="11.819294406244122"><ele>771.0</ele><time>2026-05-04T14:36:32.002Z</time></trkpt><trkpt lat="43.00129823899747" lon="11.819288228955445"><ele>771.0</ele><time>2026-05-04T14:36:33.002Z</time></trkpt><trkpt lat="43.00120299277167" lon="11.81929823602734"><ele>771.0</ele><time>2026-05-04T14:36:34.002Z</time></trkpt><trkpt lat="43.00110051930472" lon="11.819308962408035"><ele>771.0</ele><time>2026-05-04T14:36:35.002Z</time></trkpt><trkpt lat="43.00099261211855" lon="11.819321656048213"><ele>771.0</ele><time>2026-05-04T14:36:36.002Z</time></trkpt><trkpt lat="43.000885191839" lon="11.819329036059505"><ele>773.4</ele><time>2026-05-04T14:36:37.002Z</time></trkpt><trkpt lat="43.00078594183756" lon="11.81933826413289"><ele>775.8</ele><time>2026-05-04T14:36:38.002Z</time></trkpt><trkpt lat="43.00067369125461" lon="11.819325723913092"><ele>778.1999999999999</ele><time>2026-05-04T14:36:39.002Z</time></trkpt><trkpt lat="43.00058582116321" lon="11.819202427138642"><ele>780.5999999999999</ele><time>2026-05-04T14:36:40.002Z</time></trkpt><trkpt lat="43.00050642921321" lon="11.819178356824757"><ele>783.0</ele><time>2026-05-04T14:36:41.002Z</time></trkpt><trkpt lat="43.00042279441903" lon="11.819178013589273"><ele>783.0</ele><time>2026-05-04T14:36:43.002Z</time></trkpt><trkpt lat="43.000381158261845" lon="11.819267883359041"><ele>783.0</ele><time>2026-05-04T14:36:44.002Z</time></trkpt><trkpt lat="43.00035322867093" lon="11.81938570491696"><ele>783.0</ele><time>2026-05-04T14:36:45.002Z</time></trkpt><trkpt lat="43.000289532522075" lon="11.81945801238675"><ele>783.0</ele><time>2026-05-04T14:36:46.002Z</time></trkpt><trkpt lat="43.00021043563319" lon="11.81950905069715"><ele>783.0</ele><time>2026-05-04T14:36:47.002Z</time></trkpt><trkpt lat="43.0001105808753" lon="11.819497336808794"><ele>783.0</ele><time>2026-05-04T14:36:48.002Z</time></trkpt><trkpt lat="43.00003780196921" lon="11.81955762427969"><ele>783.0</ele><time>2026-05-04T14:36:49.002Z</time></trkpt><trkpt lat="42.999928286452885" lon="11.819648417179618"><ele>783.0</ele><time>2026-05-04T14:36:51.002Z</time></trkpt><trkpt lat="42.99986409390701" lon="11.819752363796129"><ele>783.0</ele><time>2026-05-04T14:36:52.002Z</time></trkpt><trkpt lat="42.999768847750644" lon="11.81989868807594"><ele>783.0</ele><time>2026-05-04T14:36:53.002Z</time></trkpt><trkpt lat="42.999649813434274" lon="11.820047449414567"><ele>783.6666666666667</ele><time>2026-05-04T14:36:54.002Z</time></trkpt><trkpt lat="42.999515377641366" lon="11.820190250131331"><ele>784.3333333333334</ele><time>2026-05-04T14:36:55.002Z</time></trkpt><trkpt lat="42.99936761709682" lon="11.820344243245891"><ele>785.0</ele><time>2026-05-04T14:36:56.002Z</time></trkpt><trkpt lat="42.99922402397929" lon="11.820498112113198"><ele>786.6666666666667</ele><time>2026-05-04T14:36:57.002Z</time></trkpt><trkpt lat="42.999080295191824" lon="11.820634196584034"><ele>788.3333333333333</ele><time>2026-05-04T14:36:58.002Z</time></trkpt><trkpt lat="42.99895358200117" lon="11.820730046615566"><ele>790.0</ele><time>2026-05-04T14:36:59.002Z</time></trkpt><trkpt lat="42.99882649788848" lon="11.820830186927985"><ele>790.0</ele><time>2026-05-04T14:37:00.002Z</time></trkpt><trkpt lat="42.99871317017735" lon="11.820956996426101"><ele>790.0</ele><time>2026-05-04T14:37:01.002Z</time></trkpt><trkpt lat="42.998602432200904" lon="11.82111070019608"><ele>790.0</ele><time>2026-05-04T14:37:02.002Z</time></trkpt><trkpt lat="42.99849842129348" lon="11.821264264189223"><ele>791.4999999999999</ele><time>2026-05-04T14:37:03.001Z</time></trkpt><trkpt lat="42.99842054975669" lon="11.82139111420468"><ele>793.0</ele><time>2026-05-04T14:37:04.001Z</time></trkpt><trkpt lat="42.998356185548765" lon="11.82149716063622"><ele>794.5</ele><time>2026-05-04T14:37:05.001Z</time></trkpt><trkpt lat="42.998300995494084" lon="11.821586521949317"><ele>796.0</ele><time>2026-05-04T14:37:06.001Z</time></trkpt><trkpt lat="42.998250904750876" lon="11.821653948617291"><ele>797.4999999999999</ele><time>2026-05-04T14:37:07.001Z</time></trkpt><trkpt lat="42.99820097251799" lon="11.821722455453665"><ele>799.0</ele><time>2026-05-04T14:37:08.001Z</time></trkpt><trkpt lat="42.998148772545335" lon="11.821804774395721"><ele>801.25</ele><time>2026-05-04T14:37:09.001Z</time></trkpt><trkpt lat="42.99805026084164" lon="11.821904848415922"><ele>803.5</ele><time>2026-05-04T14:37:10.001Z</time></trkpt><trkpt lat="42.99795320768439" lon="11.822002684052014"><ele>805.75</ele><time>2026-05-04T14:37:11.001Z</time></trkpt><trkpt lat="42.99785587971545" lon="11.822109670483794"><ele>808.0</ele><time>2026-05-04T14:37:12.001Z</time></trkpt><trkpt lat="42.99775464905301" lon="11.822224659293884"><ele>808.0</ele><time>2026-05-04T14:37:13.001Z</time></trkpt><trkpt lat="42.997640526699655" lon="11.82235022630812"><ele>808.0</ele><time>2026-05-04T14:37:14.001Z</time></trkpt><trkpt lat="42.99753686974101" lon="11.822459843677754"><ele>808.0</ele><time>2026-05-04T14:37:15.001Z</time></trkpt><trkpt lat="42.99744264993302" lon="11.822565565427562"><ele>808.0</ele><time>2026-05-04T14:37:16.001Z</time></trkpt><trkpt lat="42.997356719846685" lon="11.822671114869134"><ele>806.4</ele><time>2026-05-04T14:37:17.001Z</time></trkpt><trkpt lat="42.9972686920413" lon="11.822770722612916"><ele>804.8</ele><time>2026-05-04T14:37:18.001Z</time></trkpt><trkpt lat="42.99718821219467" lon="11.822855768700123"><ele>803.2</ele><time>2026-05-04T14:37:19.001Z</time></trkpt><trkpt lat="42.997115157141884" lon="11.822927279260458"><ele>801.6</ele><time>2026-05-04T14:37:20.001Z</time></trkpt><trkpt lat="42.99705052425238" lon="11.8229934744763"><ele>800.0</ele><time>2026-05-04T14:37:21.001Z</time></trkpt><trkpt lat="42.99698974699021" lon="11.823049620170236"><ele>800.0</ele><time>2026-05-04T14:37:22.001Z</time></trkpt><trkpt lat="42.99691736714104" lon="11.823095902857661"><ele>800.0</ele><time>2026-05-04T14:37:24.001Z</time></trkpt><trkpt lat="42.99694432704689" lon="11.823282624940376"><ele>800.0</ele><time>2026-05-04T14:37:26.001Z</time></trkpt><trkpt lat="42.9969675778967" lon="11.823410772106337"><ele>800.0</ele><time>2026-05-04T14:37:27.001Z</time></trkpt><trkpt lat="42.997000130532804" lon="11.823601289300365"><ele>800.0</ele><time>2026-05-04T14:37:28.001Z</time></trkpt><trkpt lat="42.99703065029674" lon="11.823798099838138"><ele>800.0</ele><time>2026-05-04T14:37:29.001Z</time></trkpt><trkpt lat="42.99704779323222" lon="11.823968550513632"><ele>800.0</ele><time>2026-05-04T14:37:30.001Z</time></trkpt><trkpt lat="42.99705663379272" lon="11.824102050878965"><ele>800.0</ele><time>2026-05-04T14:37:31.001Z</time></trkpt><trkpt lat="42.99704701619549" lon="11.824238228063258"><ele>800.5</ele><time>2026-05-04T14:37:32.001Z</time></trkpt><trkpt lat="42.99701087561847" lon="11.824359712552129"><ele>801.0</ele><time>2026-05-04T14:37:33.001Z</time></trkpt><trkpt lat="42.996929439064125" lon="11.824452286289157"><ele>801.5</ele><time>2026-05-04T14:37:34.001Z</time></trkpt><trkpt lat="42.99683441824495" lon="11.824567612582323"><ele>802.0</ele><time>2026-05-04T14:37:35.001Z</time></trkpt><trkpt lat="42.99670725870227" lon="11.824724354817123"><ele>803.3333333333333</ele><time>2026-05-04T14:37:36.001Z</time></trkpt><trkpt lat="42.996542128742725" lon="11.824884472354274"><ele>804.6666666666667</ele><time>2026-05-04T14:37:37.001Z</time></trkpt><trkpt lat="42.99637146121365" lon="11.825065692259653"><ele>806.0</ele><time>2026-05-04T14:37:38.001Z</time></trkpt><trkpt lat="42.996197117596616" lon="11.82525869723458"><ele>806.0</ele><time>2026-05-04T14:37:39.001Z</time></trkpt><trkpt lat="42.99601214867333" lon="11.825464795127058"><ele>806.0</ele><time>2026-05-04T14:37:40.001Z</time></trkpt><trkpt lat="42.995814320497054" lon="11.825676515837381"><ele>806.0</ele><time>2026-05-04T14:37:41.001Z</time></trkpt><trkpt lat="42.99563600481375" lon="11.825878553189186"><ele>806.0</ele><time>2026-05-04T14:37:42.001Z</time></trkpt><trkpt lat="42.995453669855806" lon="11.826093412745474"><ele>806.0</ele><time>2026-05-04T14:37:43.001Z</time></trkpt><trkpt lat="42.99526704374105" lon="11.82631032688953"><ele>806.0</ele><time>2026-05-04T14:37:44.001Z</time></trkpt><trkpt lat="42.99508618920601" lon="11.826523508937012"><ele>808.0</ele><time>2026-05-04T14:37:45.001Z</time></trkpt><trkpt lat="42.994896739506345" lon="11.826731277083582"><ele>810.0</ele><time>2026-05-04T14:37:46.001Z</time></trkpt><trkpt lat="42.994728226712645" lon="11.826915543064883"><ele>810.0</ele><time>2026-05-04T14:37:47.001Z</time></trkpt><trkpt lat="42.99457746453068" lon="11.827073910191482"><ele>810.0</ele><time>2026-05-04T14:37:48.002Z</time></trkpt><trkpt lat="42.99443323929166" lon="11.827219909069905"><ele>810.0</ele><time>2026-05-04T14:37:49.002Z</time></trkpt><trkpt lat="42.994277976590986" lon="11.827384994121118"><ele>809.6666666666667</ele><time>2026-05-04T14:37:50.002Z</time></trkpt><trkpt lat="42.994142032829096" lon="11.827520743122827"><ele>809.3333333333334</ele><time>2026-05-04T14:37:51.002Z</time></trkpt><trkpt lat="42.993993538090514" lon="11.827677591034446"><ele>809.0</ele><time>2026-05-04T14:37:52.002Z</time></trkpt><trkpt lat="42.99386995132369" lon="11.827808129710869"><ele>809.0</ele><time>2026-05-04T14:37:53.002Z</time></trkpt><trkpt lat="42.99374826923476" lon="11.827936656652762"><ele>809.0</ele><time>2026-05-04T14:37:54.002Z</time></trkpt><trkpt lat="42.993613927085626" lon="11.828078556972002"><ele>809.0</ele><time>2026-05-04T14:37:55.002Z</time></trkpt><trkpt lat="42.99347820619669" lon="11.828221912279382"><ele>809.0</ele><time>2026-05-04T14:37:56.002Z</time></trkpt><trkpt lat="42.99334221390419" lon="11.828372078166948"><ele>809.0</ele><time>2026-05-04T14:37:57.002Z</time></trkpt><trkpt lat="42.99319561800268" lon="11.828495991336965"><ele>809.0</ele><time>2026-05-04T14:37:58.002Z</time></trkpt><trkpt lat="42.99307802422833" lon="11.828621116807685"><ele>808.0</ele><time>2026-05-04T14:37:59.002Z</time></trkpt><trkpt lat="42.992978697317184" lon="11.828740516296415"><ele>807.0</ele><time>2026-05-04T14:38:00.002Z</time></trkpt><trkpt lat="42.99288371351029" lon="11.828869056124972"><ele>806.0</ele><time>2026-05-04T14:38:01.002Z</time></trkpt><trkpt lat="42.9927908966197" lon="11.829016516226353"><ele>805.0</ele><time>2026-05-04T14:38:02.002Z</time></trkpt><trkpt lat="42.99269890941911" lon="11.829162099910276"><ele>805.0</ele><time>2026-05-04T14:38:03.002Z</time></trkpt><trkpt lat="42.99261992277461" lon="11.829297198700964"><ele>805.0</ele><time>2026-05-04T14:38:04.002Z</time></trkpt><trkpt lat="42.99254392636562" lon="11.829423034560497"><ele>805.0</ele><time>2026-05-04T14:38:05.002Z</time></trkpt><trkpt lat="42.99247975462017" lon="11.82954360356516"><ele>805.0</ele><time>2026-05-04T14:38:06.002Z</time></trkpt><trkpt lat="42.992423820755555" lon="11.829675909528373"><ele>801.25</ele><time>2026-05-04T14:38:07.002Z</time></trkpt><trkpt lat="42.99238152717863" lon="11.829829995163927"><ele>797.5</ele><time>2026-05-04T14:38:08.002Z</time></trkpt><trkpt lat="42.99233373907757" lon="11.83000938137863"><ele>793.75</ele><time>2026-05-04T14:38:09.002Z</time></trkpt><trkpt lat="42.99229776034818" lon="11.830196009565425"><ele>790.0</ele><time>2026-05-04T14:38:10.002Z</time></trkpt><trkpt lat="42.99224803481097" lon="11.830372192262375"><ele>790.0</ele><time>2026-05-04T14:38:11.002Z</time></trkpt><trkpt lat="42.99218394187089" lon="11.830540126048529"><ele>790.0</ele><time>2026-05-04T14:38:12.002Z</time></trkpt><trkpt lat="42.99209268057233" lon="11.830717753542949"><ele>790.0</ele><time>2026-05-04T14:38:13.002Z</time></trkpt><trkpt lat="42.99198276896154" lon="11.830882947721184"><ele>793.6666666666666</ele><time>2026-05-04T14:38:14.002Z</time></trkpt><trkpt lat="42.99185408083064" lon="11.831047560901021"><ele>797.3333333333333</ele><time>2026-05-04T14:38:15.002Z</time></trkpt><trkpt lat="42.99171897883909" lon="11.831210327087682"><ele>801.0</ele><time>2026-05-04T14:38:16.002Z</time></trkpt><trkpt lat="42.99158219871063" lon="11.831385429362584"><ele>796.3333333333333</ele><time>2026-05-04T14:38:17.002Z</time></trkpt><trkpt lat="42.99145618693938" lon="11.831564203307359"><ele>791.6666666666666</ele><time>2026-05-04T14:38:18.002Z</time></trkpt><trkpt lat="42.99131849121597" lon="11.831765373803426"><ele>787.0</ele><time>2026-05-04T14:38:19.002Z</time></trkpt><trkpt lat="42.99118349667466" lon="11.83196518316123"><ele>787.0</ele><time>2026-05-04T14:38:20.002Z</time></trkpt><trkpt lat="42.99105299504328" lon="11.832145368480637"><ele>787.0</ele><time>2026-05-04T14:38:21.002Z</time></trkpt><trkpt lat="42.990927201259616" lon="11.832318574522919"><ele>787.0</ele><time>2026-05-04T14:38:22.002Z</time></trkpt><trkpt lat="42.99081031778212" lon="11.832477772627326"><ele>783.6666666666666</ele><time>2026-05-04T14:38:23.002Z</time></trkpt><trkpt lat="42.99068043953984" lon="11.83262506448703"><ele>780.3333333333333</ele><time>2026-05-04T14:38:24.002Z</time></trkpt><trkpt lat="42.990539345234254" lon="11.832756723624877"><ele>777.0</ele><time>2026-05-04T14:38:25.002Z</time></trkpt><trkpt lat="42.99039966392191" lon="11.832884511565881"><ele>777.0</ele><time>2026-05-04T14:38:26.002Z</time></trkpt><trkpt lat="42.990266865688646" lon="11.833025348528857"><ele>777.0</ele><time>2026-05-04T14:38:27.002Z</time></trkpt><trkpt lat="42.99013388777612" lon="11.833189404015409"><ele>777.0</ele><time>2026-05-04T14:38:28.002Z</time></trkpt><trkpt lat="42.98999813826889" lon="11.833368357589675"><ele>773.0</ele><time>2026-05-04T14:38:29.002Z</time></trkpt><trkpt lat="42.98986127483975" lon="11.833570975311396"><ele>769.0</ele><time>2026-05-04T14:38:30.002Z</time></trkpt><trkpt lat="42.989730709309285" lon="11.833778625076516"><ele>765.0</ele><time>2026-05-04T14:38:31.002Z</time></trkpt><trkpt lat="42.98962114016559" lon="11.83396511521567"><ele>765.0</ele><time>2026-05-04T14:38:32.002Z</time></trkpt><trkpt lat="42.98950756809529" lon="11.834125150709207"><ele>765.0</ele><time>2026-05-04T14:38:33.002Z</time></trkpt><trkpt lat="42.989423416028345" lon="11.834283183805573"><ele>765.0</ele><time>2026-05-04T14:38:34.002Z</time></trkpt><trkpt lat="42.98936522535935" lon="11.834439737938181"><ele>765.0</ele><time>2026-05-04T14:38:35.002Z</time></trkpt><trkpt lat="42.98930860883001" lon="11.834586181694306"><ele>766.0</ele><time>2026-05-04T14:38:36.002Z</time></trkpt><trkpt lat="42.98927328535032" lon="11.834731849701416"><ele>767.0</ele><time>2026-05-04T14:38:37.002Z</time></trkpt><trkpt lat="42.98924935309746" lon="11.834869476496953"><ele>768.0</ele><time>2026-05-04T14:38:38.002Z</time></trkpt><trkpt lat="42.98922165741702" lon="11.835006350229499"><ele>769.0</ele><time>2026-05-04T14:38:39.002Z</time></trkpt><trkpt lat="42.98917859226659" lon="11.835133245653731"><ele>770.0</ele><time>2026-05-04T14:38:40.002Z</time></trkpt><trkpt lat="42.98912184581612" lon="11.835236399358198"><ele>767.4</ele><time>2026-05-04T14:38:41.002Z</time></trkpt><trkpt lat="42.98905537835245" lon="11.835313248284516"><ele>764.8</ele><time>2026-05-04T14:38:42.002Z</time></trkpt><trkpt lat="42.98897748720897" lon="11.835392418781971"><ele>762.2</ele><time>2026-05-04T14:38:43.002Z</time></trkpt><trkpt lat="42.98889917561975" lon="11.835474092825251"><ele>759.6</ele><time>2026-05-04T14:38:44.002Z</time></trkpt><trkpt lat="42.988810000353006" lon="11.835565168867085"><ele>757.0</ele><time>2026-05-04T14:38:45.002Z</time></trkpt><trkpt lat="42.98871858542109" lon="11.835667466275192"><ele>757.0</ele><time>2026-05-04T14:38:46.002Z</time></trkpt><trkpt lat="42.98862704092457" lon="11.835778438217567"><ele>757.0</ele><time>2026-05-04T14:38:47.002Z</time></trkpt><trkpt lat="42.98854110614489" lon="11.835895958956048"><ele>757.0</ele><time>2026-05-04T14:38:48.002Z</time></trkpt><trkpt lat="42.98846830375763" lon="11.836035908235667"><ele>757.0</ele><time>2026-05-04T14:38:49.002Z</time></trkpt><trkpt lat="42.98842870660151" lon="11.836205769863227"><ele>757.75</ele><time>2026-05-04T14:38:50.002Z</time></trkpt><trkpt lat="42.98838486722312" lon="11.836375050532405"><ele>758.5</ele><time>2026-05-04T14:38:51.002Z</time></trkpt><trkpt lat="42.98835564532271" lon="11.836545297979738"><ele>759.25</ele><time>2026-05-04T14:38:52.002Z</time></trkpt><trkpt lat="42.98832891925596" lon="11.83670878896625"><ele>760.0</ele><time>2026-05-04T14:38:53.002Z</time></trkpt><trkpt lat="42.98830142978559" lon="11.836871113052556"><ele>754.0</ele><time>2026-05-04T14:38:54.002Z</time></trkpt><trkpt lat="42.98827722935047" lon="11.837031359435858"><ele>748.0</ele><time>2026-05-04T14:38:55.002Z</time></trkpt><trkpt lat="42.98825964999182" lon="11.83719269809346"><ele>742.0</ele><time>2026-05-04T14:38:56.002Z</time></trkpt><trkpt lat="42.98825398155258" lon="11.837357250811971"><ele>736.0</ele><time>2026-05-04T14:38:57.002Z</time></trkpt><trkpt lat="42.9882555855466" lon="11.837515194617424"><ele>735.5999999999999</ele><time>2026-05-04T14:38:58.002Z</time></trkpt><trkpt lat="42.988255560056" lon="11.83767029370769"><ele>735.2</ele><time>2026-05-04T14:38:59.002Z</time></trkpt><trkpt lat="42.988254408203225" lon="11.837829132416637"><ele>734.8</ele><time>2026-05-04T14:39:00.002Z</time></trkpt><trkpt lat="42.98826440900587" lon="11.837972441765272"><ele>734.4000000000001</ele><time>2026-05-04T14:39:01.002Z</time></trkpt><trkpt lat="42.98828539071275" lon="11.838124023629524"><ele>734.0</ele><time>2026-05-04T14:39:02.002Z</time></trkpt><trkpt lat="42.98829275130849" lon="11.838257360423805"><ele>734.0</ele><time>2026-05-04T14:39:03.002Z</time></trkpt><trkpt lat="42.988250442800044" lon="11.838343440319967"><ele>734.0</ele><time>2026-05-04T14:39:04.002Z</time></trkpt><trkpt lat="42.98818466185361" lon="11.838382772974581"><ele>734.0</ele><time>2026-05-04T14:39:05.002Z</time></trkpt><trkpt lat="42.98813131553169" lon="11.838454027258237"><ele>734.0</ele><time>2026-05-04T14:39:06.001Z</time></trkpt><trkpt lat="42.988039489847495" lon="11.838440733145783"><ele>734.0</ele><time>2026-05-04T14:39:07.001Z</time></trkpt><trkpt lat="42.98796085987704" lon="11.83839146259774"><ele>734.0</ele><time>2026-05-04T14:39:08.001Z</time></trkpt><trkpt lat="42.98789740886788" lon="11.838313865617724"><ele>734.0</ele><time>2026-05-04T14:39:09.001Z</time></trkpt><trkpt lat="42.98788274044694" lon="11.838195782813255"><ele>734.0</ele><time>2026-05-04T14:39:10.001Z</time></trkpt><trkpt lat="42.987868131510574" lon="11.838090055230461"><ele>734.0</ele><time>2026-05-04T14:39:11.001Z</time></trkpt><trkpt lat="42.98784222069867" lon="11.837997188998534"><ele>734.0</ele><time>2026-05-04T14:39:12.001Z</time></trkpt><trkpt lat="42.987837884571" lon="11.837898719730312"><ele>734.0</ele><time>2026-05-04T14:39:13.001Z</time></trkpt><trkpt lat="42.98782629832105" lon="11.837800349821844"><ele>734.0</ele><time>2026-05-04T14:39:14.001Z</time></trkpt><trkpt lat="42.987812528415134" lon="11.837705505760239"><ele>734.3333333333333</ele><time>2026-05-04T14:39:15.001Z</time></trkpt><trkpt lat="42.98780245183846" lon="11.837597629290917"><ele>734.6666666666666</ele><time>2026-05-04T14:39:16.001Z</time></trkpt><trkpt lat="42.98780917703774" lon="11.8374822516639"><ele>735.0</ele><time>2026-05-04T14:39:17.001Z</time></trkpt><trkpt lat="42.987798391455954" lon="11.837372672600681"><ele>735.3333333333334</ele><time>2026-05-04T14:39:18.001Z</time></trkpt><trkpt lat="42.98778685414415" lon="11.837255456053676"><ele>735.6666666666667</ele><time>2026-05-04T14:39:19.001Z</time></trkpt><trkpt lat="42.98777480471263" lon="11.83713303646651"><ele>736.0</ele><time>2026-05-04T14:39:20.001Z</time></trkpt><trkpt lat="42.98775975890603" lon="11.837016169622983"><ele>736.0</ele><time>2026-05-04T14:39:21.001Z</time></trkpt><trkpt lat="42.98774114828106" lon="11.836901968713626"><ele>736.0</ele><time>2026-05-04T14:39:22.001Z</time></trkpt><trkpt lat="42.98771286098343" lon="11.836801434509432"><ele>736.0</ele><time>2026-05-04T14:39:23.001Z</time></trkpt><trkpt lat="42.98767830663569" lon="11.8367127881509"><ele>736.0</ele><time>2026-05-04T14:39:24.001Z</time></trkpt><trkpt lat="42.98762607151831" lon="11.836627468854251"><ele>736.0</ele><time>2026-05-04T14:39:25.001Z</time></trkpt><trkpt lat="42.987554180955996" lon="11.836568853753487"><ele>736.0</ele><time>2026-05-04T14:39:26.001Z</time></trkpt><trkpt lat="42.98747362224316" lon="11.836550664416828"><ele>732.6666666666667</ele><time>2026-05-04T14:39:27.001Z</time></trkpt><trkpt lat="42.9873922743479" lon="11.836582627203052"><ele>729.3333333333334</ele><time>2026-05-04T14:39:28.001Z</time></trkpt><trkpt lat="42.987321910503205" lon="11.836613493335822"><ele>726.0</ele><time>2026-05-04T14:39:29.001Z</time></trkpt><trkpt lat="42.98726160340136" lon="11.83668845619108"><ele>722.6666666666666</ele><time>2026-05-04T14:39:30.001Z</time></trkpt><trkpt lat="42.9872250368008" lon="11.836785763544635"><ele>719.3333333333333</ele><time>2026-05-04T14:39:31.001Z</time></trkpt><trkpt lat="42.987211165729185" lon="11.836902243226112"><ele>716.0</ele><time>2026-05-04T14:39:32.001Z</time></trkpt><trkpt lat="42.98722088059237" lon="11.837040712260649"><ele>715.5</ele><time>2026-05-04T14:39:33.001Z</time></trkpt><trkpt lat="42.987241011370095" lon="11.837189055969334"><ele>715.0</ele><time>2026-05-04T14:39:34.001Z</time></trkpt><trkpt lat="42.98726517115058" lon="11.837346799081827"><ele>714.5</ele><time>2026-05-04T14:39:35.001Z</time></trkpt><trkpt lat="42.98728251132103" lon="11.837517169642666"><ele>714.0</ele><time>2026-05-04T14:39:36.001Z</time></trkpt><trkpt lat="42.98729375325668" lon="11.837698285468324"><ele>712.75</ele><time>2026-05-04T14:39:37.001Z</time></trkpt><trkpt lat="42.98731051405692" lon="11.837893313567784"><ele>711.5</ele><time>2026-05-04T14:39:38.001Z</time></trkpt><trkpt lat="42.98731348459807" lon="11.838097326565272"><ele>710.25</ele><time>2026-05-04T14:39:39.001Z</time></trkpt><trkpt lat="42.98729061618902" lon="11.838308337865069"><ele>709.0</ele><time>2026-05-04T14:39:40.001Z</time></trkpt><trkpt lat="42.98725364216095" lon="11.838518220443513"><ele>707.0</ele><time>2026-05-04T14:39:41.001Z</time></trkpt><trkpt lat="42.98721155785929" lon="11.838724823065537"><ele>705.0</ele><time>2026-05-04T14:39:42.001Z</time></trkpt><trkpt lat="42.987182844920945" lon="11.838912249620025"><ele>703.0</ele><time>2026-05-04T14:39:43.001Z</time></trkpt><trkpt lat="42.98718168955005" lon="11.839073497023026"><ele>701.0</ele><time>2026-05-04T14:39:44.001Z</time></trkpt><trkpt lat="42.9872110914237" lon="11.83921371954674"><ele>703.25</ele><time>2026-05-04T14:39:45.001Z</time></trkpt><trkpt lat="42.98729367064189" lon="11.839326359387512"><ele>705.5</ele><time>2026-05-04T14:39:46.001Z</time></trkpt><trkpt lat="42.987391785545256" lon="11.839458553056062"><ele>707.75</ele><time>2026-05-04T14:39:47.001Z</time></trkpt><trkpt lat="42.98750270116853" lon="11.839628028871177"><ele>710.0</ele><time>2026-05-04T14:39:48.001Z</time></trkpt><trkpt lat="42.987633522802625" lon="11.839811054014312"><ele>710.0</ele><time>2026-05-04T14:39:49.001Z</time></trkpt><trkpt lat="42.98773056218271" lon="11.84004910538145"><ele>710.0</ele><time>2026-05-04T14:39:50.001Z</time></trkpt><trkpt lat="42.98782858731065" lon="11.84029175128063"><ele>710.0</ele><time>2026-05-04T14:39:51.001Z</time></trkpt><trkpt lat="42.987896090061774" lon="11.840547731349663"><ele>704.6666666666666</ele><time>2026-05-04T14:39:52.001Z</time></trkpt><trkpt lat="42.987970856480125" lon="11.840782645256215"><ele>699.3333333333334</ele><time>2026-05-04T14:39:53.001Z</time></trkpt><trkpt lat="42.98804828814993" lon="11.84100601636615"><ele>694.0</ele><time>2026-05-04T14:39:54.001Z</time></trkpt><trkpt lat="42.98810250102053" lon="11.84123102904837"><ele>690.75</ele><time>2026-05-04T14:39:55.001Z</time></trkpt><trkpt lat="42.988155045551814" lon="11.841419982732004"><ele>687.5</ele><time>2026-05-04T14:39:56.001Z</time></trkpt><trkpt lat="42.988205001232" lon="11.841578896427343"><ele>684.25</ele><time>2026-05-04T14:39:57.001Z</time></trkpt><trkpt lat="42.98827422542617" lon="11.841679771289645"><ele>681.0</ele><time>2026-05-04T14:39:58.001Z</time></trkpt><trkpt lat="42.98836517853546" lon="11.84172234747544"><ele>680.25</ele><time>2026-05-04T14:39:59.001Z</time></trkpt><trkpt lat="42.98847888640585" lon="11.841696876461574"><ele>679.5</ele><time>2026-05-04T14:40:00.001Z</time></trkpt><trkpt lat="42.988619476905846" lon="11.841651313566555"><ele>678.75</ele><time>2026-05-04T14:40:01.001Z</time></trkpt><trkpt lat="42.98878441607934" lon="11.841677300393597"><ele>678.0</ele><time>2026-05-04T14:40:02.001Z</time></trkpt><trkpt lat="42.98895371098239" lon="11.84170224406889"><ele>678.0</ele><time>2026-05-04T14:40:03.001Z</time></trkpt><trkpt lat="42.98909647819118" lon="11.841734396978007"><ele>678.0</ele><time>2026-05-04T14:40:04.001Z</time></trkpt><trkpt lat="42.98922142737505" lon="11.841759841950516"><ele>678.0</ele><time>2026-05-04T14:40:05.001Z</time></trkpt><trkpt lat="42.98932005355064" lon="11.841843832595822"><ele>678.0</ele><time>2026-05-04T14:40:06.001Z</time></trkpt><trkpt lat="42.98938097799175" lon="11.841970079608004"><ele>680.25</ele><time>2026-05-04T14:40:07.001Z</time></trkpt><trkpt lat="42.989419643362105" lon="11.842129689734302"><ele>682.5</ele><time>2026-05-04T14:40:08.001Z</time></trkpt><trkpt lat="42.989421963491" lon="11.842317064630537"><ele>684.75</ele><time>2026-05-04T14:40:09.001Z</time></trkpt><trkpt lat="42.989383553809844" lon="11.842515927414702"><ele>687.0</ele><time>2026-05-04T14:40:10.001Z</time></trkpt><trkpt lat="42.9893159090484" lon="11.84273201505328"><ele>687.0</ele><time>2026-05-04T14:40:11.002Z</time></trkpt><trkpt lat="42.98924853423405" lon="11.842962481094224"><ele>687.0</ele><time>2026-05-04T14:40:12.002Z</time></trkpt><trkpt lat="42.98918068546829" lon="11.843202779265962"><ele>687.0</ele><time>2026-05-04T14:40:13.002Z</time></trkpt><trkpt lat="42.98912647657817" lon="11.843399929967882"><ele>686.25</ele><time>2026-05-04T14:40:14.002Z</time></trkpt><trkpt lat="42.98911020388734" lon="11.84357298330797"><ele>685.5</ele><time>2026-05-04T14:40:15.002Z</time></trkpt><trkpt lat="42.989134071283274" lon="11.843749070696942"><ele>684.75</ele><time>2026-05-04T14:40:16.002Z</time></trkpt><trkpt lat="42.989177495995705" lon="11.843936817129665"><ele>684.0</ele><time>2026-05-04T14:40:17.002Z</time></trkpt><trkpt lat="42.989206297773876" lon="11.844105020643022"><ele>684.0</ele><time>2026-05-04T14:40:18.002Z</time></trkpt><trkpt lat="42.9891846646311" lon="11.844282259099575"><ele>684.0</ele><time>2026-05-04T14:40:19.002Z</time></trkpt><trkpt lat="42.98911651826506" lon="11.844458137980622"><ele>684.0</ele><time>2026-05-04T14:40:20.002Z</time></trkpt><trkpt lat="42.989032927768115" lon="11.844637117094438"><ele>684.0</ele><time>2026-05-04T14:40:21.002Z</time></trkpt><trkpt lat="42.989010701090585" lon="11.844838583001442"><ele>678.5</ele><time>2026-05-04T14:40:22.002Z</time></trkpt><trkpt lat="42.989005180471494" lon="11.845058948929465"><ele>673.0</ele><time>2026-05-04T14:40:23.002Z</time></trkpt><trkpt lat="42.989014390048254" lon="11.845256582205444"><ele>667.5</ele><time>2026-05-04T14:40:24.002Z</time></trkpt><trkpt lat="42.98903647569053" lon="11.845429421008328"><ele>662.0</ele><time>2026-05-04T14:40:25.002Z</time></trkpt><trkpt lat="42.98910019061903" lon="11.845571431438957"><ele>663.75</ele><time>2026-05-04T14:40:26.002Z</time></trkpt><trkpt lat="42.98920957824331" lon="11.845674956528327"><ele>665.5</ele><time>2026-05-04T14:40:27.002Z</time></trkpt><trkpt lat="42.989320665025026" lon="11.845783131919585"><ele>667.25</ele><time>2026-05-04T14:40:28.002Z</time></trkpt><trkpt lat="42.98941782904076" lon="11.845881716427561"><ele>669.0</ele><time>2026-05-04T14:40:29.002Z</time></trkpt><trkpt lat="42.98945409332157" lon="11.846021932452818"><ele>669.0</ele><time>2026-05-04T14:40:30.002Z</time></trkpt><trkpt lat="42.989452927816025" lon="11.846177955246112"><ele>669.0</ele><time>2026-05-04T14:40:31.002Z</time></trkpt><trkpt lat="42.989470957344714" lon="11.84636395088012"><ele>669.0</ele><time>2026-05-04T14:40:32.002Z</time></trkpt><trkpt lat="42.989467817273116" lon="11.846574112139221"><ele>669.0</ele><time>2026-05-04T14:40:33.002Z</time></trkpt><trkpt lat="42.98949610325906" lon="11.846804266449697"><ele>667.0</ele><time>2026-05-04T14:40:34.002Z</time></trkpt><trkpt lat="42.9895357599837" lon="11.847057638613048"><ele>665.0</ele><time>2026-05-04T14:40:35.002Z</time></trkpt><trkpt lat="42.98958498680221" lon="11.847325760839897"><ele>663.0</ele><time>2026-05-04T14:40:36.002Z</time></trkpt><trkpt lat="42.98963847355358" lon="11.847607390352511"><ele>659.0</ele><time>2026-05-04T14:40:37.002Z</time></trkpt><trkpt lat="42.989702627935344" lon="11.847894321201512"><ele>655.0</ele><time>2026-05-04T14:40:38.002Z</time></trkpt><trkpt lat="42.98977653893101" lon="11.848173803574678"><ele>651.0</ele><time>2026-05-04T14:40:39.002Z</time></trkpt><trkpt lat="42.9898589420314" lon="11.848429342699568"><ele>647.3333333333334</ele><time>2026-05-04T14:40:40.002Z</time></trkpt><trkpt lat="42.98994363472176" lon="11.848642855647325"><ele>643.6666666666667</ele><time>2026-05-04T14:40:41.002Z</time></trkpt><trkpt lat="42.99002526667852" lon="11.848817925868868"><ele>640.0</ele><time>2026-05-04T14:40:42.002Z</time></trkpt><trkpt lat="42.99006713759358" lon="11.848975743461555"><ele>641.75</ele><time>2026-05-04T14:40:43.002Z</time></trkpt><trkpt lat="42.990030693484854" lon="11.849140580295353"><ele>643.5</ele><time>2026-05-04T14:40:44.002Z</time></trkpt><trkpt lat="42.99000983147679" lon="11.849340188905519"><ele>645.25</ele><time>2026-05-04T14:40:45.002Z</time></trkpt><trkpt lat="42.98996689247726" lon="11.84955016876378"><ele>647.0</ele><time>2026-05-04T14:40:46.002Z</time></trkpt><trkpt lat="42.98993932637574" lon="11.849767126370732"><ele>642.0</ele><time>2026-05-04T14:40:47.002Z</time></trkpt><trkpt lat="42.98997097456247" lon="11.849974694917169"><ele>637.0</ele><time>2026-05-04T14:40:48.002Z</time></trkpt><trkpt lat="42.99003956486773" lon="11.850173136390769"><ele>632.0</ele><time>2026-05-04T14:40:49.002Z</time></trkpt><trkpt lat="42.990151088720744" lon="11.850325923472104"><ele>630.3333333333333</ele><time>2026-05-04T14:40:50.002Z</time></trkpt><trkpt lat="42.990281163778405" lon="11.85045770052877"><ele>628.6666666666666</ele><time>2026-05-04T14:40:51.002Z</time></trkpt><trkpt lat="42.99046675326677" lon="11.850511706390446"><ele>627.0</ele><time>2026-05-04T14:40:52.002Z</time></trkpt><trkpt lat="42.9906368967451" lon="11.85050785381126"><ele>627.0</ele><time>2026-05-04T14:40:53.002Z</time></trkpt><trkpt lat="42.99078943490234" lon="11.850457332965389"><ele>627.0</ele><time>2026-05-04T14:40:54.002Z</time></trkpt><trkpt lat="42.99091734999915" lon="11.85045017665984"><ele>627.0</ele><time>2026-05-04T14:40:55.002Z</time></trkpt><trkpt lat="42.99101982856095" lon="11.850552666518677"><ele>627.0</ele><time>2026-05-04T14:40:56.002Z</time></trkpt><trkpt lat="42.99109364919332" lon="11.850706428507289"><ele>627.3333333333334</ele><time>2026-05-04T14:40:57.002Z</time></trkpt><trkpt lat="42.99118777604163" lon="11.85087803257349"><ele>627.6666666666667</ele><time>2026-05-04T14:40:58.002Z</time></trkpt><trkpt lat="42.991314961555595" lon="11.850994535514744"><ele>628.0</ele><time>2026-05-04T14:40:59.002Z</time></trkpt><trkpt lat="42.99144004479234" lon="11.851080445521104"><ele>628.0</ele><time>2026-05-04T14:41:00.002Z</time></trkpt><trkpt lat="42.99152531999968" lon="11.851233907937374"><ele>628.0</ele><time>2026-05-04T14:41:01.002Z</time></trkpt><trkpt lat="42.99157514158564" lon="11.851391795562607"><ele>628.0</ele><time>2026-05-04T14:41:02.002Z</time></trkpt><trkpt lat="42.99157199458361" lon="11.851600726939072"><ele>628.0</ele><time>2026-05-04T14:41:03.001Z</time></trkpt><trkpt lat="42.991549922827694" lon="11.851839090298974"><ele>626.0</ele><time>2026-05-04T14:41:04.001Z</time></trkpt><trkpt lat="42.991545275668294" lon="11.852069883211461"><ele>624.0</ele><time>2026-05-04T14:41:05.001Z</time></trkpt><trkpt lat="42.991571874351365" lon="11.852266925732133"><ele>622.0</ele><time>2026-05-04T14:41:06.001Z</time></trkpt><trkpt lat="42.991623483399714" lon="11.852435099231052"><ele>620.0</ele><time>2026-05-04T14:41:07.001Z</time></trkpt><trkpt lat="42.99171557268702" lon="11.85257141082011"><ele>620.25</ele><time>2026-05-04T14:41:08.001Z</time></trkpt><trkpt lat="42.991841974587274" lon="11.852651337369787"><ele>620.5</ele><time>2026-05-04T14:41:09.001Z</time></trkpt><trkpt lat="42.991956323065665" lon="11.852759292368923"><ele>620.75</ele><time>2026-05-04T14:41:10.001Z</time></trkpt><trkpt lat="42.99197771091889" lon="11.852935089121596"><ele>621.0</ele><time>2026-05-04T14:41:11.001Z</time></trkpt><trkpt lat="42.99199416475396" lon="11.853132463784585"><ele>621.0</ele><time>2026-05-04T14:41:12.001Z</time></trkpt><trkpt lat="42.992038944884364" lon="11.853336759899875"><ele>621.0</ele><time>2026-05-04T14:41:13.001Z</time></trkpt><trkpt lat="42.99211340321062" lon="11.85357239848092"><ele>621.0</ele><time>2026-05-04T14:41:14.001Z</time></trkpt><trkpt lat="42.99222315620285" lon="11.853755127617019"><ele>616.6666666666666</ele><time>2026-05-04T14:41:15.001Z</time></trkpt><trkpt lat="42.992352285915054" lon="11.853907666549713"><ele>612.3333333333333</ele><time>2026-05-04T14:41:16.001Z</time></trkpt><trkpt lat="42.992496413690276" lon="11.854013328881367"><ele>608.0</ele><time>2026-05-04T14:41:17.001Z</time></trkpt><trkpt lat="42.99264567491532" lon="11.854048785419113"><ele>608.0</ele><time>2026-05-04T14:41:18.001Z</time></trkpt><trkpt lat="42.99279517007654" lon="11.85405514613459"><ele>608.0</ele><time>2026-05-04T14:41:19.001Z</time></trkpt><trkpt lat="42.99289368701372" lon="11.854124158326611"><ele>608.0</ele><time>2026-05-04T14:41:20.001Z</time></trkpt><trkpt lat="42.99296998149467" lon="11.854201691029484"><ele>608.0</ele><time>2026-05-04T14:41:21.001Z</time></trkpt><trkpt lat="42.99296185950846" lon="11.854367843392275"><ele>605.0</ele><time>2026-05-04T14:41:22.001Z</time></trkpt><trkpt lat="42.99294524926054" lon="11.854544200687016"><ele>602.0</ele><time>2026-05-04T14:41:23.001Z</time></trkpt><trkpt lat="42.99291041743376" lon="11.854728797471356"><ele>599.0</ele><time>2026-05-04T14:41:24.001Z</time></trkpt><trkpt lat="42.99282474854562" lon="11.85486020995486"><ele>596.0</ele><time>2026-05-04T14:41:25.001Z</time></trkpt><trkpt lat="42.992691510729365" lon="11.854920144431283"><ele>596.0</ele><time>2026-05-04T14:41:26.001Z</time></trkpt><trkpt lat="42.99254001903513" lon="11.854997164291936"><ele>596.0</ele><time>2026-05-04T14:41:27.001Z</time></trkpt><trkpt lat="42.99237214157031" lon="11.8550923504775"><ele>596.0</ele><time>2026-05-04T14:41:28.001Z</time></trkpt><trkpt lat="42.992199243432665" lon="11.855162636542595"><ele>591.3333333333333</ele><time>2026-05-04T14:41:29.001Z</time></trkpt><trkpt lat="42.99204702111104" lon="11.855224653759153"><ele>586.6666666666666</ele><time>2026-05-04T14:41:30.001Z</time></trkpt><trkpt lat="42.99189645993069" lon="11.85524843664017"><ele>582.0</ele><time>2026-05-04T14:41:31.001Z</time></trkpt><trkpt lat="42.99173228768882" lon="11.855245930542916"><ele>581.0</ele><time>2026-05-04T14:41:32.001Z</time></trkpt><trkpt lat="42.991578612188675" lon="11.855268776494116"><ele>580.0</ele><time>2026-05-04T14:41:33.001Z</time></trkpt><trkpt lat="42.9914317701893" lon="11.855373640755348"><ele>579.0</ele><time>2026-05-04T14:41:34.001Z</time></trkpt><trkpt lat="42.99131205362434" lon="11.855553931665328"><ele>579.0</ele><time>2026-05-04T14:41:35.001Z</time></trkpt><trkpt lat="42.991280047243315" lon="11.855769494114963"><ele>579.0</ele><time>2026-05-04T14:41:36.001Z</time></trkpt><trkpt lat="42.991265578763056" lon="11.855978761340815"><ele>579.0</ele><time>2026-05-04T14:41:37.001Z</time></trkpt><trkpt lat="42.99124505841571" lon="11.856191533814496"><ele>574.0</ele><time>2026-05-04T14:41:38.001Z</time></trkpt><trkpt lat="42.99120530237657" lon="11.85638243177329"><ele>569.0</ele><time>2026-05-04T14:41:39.001Z</time></trkpt><trkpt lat="42.991147952217695" lon="11.856518883240396"><ele>564.0</ele><time>2026-05-04T14:41:40.001Z</time></trkpt><trkpt lat="42.991073206434734" lon="11.856655717866909"><ele>559.0</ele><time>2026-05-04T14:41:41.001Z</time></trkpt><trkpt lat="42.99095939233545" lon="11.85671885741363"><ele>555.6666666666667</ele><time>2026-05-04T14:41:42.001Z</time></trkpt><trkpt lat="42.99082383235579" lon="11.856797037595234"><ele>552.3333333333334</ele><time>2026-05-04T14:41:43.001Z</time></trkpt><trkpt lat="42.990673520099584" lon="11.856894063729039"><ele>549.0</ele><time>2026-05-04T14:41:44.001Z</time></trkpt><trkpt lat="42.99051586843729" lon="11.856961749721306"><ele>549.0</ele><time>2026-05-04T14:41:45.001Z</time></trkpt><trkpt lat="42.9903625411358" lon="11.857001821212855"><ele>549.0</ele><time>2026-05-04T14:41:46.001Z</time></trkpt><trkpt lat="42.99022711612245" lon="11.857067358267564"><ele>549.0</ele><time>2026-05-04T14:41:47.001Z</time></trkpt><trkpt lat="42.99009924238301" lon="11.85720144441209"><ele>551.0</ele><time>2026-05-04T14:41:48.001Z</time></trkpt><trkpt lat="42.98998590651091" lon="11.857375972106317"><ele>553.0</ele><time>2026-05-04T14:41:49.001Z</time></trkpt><trkpt lat="42.989881504374196" lon="11.857482786109491"><ele>555.0</ele><time>2026-05-04T14:41:50.001Z</time></trkpt><trkpt lat="42.98977228656396" lon="11.857598579195594"><ele>557.0</ele><time>2026-05-04T14:41:51.001Z</time></trkpt><trkpt lat="42.98963654501095" lon="11.857611479441152"><ele>557.0</ele><time>2026-05-04T14:41:52.001Z</time></trkpt><trkpt lat="42.98950311795026" lon="11.857613114815926"><ele>557.0</ele><time>2026-05-04T14:41:53.001Z</time></trkpt><trkpt lat="42.989381464406286" lon="11.857621003263752"><ele>557.0</ele><time>2026-05-04T14:41:54.001Z</time></trkpt><trkpt lat="42.98927126683874" lon="11.857644538475274"><ele>557.0</ele><time>2026-05-04T14:41:55.001Z</time></trkpt><trkpt lat="42.9891947342471" lon="11.857717831372167"><ele>554.4</ele><time>2026-05-04T14:41:56.001Z</time></trkpt><trkpt lat="42.98917289102188" lon="11.857817094670475"><ele>551.8000000000001</ele><time>2026-05-04T14:41:57.001Z</time></trkpt><trkpt lat="42.989190875849665" lon="11.857941536708347"><ele>549.2</ele><time>2026-05-04T14:41:58.001Z</time></trkpt><trkpt lat="42.98920462682233" lon="11.858095093177068"><ele>546.6</ele><time>2026-05-04T14:41:59.001Z</time></trkpt><trkpt lat="42.989227321302266" lon="11.858261983413353"><ele>544.0</ele><time>2026-05-04T14:42:00.001Z</time></trkpt><trkpt lat="42.98925140401455" lon="11.858441072723723"><ele>541.6666666666667</ele><time>2026-05-04T14:42:01.001Z</time></trkpt><trkpt lat="42.98927623413572" lon="11.858625720056452"><ele>539.3333333333334</ele><time>2026-05-04T14:42:02.001Z</time></trkpt><trkpt lat="42.98930491112474" lon="11.858838974130098"><ele>537.0</ele><time>2026-05-04T14:42:03.001Z</time></trkpt><trkpt lat="42.98934323415327" lon="11.859043829036853"><ele>537.0</ele><time>2026-05-04T14:42:04.001Z</time></trkpt><trkpt lat="42.98937145405433" lon="11.859264476074326"><ele>537.0</ele><time>2026-05-04T14:42:05.001Z</time></trkpt><trkpt lat="42.989403267660045" lon="11.859486569671667"><ele>537.0</ele><time>2026-05-04T14:42:06.001Z</time></trkpt><trkpt lat="42.98943244052866" lon="11.859725323497683"><ele>537.3333333333334</ele><time>2026-05-04T14:42:07.001Z</time></trkpt><trkpt lat="42.98946267787624" lon="11.859962603783629"><ele>537.6666666666667</ele><time>2026-05-04T14:42:08.001Z</time></trkpt><trkpt lat="42.98949099976817" lon="11.860192565654435"><ele>538.0</ele><time>2026-05-04T14:42:09.001Z</time></trkpt><trkpt lat="42.989504399310135" lon="11.860423217099553"><ele>537.3333333333334</ele><time>2026-05-04T14:42:10.001Z</time></trkpt><trkpt lat="42.98953373436551" lon="11.860645395563125"><ele>536.6666666666666</ele><time>2026-05-04T14:42:11.001Z</time></trkpt><trkpt lat="42.98957921786967" lon="11.860840360507439"><ele>536.0</ele><time>2026-05-04T14:42:12.001Z</time></trkpt><trkpt lat="42.98960422275949" lon="11.86104685263558"><ele>536.0</ele><time>2026-05-04T14:42:13.001Z</time></trkpt><trkpt lat="42.989634828404704" lon="11.86123376786269"><ele>536.0</ele><time>2026-05-04T14:42:14.001Z</time></trkpt><trkpt lat="42.98966274021741" lon="11.861421775403244"><ele>536.0</ele><time>2026-05-04T14:42:15.001Z</time></trkpt><trkpt lat="42.9896857094584" lon="11.86160797962984"><ele>536.0</ele><time>2026-05-04T14:42:16.001Z</time></trkpt><trkpt lat="42.98971064098617" lon="11.861791594557799"><ele>535.5</ele><time>2026-05-04T14:42:17.001Z</time></trkpt><trkpt lat="42.989719998956886" lon="11.861971111910654"><ele>535.0</ele><time>2026-05-04T14:42:18.001Z</time></trkpt><trkpt lat="42.989754126969" lon="11.862154588461392"><ele>534.5</ele><time>2026-05-04T14:42:19.001Z</time></trkpt><trkpt lat="42.989780171857724" lon="11.862337302062311"><ele>534.0</ele><time>2026-05-04T14:42:20.001Z</time></trkpt><trkpt lat="42.98980585459749" lon="11.862538981223867"><ele>533.3333333333334</ele><time>2026-05-04T14:42:21.001Z</time></trkpt><trkpt lat="42.9898335549185" lon="11.8627480313563"><ele>532.6666666666667</ele><time>2026-05-04T14:42:22.001Z</time></trkpt><trkpt lat="42.989859189013636" lon="11.862956735298983"><ele>532.0</ele><time>2026-05-04T14:42:23.001Z</time></trkpt><trkpt lat="42.989889826794304" lon="11.863169531538388"><ele>532.0</ele><time>2026-05-04T14:42:24.001Z</time></trkpt><trkpt lat="42.98991933998648" lon="11.86339218296844"><ele>532.0</ele><time>2026-05-04T14:42:25.001Z</time></trkpt><trkpt lat="42.98995238386547" lon="11.863602289192132"><ele>532.0</ele><time>2026-05-04T14:42:26.001Z</time></trkpt><trkpt lat="42.98998378735157" lon="11.863801320617936"><ele>532.5</ele><time>2026-05-04T14:42:27.001Z</time></trkpt><trkpt lat="42.99001356384926" lon="11.863998097389898"><ele>533.0</ele><time>2026-05-04T14:42:28.001Z</time></trkpt><trkpt lat="42.99004046188478" lon="11.864193074198841"><ele>533.5</ele><time>2026-05-04T14:42:29.001Z</time></trkpt><trkpt lat="42.99006147179319" lon="11.864375057983763"><ele>534.0</ele><time>2026-05-04T14:42:30.001Z</time></trkpt><trkpt lat="42.99008231223581" lon="11.864549629454247"><ele>534.4</ele><time>2026-05-04T14:42:31.001Z</time></trkpt><trkpt lat="42.990098917974144" lon="11.864701012860897"><ele>534.8</ele><time>2026-05-04T14:42:32.001Z</time></trkpt><trkpt lat="42.990123333831924" lon="11.86483364928483"><ele>535.2</ele><time>2026-05-04T14:42:33.001Z</time></trkpt><trkpt lat="42.990131924514685" lon="11.864939742207273"><ele>535.6</ele><time>2026-05-04T14:42:34.001Z</time></trkpt><trkpt lat="42.990127930076596" lon="11.865043284771678"><ele>536.0</ele><time>2026-05-04T14:42:36.001Z</time></trkpt><trkpt lat="42.990063793905556" lon="11.86511706741288"><ele>537.6</ele><time>2026-05-04T14:42:38.001Z</time></trkpt><trkpt lat="42.98999193030931" lon="11.865172782898098"><ele>539.2</ele><time>2026-05-04T14:42:39.001Z</time></trkpt><trkpt lat="42.98990563303956" lon="11.86523483947621"><ele>540.8</ele><time>2026-05-04T14:42:40.001Z</time></trkpt><trkpt lat="42.989808854521314" lon="11.865315105959654"><ele>542.4</ele><time>2026-05-04T14:42:41.001Z</time></trkpt><trkpt lat="42.989709394238794" lon="11.865418618833168"><ele>544.0</ele><time>2026-05-04T14:42:42.001Z</time></trkpt><trkpt lat="42.989622290519776" lon="11.865553567585913"><ele>544.0</ele><time>2026-05-04T14:42:43.001Z</time></trkpt><trkpt lat="42.989561215992204" lon="11.865699308146452"><ele>544.0</ele><time>2026-05-04T14:42:44.001Z</time></trkpt><trkpt lat="42.98950948193467" lon="11.865839010896"><ele>544.0</ele><time>2026-05-04T14:42:45.001Z</time></trkpt><trkpt lat="42.98946551966828" lon="11.865966913015255"><ele>544.0</ele><time>2026-05-04T14:42:46.001Z</time></trkpt><trkpt lat="42.98941842780401" lon="11.866091309174642"><ele>544.0</ele><time>2026-05-04T14:42:47.001Z</time></trkpt><trkpt lat="42.98935326469862" lon="11.866197375878183"><ele>545.1666666666667</ele><time>2026-05-04T14:42:48.001Z</time></trkpt><trkpt lat="42.98932587687646" lon="11.866302348151752"><ele>546.3333333333334</ele><time>2026-05-04T14:42:49.001Z</time></trkpt><trkpt lat="42.989278044512474" lon="11.86635907040953"><ele>547.5</ele><time>2026-05-04T14:42:50.001Z</time></trkpt><trkpt lat="42.98918457607702" lon="11.866336332970333"><ele>548.6666666666666</ele><time>2026-05-04T14:42:52.001Z</time></trkpt><trkpt lat="42.989125658203875" lon="11.86618438065878"><ele>549.8333333333333</ele><time>2026-05-04T14:42:54.001Z</time></trkpt><trkpt lat="42.98910200517262" lon="11.866087455248387"><ele>551.0</ele><time>2026-05-04T14:42:55.001Z</time></trkpt><trkpt lat="42.989078296467234" lon="11.86598824337696"><ele>548.1666666666666</ele><time>2026-05-04T14:42:56.001Z</time></trkpt><trkpt lat="42.98907294090521" lon="11.865895343268184"><ele>545.3333333333333</ele><time>2026-05-04T14:42:57.001Z</time></trkpt><trkpt lat="42.98905266731729" lon="11.865807919289635"><ele>542.5</ele><time>2026-05-04T14:42:58.001Z</time></trkpt><trkpt lat="42.98903119549642" lon="11.865715328634854"><ele>539.6666666666666</ele><time>2026-05-04T14:42:59.001Z</time></trkpt><trkpt lat="42.98901029570595" lon="11.865620677892345"><ele>536.8333333333334</ele><time>2026-05-04T14:43:00.001Z</time></trkpt><trkpt lat="42.98897584367079" lon="11.865467581082601"><ele>534.0</ele><time>2026-05-04T14:43:02.001Z</time></trkpt><trkpt lat="42.988956977549506" lon="11.865383744882228"><ele>534.0</ele><time>2026-05-04T14:43:03.002Z</time></trkpt><trkpt lat="42.98894175977927" lon="11.865299666510538"><ele>534.0</ele><time>2026-05-04T14:43:04.002Z</time></trkpt><trkpt lat="42.9888018516424" lon="11.865288673869703"><ele>534.0</ele><time>2026-05-04T14:43:05.002Z</time></trkpt><trkpt lat="42.98871853240221" lon="11.865278011085286"><ele>534.0</ele><time>2026-05-04T14:43:06.002Z</time></trkpt><trkpt lat="42.98863333053889" lon="11.865271040764043"><ele>534.0</ele><time>2026-05-04T14:43:07.002Z</time></trkpt><trkpt lat="42.988554653144426" lon="11.865259948191405"><ele>534.0</ele><time>2026-05-04T14:43:08.002Z</time></trkpt><trkpt lat="42.9884634461583" lon="11.865240932246257"><ele>534.0</ele><time>2026-05-04T14:43:09Z</time></trkpt><trkpt lat="42.988372959166064" lon="11.865220126023305"><ele>534.0</ele><time>2026-05-04T14:43:10Z</time></trkpt><trkpt lat="42.988282338301424" lon="11.865198299246483"><ele>534.0</ele><time>2026-05-04T14:43:11Z</time></trkpt><trkpt lat="42.98819177732181" lon="11.865166277671403"><ele>534.0</ele><time>2026-05-04T14:43:12Z</time></trkpt><trkpt lat="42.988104327793344" lon="11.865119987005501"><ele>533.4</ele><time>2026-05-04T14:43:13Z</time></trkpt><trkpt lat="42.988021228856745" lon="11.865064508023256"><ele>532.8</ele><time>2026-05-04T14:43:14Z</time></trkpt><trkpt lat="42.987955226218894" lon="11.86500945879424"><ele>532.2</ele><time>2026-05-04T14:43:15Z</time></trkpt><trkpt lat="42.98789907137812" lon="11.864958811412196"><ele>531.6</ele><time>2026-05-04T14:43:16Z</time></trkpt><trkpt lat="42.987788403416" lon="11.864935527256886"><ele>531.0</ele><time>2026-05-04T14:43:18Z</time></trkpt><trkpt lat="42.98769913465313" lon="11.865064100121506"><ele>531.2</ele><time>2026-05-04T14:43:20Z</time></trkpt><trkpt lat="42.987666094117785" lon="11.865160091653792"><ele>531.4000000000001</ele><time>2026-05-04T14:43:21Z</time></trkpt><trkpt lat="42.98762457191539" lon="11.865269432436895"><ele>531.6</ele><time>2026-05-04T14:43:22Z</time></trkpt><trkpt lat="42.98757184991977" lon="11.865392236581833"><ele>531.8000000000001</ele><time>2026-05-04T14:43:23Z</time></trkpt><trkpt lat="42.98751591004692" lon="11.865524437328217"><ele>532.0</ele><time>2026-05-04T14:43:24Z</time></trkpt><trkpt lat="42.98745977411281" lon="11.865665834014889"><ele>531.5</ele><time>2026-05-04T14:43:25Z</time></trkpt><trkpt lat="42.98740218180859" lon="11.865811346202516"><ele>531.0</ele><time>2026-05-04T14:43:26Z</time></trkpt><trkpt lat="42.98734565789097" lon="11.86595474579311"><ele>530.5</ele><time>2026-05-04T14:43:27Z</time></trkpt><trkpt lat="42.987303618997856" lon="11.8661045496656"><ele>530.0</ele><time>2026-05-04T14:43:28Z</time></trkpt><trkpt lat="42.987286535530124" lon="11.866267629754793"><ele>529.5</ele><time>2026-05-04T14:43:29Z</time></trkpt><trkpt lat="42.98729642579185" lon="11.86643990587141"><ele>529.0</ele><time>2026-05-04T14:43:30Z</time></trkpt><trkpt lat="42.98732123849827" lon="11.866611978955248"><ele>528.5</ele><time>2026-05-04T14:43:31Z</time></trkpt><trkpt lat="42.987359983841884" lon="11.866784278051606"><ele>528.0</ele><time>2026-05-04T14:43:32Z</time></trkpt><trkpt lat="42.987411092981944" lon="11.866959476142226"><ele>528.0</ele><time>2026-05-04T14:43:33Z</time></trkpt><trkpt lat="42.98747022929801" lon="11.867133783719014"><ele>528.0</ele><time>2026-05-04T14:43:34Z</time></trkpt><trkpt lat="42.98752251490382" lon="11.867314657503915"><ele>528.0</ele><time>2026-05-04T14:43:35Z</time></trkpt><trkpt lat="42.98755882789938" lon="11.867506581468641"><ele>528.0</ele><time>2026-05-04T14:43:36Z</time></trkpt><trkpt lat="42.98757888756119" lon="11.867689284629177"><ele>528.0</ele><time>2026-05-04T14:43:37Z</time></trkpt><trkpt lat="42.987593035248835" lon="11.867862974867112"><ele>528.0</ele><time>2026-05-04T14:43:38Z</time></trkpt><trkpt lat="42.98760861164466" lon="11.868041233863433"><ele>528.0</ele><time>2026-05-04T14:43:39Z</time></trkpt><trkpt lat="42.98762656689685" lon="11.868228766319463"><ele>528.0</ele><time>2026-05-04T14:43:40.001Z</time></trkpt><trkpt lat="42.987643999076774" lon="11.868423826735478"><ele>528.0</ele><time>2026-05-04T14:43:41.001Z</time></trkpt><trkpt lat="42.98766131984476" lon="11.868627091307733"><ele>528.0</ele><time>2026-05-04T14:43:42.001Z</time></trkpt><trkpt lat="42.98768011165062" lon="11.86882610979836"><ele>528.0</ele><time>2026-05-04T14:43:43.001Z</time></trkpt><trkpt lat="42.987699749164435" lon="11.869020275205395"><ele>528.0</ele><time>2026-05-04T14:43:44.001Z</time></trkpt><trkpt lat="42.987718578916216" lon="11.869196759757502"><ele>527.6</ele><time>2026-05-04T14:43:45.001Z</time></trkpt><trkpt lat="42.98773614250303" lon="11.86935541991801"><ele>527.1999999999999</ele><time>2026-05-04T14:43:46.001Z</time></trkpt><trkpt lat="42.98774700161191" lon="11.86950155331419"><ele>526.8</ele><time>2026-05-04T14:43:47.001Z</time></trkpt><trkpt lat="42.98774551700839" lon="11.869634640674914"><ele>526.4</ele><time>2026-05-04T14:43:48.001Z</time></trkpt><trkpt lat="42.987732744374725" lon="11.869750402450219"><ele>526.0</ele><time>2026-05-04T14:43:49.001Z</time></trkpt><trkpt lat="42.98770802790284" lon="11.86984793948818"><ele>526.0</ele><time>2026-05-04T14:43:50.001Z</time></trkpt><trkpt lat="42.98768456558123" lon="11.869928115443411"><ele>526.0</ele><time>2026-05-04T14:43:51.001Z</time></trkpt><trkpt lat="42.98771895067618" lon="11.87006955609581"><ele>526.0</ele><time>2026-05-04T14:43:53.001Z</time></trkpt><trkpt lat="42.98782984202231" lon="11.87006073525624"><ele>526.0</ele><time>2026-05-04T14:43:55.001Z</time></trkpt><trkpt lat="42.98784696064244" lon="11.869964458055383"><ele>526.0</ele><time>2026-05-04T14:43:56.001Z</time></trkpt><trkpt lat="42.987814104966375" lon="11.86978702150021"><ele>526.0</ele><time>2026-05-04T14:43:58.001Z</time></trkpt><trkpt lat="42.98773707520446" lon="11.869740855373301"><ele>526.0</ele><time>2026-05-04T14:43:59.001Z</time></trkpt><trkpt lat="42.98777386270844" lon="11.869564668962129"><ele>526.0</ele><time>2026-05-04T14:44:00.001Z</time></trkpt><trkpt lat="42.98776656449131" lon="11.86943596310529"><ele>526.0</ele><time>2026-05-04T14:44:01.001Z</time></trkpt><trkpt lat="42.98775847618114" lon="11.869295715131802"><ele>526.0</ele><time>2026-05-04T14:44:02.001Z</time></trkpt><trkpt lat="42.98774543728656" lon="11.86914540641857"><ele>526.5</ele><time>2026-05-04T14:44:03.001Z</time></trkpt><trkpt lat="42.98772940062553" lon="11.868986339599825"><ele>527.0</ele><time>2026-05-04T14:44:04.001Z</time></trkpt><trkpt lat="42.98771376931946" lon="11.86881932185972"><ele>527.5</ele><time>2026-05-04T14:44:05.001Z</time></trkpt><trkpt lat="42.98770054753653" lon="11.868652581208506"><ele>528.0</ele><time>2026-05-04T14:44:06.001Z</time></trkpt><trkpt lat="42.9876868477274" lon="11.868480722666163"><ele>528.0</ele><time>2026-05-04T14:44:07.001Z</time></trkpt><trkpt lat="42.98767070026652" lon="11.868303860232364"><ele>528.0</ele><time>2026-05-04T14:44:08.001Z</time></trkpt><trkpt lat="42.98765522541995" lon="11.868129554361351"><ele>528.0</ele><time>2026-05-04T14:44:09.001Z</time></trkpt><trkpt lat="42.987638868000026" lon="11.867953242509547"><ele>528.0</ele><time>2026-05-04T14:44:10.001Z</time></trkpt><trkpt lat="42.98761918746147" lon="11.867772205306823"><ele>527.5</ele><time>2026-05-04T14:44:11.001Z</time></trkpt><trkpt lat="42.9875959122995" lon="11.867589511067703"><ele>527.0</ele><time>2026-05-04T14:44:12.001Z</time></trkpt><trkpt lat="42.9875679375165" lon="11.867421904901745"><ele>526.5</ele><time>2026-05-04T14:44:13.001Z</time></trkpt><trkpt lat="42.987533705246825" lon="11.867270592812892"><ele>526.0</ele><time>2026-05-04T14:44:14.001Z</time></trkpt><trkpt lat="42.987497197487656" lon="11.867129765987995"><ele>526.0</ele><time>2026-05-04T14:44:15.001Z</time></trkpt><trkpt lat="42.98745685058544" lon="11.866992908415796"><ele>526.0</ele><time>2026-05-04T14:44:16.001Z</time></trkpt><trkpt lat="42.987412540769895" lon="11.866860119356618"><ele>526.0</ele><time>2026-05-04T14:44:17.001Z</time></trkpt><trkpt lat="42.98737568950802" lon="11.866746554916158"><ele>526.0</ele><time>2026-05-04T14:44:18.001Z</time></trkpt><trkpt lat="42.98734798329012" lon="11.866646403820331"><ele>526.0</ele><time>2026-05-04T14:44:19.001Z</time></trkpt><trkpt lat="42.987314039122296" lon="11.866497802861893"><ele>526.0</ele><time>2026-05-04T14:44:21.001Z</time></trkpt><trkpt lat="42.98730779332256" lon="11.866396650054064"><ele>526.0</ele><time>2026-05-04T14:44:23.001Z</time></trkpt><trkpt lat="42.98711044372262" lon="11.866556782580187"><ele>526.0</ele><time>2026-05-04T14:44:27.001Z</time></trkpt><trkpt lat="42.98702620794531" lon="11.866684040622689"><ele>526.0</ele><time>2026-05-04T14:44:29.001Z</time></trkpt><trkpt lat="42.986946267200295" lon="11.866779624297912"><ele>526.0</ele><time>2026-05-04T14:44:31.001Z</time></trkpt><trkpt lat="42.986910787337656" lon="11.866878126918788"><ele>526.0</ele><time>2026-05-04T14:44:34.001Z</time></trkpt><trkpt lat="42.98694908085452" lon="11.866786549561319"><ele>526.0</ele><time>2026-05-04T14:44:47.001Z</time></trkpt><trkpt lat="42.98699910432873" lon="11.86672847192737"><ele>526.0</ele><time>2026-05-04T14:44:48.001Z</time></trkpt><trkpt lat="42.98706167837751" lon="11.866648447927636"><ele>526.0</ele><time>2026-05-04T14:44:50.001Z</time></trkpt><trkpt lat="42.98707476929068" lon="11.866530075806594"><ele>526.0</ele><time>2026-05-04T14:44:52.001Z</time></trkpt><trkpt lat="42.98713624981258" lon="11.866488225230135"><ele>526.4</ele><time>2026-05-04T14:44:54.001Z</time></trkpt><trkpt lat="42.98716934248959" lon="11.866413307478892"><ele>526.8</ele><time>2026-05-04T14:44:56.001Z</time></trkpt><trkpt lat="42.98725632174223" lon="11.866387669933959"><ele>527.1999999999999</ele><time>2026-05-04T14:45:07.001Z</time></trkpt><trkpt lat="42.98731743827418" lon="11.866469311005751"><ele>527.6</ele><time>2026-05-04T14:45:09.001Z</time></trkpt><trkpt lat="42.987321036067705" lon="11.866619820491179"><ele>528.0</ele><time>2026-05-04T14:45:10.001Z</time></trkpt><trkpt lat="42.987344268226984" lon="11.866766320990516"><ele>527.3333333333334</ele><time>2026-05-04T14:45:11.001Z</time></trkpt><trkpt lat="42.98739429594636" lon="11.866940907556366"><ele>526.6666666666667</ele><time>2026-05-04T14:45:12.001Z</time></trkpt><trkpt lat="42.98745810049666" lon="11.86712738486429"><ele>526.0</ele><time>2026-05-04T14:45:13.001Z</time></trkpt><trkpt lat="42.987521034540634" lon="11.867349509888582"><ele>526.0</ele><time>2026-05-04T14:45:14.001Z</time></trkpt><trkpt lat="42.98756942218141" lon="11.86758446094588"><ele>526.0</ele><time>2026-05-04T14:45:15Z</time></trkpt><trkpt lat="42.987589053033204" lon="11.867844760659036"><ele>526.0</ele><time>2026-05-04T14:45:16Z</time></trkpt><trkpt lat="42.9876139850958" lon="11.868119854494234"><ele>526.6666666666667</ele><time>2026-05-04T14:45:17Z</time></trkpt><trkpt lat="42.987651713266175" lon="11.868382079842046"><ele>527.3333333333334</ele><time>2026-05-04T14:45:18Z</time></trkpt><trkpt lat="42.987666234612945" lon="11.868626976005057"><ele>528.0</ele><time>2026-05-04T14:45:19Z</time></trkpt><trkpt lat="42.98768356532861" lon="11.8688454583649"><ele>528.0</ele><time>2026-05-04T14:45:20Z</time></trkpt><trkpt lat="42.9877027192954" lon="11.869037288307597"><ele>528.0</ele><time>2026-05-04T14:45:21Z</time></trkpt><trkpt lat="42.98772235556476" lon="11.869209770462307"><ele>528.0</ele><time>2026-05-04T14:45:22Z</time></trkpt><trkpt lat="42.987721080875815" lon="11.869372536959524"><ele>528.0</ele><time>2026-05-04T14:45:23Z</time></trkpt><trkpt lat="42.98773148826888" lon="11.86950650861522"><ele>527.6666666666666</ele><time>2026-05-04T14:45:24Z</time></trkpt><trkpt lat="42.98774874040094" lon="11.869630035175403"><ele>527.3333333333334</ele><time>2026-05-04T14:45:25Z</time></trkpt><trkpt lat="42.98773339560869" lon="11.869736700960694"><ele>527.0</ele><time>2026-05-04T14:45:26Z</time></trkpt><trkpt lat="42.98770510444387" lon="11.86983719283161"><ele>526.6666666666667</ele><time>2026-05-04T14:45:27Z</time></trkpt><trkpt lat="42.9876665062193" lon="11.86992638805858"><ele>526.3333333333334</ele><time>2026-05-04T14:45:28Z</time></trkpt><trkpt lat="42.987620622547524" lon="11.870002942321923"><ele>526.0</ele><time>2026-05-04T14:45:29Z</time></trkpt><trkpt lat="42.98755376236326" lon="11.870071259805345"><ele>525.2</ele><time>2026-05-04T14:45:30Z</time></trkpt><trkpt lat="42.987476450721154" lon="11.870116896502763"><ele>524.4000000000001</ele><time>2026-05-04T14:45:31Z</time></trkpt><trkpt lat="42.98739316366364" lon="11.870143947773462"><ele>523.6</ele><time>2026-05-04T14:45:32Z</time></trkpt><trkpt lat="42.987299961175665" lon="11.870166971299565"><ele>522.8000000000001</ele><time>2026-05-04T14:45:33Z</time></trkpt><trkpt lat="42.98720337081301" lon="11.870180028167281"><ele>522.0</ele><time>2026-05-04T14:45:34Z</time></trkpt><trkpt lat="42.9870987949243" lon="11.870180786377928"><ele>522.0</ele><time>2026-05-04T14:45:35Z</time></trkpt><trkpt lat="42.98698725155501" lon="11.87017700140165"><ele>522.0</ele><time>2026-05-04T14:45:36Z</time></trkpt><trkpt lat="42.9868691895457" lon="11.870178778779843"><ele>522.0</ele><time>2026-05-04T14:45:37Z</time></trkpt><trkpt lat="42.98674381166333" lon="11.870178300488623"><ele>522.0</ele><time>2026-05-04T14:45:38Z</time></trkpt><trkpt lat="42.986611757070385" lon="11.870181349147854"><ele>521.75</ele><time>2026-05-04T14:45:39Z</time></trkpt><trkpt lat="42.98646972863964" lon="11.870185821083638"><ele>521.5</ele><time>2026-05-04T14:45:40Z</time></trkpt><trkpt lat="42.98632350283124" lon="11.870187048224228"><ele>521.25</ele><time>2026-05-04T14:45:41Z</time></trkpt><trkpt lat="42.986176433875535" lon="11.870192864969244"><ele>521.0</ele><time>2026-05-04T14:45:42Z</time></trkpt><trkpt lat="42.98602276458018" lon="11.870199829716212"><ele>521.0</ele><time>2026-05-04T14:45:43Z</time></trkpt><trkpt lat="42.98585891672226" lon="11.870209621630988"><ele>521.0</ele><time>2026-05-04T14:45:44Z</time></trkpt><trkpt lat="42.98569069252849" lon="11.870224664649603"><ele>521.0</ele><time>2026-05-04T14:45:45Z</time></trkpt><trkpt lat="42.98551663955149" lon="11.87024439223368"><ele>520.6666666666666</ele><time>2026-05-04T14:45:46Z</time></trkpt><trkpt lat="42.98533911607139" lon="11.870268177052855"><ele>520.3333333333334</ele><time>2026-05-04T14:45:47Z</time></trkpt><trkpt lat="42.98515571683437" lon="11.870289504798006"><ele>520.0</ele><time>2026-05-04T14:45:48Z</time></trkpt><trkpt lat="42.98497093974208" lon="11.870310029400644"><ele>521.0</ele><time>2026-05-04T14:45:49Z</time></trkpt><trkpt lat="42.98478127925113" lon="11.870332990331582"><ele>522.0</ele><time>2026-05-04T14:45:50Z</time></trkpt><trkpt lat="42.9845867160958" lon="11.870358942542836"><ele>523.0</ele><time>2026-05-04T14:45:51Z</time></trkpt><trkpt lat="42.98438813371811" lon="11.870355858303121"><ele>523.0</ele><time>2026-05-04T14:45:52Z</time></trkpt><trkpt lat="42.98419527743071" lon="11.870340135178498"><ele>523.0</ele><time>2026-05-04T14:45:53Z</time></trkpt><trkpt lat="42.98400875791553" lon="11.870268968850443"><ele>523.0</ele><time>2026-05-04T14:45:54Z</time></trkpt><trkpt lat="42.98382424986498" lon="11.870158589720424"><ele>523.3333333333334</ele><time>2026-05-04T14:45:55Z</time></trkpt><trkpt lat="42.9836339275377" lon="11.870069521574084"><ele>523.6666666666666</ele><time>2026-05-04T14:45:56Z</time></trkpt><trkpt lat="42.98344665225673" lon="11.869947250935402"><ele>524.0</ele><time>2026-05-04T14:45:57Z</time></trkpt><trkpt lat="42.98326231480586" lon="11.86981670932007"><ele>524.0</ele><time>2026-05-04T14:45:58Z</time></trkpt><trkpt lat="42.98310381154696" lon="11.869642177542325"><ele>524.0</ele><time>2026-05-04T14:45:59Z</time></trkpt><trkpt lat="42.982954666782305" lon="11.86946611103469"><ele>524.0</ele><time>2026-05-04T14:46:00Z</time></trkpt><trkpt lat="42.982812548160744" lon="11.869270029162223"><ele>523.6666666666666</ele><time>2026-05-04T14:46:01Z</time></trkpt><trkpt lat="42.98267512624602" lon="11.869080541780955"><ele>523.3333333333334</ele><time>2026-05-04T14:46:02Z</time></trkpt><trkpt lat="42.98253101855944" lon="11.868891356564161"><ele>523.0</ele><time>2026-05-04T14:46:03Z</time></trkpt><trkpt lat="42.982418497474946" lon="11.868677241853915"><ele>524.6666666666667</ele><time>2026-05-04T14:46:04Z</time></trkpt><trkpt lat="42.98231442801095" lon="11.868444555815584"><ele>526.3333333333334</ele><time>2026-05-04T14:46:05Z</time></trkpt><trkpt lat="42.982211668803366" lon="11.868217114598712"><ele>528.0</ele><time>2026-05-04T14:46:06Z</time></trkpt><trkpt lat="42.982087450048894" lon="11.868015513375932"><ele>528.6666666666666</ele><time>2026-05-04T14:46:07Z</time></trkpt><trkpt lat="42.9819401759827" lon="11.867843634976746"><ele>529.3333333333333</ele><time>2026-05-04T14:46:08Z</time></trkpt><trkpt lat="42.98177752242712" lon="11.867683437351658"><ele>530.0</ele><time>2026-05-04T14:46:09.001Z</time></trkpt><trkpt lat="42.981608065081225" lon="11.867534389839486"><ele>532.6666666666666</ele><time>2026-05-04T14:46:10.001Z</time></trkpt><trkpt lat="42.98142533246685" lon="11.86740699686287"><ele>535.3333333333334</ele><time>2026-05-04T14:46:11.001Z</time></trkpt><trkpt lat="42.98123802442296" lon="11.867330774456812"><ele>538.0</ele><time>2026-05-04T14:46:12.001Z</time></trkpt><trkpt lat="42.98104005031906" lon="11.86728919886108"><ele>541.0</ele><time>2026-05-04T14:46:13.001Z</time></trkpt><trkpt lat="42.980841014764536" lon="11.867253049314314"><ele>544.0</ele><time>2026-05-04T14:46:14.001Z</time></trkpt><trkpt lat="42.98063628444117" lon="11.867192474637934"><ele>547.0</ele><time>2026-05-04T14:46:15.001Z</time></trkpt><trkpt lat="42.980442739367355" lon="11.867102879427694"><ele>547.0</ele><time>2026-05-04T14:46:16.001Z</time></trkpt><trkpt lat="42.98027453146085" lon="11.866966313352524"><ele>547.0</ele><time>2026-05-04T14:46:17.001Z</time></trkpt><trkpt lat="42.980105693425294" lon="11.866832720184453"><ele>547.0</ele><time>2026-05-04T14:46:18.001Z</time></trkpt><trkpt lat="42.97995000043689" lon="11.866641682432817"><ele>546.6666666666667</ele><time>2026-05-04T14:46:19.001Z</time></trkpt><trkpt lat="42.97982102327463" lon="11.866421114448201"><ele>546.3333333333334</ele><time>2026-05-04T14:46:20.001Z</time></trkpt><trkpt lat="42.97971563515308" lon="11.866172911203103"><ele>546.0</ele><time>2026-05-04T14:46:21.001Z</time></trkpt><trkpt lat="42.979652452707946" lon="11.86587615013"><ele>547.3333333333334</ele><time>2026-05-04T14:46:22.001Z</time></trkpt><trkpt lat="42.97958999816421" lon="11.865594995842239"><ele>548.6666666666667</ele><time>2026-05-04T14:46:23.001Z</time></trkpt><trkpt lat="42.97951353610343" lon="11.86530665430592"><ele>550.0</ele><time>2026-05-04T14:46:24.001Z</time></trkpt><trkpt lat="42.9794482359259" lon="11.86500592087093"><ele>550.0</ele><time>2026-05-04T14:46:25.001Z</time></trkpt><trkpt lat="42.97938217424931" lon="11.864735241579442"><ele>550.0</ele><time>2026-05-04T14:46:26.001Z</time></trkpt><trkpt lat="42.979368629706805" lon="11.864480449432568"><ele>550.0</ele><time>2026-05-04T14:46:27.001Z</time></trkpt><trkpt lat="42.97938976107409" lon="11.864254839464708"><ele>550.0</ele><time>2026-05-04T14:46:28.001Z</time></trkpt><trkpt lat="42.97946743816619" lon="11.864049306300007"><ele>550.0</ele><time>2026-05-04T14:46:29.001Z</time></trkpt><trkpt lat="42.97957164419555" lon="11.863884401681158"><ele>550.0</ele><time>2026-05-04T14:46:30.001Z</time></trkpt><trkpt lat="42.97968969787356" lon="11.863731866558515"><ele>550.0</ele><time>2026-05-04T14:46:31.001Z</time></trkpt><trkpt lat="42.97976314775885" lon="11.863590173751492"><ele>550.0</ele><time>2026-05-04T14:46:32.001Z</time></trkpt><trkpt lat="42.979790620443524" lon="11.863431855451308"><ele>550.0</ele><time>2026-05-04T14:46:33.001Z</time></trkpt><trkpt lat="42.97975963668543" lon="11.863286906997782"><ele>550.0</ele><time>2026-05-04T14:46:34.001Z</time></trkpt><trkpt lat="42.97967793684757" lon="11.863188024830617"><ele>552.0</ele><time>2026-05-04T14:46:35.001Z</time></trkpt><trkpt lat="42.979547035779724" lon="11.863135410504867"><ele>554.0</ele><time>2026-05-04T14:46:36.001Z</time></trkpt><trkpt lat="42.97940716790932" lon="11.863166807148035"><ele>556.0</ele><time>2026-05-04T14:46:37.001Z</time></trkpt><trkpt lat="42.979291123831175" lon="11.86327220700716"><ele>558.0</ele><time>2026-05-04T14:46:38.001Z</time></trkpt><trkpt lat="42.979202910265016" lon="11.863446236233166"><ele>560.0</ele><time>2026-05-04T14:46:39.001Z</time></trkpt><trkpt lat="42.979099049047655" lon="11.863626605558213"><ele>562.0</ele><time>2026-05-04T14:46:40.001Z</time></trkpt><trkpt lat="42.97896466474308" lon="11.863802711357748"><ele>564.0</ele><time>2026-05-04T14:46:41.001Z</time></trkpt><trkpt lat="42.97881648170006" lon="11.863977945442976"><ele>564.0</ele><time>2026-05-04T14:46:42.001Z</time></trkpt><trkpt lat="42.97866433134739" lon="11.864164951555018"><ele>564.0</ele><time>2026-05-04T14:46:43.001Z</time></trkpt><trkpt lat="42.97852057313491" lon="11.864334792103978"><ele>564.0</ele><time>2026-05-04T14:46:44.001Z</time></trkpt><trkpt lat="42.9783943798419" lon="11.864442623092666"><ele>563.75</ele><time>2026-05-04T14:46:45.001Z</time></trkpt><trkpt lat="42.97825335484182" lon="11.864451699960055"><ele>563.5</ele><time>2026-05-04T14:46:46.001Z</time></trkpt><trkpt lat="42.97811002881435" lon="11.864397730832849"><ele>563.25</ele><time>2026-05-04T14:46:47.001Z</time></trkpt><trkpt lat="42.97798163970438" lon="11.864268617612126"><ele>563.0</ele><time>2026-05-04T14:46:48.001Z</time></trkpt><trkpt lat="42.97782318991947" lon="11.864152633219133"><ele>566.0</ele><time>2026-05-04T14:46:49.001Z</time></trkpt><trkpt lat="42.977668371262" lon="11.864008264176986"><ele>569.0</ele><time>2026-05-04T14:46:50.001Z</time></trkpt><trkpt lat="42.97750361065623" lon="11.863868479980857"><ele>572.0</ele><time>2026-05-04T14:46:51.001Z</time></trkpt><trkpt lat="42.97734873773348" lon="11.863744035732802"><ele>574.0</ele><time>2026-05-04T14:46:52.001Z</time></trkpt><trkpt lat="42.97721414567212" lon="11.863702583051635"><ele>576.0</ele><time>2026-05-04T14:46:53.001Z</time></trkpt><trkpt lat="42.977078689166945" lon="11.863787696242833"><ele>578.0</ele><time>2026-05-04T14:46:54.001Z</time></trkpt><trkpt lat="42.97695670498525" lon="11.8639204224702"><ele>580.0</ele><time>2026-05-04T14:46:55.001Z</time></trkpt><trkpt lat="42.976844067431344" lon="11.864102849367466"><ele>580.3333333333334</ele><time>2026-05-04T14:46:56.001Z</time></trkpt><trkpt lat="42.97671798666088" lon="11.864311955497364"><ele>580.6666666666666</ele><time>2026-05-04T14:46:57.001Z</time></trkpt><trkpt lat="42.9765789599857" lon="11.864494666286104"><ele>581.0</ele><time>2026-05-04T14:46:58.001Z</time></trkpt><trkpt lat="42.97642031397903" lon="11.864612509576146"><ele>581.0</ele><time>2026-05-04T14:46:59.001Z</time></trkpt><trkpt lat="42.97623102355245" lon="11.864656862403542"><ele>581.0</ele><time>2026-05-04T14:47:00.001Z</time></trkpt><trkpt lat="42.97602720256111" lon="11.864665018047598"><ele>581.0</ele><time>2026-05-04T14:47:01.001Z</time></trkpt><trkpt lat="42.975807467227526" lon="11.864670463095285"><ele>583.0</ele><time>2026-05-04T14:47:02.001Z</time></trkpt><trkpt lat="42.97558249546031" lon="11.864689465758508"><ele>585.0</ele><time>2026-05-04T14:47:03.001Z</time></trkpt><trkpt lat="42.975348484825275" lon="11.864686110647291"><ele>585.0</ele><time>2026-05-04T14:47:04.001Z</time></trkpt><trkpt lat="42.97513025747966" lon="11.864720948763196"><ele>585.0</ele><time>2026-05-04T14:47:05.001Z</time></trkpt><trkpt lat="42.97493436378399" lon="11.864720668797549"><ele>585.0</ele><time>2026-05-04T14:47:06.001Z</time></trkpt><trkpt lat="42.97474976605357" lon="11.864681814543196"><ele>587.0</ele><time>2026-05-04T14:47:07.001Z</time></trkpt><trkpt lat="42.974581279680415" lon="11.86456269398859"><ele>589.0</ele><time>2026-05-04T14:47:08.001Z</time></trkpt><trkpt lat="42.974458477409115" lon="11.86436034031983"><ele>591.0</ele><time>2026-05-04T14:47:09.001Z</time></trkpt><trkpt lat="42.974325497177986" lon="11.864148686386589"><ele>598.3333333333334</ele><time>2026-05-04T14:47:10.001Z</time></trkpt><trkpt lat="42.97419155561953" lon="11.863934232581164"><ele>605.6666666666667</ele><time>2026-05-04T14:47:11.001Z</time></trkpt><trkpt lat="42.9740351305063" lon="11.863742202822452"><ele>613.0</ele><time>2026-05-04T14:47:12.001Z</time></trkpt><trkpt lat="42.97385001583313" lon="11.863597821591439"><ele>613.0</ele><time>2026-05-04T14:47:13.001Z</time></trkpt><trkpt lat="42.9736321035156" lon="11.863470947096248"><ele>613.0</ele><time>2026-05-04T14:47:14.001Z</time></trkpt><trkpt lat="42.97341640916961" lon="11.863320242125704"><ele>621.5</ele><time>2026-05-04T14:47:15.001Z</time></trkpt><trkpt lat="42.973211783362565" lon="11.863143378353762"><ele>630.0</ele><time>2026-05-04T14:47:16.001Z</time></trkpt><trkpt lat="42.97299850760323" lon="11.862957021505931"><ele>630.0</ele><time>2026-05-04T14:47:17.001Z</time></trkpt><trkpt lat="42.97278796188883" lon="11.862778202610942"><ele>630.0</ele><time>2026-05-04T14:47:18.001Z</time></trkpt><trkpt lat="42.97256902096386" lon="11.862631326892656"><ele>635.5</ele><time>2026-05-04T14:47:19.001Z</time></trkpt><trkpt lat="42.97233972480281" lon="11.86253395427639"><ele>641.0</ele><time>2026-05-04T14:47:20.001Z</time></trkpt><trkpt lat="42.97209603978952" lon="11.86248320493606"><ele>641.0</ele><time>2026-05-04T14:47:21Z</time></trkpt><trkpt lat="42.97185584392784" lon="11.862458629458645"><ele>641.0</ele><time>2026-05-04T14:47:22Z</time></trkpt><trkpt lat="42.9716185984734" lon="11.86238242664133"><ele>642.5</ele><time>2026-05-04T14:47:23Z</time></trkpt><trkpt lat="42.97137539979405" lon="11.86230995435292"><ele>644.0</ele><time>2026-05-04T14:47:24Z</time></trkpt><trkpt lat="42.97114543690079" lon="11.862214480544493"><ele>646.0</ele><time>2026-05-04T14:47:25Z</time></trkpt><trkpt lat="42.97084303786252" lon="11.86208945244137"><ele>648.0</ele><time>2026-05-04T14:47:26Z</time></trkpt><trkpt lat="42.97066573964727" lon="11.861998590703143"><ele>648.0</ele><time>2026-05-04T14:47:27Z</time></trkpt><trkpt lat="42.970575123451496" lon="11.86189150235537"><ele>648.0</ele><time>2026-05-04T14:47:28Z</time></trkpt><trkpt lat="42.970524790026865" lon="11.861763548533034"><ele>648.0</ele><time>2026-05-04T14:47:29Z</time></trkpt><trkpt lat="42.970523599588866" lon="11.861595226145138"><ele>648.0</ele><time>2026-05-04T14:47:30Z</time></trkpt><trkpt lat="42.97057626800784" lon="11.861418380806777"><ele>648.0</ele><time>2026-05-04T14:47:31Z</time></trkpt><trkpt lat="42.97065043185502" lon="11.86117456012136"><ele>648.0</ele><time>2026-05-04T14:47:32Z</time></trkpt><trkpt lat="42.97073555244954" lon="11.860892615660383"><ele>648.0</ele><time>2026-05-04T14:47:33Z</time></trkpt><trkpt lat="42.97081200774874" lon="11.860581073282491"><ele>657.0</ele><time>2026-05-04T14:47:34Z</time></trkpt><trkpt lat="42.9709143972682" lon="11.860270140939203"><ele>666.0</ele><time>2026-05-04T14:47:35Z</time></trkpt><trkpt lat="42.9710084285684" lon="11.859981198240543"><ele>666.0</ele><time>2026-05-04T14:47:36Z</time></trkpt><trkpt lat="42.971057692471256" lon="11.859686246195851"><ele>666.0</ele><time>2026-05-04T14:47:37Z</time></trkpt><trkpt lat="42.97105874779006" lon="11.859381265110812"><ele>666.0</ele><time>2026-05-04T14:47:38Z</time></trkpt><trkpt lat="42.97102688268418" lon="11.859063772594363"><ele>666.5</ele><time>2026-05-04T14:47:39Z</time></trkpt><trkpt lat="42.97099595581975" lon="11.858741022735517"><ele>667.0</ele><time>2026-05-04T14:47:40Z</time></trkpt><trkpt lat="42.970981506819456" lon="11.858413540302992"><ele>670.0</ele><time>2026-05-04T14:47:41Z</time></trkpt><trkpt lat="42.970975957981096" lon="11.858109095488636"><ele>673.0</ele><time>2026-05-04T14:47:42Z</time></trkpt><trkpt lat="42.970960909923605" lon="11.857845181099286"><ele>676.0</ele><time>2026-05-04T14:47:43Z</time></trkpt><trkpt lat="42.970919432935084" lon="11.85762607151112"><ele>671.0</ele><time>2026-05-04T14:47:44Z</time></trkpt><trkpt lat="42.97081737793067" lon="11.857447446881524"><ele>666.0</ele><time>2026-05-04T14:47:45Z</time></trkpt><trkpt lat="42.970709607238305" lon="11.8572532333049"><ele>661.0</ele><time>2026-05-04T14:47:46Z</time></trkpt><trkpt lat="42.97055747672561" lon="11.857085353055341"><ele>661.0</ele><time>2026-05-04T14:47:47Z</time></trkpt><trkpt lat="42.97038909356021" lon="11.856921922858692"><ele>661.0</ele><time>2026-05-04T14:47:48Z</time></trkpt><trkpt lat="42.970210620545906" lon="11.856745122755482"><ele>661.0</ele><time>2026-05-04T14:47:49Z</time></trkpt><trkpt lat="42.9700331148697" lon="11.856547474539802"><ele>660.0</ele><time>2026-05-04T14:47:50Z</time></trkpt><trkpt lat="42.969846834933215" lon="11.85634227102714"><ele>659.0</ele><time>2026-05-04T14:47:51Z</time></trkpt><trkpt lat="42.96965622253222" lon="11.856134261936207"><ele>660.0</ele><time>2026-05-04T14:47:52Z</time></trkpt><trkpt lat="42.969454125077505" lon="11.855923746896007"><ele>661.0</ele><time>2026-05-04T14:47:53Z</time></trkpt><trkpt lat="42.969258187612134" lon="11.855709324336425"><ele>660.0</ele><time>2026-05-04T14:47:54Z</time></trkpt><trkpt lat="42.969053117100195" lon="11.85553347593114"><ele>659.0</ele><time>2026-05-04T14:47:55Z</time></trkpt><trkpt lat="42.968830348172474" lon="11.855385926450998"><ele>659.0</ele><time>2026-05-04T14:47:56Z</time></trkpt><trkpt lat="42.96860213401325" lon="11.85526022005745"><ele>659.0</ele><time>2026-05-04T14:47:57Z</time></trkpt><trkpt lat="42.96839044269412" lon="11.855156329575221"><ele>660.3333333333333</ele><time>2026-05-04T14:47:58Z</time></trkpt><trkpt lat="42.968198771111425" lon="11.855074051806877"><ele>661.6666666666666</ele><time>2026-05-04T14:47:59Z</time></trkpt><trkpt lat="42.96803038033854" lon="11.854967792460354"><ele>663.0</ele><time>2026-05-04T14:48:00Z</time></trkpt><trkpt lat="42.96786724250326" lon="11.854881613669795"><ele>663.0</ele><time>2026-05-04T14:48:01Z</time></trkpt><trkpt lat="42.96767635967067" lon="11.854944453377609"><ele>663.0</ele><time>2026-05-04T14:48:02Z</time></trkpt><trkpt lat="42.96752324079783" lon="11.854927861737258"><ele>663.0</ele><time>2026-05-04T14:48:03Z</time></trkpt><trkpt lat="42.96739531860842" lon="11.85491307225985"><ele>662.8</ele><time>2026-05-04T14:48:04Z</time></trkpt><trkpt lat="42.967275867690496" lon="11.854879914641483"><ele>662.5999999999999</ele><time>2026-05-04T14:48:05Z</time></trkpt><trkpt lat="42.96717243124184" lon="11.854848967430506"><ele>662.4000000000001</ele><time>2026-05-04T14:48:06Z</time></trkpt><trkpt lat="42.96709522121958" lon="11.854825498474883"><ele>662.2</ele><time>2026-05-04T14:48:07Z</time></trkpt><trkpt lat="42.96700786605808" lon="11.85483853000336"><ele>662.0</ele><time>2026-05-04T14:48:09.001Z</time></trkpt><trkpt lat="42.96699864575459" lon="11.854948824456038"><ele>662.0</ele><time>2026-05-04T14:48:11.001Z</time></trkpt><trkpt lat="42.966989215728574" lon="11.855038154455471"><ele>662.0</ele><time>2026-05-04T14:48:12.001Z</time></trkpt><trkpt lat="42.96697825529806" lon="11.855130056713524"><ele>662.0</ele><time>2026-05-04T14:48:13.001Z</time></trkpt><trkpt lat="42.9669223744619" lon="11.85525647954926"><ele>662.0</ele><time>2026-05-04T14:48:15.001Z</time></trkpt><trkpt lat="42.96685633759903" lon="11.855276368685024"><ele>662.0</ele><time>2026-05-04T14:48:16.001Z</time></trkpt><trkpt lat="42.9667861733875" lon="11.855289351504476"><ele>662.0</ele><time>2026-05-04T14:48:17.001Z</time></trkpt><trkpt lat="42.966710525323045" lon="11.855296995015639"><ele>662.8333333333333</ele><time>2026-05-04T14:48:18.001Z</time></trkpt><trkpt lat="42.966633950959746" lon="11.855311335252988"><ele>663.6666666666666</ele><time>2026-05-04T14:48:19.001Z</time></trkpt><trkpt lat="42.96657007638871" lon="11.855306936714342"><ele>664.5</ele><time>2026-05-04T14:48:20.001Z</time></trkpt><trkpt lat="42.96648347503358" lon="11.855311138121262"><ele>665.3333333333334</ele><time>2026-05-04T14:48:21.001Z</time></trkpt><trkpt lat="42.96639671051639" lon="11.855307934345895"><ele>666.1666666666667</ele><time>2026-05-04T14:48:22.001Z</time></trkpt><trkpt lat="42.96628828493474" lon="11.855314552212873"><ele>667.0</ele><time>2026-05-04T14:48:23.001Z</time></trkpt><trkpt lat="42.966195711297615" lon="11.855318865598635"><ele>667.0</ele><time>2026-05-04T14:48:24.001Z</time></trkpt><trkpt lat="42.966125764817185" lon="11.8553388110717"><ele>667.0</ele><time>2026-05-04T14:48:25.001Z</time></trkpt><trkpt lat="42.96602566592925" lon="11.855358488937414"><ele>667.0</ele><time>2026-05-04T14:48:26.001Z</time></trkpt><trkpt lat="42.965930017323146" lon="11.85537276544292"><ele>667.0</ele><time>2026-05-04T14:48:27.001Z</time></trkpt><trkpt lat="42.965854696402644" lon="11.85539697685676"><ele>667.0</ele><time>2026-05-04T14:48:28.001Z</time></trkpt><trkpt lat="42.965782862808794" lon="11.855433219113408"><ele>667.0</ele><time>2026-05-04T14:48:29.001Z</time></trkpt><trkpt lat="42.965711362354355" lon="11.855487109848033"><ele>668.0</ele><time>2026-05-04T14:48:30.001Z</time></trkpt><trkpt lat="42.96561737120861" lon="11.85555970723757"><ele>669.0</ele><time>2026-05-04T14:48:31.001Z</time></trkpt><trkpt lat="42.965504561162575" lon="11.855637111647725"><ele>670.0</ele><time>2026-05-04T14:48:32.001Z</time></trkpt><trkpt lat="42.9653928194803" lon="11.855709665937919"><ele>671.0</ele><time>2026-05-04T14:48:33.001Z</time></trkpt><trkpt lat="42.96530305643005" lon="11.855765961030851"><ele>671.0</ele><time>2026-05-04T14:48:34.001Z</time></trkpt><trkpt lat="42.965217800548686" lon="11.855818158252054"><ele>671.0</ele><time>2026-05-04T14:48:35.001Z</time></trkpt><trkpt lat="42.96514638204442" lon="11.855876662584555"><ele>671.0</ele><time>2026-05-04T14:48:36.001Z</time></trkpt><trkpt lat="42.9650781574204" lon="11.855950273753457"><ele>671.0</ele><time>2026-05-04T14:48:37.001Z</time></trkpt><trkpt lat="42.96499307794396" lon="11.856043663591151"><ele>671.0</ele><time>2026-05-04T14:48:38.001Z</time></trkpt><trkpt lat="42.964895603730945" lon="11.856125551311024"><ele>674.4</ele><time>2026-05-04T14:48:39.001Z</time></trkpt><trkpt lat="42.96479817371594" lon="11.856184703557611"><ele>677.8</ele><time>2026-05-04T14:48:40.001Z</time></trkpt><trkpt lat="42.964708378685344" lon="11.856216560836009"><ele>681.1999999999999</ele><time>2026-05-04T14:48:41.001Z</time></trkpt><trkpt lat="42.964602169110265" lon="11.85623601216905"><ele>684.5999999999999</ele><time>2026-05-04T14:48:42.001Z</time></trkpt><trkpt lat="42.96448443492007" lon="11.85626457998787"><ele>688.0</ele><time>2026-05-04T14:48:43.001Z</time></trkpt><trkpt lat="42.964382514114675" lon="11.856285771857902"><ele>688.0</ele><time>2026-05-04T14:48:44.001Z</time></trkpt><trkpt lat="42.96430126539045" lon="11.856293286193258"><ele>688.0</ele><time>2026-05-04T14:48:45.001Z</time></trkpt><trkpt lat="42.96422170690945" lon="11.856280408867425"><ele>688.0</ele><time>2026-05-04T14:48:46.001Z</time></trkpt><trkpt lat="42.964145714674146" lon="11.856241018412696"><ele>688.0</ele><time>2026-05-04T14:48:47.001Z</time></trkpt><trkpt lat="42.964061441522894" lon="11.856181685086355"><ele>688.0</ele><time>2026-05-04T14:48:48.001Z</time></trkpt><trkpt lat="42.963981892926135" lon="11.85610745305964"><ele>688.0</ele><time>2026-05-04T14:48:49.001Z</time></trkpt><trkpt lat="42.963919821550114" lon="11.856020243170361"><ele>686.8</ele><time>2026-05-04T14:48:50.001Z</time></trkpt><trkpt lat="42.963853070535066" lon="11.855935102297378"><ele>685.5999999999999</ele><time>2026-05-04T14:48:51.001Z</time></trkpt><trkpt lat="42.96379146386567" lon="11.855853803283521"><ele>684.4000000000001</ele><time>2026-05-04T14:48:52.001Z</time></trkpt><trkpt lat="42.963718428724746" lon="11.855751487439305"><ele>683.2</ele><time>2026-05-04T14:48:53.001Z</time></trkpt><trkpt lat="42.96364318814202" lon="11.855643115726147"><ele>682.0</ele><time>2026-05-04T14:48:54.001Z</time></trkpt><trkpt lat="42.96356671333578" lon="11.855544574917278"><ele>682.0</ele><time>2026-05-04T14:48:55.001Z</time></trkpt><trkpt lat="42.96350092577709" lon="11.855465885155091"><ele>682.0</ele><time>2026-05-04T14:48:56.001Z</time></trkpt><trkpt lat="42.96343903047207" lon="11.855399949870321"><ele>682.0</ele><time>2026-05-04T14:48:57.001Z</time></trkpt><trkpt lat="42.96336639552715" lon="11.855347146385663"><ele>682.0</ele><time>2026-05-04T14:48:58.001Z</time></trkpt><trkpt lat="42.96328963561189" lon="11.855314565011248"><ele>682.0</ele><time>2026-05-04T14:48:59.001Z</time></trkpt><trkpt lat="42.96320432973841" lon="11.855287488351097"><ele>682.0</ele><time>2026-05-04T14:49:00.001Z</time></trkpt><trkpt lat="42.963138378115886" lon="11.855281462142436"><ele>683.2</ele><time>2026-05-04T14:49:01.001Z</time></trkpt><trkpt lat="42.96302548138172" lon="11.855308155986421"><ele>684.4000000000001</ele><time>2026-05-04T14:49:03.001Z</time></trkpt><trkpt lat="42.96292222297904" lon="11.855354259078334"><ele>685.5999999999999</ele><time>2026-05-04T14:49:05.001Z</time></trkpt><trkpt lat="42.96283834159397" lon="11.855406558226742"><ele>686.8</ele><time>2026-05-04T14:49:07.001Z</time></trkpt><trkpt lat="42.96275090442124" lon="11.855468899926251"><ele>688.0</ele><time>2026-05-04T14:49:09.001Z</time></trkpt><trkpt lat="42.96265012712201" lon="11.855559477896719"><ele>688.0</ele><time>2026-05-04T14:49:11.001Z</time></trkpt><trkpt lat="42.96258577153111" lon="11.855603379985544"><ele>688.0</ele><time>2026-05-04T14:49:12.001Z</time></trkpt><trkpt lat="42.962513745879285" lon="11.85563561508619"><ele>688.0</ele><time>2026-05-04T14:49:13.001Z</time></trkpt><trkpt lat="42.96242415067704" lon="11.855677011127442"><ele>688.0</ele><time>2026-05-04T14:49:14.001Z</time></trkpt><trkpt lat="42.962347323374544" lon="11.855719952733903"><ele>688.0</ele><time>2026-05-04T14:49:15.001Z</time></trkpt><trkpt lat="42.96228888007085" lon="11.855766075710848"><ele>688.0</ele><time>2026-05-04T14:49:16.001Z</time></trkpt><trkpt lat="42.9622206444387" lon="11.855816165251786"><ele>687.2</ele><time>2026-05-04T14:49:17.001Z</time></trkpt><trkpt lat="42.962147594095384" lon="11.855849599284003"><ele>686.4</ele><time>2026-05-04T14:49:18.001Z</time></trkpt><trkpt lat="42.96206623857886" lon="11.85585369648001"><ele>685.6</ele><time>2026-05-04T14:49:19.001Z</time></trkpt><trkpt lat="42.961970129500784" lon="11.855783575863017"><ele>684.8000000000001</ele><time>2026-05-04T14:49:21.001Z</time></trkpt><trkpt lat="42.96192065419529" lon="11.855633097799755"><ele>684.0</ele><time>2026-05-04T14:49:23.001Z</time></trkpt><trkpt lat="42.961891068570964" lon="11.85552254206907"><ele>684.0</ele><time>2026-05-04T14:49:24.001Z</time></trkpt><trkpt lat="42.96184979233125" lon="11.855399008347872"><ele>684.0</ele><time>2026-05-04T14:49:25.001Z</time></trkpt><trkpt lat="42.961807100395156" lon="11.855301876828078"><ele>684.0</ele><time>2026-05-04T14:49:26.001Z</time></trkpt><trkpt lat="42.961760443500204" lon="11.855237599709355"><ele>684.0</ele><time>2026-05-04T14:49:27.001Z</time></trkpt><trkpt lat="42.96165843937212" lon="11.855228207749198"><ele>684.0</ele><time>2026-05-04T14:49:29.001Z</time></trkpt><trkpt lat="42.96158248212374" lon="11.855230951699394"><ele>684.0</ele><time>2026-05-04T14:49:30.001Z</time></trkpt><trkpt lat="42.961485656304106" lon="11.855225450479509"><ele>684.6</ele><time>2026-05-04T14:49:31.001Z</time></trkpt><trkpt lat="42.96139804996313" lon="11.855216650740473"><ele>685.2</ele><time>2026-05-04T14:49:32.001Z</time></trkpt><trkpt lat="42.96130379286652" lon="11.855204266251617"><ele>685.8000000000001</ele><time>2026-05-04T14:49:33.001Z</time></trkpt><trkpt lat="42.96119805064845" lon="11.855172617798756"><ele>686.4000000000001</ele><time>2026-05-04T14:49:34.001Z</time></trkpt><trkpt lat="42.96108038982992" lon="11.855120998383333"><ele>687.0</ele><time>2026-05-04T14:49:35.001Z</time></trkpt><trkpt lat="42.96095799580108" lon="11.855060310518395"><ele>687.75</ele><time>2026-05-04T14:49:36.001Z</time></trkpt><trkpt lat="42.96084220686247" lon="11.855014543023323"><ele>688.5</ele><time>2026-05-04T14:49:37.001Z</time></trkpt><trkpt lat="42.9607418918163" lon="11.854989424157976"><ele>689.25</ele><time>2026-05-04T14:49:38.001Z</time></trkpt><trkpt lat="42.96062868117619" lon="11.854977147377507"><ele>690.0</ele><time>2026-05-04T14:49:39.001Z</time></trkpt><trkpt lat="42.96049718986041" lon="11.854959775356456"><ele>690.0</ele><time>2026-05-04T14:49:40.001Z</time></trkpt><trkpt lat="42.96036064836137" lon="11.854933627512306"><ele>690.0</ele><time>2026-05-04T14:49:41.001Z</time></trkpt><trkpt lat="42.96023998933289" lon="11.854914052198577"><ele>690.0</ele><time>2026-05-04T14:49:42.001Z</time></trkpt><trkpt lat="42.960133867735856" lon="11.85490966124765"><ele>690.0</ele><time>2026-05-04T14:49:43.001Z</time></trkpt><trkpt lat="42.96003479565285" lon="11.854924061074913"><ele>691.0</ele><time>2026-05-04T14:49:44.001Z</time></trkpt><trkpt lat="42.95992855112905" lon="11.854942550094327"><ele>692.0</ele><time>2026-05-04T14:49:45.001Z</time></trkpt><trkpt lat="42.95982435408835" lon="11.854941782577203"><ele>693.0</ele><time>2026-05-04T14:49:46.001Z</time></trkpt><trkpt lat="42.959730516973735" lon="11.854917513351056"><ele>694.0</ele><time>2026-05-04T14:49:47.001Z</time></trkpt><trkpt lat="42.95962760709044" lon="11.85487406101557"><ele>695.0</ele><time>2026-05-04T14:49:48.001Z</time></trkpt><trkpt lat="42.95951296797319" lon="11.854826822075692"><ele>695.0</ele><time>2026-05-04T14:49:49.001Z</time></trkpt><trkpt lat="42.9593896157065" lon="11.85479150662852"><ele>695.0</ele><time>2026-05-04T14:49:50.001Z</time></trkpt><trkpt lat="42.95928570006975" lon="11.854770437288465"><ele>695.0</ele><time>2026-05-04T14:49:51.001Z</time></trkpt><trkpt lat="42.959176637914" lon="11.854749731474774"><ele>695.0</ele><time>2026-05-04T14:49:52.001Z</time></trkpt><trkpt lat="42.959065520405936" lon="11.85471125363643"><ele>695.0</ele><time>2026-05-04T14:49:53.001Z</time></trkpt><trkpt lat="42.95895730862284" lon="11.85465092670455"><ele>695.0</ele><time>2026-05-04T14:49:54.001Z</time></trkpt><trkpt lat="42.958862994706806" lon="11.85460142724017"><ele>695.0</ele><time>2026-05-04T14:49:55.001Z</time></trkpt><trkpt lat="42.95877193078755" lon="11.854575398762323"><ele>695.0</ele><time>2026-05-04T14:49:56.001Z</time></trkpt><trkpt lat="42.9586842809859" lon="11.854578475920237"><ele>695.0</ele><time>2026-05-04T14:49:57.001Z</time></trkpt><trkpt lat="42.95859730582819" lon="11.854606624723214"><ele>695.0</ele><time>2026-05-04T14:49:58.001Z</time></trkpt><trkpt lat="42.95851194608411" lon="11.854656633623206"><ele>695.0</ele><time>2026-05-04T14:49:59.001Z</time></trkpt><trkpt lat="42.958418980492425" lon="11.854722857521121"><ele>695.0</ele><time>2026-05-04T14:50:00Z</time></trkpt><trkpt lat="42.958311822431874" lon="11.854799488372901"><ele>695.0</ele><time>2026-05-04T14:50:01Z</time></trkpt><trkpt lat="42.95820325022918" lon="11.854873383877878"><ele>695.0</ele><time>2026-05-04T14:50:02Z</time></trkpt><trkpt lat="42.95809830398967" lon="11.854935891767811"><ele>695.2</ele><time>2026-05-04T14:50:03Z</time></trkpt><trkpt lat="42.95798868032949" lon="11.854980530566646"><ele>695.4</ele><time>2026-05-04T14:50:04Z</time></trkpt><trkpt lat="42.9578808268197" lon="11.854999370064457"><ele>695.5999999999999</ele><time>2026-05-04T14:50:05Z</time></trkpt><trkpt lat="42.95777868412691" lon="11.854997592201094"><ele>695.8</ele><time>2026-05-04T14:50:06Z</time></trkpt><trkpt lat="42.957703011506055" lon="11.854985849370058"><ele>696.0</ele><time>2026-05-04T14:50:07Z</time></trkpt><trkpt lat="42.957619761347665" lon="11.85497649594369"><ele>696.0</ele><time>2026-05-04T14:50:09Z</time></trkpt><trkpt lat="42.957556397116385" lon="11.855004419889948"><ele>696.0</ele><time>2026-05-04T14:50:25Z</time></trkpt><trkpt lat="42.957461926355066" lon="11.855060334069828"><ele>696.0</ele><time>2026-05-04T14:50:27Z</time></trkpt><trkpt lat="42.95737205241489" lon="11.85510573893005"><ele>696.0</ele><time>2026-05-04T14:50:28Z</time></trkpt><trkpt lat="42.957279265232565" lon="11.855145594044972"><ele>696.0</ele><time>2026-05-04T14:50:29Z</time></trkpt><trkpt lat="42.9571973504958" lon="11.855180779097608"><ele>696.0</ele><time>2026-05-04T14:50:30Z</time></trkpt><trkpt lat="42.95710420505449" lon="11.855220788090797"><ele>698.5999999999999</ele><time>2026-05-04T14:50:31Z</time></trkpt><trkpt lat="42.95700788428372" lon="11.855263660849348"><ele>701.2</ele><time>2026-05-04T14:50:32Z</time></trkpt><trkpt lat="42.956909668054124" lon="11.855309153838387"><ele>703.8</ele><time>2026-05-04T14:50:33Z</time></trkpt><trkpt lat="42.95680603627797" lon="11.855359079621733"><ele>706.4000000000001</ele><time>2026-05-04T14:50:34Z</time></trkpt><trkpt lat="42.956715477344666" lon="11.855387196886685"><ele>709.0</ele><time>2026-05-04T14:50:35Z</time></trkpt><trkpt lat="42.95663053980872" lon="11.855408746168612"><ele>709.0</ele><time>2026-05-04T14:50:36Z</time></trkpt><trkpt lat="42.95654270294553" lon="11.855427332775186"><ele>709.0</ele><time>2026-05-04T14:50:37Z</time></trkpt><trkpt lat="42.95644328916802" lon="11.855446408059592"><ele>709.0</ele><time>2026-05-04T14:50:38Z</time></trkpt><trkpt lat="42.95613627229887" lon="11.854700814535628"><ele>706.6</ele><time>2026-05-04T14:50:39Z</time></trkpt><trkpt lat="42.95602935738522" lon="11.854659886069431"><ele>704.2</ele><time>2026-05-04T14:50:40Z</time></trkpt><trkpt lat="42.95592707066818" lon="11.854621905115412"><ele>701.8000000000001</ele><time>2026-05-04T14:50:41Z</time></trkpt><trkpt lat="42.95582769305118" lon="11.854587987322917"><ele>699.4000000000001</ele><time>2026-05-04T14:50:42Z</time></trkpt><trkpt lat="42.95572440616758" lon="11.85455695466809"><ele>697.0</ele><time>2026-05-04T14:50:43Z</time></trkpt><trkpt lat="42.95562387351698" lon="11.854532187081979"><ele>697.0</ele><time>2026-05-04T14:50:44Z</time></trkpt><trkpt lat="42.955528373650175" lon="11.854504025886593"><ele>697.0</ele><time>2026-05-04T14:50:45Z</time></trkpt><trkpt lat="42.955429420271386" lon="11.854473816251671"><ele>697.0</ele><time>2026-05-04T14:50:46Z</time></trkpt><trkpt lat="42.955331920907575" lon="11.854441916882235"><ele>697.0</ele><time>2026-05-04T14:50:47Z</time></trkpt><trkpt lat="42.95523518338407" lon="11.8544171606712"><ele>697.0</ele><time>2026-05-04T14:50:48Z</time></trkpt><trkpt lat="42.95513982171462" lon="11.854405458634542"><ele>696.6</ele><time>2026-05-04T14:50:49Z</time></trkpt><trkpt lat="42.95502852865597" lon="11.854400224209545"><ele>696.2</ele><time>2026-05-04T14:50:50Z</time></trkpt><trkpt lat="42.9549161768453" lon="11.854401221134111"><ele>695.8</ele><time>2026-05-04T14:50:51Z</time></trkpt><trkpt lat="42.954810114449536" lon="11.854406706892172"><ele>695.4</ele><time>2026-05-04T14:50:52Z</time></trkpt><trkpt lat="42.954691727795456" lon="11.854410549429018"><ele>695.0</ele><time>2026-05-04T14:50:53Z</time></trkpt><trkpt lat="42.954575290725984" lon="11.85440720166795"><ele>695.0</ele><time>2026-05-04T14:50:54Z</time></trkpt><trkpt lat="42.95446157168677" lon="11.854397573803471"><ele>695.0</ele><time>2026-05-04T14:50:55Z</time></trkpt><trkpt lat="42.95435141590684" lon="11.854387376988138"><ele>695.0</ele><time>2026-05-04T14:50:56Z</time></trkpt><trkpt lat="42.954246147032855" lon="11.854380139548855"><ele>695.0</ele><time>2026-05-04T14:50:57Z</time></trkpt><trkpt lat="42.95415601674311" lon="11.854371987533991"><ele>695.0</ele><time>2026-05-04T14:50:58Z</time></trkpt><trkpt lat="42.954062628239136" lon="11.854360562923253"><ele>695.0</ele><time>2026-05-04T14:50:59Z</time></trkpt><trkpt lat="42.953954376582956" lon="11.85434544425046"><ele>695.0</ele><time>2026-05-04T14:51:00.001Z</time></trkpt><trkpt lat="42.95384420862707" lon="11.854331528406632"><ele>695.0</ele><time>2026-05-04T14:51:01.001Z</time></trkpt><trkpt lat="42.95372456611394" lon="11.854318193933636"><ele>695.0</ele><time>2026-05-04T14:51:02.001Z</time></trkpt><trkpt lat="42.95360364773679" lon="11.854296426840909"><ele>689.25</ele><time>2026-05-04T14:51:03.001Z</time></trkpt><trkpt lat="42.95348859192757" lon="11.854274153761096"><ele>683.5</ele><time>2026-05-04T14:51:04.001Z</time></trkpt><trkpt lat="42.953369923907566" lon="11.854240373202629"><ele>677.75</ele><time>2026-05-04T14:51:05.001Z</time></trkpt><trkpt lat="42.95325053590984" lon="11.854214003821856"><ele>672.0</ele><time>2026-05-04T14:51:06.001Z</time></trkpt><trkpt lat="42.95312665147886" lon="11.854179558032527"><ele>670.75</ele><time>2026-05-04T14:51:07.001Z</time></trkpt><trkpt lat="42.95300613593088" lon="11.854151825856905"><ele>669.5</ele><time>2026-05-04T14:51:08.001Z</time></trkpt><trkpt lat="42.95289183446578" lon="11.854133410127629"><ele>668.25</ele><time>2026-05-04T14:51:09.001Z</time></trkpt><trkpt lat="42.9527857236273" lon="11.854120591119065"><ele>667.0</ele><time>2026-05-04T14:51:10.001Z</time></trkpt><trkpt lat="42.95267871019621" lon="11.85411935507717"><ele>667.0</ele><time>2026-05-04T14:51:11.001Z</time></trkpt><trkpt lat="42.95258626318264" lon="11.854111897686424"><ele>667.0</ele><time>2026-05-04T14:51:12.001Z</time></trkpt><trkpt lat="42.95250100287782" lon="11.854111142801665"><ele>667.0</ele><time>2026-05-04T14:51:13.001Z</time></trkpt><trkpt lat="42.95241874521246" lon="11.854126066027726"><ele>667.0</ele><time>2026-05-04T14:51:14.001Z</time></trkpt><trkpt lat="42.952336205303226" lon="11.854156325487267"><ele>667.0</ele><time>2026-05-04T14:51:15.001Z</time></trkpt><trkpt lat="42.95225486026601" lon="11.854205178897274"><ele>667.0</ele><time>2026-05-04T14:51:16.001Z</time></trkpt><trkpt lat="42.95216567109118" lon="11.854268931925539"><ele>667.8</ele><time>2026-05-04T14:51:17.001Z</time></trkpt><trkpt lat="42.95207483883984" lon="11.854329408900222"><ele>668.6</ele><time>2026-05-04T14:51:18.001Z</time></trkpt><trkpt lat="42.95198219883587" lon="11.854407611371292"><ele>669.4</ele><time>2026-05-04T14:51:19.001Z</time></trkpt><trkpt lat="42.951888461819166" lon="11.854485048195754"><ele>670.1999999999999</ele><time>2026-05-04T14:51:20.001Z</time></trkpt><trkpt lat="42.95178989491812" lon="11.854548712260215"><ele>671.0</ele><time>2026-05-04T14:51:21.001Z</time></trkpt><trkpt lat="42.951702369532335" lon="11.854603234856132"><ele>671.0</ele><time>2026-05-04T14:51:22.001Z</time></trkpt><trkpt lat="42.95161951193883" lon="11.85466402854065"><ele>671.0</ele><time>2026-05-04T14:51:23.001Z</time></trkpt><trkpt lat="42.95154478162996" lon="11.85470864099525"><ele>671.0</ele><time>2026-05-04T14:51:24.001Z</time></trkpt><trkpt lat="42.95146861554288" lon="11.854727777527108"><ele>671.0</ele><time>2026-05-04T14:51:25.001Z</time></trkpt><trkpt lat="42.95138067316897" lon="11.854729359430205"><ele>671.0</ele><time>2026-05-04T14:51:26.001Z</time></trkpt><trkpt lat="42.95126234794227" lon="11.854730274507926"><ele>671.0</ele><time>2026-05-04T14:51:27.001Z</time></trkpt><trkpt lat="42.95113997170781" lon="11.854731216711887"><ele>671.0</ele><time>2026-05-04T14:51:28.001Z</time></trkpt><trkpt lat="42.95105099263338" lon="11.85473388109478"><ele>671.0</ele><time>2026-05-04T14:51:29.001Z</time></trkpt><trkpt lat="42.95098248142353" lon="11.854748398141117"><ele>671.0</ele><time>2026-05-04T14:51:30.001Z</time></trkpt><trkpt lat="42.95091532116789" lon="11.85478574795343"><ele>671.0</ele><time>2026-05-04T14:51:31.001Z</time></trkpt><trkpt lat="42.950843273321546" lon="11.854842472780183"><ele>671.0</ele><time>2026-05-04T14:51:32.001Z</time></trkpt><trkpt lat="42.95076422261867" lon="11.854901941171274"><ele>669.5999999999999</ele><time>2026-05-04T14:51:33Z</time></trkpt><trkpt lat="42.95067358005931" lon="11.85495952615431"><ele>668.2</ele><time>2026-05-04T14:51:34Z</time></trkpt><trkpt lat="42.95057526518017" lon="11.855003971893279"><ele>666.8</ele><time>2026-05-04T14:51:35Z</time></trkpt><trkpt lat="42.950471498638386" lon="11.855038916074436"><ele>665.4000000000001</ele><time>2026-05-04T14:51:36Z</time></trkpt><trkpt lat="42.950357452044976" lon="11.855065698082074"><ele>664.0</ele><time>2026-05-04T14:51:37Z</time></trkpt><trkpt lat="42.950247727784806" lon="11.85509322462645"><ele>667.5</ele><time>2026-05-04T14:51:38Z</time></trkpt><trkpt lat="42.95013872258731" lon="11.855125768786527"><ele>671.0</ele><time>2026-05-04T14:51:39Z</time></trkpt><trkpt lat="42.950029071783796" lon="11.855171340009651"><ele>674.5</ele><time>2026-05-04T14:51:40Z</time></trkpt><trkpt lat="42.94990883308379" lon="11.855226041161957"><ele>678.0</ele><time>2026-05-04T14:51:41Z</time></trkpt><trkpt lat="42.94979876257673" lon="11.855277429667854"><ele>678.0</ele><time>2026-05-04T14:51:42Z</time></trkpt><trkpt lat="42.94969160084186" lon="11.855317115074763"><ele>678.0</ele><time>2026-05-04T14:51:43Z</time></trkpt><trkpt lat="42.94958228831306" lon="11.855342771899075"><ele>678.0</ele><time>2026-05-04T14:51:44Z</time></trkpt><trkpt lat="42.949459935932886" lon="11.855354962457012"><ele>678.0</ele><time>2026-05-04T14:51:45Z</time></trkpt><trkpt lat="42.94932915777928" lon="11.85536760104423"><ele>676.75</ele><time>2026-05-04T14:51:46Z</time></trkpt><trkpt lat="42.94919121343017" lon="11.855384958079947"><ele>675.5</ele><time>2026-05-04T14:51:47Z</time></trkpt><trkpt lat="42.949073275264226" lon="11.855409274398664"><ele>674.25</ele><time>2026-05-04T14:51:48Z</time></trkpt><trkpt lat="42.94896766630894" lon="11.85543528290736"><ele>673.0</ele><time>2026-05-04T14:51:49Z</time></trkpt><trkpt lat="42.948868450718216" lon="11.855445027018863"><ele>673.0</ele><time>2026-05-04T14:51:50Z</time></trkpt><trkpt lat="42.948780428791686" lon="11.85543136919891"><ele>673.0</ele><time>2026-05-04T14:51:51Z</time></trkpt><trkpt lat="42.9486851728463" lon="11.85539590114418"><ele>673.0</ele><time>2026-05-04T14:51:52Z</time></trkpt><trkpt lat="42.9485790408979" lon="11.855350887622693"><ele>673.0</ele><time>2026-05-04T14:51:53Z</time></trkpt><trkpt lat="42.94847496139225" lon="11.85530764320788"><ele>673.0</ele><time>2026-05-04T14:51:54Z</time></trkpt><trkpt lat="42.9483880255698" lon="11.855276206539347"><ele>672.1666666666667</ele><time>2026-05-04T14:51:55Z</time></trkpt><trkpt lat="42.94831110653676" lon="11.855251264611157"><ele>671.3333333333334</ele><time>2026-05-04T14:51:56Z</time></trkpt><trkpt lat="42.94823231773973" lon="11.85523151414341"><ele>670.5</ele><time>2026-05-04T14:51:57Z</time></trkpt><trkpt lat="42.9481357593473" lon="11.855199186015028"><ele>669.6666666666666</ele><time>2026-05-04T14:51:58Z</time></trkpt><trkpt lat="42.94804793478884" lon="11.855163765565251"><ele>668.8333333333333</ele><time>2026-05-04T14:51:59Z</time></trkpt><trkpt lat="42.947963488698065" lon="11.855108970239735"><ele>668.0</ele><time>2026-05-04T14:52:00Z</time></trkpt><trkpt lat="42.947884761925444" lon="11.855057618994486"><ele>665.5999999999999</ele><time>2026-05-04T14:52:01Z</time></trkpt><trkpt lat="42.94779784058618" lon="11.854993003316096"><ele>663.1999999999999</ele><time>2026-05-04T14:52:02Z</time></trkpt><trkpt lat="42.94772432521515" lon="11.854935465776036"><ele>660.8</ele><time>2026-05-04T14:52:03Z</time></trkpt><trkpt lat="42.947652966940254" lon="11.854881264469446"><ele>658.4</ele><time>2026-05-04T14:52:04Z</time></trkpt><trkpt lat="42.947581513774985" lon="11.85478049708591"><ele>656.0</ele><time>2026-05-04T14:52:05Z</time></trkpt><trkpt lat="42.94747534768088" lon="11.854698121424647"><ele>656.0</ele><time>2026-05-04T14:52:06Z</time></trkpt><trkpt lat="42.94734026770245" lon="11.85461747424667"><ele>656.0</ele><time>2026-05-04T14:52:07Z</time></trkpt><trkpt lat="42.947204426452544" lon="11.85450528623737"><ele>656.0</ele><time>2026-05-04T14:52:08Z</time></trkpt><trkpt lat="42.94710495221375" lon="11.854381314649357"><ele>656.0</ele><time>2026-05-04T14:52:09Z</time></trkpt><trkpt lat="42.947015401924794" lon="11.854291019469901"><ele>653.8333333333333</ele><time>2026-05-04T14:52:10Z</time></trkpt><trkpt lat="42.94693956954989" lon="11.854218547482704"><ele>651.6666666666666</ele><time>2026-05-04T14:52:11Z</time></trkpt><trkpt lat="42.94687177680455" lon="11.854160966963635"><ele>649.5</ele><time>2026-05-04T14:52:12Z</time></trkpt><trkpt lat="42.946800671985834" lon="11.854137740781713"><ele>647.3333333333334</ele><time>2026-05-04T14:52:13Z</time></trkpt><trkpt lat="42.94672814605973" lon="11.854105691312554"><ele>645.1666666666667</ele><time>2026-05-04T14:52:23Z</time></trkpt><trkpt lat="42.946802373295135" lon="11.85411501428438"><ele>643.0</ele><time>2026-05-04T14:52:57.001Z</time></trkpt><trkpt lat="42.9469195456688" lon="11.854185947898298"><ele>643.0</ele><time>2026-05-04T14:52:59.001Z</time></trkpt><trkpt lat="42.94696840940002" lon="11.85407123432674"><ele>643.0</ele><time>2026-05-04T14:53:00.001Z</time></trkpt><trkpt lat="42.947062823831594" lon="11.854386289211599"><ele>643.0</ele><time>2026-05-04T14:53:01.001Z</time></trkpt><trkpt lat="42.94712649427969" lon="11.854442788940368"><ele>643.0</ele><time>2026-05-04T14:53:02.001Z</time></trkpt><trkpt lat="42.94719704578123" lon="11.854496877714816"><ele>644.8333333333334</ele><time>2026-05-04T14:53:03.001Z</time></trkpt><trkpt lat="42.94726802977888" lon="11.854552673569557"><ele>646.6666666666667</ele><time>2026-05-04T14:53:04.001Z</time></trkpt><trkpt lat="42.94733211736567" lon="11.854597541799881"><ele>648.5</ele><time>2026-05-04T14:53:05.001Z</time></trkpt><trkpt lat="42.947406434950395" lon="11.854666068826294"><ele>650.3333333333334</ele><time>2026-05-04T14:53:06.001Z</time></trkpt><trkpt lat="42.947478802223266" lon="11.85472228903646"><ele>652.1666666666666</ele><time>2026-05-04T14:53:07.001Z</time></trkpt><trkpt lat="42.94754411592183" lon="11.85477370950078"><ele>654.0</ele><time>2026-05-04T14:53:08.001Z</time></trkpt><trkpt lat="42.9476482098736" lon="11.854831498952588"><ele>654.0</ele><time>2026-05-04T14:53:10.001Z</time></trkpt><trkpt lat="42.94775568389286" lon="11.854841088332064"><ele>654.0</ele><time>2026-05-04T14:53:12.001Z</time></trkpt><trkpt lat="42.9478204815543" lon="11.854830210873429"><ele>654.0</ele><time>2026-05-04T14:53:14.001Z</time></trkpt><trkpt lat="42.947877966346724" lon="11.854768242188598"><ele>654.0</ele><time>2026-05-04T14:53:16.001Z</time></trkpt><trkpt lat="42.947887952737325" lon="11.854630811061535"><ele>654.0</ele><time>2026-05-04T14:53:18.001Z</time></trkpt><trkpt lat="42.94786013786792" lon="11.854546113735188"><ele>654.0</ele><time>2026-05-04T14:53:19.001Z</time></trkpt><trkpt lat="42.947829900015144" lon="11.854459515232033"><ele>654.0</ele><time>2026-05-04T14:53:20.001Z</time></trkpt><trkpt lat="42.94778862688924" lon="11.854352906149334"><ele>654.0</ele><time>2026-05-04T14:53:21.001Z</time></trkpt><trkpt lat="42.947733835793514" lon="11.85423184930103"><ele>654.0</ele><time>2026-05-04T14:53:22.001Z</time></trkpt><trkpt lat="42.94766495983633" lon="11.854113963696348"><ele>654.0</ele><time>2026-05-04T14:53:23.001Z</time></trkpt><trkpt lat="42.947600205923074" lon="11.853987390625061"><ele>654.0</ele><time>2026-05-04T14:53:24.001Z</time></trkpt><trkpt lat="42.94752763518619" lon="11.853854363388269"><ele>651.25</ele><time>2026-05-04T14:53:25.001Z</time></trkpt><trkpt lat="42.947455514188704" lon="11.853718109168263"><ele>648.5</ele><time>2026-05-04T14:53:26.001Z</time></trkpt><trkpt lat="42.947378772233904" lon="11.853602258167461"><ele>645.75</ele><time>2026-05-04T14:53:27.001Z</time></trkpt><trkpt lat="42.94732269306957" lon="11.853465678111439"><ele>643.0</ele><time>2026-05-04T14:53:28.001Z</time></trkpt><trkpt lat="42.94725744483135" lon="11.853340493009336"><ele>642.4</ele><time>2026-05-04T14:53:29.001Z</time></trkpt><trkpt lat="42.94719665704858" lon="11.853223400442406"><ele>641.8</ele><time>2026-05-04T14:53:30.001Z</time></trkpt><trkpt lat="42.947139807883225" lon="11.853113894479565"><ele>641.2</ele><time>2026-05-04T14:53:31.001Z</time></trkpt><trkpt lat="42.94706844620032" lon="11.853017071243434"><ele>640.6</ele><time>2026-05-04T14:53:32.001Z</time></trkpt><trkpt lat="42.94701599841347" lon="11.852915812094059"><ele>640.0</ele><time>2026-05-04T14:53:33.001Z</time></trkpt><trkpt lat="42.946990184147886" lon="11.8528110264675"><ele>640.0</ele><time>2026-05-04T14:53:34.001Z</time></trkpt><trkpt lat="42.94696038364903" lon="11.85273264776849"><ele>640.0</ele><time>2026-05-04T14:53:35.001Z</time></trkpt><trkpt lat="42.94698001664365" lon="11.852598470322683"><ele>640.0</ele><time>2026-05-04T14:53:37.001Z</time></trkpt><trkpt lat="42.947025439033474" lon="11.85250068606453"><ele>640.0</ele><time>2026-05-04T14:53:39.001Z</time></trkpt><trkpt lat="42.94709939533894" lon="11.852387719762058"><ele>640.0</ele><time>2026-05-04T14:53:41.001Z</time></trkpt><trkpt lat="42.94714835188657" lon="11.852322316611257"><ele>640.0</ele><time>2026-05-04T14:53:42.001Z</time></trkpt><trkpt lat="42.947207764942235" lon="11.852229938153465"><ele>639.5</ele><time>2026-05-04T14:53:43.001Z</time></trkpt><trkpt lat="42.94729248273438" lon="11.852150002179114"><ele>639.0</ele><time>2026-05-04T14:53:44.001Z</time></trkpt><trkpt lat="42.947360430011024" lon="11.85206970765873"><ele>638.5</ele><time>2026-05-04T14:53:45.001Z</time></trkpt><trkpt lat="42.94741807193198" lon="11.851970380680083"><ele>638.0</ele><time>2026-05-04T14:53:46.001Z</time></trkpt><trkpt lat="42.94747491382856" lon="11.851897696427239"><ele>637.5</ele><time>2026-05-04T14:53:47.001Z</time></trkpt><trkpt lat="42.94752283575113" lon="11.851823526991245"><ele>637.0</ele><time>2026-05-04T14:53:48.001Z</time></trkpt><trkpt lat="42.94760284554802" lon="11.851734582797247"><ele>634.75</ele><time>2026-05-04T14:53:50.001Z</time></trkpt><trkpt lat="42.94756166543321" lon="11.851562586004446"><ele>632.5</ele><time>2026-05-04T14:53:54.001Z</time></trkpt><trkpt lat="42.947478527232" lon="11.851477716762986"><ele>630.25</ele><time>2026-05-04T14:53:55.001Z</time></trkpt><trkpt lat="42.94739121244002" lon="11.851368102577236"><ele>628.0</ele><time>2026-05-04T14:53:56.001Z</time></trkpt><trkpt lat="42.94732022340002" lon="11.851209261114949"><ele>628.0</ele><time>2026-05-04T14:53:57.001Z</time></trkpt><trkpt lat="42.94721745214963" lon="11.851055433541374"><ele>628.0</ele><time>2026-05-04T14:53:58.001Z</time></trkpt><trkpt lat="42.9471150159789" lon="11.850875781830377"><ele>628.0</ele><time>2026-05-04T14:53:59.001Z</time></trkpt><trkpt lat="42.94701105443315" lon="11.850674230558075"><ele>628.25</ele><time>2026-05-04T14:54:00.001Z</time></trkpt><trkpt lat="42.94691376252879" lon="11.85049062722835"><ele>628.5</ele><time>2026-05-04T14:54:01.001Z</time></trkpt><trkpt lat="42.946819995680634" lon="11.85034217200449"><ele>628.75</ele><time>2026-05-04T14:54:02.001Z</time></trkpt><trkpt lat="42.946720874788596" lon="11.850239245694757"><ele>629.0</ele><time>2026-05-04T14:54:03.001Z</time></trkpt><trkpt lat="42.946600815380165" lon="11.850218331501635"><ele>629.0</ele><time>2026-05-04T14:54:04.001Z</time></trkpt><trkpt lat="42.946469020488045" lon="11.850277132376313"><ele>629.0</ele><time>2026-05-04T14:54:05.001Z</time></trkpt><trkpt lat="42.94635884096725" lon="11.85040000534388"><ele>629.0</ele><time>2026-05-04T14:54:06.001Z</time></trkpt><trkpt lat="42.94625302790947" lon="11.85055533397694"><ele>629.0</ele><time>2026-05-04T14:54:07.001Z</time></trkpt><trkpt lat="42.94610892039685" lon="11.850635986715806"><ele>629.0</ele><time>2026-05-04T14:54:08.001Z</time></trkpt><trkpt lat="42.945960099783505" lon="11.850681065317922"><ele>629.0</ele><time>2026-05-04T14:54:09.001Z</time></trkpt><trkpt lat="42.94582583903132" lon="11.85062024163564"><ele>629.0</ele><time>2026-05-04T14:54:10.001Z</time></trkpt><trkpt lat="42.945708403165426" lon="11.850507297762697"><ele>629.0</ele><time>2026-05-04T14:54:11.001Z</time></trkpt><trkpt lat="42.94560009629345" lon="11.850344773989807"><ele>628.6666666666666</ele><time>2026-05-04T14:54:12.001Z</time></trkpt><trkpt lat="42.945459273915844" lon="11.85014746964973"><ele>628.3333333333334</ele><time>2026-05-04T14:54:13.001Z</time></trkpt><trkpt lat="42.945337460174635" lon="11.849979449531782"><ele>628.0</ele><time>2026-05-04T14:54:14.001Z</time></trkpt><trkpt lat="42.94519699898644" lon="11.849772969579865"><ele>628.0</ele><time>2026-05-04T14:54:15.001Z</time></trkpt><trkpt lat="42.94505927850855" lon="11.849551504050394"><ele>628.0</ele><time>2026-05-04T14:54:16.001Z</time></trkpt><trkpt lat="42.94496387204384" lon="11.849315612928217"><ele>628.0</ele><time>2026-05-04T14:54:17.001Z</time></trkpt><trkpt lat="42.94486639472451" lon="11.849127095522991"><ele>628.6666666666667</ele><time>2026-05-04T14:54:18.001Z</time></trkpt><trkpt lat="42.9447708173637" lon="11.848975424189344"><ele>629.3333333333334</ele><time>2026-05-04T14:54:19.001Z</time></trkpt><trkpt lat="42.944637273374454" lon="11.848881656516713"><ele>630.0</ele><time>2026-05-04T14:54:20.001Z</time></trkpt><trkpt lat="42.94447264546967" lon="11.848864700768338"><ele>630.0</ele><time>2026-05-04T14:54:21.001Z</time></trkpt><trkpt lat="42.944319371322564" lon="11.8489151931871"><ele>630.0</ele><time>2026-05-04T14:54:22.001Z</time></trkpt><trkpt lat="42.94420279105545" lon="11.8490408664728"><ele>630.0</ele><time>2026-05-04T14:54:23.001Z</time></trkpt><trkpt lat="42.9441130081495" lon="11.849240038140874"><ele>635.0</ele><time>2026-05-04T14:54:24.001Z</time></trkpt><trkpt lat="42.944027286676025" lon="11.849475448839025"><ele>640.0</ele><time>2026-05-04T14:54:25.001Z</time></trkpt><trkpt lat="42.94388388766208" lon="11.849681816474902"><ele>645.0</ele><time>2026-05-04T14:54:26.001Z</time></trkpt><trkpt lat="42.943733928875545" lon="11.849812440817356"><ele>645.0</ele><time>2026-05-04T14:54:27.001Z</time></trkpt><trkpt lat="42.94356598059887" lon="11.849863935768123"><ele>645.0</ele><time>2026-05-04T14:54:28.001Z</time></trkpt><trkpt lat="42.94341028114406" lon="11.849839431955933"><ele>645.0</ele><time>2026-05-04T14:54:29.001Z</time></trkpt><trkpt lat="42.943259078972524" lon="11.849747248930417"><ele>644.0</ele><time>2026-05-04T14:54:30.001Z</time></trkpt><trkpt lat="42.94309189713685" lon="11.849640306055228"><ele>643.0</ele><time>2026-05-04T14:54:31.001Z</time></trkpt><trkpt lat="42.94292025736464" lon="11.849529637996236"><ele>642.0</ele><time>2026-05-04T14:54:32.001Z</time></trkpt><trkpt lat="42.94273378827931" lon="11.849459733548716"><ele>643.0</ele><time>2026-05-04T14:54:33.001Z</time></trkpt><trkpt lat="42.94254244879756" lon="11.849442858670741"><ele>644.0</ele><time>2026-05-04T14:54:34.001Z</time></trkpt><trkpt lat="42.94233921159147" lon="11.849502705007525"><ele>645.0</ele><time>2026-05-04T14:54:35.001Z</time></trkpt><trkpt lat="42.94213322486033" lon="11.849612234339112"><ele>645.0</ele><time>2026-05-04T14:54:36.001Z</time></trkpt><trkpt lat="42.94191864080902" lon="11.84973352638877"><ele>645.0</ele><time>2026-05-04T14:54:37.001Z</time></trkpt><trkpt lat="42.94171298099176" lon="11.849843964142087"><ele>645.3333333333334</ele><time>2026-05-04T14:54:38.001Z</time></trkpt><trkpt lat="42.9415324756022" lon="11.849928628840924"><ele>645.6666666666667</ele><time>2026-05-04T14:54:39.001Z</time></trkpt><trkpt lat="42.941376431787326" lon="11.849976224732545"><ele>646.0</ele><time>2026-05-04T14:54:40.001Z</time></trkpt><trkpt lat="42.941224891639955" lon="11.849958753586906"><ele>646.0</ele><time>2026-05-04T14:54:41.001Z</time></trkpt><trkpt lat="42.94107632237138" lon="11.849853176431735"><ele>646.0</ele><time>2026-05-04T14:54:42.001Z</time></trkpt><trkpt lat="42.94091671795533" lon="11.849744435897641"><ele>646.0</ele><time>2026-05-04T14:54:43.001Z</time></trkpt><trkpt lat="42.94072839760346" lon="11.84971136100541"><ele>647.3333333333334</ele><time>2026-05-04T14:54:44.001Z</time></trkpt><trkpt lat="42.940525656601054" lon="11.849712633543136"><ele>648.6666666666666</ele><time>2026-05-04T14:54:45.001Z</time></trkpt><trkpt lat="42.94034376086695" lon="11.849722412907273"><ele>650.0</ele><time>2026-05-04T14:54:46.001Z</time></trkpt><trkpt lat="42.94017278874975" lon="11.849651987986103"><ele>650.0</ele><time>2026-05-04T14:54:47.001Z</time></trkpt><trkpt lat="42.94005008266009" lon="11.849500960380164"><ele>650.0</ele><time>2026-05-04T14:54:48.001Z</time></trkpt><trkpt lat="42.93997054414678" lon="11.849327537012458"><ele>650.0</ele><time>2026-05-04T14:54:49.001Z</time></trkpt><trkpt lat="42.93993539507905" lon="11.849218475090884"><ele>650.0</ele><time>2026-05-04T14:54:50.001Z</time></trkpt><trkpt lat="42.93990661980477" lon="11.849137931176113"><ele>650.0</ele><time>2026-05-04T14:54:51.001Z</time></trkpt><trkpt lat="42.939780781767126" lon="11.849173603707126"><ele>650.0</ele><time>2026-05-04T14:54:53.001Z</time></trkpt><trkpt lat="42.939711379335336" lon="11.849196244507937"><ele>650.0</ele><time>2026-05-04T14:54:54.001Z</time></trkpt><trkpt lat="42.93961022251956" lon="11.849201324194558"><ele>650.0</ele><time>2026-05-04T14:54:55.001Z</time></trkpt><trkpt lat="42.93948110648076" lon="11.84918436247885"><ele>650.0</ele><time>2026-05-04T14:54:56.001Z</time></trkpt><trkpt lat="42.939334256002184" lon="11.849138219580912"><ele>653.3333333333333</ele><time>2026-05-04T14:54:57.001Z</time></trkpt><trkpt lat="42.939149343325056" lon="11.849102237804475"><ele>656.6666666666666</ele><time>2026-05-04T14:54:58.001Z</time></trkpt><trkpt lat="42.93895398485797" lon="11.849071464873067"><ele>660.0</ele><time>2026-05-04T14:54:59.001Z</time></trkpt><trkpt lat="42.938760908944836" lon="11.848980071698383"><ele>660.0</ele><time>2026-05-04T14:55:00.001Z</time></trkpt><trkpt lat="42.938542102089976" lon="11.848918014444072"><ele>660.0</ele><time>2026-05-04T14:55:01.001Z</time></trkpt><trkpt lat="42.93834513093382" lon="11.848871860343651"><ele>660.0</ele><time>2026-05-04T14:55:02.001Z</time></trkpt><trkpt lat="42.9381955351057" lon="11.84884138801025"><ele>661.5</ele><time>2026-05-04T14:55:03.001Z</time></trkpt><trkpt lat="42.938073261998724" lon="11.848826129586124"><ele>663.0</ele><time>2026-05-04T14:55:04.001Z</time></trkpt><trkpt lat="42.937961248204815" lon="11.848837547752941"><ele>664.5</ele><time>2026-05-04T14:55:05.001Z</time></trkpt><trkpt lat="42.937854194898826" lon="11.848845230386237"><ele>666.0</ele><time>2026-05-04T14:55:06.001Z</time></trkpt><trkpt lat="42.93774410688972" lon="11.848878329156086"><ele>666.0</ele><time>2026-05-04T14:55:07.001Z</time></trkpt><trkpt lat="42.93763561073705" lon="11.848939128500795"><ele>666.0</ele><time>2026-05-04T14:55:08.001Z</time></trkpt><trkpt lat="42.93754856957749" lon="11.84899979857044"><ele>666.0</ele><time>2026-05-04T14:55:09.001Z</time></trkpt><trkpt lat="42.93749424141788" lon="11.849073614004906"><ele>666.0</ele><time>2026-05-04T14:55:10.001Z</time></trkpt><trkpt lat="42.937471640288045" lon="11.849164897113942"><ele>666.0</ele><time>2026-05-04T14:55:11.001Z</time></trkpt><trkpt lat="42.937478619589406" lon="11.84925746773796"><ele>666.0</ele><time>2026-05-04T14:55:12.001Z</time></trkpt><trkpt lat="42.93751367378798" lon="11.84934289026614"><ele>669.1999999999999</ele><time>2026-05-04T14:55:13.001Z</time></trkpt><trkpt lat="42.93756272717006" lon="11.849414199003936"><ele>672.4</ele><time>2026-05-04T14:55:14.001Z</time></trkpt><trkpt lat="42.937669843059886" lon="11.849434278335492"><ele>675.6</ele><time>2026-05-04T14:55:15.001Z</time></trkpt><trkpt lat="42.93779812790144" lon="11.849476925332965"><ele>678.8</ele><time>2026-05-04T14:55:16.001Z</time></trkpt><trkpt lat="42.937910483083186" lon="11.84953504435924"><ele>682.0</ele><time>2026-05-04T14:55:17.001Z</time></trkpt><trkpt lat="42.937988386382216" lon="11.849619191895878"><ele>682.0</ele><time>2026-05-04T14:55:18.001Z</time></trkpt><trkpt lat="42.9380387029591" lon="11.84970652496464"><ele>682.0</ele><time>2026-05-04T14:55:19.001Z</time></trkpt><trkpt lat="42.93804792342466" lon="11.849816501659099"><ele>682.0</ele><time>2026-05-04T14:55:20.001Z</time></trkpt><trkpt lat="42.93802578473513" lon="11.849960080892497"><ele>682.0</ele><time>2026-05-04T14:55:22.001Z</time></trkpt><trkpt lat="42.93796773534822" lon="11.850001912841751"><ele>682.0</ele><time>2026-05-04T14:55:23.001Z</time></trkpt><trkpt lat="42.93784543619153" lon="11.84996784977503"><ele>682.0</ele><time>2026-05-04T14:55:25.001Z</time></trkpt><trkpt lat="42.937812980446274" lon="11.849870509119189"><ele>682.0</ele><time>2026-05-04T14:55:26.001Z</time></trkpt><trkpt lat="42.93775812506337" lon="11.84976174050715"><ele>682.0</ele><time>2026-05-04T14:55:27.001Z</time></trkpt><trkpt lat="42.93767468547708" lon="11.849665876300266"><ele>682.0</ele><time>2026-05-04T14:55:28.001Z</time></trkpt><trkpt lat="42.93757581486165" lon="11.849642900914453"><ele>682.0</ele><time>2026-05-04T14:55:29.001Z</time></trkpt><trkpt lat="42.93747971251401" lon="11.849631813193087"><ele>684.5</ele><time>2026-05-04T14:55:30.001Z</time></trkpt><trkpt lat="42.937376693786675" lon="11.849652133825055"><ele>687.0</ele><time>2026-05-04T14:55:31.001Z</time></trkpt><trkpt lat="42.937241822595524" lon="11.849703938103632"><ele>689.5</ele><time>2026-05-04T14:55:32.001Z</time></trkpt><trkpt lat="42.93709010623774" lon="11.849774652209227"><ele>692.0</ele><time>2026-05-04T14:55:33.001Z</time></trkpt><trkpt lat="42.93692341639625" lon="11.84987427330378"><ele>692.0</ele><time>2026-05-04T14:55:34.001Z</time></trkpt><trkpt lat="42.936749499320236" lon="11.849969187028767"><ele>692.0</ele><time>2026-05-04T14:55:35.001Z</time></trkpt><trkpt lat="42.93658429756515" lon="11.850050947554841"><ele>692.0</ele><time>2026-05-04T14:55:36.001Z</time></trkpt><trkpt lat="42.936432089368274" lon="11.85012513763501"><ele>692.5</ele><time>2026-05-04T14:55:37.001Z</time></trkpt><trkpt lat="42.936309150047784" lon="11.850172470809351"><ele>693.0</ele><time>2026-05-04T14:55:38.001Z</time></trkpt><trkpt lat="42.936206586752945" lon="11.850157337181637"><ele>693.5</ele><time>2026-05-04T14:55:39.001Z</time></trkpt><trkpt lat="42.936092016187196" lon="11.850130431613797"><ele>694.0</ele><time>2026-05-04T14:55:40.001Z</time></trkpt><trkpt lat="42.93597201809014" lon="11.850070510354932"><ele>695.8000000000001</ele><time>2026-05-04T14:55:41.001Z</time></trkpt><trkpt lat="42.935858879996694" lon="11.850007191809565"><ele>697.6</ele><time>2026-05-04T14:55:42.001Z</time></trkpt><trkpt lat="42.935746094096885" lon="11.849954703228645"><ele>699.4</ele><time>2026-05-04T14:55:43.001Z</time></trkpt><trkpt lat="42.93566416493084" lon="11.849943339690567"><ele>701.2</ele><time>2026-05-04T14:55:44.001Z</time></trkpt><trkpt lat="42.9355967687636" lon="11.849958379181327"><ele>703.0</ele><time>2026-05-04T14:55:45.001Z</time></trkpt><trkpt lat="42.93551903324369" lon="11.850009721809695"><ele>703.0</ele><time>2026-05-04T14:55:46.001Z</time></trkpt><trkpt lat="42.935422455874935" lon="11.850085539593607"><ele>703.0</ele><time>2026-05-04T14:55:47.001Z</time></trkpt><trkpt lat="42.93530363578985" lon="11.850173791611832"><ele>703.0</ele><time>2026-05-04T14:55:48.001Z</time></trkpt><trkpt lat="42.935156245387894" lon="11.850280195595609"><ele>703.0</ele><time>2026-05-04T14:55:49.001Z</time></trkpt><trkpt lat="42.93501390473306" lon="11.850366651603114"><ele>711.3333333333334</ele><time>2026-05-04T14:55:50.001Z</time></trkpt><trkpt lat="42.93485321610313" lon="11.850387748254752"><ele>719.6666666666666</ele><time>2026-05-04T14:55:51.001Z</time></trkpt><trkpt lat="42.934686818306" lon="11.85041937857453"><ele>728.0</ele><time>2026-05-04T14:55:52.001Z</time></trkpt><trkpt lat="42.93453456376502" lon="11.850490280170735"><ele>728.0</ele><time>2026-05-04T14:55:53.001Z</time></trkpt><trkpt lat="42.934362253898165" lon="11.850575750989092"><ele>728.0</ele><time>2026-05-04T14:55:54.001Z</time></trkpt><trkpt lat="42.93417026298903" lon="11.850679450951377"><ele>728.0</ele><time>2026-05-04T14:55:55.001Z</time></trkpt><trkpt lat="42.93398212157072" lon="11.850756608184733"><ele>725.6666666666666</ele><time>2026-05-04T14:55:56.001Z</time></trkpt><trkpt lat="42.933818140917865" lon="11.850801359226715"><ele>723.3333333333334</ele><time>2026-05-04T14:55:57.001Z</time></trkpt><trkpt lat="42.93366096443608" lon="11.850822549569227"><ele>721.0</ele><time>2026-05-04T14:55:58Z</time></trkpt><trkpt lat="42.93353615254722" lon="11.850815426602543"><ele>721.0</ele><time>2026-05-04T14:55:59Z</time></trkpt><trkpt lat="42.933442493861925" lon="11.850804786304236"><ele>721.0</ele><time>2026-05-04T14:56:00Z</time></trkpt><trkpt lat="42.9333565631477" lon="11.850820862968167"><ele>721.0</ele><time>2026-05-04T14:56:01Z</time></trkpt><trkpt lat="42.93326775487329" lon="11.850872905827389"><ele>721.0</ele><time>2026-05-04T14:56:02Z</time></trkpt><trkpt lat="42.933163720181696" lon="11.850947289909417"><ele>721.0</ele><time>2026-05-04T14:56:03Z</time></trkpt><trkpt lat="42.93304052186023" lon="11.851042157681398"><ele>726.0</ele><time>2026-05-04T14:56:04Z</time></trkpt><trkpt lat="42.93290147473636" lon="11.851160366733723"><ele>731.0</ele><time>2026-05-04T14:56:05Z</time></trkpt><trkpt lat="42.93275490574247" lon="11.851295303535773"><ele>736.0</ele><time>2026-05-04T14:56:06Z</time></trkpt><trkpt lat="42.93260424433247" lon="11.8514418204729"><ele>734.3333333333334</ele><time>2026-05-04T14:56:07Z</time></trkpt><trkpt lat="42.932446048181944" lon="11.851589307621744"><ele>732.6666666666666</ele><time>2026-05-04T14:56:08Z</time></trkpt><trkpt lat="42.93228697098197" lon="11.851725729764922"><ele>731.0</ele><time>2026-05-04T14:56:09Z</time></trkpt><trkpt lat="42.93213765534284" lon="11.851876470907074"><ele>732.0</ele><time>2026-05-04T14:56:10Z</time></trkpt><trkpt lat="42.93200138973885" lon="11.8520050717331"><ele>733.0</ele><time>2026-05-04T14:56:11Z</time></trkpt><trkpt lat="42.93188722455503" lon="11.852116058487715"><ele>734.0</ele><time>2026-05-04T14:56:12Z</time></trkpt><trkpt lat="42.93177467418787" lon="11.852228654421236"><ele>735.0</ele><time>2026-05-04T14:56:13Z</time></trkpt><trkpt lat="42.93167216982953" lon="11.852333035088801"><ele>735.0</ele><time>2026-05-04T14:56:14Z</time></trkpt><trkpt lat="42.931575912167894" lon="11.85243538702732"><ele>735.0</ele><time>2026-05-04T14:56:15Z</time></trkpt><trkpt lat="42.93148896927612" lon="11.85252250771503"><ele>735.0</ele><time>2026-05-04T14:56:16Z</time></trkpt><trkpt lat="42.93141711787251" lon="11.852595617544305"><ele>735.0</ele><time>2026-05-04T14:56:17Z</time></trkpt><trkpt lat="42.931361703552426" lon="11.85265110798883"><ele>735.0</ele><time>2026-05-04T14:56:18Z</time></trkpt><trkpt lat="42.93127928365996" lon="11.852748073078327"><ele>737.0</ele><time>2026-05-04T14:56:20Z</time></trkpt><trkpt lat="42.93117976374689" lon="11.852874798675385"><ele>739.0</ele><time>2026-05-04T14:56:22Z</time></trkpt><trkpt lat="42.93110983249843" lon="11.852971129430664"><ele>741.0</ele><time>2026-05-04T14:56:23Z</time></trkpt><trkpt lat="42.93103695691005" lon="11.85308675589219"><ele>743.0</ele><time>2026-05-04T14:56:24Z</time></trkpt><trkpt lat="42.93095634586778" lon="11.853213272107736"><ele>739.75</ele><time>2026-05-04T14:56:25Z</time></trkpt><trkpt lat="42.93087802605225" lon="11.853338741984578"><ele>736.5</ele><time>2026-05-04T14:56:26Z</time></trkpt><trkpt lat="42.93080080072931" lon="11.853462193772788"><ele>733.25</ele><time>2026-05-04T14:56:27Z</time></trkpt><trkpt lat="42.93072661965633" lon="11.853576232140925"><ele>730.0</ele><time>2026-05-04T14:56:28Z</time></trkpt><trkpt lat="42.930656820202024" lon="11.853684229800137"><ele>730.0</ele><time>2026-05-04T14:56:29Z</time></trkpt><trkpt lat="42.9305914434009" lon="11.853775280293032"><ele>730.0</ele><time>2026-05-04T14:56:30Z</time></trkpt><trkpt lat="42.93054092460504" lon="11.853850373232069"><ele>730.0</ele><time>2026-05-04T14:56:31Z</time></trkpt><trkpt lat="42.93049545258066" lon="11.853938536780502"><ele>730.0</ele><time>2026-05-04T14:56:32Z</time></trkpt><trkpt lat="42.93044843010313" lon="11.854047236203986"><ele>730.0</ele><time>2026-05-04T14:56:33Z</time></trkpt><trkpt lat="42.93040763627775" lon="11.854160986057927"><ele>730.0</ele><time>2026-05-04T14:56:34Z</time></trkpt><trkpt lat="42.930375320903956" lon="11.854259293802354"><ele>729.5714285714287</ele><time>2026-05-04T14:56:35Z</time></trkpt><trkpt lat="42.93035348383222" lon="11.854341305305272"><ele>729.1428571428571</ele><time>2026-05-04T14:56:36Z</time></trkpt><trkpt lat="42.93034561376148" lon="11.854429881489784"><ele>728.7142857142858</ele><time>2026-05-04T14:56:37Z</time></trkpt><trkpt lat="42.93035252683333" lon="11.854515341958598"><ele>728.2857142857143</ele><time>2026-05-04T14:56:38Z</time></trkpt><trkpt lat="42.93036268276439" lon="11.854615878982088"><ele>727.8571428571429</ele><time>2026-05-04T14:56:39Z</time></trkpt><trkpt lat="42.93036429122563" lon="11.854744183315605"><ele>727.4285714285714</ele><time>2026-05-04T14:56:40Z</time></trkpt><trkpt lat="42.93036525280451" lon="11.854849665306755"><ele>727.0</ele><time>2026-05-04T14:56:41Z</time></trkpt><trkpt lat="42.93037208424082" lon="11.854971716476209"><ele>727.0</ele><time>2026-05-04T14:56:42Z</time></trkpt><trkpt lat="42.93037918555887" lon="11.855082077114421"><ele>727.0</ele><time>2026-05-04T14:56:43Z</time></trkpt><trkpt lat="42.9303812288042" lon="11.855186978009705"><ele>727.0</ele><time>2026-05-04T14:56:44Z</time></trkpt><trkpt lat="42.9303729094384" lon="11.85529317385997"><ele>727.0</ele><time>2026-05-04T14:56:45Z</time></trkpt><trkpt lat="42.930353677080284" lon="11.855407911791643"><ele>727.0</ele><time>2026-05-04T14:56:46Z</time></trkpt><trkpt lat="42.93032375198275" lon="11.855512295172208"><ele>727.0</ele><time>2026-05-04T14:56:47Z</time></trkpt><trkpt lat="42.93028306446507" lon="11.85560710249457"><ele>726.4000000000001</ele><time>2026-05-04T14:56:48Z</time></trkpt><trkpt lat="42.93023573825804" lon="11.85569153480694"><ele>725.8000000000001</ele><time>2026-05-04T14:56:49Z</time></trkpt><trkpt lat="42.93017862145691" lon="11.855759565047823"><ele>725.2</ele><time>2026-05-04T14:56:50Z</time></trkpt><trkpt lat="42.93004940395403" lon="11.85571425566854"><ele>724.6</ele><time>2026-05-04T14:56:52Z</time></trkpt><trkpt lat="42.929969204242425" lon="11.85564662123093"><ele>724.0</ele><time>2026-05-04T14:56:53Z</time></trkpt><trkpt lat="42.92984161850742" lon="11.855592780455261"><ele>723.6666666666667</ele><time>2026-05-04T14:56:54Z</time></trkpt><trkpt lat="42.92969175707291" lon="11.8555557705042"><ele>723.3333333333334</ele><time>2026-05-04T14:56:55Z</time></trkpt><trkpt lat="42.92954245593191" lon="11.855481795976996"><ele>723.0</ele><time>2026-05-04T14:56:56Z</time></trkpt><trkpt lat="42.92938219135004" lon="11.85546405251579"><ele>723.0</ele><time>2026-05-04T14:56:57Z</time></trkpt><trkpt lat="42.9292444891679" lon="11.85544337675667"><ele>723.0</ele><time>2026-05-04T14:56:58Z</time></trkpt><trkpt lat="42.929130730687056" lon="11.85541191736132"><ele>723.0</ele><time>2026-05-04T14:56:59Z</time></trkpt><trkpt lat="42.92902830538724" lon="11.855440851892023"><ele>723.0</ele><time>2026-05-04T14:57:00Z</time></trkpt><trkpt lat="42.92893952733038" lon="11.855454302756769"><ele>723.0</ele><time>2026-05-04T14:57:01Z</time></trkpt><trkpt lat="42.92884567313182" lon="11.855480902351726"><ele>724.5</ele><time>2026-05-04T14:57:02Z</time></trkpt><trkpt lat="42.928724720835206" lon="11.855512321631352"><ele>726.0</ele><time>2026-05-04T14:57:03Z</time></trkpt><trkpt lat="42.92859638460629" lon="11.855524504169788"><ele>727.5</ele><time>2026-05-04T14:57:04Z</time></trkpt><trkpt lat="42.928474470683014" lon="11.855477299607564"><ele>729.0</ele><time>2026-05-04T14:57:05Z</time></trkpt><trkpt lat="42.92834775572911" lon="11.855416758974105"><ele>729.5</ele><time>2026-05-04T14:57:06Z</time></trkpt><trkpt lat="42.92820673406403" lon="11.85534736457668"><ele>730.0</ele><time>2026-05-04T14:57:07Z</time></trkpt><trkpt lat="42.92806151330068" lon="11.85529497491904"><ele>730.5</ele><time>2026-05-04T14:57:08Z</time></trkpt><trkpt lat="42.927948312271454" lon="11.85523788985955"><ele>731.0</ele><time>2026-05-04T14:57:09Z</time></trkpt><trkpt lat="42.927851726508344" lon="11.855217432967946"><ele>731.0</ele><time>2026-05-04T14:57:10Z</time></trkpt><trkpt lat="42.92776886374918" lon="11.855212645658387"><ele>731.0</ele><time>2026-05-04T14:57:11Z</time></trkpt><trkpt lat="42.92768570080223" lon="11.85521636950728"><ele>731.0</ele><time>2026-05-04T14:57:12Z</time></trkpt><trkpt lat="42.927599552524924" lon="11.855240573384444"><ele>731.0</ele><time>2026-05-04T14:57:13Z</time></trkpt><trkpt lat="42.92751251931049" lon="11.85528246004467"><ele>731.0</ele><time>2026-05-04T14:57:14Z</time></trkpt><trkpt lat="42.927416487006965" lon="11.855338725524069"><ele>732.25</ele><time>2026-05-04T14:57:15Z</time></trkpt><trkpt lat="42.9273072433898" lon="11.855410158059959"><ele>733.5</ele><time>2026-05-04T14:57:16Z</time></trkpt><trkpt lat="42.92718734168966" lon="11.855494787292495"><ele>734.75</ele><time>2026-05-04T14:57:17Z</time></trkpt><trkpt lat="42.92707212325434" lon="11.855566187196166"><ele>736.0</ele><time>2026-05-04T14:57:18Z</time></trkpt><trkpt lat="42.92696643488705" lon="11.855587643078971"><ele>736.0</ele><time>2026-05-04T14:57:19Z</time></trkpt><trkpt lat="42.92688603196843" lon="11.855638963598892"><ele>736.0</ele><time>2026-05-04T14:57:20Z</time></trkpt><trkpt lat="42.926808435832164" lon="11.855661985451894"><ele>736.0</ele><time>2026-05-04T14:57:21Z</time></trkpt><trkpt lat="42.9267423430672" lon="11.85569765990819"><ele>736.0</ele><time>2026-05-04T14:57:22Z</time></trkpt><trkpt lat="42.926679339626794" lon="11.855756770760431"><ele>736.0</ele><time>2026-05-04T14:57:23Z</time></trkpt><trkpt lat="42.92660814620936" lon="11.855799495591974"><ele>736.0</ele><time>2026-05-04T14:57:24Z</time></trkpt><trkpt lat="42.92655687175189" lon="11.855895771092166"><ele>734.5999999999999</ele><time>2026-05-04T14:57:25Z</time></trkpt><trkpt lat="42.926523744858756" lon="11.856001237717022"><ele>733.2</ele><time>2026-05-04T14:57:26Z</time></trkpt><trkpt lat="42.92652523800308" lon="11.856119063099737"><ele>731.8</ele><time>2026-05-04T14:57:27Z</time></trkpt><trkpt lat="42.926513368057066" lon="11.8562454365946"><ele>730.4000000000001</ele><time>2026-05-04T14:57:28Z</time></trkpt><trkpt lat="42.926508247374414" lon="11.856378325280557"><ele>729.0</ele><time>2026-05-04T14:57:29Z</time></trkpt><trkpt lat="42.92648767207739" lon="11.85652191894455"><ele>729.0</ele><time>2026-05-04T14:57:30Z</time></trkpt><trkpt lat="42.92645333319527" lon="11.856649695351265"><ele>729.0</ele><time>2026-05-04T14:57:31Z</time></trkpt><trkpt lat="42.92640345600387" lon="11.856741889990603"><ele>729.0</ele><time>2026-05-04T14:57:32Z</time></trkpt><trkpt lat="42.92633950592813" lon="11.856815905026046"><ele>729.0</ele><time>2026-05-04T14:57:33Z</time></trkpt><trkpt lat="42.926268938149164" lon="11.856865948302971"><ele>729.0</ele><time>2026-05-04T14:57:34Z</time></trkpt><trkpt lat="42.92620057345424" lon="11.85688909111823"><ele>729.0</ele><time>2026-05-04T14:57:35Z</time></trkpt><trkpt lat="42.92612406399651" lon="11.856883019494886"><ele>729.0</ele><time>2026-05-04T14:57:36Z</time></trkpt><trkpt lat="42.92604592166464" lon="11.856814981421547"><ele>729.0</ele><time>2026-05-04T14:57:37Z</time></trkpt><trkpt lat="42.92593145552746" lon="11.85674896538579"><ele>729.0</ele><time>2026-05-04T14:57:38Z</time></trkpt><trkpt lat="42.92581268747548" lon="11.856683217775096"><ele>729.0</ele><time>2026-05-04T14:57:39Z</time></trkpt><trkpt lat="42.92572133770124" lon="11.856655529913766"><ele>729.0</ele><time>2026-05-04T14:57:40Z</time></trkpt><trkpt lat="42.92560066902176" lon="11.856659740751597"><ele>729.8000000000001</ele><time>2026-05-04T14:57:42Z</time></trkpt><trkpt lat="42.92551895072197" lon="11.856711623703319"><ele>730.6</ele><time>2026-05-04T14:57:44Z</time></trkpt><trkpt lat="42.92539431138647" lon="11.85676649280164"><ele>731.4</ele><time>2026-05-04T14:57:46Z</time></trkpt><trkpt lat="42.9252992199112" lon="11.8568115077295"><ele>732.2</ele><time>2026-05-04T14:57:47Z</time></trkpt><trkpt lat="42.92518199284651" lon="11.856880132481416"><ele>733.0</ele><time>2026-05-04T14:57:48Z</time></trkpt><trkpt lat="42.92504263302406" lon="11.856953150955626"><ele>733.0</ele><time>2026-05-04T14:57:49Z</time></trkpt><trkpt lat="42.92491207215435" lon="11.85700943143023"><ele>733.0</ele><time>2026-05-04T14:57:50Z</time></trkpt><trkpt lat="42.924824090454585" lon="11.85705073600407"><ele>733.0</ele><time>2026-05-04T14:57:51Z</time></trkpt><trkpt lat="42.92475342825815" lon="11.857095205625626"><ele>733.0</ele><time>2026-05-04T14:57:52Z</time></trkpt><trkpt lat="42.92467470375205" lon="11.857163471304982"><ele>733.0</ele><time>2026-05-04T14:57:53Z</time></trkpt><trkpt lat="42.92459185107802" lon="11.857257747279967"><ele>733.0</ele><time>2026-05-04T14:57:54Z</time></trkpt><trkpt lat="42.92448805768021" lon="11.857372499520297"><ele>733.0</ele><time>2026-05-04T14:57:55Z</time></trkpt><trkpt lat="42.924363280251534" lon="11.857488430867988"><ele>733.0</ele><time>2026-05-04T14:57:56Z</time></trkpt><trkpt lat="42.92423731361493" lon="11.857604656989686"><ele>733.0</ele><time>2026-05-04T14:57:57Z</time></trkpt><trkpt lat="42.924107374890696" lon="11.857706553351662"><ele>734.0</ele><time>2026-05-04T14:57:58Z</time></trkpt><trkpt lat="42.92398957906481" lon="11.857789663397893"><ele>735.0</ele><time>2026-05-04T14:57:59Z</time></trkpt><trkpt lat="42.92388593787212" lon="11.857860670452103"><ele>736.0</ele><time>2026-05-04T14:58:00Z</time></trkpt><trkpt lat="42.923795253565274" lon="11.857929207659852"><ele>737.0</ele><time>2026-05-04T14:58:01Z</time></trkpt><trkpt lat="42.92371351588014" lon="11.857990021733162"><ele>738.0</ele><time>2026-05-04T14:58:02Z</time></trkpt><trkpt lat="42.92364252797946" lon="11.85804000357938"><ele>738.0</ele><time>2026-05-04T14:58:03Z</time></trkpt><trkpt lat="42.92357234646635" lon="11.85809243267454"><ele>738.0</ele><time>2026-05-04T14:58:04Z</time></trkpt><trkpt lat="42.923513070763505" lon="11.858163723375876"><ele>738.0</ele><time>2026-05-04T14:58:05Z</time></trkpt><trkpt lat="42.923453941757344" lon="11.85826732270178"><ele>738.0</ele><time>2026-05-04T14:58:06Z</time></trkpt><trkpt lat="42.92339395162432" lon="11.858400498353937"><ele>738.0</ele><time>2026-05-04T14:58:07Z</time></trkpt><trkpt lat="42.923317200444124" lon="11.85856300825469"><ele>736.0</ele><time>2026-05-04T14:58:08Z</time></trkpt><trkpt lat="42.923249377073326" lon="11.858712127730577"><ele>734.0</ele><time>2026-05-04T14:58:09Z</time></trkpt><trkpt lat="42.923191434095536" lon="11.858829734681233"><ele>732.0</ele><time>2026-05-04T14:58:10Z</time></trkpt><trkpt lat="42.92312948147031" lon="11.858941390404954"><ele>730.0</ele><time>2026-05-04T14:58:11Z</time></trkpt><trkpt lat="42.923066853032445" lon="11.859053277307169"><ele>728.0</ele><time>2026-05-04T14:58:12Z</time></trkpt><trkpt lat="42.923006978703874" lon="11.85916744141029"><ele>728.2</ele><time>2026-05-04T14:58:13Z</time></trkpt><trkpt lat="42.922943639618545" lon="11.859286903313011"><ele>728.4</ele><time>2026-05-04T14:58:14Z</time></trkpt><trkpt lat="42.92287929079645" lon="11.859398217360637"><ele>728.6</ele><time>2026-05-04T14:58:15Z</time></trkpt><trkpt lat="42.922815330062825" lon="11.85948468870291"><ele>728.8000000000001</ele><time>2026-05-04T14:58:16Z</time></trkpt><trkpt lat="42.92274004350036" lon="11.859550943059809"><ele>729.0</ele><time>2026-05-04T14:58:17Z</time></trkpt><trkpt lat="42.922661946015694" lon="11.859571163197502"><ele>729.0</ele><time>2026-05-04T14:58:18Z</time></trkpt><trkpt lat="42.92256612069958" lon="11.859521138065835"><ele>729.0</ele><time>2026-05-04T14:58:19Z</time></trkpt><trkpt lat="42.922439500085275" lon="11.859488696127217"><ele>729.0</ele><time>2026-05-04T14:58:20Z</time></trkpt><trkpt lat="42.92226591478822" lon="11.859453208256326"><ele>729.0</ele><time>2026-05-04T14:58:21Z</time></trkpt><trkpt lat="42.92208140763492" lon="11.859443323373569"><ele>729.5</ele><time>2026-05-04T14:58:22Z</time></trkpt><trkpt lat="42.92191598259764" lon="11.859418245113796"><ele>730.0</ele><time>2026-05-04T14:58:23Z</time></trkpt><trkpt lat="42.92178059090187" lon="11.85939529805423"><ele>730.5</ele><time>2026-05-04T14:58:24Z</time></trkpt><trkpt lat="42.9216763013802" lon="11.859380817943489"><ele>731.0</ele><time>2026-05-04T14:58:25Z</time></trkpt><trkpt lat="42.92158240100231" lon="11.859382147059083"><ele>729.5999999999999</ele><time>2026-05-04T14:58:26Z</time></trkpt><trkpt lat="42.921501371137175" lon="11.859395304847148"><ele>728.2</ele><time>2026-05-04T14:58:27Z</time></trkpt><trkpt lat="42.92142662813753" lon="11.859435867203405"><ele>726.8</ele><time>2026-05-04T14:58:28Z</time></trkpt><trkpt lat="42.92136163090055" lon="11.859501860847258"><ele>725.4000000000001</ele><time>2026-05-04T14:58:29Z</time></trkpt><trkpt lat="42.92127301153067" lon="11.859608595965797"><ele>724.0</ele><time>2026-05-04T14:58:30Z</time></trkpt><trkpt lat="42.92114093072008" lon="11.859721003676395"><ele>724.0</ele><time>2026-05-04T14:58:31Z</time></trkpt><trkpt lat="42.921012156405965" lon="11.85986275263176"><ele>724.0</ele><time>2026-05-04T14:58:32Z</time></trkpt><trkpt lat="42.92086749739732" lon="11.859978329074291"><ele>724.0</ele><time>2026-05-04T14:58:33Z</time></trkpt><trkpt lat="42.92070699665652" lon="11.860103002536837"><ele>722.25</ele><time>2026-05-04T14:58:34Z</time></trkpt><trkpt lat="42.92055799889127" lon="11.860216220585418"><ele>720.5</ele><time>2026-05-04T14:58:35Z</time></trkpt><trkpt lat="42.920431434473805" lon="11.860307850525288"><ele>718.75</ele><time>2026-05-04T14:58:36Z</time></trkpt><trkpt lat="42.92032901062619" lon="11.860381967763493"><ele>717.0</ele><time>2026-05-04T14:58:37Z</time></trkpt><trkpt lat="42.920241811701814" lon="11.860436023754678"><ele>717.0</ele><time>2026-05-04T14:58:38Z</time></trkpt><trkpt lat="42.92016048336628" lon="11.860455970403626"><ele>717.0</ele><time>2026-05-04T14:58:39Z</time></trkpt><trkpt lat="42.92008698616933" lon="11.860441295107833"><ele>717.0</ele><time>2026-05-04T14:58:40Z</time></trkpt><trkpt lat="42.92000213938007" lon="11.860390062725473"><ele>717.0</ele><time>2026-05-04T14:58:41Z</time></trkpt><trkpt lat="42.919960366536536" lon="11.860268068678778"><ele>717.0</ele><time>2026-05-04T14:58:42Z</time></trkpt><trkpt lat="42.91989238414933" lon="11.86015826106063"><ele>715.2</ele><time>2026-05-04T14:58:43Z</time></trkpt><trkpt lat="42.91982053960043" lon="11.860045694307246"><ele>713.4000000000001</ele><time>2026-05-04T14:58:44Z</time></trkpt><trkpt lat="42.91976776737933" lon="11.859969537881895"><ele>711.5999999999999</ele><time>2026-05-04T14:58:45Z</time></trkpt><trkpt lat="42.9197160514383" lon="11.859898910502617"><ele>709.8</ele><time>2026-05-04T14:58:46Z</time></trkpt><trkpt lat="42.91964773799494" lon="11.859809035387725"><ele>708.0</ele><time>2026-05-04T14:58:47Z</time></trkpt><trkpt lat="42.91957509669493" lon="11.859712398722749"><ele>708.0</ele><time>2026-05-04T14:58:48Z</time></trkpt><trkpt lat="42.919500126348915" lon="11.85959987070959"><ele>708.0</ele><time>2026-05-04T14:58:49Z</time></trkpt><trkpt lat="42.91942921293768" lon="11.859482472843151"><ele>708.0</ele><time>2026-05-04T14:58:50Z</time></trkpt><trkpt lat="42.919354740086106" lon="11.859352502629813"><ele>708.0</ele><time>2026-05-04T14:58:51Z</time></trkpt><trkpt lat="42.919292157116594" lon="11.859218957814575"><ele>707.75</ele><time>2026-05-04T14:58:52Z</time></trkpt><trkpt lat="42.91923780320509" lon="11.859075781617705"><ele>707.5</ele><time>2026-05-04T14:58:53Z</time></trkpt><trkpt lat="42.919187537973265" lon="11.85892400576721"><ele>707.25</ele><time>2026-05-04T14:58:54Z</time></trkpt><trkpt lat="42.91913386565209" lon="11.858764004374596"><ele>707.0</ele><time>2026-05-04T14:58:55Z</time></trkpt><trkpt lat="42.91907780610263" lon="11.858600438916636"><ele>706.25</ele><time>2026-05-04T14:58:56Z</time></trkpt><trkpt lat="42.9190040391557" lon="11.858438600288688"><ele>705.5</ele><time>2026-05-04T14:58:57Z</time></trkpt><trkpt lat="42.91895897124211" lon="11.858259339457556"><ele>704.75</ele><time>2026-05-04T14:58:58Z</time></trkpt><trkpt lat="42.91890067583142" lon="11.85810345275896"><ele>704.0</ele><time>2026-05-04T14:58:59Z</time></trkpt><trkpt lat="42.91883992427438" lon="11.857951680858731"><ele>704.0</ele><time>2026-05-04T14:59:00Z</time></trkpt><trkpt lat="42.91877706665693" lon="11.857803299889833"><ele>704.0</ele><time>2026-05-04T14:59:01Z</time></trkpt><trkpt lat="42.91870958042391" lon="11.857657124264614"><ele>704.0</ele><time>2026-05-04T14:59:02Z</time></trkpt><trkpt lat="42.91864176824138" lon="11.857520871016227"><ele>704.0</ele><time>2026-05-04T14:59:03Z</time></trkpt><trkpt lat="42.918570666750526" lon="11.857384215944034"><ele>702.75</ele><time>2026-05-04T14:59:04Z</time></trkpt><trkpt lat="42.918490116567774" lon="11.857242873125067"><ele>701.5</ele><time>2026-05-04T14:59:05Z</time></trkpt><trkpt lat="42.91839918877093" lon="11.857100083093917"><ele>700.25</ele><time>2026-05-04T14:59:06Z</time></trkpt><trkpt lat="42.91830892134513" lon="11.856976969163707"><ele>699.0</ele><time>2026-05-04T14:59:07Z</time></trkpt><trkpt lat="42.918225617341946" lon="11.856869098082074"><ele>697.3333333333334</ele><time>2026-05-04T14:59:08Z</time></trkpt><trkpt lat="42.91816121631034" lon="11.856785704597126"><ele>695.6666666666666</ele><time>2026-05-04T14:59:09Z</time></trkpt><trkpt lat="42.918100358605706" lon="11.856711098673477"><ele>694.0</ele><time>2026-05-04T14:59:10Z</time></trkpt><trkpt lat="42.91801933215947" lon="11.856674623461343"><ele>692.3333333333333</ele><time>2026-05-04T14:59:11Z</time></trkpt><trkpt lat="42.91794348984057" lon="11.856645214768912"><ele>690.6666666666666</ele><time>2026-05-04T14:59:12Z</time></trkpt><trkpt lat="42.91785784238578" lon="11.856636783739635"><ele>689.0</ele><time>2026-05-04T14:59:13Z</time></trkpt><trkpt lat="42.91776298650294" lon="11.85665914737955"><ele>689.0</ele><time>2026-05-04T14:59:14Z</time></trkpt><trkpt lat="42.917649206396895" lon="11.856683905665662"><ele>689.0</ele><time>2026-05-04T14:59:15Z</time></trkpt><trkpt lat="42.91753837310388" lon="11.856706856061612"><ele>689.0</ele><time>2026-05-04T14:59:16Z</time></trkpt><trkpt lat="42.91742982480195" lon="11.85672885348104"><ele>689.0</ele><time>2026-05-04T14:59:17Z</time></trkpt><trkpt lat="42.91733024661516" lon="11.856745724097793"><ele>689.0</ele><time>2026-05-04T14:59:18Z</time></trkpt><trkpt lat="42.91723032377136" lon="11.85676271759908"><ele>690.6</ele><time>2026-05-04T14:59:19Z</time></trkpt><trkpt lat="42.91713723234323" lon="11.856796898266177"><ele>692.2</ele><time>2026-05-04T14:59:20Z</time></trkpt><trkpt lat="42.9170421519033" lon="11.856862534205307"><ele>693.8000000000001</ele><time>2026-05-04T14:59:21Z</time></trkpt><trkpt lat="42.916950676261116" lon="11.85694295756548"><ele>695.4000000000001</ele><time>2026-05-04T14:59:22Z</time></trkpt><trkpt lat="42.91684785827893" lon="11.857011798202173"><ele>697.0</ele><time>2026-05-04T14:59:23Z</time></trkpt><trkpt lat="42.91674278629098" lon="11.857057674460268"><ele>696.25</ele><time>2026-05-04T14:59:24Z</time></trkpt><trkpt lat="42.91663165815744" lon="11.8570813256001"><ele>695.5</ele><time>2026-05-04T14:59:25Z</time></trkpt><trkpt lat="42.91651180554233" lon="11.857078321679138"><ele>694.75</ele><time>2026-05-04T14:59:26Z</time></trkpt><trkpt lat="42.916385089939084" lon="11.857054756917947"><ele>694.0</ele><time>2026-05-04T14:59:27Z</time></trkpt><trkpt lat="42.91625583890177" lon="11.857021180107159"><ele>694.0</ele><time>2026-05-04T14:59:28Z</time></trkpt><trkpt lat="42.916140118353155" lon="11.856990564559396"><ele>694.0</ele><time>2026-05-04T14:59:29Z</time></trkpt><trkpt lat="42.91603494240648" lon="11.856954005931037"><ele>694.0</ele><time>2026-05-04T14:59:30Z</time></trkpt><trkpt lat="42.91592489624101" lon="11.856900262262172"><ele>694.0</ele><time>2026-05-04T14:59:31Z</time></trkpt><trkpt lat="42.915824919077316" lon="11.856812356134869"><ele>689.5</ele><time>2026-05-04T14:59:32Z</time></trkpt><trkpt lat="42.91572286307792" lon="11.856750714211817"><ele>685.0</ele><time>2026-05-04T14:59:33Z</time></trkpt><trkpt lat="42.91563948745001" lon="11.856689320787579"><ele>680.5</ele><time>2026-05-04T14:59:34Z</time></trkpt><trkpt lat="42.91557617991497" lon="11.85661490015846"><ele>676.0</ele><time>2026-05-04T14:59:35Z</time></trkpt><trkpt lat="42.915529459462434" lon="11.856524676244277"><ele>671.5</ele><time>2026-05-04T14:59:36Z</time></trkpt><trkpt lat="42.91548951575457" lon="11.85645516130731"><ele>667.0</ele><time>2026-05-04T14:59:37Z</time></trkpt><trkpt lat="42.91543269663915" lon="11.856253773167538"><ele>667.0</ele><time>2026-05-04T14:59:39Z</time></trkpt><trkpt lat="42.91537990942263" lon="11.856112300391429"><ele>667.0</ele><time>2026-05-04T14:59:40Z</time></trkpt><trkpt lat="42.91532182469677" lon="11.8559619454081"><ele>667.0</ele><time>2026-05-04T14:59:41Z</time></trkpt><trkpt lat="42.91526116173863" lon="11.855806152261783"><ele>667.0</ele><time>2026-05-04T14:59:42Z</time></trkpt><trkpt lat="42.91519952005085" lon="11.855645907110416"><ele>664.0</ele><time>2026-05-04T14:59:43Z</time></trkpt><trkpt lat="42.91512906891148" lon="11.855494689467534"><ele>661.0</ele><time>2026-05-04T14:59:44Z</time></trkpt><trkpt lat="42.91507530935315" lon="11.855339178558909"><ele>658.0</ele><time>2026-05-04T14:59:45Z</time></trkpt><trkpt lat="42.91503922593638" lon="11.855175955504976"><ele>655.0</ele><time>2026-05-04T14:59:46Z</time></trkpt><trkpt lat="42.91499168912614" lon="11.8550315457443"><ele>653.2</ele><time>2026-05-04T14:59:47Z</time></trkpt><trkpt lat="42.91494661551351" lon="11.854896761883182"><ele>651.4</ele><time>2026-05-04T14:59:48Z</time></trkpt><trkpt lat="42.91490743931757" lon="11.854774639127369"><ele>649.5999999999999</ele><time>2026-05-04T14:59:49Z</time></trkpt><trkpt lat="42.9148609065379" lon="11.854653517770299"><ele>647.8</ele><time>2026-05-04T14:59:50Z</time></trkpt><trkpt lat="42.914796161385205" lon="11.854536445588773"><ele>646.0</ele><time>2026-05-04T14:59:51Z</time></trkpt><trkpt lat="42.91469596477336" lon="11.854445084953964"><ele>646.0</ele><time>2026-05-04T14:59:52Z</time></trkpt><trkpt lat="42.9146176900684" lon="11.854327601616946"><ele>646.0</ele><time>2026-05-04T14:59:53Z</time></trkpt><trkpt lat="42.91455769721745" lon="11.854193101250596"><ele>646.0</ele><time>2026-05-04T14:59:54Z</time></trkpt><trkpt lat="42.9144905000055" lon="11.854075625961864"><ele>646.0</ele><time>2026-05-04T14:59:55Z</time></trkpt><trkpt lat="42.91442801836154" lon="11.853967087844879"><ele>646.0</ele><time>2026-05-04T14:59:56Z</time></trkpt><trkpt lat="42.91436208234797" lon="11.853875758412643"><ele>645.4</ele><time>2026-05-04T14:59:57Z</time></trkpt><trkpt lat="42.91430671545893" lon="11.853788632604328"><ele>644.8</ele><time>2026-05-04T14:59:58Z</time></trkpt><trkpt lat="42.914234814968594" lon="11.853703917011439"><ele>644.1999999999999</ele><time>2026-05-04T15:00:00Z</time></trkpt><trkpt lat="42.91415921999035" lon="11.85391393278924"><ele>643.5999999999999</ele><time>2026-05-04T15:00:06Z</time></trkpt><trkpt lat="42.91412578977196" lon="11.854003952842444"><ele>643.0</ele><time>2026-05-04T15:00:07Z</time></trkpt><trkpt lat="42.914066271892956" lon="11.854101549456972"><ele>643.0</ele><time>2026-05-04T15:00:08Z</time></trkpt><trkpt lat="42.91400005680615" lon="11.854209920024031"><ele>643.0</ele><time>2026-05-04T15:00:09Z</time></trkpt><trkpt lat="42.91393309333129" lon="11.854318283127842"><ele>643.0</ele><time>2026-05-04T15:00:10Z</time></trkpt><trkpt lat="42.91387047110545" lon="11.854421153478762"><ele>643.0</ele><time>2026-05-04T15:00:11Z</time></trkpt><trkpt lat="42.91380737924772" lon="11.854513363521711"><ele>643.0</ele><time>2026-05-04T15:00:12Z</time></trkpt><trkpt lat="42.913730571567854" lon="11.854594947442884"><ele>642.5999999999999</ele><time>2026-05-04T15:00:13Z</time></trkpt><trkpt lat="42.91365188172194" lon="11.85466517224079"><ele>642.1999999999999</ele><time>2026-05-04T15:00:14Z</time></trkpt><trkpt lat="42.91356699245113" lon="11.854730807946588"><ele>641.8</ele><time>2026-05-04T15:00:15Z</time></trkpt><trkpt lat="42.91347680436234" lon="11.854793809254126"><ele>641.4</ele><time>2026-05-04T15:00:16Z</time></trkpt><trkpt lat="42.91337698499149" lon="11.85486149277231"><ele>641.0</ele><time>2026-05-04T15:00:17Z</time></trkpt><trkpt lat="42.913264929762015" lon="11.854937834157075"><ele>640.0</ele><time>2026-05-04T15:00:18Z</time></trkpt><trkpt lat="42.91314326202632" lon="11.855021769338405"><ele>639.0</ele><time>2026-05-04T15:00:19Z</time></trkpt><trkpt lat="42.91302272649615" lon="11.855105339860906"><ele>638.0</ele><time>2026-05-04T15:00:20Z</time></trkpt><trkpt lat="42.91290952439548" lon="11.855180946947813"><ele>637.0</ele><time>2026-05-04T15:00:21Z</time></trkpt><trkpt lat="42.91280403121162" lon="11.855251998162595"><ele>637.0</ele><time>2026-05-04T15:00:22Z</time></trkpt><trkpt lat="42.912708273552155" lon="11.855322429647599"><ele>637.0</ele><time>2026-05-04T15:00:23Z</time></trkpt><trkpt lat="42.91261611518356" lon="11.855391614249319"><ele>637.0</ele><time>2026-05-04T15:00:24Z</time></trkpt><trkpt lat="42.91251499465188" lon="11.855453708470536"><ele>637.0</ele><time>2026-05-04T15:00:25Z</time></trkpt><trkpt lat="42.91242728731274" lon="11.855513677113903"><ele>637.0</ele><time>2026-05-04T15:00:26Z</time></trkpt><trkpt lat="42.912324587263356" lon="11.855586454306753"><ele>633.5</ele><time>2026-05-04T15:00:27Z</time></trkpt><trkpt lat="42.91221609204907" lon="11.855663750127091"><ele>630.0</ele><time>2026-05-04T15:00:28Z</time></trkpt><trkpt lat="42.91210743960741" lon="11.855727551953228"><ele>626.5</ele><time>2026-05-04T15:00:29Z</time></trkpt><trkpt lat="42.91199393599721" lon="11.855792837862571"><ele>623.0</ele><time>2026-05-04T15:00:30Z</time></trkpt><trkpt lat="42.91189663521978" lon="11.855846940161413"><ele>623.0</ele><time>2026-05-04T15:00:31Z</time></trkpt><trkpt lat="42.91180686672891" lon="11.855893756527028"><ele>623.0</ele><time>2026-05-04T15:00:32Z</time></trkpt><trkpt lat="42.91172603117306" lon="11.855926085703908"><ele>623.0</ele><time>2026-05-04T15:00:33Z</time></trkpt><trkpt lat="42.91165341568794" lon="11.855946485657828"><ele>623.0</ele><time>2026-05-04T15:00:34Z</time></trkpt><trkpt lat="42.911570451892565" lon="11.855947638435987"><ele>623.0</ele><time>2026-05-04T15:00:35Z</time></trkpt><trkpt lat="42.91149304098321" lon="11.855934412399842"><ele>623.0</ele><time>2026-05-04T15:00:36Z</time></trkpt><trkpt lat="42.91140328559663" lon="11.855916287785499"><ele>622.3333333333333</ele><time>2026-05-04T15:00:37Z</time></trkpt><trkpt lat="42.91132154961238" lon="11.855907076952661"><ele>621.6666666666666</ele><time>2026-05-04T15:00:38Z</time></trkpt><trkpt lat="42.911247137097874" lon="11.85589684834743"><ele>621.0</ele><time>2026-05-04T15:00:39Z</time></trkpt><trkpt lat="42.91116497381274" lon="11.855893323059847"><ele>620.3333333333334</ele><time>2026-05-04T15:00:40Z</time></trkpt><trkpt lat="42.91109009523886" lon="11.85589441267066"><ele>619.6666666666667</ele><time>2026-05-04T15:00:41Z</time></trkpt><trkpt lat="42.91101369241824" lon="11.855903795040941"><ele>619.0</ele><time>2026-05-04T15:00:42Z</time></trkpt><trkpt lat="42.91093993281497" lon="11.855921893648745"><ele>618.4</ele><time>2026-05-04T15:00:43Z</time></trkpt><trkpt lat="42.91086294119117" lon="11.855955278155719"><ele>617.8</ele><time>2026-05-04T15:00:44Z</time></trkpt><trkpt lat="42.91078865442941" lon="11.85599943208421"><ele>617.2</ele><time>2026-05-04T15:00:45Z</time></trkpt><trkpt lat="42.91071793473726" lon="11.856053478198355"><ele>616.6</ele><time>2026-05-04T15:00:46Z</time></trkpt><trkpt lat="42.91061983519818" lon="11.856120541852384"><ele>616.0</ele><time>2026-05-04T15:00:47Z</time></trkpt><trkpt lat="42.9105274019306" lon="11.856197901672365"><ele>616.0</ele><time>2026-05-04T15:00:48Z</time></trkpt><trkpt lat="42.910423095678716" lon="11.856268372974107"><ele>616.0</ele><time>2026-05-04T15:00:49Z</time></trkpt><trkpt lat="42.91032647183933" lon="11.856339170351342"><ele>616.0</ele><time>2026-05-04T15:00:50Z</time></trkpt><trkpt lat="42.91023496717921" lon="11.856406382727867"><ele>616.0</ele><time>2026-05-04T15:00:51Z</time></trkpt><trkpt lat="42.91015936727577" lon="11.856462058029512"><ele>616.0</ele><time>2026-05-04T15:00:52Z</time></trkpt><trkpt lat="42.91008616475224" lon="11.856514362003015"><ele>616.0</ele><time>2026-05-04T15:00:53Z</time></trkpt><trkpt lat="42.91002449670865" lon="11.856567796635499"><ele>616.0</ele><time>2026-05-04T15:00:54Z</time></trkpt><trkpt lat="42.90997101023909" lon="11.856627210105462"><ele>616.0</ele><time>2026-05-04T15:00:55Z</time></trkpt><trkpt lat="42.9098982812704" lon="11.856705073603303"><ele>616.0</ele><time>2026-05-04T15:00:56Z</time></trkpt><trkpt lat="42.90981923422402" lon="11.856794704613678"><ele>616.0</ele><time>2026-05-04T15:00:57Z</time></trkpt><trkpt lat="42.90974449593314" lon="11.856891923067884"><ele>616.0</ele><time>2026-05-04T15:00:58Z</time></trkpt><trkpt lat="42.909673558061655" lon="11.857001803980566"><ele>618.0</ele><time>2026-05-04T15:00:59Z</time></trkpt><trkpt lat="42.90961721318296" lon="11.857088750851391"><ele>620.0</ele><time>2026-05-04T15:01:00Z</time></trkpt><trkpt lat="42.909557152715024" lon="11.85716966643378"><ele>622.0</ele><time>2026-05-04T15:01:01Z</time></trkpt><trkpt lat="42.90949822663599" lon="11.857234546504909"><ele>624.0</ele><time>2026-05-04T15:01:02Z</time></trkpt><trkpt lat="42.90944372050635" lon="11.857295323376073"><ele>626.0</ele><time>2026-05-04T15:01:03Z</time></trkpt><trkpt lat="42.90936568128831" lon="11.857368528706633"><ele>628.0</ele><time>2026-05-04T15:01:04Z</time></trkpt><trkpt lat="42.909279497419476" lon="11.857430825782918"><ele>628.8333333333334</ele><time>2026-05-04T15:01:05Z</time></trkpt><trkpt lat="42.90918601210717" lon="11.857492550008645"><ele>629.6666666666667</ele><time>2026-05-04T15:01:06Z</time></trkpt><trkpt lat="42.90910346992594" lon="11.857547630780655"><ele>630.5</ele><time>2026-05-04T15:01:07Z</time></trkpt><trkpt lat="42.90903089207056" lon="11.857589787825098"><ele>631.3333333333334</ele><time>2026-05-04T15:01:08Z</time></trkpt><trkpt lat="42.908961375907516" lon="11.857615483470012"><ele>632.1666666666666</ele><time>2026-05-04T15:01:09Z</time></trkpt><trkpt lat="42.908887107250614" lon="11.857638208366248"><ele>633.0</ele><time>2026-05-04T15:01:10Z</time></trkpt><trkpt lat="42.90879939310317" lon="11.857664698873696"><ele>633.0</ele><time>2026-05-04T15:01:11Z</time></trkpt><trkpt lat="42.908710993698485" lon="11.857687116269156"><ele>633.0</ele><time>2026-05-04T15:01:12Z</time></trkpt><trkpt lat="42.90861072960761" lon="11.857708408200633"><ele>633.0</ele><time>2026-05-04T15:01:13Z</time></trkpt><trkpt lat="42.90850157648909" lon="11.857735724462122"><ele>633.0</ele><time>2026-05-04T15:01:14Z</time></trkpt><trkpt lat="42.90838639003643" lon="11.857763626946443"><ele>633.0</ele><time>2026-05-04T15:01:15Z</time></trkpt><trkpt lat="42.90826137164938" lon="11.857793602621285"><ele>629.25</ele><time>2026-05-04T15:01:16Z</time></trkpt><trkpt lat="42.90813696110225" lon="11.857818583798432"><ele>625.5</ele><time>2026-05-04T15:01:17Z</time></trkpt><trkpt lat="42.908019949434454" lon="11.85784049190669"><ele>621.75</ele><time>2026-05-04T15:01:18Z</time></trkpt><trkpt lat="42.90791535820496" lon="11.85786260318572"><ele>618.0</ele><time>2026-05-04T15:01:19Z</time></trkpt><trkpt lat="42.90781430052208" lon="11.857872138047444"><ele>618.0</ele><time>2026-05-04T15:01:20Z</time></trkpt><trkpt lat="42.9077126602921" lon="11.85787812466217"><ele>618.0</ele><time>2026-05-04T15:01:21Z</time></trkpt><trkpt lat="42.907622125553694" lon="11.857913406392097"><ele>618.0</ele><time>2026-05-04T15:01:22Z</time></trkpt><trkpt lat="42.90753779898725" lon="11.857938347896585"><ele>618.0</ele><time>2026-05-04T15:01:23Z</time></trkpt><trkpt lat="42.907452135741465" lon="11.85795504620644"><ele>618.0</ele><time>2026-05-04T15:01:24Z</time></trkpt><trkpt lat="42.90737138742121" lon="11.857974117884979"><ele>615.8333333333334</ele><time>2026-05-04T15:01:25Z</time></trkpt><trkpt lat="42.907287478447394" lon="11.857971875221045"><ele>613.6666666666666</ele><time>2026-05-04T15:01:26Z</time></trkpt><trkpt lat="42.907204238570536" lon="11.85798731246199"><ele>611.5</ele><time>2026-05-04T15:01:27Z</time></trkpt><trkpt lat="42.90711589890454" lon="11.858002743120881"><ele>609.3333333333333</ele><time>2026-05-04T15:01:28Z</time></trkpt><trkpt lat="42.907038055123394" lon="11.858016340424719"><ele>607.1666666666666</ele><time>2026-05-04T15:01:29Z</time></trkpt><trkpt lat="42.906955854045904" lon="11.858032120444367"><ele>605.0</ele><time>2026-05-04T15:01:30Z</time></trkpt><trkpt lat="42.90686956208491" lon="11.858050018616112"><ele>605.0</ele><time>2026-05-04T15:01:31Z</time></trkpt><trkpt lat="42.90679110977975" lon="11.858069099202096"><ele>605.0</ele><time>2026-05-04T15:01:32Z</time></trkpt><trkpt lat="42.90671571768995" lon="11.858105464117731"><ele>605.0</ele><time>2026-05-04T15:01:33Z</time></trkpt><trkpt lat="42.90662205843474" lon="11.858126338335756"><ele>605.0</ele><time>2026-05-04T15:01:34Z</time></trkpt><trkpt lat="42.90653377204392" lon="11.858144383340305"><ele>605.0</ele><time>2026-05-04T15:01:35Z</time></trkpt><trkpt lat="42.906449159781886" lon="11.858174083707025"><ele>605.0</ele><time>2026-05-04T15:01:36Z</time></trkpt><trkpt lat="42.906345334818035" lon="11.858208505926578"><ele>601.25</ele><time>2026-05-04T15:01:37Z</time></trkpt><trkpt lat="42.906231076849956" lon="11.85825413823579"><ele>597.5</ele><time>2026-05-04T15:01:38Z</time></trkpt><trkpt lat="42.90611745591611" lon="11.858306439996346"><ele>593.75</ele><time>2026-05-04T15:01:39Z</time></trkpt><trkpt lat="42.906004410099506" lon="11.858353766768227"><ele>590.0</ele><time>2026-05-04T15:01:40Z</time></trkpt><trkpt lat="42.90589378818349" lon="11.858397162000157"><ele>591.0</ele><time>2026-05-04T15:01:41Z</time></trkpt><trkpt lat="42.9057881455992" lon="11.858442144783101"><ele>592.0</ele><time>2026-05-04T15:01:42Z</time></trkpt><trkpt lat="42.905691453245424" lon="11.858485224038002"><ele>593.0</ele><time>2026-05-04T15:01:43Z</time></trkpt><trkpt lat="42.9055837472655" lon="11.85851937555797"><ele>594.0</ele><time>2026-05-04T15:01:44Z</time></trkpt><trkpt lat="42.90549276591659" lon="11.858548759261177"><ele>595.0</ele><time>2026-05-04T15:01:45Z</time></trkpt><trkpt lat="42.90540198693848" lon="11.85858994772052"><ele>595.0</ele><time>2026-05-04T15:01:46Z</time></trkpt><trkpt lat="42.90530924605986" lon="11.858642786099258"><ele>595.0</ele><time>2026-05-04T15:01:47Z</time></trkpt><trkpt lat="42.90522437747025" lon="11.85870163389631"><ele>595.0</ele><time>2026-05-04T15:01:48Z</time></trkpt><trkpt lat="42.905136108724776" lon="11.858766889744858"><ele>595.0</ele><time>2026-05-04T15:01:49Z</time></trkpt><trkpt lat="42.90505892796333" lon="11.858831432868527"><ele>595.0</ele><time>2026-05-04T15:01:50Z</time></trkpt><trkpt lat="42.904978440665715" lon="11.858915819543887"><ele>595.0</ele><time>2026-05-04T15:01:51Z</time></trkpt><trkpt lat="42.90490439857109" lon="11.859021664703208"><ele>595.0</ele><time>2026-05-04T15:01:52Z</time></trkpt><trkpt lat="42.90482493366702" lon="11.85914536036745"><ele>595.0</ele><time>2026-05-04T15:01:53Z</time></trkpt><trkpt lat="42.90473109991546" lon="11.85927874339159"><ele>595.0</ele><time>2026-05-04T15:01:54Z</time></trkpt><trkpt lat="42.90462873668177" lon="11.859425179954266"><ele>595.0</ele><time>2026-05-04T15:01:55Z</time></trkpt><trkpt lat="42.90452896493463" lon="11.859576729589318"><ele>595.0</ele><time>2026-05-04T15:01:56Z</time></trkpt><trkpt lat="42.90443003667299" lon="11.859728152206308"><ele>595.0</ele><time>2026-05-04T15:01:57Z</time></trkpt><trkpt lat="42.90432717060241" lon="11.859879022822668"><ele>595.0</ele><time>2026-05-04T15:01:58Z</time></trkpt><trkpt lat="42.904227428778945" lon="11.860022420081783"><ele>597.0</ele><time>2026-05-04T15:01:59Z</time></trkpt><trkpt lat="42.90412755671491" lon="11.860162643208016"><ele>599.0</ele><time>2026-05-04T15:02:00Z</time></trkpt><trkpt lat="42.904032868762194" lon="11.860291304439567"><ele>601.0</ele><time>2026-05-04T15:02:01Z</time></trkpt><trkpt lat="42.90394332819489" lon="11.860409897850094"><ele>603.0</ele><time>2026-05-04T15:02:02Z</time></trkpt><trkpt lat="42.90387313674071" lon="11.860508479571592"><ele>603.0</ele><time>2026-05-04T15:02:03Z</time></trkpt><trkpt lat="42.90380609104221" lon="11.86062023553696"><ele>603.0</ele><time>2026-05-04T15:02:04Z</time></trkpt><trkpt lat="42.903722065963436" lon="11.860742027899018"><ele>603.0</ele><time>2026-05-04T15:02:05Z</time></trkpt><trkpt lat="42.90363369261492" lon="11.860863556627011"><ele>603.0</ele><time>2026-05-04T15:02:06Z</time></trkpt><trkpt lat="42.90355263399057" lon="11.860978405519232"><ele>603.6666666666666</ele><time>2026-05-04T15:02:07Z</time></trkpt><trkpt lat="42.90349474198972" lon="11.861069874659199"><ele>604.3333333333334</ele><time>2026-05-04T15:02:08Z</time></trkpt><trkpt lat="42.903472382342144" lon="11.86116891533008"><ele>605.0</ele><time>2026-05-04T15:02:09Z</time></trkpt><trkpt lat="42.90346039756833" lon="11.861275019330426"><ele>605.6666666666667</ele><time>2026-05-04T15:02:10Z</time></trkpt><trkpt lat="42.903433497913205" lon="11.86138718023288"><ele>606.3333333333334</ele><time>2026-05-04T15:02:11Z</time></trkpt><trkpt lat="42.90339454927769" lon="11.861496292468104"><ele>607.0</ele><time>2026-05-04T15:02:12Z</time></trkpt><trkpt lat="42.903351274805125" lon="11.861568583138878"><ele>607.0</ele><time>2026-05-04T15:02:13Z</time></trkpt><trkpt lat="42.90325277766311" lon="11.861654095458691"><ele>607.0</ele><time>2026-05-04T15:02:15Z</time></trkpt><trkpt lat="42.90314993324634" lon="11.861746742901408"><ele>607.0</ele><time>2026-05-04T15:02:17Z</time></trkpt><trkpt lat="42.903057040801926" lon="11.86178815693564"><ele>607.0</ele><time>2026-05-04T15:02:18Z</time></trkpt><trkpt lat="42.90294374597726" lon="11.861849404675926"><ele>608.4</ele><time>2026-05-04T15:02:19Z</time></trkpt><trkpt lat="42.90283382754743" lon="11.861912743997928"><ele>609.8000000000001</ele><time>2026-05-04T15:02:20Z</time></trkpt><trkpt lat="42.90274735028088" lon="11.861960097559754"><ele>611.2</ele><time>2026-05-04T15:02:21Z</time></trkpt><trkpt lat="42.902666288674666" lon="11.861996577534324"><ele>612.6</ele><time>2026-05-04T15:02:22Z</time></trkpt><trkpt lat="42.90259022105525" lon="11.862027541281561"><ele>614.0</ele><time>2026-05-04T15:02:23Z</time></trkpt><trkpt lat="42.90251031257966" lon="11.862047683445297"><ele>614.0</ele><time>2026-05-04T15:02:24Z</time></trkpt><trkpt lat="42.90243238138141" lon="11.862043410212808"><ele>614.0</ele><time>2026-05-04T15:02:25Z</time></trkpt><trkpt lat="42.90232939700655" lon="11.86202242453953"><ele>614.0</ele><time>2026-05-04T15:02:26Z</time></trkpt><trkpt lat="42.90222298018986" lon="11.862003420112828"><ele>614.0</ele><time>2026-05-04T15:02:27Z</time></trkpt><trkpt lat="42.90212827283939" lon="11.861990612833619"><ele>614.0</ele><time>2026-05-04T15:02:28Z</time></trkpt><trkpt lat="42.90202954875935" lon="11.861984830619805"><ele>614.0</ele><time>2026-05-04T15:02:29Z</time></trkpt><trkpt lat="42.901927993577225" lon="11.861983947765921"><ele>614.0</ele><time>2026-05-04T15:02:30Z</time></trkpt><trkpt lat="42.901815765988296" lon="11.861981910254704"><ele>614.0</ele><time>2026-05-04T15:02:31Z</time></trkpt><trkpt lat="42.901687859540026" lon="11.861957515097325"><ele>614.0</ele><time>2026-05-04T15:02:32Z</time></trkpt><trkpt lat="42.901560372546136" lon="11.86194626329369"><ele>612.3333333333333</ele><time>2026-05-04T15:02:33Z</time></trkpt><trkpt lat="42.90141633245702" lon="11.861924417066891"><ele>610.6666666666666</ele><time>2026-05-04T15:02:34Z</time></trkpt><trkpt lat="42.90126811162579" lon="11.861906551430058"><ele>609.0</ele><time>2026-05-04T15:02:35Z</time></trkpt><trkpt lat="42.90111162014704" lon="11.86189155238955"><ele>609.0</ele><time>2026-05-04T15:02:36Z</time></trkpt><trkpt lat="42.900940471441714" lon="11.86186919564911"><ele>609.0</ele><time>2026-05-04T15:02:37Z</time></trkpt><trkpt lat="42.90076851674927" lon="11.861853761380578"><ele>609.0</ele><time>2026-05-04T15:02:38Z</time></trkpt><trkpt lat="42.90059049961016" lon="11.861832325555737"><ele>606.3333333333334</ele><time>2026-05-04T15:02:39Z</time></trkpt><trkpt lat="42.90042799228404" lon="11.86181224101351"><ele>603.6666666666667</ele><time>2026-05-04T15:02:40Z</time></trkpt><trkpt lat="42.90027840024351" lon="11.861788770310348"><ele>601.0</ele><time>2026-05-04T15:02:41Z</time></trkpt><trkpt lat="42.90012260373962" lon="11.861768171541142"><ele>595.3333333333334</ele><time>2026-05-04T15:02:42Z</time></trkpt><trkpt lat="42.89996308194456" lon="11.861728024809926"><ele>589.6666666666666</ele><time>2026-05-04T15:02:43Z</time></trkpt><trkpt lat="42.89980659907315" lon="11.861708447064885"><ele>584.0</ele><time>2026-05-04T15:02:44Z</time></trkpt><trkpt lat="42.899647804143754" lon="11.861688684316757"><ele>584.0</ele><time>2026-05-04T15:02:45Z</time></trkpt><trkpt lat="42.89949240082829" lon="11.86167128027795"><ele>584.0</ele><time>2026-05-04T15:02:46Z</time></trkpt><trkpt lat="42.89934139088414" lon="11.861656185649158"><ele>584.0</ele><time>2026-05-04T15:02:47Z</time></trkpt><trkpt lat="42.89918697326786" lon="11.861640750397537"><ele>583.75</ele><time>2026-05-04T15:02:48Z</time></trkpt><trkpt lat="42.899057162648916" lon="11.86162777480972"><ele>583.5</ele><time>2026-05-04T15:02:49Z</time></trkpt><trkpt lat="42.8989439049296" lon="11.861616453810898"><ele>583.25</ele><time>2026-05-04T15:02:50Z</time></trkpt><trkpt lat="42.89883947518906" lon="11.861606015242176"><ele>583.0</ele><time>2026-05-04T15:02:51Z</time></trkpt><trkpt lat="42.89873619331368" lon="11.861595691363876"><ele>583.0</ele><time>2026-05-04T15:02:52Z</time></trkpt><trkpt lat="42.89863493070204" lon="11.861603451322681"><ele>583.0</ele><time>2026-05-04T15:02:53Z</time></trkpt><trkpt lat="42.89851880842673" lon="11.861598165259673"><ele>583.0</ele><time>2026-05-04T15:02:54Z</time></trkpt><trkpt lat="42.89840178449874" lon="11.861564588700611"><ele>583.0</ele><time>2026-05-04T15:02:55Z</time></trkpt><trkpt lat="42.89828977532409" lon="11.861569734987"><ele>583.0</ele><time>2026-05-04T15:02:56Z</time></trkpt><trkpt lat="42.89818288170387" lon="11.861536109303957"><ele>581.8</ele><time>2026-05-04T15:02:57Z</time></trkpt><trkpt lat="42.89807861463828" lon="11.861522604674663"><ele>580.5999999999999</ele><time>2026-05-04T15:02:58Z</time></trkpt><trkpt lat="42.89798179704231" lon="11.86151036789166"><ele>579.4000000000001</ele><time>2026-05-04T15:02:59Z</time></trkpt><trkpt lat="42.89788667087133" lon="11.861499496323795"><ele>578.2</ele><time>2026-05-04T15:03:00Z</time></trkpt><trkpt lat="42.897805024929035" lon="11.86149016535707"><ele>577.0</ele><time>2026-05-04T15:03:01Z</time></trkpt><trkpt lat="42.897721862904106" lon="11.861483337848933"><ele>577.0</ele><time>2026-05-04T15:03:02Z</time></trkpt><trkpt lat="42.897642244688136" lon="11.861489856590456"><ele>577.0</ele><time>2026-05-04T15:03:03Z</time></trkpt><trkpt lat="42.89755897514269" lon="11.861508716330318"><ele>577.0</ele><time>2026-05-04T15:03:04Z</time></trkpt><trkpt lat="42.897479456301745" lon="11.861546003828353"><ele>577.0</ele><time>2026-05-04T15:03:05Z</time></trkpt><trkpt lat="42.89740270415159" lon="11.861586602139843"><ele>577.0</ele><time>2026-05-04T15:03:06Z</time></trkpt><trkpt lat="42.897314020870276" lon="11.861642685971225"><ele>577.0</ele><time>2026-05-04T15:03:07Z</time></trkpt><trkpt lat="42.89722795773834" lon="11.861700224819472"><ele>577.0</ele><time>2026-05-04T15:03:08Z</time></trkpt><trkpt lat="42.89715461146917" lon="11.86177533239806"><ele>577.0</ele><time>2026-05-04T15:03:09Z</time></trkpt><trkpt lat="42.89707936160216" lon="11.861833964411604"><ele>577.0</ele><time>2026-05-04T15:03:10Z</time></trkpt><trkpt lat="42.89699609287434" lon="11.861881495052552"><ele>577.0</ele><time>2026-05-04T15:03:11Z</time></trkpt><trkpt lat="42.896924258961896" lon="11.861953446516996"><ele>577.0</ele><time>2026-05-04T15:03:12Z</time></trkpt><trkpt lat="42.89686079612443" lon="11.862057690646699"><ele>577.0</ele><time>2026-05-04T15:03:13Z</time></trkpt><trkpt lat="42.896786059090495" lon="11.862151023174858"><ele>577.0</ele><time>2026-05-04T15:03:14Z</time></trkpt><trkpt lat="42.89672990912742" lon="11.86224095762826"><ele>577.0</ele><time>2026-05-04T15:03:15Z</time></trkpt><trkpt lat="42.89667314114535" lon="11.862355915457675"><ele>577.0</ele><time>2026-05-04T15:03:16Z</time></trkpt><trkpt lat="42.89662296006763" lon="11.862477754153215"><ele>577.0</ele><time>2026-05-04T15:03:17Z</time></trkpt><trkpt lat="42.89656635086089" lon="11.862602694395147"><ele>576.0</ele><time>2026-05-04T15:03:18Z</time></trkpt><trkpt lat="42.89650593131979" lon="11.86270875882868"><ele>575.0</ele><time>2026-05-04T15:03:19Z</time></trkpt><trkpt lat="42.896432947583854" lon="11.862808548521283"><ele>574.0</ele><time>2026-05-04T15:03:20Z</time></trkpt><trkpt lat="42.89635328091657" lon="11.862887831764365"><ele>573.0</ele><time>2026-05-04T15:03:21Z</time></trkpt><trkpt lat="42.89626888645945" lon="11.862964159172204"><ele>572.0</ele><time>2026-05-04T15:03:22Z</time></trkpt><trkpt lat="42.896168261653216" lon="11.863006968965497"><ele>572.0</ele><time>2026-05-04T15:03:23Z</time></trkpt><trkpt lat="42.896066636787424" lon="11.863069440669983"><ele>572.0</ele><time>2026-05-04T15:03:24Z</time></trkpt><trkpt lat="42.895984915114745" lon="11.863144823033394"><ele>572.0</ele><time>2026-05-04T15:03:25Z</time></trkpt><trkpt lat="42.89592127923262" lon="11.863251942701776"><ele>572.0</ele><time>2026-05-04T15:03:26Z</time></trkpt><trkpt lat="42.89585407730596" lon="11.863343478290508"><ele>572.0</ele><time>2026-05-04T15:03:27Z</time></trkpt><trkpt lat="42.89577571839378" lon="11.863444866081986"><ele>571.4</ele><time>2026-05-04T15:03:28Z</time></trkpt><trkpt lat="42.89571056819481" lon="11.863555556150958"><ele>570.8000000000001</ele><time>2026-05-04T15:03:29Z</time></trkpt><trkpt lat="42.89563227476402" lon="11.863672213854073"><ele>570.2</ele><time>2026-05-04T15:03:30Z</time></trkpt><trkpt lat="42.895572473572756" lon="11.863773926887987"><ele>569.6</ele><time>2026-05-04T15:03:31Z</time></trkpt><trkpt lat="42.89551909186222" lon="11.863863397740248"><ele>569.0</ele><time>2026-05-04T15:03:32Z</time></trkpt><trkpt lat="42.89545178144571" lon="11.864014223938122"><ele>569.0</ele><time>2026-05-04T15:03:34Z</time></trkpt><trkpt lat="42.895422824845454" lon="11.86412137897711"><ele>569.0</ele><time>2026-05-04T15:03:35Z</time></trkpt><trkpt lat="42.89541096156391" lon="11.864228921954586"><ele>569.0</ele><time>2026-05-04T15:03:36Z</time></trkpt><trkpt lat="42.895399475078015" lon="11.864345996272515"><ele>569.0</ele><time>2026-05-04T15:03:37Z</time></trkpt><trkpt lat="42.89534695412389" lon="11.864438644777549"><ele>569.0</ele><time>2026-05-04T15:03:38Z</time></trkpt><trkpt lat="42.89530046551349" lon="11.864523881684695"><ele>569.0</ele><time>2026-05-04T15:03:39Z</time></trkpt><trkpt lat="42.89523962905507" lon="11.864560688790041"><ele>571.1666666666666</ele><time>2026-05-04T15:03:40Z</time></trkpt><trkpt lat="42.89517607695483" lon="11.864553202433562"><ele>573.3333333333333</ele><time>2026-05-04T15:03:41Z</time></trkpt><trkpt lat="42.895110849680854" lon="11.864536093107091"><ele>575.5</ele><time>2026-05-04T15:03:42Z</time></trkpt><trkpt lat="42.89503075663029" lon="11.864516964549113"><ele>577.6666666666666</ele><time>2026-05-04T15:03:43Z</time></trkpt><trkpt lat="42.89494999575159" lon="11.864485538531929"><ele>579.8333333333334</ele><time>2026-05-04T15:03:44Z</time></trkpt><trkpt lat="42.89485037916262" lon="11.864461624906308"><ele>582.0</ele><time>2026-05-04T15:03:45Z</time></trkpt><trkpt lat="42.89475329712631" lon="11.864413062200505"><ele>582.0</ele><time>2026-05-04T15:03:46Z</time></trkpt><trkpt lat="42.894658172482224" lon="11.8644101400299"><ele>582.0</ele><time>2026-05-04T15:03:47Z</time></trkpt><trkpt lat="42.89457853489772" lon="11.864425460030589"><ele>582.0</ele><time>2026-05-04T15:03:48Z</time></trkpt><trkpt lat="42.89451034875777" lon="11.864470730503948"><ele>582.0</ele><time>2026-05-04T15:03:49Z</time></trkpt><trkpt lat="42.89444074683263" lon="11.864536531800276"><ele>582.0</ele><time>2026-05-04T15:03:50Z</time></trkpt><trkpt lat="42.89435266227518" lon="11.864625620654174"><ele>582.0</ele><time>2026-05-04T15:03:51Z</time></trkpt><trkpt lat="42.89425610939998" lon="11.8647282688744"><ele>579.6</ele><time>2026-05-04T15:03:52Z</time></trkpt><trkpt lat="42.89415648353241" lon="11.86484250633462"><ele>577.2</ele><time>2026-05-04T15:03:53Z</time></trkpt><trkpt lat="42.89405952255061" lon="11.864913678421004"><ele>574.8</ele><time>2026-05-04T15:03:54Z</time></trkpt><trkpt lat="42.89396658818769" lon="11.864955766777824"><ele>572.4</ele><time>2026-05-04T15:03:55Z</time></trkpt><trkpt lat="42.8938698115821" lon="11.86497930614487"><ele>570.0</ele><time>2026-05-04T15:03:56Z</time></trkpt><trkpt lat="42.89379214364159" lon="11.864981670488607"><ele>570.0</ele><time>2026-05-04T15:03:57Z</time></trkpt><trkpt lat="42.89371029985172" lon="11.8649767836937"><ele>570.0</ele><time>2026-05-04T15:03:58Z</time></trkpt><trkpt lat="42.8936305963245" lon="11.864980019451167"><ele>570.0</ele><time>2026-05-04T15:03:59Z</time></trkpt><trkpt lat="42.89354533009085" lon="11.864979654901175"><ele>570.0</ele><time>2026-05-04T15:04:00Z</time></trkpt><trkpt lat="42.89345482766989" lon="11.864964931698168"><ele>570.0</ele><time>2026-05-04T15:04:01Z</time></trkpt><trkpt lat="42.89333654167533" lon="11.864969036024318"><ele>569.2</ele><time>2026-05-04T15:04:02Z</time></trkpt><trkpt lat="42.89323004398102" lon="11.864979912352005"><ele>568.4</ele><time>2026-05-04T15:04:03Z</time></trkpt><trkpt lat="42.89313242396556" lon="11.86500039292244"><ele>567.6</ele><time>2026-05-04T15:04:04Z</time></trkpt><trkpt lat="42.89303681785923" lon="11.865043204934095"><ele>566.8</ele><time>2026-05-04T15:04:05Z</time></trkpt><trkpt lat="42.89295661514685" lon="11.865143607187502"><ele>566.0</ele><time>2026-05-04T15:04:06Z</time></trkpt><trkpt lat="42.892893180252265" lon="11.865191346350583"><ele>568.1666666666666</ele><time>2026-05-04T15:04:07Z</time></trkpt><trkpt lat="42.892849017270514" lon="11.86526331051812"><ele>570.3333333333333</ele><time>2026-05-04T15:04:09Z</time></trkpt><trkpt lat="42.89283435025962" lon="11.865349648018269"><ele>572.5</ele><time>2026-05-04T15:04:11Z</time></trkpt><trkpt lat="42.892782060673596" lon="11.865489913492457"><ele>574.6666666666666</ele><time>2026-05-04T15:04:14Z</time></trkpt><trkpt lat="42.89275770100293" lon="11.865594469197587"><ele>576.8333333333334</ele><time>2026-05-04T15:04:15Z</time></trkpt><trkpt lat="42.892751597387466" lon="11.865704507845715"><ele>579.0</ele><time>2026-05-04T15:04:16Z</time></trkpt><trkpt lat="42.892764930420086" lon="11.865824354661147"><ele>582.6</ele><time>2026-05-04T15:04:17Z</time></trkpt><trkpt lat="42.89279502288695" lon="11.865958802556403"><ele>586.2</ele><time>2026-05-04T15:04:18Z</time></trkpt><trkpt lat="42.89283321458193" lon="11.86610137486886"><ele>589.8000000000001</ele><time>2026-05-04T15:04:19Z</time></trkpt><trkpt lat="42.89287101839251" lon="11.86625534202082"><ele>593.4</ele><time>2026-05-04T15:04:20Z</time></trkpt><trkpt lat="42.89289902948315" lon="11.866386806090592"><ele>597.0</ele><time>2026-05-04T15:04:21Z</time></trkpt><trkpt lat="42.8929085997274" lon="11.86650034216526"><ele>597.0</ele><time>2026-05-04T15:04:22Z</time></trkpt><trkpt lat="42.89290433014978" lon="11.866607565948456"><ele>597.0</ele><time>2026-05-04T15:04:23Z</time></trkpt><trkpt lat="42.89287977723815" lon="11.866726835473099"><ele>597.0</ele><time>2026-05-04T15:04:24Z</time></trkpt><trkpt lat="42.89283323079778" lon="11.866845631524425"><ele>597.0</ele><time>2026-05-04T15:04:25Z</time></trkpt><trkpt lat="42.892775226366446" lon="11.866943224211786"><ele>597.0</ele><time>2026-05-04T15:04:26Z</time></trkpt><trkpt lat="42.892706658537094" lon="11.867008778605127"><ele>597.0</ele><time>2026-05-04T15:04:27Z</time></trkpt><trkpt lat="42.8926399401398" lon="11.867035467398702"><ele>598.0</ele><time>2026-05-04T15:04:28Z</time></trkpt><trkpt lat="42.89257317517746" lon="11.86700194800201"><ele>599.0</ele><time>2026-05-04T15:04:29Z</time></trkpt><trkpt lat="42.89250733904067" lon="11.86695754049753"><ele>600.0</ele><time>2026-05-04T15:04:30Z</time></trkpt><trkpt lat="42.89245882480212" lon="11.866858265253907"><ele>601.0</ele><time>2026-05-04T15:04:31Z</time></trkpt><trkpt lat="42.892376253886425" lon="11.866779488635006"><ele>602.0</ele><time>2026-05-04T15:04:32Z</time></trkpt><trkpt lat="42.89230541208691" lon="11.866723492703347"><ele>603.0</ele><time>2026-05-04T15:04:33Z</time></trkpt><trkpt lat="42.89223839306333" lon="11.866694008916497"><ele>603.0</ele><time>2026-05-04T15:04:34Z</time></trkpt><trkpt lat="42.892142141196224" lon="11.86673878875374"><ele>603.0</ele><time>2026-05-04T15:04:35Z</time></trkpt><trkpt lat="42.892050957684454" lon="11.866810575866326"><ele>603.0</ele><time>2026-05-04T15:04:36Z</time></trkpt><trkpt lat="42.89192022249242" lon="11.866875078394864"><ele>603.0</ele><time>2026-05-04T15:04:37Z</time></trkpt><trkpt lat="42.89178514027509" lon="11.866955408489597"><ele>602.25</ele><time>2026-05-04T15:04:38Z</time></trkpt><trkpt lat="42.89165199910431" lon="11.867053850573127"><ele>601.5</ele><time>2026-05-04T15:04:39Z</time></trkpt><trkpt lat="42.89154595030775" lon="11.867139877219472"><ele>600.75</ele><time>2026-05-04T15:04:40Z</time></trkpt><trkpt lat="42.89143612674816" lon="11.867227255198125"><ele>600.0</ele><time>2026-05-04T15:04:41Z</time></trkpt><trkpt lat="42.89133220640613" lon="11.867307058497719"><ele>600.0</ele><time>2026-05-04T15:04:42Z</time></trkpt><trkpt lat="42.89124873158004" lon="11.867389366716285"><ele>600.0</ele><time>2026-05-04T15:04:43Z</time></trkpt><trkpt lat="42.89116112308318" lon="11.86745469533358"><ele>600.0</ele><time>2026-05-04T15:04:44Z</time></trkpt><trkpt lat="42.891073811757266" lon="11.867501466958917"><ele>600.0</ele><time>2026-05-04T15:04:45Z</time></trkpt><trkpt lat="42.890986072504155" lon="11.867482512825838"><ele>600.0</ele><time>2026-05-04T15:04:46Z</time></trkpt><trkpt lat="42.8908944775379" lon="11.867452934193876"><ele>600.0</ele><time>2026-05-04T15:04:47Z</time></trkpt><trkpt lat="42.89077651417604" lon="11.867410249050733"><ele>600.0</ele><time>2026-05-04T15:04:48Z</time></trkpt><trkpt lat="42.89063404367823" lon="11.867355202382125"><ele>600.0</ele><time>2026-05-04T15:04:49Z</time></trkpt><trkpt lat="42.89048772722361" lon="11.867320988702803"><ele>600.0</ele><time>2026-05-04T15:04:50Z</time></trkpt><trkpt lat="42.89037083204042" lon="11.867307613978513"><ele>600.0</ele><time>2026-05-04T15:04:51Z</time></trkpt><trkpt lat="42.89025662754853" lon="11.867320664502895"><ele>600.0</ele><time>2026-05-04T15:04:52Z</time></trkpt><trkpt lat="42.8901435662035" lon="11.867303354229612"><ele>600.0</ele><time>2026-05-04T15:04:53Z</time></trkpt><trkpt lat="42.890026336851136" lon="11.867324897032745"><ele>600.0</ele><time>2026-05-04T15:04:54Z</time></trkpt><trkpt lat="42.88991431414481" lon="11.867367244002754"><ele>601.5</ele><time>2026-05-04T15:04:55Z</time></trkpt><trkpt lat="42.88982727142434" lon="11.867447990129799"><ele>603.0</ele><time>2026-05-04T15:04:56Z</time></trkpt><trkpt lat="42.889727180856134" lon="11.867494773384173"><ele>604.5</ele><time>2026-05-04T15:04:57Z</time></trkpt><trkpt lat="42.88962038772247" lon="11.867580734810236"><ele>606.0</ele><time>2026-05-04T15:04:58Z</time></trkpt><trkpt lat="42.889498290828" lon="11.867678690515456"><ele>606.75</ele><time>2026-05-04T15:04:59Z</time></trkpt><trkpt lat="42.88937719447743" lon="11.867773117879768"><ele>607.5</ele><time>2026-05-04T15:05:00Z</time></trkpt><trkpt lat="42.889270009721976" lon="11.867852478814996"><ele>608.25</ele><time>2026-05-04T15:05:01Z</time></trkpt><trkpt lat="42.88916514568531" lon="11.86791920907365"><ele>609.0</ele><time>2026-05-04T15:05:02Z</time></trkpt><trkpt lat="42.889080358630096" lon="11.867986910158175"><ele>609.0</ele><time>2026-05-04T15:05:03Z</time></trkpt><trkpt lat="42.88901390119914" lon="11.868030032754863"><ele>609.0</ele><time>2026-05-04T15:05:04Z</time></trkpt><trkpt lat="42.88895914910963" lon="11.868085229683633"><ele>609.0</ele><time>2026-05-04T15:05:05Z</time></trkpt><trkpt lat="42.8889186005187" lon="11.868251553877949"><ele>609.0</ele><time>2026-05-04T15:05:07Z</time></trkpt><trkpt lat="42.88890091274775" lon="11.86836916211392"><ele>609.0</ele><time>2026-05-04T15:05:08Z</time></trkpt><trkpt lat="42.88888486642448" lon="11.868505111988865"><ele>610.25</ele><time>2026-05-04T15:05:09Z</time></trkpt><trkpt lat="42.8888586936578" lon="11.868665211429366"><ele>611.5</ele><time>2026-05-04T15:05:10Z</time></trkpt><trkpt lat="42.888816341009274" lon="11.868820750131167"><ele>612.75</ele><time>2026-05-04T15:05:11Z</time></trkpt><trkpt lat="42.88875831992714" lon="11.86897147340954"><ele>614.0</ele><time>2026-05-04T15:05:12Z</time></trkpt><trkpt lat="42.88869029784624" lon="11.869111507457573"><ele>614.0</ele><time>2026-05-04T15:05:13Z</time></trkpt><trkpt lat="42.88862634237514" lon="11.869219707770567"><ele>614.0</ele><time>2026-05-04T15:05:14Z</time></trkpt><trkpt lat="42.88856773644569" lon="11.869306908297018"><ele>614.0</ele><time>2026-05-04T15:05:15Z</time></trkpt><trkpt lat="42.888502682547724" lon="11.86940337181064"><ele>614.0</ele><time>2026-05-04T15:05:16Z</time></trkpt><trkpt lat="42.888433041753935" lon="11.869508229065604"><ele>614.0</ele><time>2026-05-04T15:05:17Z</time></trkpt><trkpt lat="42.88836971592284" lon="11.8696002658146"><ele>614.8</ele><time>2026-05-04T15:05:18Z</time></trkpt><trkpt lat="42.888302742541484" lon="11.869667835036065"><ele>615.5999999999999</ele><time>2026-05-04T15:05:19Z</time></trkpt><trkpt lat="42.88821119523086" lon="11.86972397056258"><ele>616.4</ele><time>2026-05-04T15:05:20Z</time></trkpt><trkpt lat="42.888096747451584" lon="11.86974637970651"><ele>617.1999999999999</ele><time>2026-05-04T15:05:21Z</time></trkpt><trkpt lat="42.88798745881415" lon="11.869810425610689"><ele>618.0</ele><time>2026-05-04T15:05:22Z</time></trkpt><trkpt lat="42.8878900909454" lon="11.869917773195217"><ele>618.0</ele><time>2026-05-04T15:05:23Z</time></trkpt><trkpt lat="42.88776557625282" lon="11.870019116914756"><ele>618.0</ele><time>2026-05-04T15:05:24Z</time></trkpt><trkpt lat="42.88762718726695" lon="11.870137061754981"><ele>618.0</ele><time>2026-05-04T15:05:25Z</time></trkpt><trkpt lat="42.887489232456836" lon="11.870240098791905"><ele>620.75</ele><time>2026-05-04T15:05:26Z</time></trkpt><trkpt lat="42.887347560614245" lon="11.870320186548305"><ele>623.5</ele><time>2026-05-04T15:05:27Z</time></trkpt><trkpt lat="42.88721520135345" lon="11.870382899423165"><ele>626.25</ele><time>2026-05-04T15:05:28Z</time></trkpt><trkpt lat="42.88709645763335" lon="11.870435858867355"><ele>629.0</ele><time>2026-05-04T15:05:29Z</time></trkpt><trkpt lat="42.88699779598451" lon="11.870488104038866"><ele>629.0</ele><time>2026-05-04T15:05:30Z</time></trkpt><trkpt lat="42.88690318217646" lon="11.87055011815383"><ele>629.0</ele><time>2026-05-04T15:05:31Z</time></trkpt><trkpt lat="42.88680929735285" lon="11.870625841258121"><ele>629.0</ele><time>2026-05-04T15:05:32Z</time></trkpt><trkpt lat="42.88672433081093" lon="11.87071165149129"><ele>629.0</ele><time>2026-05-04T15:05:33Z</time></trkpt><trkpt lat="42.8866461084335" lon="11.870791921646127"><ele>629.0</ele><time>2026-05-04T15:05:34Z</time></trkpt><trkpt lat="42.88656668190282" lon="11.870884854264272"><ele>628.2</ele><time>2026-05-04T15:05:35Z</time></trkpt><trkpt lat="42.8864978152391" lon="11.870980466362424"><ele>627.4</ele><time>2026-05-04T15:05:36Z</time></trkpt><trkpt lat="42.886439318142884" lon="11.871081892857955"><ele>626.6</ele><time>2026-05-04T15:05:37Z</time></trkpt><trkpt lat="42.886392799525794" lon="11.871176557737497"><ele>625.8</ele><time>2026-05-04T15:05:38Z</time></trkpt><trkpt lat="42.8863530479305" lon="11.871281355048394"><ele>625.0</ele><time>2026-05-04T15:05:39Z</time></trkpt><trkpt lat="42.88631714118508" lon="11.871395030402184"><ele>625.0</ele><time>2026-05-04T15:05:40Z</time></trkpt><trkpt lat="42.88629092580011" lon="11.871518042727919"><ele>625.0</ele><time>2026-05-04T15:05:41Z</time></trkpt><trkpt lat="42.88627698104668" lon="11.871629385153076"><ele>625.0</ele><time>2026-05-04T15:05:42Z</time></trkpt><trkpt lat="42.886265101075864" lon="11.871739381337697"><ele>625.0</ele><time>2026-05-04T15:05:43Z</time></trkpt><trkpt lat="42.886240335579345" lon="11.871831543535155"><ele>625.0</ele><time>2026-05-04T15:05:44Z</time></trkpt><trkpt lat="42.88615011054605" lon="11.871923213013945"><ele>625.0</ele><time>2026-05-04T15:05:46Z</time></trkpt><trkpt lat="42.88607873011702" lon="11.871901771417038"><ele>626.0</ele><time>2026-05-04T15:05:47Z</time></trkpt><trkpt lat="42.886003522397836" lon="11.871897443879918"><ele>627.0</ele><time>2026-05-04T15:05:48Z</time></trkpt><trkpt lat="42.88592852261356" lon="11.871890015583299"><ele>628.0</ele><time>2026-05-04T15:05:49Z</time></trkpt><trkpt lat="42.88584230281495" lon="11.871883788298968"><ele>629.0</ele><time>2026-05-04T15:05:50Z</time></trkpt><trkpt lat="42.88575030722195" lon="11.871883712717294"><ele>630.0</ele><time>2026-05-04T15:05:51Z</time></trkpt><trkpt lat="42.88565421107386" lon="11.871889222528958"><ele>631.0</ele><time>2026-05-04T15:05:52Z</time></trkpt><trkpt lat="42.88554823440723" lon="11.871903315582975"><ele>631.0</ele><time>2026-05-04T15:05:53Z</time></trkpt><trkpt lat="42.885432215402766" lon="11.871926049634757"><ele>631.0</ele><time>2026-05-04T15:05:54Z</time></trkpt><trkpt lat="42.88530781920638" lon="11.871962339544236"><ele>631.0</ele><time>2026-05-04T15:05:55Z</time></trkpt><trkpt lat="42.88518428570321" lon="11.87200359404675"><ele>631.0</ele><time>2026-05-04T15:05:56Z</time></trkpt><trkpt lat="42.885059276789626" lon="11.872048876167186"><ele>630.8</ele><time>2026-05-04T15:05:57Z</time></trkpt><trkpt lat="42.88494569025949" lon="11.872095808265934"><ele>630.6</ele><time>2026-05-04T15:05:58Z</time></trkpt><trkpt lat="42.88484659215675" lon="11.8721474177323"><ele>630.4</ele><time>2026-05-04T15:05:59Z</time></trkpt><trkpt lat="42.884771110854935" lon="11.872207339842532"><ele>630.2</ele><time>2026-05-04T15:06:00Z</time></trkpt><trkpt lat="42.88470198788648" lon="11.872283149296377"><ele>630.0</ele><time>2026-05-04T15:06:01Z</time></trkpt><trkpt lat="42.88463934248342" lon="11.872368752013875"><ele>630.0</ele><time>2026-05-04T15:06:02Z</time></trkpt><trkpt lat="42.88460627597103" lon="11.872451671762486"><ele>630.0</ele><time>2026-05-04T15:06:03Z</time></trkpt><trkpt lat="42.88454580416516" lon="11.872516028908471"><ele>630.0</ele><time>2026-05-04T15:06:04Z</time></trkpt><trkpt lat="42.88450445140752" lon="11.872581906225482"><ele>630.0</ele><time>2026-05-04T15:06:05Z</time></trkpt><trkpt lat="42.88443926670579" lon="11.872607944993677"><ele>630.0</ele><time>2026-05-04T15:06:06Z</time></trkpt><trkpt lat="42.88435560362651" lon="11.872591966081618"><ele>630.0</ele><time>2026-05-04T15:06:07Z</time></trkpt><trkpt lat="42.88425612663859" lon="11.87257800885311"><ele>629.5</ele><time>2026-05-04T15:06:08Z</time></trkpt><trkpt lat="42.88414604192476" lon="11.872584757947187"><ele>629.0</ele><time>2026-05-04T15:06:09Z</time></trkpt><trkpt lat="42.88405066310671" lon="11.872615850134508"><ele>628.5</ele><time>2026-05-04T15:06:10Z</time></trkpt><trkpt lat="42.883972790656614" lon="11.872617157173151"><ele>628.0</ele><time>2026-05-04T15:06:11Z</time></trkpt><trkpt lat="42.88390178136228" lon="11.872640669897226"><ele>627.5</ele><time>2026-05-04T15:06:12Z</time></trkpt><trkpt lat="42.883820081139184" lon="11.872685834905836"><ele>627.0</ele><time>2026-05-04T15:06:13Z</time></trkpt><trkpt lat="42.88372933332729" lon="11.872754131780022"><ele>626.8000000000001</ele><time>2026-05-04T15:06:14Z</time></trkpt><trkpt lat="42.883641682669754" lon="11.872832480740131"><ele>626.6</ele><time>2026-05-04T15:06:15Z</time></trkpt><trkpt lat="42.88357234688596" lon="11.872907591406157"><ele>626.4000000000001</ele><time>2026-05-04T15:06:16Z</time></trkpt><trkpt lat="42.88351572310928" lon="11.872989064773213"><ele>626.2</ele><time>2026-05-04T15:06:17Z</time></trkpt><trkpt lat="42.883456171563346" lon="11.873075694720793"><ele>626.0</ele><time>2026-05-04T15:06:18Z</time></trkpt><trkpt lat="42.88339654147616" lon="11.873162371061072"><ele>626.0</ele><time>2026-05-04T15:06:19Z</time></trkpt><trkpt lat="42.883326044341665" lon="11.873249322345705"><ele>626.0</ele><time>2026-05-04T15:06:20Z</time></trkpt><trkpt lat="42.88326096679559" lon="11.87330973144404"><ele>626.0</ele><time>2026-05-04T15:06:21Z</time></trkpt><trkpt lat="42.88318356419015" lon="11.873334631849719"><ele>626.0</ele><time>2026-05-04T15:06:22Z</time></trkpt><trkpt lat="42.883101908933746" lon="11.873337441822422"><ele>626.0</ele><time>2026-05-04T15:06:23Z</time></trkpt><trkpt lat="42.883018265070724" lon="11.873317519008106"><ele>626.0</ele><time>2026-05-04T15:06:24Z</time></trkpt><trkpt lat="42.882925751934565" lon="11.87329522591027"><ele>626.0</ele><time>2026-05-04T15:06:25Z</time></trkpt><trkpt lat="42.88283522731014" lon="11.873276939944352"><ele>626.0</ele><time>2026-05-04T15:06:26Z</time></trkpt><trkpt lat="42.88272414555243" lon="11.873254655685162"><ele>626.0</ele><time>2026-05-04T15:06:27Z</time></trkpt><trkpt lat="42.882603438989086" lon="11.873237915933618"><ele>626.0</ele><time>2026-05-04T15:06:28Z</time></trkpt><trkpt lat="42.88247924299875" lon="11.873235478176001"><ele>626.0</ele><time>2026-05-04T15:06:29Z</time></trkpt><trkpt lat="42.882364459418426" lon="11.873262232250598"><ele>625.0</ele><time>2026-05-04T15:06:30Z</time></trkpt><trkpt lat="42.88225117897266" lon="11.873304059197297"><ele>624.0</ele><time>2026-05-04T15:06:31Z</time></trkpt><trkpt lat="42.88212774820877" lon="11.873357404428656"><ele>623.0</ele><time>2026-05-04T15:06:32Z</time></trkpt><trkpt lat="42.88199274372015" lon="11.873393068156092"><ele>622.0</ele><time>2026-05-04T15:06:33Z</time></trkpt><trkpt lat="42.881866712815935" lon="11.873401924406787"><ele>622.0</ele><time>2026-05-04T15:06:34Z</time></trkpt><trkpt lat="42.881741468159355" lon="11.873416888050086"><ele>622.0</ele><time>2026-05-04T15:06:35Z</time></trkpt><trkpt lat="42.881619588002536" lon="11.873436695304791"><ele>622.0</ele><time>2026-05-04T15:06:36Z</time></trkpt><trkpt lat="42.88150581264767" lon="11.873481201177814"><ele>622.0</ele><time>2026-05-04T15:06:37Z</time></trkpt><trkpt lat="42.88140137056857" lon="11.873510063162295"><ele>626.25</ele><time>2026-05-04T15:06:38Z</time></trkpt><trkpt lat="42.88129553511597" lon="11.873546247886445"><ele>630.5</ele><time>2026-05-04T15:06:39Z</time></trkpt><trkpt lat="42.881182612939426" lon="11.873583660745393"><ele>634.75</ele><time>2026-05-04T15:06:40Z</time></trkpt><trkpt lat="42.88107590547848" lon="11.873635257063617"><ele>639.0</ele><time>2026-05-04T15:06:41Z</time></trkpt><trkpt lat="42.88097204325694" lon="11.873706689907117"><ele>637.3333333333334</ele><time>2026-05-04T15:06:42Z</time></trkpt><trkpt lat="42.880876893014076" lon="11.873785745226018"><ele>635.6666666666666</ele><time>2026-05-04T15:06:43Z</time></trkpt><trkpt lat="42.88079194585958" lon="11.873859381187332"><ele>634.0</ele><time>2026-05-04T15:06:44Z</time></trkpt><trkpt lat="42.88072107536174" lon="11.87392366829653"><ele>632.3333333333333</ele><time>2026-05-04T15:06:45Z</time></trkpt><trkpt lat="42.88066155598805" lon="11.873996185518175"><ele>630.6666666666666</ele><time>2026-05-04T15:06:46Z</time></trkpt><trkpt lat="42.880614740572526" lon="11.874054644096976"><ele>629.0</ele><time>2026-05-04T15:06:47Z</time></trkpt><trkpt lat="42.880560702584766" lon="11.874105073156505"><ele>629.0</ele><time>2026-05-04T15:06:48Z</time></trkpt><trkpt lat="42.88045797049828" lon="11.874138897582979"><ele>629.0</ele><time>2026-05-04T15:06:50Z</time></trkpt><trkpt lat="42.88038448799032" lon="11.87402302892944"><ele>629.0</ele><time>2026-05-04T15:06:52Z</time></trkpt><trkpt lat="42.880376827514446" lon="11.873918727780598"><ele>629.0</ele><time>2026-05-04T15:06:53Z</time></trkpt><trkpt lat="42.88032555884429" lon="11.873819897759876"><ele>629.0</ele><time>2026-05-04T15:06:54Z</time></trkpt><trkpt lat="42.88027432994315" lon="11.873721146414375"><ele>629.0</ele><time>2026-05-04T15:06:55Z</time></trkpt><trkpt lat="42.88022579192649" lon="11.873644340588752"><ele>629.0</ele><time>2026-05-04T15:06:56Z</time></trkpt><trkpt lat="42.8801667124344" lon="11.87357753031529"><ele>629.0</ele><time>2026-05-04T15:06:57Z</time></trkpt><trkpt lat="42.880106549640416" lon="11.873533161036637"><ele>629.0</ele><time>2026-05-04T15:06:58Z</time></trkpt><trkpt lat="42.88004168104434" lon="11.873501687226295"><ele>629.0</ele><time>2026-05-04T15:06:59Z</time></trkpt><trkpt lat="42.87997322233212" lon="11.873490832770706"><ele>629.0</ele><time>2026-05-04T15:07:00Z</time></trkpt><trkpt lat="42.879896202945226" lon="11.873484941632231"><ele>629.0</ele><time>2026-05-04T15:07:01Z</time></trkpt><trkpt lat="42.87981804003247" lon="11.873485633051144"><ele>628.5</ele><time>2026-05-04T15:07:02Z</time></trkpt><trkpt lat="42.8797280518448" lon="11.873493523270675"><ele>628.0</ele><time>2026-05-04T15:07:03Z</time></trkpt><trkpt lat="42.87963183803951" lon="11.873506891907605"><ele>627.5</ele><time>2026-05-04T15:07:04Z</time></trkpt><trkpt lat="42.87954457777184" lon="11.87352221859107"><ele>627.0</ele><time>2026-05-04T15:07:05Z</time></trkpt><trkpt lat="42.87946197751757" lon="11.873539260614919"><ele>626.5</ele><time>2026-05-04T15:07:06Z</time></trkpt><trkpt lat="42.87938853231239" lon="11.873558244631663"><ele>626.0</ele><time>2026-05-04T15:07:07Z</time></trkpt><trkpt lat="42.879317375499184" lon="11.873578713890288"><ele>624.8</ele><time>2026-05-04T15:07:08Z</time></trkpt><trkpt lat="42.87925022579319" lon="11.87362022444172"><ele>623.6</ele><time>2026-05-04T15:07:09Z</time></trkpt><trkpt lat="42.87914108661179" lon="11.873650726126154"><ele>622.4</ele><time>2026-05-04T15:07:11Z</time></trkpt><trkpt lat="42.87905816940353" lon="11.873681635554215"><ele>621.2</ele><time>2026-05-04T15:07:13Z</time></trkpt><trkpt lat="42.878961675106616" lon="11.87369392596391"><ele>620.0</ele><time>2026-05-04T15:07:15Z</time></trkpt><trkpt lat="42.87884857895468" lon="11.873749441200497"><ele>620.0</ele><time>2026-05-04T15:07:17Z</time></trkpt><trkpt lat="42.878783855177666" lon="11.873787927946887"><ele>620.0</ele><time>2026-05-04T15:07:18Z</time></trkpt><trkpt lat="42.87870145081286" lon="11.87386520365222"><ele>620.0</ele><time>2026-05-04T15:07:20Z</time></trkpt><trkpt lat="42.87864739542611" lon="11.873931663400958"><ele>620.0</ele><time>2026-05-04T15:07:22Z</time></trkpt><trkpt lat="42.87857701951246" lon="11.874012552627772"><ele>620.0</ele><time>2026-05-04T15:07:25Z</time></trkpt><trkpt lat="42.87852595090867" lon="11.874072128346713"><ele>620.0</ele><time>2026-05-04T15:07:27Z</time></trkpt><trkpt lat="42.87847729091457" lon="11.874135013787537"><ele>618.0</ele><time>2026-05-04T15:07:30Z</time></trkpt><trkpt lat="42.8784303314033" lon="11.874204006046146"><ele>616.0</ele><time>2026-05-04T15:07:33Z</time></trkpt><trkpt lat="42.878354602218884" lon="11.874296095640602"><ele>614.0</ele><time>2026-05-04T15:07:36Z</time></trkpt><trkpt lat="42.87827549352476" lon="11.874410555468653"><ele>612.0</ele><time>2026-05-04T15:07:38Z</time></trkpt><trkpt lat="42.87819954478929" lon="11.874514987504792"><ele>610.0</ele><time>2026-05-04T15:07:40Z</time></trkpt><trkpt lat="42.87815034981407" lon="11.874579058808997"><ele>610.0</ele><time>2026-05-04T15:07:42Z</time></trkpt><trkpt lat="42.87804430929823" lon="11.874631907869754"><ele>610.0</ele><time>2026-05-04T15:07:45Z</time></trkpt><trkpt lat="42.87796687380213" lon="11.874685786785177"><ele>610.0</ele><time>2026-05-04T15:07:46Z</time></trkpt><trkpt lat="42.87787524679567" lon="11.874728519845009"><ele>610.0</ele><time>2026-05-04T15:07:47Z</time></trkpt><trkpt lat="42.877775286324315" lon="11.87481602479914"><ele>610.0</ele><time>2026-05-04T15:07:48Z</time></trkpt><trkpt lat="42.87766944980974" lon="11.874937873119675"><ele>607.3333333333334</ele><time>2026-05-04T15:07:49Z</time></trkpt><trkpt lat="42.877560937676535" lon="11.87508096294669"><ele>604.6666666666666</ele><time>2026-05-04T15:07:50Z</time></trkpt><trkpt lat="42.877447883759" lon="11.875237844105008"><ele>602.0</ele><time>2026-05-04T15:07:51Z</time></trkpt><trkpt lat="42.8773404271749" lon="11.87538232432256"><ele>601.5</ele><time>2026-05-04T15:07:52Z</time></trkpt><trkpt lat="42.87723932671115" lon="11.875503584031774"><ele>601.0</ele><time>2026-05-04T15:07:53Z</time></trkpt><trkpt lat="42.87713042061978" lon="11.87560595767348"><ele>600.5</ele><time>2026-05-04T15:07:54Z</time></trkpt><trkpt lat="42.87701628577115" lon="11.875688395641655"><ele>600.0</ele><time>2026-05-04T15:07:55Z</time></trkpt><trkpt lat="42.87689352501114" lon="11.875707429570433"><ele>598.75</ele><time>2026-05-04T15:07:56Z</time></trkpt><trkpt lat="42.87676398972414" lon="11.875665902369603"><ele>597.5</ele><time>2026-05-04T15:07:57Z</time></trkpt><trkpt lat="42.87662656446013" lon="11.875608469643039"><ele>596.25</ele><time>2026-05-04T15:07:58Z</time></trkpt><trkpt lat="42.8764752447907" lon="11.875554264092438"><ele>595.0</ele><time>2026-05-04T15:07:59Z</time></trkpt><trkpt lat="42.8763097899043" lon="11.875499999373732"><ele>595.0</ele><time>2026-05-04T15:08:00Z</time></trkpt><trkpt lat="42.87613808324698" lon="11.875447323658971"><ele>595.0</ele><time>2026-05-04T15:08:01Z</time></trkpt><trkpt lat="42.87597144208244" lon="11.875397639466263"><ele>595.0</ele><time>2026-05-04T15:08:02Z</time></trkpt><trkpt lat="42.87580241309047" lon="11.875357832795586"><ele>593.0</ele><time>2026-05-04T15:08:03Z</time></trkpt><trkpt lat="42.8756323933694" lon="11.875331764953945"><ele>591.0</ele><time>2026-05-04T15:08:04Z</time></trkpt><trkpt lat="42.875440311381276" lon="11.87531560163032"><ele>589.0</ele><time>2026-05-04T15:08:05Z</time></trkpt><trkpt lat="42.87526313589489" lon="11.875342329879773"><ele>587.6666666666667</ele><time>2026-05-04T15:08:06Z</time></trkpt><trkpt lat="42.875094761505096" lon="11.87539077613274"><ele>586.3333333333334</ele><time>2026-05-04T15:08:07Z</time></trkpt><trkpt lat="42.874940470672975" lon="11.875423228423973"><ele>585.0</ele><time>2026-05-04T15:08:08Z</time></trkpt><trkpt lat="42.87481242479177" lon="11.875494164422244"><ele>585.0</ele><time>2026-05-04T15:08:09Z</time></trkpt><trkpt lat="42.87469610158128" lon="11.875609775219228"><ele>585.0</ele><time>2026-05-04T15:08:10Z</time></trkpt><trkpt lat="42.874595212514656" lon="11.875757210752516"><ele>585.0</ele><time>2026-05-04T15:08:11Z</time></trkpt><trkpt lat="42.87449162724651" lon="11.875881925342766"><ele>585.0</ele><time>2026-05-04T15:08:12Z</time></trkpt><trkpt lat="42.87436855561848" lon="11.87595894289981"><ele>583.5</ele><time>2026-05-04T15:08:13Z</time></trkpt><trkpt lat="42.87423957786139" lon="11.875883618730919"><ele>582.0</ele><time>2026-05-04T15:08:14Z</time></trkpt><trkpt lat="42.87408875475897" lon="11.875839409846375"><ele>580.5</ele><time>2026-05-04T15:08:15Z</time></trkpt><trkpt lat="42.873944317022364" lon="11.87580161009692"><ele>579.0</ele><time>2026-05-04T15:08:16Z</time></trkpt><trkpt lat="42.873813901931136" lon="11.875772686579547"><ele>579.0</ele><time>2026-05-04T15:08:17Z</time></trkpt><trkpt lat="42.873703939588566" lon="11.875757782605126"><ele>579.0</ele><time>2026-05-04T15:08:18Z</time></trkpt><trkpt lat="42.873624712580124" lon="11.875740881717052"><ele>579.0</ele><time>2026-05-04T15:08:19Z</time></trkpt><trkpt lat="42.87356711944423" lon="11.875700539123933"><ele>579.0</ele><time>2026-05-04T15:08:21Z</time></trkpt><trkpt lat="42.873516207216745" lon="11.875774676310865"><ele>579.0</ele><time>2026-05-04T15:08:24Z</time></trkpt><trkpt lat="42.873473231633504" lon="11.87586806159229"><ele>579.0</ele><time>2026-05-04T15:08:25Z</time></trkpt><trkpt lat="42.8734239082908" lon="11.875998620253924"><ele>577.0</ele><time>2026-05-04T15:08:26Z</time></trkpt><trkpt lat="42.87336700857667" lon="11.876139702070217"><ele>575.0</ele><time>2026-05-04T15:08:27Z</time></trkpt><trkpt lat="42.87330075962284" lon="11.87628625507782"><ele>573.0</ele><time>2026-05-04T15:08:28Z</time></trkpt><trkpt lat="42.873213798425205" lon="11.876433753033421"><ele>571.0</ele><time>2026-05-04T15:08:29Z</time></trkpt><trkpt lat="42.87310220586006" lon="11.876547810949694"><ele>571.0</ele><time>2026-05-04T15:08:30Z</time></trkpt><trkpt lat="42.87300709515807" lon="11.87668282160491"><ele>571.0</ele><time>2026-05-04T15:08:31Z</time></trkpt><trkpt lat="42.87290916447129" lon="11.876793079977313"><ele>571.0</ele><time>2026-05-04T15:08:32Z</time></trkpt><trkpt lat="42.87282662026015" lon="11.876889494613273"><ele>571.0</ele><time>2026-05-04T15:08:33Z</time></trkpt><trkpt lat="42.8727482100121" lon="11.876957991487732"><ele>573.0</ele><time>2026-05-04T15:08:34Z</time></trkpt><trkpt lat="42.87260182709222" lon="11.876876040190192"><ele>575.0</ele><time>2026-05-04T15:08:36Z</time></trkpt><trkpt lat="42.872489384281046" lon="11.876821483151486"><ele>577.0</ele><time>2026-05-04T15:08:37Z</time></trkpt><trkpt lat="42.872359395013646" lon="11.876796235288692"><ele>579.0</ele><time>2026-05-04T15:08:38Z</time></trkpt><trkpt lat="42.872211791188626" lon="11.876786044470844"><ele>579.0</ele><time>2026-05-04T15:08:39Z</time></trkpt><trkpt lat="42.872055979977645" lon="11.876798467409118"><ele>579.0</ele><time>2026-05-04T15:08:40Z</time></trkpt><trkpt lat="42.87193505623991" lon="11.876808973663579"><ele>579.0</ele><time>2026-05-04T15:08:41Z</time></trkpt><trkpt lat="42.87184682193972" lon="11.876782065432803"><ele>579.0</ele><time>2026-05-04T15:08:42Z</time></trkpt><trkpt lat="42.87174156703113" lon="11.876911835540314"><ele>579.75</ele><time>2026-05-04T15:08:43Z</time></trkpt><trkpt lat="42.87162727641629" lon="11.87696857996338"><ele>580.5</ele><time>2026-05-04T15:08:44Z</time></trkpt><trkpt lat="42.871507852685795" lon="11.87701171659717"><ele>581.25</ele><time>2026-05-04T15:08:45Z</time></trkpt><trkpt lat="42.87139750630377" lon="11.87706784424603"><ele>582.0</ele><time>2026-05-04T15:08:46Z</time></trkpt><trkpt lat="42.871291540307034" lon="11.877141640355976"><ele>582.0</ele><time>2026-05-04T15:08:47Z</time></trkpt><trkpt lat="42.87118880038715" lon="11.87720449049154"><ele>582.0</ele><time>2026-05-04T15:08:48Z</time></trkpt><trkpt lat="42.871091278216866" lon="11.877264065554398"><ele>582.0</ele><time>2026-05-04T15:08:49Z</time></trkpt><trkpt lat="42.87099913675825" lon="11.877319968188425"><ele>582.0</ele><time>2026-05-04T15:08:50Z</time></trkpt><trkpt lat="42.870908756374504" lon="11.87737881833431"><ele>582.0</ele><time>2026-05-04T15:08:51Z</time></trkpt><trkpt lat="42.870822159259234" lon="11.877444830259217"><ele>581.4</ele><time>2026-05-04T15:08:52Z</time></trkpt><trkpt lat="42.870741754557635" lon="11.877513639049402"><ele>580.8000000000001</ele><time>2026-05-04T15:08:53Z</time></trkpt><trkpt lat="42.87068002971329" lon="11.877593256855494"><ele>580.2</ele><time>2026-05-04T15:08:54Z</time></trkpt><trkpt lat="42.87063427513574" lon="11.877693419766366"><ele>579.6</ele><time>2026-05-04T15:08:55Z</time></trkpt><trkpt lat="42.87058495463443" lon="11.877811448866812"><ele>579.0</ele><time>2026-05-04T15:08:56Z</time></trkpt><trkpt lat="42.87053406270432" lon="11.877960411951014"><ele>581.75</ele><time>2026-05-04T15:08:57Z</time></trkpt><trkpt lat="42.87047484116769" lon="11.878119907419206"><ele>584.5</ele><time>2026-05-04T15:08:58Z</time></trkpt><trkpt lat="42.87041570592536" lon="11.878270738587362"><ele>587.25</ele><time>2026-05-04T15:08:59Z</time></trkpt><trkpt lat="42.87036374137381" lon="11.878413723645581"><ele>590.0</ele><time>2026-05-04T15:09:00Z</time></trkpt><trkpt lat="42.87029816847301" lon="11.878507601769861"><ele>591.8333333333333</ele><time>2026-05-04T15:09:01Z</time></trkpt><trkpt lat="42.870258384263316" lon="11.87860064230942"><ele>593.6666666666666</ele><time>2026-05-04T15:09:02Z</time></trkpt><trkpt lat="42.87022826010711" lon="11.878682211297635"><ele>595.5</ele><time>2026-05-04T15:09:03Z</time></trkpt><trkpt lat="42.87024249799513" lon="11.878852619242569"><ele>597.3333333333334</ele><time>2026-05-04T15:09:05Z</time></trkpt><trkpt lat="42.870247155513496" lon="11.878961340989544"><ele>599.1666666666667</ele><time>2026-05-04T15:09:06Z</time></trkpt><trkpt lat="42.87025210856935" lon="11.879078383742778"><ele>601.0</ele><time>2026-05-04T15:09:07Z</time></trkpt><trkpt lat="42.87025738256993" lon="11.879208149127145"><ele>601.4</ele><time>2026-05-04T15:09:08Z</time></trkpt><trkpt lat="42.87026781887857" lon="11.879326944364601"><ele>601.8</ele><time>2026-05-04T15:09:09Z</time></trkpt><trkpt lat="42.87027651848358" lon="11.879442957208846"><ele>602.1999999999999</ele><time>2026-05-04T15:09:10Z</time></trkpt><trkpt lat="42.87027954387908" lon="11.879571854912058"><ele>602.6</ele><time>2026-05-04T15:09:11Z</time></trkpt><trkpt lat="42.87027492114855" lon="11.879713826000138"><ele>603.0</ele><time>2026-05-04T15:09:12Z</time></trkpt><trkpt lat="42.87024576776333" lon="11.879852246514927"><ele>603.0</ele><time>2026-05-04T15:09:13Z</time></trkpt><trkpt lat="42.870224131899334" lon="11.879945146252881"><ele>603.0</ele><time>2026-05-04T15:09:14Z</time></trkpt><trkpt lat="42.87021184844094" lon="11.880106385619582"><ele>603.0</ele><time>2026-05-04T15:09:16Z</time></trkpt><trkpt lat="42.87029432952912" lon="11.880245701499307"><ele>603.0</ele><time>2026-05-04T15:09:18Z</time></trkpt><trkpt lat="42.870363712892534" lon="11.88024212367761"><ele>603.0</ele><time>2026-05-04T15:09:19Z</time></trkpt><trkpt lat="42.87042915114588" lon="11.880245914935086"><ele>603.6666666666666</ele><time>2026-05-04T15:09:20Z</time></trkpt><trkpt lat="42.87050311087131" lon="11.880244443918336"><ele>604.3333333333334</ele><time>2026-05-04T15:09:21Z</time></trkpt><trkpt lat="42.87058381951509" lon="11.880240958641854"><ele>605.0</ele><time>2026-05-04T15:09:22Z</time></trkpt><trkpt lat="42.87067613151783" lon="11.880228475270822"><ele>605.6666666666667</ele><time>2026-05-04T15:09:23Z</time></trkpt><trkpt lat="42.87074587407657" lon="11.880225036919597"><ele>606.3333333333334</ele><time>2026-05-04T15:09:24Z</time></trkpt><trkpt lat="42.870810151679144" lon="11.880254131940184"><ele>607.0</ele><time>2026-05-04T15:09:25Z</time></trkpt><trkpt lat="42.87086892220903" lon="11.880402960162533"><ele>607.0</ele><time>2026-05-04T15:09:27Z</time></trkpt><trkpt lat="42.87089220372345" lon="11.880524410731205"><ele>607.0</ele><time>2026-05-04T15:09:28Z</time></trkpt><trkpt lat="42.870908616530805" lon="11.880651590639152"><ele>607.0</ele><time>2026-05-04T15:09:29Z</time></trkpt><trkpt lat="42.870925178203464" lon="11.88081216017957"><ele>607.0</ele><time>2026-05-04T15:09:30Z</time></trkpt><trkpt lat="42.87094996207396" lon="11.880985606903918"><ele>607.0</ele><time>2026-05-04T15:09:31Z</time></trkpt><trkpt lat="42.87096905119047" lon="11.881144723202237"><ele>606.0</ele><time>2026-05-04T15:09:32Z</time></trkpt><trkpt lat="42.87097842248579" lon="11.881296342649364"><ele>605.0</ele><time>2026-05-04T15:09:33Z</time></trkpt><trkpt lat="42.870980752504586" lon="11.88148195407717"><ele>604.0</ele><time>2026-05-04T15:09:34Z</time></trkpt><trkpt lat="42.87097828600465" lon="11.881679305605203"><ele>603.0</ele><time>2026-05-04T15:09:35Z</time></trkpt><trkpt lat="42.87096760141285" lon="11.881884926551406"><ele>605.0</ele><time>2026-05-04T15:09:36Z</time></trkpt><trkpt lat="42.870945300411016" lon="11.88205944646564"><ele>607.0</ele><time>2026-05-04T15:09:36.999Z</time></trkpt><trkpt lat="42.87092507629865" lon="11.88220740015524"><ele>609.0</ele><time>2026-05-04T15:09:37.999Z</time></trkpt><trkpt lat="42.87091722286885" lon="11.882338945461523"><ele>611.0</ele><time>2026-05-04T15:09:38.999Z</time></trkpt><trkpt lat="42.87092768270629" lon="11.882442302986227"><ele>613.0</ele><time>2026-05-04T15:09:39.999Z</time></trkpt><trkpt lat="42.87095318294821" lon="11.882521868162051"><ele>613.0</ele><time>2026-05-04T15:09:40.999Z</time></trkpt><trkpt lat="42.870999680723834" lon="11.882589148529801"><ele>613.0</ele><time>2026-05-04T15:09:41.999Z</time></trkpt><trkpt lat="42.8710525331808" lon="11.88264330172734"><ele>613.0</ele><time>2026-05-04T15:09:42.999Z</time></trkpt><trkpt lat="42.87110377169762" lon="11.882719104974614"><ele>613.0</ele><time>2026-05-04T15:09:43.999Z</time></trkpt><trkpt lat="42.87111959839319" lon="11.88280648134545"><ele>613.0</ele><time>2026-05-04T15:09:44.999Z</time></trkpt><trkpt lat="42.871119631464914" lon="11.882919318043458"><ele>613.0</ele><time>2026-05-04T15:09:45.999Z</time></trkpt><trkpt lat="42.87110863411527" lon="11.883035289404374"><ele>613.0</ele><time>2026-05-04T15:09:46.999Z</time></trkpt><trkpt lat="42.87109783756392" lon="11.883174350280258"><ele>616.0</ele><time>2026-05-04T15:09:47.999Z</time></trkpt><trkpt lat="42.87109544905181" lon="11.883331829843168"><ele>619.0</ele><time>2026-05-04T15:09:48.999Z</time></trkpt><trkpt lat="42.87109946736722" lon="11.883506280737686"><ele>622.0</ele><time>2026-05-04T15:09:49.999Z</time></trkpt><trkpt lat="42.87111525521861" lon="11.883686672300797"><ele>625.0</ele><time>2026-05-04T15:09:50.999Z</time></trkpt><trkpt lat="42.87113584128357" lon="11.883851048122498"><ele>625.0</ele><time>2026-05-04T15:09:51.999Z</time></trkpt><trkpt lat="42.87115123974874" lon="11.884005956224913"><ele>625.0</ele><time>2026-05-04T15:09:52.999Z</time></trkpt><trkpt lat="42.871156219104385" lon="11.884157540213073"><ele>625.0</ele><time>2026-05-04T15:09:53.999Z</time></trkpt><trkpt lat="42.871150493432694" lon="11.884315319432003"><ele>625.0</ele><time>2026-05-04T15:09:54.999Z</time></trkpt><trkpt lat="42.87113092469084" lon="11.884473314825934"><ele>625.25</ele><time>2026-05-04T15:09:55.999Z</time></trkpt><trkpt lat="42.87111100846158" lon="11.884626323439276"><ele>625.5</ele><time>2026-05-04T15:09:56.999Z</time></trkpt><trkpt lat="42.87109347840233" lon="11.884798798451278"><ele>625.75</ele><time>2026-05-04T15:09:57.999Z</time></trkpt><trkpt lat="42.87107872239528" lon="11.884980292797604"><ele>626.0</ele><time>2026-05-04T15:09:58.999Z</time></trkpt><trkpt lat="42.871063899813564" lon="11.885168507496207"><ele>625.0</ele><time>2026-05-04T15:09:59.999Z</time></trkpt><trkpt lat="42.87106629953127" lon="11.885368961016583"><ele>624.0</ele><time>2026-05-04T15:10:00.999Z</time></trkpt><trkpt lat="42.8710616132564" lon="11.885572792673031"><ele>623.0</ele><time>2026-05-04T15:10:01.999Z</time></trkpt><trkpt lat="42.87106500276415" lon="11.885792084794348"><ele>625.3333333333333</ele><time>2026-05-04T15:10:02.999Z</time></trkpt><trkpt lat="42.87105963723114" lon="11.886012804111797"><ele>627.6666666666666</ele><time>2026-05-04T15:10:03.999Z</time></trkpt><trkpt lat="42.8710460487261" lon="11.88623695541564"><ele>630.0</ele><time>2026-05-04T15:10:04.999Z</time></trkpt><trkpt lat="42.87103140486148" lon="11.886448948135975"><ele>630.0</ele><time>2026-05-04T15:10:05.999Z</time></trkpt><trkpt lat="42.87101634739391" lon="11.88665625615362"><ele>630.0</ele><time>2026-05-04T15:10:06.999Z</time></trkpt><trkpt lat="42.87101161830117" lon="11.886824364417889"><ele>630.0</ele><time>2026-05-04T15:10:07.999Z</time></trkpt><trkpt lat="42.8710165246632" lon="11.886966664948144"><ele>630.0</ele><time>2026-05-04T15:10:08.999Z</time></trkpt><trkpt lat="42.8710344970172" lon="11.887076180015193"><ele>631.8</ele><time>2026-05-04T15:10:09.999Z</time></trkpt><trkpt lat="42.87105691525892" lon="11.887163360701955"><ele>633.6</ele><time>2026-05-04T15:10:10.999Z</time></trkpt><trkpt lat="42.87113001766754" lon="11.887310977989422"><ele>635.4</ele><time>2026-05-04T15:10:12.999Z</time></trkpt><trkpt lat="42.8711727656444" lon="11.887382133889234"><ele>637.2</ele><time>2026-05-04T15:10:13.999Z</time></trkpt><trkpt lat="42.87123064796248" lon="11.887474638932204"><ele>639.0</ele><time>2026-05-04T15:10:14.999Z</time></trkpt><trkpt lat="42.87128232771578" lon="11.887587099555615"><ele>639.8</ele><time>2026-05-04T15:10:15.999Z</time></trkpt><trkpt lat="42.87131032879663" lon="11.887698567606607"><ele>640.5999999999999</ele><time>2026-05-04T15:10:16.999Z</time></trkpt><trkpt lat="42.87131680607213" lon="11.887825656899546"><ele>641.4</ele><time>2026-05-04T15:10:17.999Z</time></trkpt><trkpt lat="42.87132049608927" lon="11.887988592285746"><ele>642.1999999999999</ele><time>2026-05-04T15:10:18.999Z</time></trkpt><trkpt lat="42.87132188349847" lon="11.88815960281044"><ele>643.0</ele><time>2026-05-04T15:10:19.999Z</time></trkpt><trkpt lat="42.87132924720031" lon="11.888338638148802"><ele>644.0</ele><time>2026-05-04T15:10:20.999Z</time></trkpt><trkpt lat="42.871341446148705" lon="11.888520168043504"><ele>645.0</ele><time>2026-05-04T15:10:21.999Z</time></trkpt><trkpt lat="42.87136185985967" lon="11.888703380777295"><ele>646.0</ele><time>2026-05-04T15:10:22.999Z</time></trkpt><trkpt lat="42.87139111314998" lon="11.888883962938422"><ele>647.0</ele><time>2026-05-04T15:10:23.999Z</time></trkpt><trkpt lat="42.87143448953958" lon="11.889046932035477"><ele>647.0</ele><time>2026-05-04T15:10:24.999Z</time></trkpt><trkpt lat="42.87149176892973" lon="11.889202026705318"><ele>647.0</ele><time>2026-05-04T15:10:25.999Z</time></trkpt><trkpt lat="42.87155692466967" lon="11.88935881148233"><ele>647.0</ele><time>2026-05-04T15:10:26.999Z</time></trkpt><trkpt lat="42.87162446049159" lon="11.889518476130434"><ele>647.0</ele><time>2026-05-04T15:10:27.999Z</time></trkpt><trkpt lat="42.87169777332156" lon="11.889696548013871"><ele>648.0</ele><time>2026-05-04T15:10:28.999Z</time></trkpt><trkpt lat="42.87177696760694" lon="11.889892554732173"><ele>649.0</ele><time>2026-05-04T15:10:29.999Z</time></trkpt><trkpt lat="42.871852497036585" lon="11.890083074327103"><ele>650.0</ele><time>2026-05-04T15:10:30.999Z</time></trkpt><trkpt lat="42.87193358690465" lon="11.890284454882444"><ele>653.25</ele><time>2026-05-04T15:10:31.999Z</time></trkpt><trkpt lat="42.87200943942786" lon="11.89047523429982"><ele>656.5</ele><time>2026-05-04T15:10:32.999Z</time></trkpt><trkpt lat="42.87206136982847" lon="11.890616626713031"><ele>659.75</ele><time>2026-05-04T15:10:33.999Z</time></trkpt><trkpt lat="42.8720951614928" lon="11.890722210448398"><ele>663.0</ele><time>2026-05-04T15:10:34.999Z</time></trkpt><trkpt lat="42.872099524318294" lon="11.890862600619196"><ele>663.0</ele><time>2026-05-04T15:10:36.999Z</time></trkpt><trkpt lat="42.87199682320961" lon="11.890875609410367"><ele>663.0</ele><time>2026-05-04T15:10:37.999Z</time></trkpt><trkpt lat="42.871939451353164" lon="11.89097693591164"><ele>663.0</ele><time>2026-05-04T15:10:39.999Z</time></trkpt><trkpt lat="42.871948464520685" lon="11.89106657980119"><ele>663.0</ele><time>2026-05-04T15:10:41.999Z</time></trkpt><trkpt lat="42.8720009594443" lon="11.891125613285416"><ele>663.0</ele><time>2026-05-04T15:10:42.999Z</time></trkpt><trkpt lat="42.8720701788917" lon="11.89116878447079"><ele>663.0</ele><time>2026-05-04T15:10:43.999Z</time></trkpt><trkpt lat="42.87215868960695" lon="11.891229850443708"><ele>666.4</ele><time>2026-05-04T15:10:44.999Z</time></trkpt><trkpt lat="42.872250283046746" lon="11.891300358018345"><ele>669.8</ele><time>2026-05-04T15:10:45.999Z</time></trkpt><trkpt lat="42.87231349775966" lon="11.891380673573012"><ele>673.2</ele><time>2026-05-04T15:10:46.999Z</time></trkpt><trkpt lat="42.87233878982617" lon="11.891537756997865"><ele>676.6</ele><time>2026-05-04T15:10:48.999Z</time></trkpt><trkpt lat="42.872265684098934" lon="11.891627096749405"><ele>680.0</ele><time>2026-05-04T15:10:50.999Z</time></trkpt><trkpt lat="42.872161696606234" lon="11.891630608886365"><ele>680.0</ele><time>2026-05-04T15:10:52.999Z</time></trkpt><trkpt lat="42.87208783879924" lon="11.891668928339666"><ele>680.0</ele><time>2026-05-04T15:10:53.999Z</time></trkpt><trkpt lat="42.87202625259129" lon="11.89174050255629"><ele>680.0</ele><time>2026-05-04T15:10:54.999Z</time></trkpt><trkpt lat="42.87197358294877" lon="11.891798259491491"><ele>680.0</ele><time>2026-05-04T15:10:55.999Z</time></trkpt><trkpt lat="42.87192482516824" lon="11.891875424718071"><ele>680.0</ele><time>2026-05-04T15:10:56.999Z</time></trkpt><trkpt lat="42.87187890527541" lon="11.8919816636732"><ele>680.0</ele><time>2026-05-04T15:10:57.999Z</time></trkpt><trkpt lat="42.87184404365069" lon="11.892079901369547"><ele>682.2</ele><time>2026-05-04T15:10:58.999Z</time></trkpt><trkpt lat="42.871819036365075" lon="11.89218078707623"><ele>684.4</ele><time>2026-05-04T15:10:59.999Z</time></trkpt><trkpt lat="42.87184050426238" lon="11.892337789329202"><ele>686.5999999999999</ele><time>2026-05-04T15:11:01.999Z</time></trkpt><trkpt lat="42.87192783676551" lon="11.892460769344927"><ele>688.8</ele><time>2026-05-04T15:11:03.999Z</time></trkpt><trkpt lat="42.871991995859155" lon="11.892515365314178"><ele>691.0</ele><time>2026-05-04T15:11:04.999Z</time></trkpt><trkpt lat="42.87205650135732" lon="11.89258289655912"><ele>693.0</ele><time>2026-05-04T15:11:05.999Z</time></trkpt><trkpt lat="42.87210638575928" lon="11.892645226070668"><ele>695.0</ele><time>2026-05-04T15:11:06.999Z</time></trkpt><trkpt lat="42.87210656631893" lon="11.892761770541979"><ele>697.0</ele><time>2026-05-04T15:11:07.999Z</time></trkpt><trkpt lat="42.87203928622128" lon="11.892875907663557"><ele>699.0</ele><time>2026-05-04T15:11:09.999Z</time></trkpt><trkpt lat="42.87198834916509" lon="11.893008670374284"><ele>701.0</ele><time>2026-05-04T15:11:11.999Z</time></trkpt><trkpt lat="42.87197157636403" lon="11.89309991969935"><ele>703.0</ele><time>2026-05-04T15:11:12.999Z</time></trkpt><trkpt lat="42.87200388171653" lon="11.893231665657789"><ele>703.0</ele><time>2026-05-04T15:11:14.999Z</time></trkpt><trkpt lat="42.87208129577272" lon="11.89332848184927"><ele>703.0</ele><time>2026-05-04T15:11:16.999Z</time></trkpt><trkpt lat="42.87213504669639" lon="11.893396319791062"><ele>703.0</ele><time>2026-05-04T15:11:17.999Z</time></trkpt><trkpt lat="42.87219501257987" lon="11.893488304883594"><ele>703.0</ele><time>2026-05-04T15:11:18.999Z</time></trkpt><trkpt lat="42.87224284454393" lon="11.893591721947736"><ele>703.0</ele><time>2026-05-04T15:11:19.999Z</time></trkpt><trkpt lat="42.872289216618064" lon="11.893713642696557"><ele>705.0</ele><time>2026-05-04T15:11:20.999Z</time></trkpt><trkpt lat="42.87232789351494" lon="11.89384664158517"><ele>707.0</ele><time>2026-05-04T15:11:21.999Z</time></trkpt><trkpt lat="42.87235985912602" lon="11.893982923167215"><ele>709.0</ele><time>2026-05-04T15:11:22.999Z</time></trkpt><trkpt lat="42.8723849882712" lon="11.89412233749408"><ele>711.0</ele><time>2026-05-04T15:11:23.999Z</time></trkpt><trkpt lat="42.872393329444655" lon="11.894249209125435"><ele>713.0</ele><time>2026-05-04T15:11:24.999Z</time></trkpt><trkpt lat="42.87239037435301" lon="11.894380121658104"><ele>714.8</ele><time>2026-05-04T15:11:25.999Z</time></trkpt><trkpt lat="42.87237790398889" lon="11.894513441428835"><ele>716.5999999999999</ele><time>2026-05-04T15:11:26.999Z</time></trkpt><trkpt lat="42.87235824777162" lon="11.894641472681627"><ele>718.4000000000001</ele><time>2026-05-04T15:11:27.999Z</time></trkpt><trkpt lat="42.87233308483218" lon="11.894779341977626"><ele>720.2</ele><time>2026-05-04T15:11:28.999Z</time></trkpt><trkpt lat="42.87230321914675" lon="11.894924485500695"><ele>722.0</ele><time>2026-05-04T15:11:29.999Z</time></trkpt><trkpt lat="42.872272711583065" lon="11.895051127968065"><ele>722.8333333333333</ele><time>2026-05-04T15:11:30.999Z</time></trkpt><trkpt lat="42.872247987053896" lon="11.895170615402531"><ele>723.6666666666666</ele><time>2026-05-04T15:11:31.999Z</time></trkpt><trkpt lat="42.87223401825767" lon="11.895289282271516"><ele>724.5</ele><time>2026-05-04T15:11:32.999Z</time></trkpt><trkpt lat="42.872229906178" lon="11.895402244546508"><ele>725.3333333333334</ele><time>2026-05-04T15:11:33.999Z</time></trkpt><trkpt lat="42.87223511292083" lon="11.895511504648658"><ele>726.1666666666667</ele><time>2026-05-04T15:11:34.999Z</time></trkpt><trkpt lat="42.872242456751934" lon="11.895605738078464"><ele>727.0</ele><time>2026-05-04T15:11:35.999Z</time></trkpt><trkpt lat="42.87225200373999" lon="11.895698404456866"><ele>727.0</ele><time>2026-05-04T15:11:37.999Z</time></trkpt><trkpt lat="42.87219333004341" lon="11.895813623057473"><ele>727.0</ele><time>2026-05-04T15:11:39.999Z</time></trkpt><trkpt lat="42.87208707358636" lon="11.895696659791305"><ele>727.0</ele><time>2026-05-04T15:11:40.999Z</time></trkpt><trkpt lat="42.872008632879044" lon="11.895700693424082"><ele>727.0</ele><time>2026-05-04T15:11:41.999Z</time></trkpt><trkpt lat="42.871923056944155" lon="11.895703709841678"><ele>727.0</ele><time>2026-05-04T15:11:42.999Z</time></trkpt><trkpt lat="42.87183597139894" lon="11.8957054620792"><ele>729.4000000000001</ele><time>2026-05-04T15:11:43.999Z</time></trkpt><trkpt lat="42.87173667514083" lon="11.895705462085456"><ele>731.8000000000001</ele><time>2026-05-04T15:11:44.999Z</time></trkpt><trkpt lat="42.87163499495358" lon="11.8957032399237"><ele>734.2</ele><time>2026-05-04T15:11:45.999Z</time></trkpt><trkpt lat="42.87152295172836" lon="11.89571473960452"><ele>736.6</ele><time>2026-05-04T15:11:46.999Z</time></trkpt><trkpt lat="42.87141035148116" lon="11.895693169566668"><ele>739.0</ele><time>2026-05-04T15:11:47.999Z</time></trkpt><trkpt lat="42.87131001260251" lon="11.895721158277352"><ele>739.0</ele><time>2026-05-04T15:11:48.999Z</time></trkpt><trkpt lat="42.87120099478144" lon="11.895738056883062"><ele>739.0</ele><time>2026-05-04T15:11:49.999Z</time></trkpt><trkpt lat="42.871081435979036" lon="11.89577610041243"><ele>739.0</ele><time>2026-05-04T15:11:50.999Z</time></trkpt><trkpt lat="42.87095195843056" lon="11.895791130667405"><ele>739.0</ele><time>2026-05-04T15:11:51.999Z</time></trkpt><trkpt lat="42.870843252687656" lon="11.895821153755172"><ele>739.1666666666667</ele><time>2026-05-04T15:11:52.999Z</time></trkpt><trkpt lat="42.87075799641678" lon="11.895867339838626"><ele>739.3333333333334</ele><time>2026-05-04T15:11:53.999Z</time></trkpt><trkpt lat="42.870671193131535" lon="11.8958951950963"><ele>739.5</ele><time>2026-05-04T15:11:54.999Z</time></trkpt><trkpt lat="42.87058711778402" lon="11.895930635246136"><ele>739.6666666666666</ele><time>2026-05-04T15:11:55.999Z</time></trkpt><trkpt lat="42.870507584902754" lon="11.895991786978438"><ele>739.8333333333333</ele><time>2026-05-04T15:11:56.999Z</time></trkpt><trkpt lat="42.870434482436906" lon="11.896046371238057"><ele>740.0</ele><time>2026-05-04T15:11:57.999Z</time></trkpt><trkpt lat="42.870353993338945" lon="11.896114448571629"><ele>739.5</ele><time>2026-05-04T15:11:58.999Z</time></trkpt><trkpt lat="42.87025321204313" lon="11.896189453855108"><ele>739.0</ele><time>2026-05-04T15:11:59.999Z</time></trkpt><trkpt lat="42.87016492927955" lon="11.896315951938092"><ele>738.5</ele><time>2026-05-04T15:12:00.999Z</time></trkpt><trkpt lat="42.87007242233795" lon="11.89643702104648"><ele>738.0</ele><time>2026-05-04T15:12:01.999Z</time></trkpt><trkpt lat="42.86998845776844" lon="11.896571940029359"><ele>739.5999999999999</ele><time>2026-05-04T15:12:02.999Z</time></trkpt><trkpt lat="42.86991644231226" lon="11.896673107398847"><ele>741.1999999999999</ele><time>2026-05-04T15:12:03.999Z</time></trkpt><trkpt lat="42.86984092928805" lon="11.89676312606636"><ele>742.8</ele><time>2026-05-04T15:12:04.999Z</time></trkpt><trkpt lat="42.86976897788426" lon="11.896841437718834"><ele>744.4</ele><time>2026-05-04T15:12:05.999Z</time></trkpt><trkpt lat="42.869697639778764" lon="11.89693171387868"><ele>746.0</ele><time>2026-05-04T15:12:06.999Z</time></trkpt><trkpt lat="42.86963358160622" lon="11.89703330164908"><ele>746.6666666666666</ele><time>2026-05-04T15:12:07.999Z</time></trkpt><trkpt lat="42.869573124695414" lon="11.897136115059562"><ele>747.3333333333333</ele><time>2026-05-04T15:12:08.999Z</time></trkpt><trkpt lat="42.869502811831026" lon="11.89721652962518"><ele>748.0</ele><time>2026-05-04T15:12:09.999Z</time></trkpt><trkpt lat="42.86943468868595" lon="11.897259627784159"><ele>748.6666666666666</ele><time>2026-05-04T15:12:10.999Z</time></trkpt><trkpt lat="42.8693490161373" lon="11.897251575539713"><ele>749.3333333333334</ele><time>2026-05-04T15:12:11.999Z</time></trkpt><trkpt lat="42.869263279618195" lon="11.897233835863911"><ele>750.0</ele><time>2026-05-04T15:12:12.999Z</time></trkpt><trkpt lat="42.86915574378555" lon="11.897232433429828"><ele>750.2</ele><time>2026-05-04T15:12:13.999Z</time></trkpt><trkpt lat="42.86906497173" lon="11.89725600267034"><ele>750.4</ele><time>2026-05-04T15:12:14.999Z</time></trkpt><trkpt lat="42.86898615929276" lon="11.897334495708428"><ele>750.5999999999999</ele><time>2026-05-04T15:12:15.999Z</time></trkpt><trkpt lat="42.86890713068331" lon="11.897416701491483"><ele>750.8</ele><time>2026-05-04T15:12:16.999Z</time></trkpt><trkpt lat="42.86883123648324" lon="11.897511235023599"><ele>751.0</ele><time>2026-05-04T15:12:17.999Z</time></trkpt><trkpt lat="42.86874843189719" lon="11.897582747375221"><ele>751.0</ele><time>2026-05-04T15:12:18.999Z</time></trkpt><trkpt lat="42.868669593867914" lon="11.897625184556667"><ele>751.0</ele><time>2026-05-04T15:12:19.999Z</time></trkpt><trkpt lat="42.86859669176317" lon="11.897639861673007"><ele>751.0</ele><time>2026-05-04T15:12:20.999Z</time></trkpt><trkpt lat="42.86854313650831" lon="11.897594527561996"><ele>751.0</ele><time>2026-05-04T15:12:21.999Z</time></trkpt><trkpt lat="42.86848211777252" lon="11.897549994773124"><ele>751.0</ele><time>2026-05-04T15:12:23.999Z</time></trkpt><trkpt lat="42.86855603667961" lon="11.897601873595754"><ele>751.0</ele><time>2026-05-04T15:12:40.999Z</time></trkpt><trkpt lat="42.86868268979381" lon="11.89761333975185"><ele>751.0</ele><time>2026-05-04T15:12:42.999Z</time></trkpt><trkpt lat="42.86875762620108" lon="11.897572157409217"><ele>751.0</ele><time>2026-05-04T15:12:43.999Z</time></trkpt><trkpt lat="42.86883671816482" lon="11.897494486240221"><ele>751.0</ele><time>2026-05-04T15:12:44.999Z</time></trkpt><trkpt lat="42.86892540189124" lon="11.89739803506717"><ele>751.0</ele><time>2026-05-04T15:12:45.999Z</time></trkpt><trkpt lat="42.869008714064606" lon="11.897313786932774"><ele>751.0</ele><time>2026-05-04T15:12:46.999Z</time></trkpt><trkpt lat="42.86909049034785" lon="11.897240473385294"><ele>751.0</ele><time>2026-05-04T15:12:47.999Z</time></trkpt><trkpt lat="42.86915588686709" lon="11.897251825919543"><ele>751.0</ele><time>2026-05-04T15:12:48.999Z</time></trkpt><trkpt lat="42.869242706284716" lon="11.897271326396071"><ele>751.0</ele><time>2026-05-04T15:12:49.999Z</time></trkpt><trkpt lat="42.86932470403183" lon="11.89728698455341"><ele>751.0</ele><time>2026-05-04T15:12:50.999Z</time></trkpt><trkpt lat="42.86940089105657" lon="11.897291367225451"><ele>751.0</ele><time>2026-05-04T15:12:51.999Z</time></trkpt><trkpt lat="42.86947874472786" lon="11.897257133471076"><ele>751.0</ele><time>2026-05-04T15:12:52.999Z</time></trkpt><trkpt lat="42.86955697342232" lon="11.897192699328036"><ele>750.8</ele><time>2026-05-04T15:12:53.999Z</time></trkpt><trkpt lat="42.86961726346661" lon="11.897102998922245"><ele>750.5999999999999</ele><time>2026-05-04T15:12:54.999Z</time></trkpt><trkpt lat="42.86967911349732" lon="11.89699507702258"><ele>750.4</ele><time>2026-05-04T15:12:55.999Z</time></trkpt><trkpt lat="42.86974869068905" lon="11.896884478503884"><ele>750.2</ele><time>2026-05-04T15:12:56.999Z</time></trkpt><trkpt lat="42.86984488981402" lon="11.896800554491142"><ele>750.0</ele><time>2026-05-04T15:12:57.999Z</time></trkpt><trkpt lat="42.869930841995796" lon="11.896704255459696"><ele>749.0</ele><time>2026-05-04T15:12:58.999Z</time></trkpt><trkpt lat="42.87001838031294" lon="11.896585884878386"><ele>748.0</ele><time>2026-05-04T15:12:59.999Z</time></trkpt><trkpt lat="42.87009507827806" lon="11.896436640810869"><ele>747.0</ele><time>2026-05-04T15:13:00.999Z</time></trkpt><trkpt lat="42.87017369130035" lon="11.896318158404442"><ele>746.0</ele><time>2026-05-04T15:13:01.999Z</time></trkpt><trkpt lat="42.870269415248636" lon="11.896207659561236"><ele>744.8</ele><time>2026-05-04T15:13:02.999Z</time></trkpt><trkpt lat="42.870369060282115" lon="11.896136196068884"><ele>743.5999999999999</ele><time>2026-05-04T15:13:03.999Z</time></trkpt><trkpt lat="42.870462203164266" lon="11.896039665806768"><ele>742.4</ele><time>2026-05-04T15:13:04.999Z</time></trkpt><trkpt lat="42.870568782894296" lon="11.895990286745748"><ele>741.2</ele><time>2026-05-04T15:13:05.999Z</time></trkpt><trkpt lat="42.87065817087943" lon="11.895938096944004"><ele>740.0</ele><time>2026-05-04T15:13:06.999Z</time></trkpt><trkpt lat="42.870758733337425" lon="11.895896668851904"><ele>740.0</ele><time>2026-05-04T15:13:07.999Z</time></trkpt><trkpt lat="42.87087274991699" lon="11.895858524973253"><ele>740.0</ele><time>2026-05-04T15:13:08.999Z</time></trkpt><trkpt lat="42.870994288000595" lon="11.895826367535328"><ele>740.0</ele><time>2026-05-04T15:13:09.999Z</time></trkpt><trkpt lat="42.87112198208935" lon="11.895772648295928"><ele>740.0</ele><time>2026-05-04T15:13:10.999Z</time></trkpt><trkpt lat="42.87124658558102" lon="11.895762976709852"><ele>739.8</ele><time>2026-05-04T15:13:11.999Z</time></trkpt><trkpt lat="42.87136276212177" lon="11.895740965767871"><ele>739.6</ele><time>2026-05-04T15:13:12.999Z</time></trkpt><trkpt lat="42.871460518806714" lon="11.89573728796809"><ele>739.4000000000001</ele><time>2026-05-04T15:13:13.999Z</time></trkpt><trkpt lat="42.87155895988046" lon="11.895744350607108"><ele>739.2</ele><time>2026-05-04T15:13:14.999Z</time></trkpt><trkpt lat="42.87165148796946" lon="11.895748875971424"><ele>739.0</ele><time>2026-05-04T15:13:15.999Z</time></trkpt><trkpt lat="42.871755968744324" lon="11.895750738516536"><ele>736.6</ele><time>2026-05-04T15:13:16.999Z</time></trkpt><trkpt lat="42.87186225634153" lon="11.895750738522748"><ele>734.2</ele><time>2026-05-04T15:13:17.999Z</time></trkpt><trkpt lat="42.87196929900309" lon="11.895747529491093"><ele>731.8000000000001</ele><time>2026-05-04T15:13:18.999Z</time></trkpt><trkpt lat="42.87208045375637" lon="11.89572108381887"><ele>729.4000000000001</ele><time>2026-05-04T15:13:19.999Z</time></trkpt><trkpt lat="42.872188680018354" lon="11.895725077710507"><ele>727.0</ele><time>2026-05-04T15:13:20.999Z</time></trkpt><trkpt lat="42.87229966819417" lon="11.895746229496021"><ele>727.0</ele><time>2026-05-04T15:13:21.999Z</time></trkpt><trkpt lat="42.87240802665668" lon="11.895734371428066"><ele>727.0</ele><time>2026-05-04T15:13:22.999Z</time></trkpt><trkpt lat="42.87249887146562" lon="11.895845915247849"><ele>727.0</ele><time>2026-05-04T15:13:23.999Z</time></trkpt><trkpt lat="42.87258414603812" lon="11.895843488799905"><ele>727.0</ele><time>2026-05-04T15:13:24.999Z</time></trkpt><trkpt lat="42.87265622704202" lon="11.895861983653761"><ele>727.0</ele><time>2026-05-04T15:13:25.999Z</time></trkpt><trkpt lat="42.87271962812539" lon="11.895874289038723"><ele>727.0</ele><time>2026-05-04T15:13:26.999Z</time></trkpt><trkpt lat="42.872824156120686" lon="11.895885243603429"><ele>727.0</ele><time>2026-05-04T15:13:28.999Z</time></trkpt><trkpt lat="42.872729490359454" lon="11.895880158116494"><ele>727.0</ele><time>2026-05-04T15:14:14.999Z</time></trkpt><trkpt lat="42.87262710169143" lon="11.89584553119239"><ele>727.0</ele><time>2026-05-04T15:14:15.999Z</time></trkpt><trkpt lat="42.872406334319955" lon="11.895626927327214"><ele>727.0</ele><time>2026-05-04T15:14:16.999Z</time></trkpt><trkpt lat="42.872463054649685" lon="11.89581352859166"><ele>727.0</ele><time>2026-05-04T15:14:17.999Z</time></trkpt><trkpt lat="42.872348913501995" lon="11.89578601333523"><ele>727.0</ele><time>2026-05-04T15:14:19.999Z</time></trkpt><trkpt lat="42.87225640904939" lon="11.895778580050022"><ele>727.0</ele><time>2026-05-04T15:14:21.999Z</time></trkpt><trkpt lat="42.87218071114868" lon="11.895830848525254"><ele>727.0</ele><time>2026-05-04T15:14:23.999Z</time></trkpt><trkpt lat="42.87210805101336" lon="11.895944426486276"><ele>727.0</ele><time>2026-05-04T15:14:25.999Z</time></trkpt><trkpt lat="42.87206005811307" lon="11.896029495930557"><ele>727.0</ele><time>2026-05-04T15:14:26.999Z</time></trkpt><trkpt lat="42.872009533492324" lon="11.896109687248243"><ele>727.0</ele><time>2026-05-04T15:14:27.999Z</time></trkpt><trkpt lat="42.871947128754556" lon="11.89618086968133"><ele>727.0</ele><time>2026-05-04T15:14:28.999Z</time></trkpt><trkpt lat="42.87187560000807" lon="11.896222674141447"><ele>727.0</ele><time>2026-05-04T15:14:29.999Z</time></trkpt><trkpt lat="42.871789490321596" lon="11.896264106526372"><ele>727.0</ele><time>2026-05-04T15:14:30.999Z</time></trkpt><trkpt lat="42.87169300656786" lon="11.896277502900299"><ele>728.8</ele><time>2026-05-04T15:14:31.999Z</time></trkpt><trkpt lat="42.87160617291804" lon="11.896244123439173"><ele>730.6</ele><time>2026-05-04T15:14:32.999Z</time></trkpt><trkpt lat="42.87151927553642" lon="11.896234203663473"><ele>732.4</ele><time>2026-05-04T15:14:33.999Z</time></trkpt><trkpt lat="42.87142466904521" lon="11.896225405751693"><ele>734.1999999999999</ele><time>2026-05-04T15:14:34.999Z</time></trkpt><trkpt lat="42.87134706293728" lon="11.896229117488359"><ele>736.0</ele><time>2026-05-04T15:14:35.999Z</time></trkpt><trkpt lat="42.87124930233483" lon="11.896279157567822"><ele>736.0</ele><time>2026-05-04T15:14:36.999Z</time></trkpt><trkpt lat="42.87113578806818" lon="11.896335180609693"><ele>736.0</ele><time>2026-05-04T15:14:38Z</time></trkpt><trkpt lat="42.87100538490887" lon="11.896355538786057"><ele>736.0</ele><time>2026-05-04T15:14:39Z</time></trkpt><trkpt lat="42.870863156283406" lon="11.896374042667821"><ele>736.0</ele><time>2026-05-04T15:14:40Z</time></trkpt><trkpt lat="42.87072574789407" lon="11.896412821716188"><ele>736.4</ele><time>2026-05-04T15:14:41Z</time></trkpt><trkpt lat="42.870593266311324" lon="11.896427885456822"><ele>736.8</ele><time>2026-05-04T15:14:42Z</time></trkpt><trkpt lat="42.87049450925848" lon="11.896464336844724"><ele>737.1999999999999</ele><time>2026-05-04T15:14:43Z</time></trkpt><trkpt lat="42.870406341625454" lon="11.896503114306313"><ele>737.5999999999999</ele><time>2026-05-04T15:14:44Z</time></trkpt><trkpt lat="42.870333439780914" lon="11.89656555983898"><ele>738.0</ele><time>2026-05-04T15:14:45Z</time></trkpt><trkpt lat="42.87026871212247" lon="11.896655312332426"><ele>739.2</ele><time>2026-05-04T15:14:46Z</time></trkpt><trkpt lat="42.8702257947484" lon="11.896761797113681"><ele>740.4</ele><time>2026-05-04T15:14:47Z</time></trkpt><trkpt lat="42.8701915943517" lon="11.89689137935387"><ele>741.6</ele><time>2026-05-04T15:14:48Z</time></trkpt><trkpt lat="42.87016599919151" lon="11.897023496138408"><ele>742.8000000000001</ele><time>2026-05-04T15:14:49Z</time></trkpt><trkpt lat="42.87015372440289" lon="11.897148859785023"><ele>744.0</ele><time>2026-05-04T15:14:50Z</time></trkpt><trkpt lat="42.87016241862441" lon="11.897278933704639"><ele>744.0</ele><time>2026-05-04T15:14:51Z</time></trkpt><trkpt lat="42.870195991863305" lon="11.897386192966746"><ele>744.0</ele><time>2026-05-04T15:14:52Z</time></trkpt><trkpt lat="42.87024365320248" lon="11.897477487924478"><ele>744.0</ele><time>2026-05-04T15:14:53Z</time></trkpt><trkpt lat="42.87030734080486" lon="11.897563732367674"><ele>744.0</ele><time>2026-05-04T15:14:54Z</time></trkpt><trkpt lat="42.87039296635226" lon="11.897660990785651"><ele>744.0</ele><time>2026-05-04T15:14:55Z</time></trkpt><trkpt lat="42.870455347273" lon="11.89775708170848"><ele>745.4000000000001</ele><time>2026-05-04T15:14:56Z</time></trkpt><trkpt lat="42.87048140279984" lon="11.897863422934796"><ele>746.8</ele><time>2026-05-04T15:14:57Z</time></trkpt><trkpt lat="42.87048617155769" lon="11.897990072542498"><ele>748.2</ele><time>2026-05-04T15:14:58Z</time></trkpt><trkpt lat="42.870492081573566" lon="11.898134833948612"><ele>749.5999999999999</ele><time>2026-05-04T15:14:59Z</time></trkpt><trkpt lat="42.870493713385" lon="11.898279766895424"><ele>751.0</ele><time>2026-05-04T15:15:00Z</time></trkpt><trkpt lat="42.87051021302646" lon="11.898384283492433"><ele>750.4</ele><time>2026-05-04T15:15:01Z</time></trkpt><trkpt lat="42.870514719215514" lon="11.898552503558886"><ele>749.8</ele><time>2026-05-04T15:15:03Z</time></trkpt><trkpt lat="42.87051743009671" lon="11.898714629776233"><ele>749.1999999999999</ele><time>2026-05-04T15:15:05Z</time></trkpt><trkpt lat="42.87043630958952" lon="11.898791347521396"><ele>748.5999999999999</ele><time>2026-05-04T15:15:06Z</time></trkpt><trkpt lat="42.87043905445652" lon="11.898898334758178"><ele>748.0</ele><time>2026-05-04T15:15:08Z</time></trkpt><trkpt lat="42.8705221743142" lon="11.898962726513194"><ele>748.0</ele><time>2026-05-04T15:15:10Z</time></trkpt><trkpt lat="42.870647556962325" lon="11.899032245067467"><ele>748.0</ele><time>2026-05-04T15:15:12Z</time></trkpt><trkpt lat="42.87069311862671" lon="11.899092040399145"><ele>748.0</ele><time>2026-05-04T15:15:13Z</time></trkpt><trkpt lat="42.87073836941733" lon="11.899164724143937"><ele>748.0</ele><time>2026-05-04T15:15:14Z</time></trkpt><trkpt lat="42.87078284148342" lon="11.899238489154028"><ele>748.0</ele><time>2026-05-04T15:15:15Z</time></trkpt><trkpt lat="42.87082417514565" lon="11.899325050207555"><ele>748.0</ele><time>2026-05-04T15:15:16Z</time></trkpt><trkpt lat="42.870864568762336" lon="11.899426893162348"><ele>747.0</ele><time>2026-05-04T15:15:17Z</time></trkpt><trkpt lat="42.87088409264345" lon="11.89951119554095"><ele>746.0</ele><time>2026-05-04T15:15:18Z</time></trkpt><trkpt lat="42.870881577998" lon="11.899627571426903"><ele>745.0</ele><time>2026-05-04T15:15:20Z</time></trkpt><trkpt lat="42.87087444463537" lon="11.899732245078486"><ele>744.0</ele><time>2026-05-04T15:15:22Z</time></trkpt><trkpt lat="42.87090184028631" lon="11.899825448134882"><ele>743.0</ele><time>2026-05-04T15:15:58Z</time></trkpt><trkpt lat="42.870914111404645" lon="11.899936602681338"><ele>742.0</ele><time>2026-05-04T15:16:34Z</time></trkpt><trkpt lat="42.87094357768326" lon="11.90012273483749"><ele>741.5</ele><time>2026-05-04T15:16:36Z</time></trkpt><trkpt lat="42.87097793015416" lon="11.900254743825416"><ele>741.0</ele><time>2026-05-04T15:16:37Z</time></trkpt><trkpt lat="42.87102785247342" lon="11.900392381536593"><ele>740.5</ele><time>2026-05-04T15:16:38Z</time></trkpt><trkpt lat="42.87107862944674" lon="11.900546733952696"><ele>740.0</ele><time>2026-05-04T15:16:39Z</time></trkpt><trkpt lat="42.87113366228245" lon="11.900755495316075"><ele>740.5</ele><time>2026-05-04T15:16:40Z</time></trkpt><trkpt lat="42.87117648818903" lon="11.900962562125075"><ele>741.0</ele><time>2026-05-04T15:16:41Z</time></trkpt><trkpt lat="42.871216217563735" lon="11.901154455297338"><ele>741.5</ele><time>2026-05-04T15:16:41.999Z</time></trkpt><trkpt lat="42.8712491517455" lon="11.901327635401609"><ele>742.0</ele><time>2026-05-04T15:16:43Z</time></trkpt><trkpt lat="42.8712631760149" lon="11.90148613826075"><ele>742.0</ele><time>2026-05-04T15:16:44Z</time></trkpt><trkpt lat="42.87125933897655" lon="11.901642645843783"><ele>742.0</ele><time>2026-05-04T15:16:45Z</time></trkpt><trkpt lat="42.871259411609046" lon="11.901773792041963"><ele>742.0</ele><time>2026-05-04T15:16:46Z</time></trkpt><trkpt lat="42.87127852354271" lon="11.901862577558692"><ele>742.0</ele><time>2026-05-04T15:16:47Z</time></trkpt><trkpt lat="42.87133316377245" lon="11.90196537498284"><ele>742.0</ele><time>2026-05-04T15:16:49Z</time></trkpt><trkpt lat="42.87138804832597" lon="11.902025347293373"><ele>742.0</ele><time>2026-05-04T15:16:52Z</time></trkpt><trkpt lat="42.871436211284234" lon="11.902148505622685"><ele>742.0</ele><time>2026-05-04T15:18:16Z</time></trkpt><trkpt lat="42.871485584388644" lon="11.902278451064646"><ele>742.0</ele><time>2026-05-04T15:18:18Z</time></trkpt><trkpt lat="42.87150050434412" lon="11.902406471410625"><ele>742.0</ele><time>2026-05-04T15:18:20Z</time></trkpt><trkpt lat="42.87147564833629" lon="11.90256260876632"><ele>742.0</ele><time>2026-05-04T15:18:22Z</time></trkpt><trkpt lat="42.87145301520893" lon="11.902701587992796"><ele>742.0</ele><time>2026-05-04T15:18:24Z</time></trkpt><trkpt lat="42.87147114737883" lon="11.9028389331995"><ele>739.8</ele><time>2026-05-04T15:18:26Z</time></trkpt><trkpt lat="42.87152801270953" lon="11.902947398716446"><ele>737.6</ele><time>2026-05-04T15:18:28Z</time></trkpt><trkpt lat="42.871597122910735" lon="11.903002682639116"><ele>735.4</ele><time>2026-05-04T15:18:30Z</time></trkpt><trkpt lat="42.8716929169927" lon="11.903012684269653"><ele>733.1999999999999</ele><time>2026-05-04T15:18:34Z</time></trkpt><trkpt lat="42.8717680540017" lon="11.90309040008814"><ele>731.0</ele><time>2026-05-04T15:18:36Z</time></trkpt><trkpt lat="42.87177452100124" lon="11.903226413445108"><ele>731.0</ele><time>2026-05-04T15:18:38Z</time></trkpt><trkpt lat="42.871713113613076" lon="11.903330038568216"><ele>731.0</ele><time>2026-05-04T15:18:40Z</time></trkpt><trkpt lat="42.871635550499015" lon="11.903442999468698"><ele>731.0</ele><time>2026-05-04T15:18:42Z</time></trkpt><trkpt lat="42.87160531712531" lon="11.903578679100965"><ele>731.0</ele><time>2026-05-04T15:18:44Z</time></trkpt><trkpt lat="42.87166372627574" lon="11.903678644891459"><ele>731.0</ele><time>2026-05-04T15:18:46Z</time></trkpt><trkpt lat="42.87176644193359" lon="11.903721909359314"><ele>727.8</ele><time>2026-05-04T15:18:48Z</time></trkpt><trkpt lat="42.87186909695211" lon="11.903721601505229"><ele>724.5999999999999</ele><time>2026-05-04T15:18:50Z</time></trkpt><trkpt lat="42.871975275844676" lon="11.90375181433162"><ele>721.4</ele><time>2026-05-04T15:18:52Z</time></trkpt><trkpt lat="42.872057763409956" lon="11.903874356528352"><ele>718.2</ele><time>2026-05-04T15:18:54Z</time></trkpt><trkpt lat="42.87210103852081" lon="11.903963406062472"><ele>715.0</ele><time>2026-05-04T15:18:55Z</time></trkpt><trkpt lat="42.87214789241921" lon="11.904061163173827"><ele>715.0</ele><time>2026-05-04T15:18:56Z</time></trkpt><trkpt lat="42.87219050361318" lon="11.90415473831126"><ele>715.0</ele><time>2026-05-04T15:18:57Z</time></trkpt><trkpt lat="42.87223491903308" lon="11.904261078114134"><ele>715.0</ele><time>2026-05-04T15:18:58Z</time></trkpt><trkpt lat="42.872272689845495" lon="11.904350524937382"><ele>715.0</ele><time>2026-05-04T15:18:59Z</time></trkpt><trkpt lat="42.87231818482096" lon="11.904481088936064"><ele>715.0</ele><time>2026-05-04T15:19:00Z</time></trkpt><trkpt lat="42.87235683997121" lon="11.904605163715006"><ele>714.4</ele><time>2026-05-04T15:19:01Z</time></trkpt><trkpt lat="42.872394924721455" lon="11.904738009885042"><ele>713.8</ele><time>2026-05-04T15:19:02Z</time></trkpt><trkpt lat="42.87242337283918" lon="11.904875926797281"><ele>713.2</ele><time>2026-05-04T15:19:03Z</time></trkpt><trkpt lat="42.87245139065992" lon="11.905023690429305"><ele>712.6</ele><time>2026-05-04T15:19:04Z</time></trkpt><trkpt lat="42.87247975092763" lon="11.905170482849915"><ele>712.0</ele><time>2026-05-04T15:19:05Z</time></trkpt><trkpt lat="42.87250928385075" lon="11.905336433081048"><ele>711.8</ele><time>2026-05-04T15:19:06Z</time></trkpt><trkpt lat="42.872536295336864" lon="11.905507591035448"><ele>711.6</ele><time>2026-05-04T15:19:07Z</time></trkpt><trkpt lat="42.87256191994954" lon="11.905660584279799"><ele>711.4</ele><time>2026-05-04T15:19:08Z</time></trkpt><trkpt lat="42.8725933907759" lon="11.905777719887785"><ele>711.1999999999999</ele><time>2026-05-04T15:19:09Z</time></trkpt><trkpt lat="42.87263949085876" lon="11.905864687689334"><ele>711.0</ele><time>2026-05-04T15:19:10Z</time></trkpt><trkpt lat="42.872688021707965" lon="11.90600894569309"><ele>708.8</ele><time>2026-05-04T15:19:12Z</time></trkpt><trkpt lat="42.87267525768962" lon="11.906153920860447"><ele>706.5999999999999</ele><time>2026-05-04T15:19:14Z</time></trkpt><trkpt lat="42.87267096101307" lon="11.906254108652165"><ele>704.4</ele><time>2026-05-04T15:19:15Z</time></trkpt><trkpt lat="42.872667463611066" lon="11.906355470601326"><ele>702.2</ele><time>2026-05-04T15:19:16Z</time></trkpt><trkpt lat="42.87267271528028" lon="11.906484977663037"><ele>700.0</ele><time>2026-05-04T15:19:17Z</time></trkpt><trkpt lat="42.87269087900829" lon="11.90663062515722"><ele>700.8</ele><time>2026-05-04T15:19:18Z</time></trkpt><trkpt lat="42.87270757150816" lon="11.906755654983085"><ele>701.6</ele><time>2026-05-04T15:19:19Z</time></trkpt><trkpt lat="42.87271117420297" lon="11.906866079518194"><ele>702.4000000000001</ele><time>2026-05-04T15:19:20Z</time></trkpt><trkpt lat="42.87273445969652" lon="11.907017553417376"><ele>703.2</ele><time>2026-05-04T15:19:22Z</time></trkpt><trkpt lat="42.872780356603705" lon="11.907093030666623"><ele>704.0</ele><time>2026-05-04T15:19:23Z</time></trkpt><trkpt lat="42.87285496110661" lon="11.907169800903139"><ele>704.0</ele><time>2026-05-04T15:19:24Z</time></trkpt><trkpt lat="42.87292273184013" lon="11.907246792892435"><ele>704.0</ele><time>2026-05-04T15:19:25Z</time></trkpt><trkpt lat="42.87296849558669" lon="11.907321410190846"><ele>704.0</ele><time>2026-05-04T15:19:26Z</time></trkpt><trkpt lat="42.87301428759964" lon="11.907385450676442"><ele>704.0</ele><time>2026-05-04T15:19:27Z</time></trkpt><trkpt lat="42.87312948121762" lon="11.907487837222815"><ele>704.0</ele><time>2026-05-04T15:19:29Z</time></trkpt><trkpt lat="42.873170208967814" lon="11.90757533827018"><ele>704.0</ele><time>2026-05-04T15:19:31Z</time></trkpt><trkpt lat="42.873180806677844" lon="11.907709985669607"><ele>704.0</ele><time>2026-05-04T15:19:33Z</time></trkpt><trkpt lat="42.87318039772861" lon="11.907866672484035"><ele>704.0</ele><time>2026-05-04T15:19:35Z</time></trkpt><trkpt lat="42.87314542846932" lon="11.908049318292374"><ele>704.0</ele><time>2026-05-04T15:19:37Z</time></trkpt><trkpt lat="42.87316186073801" lon="11.908212262967728"><ele>704.0</ele><time>2026-05-04T15:19:39Z</time></trkpt><trkpt lat="42.873179704061855" lon="11.908300220671148"><ele>704.0</ele><time>2026-05-04T15:19:40Z</time></trkpt><trkpt lat="42.87320586209163" lon="11.908379538873548"><ele>703.5</ele><time>2026-05-04T15:19:41Z</time></trkpt><trkpt lat="42.873244139903406" lon="11.908470458562059"><ele>703.0</ele><time>2026-05-04T15:19:42Z</time></trkpt><trkpt lat="42.87328565689178" lon="11.90853775945473"><ele>702.5</ele><time>2026-05-04T15:19:43Z</time></trkpt><trkpt lat="42.87333102096776" lon="11.908610417058567"><ele>702.0</ele><time>2026-05-04T15:19:44Z</time></trkpt><trkpt lat="42.87338260692457" lon="11.908672810479677"><ele>701.5</ele><time>2026-05-04T15:19:45Z</time></trkpt><trkpt lat="42.873472247534444" lon="11.908789825528137"><ele>701.0</ele><time>2026-05-04T15:19:47Z</time></trkpt><trkpt lat="42.8734904398951" lon="11.90887573778151"><ele>700.1999999999999</ele><time>2026-05-04T15:19:48Z</time></trkpt><trkpt lat="42.873542179803096" lon="11.909019708155952"><ele>699.4</ele><time>2026-05-04T15:19:50Z</time></trkpt><trkpt lat="42.873576530094155" lon="11.9091198502578"><ele>698.6</ele><time>2026-05-04T15:19:51Z</time></trkpt><trkpt lat="42.87360950304287" lon="11.909247197780628"><ele>697.8</ele><time>2026-05-04T15:19:52Z</time></trkpt><trkpt lat="42.873638695365415" lon="11.909372018623737"><ele>697.0</ele><time>2026-05-04T15:19:53Z</time></trkpt><trkpt lat="42.87364810641622" lon="11.909475256972323"><ele>698.6666666666667</ele><time>2026-05-04T15:19:54Z</time></trkpt><trkpt lat="42.873640684296994" lon="11.909567964035368"><ele>700.3333333333334</ele><time>2026-05-04T15:19:55Z</time></trkpt><trkpt lat="42.873625326343834" lon="11.909678689236271"><ele>702.0</ele><time>2026-05-04T15:19:56Z</time></trkpt><trkpt lat="42.87362065421131" lon="11.90978038948851"><ele>703.6666666666666</ele><time>2026-05-04T15:19:57Z</time></trkpt><trkpt lat="42.87364888883925" lon="11.909923598850913"><ele>705.3333333333333</ele><time>2026-05-04T15:19:59Z</time></trkpt><trkpt lat="42.87366371534666" lon="11.910027638204907"><ele>707.0</ele><time>2026-05-04T15:20:01Z</time></trkpt><trkpt lat="42.8736903728931" lon="11.910112109723144"><ele>707.0</ele><time>2026-05-04T15:20:03Z</time></trkpt><trkpt lat="42.87377683737042" lon="11.910130943159972"><ele>707.0</ele><time>2026-05-04T15:20:06Z</time></trkpt><trkpt lat="42.87385228927636" lon="11.910169356089698"><ele>707.0</ele><time>2026-05-04T15:20:08Z</time></trkpt><trkpt lat="42.873920697385735" lon="11.910233249975283"><ele>707.0</ele><time>2026-05-04T15:20:10Z</time></trkpt><trkpt lat="42.87396332199544" lon="11.910313518727197"><ele>707.0</ele><time>2026-05-04T15:20:12Z</time></trkpt><trkpt lat="42.87401344568779" lon="11.910389344885411"><ele>707.0</ele><time>2026-05-04T15:20:14Z</time></trkpt><trkpt lat="42.87406686063757" lon="11.91044948032902"><ele>707.0</ele><time>2026-05-04T15:20:16Z</time></trkpt><trkpt lat="42.874117831028414" lon="11.910516971508835"><ele>707.0</ele><time>2026-05-04T15:20:18Z</time></trkpt><trkpt lat="42.87417010477004" lon="11.910596361810804"><ele>707.0</ele><time>2026-05-04T15:20:20Z</time></trkpt><trkpt lat="42.87419154452307" lon="11.91070299714872"><ele>707.0</ele><time>2026-05-04T15:20:22Z</time></trkpt><trkpt lat="42.874224322572324" lon="11.91079520110521"><ele>707.0</ele><time>2026-05-04T15:20:24Z</time></trkpt><trkpt lat="42.87427954917228" lon="11.910893518341592"><ele>707.0</ele><time>2026-05-04T15:20:26Z</time></trkpt><trkpt lat="42.874338307937855" lon="11.910965548507274"><ele>706.0</ele><time>2026-05-04T15:20:28Z</time></trkpt><trkpt lat="42.874414806236906" lon="11.911069040647892"><ele>705.0</ele><time>2026-05-04T15:20:30Z</time></trkpt><trkpt lat="42.87446450923558" lon="11.91114386074915"><ele>704.0</ele><time>2026-05-04T15:20:32Z</time></trkpt><trkpt lat="42.87454275339369" lon="11.911228240154273"><ele>703.0</ele><time>2026-05-04T15:20:34Z</time></trkpt><trkpt lat="42.87460321911835" lon="11.911312544608737"><ele>702.0</ele><time>2026-05-04T15:20:36Z</time></trkpt><trkpt lat="42.87463713012314" lon="11.911396703231015"><ele>701.0</ele><time>2026-05-04T15:20:38Z</time></trkpt><trkpt lat="42.874691894633216" lon="11.91149158156111"><ele>701.0</ele><time>2026-05-04T15:20:40Z</time></trkpt><trkpt lat="42.8747446943191" lon="11.911548378530403"><ele>701.0</ele><time>2026-05-04T15:20:42Z</time></trkpt><trkpt lat="42.8747671899118" lon="11.911632810144948"><ele>701.0</ele><time>2026-05-04T15:20:44Z</time></trkpt><trkpt lat="42.87478749804881" lon="11.911737404618442"><ele>701.0</ele><time>2026-05-04T15:20:46Z</time></trkpt><trkpt lat="42.87482448086316" lon="11.911831802613321"><ele>701.0</ele><time>2026-05-04T15:20:48Z</time></trkpt><trkpt lat="42.874892650708716" lon="11.911893260054851"><ele>701.0</ele><time>2026-05-04T15:20:50Z</time></trkpt><trkpt lat="42.87495420162693" lon="11.91195215208714"><ele>701.0</ele><time>2026-05-04T15:20:52Z</time></trkpt><trkpt lat="42.87501300684165" lon="11.91203139899865"><ele>701.1666666666666</ele><time>2026-05-04T15:20:54Z</time></trkpt><trkpt lat="42.87505851076457" lon="11.912123759207574"><ele>701.3333333333333</ele><time>2026-05-04T15:20:55.999Z</time></trkpt><trkpt lat="42.87507842999026" lon="11.912226926210352"><ele>701.5</ele><time>2026-05-04T15:20:57.999Z</time></trkpt><trkpt lat="42.875100763896114" lon="11.912344542987144"><ele>701.6666666666666</ele><time>2026-05-04T15:20:59.999Z</time></trkpt><trkpt lat="42.8751285019114" lon="11.912438075517212"><ele>701.8333333333334</ele><time>2026-05-04T15:21:01.999Z</time></trkpt><trkpt lat="42.875146179122794" lon="11.912526159573325"><ele>702.0</ele><time>2026-05-04T15:21:03.999Z</time></trkpt><trkpt lat="42.87518417779367" lon="11.912610832297636"><ele>702.0000000000001</ele><time>2026-05-04T15:21:39.999Z</time></trkpt><trkpt lat="42.87516765568011" lon="11.912706626486594"><ele>702.0</ele><time>2026-05-04T15:21:43.999Z</time></trkpt><trkpt lat="42.875232857336755" lon="11.912718982992347"><ele>702.0</ele><time>2026-05-04T15:21:54.999Z</time></trkpt><trkpt lat="42.87520784010215" lon="11.912622951236472"><ele>702.0</ele><time>2026-05-04T15:22:00.999Z</time></trkpt><trkpt lat="42.875153684619505" lon="11.912560394639254"><ele>702.0</ele><time>2026-05-04T15:22:03.999Z</time></trkpt><trkpt lat="42.875125403689935" lon="11.912466891108119"><ele>702.0000000000001</ele><time>2026-05-04T15:22:06.999Z</time></trkpt><trkpt lat="42.87509710977297" lon="11.912350229511969"><ele>702.0</ele><time>2026-05-04T15:22:08.999Z</time></trkpt><trkpt lat="42.875078974452684" lon="11.912249549738071"><ele>702.0</ele><time>2026-05-04T15:22:10.999Z</time></trkpt><trkpt lat="42.87505136720664" lon="11.912128579602124"><ele>702.0</ele><time>2026-05-04T15:22:13.999Z</time></trkpt><trkpt lat="42.87500686111619" lon="11.912002361909002"><ele>702.0</ele><time>2026-05-04T15:22:15.999Z</time></trkpt><trkpt lat="42.874953278268954" lon="11.911925015360783"><ele>702.0</ele><time>2026-05-04T15:22:17.999Z</time></trkpt><trkpt lat="42.874889023214706" lon="11.9118739310602"><ele>702.0</ele><time>2026-05-04T15:22:28.999Z</time></trkpt><trkpt lat="42.874811955830424" lon="11.911791844239351"><ele>702.0</ele><time>2026-05-04T15:22:30.999Z</time></trkpt><trkpt lat="42.87478659078626" lon="11.911696283861371"><ele>702.0</ele><time>2026-05-04T15:22:33.999Z</time></trkpt><trkpt lat="42.87476295012584" lon="11.911572993607537"><ele>702.0</ele><time>2026-05-04T15:22:36.999Z</time></trkpt><trkpt lat="42.87473600762745" lon="11.91148968157563"><ele>702.0</ele><time>2026-05-04T15:22:40.999Z</time></trkpt><trkpt lat="42.874817997389634" lon="11.911542913947388"><ele>702.0</ele><time>2026-05-04T15:22:49.999Z</time></trkpt><trkpt lat="42.8748731190332" lon="11.911627662364472"><ele>702.0</ele><time>2026-05-04T15:22:51.999Z</time></trkpt><trkpt lat="42.87491761400417" lon="11.91170881168252"><ele>702.0</ele><time>2026-05-04T15:22:53.999Z</time></trkpt><trkpt lat="42.87498328432614" lon="11.911787688790595"><ele>702.0</ele><time>2026-05-04T15:22:55.999Z</time></trkpt><trkpt lat="42.87505565599534" lon="11.911840109797998"><ele>702.0</ele><time>2026-05-04T15:22:57.999Z</time></trkpt><trkpt lat="42.87512000754403" lon="11.911893227090511"><ele>702.0</ele><time>2026-05-04T15:22:59.999Z</time></trkpt><trkpt lat="42.875200098555645" lon="11.911944849788872"><ele>702.0</ele><time>2026-05-04T15:23:01.998Z</time></trkpt><trkpt lat="42.87526446187853" lon="11.911995067631445"><ele>702.0</ele><time>2026-05-04T15:23:03.998Z</time></trkpt><trkpt lat="42.87532313481823" lon="11.912052382370796"><ele>702.0</ele><time>2026-05-04T15:23:05.998Z</time></trkpt><trkpt lat="42.87539562973201" lon="11.912146079485906"><ele>700.5</ele><time>2026-05-04T15:23:07.998Z</time></trkpt><trkpt lat="42.87546247375701" lon="11.912213460529221"><ele>699.0</ele><time>2026-05-04T15:23:09.998Z</time></trkpt><trkpt lat="42.87556146454017" lon="11.912279377867534"><ele>697.5</ele><time>2026-05-04T15:23:11.998Z</time></trkpt><trkpt lat="42.87563241366547" lon="11.912312863605253"><ele>696.0</ele><time>2026-05-04T15:23:13.999Z</time></trkpt><trkpt lat="42.87571011451229" lon="11.912349881075409"><ele>694.5</ele><time>2026-05-04T15:23:15.999Z</time></trkpt><trkpt lat="42.875783687777584" lon="11.912403948391505"><ele>693.0</ele><time>2026-05-04T15:23:17.999Z</time></trkpt><trkpt lat="42.875863169973485" lon="11.912441722684315"><ele>691.0</ele><time>2026-05-04T15:23:19.999Z</time></trkpt><trkpt lat="42.87594405154308" lon="11.912513435448512"><ele>689.0</ele><time>2026-05-04T15:23:21.999Z</time></trkpt><trkpt lat="42.87601960093279" lon="11.912572548128095"><ele>687.0</ele><time>2026-05-04T15:23:23.999Z</time></trkpt><trkpt lat="42.87609974246823" lon="11.912621960792126"><ele>685.0</ele><time>2026-05-04T15:23:25.999Z</time></trkpt><trkpt lat="42.876176881836024" lon="11.912669060244417"><ele>683.0</ele><time>2026-05-04T15:23:27.999Z</time></trkpt><trkpt lat="42.8762602624196" lon="11.912723995437222"><ele>681.0</ele><time>2026-05-04T15:23:29.999Z</time></trkpt><trkpt lat="42.876329175383866" lon="11.912782459858283"><ele>681.0</ele><time>2026-05-04T15:23:31.999Z</time></trkpt><trkpt lat="42.87637415569965" lon="11.912842582961051"><ele>681.0</ele><time>2026-05-04T15:23:33.999Z</time></trkpt><trkpt lat="42.87642691405387" lon="11.912915697532204"><ele>681.0</ele><time>2026-05-04T15:23:36.999Z</time></trkpt><trkpt lat="42.87650974953083" lon="11.91298872218669"><ele>681.0</ele><time>2026-05-04T15:23:38.999Z</time></trkpt><trkpt lat="42.87657826235576" lon="11.913048908785022"><ele>681.0</ele><time>2026-05-04T15:23:40.999Z</time></trkpt><trkpt lat="42.876621527668966" lon="11.913151137687496"><ele>681.0</ele><time>2026-05-04T15:23:42.999Z</time></trkpt><trkpt lat="42.876662562733955" lon="11.913265293685072"><ele>681.0</ele><time>2026-05-04T15:23:44.999Z</time></trkpt><trkpt lat="42.876705292972375" lon="11.913345619067055"><ele>681.0</ele><time>2026-05-04T15:23:47.999Z</time></trkpt><trkpt lat="42.87680404963073" lon="11.913491460500412"><ele>681.0</ele><time>2026-05-04T15:23:48.999Z</time></trkpt><trkpt lat="42.876824307861334" lon="11.913607295894291"><ele>681.0</ele><time>2026-05-04T15:23:51.999Z</time></trkpt><trkpt lat="42.876848849241426" lon="11.91369947997405"><ele>681.0</ele><time>2026-05-04T15:23:53.999Z</time></trkpt><trkpt lat="42.87688677699507" lon="11.913768796814658"><ele>681.0</ele><time>2026-05-04T15:23:56.999Z</time></trkpt><trkpt lat="42.876923531699354" lon="11.913860075616858"><ele>678.5</ele><time>2026-05-04T15:23:59.999Z</time></trkpt><trkpt lat="42.87697013174269" lon="11.913930545141493"><ele>676.0</ele><time>2026-05-04T15:24:02.999Z</time></trkpt><trkpt lat="42.87700927702223" lon="11.914001221282833"><ele>673.5</ele><time>2026-05-04T15:24:04.999Z</time></trkpt><trkpt lat="42.877060253513136" lon="11.914070681918945"><ele>671.0</ele><time>2026-05-04T15:24:06.999Z</time></trkpt><trkpt lat="42.87709654893444" lon="11.914187922834502"><ele>668.5</ele><time>2026-05-04T15:24:09.999Z</time></trkpt><trkpt lat="42.87713988519138" lon="11.914310243920328"><ele>666.0</ele><time>2026-05-04T15:24:12.999Z</time></trkpt><trkpt lat="42.877191269720164" lon="11.91440892547029"><ele>666.0</ele><time>2026-05-04T15:24:14.999Z</time></trkpt><trkpt lat="42.877251239352326" lon="11.914471828590461"><ele>666.0</ele><time>2026-05-04T15:24:16.999Z</time></trkpt><trkpt lat="42.87730703497734" lon="11.91454507605634"><ele>666.0</ele><time>2026-05-04T15:24:18.999Z</time></trkpt><trkpt lat="42.87736086525594" lon="11.914606797319756"><ele>666.0</ele><time>2026-05-04T15:24:20.999Z</time></trkpt><trkpt lat="42.87741865128225" lon="11.914678199961443"><ele>666.0</ele><time>2026-05-04T15:24:22.999Z</time></trkpt><trkpt lat="42.87746636657586" lon="11.914753104738327"><ele>666.0</ele><time>2026-05-04T15:24:24.999Z</time></trkpt><trkpt lat="42.87748749158033" lon="11.914861105565258"><ele>666.0</ele><time>2026-05-04T15:24:26.999Z</time></trkpt><trkpt lat="42.8775350284181" lon="11.914969398339222"><ele>666.0</ele><time>2026-05-04T15:24:28.999Z</time></trkpt><trkpt lat="42.87759607912566" lon="11.915063255254921"><ele>666.0</ele><time>2026-05-04T15:24:30.999Z</time></trkpt><trkpt lat="42.877655378826795" lon="11.91514639005379"><ele>666.0</ele><time>2026-05-04T15:24:32.999Z</time></trkpt><trkpt lat="42.87771089425838" lon="11.915191284346372"><ele>666.0</ele><time>2026-05-04T15:24:34.999Z</time></trkpt><trkpt lat="42.87777164034301" lon="11.915238443313516"><ele>666.0</ele><time>2026-05-04T15:24:36.999Z</time></trkpt><trkpt lat="42.877832579198206" lon="11.915352150481946"><ele>665.8</ele><time>2026-05-04T15:24:39.999Z</time></trkpt><trkpt lat="42.87790994661731" lon="11.91548104538167"><ele>665.5999999999999</ele><time>2026-05-04T15:24:41.999Z</time></trkpt><trkpt lat="42.87794868094913" lon="11.915559389273945"><ele>665.4</ele><time>2026-05-04T15:24:42.999Z</time></trkpt><trkpt lat="42.87799201849465" lon="11.915650422433364"><ele>665.2</ele><time>2026-05-04T15:24:44.999Z</time></trkpt><trkpt lat="42.87808531990346" lon="11.915694233568608"><ele>665.0</ele><time>2026-05-04T15:24:48.999Z</time></trkpt><trkpt lat="42.878147882447124" lon="11.915783805842018"><ele>665.1666666666666</ele><time>2026-05-04T15:24:50.999Z</time></trkpt><trkpt lat="42.87818492401632" lon="11.915925818937072"><ele>665.3333333333333</ele><time>2026-05-04T15:24:52.999Z</time></trkpt><trkpt lat="42.8782352068721" lon="11.916001684423772"><ele>665.5</ele><time>2026-05-04T15:24:54.999Z</time></trkpt><trkpt lat="42.878305820219424" lon="11.916065328703024"><ele>665.6666666666666</ele><time>2026-05-04T15:24:56.999Z</time></trkpt><trkpt lat="42.87836067065236" lon="11.916132988112002"><ele>665.8333333333334</ele><time>2026-05-04T15:25:23.999Z</time></trkpt><trkpt lat="42.87842481452883" lon="11.916200592232375"><ele>666.0</ele><time>2026-05-04T15:25:25.999Z</time></trkpt><trkpt lat="42.87845761028683" lon="11.916279929167041"><ele>664.1666666666666</ele><time>2026-05-04T15:25:27.999Z</time></trkpt><trkpt lat="42.87848358886462" lon="11.91640043580265"><ele>662.3333333333334</ele><time>2026-05-04T15:25:29.999Z</time></trkpt><trkpt lat="42.8785218845193" lon="11.916501165132827"><ele>660.5</ele><time>2026-05-04T15:25:31.999Z</time></trkpt><trkpt lat="42.878561018022666" lon="11.916611072668449"><ele>658.6666666666667</ele><time>2026-05-04T15:25:34.999Z</time></trkpt><trkpt lat="42.8785933878556" lon="11.916685237331146"><ele>656.8333333333334</ele><time>2026-05-04T15:25:36.999Z</time></trkpt><trkpt lat="42.878605562824255" lon="11.916807338755232"><ele>655.0</ele><time>2026-05-04T15:25:39.999Z</time></trkpt><trkpt lat="42.87858418006172" lon="11.916933163732613"><ele>655.0</ele><time>2026-05-04T15:25:42.999Z</time></trkpt><trkpt lat="42.87859603294435" lon="11.917062967095143"><ele>655.0</ele><time>2026-05-04T15:25:45.999Z</time></trkpt><trkpt lat="42.87860143896336" lon="11.917161971466223"><ele>655.0</ele><time>2026-05-04T15:25:47.999Z</time></trkpt><trkpt lat="42.878621368536486" lon="11.917252122877903"><ele>655.0</ele><time>2026-05-04T15:25:49.999Z</time></trkpt><trkpt lat="42.878638468908406" lon="11.917386886891329"><ele>655.0</ele><time>2026-05-04T15:25:51.999Z</time></trkpt><trkpt lat="42.87865928000891" lon="11.917476532287596"><ele>655.0</ele><time>2026-05-04T15:25:53.999Z</time></trkpt><trkpt lat="42.87869588516188" lon="11.917555253410239"><ele>655.1666666666667</ele><time>2026-05-04T15:25:56.999Z</time></trkpt><trkpt lat="42.87872790058742" lon="11.917633247661481"><ele>655.3333333333334</ele><time>2026-05-04T15:25:58.999Z</time></trkpt><trkpt lat="42.878765208133856" lon="11.917721231667265"><ele>655.5</ele><time>2026-05-04T15:26:00.999Z</time></trkpt><trkpt lat="42.87881097338967" lon="11.917789163344993"><ele>655.6666666666666</ele><time>2026-05-04T15:26:02.999Z</time></trkpt><trkpt lat="42.87888270033641" lon="11.917870075472985"><ele>655.8333333333333</ele><time>2026-05-04T15:26:28.999Z</time></trkpt><trkpt lat="42.87893329658691" lon="11.91797949227138"><ele>656.0</ele><time>2026-05-04T15:26:31.999Z</time></trkpt><trkpt lat="42.878957584571715" lon="11.918060318211076"><ele>656.0</ele><time>2026-05-04T15:26:33.999Z</time></trkpt><trkpt lat="42.87899413288812" lon="11.918132386128375"><ele>656.0</ele><time>2026-05-04T15:26:36.999Z</time></trkpt><trkpt lat="42.879045447139006" lon="11.91821571084952"><ele>656.0</ele><time>2026-05-04T15:26:40.999Z</time></trkpt><trkpt lat="42.87909015784719" lon="11.918313848064729"><ele>656.0</ele><time>2026-05-04T15:26:43.999Z</time></trkpt><trkpt lat="42.87915953423672" lon="11.918379918355448"><ele>656.0</ele><time>2026-05-04T15:26:49.999Z</time></trkpt><trkpt lat="42.87922159357057" lon="11.91840932627458"><ele>656.0</ele><time>2026-05-04T15:26:54Z</time></trkpt><trkpt lat="42.87930065987835" lon="11.918490885624694"><ele>652.2857142857142</ele><time>2026-05-04T15:28:00Z</time></trkpt><trkpt lat="42.879352225567494" lon="11.918564902309596"><ele>648.5714285714286</ele><time>2026-05-04T15:30:29Z</time></trkpt><trkpt lat="42.879406727813596" lon="11.91861150900238"><ele>644.8571428571429</ele><time>2026-05-04T15:30:55Z</time></trkpt><trkpt lat="42.879465398804804" lon="11.918679070791258"><ele>641.1428571428571</ele><time>2026-05-04T15:31:06Z</time></trkpt><trkpt lat="42.879529138209136" lon="11.91872953537903"><ele>637.4285714285714</ele><time>2026-05-04T15:31:38.001Z</time></trkpt><trkpt lat="42.879595355429025" lon="11.918789309144056"><ele>633.7142857142857</ele><time>2026-05-04T15:31:55Z</time></trkpt><trkpt lat="42.87966599186124" lon="11.918807078729522"><ele>630.0</ele><time>2026-05-04T15:32:03Z</time></trkpt><trkpt lat="42.87973496906137" lon="11.918831428802683"><ele>630.0</ele><time>2026-05-04T15:32:12Z</time></trkpt><trkpt lat="42.879798895637784" lon="11.918865434987062"><ele>630.0</ele><time>2026-05-04T15:32:18Z</time></trkpt><trkpt lat="42.87985537742864" lon="11.918911958074833"><ele>630.0</ele><time>2026-05-04T15:32:37Z</time></trkpt><trkpt lat="42.8798980129922" lon="11.918993483727146"><ele>630.0</ele><time>2026-05-04T15:32:43Z</time></trkpt><trkpt lat="42.87995127792469" lon="11.919051287282374"><ele>630.0</ele><time>2026-05-04T15:32:48Z</time></trkpt><trkpt lat="42.8800131934156" lon="11.919105425402641"><ele>630.0</ele><time>2026-05-04T15:33:06Z</time></trkpt><trkpt lat="42.88006678047659" lon="11.919161542993246"><ele>630.0</ele><time>2026-05-04T15:33:08Z</time></trkpt><trkpt lat="42.88012754669099" lon="11.919190471051378"><ele>628.3333333333334</ele><time>2026-05-04T15:33:10Z</time></trkpt><trkpt lat="42.88019082162044" lon="11.919191194194868"><ele>626.6666666666666</ele><time>2026-05-04T15:33:12Z</time></trkpt><trkpt lat="42.88026007856505" lon="11.919209447705168"><ele>625.0</ele><time>2026-05-04T15:33:14Z</time></trkpt><trkpt lat="42.88033140671701" lon="11.919251796537747"><ele>623.3333333333333</ele><time>2026-05-04T15:33:17Z</time></trkpt><trkpt lat="42.880359724681206" lon="11.919339521433308"><ele>621.6666666666666</ele><time>2026-05-04T15:33:20Z</time></trkpt><trkpt lat="42.88038848168701" lon="11.919456564007046"><ele>620.0</ele><time>2026-05-04T15:33:23Z</time></trkpt><trkpt lat="42.880452359577305" lon="11.919530928585019"><ele>620.0</ele><time>2026-05-04T15:33:26Z</time></trkpt><trkpt lat="42.880488343606416" lon="11.919634110326792"><ele>620.0</ele><time>2026-05-04T15:33:30Z</time></trkpt><trkpt lat="42.8805143905798" lon="11.919759884756127"><ele>620.0</ele><time>2026-05-04T15:33:32.001Z</time></trkpt><trkpt lat="42.88054214259089" lon="11.91986937356922"><ele>620.0</ele><time>2026-05-04T15:33:34.001Z</time></trkpt><trkpt lat="42.880588458563224" lon="11.919944879585818"><ele>620.0</ele><time>2026-05-04T15:33:37.001Z</time></trkpt><trkpt lat="42.88061090725302" lon="11.920035196109485"><ele>620.0</ele><time>2026-05-04T15:33:44.001Z</time></trkpt><trkpt lat="42.88064129394207" lon="11.920145530590313"><ele>619.0</ele><time>2026-05-04T15:33:46Z</time></trkpt><trkpt lat="42.88067143482813" lon="11.920255202444494"><ele>618.0</ele><time>2026-05-04T15:33:49Z</time></trkpt><trkpt lat="42.8807016531005" lon="11.920344066343896"><ele>617.0</ele><time>2026-05-04T15:33:51Z</time></trkpt><trkpt lat="42.88072237122863" lon="11.920426617202494"><ele>616.0</ele><time>2026-05-04T15:33:54Z</time></trkpt><trkpt lat="42.88077726262189" lon="11.920504958022217"><ele>615.0</ele><time>2026-05-04T15:33:57Z</time></trkpt><trkpt lat="42.88083095851859" lon="11.920596449478062"><ele>614.0</ele><time>2026-05-04T15:33:59Z</time></trkpt><trkpt lat="42.88088376059466" lon="11.920696123084785"><ele>610.6666666666666</ele><time>2026-05-04T15:34:02Z</time></trkpt><trkpt lat="42.88094267363182" lon="11.92083322192885"><ele>607.3333333333333</ele><time>2026-05-04T15:34:05Z</time></trkpt><trkpt lat="42.88096769699485" lon="11.920924748037685"><ele>604.0</ele><time>2026-05-04T15:34:07Z</time></trkpt><trkpt lat="42.88096632316786" lon="11.921018498978425"><ele>600.6666666666666</ele><time>2026-05-04T15:34:10Z</time></trkpt><trkpt lat="42.88096685810132" lon="11.921116718152488"><ele>597.3333333333334</ele><time>2026-05-04T15:34:12Z</time></trkpt><trkpt lat="42.88095487446726" lon="11.921213153318872"><ele>594.0</ele><time>2026-05-04T15:34:15Z</time></trkpt><trkpt lat="42.880984751544524" lon="11.921314146313943"><ele>594.0</ele><time>2026-05-04T15:34:19Z</time></trkpt><trkpt lat="42.88102532216191" lon="11.92139313141142"><ele>594.0</ele><time>2026-05-04T15:34:28Z</time></trkpt><trkpt lat="42.88105541574604" lon="11.92146866735901"><ele>594.0</ele><time>2026-05-04T15:34:37Z</time></trkpt><trkpt lat="42.88110184816754" lon="11.921531750397234"><ele>594.0</ele><time>2026-05-04T15:34:41Z</time></trkpt><trkpt lat="42.88099644443038" lon="11.921418843265052"><ele>594.0</ele><time>2026-05-04T15:34:49Z</time></trkpt><trkpt lat="42.88091520419086" lon="11.921415130529935"><ele>594.0</ele><time>2026-05-04T15:34:51Z</time></trkpt><trkpt lat="42.8808290703983" lon="11.921422418630666"><ele>595.8333333333334</ele><time>2026-05-04T15:34:53Z</time></trkpt><trkpt lat="42.88074507608345" lon="11.921449612105686"><ele>597.6666666666666</ele><time>2026-05-04T15:34:55Z</time></trkpt><trkpt lat="42.88067004969172" lon="11.921484120736546"><ele>599.5</ele><time>2026-05-04T15:34:57Z</time></trkpt><trkpt lat="42.88061231285638" lon="11.921529629307312"><ele>601.3333333333333</ele><time>2026-05-04T15:34:59Z</time></trkpt><trkpt lat="42.88052976983858" lon="11.921564453392513"><ele>603.1666666666666</ele><time>2026-05-04T15:35:01Z</time></trkpt><trkpt lat="42.880459085766205" lon="11.921597188652523"><ele>605.0</ele><time>2026-05-04T15:35:04Z</time></trkpt><trkpt lat="42.88039504893698" lon="11.921600115038265"><ele>605.0</ele><time>2026-05-04T15:35:08Z</time></trkpt><trkpt lat="42.8803205600081" lon="11.921634230260464"><ele>605.0</ele><time>2026-05-04T15:35:12Z</time></trkpt><trkpt lat="42.88026140966273" lon="11.921665311439428"><ele>605.0</ele><time>2026-05-04T15:35:15Z</time></trkpt><trkpt lat="42.88020265751243" lon="11.921727813788165"><ele>605.0</ele><time>2026-05-04T15:35:19Z</time></trkpt><trkpt lat="42.88018031152548" lon="11.921821951747116"><ele>605.0</ele><time>2026-05-04T15:35:25Z</time></trkpt><trkpt lat="42.88015934784925" lon="11.921907099273312"><ele>605.0</ele><time>2026-05-04T15:35:29Z</time></trkpt><trkpt lat="42.88013847580914" lon="11.921996820722732"><ele>605.0</ele><time>2026-05-04T15:35:32Z</time></trkpt><trkpt lat="42.88011910007007" lon="11.922101638092375"><ele>602.5</ele><time>2026-05-04T15:35:37Z</time></trkpt><trkpt lat="42.88010828265704" lon="11.922193122780737"><ele>600.0</ele><time>2026-05-04T15:35:39Z</time></trkpt><trkpt lat="42.88007666195754" lon="11.922282213785687"><ele>597.5</ele><time>2026-05-04T15:35:49Z</time></trkpt><trkpt lat="42.880065196025136" lon="11.922392301380333"><ele>595.0</ele><time>2026-05-04T15:35:53Z</time></trkpt><trkpt lat="42.88004696278716" lon="11.922480895522316"><ele>592.5</ele><time>2026-05-04T15:35:56Z</time></trkpt><trkpt lat="42.880022664972586" lon="11.922588433476283"><ele>590.0</ele><time>2026-05-04T15:36:00Z</time></trkpt><trkpt lat="42.87996131715306" lon="11.92265647889412"><ele>587.0</ele><time>2026-05-04T15:36:03Z</time></trkpt><trkpt lat="42.87990862532414" lon="11.922733215887298"><ele>584.0</ele><time>2026-05-04T15:36:06Z</time></trkpt><trkpt lat="42.87986474885432" lon="11.922804441837817"><ele>581.0</ele><time>2026-05-04T15:36:08Z</time></trkpt><trkpt lat="42.879775663962114" lon="11.922809335388402"><ele>578.0</ele><time>2026-05-04T15:36:18Z</time></trkpt><trkpt lat="42.879700430964085" lon="11.92286455443414"><ele>575.0</ele><time>2026-05-04T15:36:21Z</time></trkpt><trkpt lat="42.87963651086528" lon="11.922897075459321"><ele>572.0</ele><time>2026-05-04T15:36:39Z</time></trkpt><trkpt lat="42.87957915397412" lon="11.922948437754236"><ele>571.9999999999999</ele><time>2026-05-04T15:36:46Z</time></trkpt><trkpt lat="42.879509880297405" lon="11.922929712192598"><ele>572.0</ele><time>2026-05-04T15:36:49Z</time></trkpt><trkpt lat="42.87943136157046" lon="11.922853741431833"><ele>572.0</ele><time>2026-05-04T15:36:52Z</time></trkpt><trkpt lat="42.87937743212203" lon="11.922798012656598"><ele>572.0</ele><time>2026-05-04T15:36:56Z</time></trkpt><trkpt lat="42.879317040142936" lon="11.922767859672527"><ele>572.0</ele><time>2026-05-04T15:37:04Z</time></trkpt><trkpt lat="42.87925642001338" lon="11.922735636548019"><ele>571.9999999999999</ele><time>2026-05-04T15:37:07Z</time></trkpt><trkpt lat="42.87918321428444" lon="11.922703235418664"><ele>572.0</ele><time>2026-05-04T15:37:10Z</time></trkpt><trkpt lat="42.87911679391815" lon="11.922680658351888"><ele>570.4285714285713</ele><time>2026-05-04T15:37:13Z</time></trkpt><trkpt lat="42.87903873626906" lon="11.922668795774948"><ele>568.8571428571429</ele><time>2026-05-04T15:37:17Z</time></trkpt><trkpt lat="42.87897847432134" lon="11.922741368561404"><ele>567.2857142857142</ele><time>2026-05-04T15:37:22Z</time></trkpt><trkpt lat="42.878930061515916" lon="11.922796285600407"><ele>565.7142857142857</ele><time>2026-05-04T15:37:28Z</time></trkpt><trkpt lat="42.87891835845759" lon="11.922882600173526"><ele>564.1428571428571</ele><time>2026-05-04T15:37:32Z</time></trkpt><trkpt lat="42.87895744000528" lon="11.922984021298014"><ele>562.5714285714286</ele><time>2026-05-04T15:37:39Z</time></trkpt><trkpt lat="42.87897082448122" lon="11.923068145882182"><ele>561.0</ele><time>2026-05-04T15:37:44Z</time></trkpt><trkpt lat="42.878936704952515" lon="11.92314930445528"><ele>561.0</ele><time>2026-05-04T15:37:52Z</time></trkpt><trkpt lat="42.87889450199963" lon="11.923229563412216"><ele>561.0</ele><time>2026-05-04T15:37:56Z</time></trkpt><trkpt lat="42.878886742137105" lon="11.92332961710179"><ele>561.0</ele><time>2026-05-04T15:38:27Z</time></trkpt><trkpt lat="42.87891984798885" lon="11.923418175228562"><ele>561.0</ele><time>2026-05-04T15:38:31Z</time></trkpt><trkpt lat="42.878939224302286" lon="11.923514556970364"><ele>561.0</ele><time>2026-05-04T15:38:37Z</time></trkpt><trkpt lat="42.878930400898554" lon="11.923605286296183"><ele>561.0</ele><time>2026-05-04T15:38:46Z</time></trkpt><trkpt lat="42.87894779563621" lon="11.923715513883899"><ele>561.0</ele><time>2026-05-04T15:38:52Z</time></trkpt><trkpt lat="42.87899336756543" lon="11.923821094144694"><ele>558.8571428571429</ele><time>2026-05-04T15:38:55Z</time></trkpt><trkpt lat="42.87899507067066" lon="11.923930562292709"><ele>556.7142857142857</ele><time>2026-05-04T15:38:58Z</time></trkpt><trkpt lat="42.87900141041176" lon="11.924048012616637"><ele>554.5714285714286</ele><time>2026-05-04T15:39:05Z</time></trkpt><trkpt lat="42.879006755146335" lon="11.924137347887513"><ele>552.4285714285714</ele><time>2026-05-04T15:39:07Z</time></trkpt><trkpt lat="42.87898927879032" lon="11.92422454728829"><ele>550.2857142857142</ele><time>2026-05-04T15:39:09Z</time></trkpt><trkpt lat="42.878966041282254" lon="11.924310986533671"><ele>548.1428571428571</ele><time>2026-05-04T15:39:11Z</time></trkpt><trkpt lat="42.87892289619282" lon="11.924405684556033"><ele>546.0</ele><time>2026-05-04T15:39:14Z</time></trkpt><trkpt lat="42.87886925987558" lon="11.924351659132046"><ele>546.0</ele><time>2026-05-04T15:39:19Z</time></trkpt><trkpt lat="42.87883607794642" lon="11.924249995965962"><ele>546.0</ele><time>2026-05-04T15:39:21Z</time></trkpt><trkpt lat="42.87879598326933" lon="11.92417705899669"><ele>546.0</ele><time>2026-05-04T15:39:24Z</time></trkpt><trkpt lat="42.87872751513245" lon="11.92415586327249"><ele>546.0</ele><time>2026-05-04T15:39:41Z</time></trkpt><trkpt lat="42.87863928642262" lon="11.924132147784515"><ele>546.0</ele><time>2026-05-04T15:39:59Z</time></trkpt><trkpt lat="42.878620548114256" lon="11.924220858185997"><ele>546.0</ele><time>2026-05-04T15:40:02Z</time></trkpt><trkpt lat="42.87861642013643" lon="11.924340380844482"><ele>544.1666666666666</ele><time>2026-05-04T15:40:05Z</time></trkpt><trkpt lat="42.87856661257909" lon="11.924440940558585"><ele>542.3333333333334</ele><time>2026-05-04T15:40:08Z</time></trkpt><trkpt lat="42.8785277857852" lon="11.924511165046932"><ele>540.5</ele><time>2026-05-04T15:40:10Z</time></trkpt><trkpt lat="42.8784848277366" lon="11.924582978951413"><ele>538.6666666666667</ele><time>2026-05-04T15:40:12Z</time></trkpt><trkpt lat="42.87844090691758" lon="11.924657051539771"><ele>536.8333333333334</ele><time>2026-05-04T15:40:14Z</time></trkpt><trkpt lat="42.87840811877782" lon="11.924775985776762"><ele>535.0</ele><time>2026-05-04T15:40:17Z</time></trkpt><trkpt lat="42.87832424530198" lon="11.92482584755927"><ele>535.0</ele><time>2026-05-04T15:40:20Z</time></trkpt><trkpt lat="42.87824810391488" lon="11.924831034922818"><ele>535.0</ele><time>2026-05-04T15:40:22Z</time></trkpt><trkpt lat="42.878169066422174" lon="11.924802456411967"><ele>535.0</ele><time>2026-05-04T15:40:24Z</time></trkpt><trkpt lat="42.878115702456185" lon="11.924740906228392"><ele>535.0</ele><time>2026-05-04T15:40:26Z</time></trkpt><trkpt lat="42.878078776308925" lon="11.924670265177479"><ele>535.0</ele><time>2026-05-04T15:40:28Z</time></trkpt><trkpt lat="42.878010851144936" lon="11.924655284032553"><ele>535.0</ele><time>2026-05-04T15:40:30Z</time></trkpt><trkpt lat="42.877939618023085" lon="11.924703710965304"><ele>535.0</ele><time>2026-05-04T15:40:32Z</time></trkpt><trkpt lat="42.87788461076912" lon="11.924656993362637"><ele>535.0</ele><time>2026-05-04T15:40:35Z</time></trkpt><trkpt lat="42.87782751730653" lon="11.924571137144428"><ele>535.0</ele><time>2026-05-04T15:40:37Z</time></trkpt><trkpt lat="42.877748318114584" lon="11.924621220266939"><ele>535.0</ele><time>2026-05-04T15:40:40Z</time></trkpt><trkpt lat="42.8777629598865" lon="11.924721234006292"><ele>535.0</ele><time>2026-05-04T15:40:42Z</time></trkpt></trkseg></trk></gpx>